<?xml version="1.0" encoding="UTF-8" standalone="no" ?>
<gpx xmlns="http://www.topografix.com/GPX/1/1" xmlns:xsi="http://www.w3.org/2001/XMLSchema-instance" xsi:schemaLocation="http://www.topografix.com/GPX/1/1 http://www.topografix.com/GPX/1/1/gpx.xsd" version="1.1" creator="VisuGPX - https://www.visugpx.com">
  <metadata>
    <name>Reconnaissance VTT Pignan Mosson Gardiole</name>
    <desc><![CDATA[Beau parcours cool et esthétique. Quelques variantes à apporter en bord de Mosson (propriété privé sous la zone de la Lauze) et reprendre le bord de la Mosson (rive gauche) après le pont sur la N112 pour rejoindre le refuge SPA. 
On l\\\'affinera prochainement !]]></desc>
  </metadata>
  <trk>
    <name><![CDATA[Mosson-Gardiole-5mai2013]]></name>
    <trkseg>
      <trkpt lat="43.58101" lon="3.74704">
        <ele>75</ele>
        <time>2013-05-05T06:23:56Z</time>
      </trkpt>
      <trkpt lat="43.58101" lon="3.74704">
        <ele>75.074996</ele>
        <time>2013-05-05T06:23:57Z</time>
      </trkpt>
      <trkpt lat="43.58111" lon="3.74705">
        <ele>77.9</ele>
        <time>2013-05-05T06:28:05Z</time>
      </trkpt>
      <trkpt lat="43.58122" lon="3.74718">
        <ele>77.5</ele>
        <time>2013-05-05T06:28:12Z</time>
      </trkpt>
      <trkpt lat="43.58128" lon="3.74727">
        <ele>77.6</ele>
        <time>2013-05-05T06:28:16Z</time>
      </trkpt>
      <trkpt lat="43.58134" lon="3.74734">
        <ele>77.9</ele>
        <time>2013-05-05T06:28:19Z</time>
      </trkpt>
      <trkpt lat="43.58141" lon="3.74739">
        <ele>78.2</ele>
        <time>2013-05-05T06:28:22Z</time>
      </trkpt>
      <trkpt lat="43.58149" lon="3.74745">
        <ele>78.9</ele>
        <time>2013-05-05T06:28:26Z</time>
      </trkpt>
      <trkpt lat="43.58156" lon="3.74749">
        <ele>79.5</ele>
        <time>2013-05-05T06:28:29Z</time>
      </trkpt>
      <trkpt lat="43.5816" lon="3.74758">
        <ele>79.7</ele>
        <time>2013-05-05T06:28:32Z</time>
      </trkpt>
      <trkpt lat="43.58159" lon="3.74769">
        <ele>79.3</ele>
        <time>2013-05-05T06:28:34Z</time>
      </trkpt>
      <trkpt lat="43.58157" lon="3.74775">
        <ele>79.1</ele>
        <time>2013-05-05T06:28:35Z</time>
      </trkpt>
      <trkpt lat="43.58155" lon="3.74782">
        <ele>78.7</ele>
        <time>2013-05-05T06:28:36Z</time>
      </trkpt>
      <trkpt lat="43.58153" lon="3.7479">
        <ele>78.3</ele>
        <time>2013-05-05T06:28:37Z</time>
      </trkpt>
      <trkpt lat="43.5815" lon="3.74799">
        <ele>77.7</ele>
        <time>2013-05-05T06:28:38Z</time>
      </trkpt>
      <trkpt lat="43.58148" lon="3.74809">
        <ele>77.1</ele>
        <time>2013-05-05T06:28:39Z</time>
      </trkpt>
      <trkpt lat="43.58145" lon="3.74819">
        <ele>76.4</ele>
        <time>2013-05-05T06:28:40Z</time>
      </trkpt>
      <trkpt lat="43.58142" lon="3.74831">
        <ele>75.5</ele>
        <time>2013-05-05T06:28:41Z</time>
      </trkpt>
      <trkpt lat="43.58139" lon="3.74842">
        <ele>74.6</ele>
        <time>2013-05-05T06:28:42Z</time>
      </trkpt>
      <trkpt lat="43.58136" lon="3.74854">
        <ele>73.5</ele>
        <time>2013-05-05T06:28:43Z</time>
      </trkpt>
      <trkpt lat="43.58133" lon="3.74863">
        <ele>72.4</ele>
        <time>2013-05-05T06:28:44Z</time>
      </trkpt>
      <trkpt lat="43.58128" lon="3.74871">
        <ele>71.1</ele>
        <time>2013-05-05T06:28:45Z</time>
      </trkpt>
      <trkpt lat="43.58121" lon="3.74877">
        <ele>69.7</ele>
        <time>2013-05-05T06:28:46Z</time>
      </trkpt>
      <trkpt lat="43.58113" lon="3.7488">
        <ele>68.5</ele>
        <time>2013-05-05T06:28:47Z</time>
      </trkpt>
      <trkpt lat="43.58104" lon="3.74882">
        <ele>67.3</ele>
        <time>2013-05-05T06:28:48Z</time>
      </trkpt>
      <trkpt lat="43.58095" lon="3.74885">
        <ele>66.2</ele>
        <time>2013-05-05T06:28:49Z</time>
      </trkpt>
      <trkpt lat="43.58088" lon="3.74887">
        <ele>65.2</ele>
        <time>2013-05-05T06:28:50Z</time>
      </trkpt>
      <trkpt lat="43.58083" lon="3.74891">
        <ele>64.3</ele>
        <time>2013-05-05T06:28:51Z</time>
      </trkpt>
      <trkpt lat="43.58079" lon="3.74897">
        <ele>63.6</ele>
        <time>2013-05-05T06:28:52Z</time>
      </trkpt>
      <trkpt lat="43.58082" lon="3.74909">
        <ele>62.7</ele>
        <time>2013-05-05T06:28:54Z</time>
      </trkpt>
      <trkpt lat="43.58084" lon="3.74914">
        <ele>62.4</ele>
        <time>2013-05-05T06:28:55Z</time>
      </trkpt>
      <trkpt lat="43.58087" lon="3.7492">
        <ele>62.2</ele>
        <time>2013-05-05T06:28:56Z</time>
      </trkpt>
      <trkpt lat="43.5809" lon="3.74926">
        <ele>62</ele>
        <time>2013-05-05T06:28:57Z</time>
      </trkpt>
      <trkpt lat="43.58092" lon="3.74933">
        <ele>61.9</ele>
        <time>2013-05-05T06:28:58Z</time>
      </trkpt>
      <trkpt lat="43.58095" lon="3.74939">
        <ele>61.8</ele>
        <time>2013-05-05T06:28:59Z</time>
      </trkpt>
      <trkpt lat="43.58098" lon="3.74946">
        <ele>61.7</ele>
        <time>2013-05-05T06:29:00Z</time>
      </trkpt>
      <trkpt lat="43.58101" lon="3.74953">
        <ele>61.6</ele>
        <time>2013-05-05T06:29:01Z</time>
      </trkpt>
      <trkpt lat="43.58104" lon="3.7496">
        <ele>61.6</ele>
        <time>2013-05-05T06:29:02Z</time>
      </trkpt>
      <trkpt lat="43.58107" lon="3.74967">
        <ele>61.6</ele>
        <time>2013-05-05T06:29:03Z</time>
      </trkpt>
      <trkpt lat="43.5811" lon="3.74974">
        <ele>61.6</ele>
        <time>2013-05-05T06:29:04Z</time>
      </trkpt>
      <trkpt lat="43.58114" lon="3.74981">
        <ele>61.5</ele>
        <time>2013-05-05T06:29:05Z</time>
      </trkpt>
      <trkpt lat="43.58117" lon="3.74988">
        <ele>61.5</ele>
        <time>2013-05-05T06:29:06Z</time>
      </trkpt>
      <trkpt lat="43.5812" lon="3.74995">
        <ele>61.5</ele>
        <time>2013-05-05T06:29:07Z</time>
      </trkpt>
      <trkpt lat="43.58124" lon="3.75002">
        <ele>61.5</ele>
        <time>2013-05-05T06:29:08Z</time>
      </trkpt>
      <trkpt lat="43.58127" lon="3.75009">
        <ele>61.5</ele>
        <time>2013-05-05T06:29:09Z</time>
      </trkpt>
      <trkpt lat="43.5813" lon="3.75016">
        <ele>61.5</ele>
        <time>2013-05-05T06:29:10Z</time>
      </trkpt>
      <trkpt lat="43.58133" lon="3.75022">
        <ele>61.6</ele>
        <time>2013-05-05T06:29:11Z</time>
      </trkpt>
      <trkpt lat="43.58136" lon="3.75029">
        <ele>61.6</ele>
        <time>2013-05-05T06:29:12Z</time>
      </trkpt>
      <trkpt lat="43.5814" lon="3.75035">
        <ele>61.6</ele>
        <time>2013-05-05T06:29:13Z</time>
      </trkpt>
      <trkpt lat="43.58143" lon="3.75042">
        <ele>61.5</ele>
        <time>2013-05-05T06:29:14Z</time>
      </trkpt>
      <trkpt lat="43.58147" lon="3.75049">
        <ele>61.5</ele>
        <time>2013-05-05T06:29:15Z</time>
      </trkpt>
      <trkpt lat="43.5815" lon="3.75056">
        <ele>61.4</ele>
        <time>2013-05-05T06:29:16Z</time>
      </trkpt>
      <trkpt lat="43.58153" lon="3.75064">
        <ele>61.3</ele>
        <time>2013-05-05T06:29:17Z</time>
      </trkpt>
      <trkpt lat="43.58157" lon="3.75072">
        <ele>61.2</ele>
        <time>2013-05-05T06:29:18Z</time>
      </trkpt>
      <trkpt lat="43.5816" lon="3.7508">
        <ele>61</ele>
        <time>2013-05-05T06:29:19Z</time>
      </trkpt>
      <trkpt lat="43.58164" lon="3.75087">
        <ele>60.9</ele>
        <time>2013-05-05T06:29:20Z</time>
      </trkpt>
      <trkpt lat="43.58167" lon="3.75094">
        <ele>60.7</ele>
        <time>2013-05-05T06:29:21Z</time>
      </trkpt>
      <trkpt lat="43.58171" lon="3.75102">
        <ele>60.6</ele>
        <time>2013-05-05T06:29:22Z</time>
      </trkpt>
      <trkpt lat="43.58174" lon="3.75111">
        <ele>60.4</ele>
        <time>2013-05-05T06:29:23Z</time>
      </trkpt>
      <trkpt lat="43.58176" lon="3.75119">
        <ele>60.2</ele>
        <time>2013-05-05T06:29:24Z</time>
      </trkpt>
      <trkpt lat="43.58181" lon="3.75136">
        <ele>59.9</ele>
        <time>2013-05-05T06:29:26Z</time>
      </trkpt>
      <trkpt lat="43.58184" lon="3.75143">
        <ele>59.6</ele>
        <time>2013-05-05T06:29:27Z</time>
      </trkpt>
      <trkpt lat="43.58187" lon="3.75151">
        <ele>59.3</ele>
        <time>2013-05-05T06:29:28Z</time>
      </trkpt>
      <trkpt lat="43.58191" lon="3.75159">
        <ele>59</ele>
        <time>2013-05-05T06:29:29Z</time>
      </trkpt>
      <trkpt lat="43.58195" lon="3.75168">
        <ele>58.6</ele>
        <time>2013-05-05T06:29:30Z</time>
      </trkpt>
      <trkpt lat="43.58199" lon="3.75177">
        <ele>58.2</ele>
        <time>2013-05-05T06:29:31Z</time>
      </trkpt>
      <trkpt lat="43.58203" lon="3.75185">
        <ele>57.9</ele>
        <time>2013-05-05T06:29:32Z</time>
      </trkpt>
      <trkpt lat="43.58206" lon="3.75194">
        <ele>57.6</ele>
        <time>2013-05-05T06:29:33Z</time>
      </trkpt>
      <trkpt lat="43.5821" lon="3.75203">
        <ele>57.3</ele>
        <time>2013-05-05T06:29:34Z</time>
      </trkpt>
      <trkpt lat="43.58214" lon="3.75211">
        <ele>57.2</ele>
        <time>2013-05-05T06:29:35Z</time>
      </trkpt>
      <trkpt lat="43.58218" lon="3.7522">
        <ele>57</ele>
        <time>2013-05-05T06:29:36Z</time>
      </trkpt>
      <trkpt lat="43.58222" lon="3.75229">
        <ele>57</ele>
        <time>2013-05-05T06:29:37Z</time>
      </trkpt>
      <trkpt lat="43.58226" lon="3.75237">
        <ele>56.9</ele>
        <time>2013-05-05T06:29:38Z</time>
      </trkpt>
      <trkpt lat="43.58229" lon="3.75246">
        <ele>56.9</ele>
        <time>2013-05-05T06:29:39Z</time>
      </trkpt>
      <trkpt lat="43.58234" lon="3.75255">
        <ele>56.8</ele>
        <time>2013-05-05T06:29:40Z</time>
      </trkpt>
      <trkpt lat="43.58237" lon="3.75264">
        <ele>56.7</ele>
        <time>2013-05-05T06:29:41Z</time>
      </trkpt>
      <trkpt lat="43.58241" lon="3.75272">
        <ele>56.6</ele>
        <time>2013-05-05T06:29:42Z</time>
      </trkpt>
      <trkpt lat="43.58246" lon="3.75281">
        <ele>56.6</ele>
        <time>2013-05-05T06:29:43Z</time>
      </trkpt>
      <trkpt lat="43.5825" lon="3.7529">
        <ele>56.5</ele>
        <time>2013-05-05T06:29:44Z</time>
      </trkpt>
      <trkpt lat="43.58253" lon="3.75299">
        <ele>56.5</ele>
        <time>2013-05-05T06:29:45Z</time>
      </trkpt>
      <trkpt lat="43.58258" lon="3.75308">
        <ele>56.4</ele>
        <time>2013-05-05T06:29:46Z</time>
      </trkpt>
      <trkpt lat="43.58262" lon="3.75316">
        <ele>56.4</ele>
        <time>2013-05-05T06:29:47Z</time>
      </trkpt>
      <trkpt lat="43.58266" lon="3.75325">
        <ele>56.3</ele>
        <time>2013-05-05T06:29:48Z</time>
      </trkpt>
      <trkpt lat="43.58269" lon="3.75334">
        <ele>56.3</ele>
        <time>2013-05-05T06:29:49Z</time>
      </trkpt>
      <trkpt lat="43.58273" lon="3.75343">
        <ele>56.3</ele>
        <time>2013-05-05T06:29:50Z</time>
      </trkpt>
      <trkpt lat="43.58277" lon="3.75351">
        <ele>56.3</ele>
        <time>2013-05-05T06:29:51Z</time>
      </trkpt>
      <trkpt lat="43.58281" lon="3.7536">
        <ele>56.2</ele>
        <time>2013-05-05T06:29:52Z</time>
      </trkpt>
      <trkpt lat="43.58284" lon="3.75368">
        <ele>56.1</ele>
        <time>2013-05-05T06:29:53Z</time>
      </trkpt>
      <trkpt lat="43.58288" lon="3.75377">
        <ele>56.1</ele>
        <time>2013-05-05T06:29:54Z</time>
      </trkpt>
      <trkpt lat="43.58292" lon="3.75385">
        <ele>56.1</ele>
        <time>2013-05-05T06:29:55Z</time>
      </trkpt>
      <trkpt lat="43.58296" lon="3.75393">
        <ele>56</ele>
        <time>2013-05-05T06:29:56Z</time>
      </trkpt>
      <trkpt lat="43.58299" lon="3.75402">
        <ele>56</ele>
        <time>2013-05-05T06:29:57Z</time>
      </trkpt>
      <trkpt lat="43.58303" lon="3.7541">
        <ele>56</ele>
        <time>2013-05-05T06:29:58Z</time>
      </trkpt>
      <trkpt lat="43.58307" lon="3.75418">
        <ele>55.9</ele>
        <time>2013-05-05T06:29:59Z</time>
      </trkpt>
      <trkpt lat="43.5831" lon="3.75426">
        <ele>55.9</ele>
        <time>2013-05-05T06:30:00Z</time>
      </trkpt>
      <trkpt lat="43.58314" lon="3.75435">
        <ele>55.8</ele>
        <time>2013-05-05T06:30:01Z</time>
      </trkpt>
      <trkpt lat="43.58318" lon="3.75443">
        <ele>55.8</ele>
        <time>2013-05-05T06:30:02Z</time>
      </trkpt>
      <trkpt lat="43.58321" lon="3.75451">
        <ele>55.8</ele>
        <time>2013-05-05T06:30:03Z</time>
      </trkpt>
      <trkpt lat="43.58325" lon="3.75459">
        <ele>55.8</ele>
        <time>2013-05-05T06:30:04Z</time>
      </trkpt>
      <trkpt lat="43.58329" lon="3.75467">
        <ele>55.8</ele>
        <time>2013-05-05T06:30:05Z</time>
      </trkpt>
      <trkpt lat="43.58333" lon="3.75475">
        <ele>55.8</ele>
        <time>2013-05-05T06:30:06Z</time>
      </trkpt>
      <trkpt lat="43.58336" lon="3.75483">
        <ele>55.8</ele>
        <time>2013-05-05T06:30:07Z</time>
      </trkpt>
      <trkpt lat="43.5834" lon="3.75491">
        <ele>55.8</ele>
        <time>2013-05-05T06:30:08Z</time>
      </trkpt>
      <trkpt lat="43.58343" lon="3.755">
        <ele>55.8</ele>
        <time>2013-05-05T06:30:09Z</time>
      </trkpt>
      <trkpt lat="43.58347" lon="3.75508">
        <ele>55.8</ele>
        <time>2013-05-05T06:30:10Z</time>
      </trkpt>
      <trkpt lat="43.58351" lon="3.75516">
        <ele>55.8</ele>
        <time>2013-05-05T06:30:11Z</time>
      </trkpt>
      <trkpt lat="43.58355" lon="3.75523">
        <ele>55.9</ele>
        <time>2013-05-05T06:30:12Z</time>
      </trkpt>
      <trkpt lat="43.58359" lon="3.75531">
        <ele>55.9</ele>
        <time>2013-05-05T06:30:13Z</time>
      </trkpt>
      <trkpt lat="43.58362" lon="3.75539">
        <ele>55.9</ele>
        <time>2013-05-05T06:30:14Z</time>
      </trkpt>
      <trkpt lat="43.58366" lon="3.75546">
        <ele>55.9</ele>
        <time>2013-05-05T06:30:15Z</time>
      </trkpt>
      <trkpt lat="43.58369" lon="3.75554">
        <ele>56</ele>
        <time>2013-05-05T06:30:16Z</time>
      </trkpt>
      <trkpt lat="43.58373" lon="3.75562">
        <ele>56</ele>
        <time>2013-05-05T06:30:17Z</time>
      </trkpt>
      <trkpt lat="43.58376" lon="3.75569">
        <ele>56.1</ele>
        <time>2013-05-05T06:30:18Z</time>
      </trkpt>
      <trkpt lat="43.5838" lon="3.75577">
        <ele>56.1</ele>
        <time>2013-05-05T06:30:19Z</time>
      </trkpt>
      <trkpt lat="43.58383" lon="3.75584">
        <ele>56.1</ele>
        <time>2013-05-05T06:30:20Z</time>
      </trkpt>
      <trkpt lat="43.58386" lon="3.75592">
        <ele>56.2</ele>
        <time>2013-05-05T06:30:21Z</time>
      </trkpt>
      <trkpt lat="43.58389" lon="3.75599">
        <ele>56.2</ele>
        <time>2013-05-05T06:30:22Z</time>
      </trkpt>
      <trkpt lat="43.58392" lon="3.75607">
        <ele>56.3</ele>
        <time>2013-05-05T06:30:23Z</time>
      </trkpt>
      <trkpt lat="43.58395" lon="3.75614">
        <ele>56.4</ele>
        <time>2013-05-05T06:30:24Z</time>
      </trkpt>
      <trkpt lat="43.58398" lon="3.75621">
        <ele>56.4</ele>
        <time>2013-05-05T06:30:25Z</time>
      </trkpt>
      <trkpt lat="43.58402" lon="3.75628">
        <ele>56.5</ele>
        <time>2013-05-05T06:30:26Z</time>
      </trkpt>
      <trkpt lat="43.58405" lon="3.75635">
        <ele>56.6</ele>
        <time>2013-05-05T06:30:27Z</time>
      </trkpt>
      <trkpt lat="43.58408" lon="3.75643">
        <ele>56.7</ele>
        <time>2013-05-05T06:30:28Z</time>
      </trkpt>
      <trkpt lat="43.58411" lon="3.7565">
        <ele>56.7</ele>
        <time>2013-05-05T06:30:29Z</time>
      </trkpt>
      <trkpt lat="43.58414" lon="3.75657">
        <ele>56.8</ele>
        <time>2013-05-05T06:30:30Z</time>
      </trkpt>
      <trkpt lat="43.58418" lon="3.75665">
        <ele>56.8</ele>
        <time>2013-05-05T06:30:31Z</time>
      </trkpt>
      <trkpt lat="43.58421" lon="3.75672">
        <ele>56.8</ele>
        <time>2013-05-05T06:30:32Z</time>
      </trkpt>
      <trkpt lat="43.58424" lon="3.7568">
        <ele>56.8</ele>
        <time>2013-05-05T06:30:33Z</time>
      </trkpt>
      <trkpt lat="43.58427" lon="3.75687">
        <ele>56.7</ele>
        <time>2013-05-05T06:30:34Z</time>
      </trkpt>
      <trkpt lat="43.58431" lon="3.75694">
        <ele>56.7</ele>
        <time>2013-05-05T06:30:35Z</time>
      </trkpt>
      <trkpt lat="43.58434" lon="3.75702">
        <ele>56.6</ele>
        <time>2013-05-05T06:30:36Z</time>
      </trkpt>
      <trkpt lat="43.58438" lon="3.75709">
        <ele>56.5</ele>
        <time>2013-05-05T06:30:37Z</time>
      </trkpt>
      <trkpt lat="43.58442" lon="3.75716">
        <ele>56.4</ele>
        <time>2013-05-05T06:30:38Z</time>
      </trkpt>
      <trkpt lat="43.58445" lon="3.75723">
        <ele>56.3</ele>
        <time>2013-05-05T06:30:39Z</time>
      </trkpt>
      <trkpt lat="43.58449" lon="3.7573">
        <ele>56.1</ele>
        <time>2013-05-05T06:30:40Z</time>
      </trkpt>
      <trkpt lat="43.58452" lon="3.75737">
        <ele>55.9</ele>
        <time>2013-05-05T06:30:41Z</time>
      </trkpt>
      <trkpt lat="43.58455" lon="3.75745">
        <ele>55.9</ele>
        <time>2013-05-05T06:30:42Z</time>
      </trkpt>
      <trkpt lat="43.58458" lon="3.7575">
        <ele>55.8</ele>
        <time>2013-05-05T06:30:43Z</time>
      </trkpt>
      <trkpt lat="43.58466" lon="3.75753">
        <ele>55.7</ele>
        <time>2013-05-05T06:30:45Z</time>
      </trkpt>
      <trkpt lat="43.58474" lon="3.75746">
        <ele>55.9</ele>
        <time>2013-05-05T06:30:48Z</time>
      </trkpt>
      <trkpt lat="43.58474" lon="3.75735">
        <ele>56.5</ele>
        <time>2013-05-05T06:30:51Z</time>
      </trkpt>
      <trkpt lat="43.58478" lon="3.75724">
        <ele>59.9</ele>
        <time>2013-05-05T06:38:30Z</time>
      </trkpt>
      <trkpt lat="43.58478" lon="3.75724">
        <ele>60</ele>
        <time>2013-05-05T06:38:31Z</time>
      </trkpt>
      <trkpt lat="43.58495" lon="3.7573">
        <ele>59.9</ele>
        <time>2013-05-05T06:40:26Z</time>
      </trkpt>
      <trkpt lat="43.58495" lon="3.75729">
        <ele>59.9</ele>
        <time>2013-05-05T06:40:27Z</time>
      </trkpt>
      <trkpt lat="43.58486" lon="3.75732">
        <ele>59.4</ele>
        <time>2013-05-05T06:42:46Z</time>
      </trkpt>
      <trkpt lat="43.58486" lon="3.75751">
        <ele>59.7</ele>
        <time>2013-05-05T06:43:20Z</time>
      </trkpt>
      <trkpt lat="43.58481" lon="3.75757">
        <ele>59.1</ele>
        <time>2013-05-05T06:43:22Z</time>
      </trkpt>
      <trkpt lat="43.58476" lon="3.75764">
        <ele>59.2</ele>
        <time>2013-05-05T06:43:24Z</time>
      </trkpt>
      <trkpt lat="43.58475" lon="3.75776">
        <ele>58.7</ele>
        <time>2013-05-05T06:43:26Z</time>
      </trkpt>
      <trkpt lat="43.58478" lon="3.75787">
        <ele>58.1</ele>
        <time>2013-05-05T06:43:28Z</time>
      </trkpt>
      <trkpt lat="43.58482" lon="3.75796">
        <ele>58</ele>
        <time>2013-05-05T06:43:30Z</time>
      </trkpt>
      <trkpt lat="43.58486" lon="3.75805">
        <ele>58</ele>
        <time>2013-05-05T06:43:32Z</time>
      </trkpt>
      <trkpt lat="43.58489" lon="3.75814">
        <ele>58.6</ele>
        <time>2013-05-05T06:43:34Z</time>
      </trkpt>
      <trkpt lat="43.58492" lon="3.75822">
        <ele>58.7</ele>
        <time>2013-05-05T06:43:36Z</time>
      </trkpt>
      <trkpt lat="43.58495" lon="3.75829">
        <ele>58.7</ele>
        <time>2013-05-05T06:43:38Z</time>
      </trkpt>
      <trkpt lat="43.58498" lon="3.75836">
        <ele>58.5</ele>
        <time>2013-05-05T06:43:40Z</time>
      </trkpt>
      <trkpt lat="43.58501" lon="3.75844">
        <ele>58.3</ele>
        <time>2013-05-05T06:43:42Z</time>
      </trkpt>
      <trkpt lat="43.58505" lon="3.75852">
        <ele>58</ele>
        <time>2013-05-05T06:43:44Z</time>
      </trkpt>
      <trkpt lat="43.5851" lon="3.75861">
        <ele>58.2</ele>
        <time>2013-05-05T06:43:46Z</time>
      </trkpt>
      <trkpt lat="43.58514" lon="3.75869">
        <ele>58.4</ele>
        <time>2013-05-05T06:43:48Z</time>
      </trkpt>
      <trkpt lat="43.58517" lon="3.75874">
        <ele>58.4</ele>
        <time>2013-05-05T06:43:49Z</time>
      </trkpt>
      <trkpt lat="43.58524" lon="3.75887">
        <ele>58.7</ele>
        <time>2013-05-05T06:43:52Z</time>
      </trkpt>
      <trkpt lat="43.58528" lon="3.75896">
        <ele>59</ele>
        <time>2013-05-05T06:43:54Z</time>
      </trkpt>
      <trkpt lat="43.58532" lon="3.75905">
        <ele>58.4</ele>
        <time>2013-05-05T06:43:56Z</time>
      </trkpt>
      <trkpt lat="43.58537" lon="3.75914">
        <ele>58.3</ele>
        <time>2013-05-05T06:43:58Z</time>
      </trkpt>
      <trkpt lat="43.58541" lon="3.75923">
        <ele>58.3</ele>
        <time>2013-05-05T06:44:00Z</time>
      </trkpt>
      <trkpt lat="43.58545" lon="3.75933">
        <ele>58.4</ele>
        <time>2013-05-05T06:44:02Z</time>
      </trkpt>
      <trkpt lat="43.58549" lon="3.75943">
        <ele>58.4</ele>
        <time>2013-05-05T06:44:04Z</time>
      </trkpt>
      <trkpt lat="43.58553" lon="3.75953">
        <ele>58.4</ele>
        <time>2013-05-05T06:44:06Z</time>
      </trkpt>
      <trkpt lat="43.58557" lon="3.75963">
        <ele>59.2</ele>
        <time>2013-05-05T06:44:08Z</time>
      </trkpt>
      <trkpt lat="43.58561" lon="3.75973">
        <ele>60.2</ele>
        <time>2013-05-05T06:44:10Z</time>
      </trkpt>
      <trkpt lat="43.58565" lon="3.75983">
        <ele>59.8</ele>
        <time>2013-05-05T06:44:12Z</time>
      </trkpt>
      <trkpt lat="43.58569" lon="3.75993">
        <ele>59</ele>
        <time>2013-05-05T06:44:14Z</time>
      </trkpt>
      <trkpt lat="43.58573" lon="3.76002">
        <ele>58.2</ele>
        <time>2013-05-05T06:44:16Z</time>
      </trkpt>
      <trkpt lat="43.58576" lon="3.76012">
        <ele>58.4</ele>
        <time>2013-05-05T06:44:18Z</time>
      </trkpt>
      <trkpt lat="43.58577" lon="3.76022">
        <ele>58.4</ele>
        <time>2013-05-05T06:44:20Z</time>
      </trkpt>
      <trkpt lat="43.58575" lon="3.76033">
        <ele>58.4</ele>
        <time>2013-05-05T06:44:22Z</time>
      </trkpt>
      <trkpt lat="43.58573" lon="3.76039">
        <ele>58.1</ele>
        <time>2013-05-05T06:44:23Z</time>
      </trkpt>
      <trkpt lat="43.58571" lon="3.76045">
        <ele>57.9</ele>
        <time>2013-05-05T06:44:24Z</time>
      </trkpt>
      <trkpt lat="43.58569" lon="3.76051">
        <ele>57.8</ele>
        <time>2013-05-05T06:44:25Z</time>
      </trkpt>
      <trkpt lat="43.58569" lon="3.76057">
        <ele>57.7</ele>
        <time>2013-05-05T06:44:26Z</time>
      </trkpt>
      <trkpt lat="43.58573" lon="3.76068">
        <ele>57.7</ele>
        <time>2013-05-05T06:44:28Z</time>
      </trkpt>
      <trkpt lat="43.58577" lon="3.76072">
        <ele>57.7</ele>
        <time>2013-05-05T06:44:29Z</time>
      </trkpt>
      <trkpt lat="43.58583" lon="3.7608">
        <ele>57.7</ele>
        <time>2013-05-05T06:44:31Z</time>
      </trkpt>
      <trkpt lat="43.58587" lon="3.76084">
        <ele>57.7</ele>
        <time>2013-05-05T06:44:32Z</time>
      </trkpt>
      <trkpt lat="43.58593" lon="3.76093">
        <ele>57.6</ele>
        <time>2013-05-05T06:44:34Z</time>
      </trkpt>
      <trkpt lat="43.58596" lon="3.76098">
        <ele>57.6</ele>
        <time>2013-05-05T06:44:35Z</time>
      </trkpt>
      <trkpt lat="43.58599" lon="3.76104">
        <ele>57.8</ele>
        <time>2013-05-05T06:44:36Z</time>
      </trkpt>
      <trkpt lat="43.58601" lon="3.76109">
        <ele>57.9</ele>
        <time>2013-05-05T06:44:37Z</time>
      </trkpt>
      <trkpt lat="43.58604" lon="3.76114">
        <ele>58</ele>
        <time>2013-05-05T06:44:38Z</time>
      </trkpt>
      <trkpt lat="43.58607" lon="3.76119">
        <ele>57.8</ele>
        <time>2013-05-05T06:44:39Z</time>
      </trkpt>
      <trkpt lat="43.5861" lon="3.76124">
        <ele>57.7</ele>
        <time>2013-05-05T06:44:40Z</time>
      </trkpt>
      <trkpt lat="43.58613" lon="3.7613">
        <ele>57.6</ele>
        <time>2013-05-05T06:44:41Z</time>
      </trkpt>
      <trkpt lat="43.58615" lon="3.76135">
        <ele>57.6</ele>
        <time>2013-05-05T06:44:42Z</time>
      </trkpt>
      <trkpt lat="43.58618" lon="3.7614">
        <ele>57.5</ele>
        <time>2013-05-05T06:44:43Z</time>
      </trkpt>
      <trkpt lat="43.58621" lon="3.76146">
        <ele>57.5</ele>
        <time>2013-05-05T06:44:44Z</time>
      </trkpt>
      <trkpt lat="43.58623" lon="3.76151">
        <ele>57.5</ele>
        <time>2013-05-05T06:44:45Z</time>
      </trkpt>
      <trkpt lat="43.58626" lon="3.76156">
        <ele>57.7</ele>
        <time>2013-05-05T06:44:46Z</time>
      </trkpt>
      <trkpt lat="43.58629" lon="3.76162">
        <ele>57.9</ele>
        <time>2013-05-05T06:44:47Z</time>
      </trkpt>
      <trkpt lat="43.58632" lon="3.76167">
        <ele>58</ele>
        <time>2013-05-05T06:44:48Z</time>
      </trkpt>
      <trkpt lat="43.58634" lon="3.76172">
        <ele>57.8</ele>
        <time>2013-05-05T06:44:49Z</time>
      </trkpt>
      <trkpt lat="43.58637" lon="3.76178">
        <ele>57.7</ele>
        <time>2013-05-05T06:44:50Z</time>
      </trkpt>
      <trkpt lat="43.5864" lon="3.76183">
        <ele>57.6</ele>
        <time>2013-05-05T06:44:51Z</time>
      </trkpt>
      <trkpt lat="43.58642" lon="3.76188">
        <ele>57.7</ele>
        <time>2013-05-05T06:44:52Z</time>
      </trkpt>
      <trkpt lat="43.58645" lon="3.76193">
        <ele>57.7</ele>
        <time>2013-05-05T06:44:53Z</time>
      </trkpt>
      <trkpt lat="43.58647" lon="3.76199">
        <ele>57.8</ele>
        <time>2013-05-05T06:44:54Z</time>
      </trkpt>
      <trkpt lat="43.5865" lon="3.76204">
        <ele>57.8</ele>
        <time>2013-05-05T06:44:55Z</time>
      </trkpt>
      <trkpt lat="43.58653" lon="3.7621">
        <ele>57.9</ele>
        <time>2013-05-05T06:44:56Z</time>
      </trkpt>
      <trkpt lat="43.58655" lon="3.76215">
        <ele>57.9</ele>
        <time>2013-05-05T06:44:57Z</time>
      </trkpt>
      <trkpt lat="43.58658" lon="3.76221">
        <ele>57.9</ele>
        <time>2013-05-05T06:44:58Z</time>
      </trkpt>
      <trkpt lat="43.58661" lon="3.76226">
        <ele>57.9</ele>
        <time>2013-05-05T06:44:59Z</time>
      </trkpt>
      <trkpt lat="43.58664" lon="3.76232">
        <ele>57.9</ele>
        <time>2013-05-05T06:45:00Z</time>
      </trkpt>
      <trkpt lat="43.58666" lon="3.76238">
        <ele>57.8</ele>
        <time>2013-05-05T06:45:01Z</time>
      </trkpt>
      <trkpt lat="43.58669" lon="3.76244">
        <ele>57.7</ele>
        <time>2013-05-05T06:45:02Z</time>
      </trkpt>
      <trkpt lat="43.58671" lon="3.7625">
        <ele>57.6</ele>
        <time>2013-05-05T06:45:03Z</time>
      </trkpt>
      <trkpt lat="43.58674" lon="3.76256">
        <ele>57.5</ele>
        <time>2013-05-05T06:45:04Z</time>
      </trkpt>
      <trkpt lat="43.58677" lon="3.76262">
        <ele>57.4</ele>
        <time>2013-05-05T06:45:05Z</time>
      </trkpt>
      <trkpt lat="43.5868" lon="3.76267">
        <ele>57.2</ele>
        <time>2013-05-05T06:45:06Z</time>
      </trkpt>
      <trkpt lat="43.58683" lon="3.76273">
        <ele>57.1</ele>
        <time>2013-05-05T06:45:07Z</time>
      </trkpt>
      <trkpt lat="43.58686" lon="3.76279">
        <ele>56.8</ele>
        <time>2013-05-05T06:45:08Z</time>
      </trkpt>
      <trkpt lat="43.5869" lon="3.76285">
        <ele>56.6</ele>
        <time>2013-05-05T06:45:09Z</time>
      </trkpt>
      <trkpt lat="43.58693" lon="3.76291">
        <ele>56.5</ele>
        <time>2013-05-05T06:45:10Z</time>
      </trkpt>
      <trkpt lat="43.58697" lon="3.76296">
        <ele>56.6</ele>
        <time>2013-05-05T06:45:11Z</time>
      </trkpt>
      <trkpt lat="43.58701" lon="3.763">
        <ele>56.6</ele>
        <time>2013-05-05T06:45:12Z</time>
      </trkpt>
      <trkpt lat="43.58706" lon="3.76302">
        <ele>56.7</ele>
        <time>2013-05-05T06:45:13Z</time>
      </trkpt>
      <trkpt lat="43.58715" lon="3.763">
        <ele>56.6</ele>
        <time>2013-05-05T06:45:15Z</time>
      </trkpt>
      <trkpt lat="43.58722" lon="3.76294">
        <ele>56.7</ele>
        <time>2013-05-05T06:45:17Z</time>
      </trkpt>
      <trkpt lat="43.58729" lon="3.76287">
        <ele>56.9</ele>
        <time>2013-05-05T06:45:19Z</time>
      </trkpt>
      <trkpt lat="43.58737" lon="3.76284">
        <ele>57.2</ele>
        <time>2013-05-05T06:45:21Z</time>
      </trkpt>
      <trkpt lat="43.58743" lon="3.76289">
        <ele>57.3</ele>
        <time>2013-05-05T06:45:23Z</time>
      </trkpt>
      <trkpt lat="43.58748" lon="3.76297">
        <ele>57.5</ele>
        <time>2013-05-05T06:45:25Z</time>
      </trkpt>
      <trkpt lat="43.58753" lon="3.76305">
        <ele>57.1</ele>
        <time>2013-05-05T06:45:27Z</time>
      </trkpt>
      <trkpt lat="43.58758" lon="3.76314">
        <ele>56.4</ele>
        <time>2013-05-05T06:45:29Z</time>
      </trkpt>
      <trkpt lat="43.58762" lon="3.76322">
        <ele>57.6</ele>
        <time>2013-05-05T06:45:31Z</time>
      </trkpt>
      <trkpt lat="43.58767" lon="3.76331">
        <ele>58.4</ele>
        <time>2013-05-05T06:45:33Z</time>
      </trkpt>
      <trkpt lat="43.58772" lon="3.7634">
        <ele>59</ele>
        <time>2013-05-05T06:45:35Z</time>
      </trkpt>
      <trkpt lat="43.58777" lon="3.76348">
        <ele>59.5</ele>
        <time>2013-05-05T06:45:37Z</time>
      </trkpt>
      <trkpt lat="43.58782" lon="3.76355">
        <ele>59.5</ele>
        <time>2013-05-05T06:45:39Z</time>
      </trkpt>
      <trkpt lat="43.58787" lon="3.76361">
        <ele>59.2</ele>
        <time>2013-05-05T06:45:41Z</time>
      </trkpt>
      <trkpt lat="43.58793" lon="3.76366">
        <ele>59.4</ele>
        <time>2013-05-05T06:45:43Z</time>
      </trkpt>
      <trkpt lat="43.58799" lon="3.76368">
        <ele>59.7</ele>
        <time>2013-05-05T06:45:45Z</time>
      </trkpt>
      <trkpt lat="43.58805" lon="3.76371">
        <ele>60</ele>
        <time>2013-05-05T06:45:47Z</time>
      </trkpt>
      <trkpt lat="43.58813" lon="3.76375">
        <ele>60.5</ele>
        <time>2013-05-05T06:45:50Z</time>
      </trkpt>
      <trkpt lat="43.5882" lon="3.76381">
        <ele>61.2</ele>
        <time>2013-05-05T06:45:53Z</time>
      </trkpt>
      <trkpt lat="43.58822" lon="3.76383">
        <ele>61.3</ele>
        <time>2013-05-05T06:45:54Z</time>
      </trkpt>
      <trkpt lat="43.58831" lon="3.76397">
        <ele>63</ele>
        <time>2013-05-05T06:45:58Z</time>
      </trkpt>
      <trkpt lat="43.58836" lon="3.76405">
        <ele>62.4</ele>
        <time>2013-05-05T06:46:00Z</time>
      </trkpt>
      <trkpt lat="43.58841" lon="3.76413">
        <ele>62.4</ele>
        <time>2013-05-05T06:46:02Z</time>
      </trkpt>
      <trkpt lat="43.58848" lon="3.76421">
        <ele>62.8</ele>
        <time>2013-05-05T06:46:04Z</time>
      </trkpt>
      <trkpt lat="43.58851" lon="3.76426">
        <ele>62.2</ele>
        <time>2013-05-05T06:46:05Z</time>
      </trkpt>
      <trkpt lat="43.58856" lon="3.7643">
        <ele>61.7</ele>
        <time>2013-05-05T06:46:06Z</time>
      </trkpt>
      <trkpt lat="43.58862" lon="3.76438">
        <ele>61.1</ele>
        <time>2013-05-05T06:46:08Z</time>
      </trkpt>
      <trkpt lat="43.58867" lon="3.76445">
        <ele>60.9</ele>
        <time>2013-05-05T06:46:11Z</time>
      </trkpt>
      <trkpt lat="43.58872" lon="3.76452">
        <ele>61.5</ele>
        <time>2013-05-05T06:46:14Z</time>
      </trkpt>
      <trkpt lat="43.58877" lon="3.76462">
        <ele>62.3</ele>
        <time>2013-05-05T06:46:17Z</time>
      </trkpt>
      <trkpt lat="43.5888" lon="3.76468">
        <ele>62</ele>
        <time>2013-05-05T06:46:19Z</time>
      </trkpt>
      <trkpt lat="43.58885" lon="3.76475">
        <ele>61.7</ele>
        <time>2013-05-05T06:46:21Z</time>
      </trkpt>
      <trkpt lat="43.5889" lon="3.76482">
        <ele>61.4</ele>
        <time>2013-05-05T06:46:23Z</time>
      </trkpt>
      <trkpt lat="43.58893" lon="3.76489">
        <ele>62.1</ele>
        <time>2013-05-05T06:46:25Z</time>
      </trkpt>
      <trkpt lat="43.58897" lon="3.76497">
        <ele>62.2</ele>
        <time>2013-05-05T06:46:27Z</time>
      </trkpt>
      <trkpt lat="43.58902" lon="3.76505">
        <ele>62</ele>
        <time>2013-05-05T06:46:29Z</time>
      </trkpt>
      <trkpt lat="43.58906" lon="3.76513">
        <ele>61.7</ele>
        <time>2013-05-05T06:46:31Z</time>
      </trkpt>
      <trkpt lat="43.58911" lon="3.76522">
        <ele>61.6</ele>
        <time>2013-05-05T06:46:33Z</time>
      </trkpt>
      <trkpt lat="43.58916" lon="3.76531">
        <ele>61.5</ele>
        <time>2013-05-05T06:46:35Z</time>
      </trkpt>
      <trkpt lat="43.58921" lon="3.7654">
        <ele>61.5</ele>
        <time>2013-05-05T06:46:37Z</time>
      </trkpt>
      <trkpt lat="43.58924" lon="3.76544">
        <ele>61.5</ele>
        <time>2013-05-05T06:46:38Z</time>
      </trkpt>
      <trkpt lat="43.58927" lon="3.76549">
        <ele>61.5</ele>
        <time>2013-05-05T06:46:39Z</time>
      </trkpt>
      <trkpt lat="43.5893" lon="3.76554">
        <ele>61.3</ele>
        <time>2013-05-05T06:46:40Z</time>
      </trkpt>
      <trkpt lat="43.58934" lon="3.76559">
        <ele>61.2</ele>
        <time>2013-05-05T06:46:41Z</time>
      </trkpt>
      <trkpt lat="43.58937" lon="3.76565">
        <ele>61.1</ele>
        <time>2013-05-05T06:46:42Z</time>
      </trkpt>
      <trkpt lat="43.5894" lon="3.76571">
        <ele>61</ele>
        <time>2013-05-05T06:46:43Z</time>
      </trkpt>
      <trkpt lat="43.58943" lon="3.76577">
        <ele>61</ele>
        <time>2013-05-05T06:46:44Z</time>
      </trkpt>
      <trkpt lat="43.58947" lon="3.76582">
        <ele>61</ele>
        <time>2013-05-05T06:46:45Z</time>
      </trkpt>
      <trkpt lat="43.5895" lon="3.76588">
        <ele>60.7</ele>
        <time>2013-05-05T06:46:46Z</time>
      </trkpt>
      <trkpt lat="43.58953" lon="3.76594">
        <ele>60.4</ele>
        <time>2013-05-05T06:46:47Z</time>
      </trkpt>
      <trkpt lat="43.58956" lon="3.766">
        <ele>60.3</ele>
        <time>2013-05-05T06:46:48Z</time>
      </trkpt>
      <trkpt lat="43.58961" lon="3.76608">
        <ele>59.2</ele>
        <time>2013-05-05T06:46:50Z</time>
      </trkpt>
      <trkpt lat="43.58967" lon="3.76618">
        <ele>58.9</ele>
        <time>2013-05-05T06:46:53Z</time>
      </trkpt>
      <trkpt lat="43.58972" lon="3.76624">
        <ele>59.2</ele>
        <time>2013-05-05T06:46:55Z</time>
      </trkpt>
      <trkpt lat="43.58975" lon="3.76627">
        <ele>58.9</ele>
        <time>2013-05-05T06:46:56Z</time>
      </trkpt>
      <trkpt lat="43.58985" lon="3.76637">
        <ele>58.6</ele>
        <time>2013-05-05T06:46:59Z</time>
      </trkpt>
      <trkpt lat="43.58992" lon="3.76643">
        <ele>58.7</ele>
        <time>2013-05-05T06:47:01Z</time>
      </trkpt>
      <trkpt lat="43.58998" lon="3.7665">
        <ele>58.4</ele>
        <time>2013-05-05T06:47:03Z</time>
      </trkpt>
      <trkpt lat="43.59005" lon="3.76656">
        <ele>57.9</ele>
        <time>2013-05-05T06:47:05Z</time>
      </trkpt>
      <trkpt lat="43.59012" lon="3.76662">
        <ele>57.3</ele>
        <time>2013-05-05T06:47:07Z</time>
      </trkpt>
      <trkpt lat="43.5902" lon="3.76667">
        <ele>57.1</ele>
        <time>2013-05-05T06:47:09Z</time>
      </trkpt>
      <trkpt lat="43.59026" lon="3.76674">
        <ele>57</ele>
        <time>2013-05-05T06:47:11Z</time>
      </trkpt>
      <trkpt lat="43.59032" lon="3.7668">
        <ele>56.6</ele>
        <time>2013-05-05T06:47:13Z</time>
      </trkpt>
      <trkpt lat="43.5904" lon="3.76686">
        <ele>56.8</ele>
        <time>2013-05-05T06:47:15Z</time>
      </trkpt>
      <trkpt lat="43.59044" lon="3.7669">
        <ele>57</ele>
        <time>2013-05-05T06:47:16Z</time>
      </trkpt>
      <trkpt lat="43.59047" lon="3.76695">
        <ele>57.1</ele>
        <time>2013-05-05T06:47:17Z</time>
      </trkpt>
      <trkpt lat="43.59053" lon="3.76705">
        <ele>57.1</ele>
        <time>2013-05-05T06:47:19Z</time>
      </trkpt>
      <trkpt lat="43.59057" lon="3.76713">
        <ele>56.8</ele>
        <time>2013-05-05T06:47:21Z</time>
      </trkpt>
      <trkpt lat="43.59062" lon="3.7672">
        <ele>56.5</ele>
        <time>2013-05-05T06:47:23Z</time>
      </trkpt>
      <trkpt lat="43.5907" lon="3.76725">
        <ele>56.8</ele>
        <time>2013-05-05T06:47:26Z</time>
      </trkpt>
      <trkpt lat="43.59078" lon="3.76729">
        <ele>56.5</ele>
        <time>2013-05-05T06:47:29Z</time>
      </trkpt>
      <trkpt lat="43.59085" lon="3.76732">
        <ele>56.7</ele>
        <time>2013-05-05T06:47:32Z</time>
      </trkpt>
      <trkpt lat="43.59093" lon="3.76734">
        <ele>57.4</ele>
        <time>2013-05-05T06:47:35Z</time>
      </trkpt>
      <trkpt lat="43.59101" lon="3.76737">
        <ele>57.5</ele>
        <time>2013-05-05T06:47:38Z</time>
      </trkpt>
      <trkpt lat="43.59108" lon="3.76741">
        <ele>57.7</ele>
        <time>2013-05-05T06:47:41Z</time>
      </trkpt>
      <trkpt lat="43.59116" lon="3.76744">
        <ele>58.7</ele>
        <time>2013-05-05T06:47:45Z</time>
      </trkpt>
      <trkpt lat="43.59124" lon="3.76746">
        <ele>59.9</ele>
        <time>2013-05-05T06:47:49Z</time>
      </trkpt>
      <trkpt lat="43.59131" lon="3.76751">
        <ele>60.5</ele>
        <time>2013-05-05T06:47:53Z</time>
      </trkpt>
      <trkpt lat="43.59139" lon="3.76757">
        <ele>61.2</ele>
        <time>2013-05-05T06:47:57Z</time>
      </trkpt>
      <trkpt lat="43.59141" lon="3.76759">
        <ele>61.3</ele>
        <time>2013-05-05T06:47:58Z</time>
      </trkpt>
      <trkpt lat="43.59151" lon="3.76769">
        <ele>61.2</ele>
        <time>2013-05-05T06:48:05Z</time>
      </trkpt>
      <trkpt lat="43.59156" lon="3.76776">
        <ele>62.3</ele>
        <time>2013-05-05T06:48:09Z</time>
      </trkpt>
      <trkpt lat="43.59161" lon="3.76784">
        <ele>62.6</ele>
        <time>2013-05-05T06:48:13Z</time>
      </trkpt>
      <trkpt lat="43.59166" lon="3.76792">
        <ele>64.5</ele>
        <time>2013-05-05T06:48:17Z</time>
      </trkpt>
      <trkpt lat="43.59172" lon="3.76801">
        <ele>64.7</ele>
        <time>2013-05-05T06:48:21Z</time>
      </trkpt>
      <trkpt lat="43.59177" lon="3.76809">
        <ele>65.2</ele>
        <time>2013-05-05T06:48:25Z</time>
      </trkpt>
      <trkpt lat="43.5918" lon="3.76819">
        <ele>66.3</ele>
        <time>2013-05-05T06:48:29Z</time>
      </trkpt>
      <trkpt lat="43.59184" lon="3.76829">
        <ele>67.4</ele>
        <time>2013-05-05T06:48:33Z</time>
      </trkpt>
      <trkpt lat="43.59188" lon="3.76839">
        <ele>66.8</ele>
        <time>2013-05-05T06:48:36Z</time>
      </trkpt>
      <trkpt lat="43.59192" lon="3.76849">
        <ele>66.9</ele>
        <time>2013-05-05T06:48:39Z</time>
      </trkpt>
      <trkpt lat="43.59197" lon="3.76858">
        <ele>67.5</ele>
        <time>2013-05-05T06:48:42Z</time>
      </trkpt>
      <trkpt lat="43.59203" lon="3.76865">
        <ele>67</ele>
        <time>2013-05-05T06:48:45Z</time>
      </trkpt>
      <trkpt lat="43.5921" lon="3.76872">
        <ele>66.9</ele>
        <time>2013-05-05T06:48:48Z</time>
      </trkpt>
      <trkpt lat="43.59217" lon="3.76876">
        <ele>67.6</ele>
        <time>2013-05-05T06:48:51Z</time>
      </trkpt>
      <trkpt lat="43.59225" lon="3.7688">
        <ele>68.6</ele>
        <time>2013-05-05T06:48:54Z</time>
      </trkpt>
      <trkpt lat="43.59233" lon="3.76883">
        <ele>68.9</ele>
        <time>2013-05-05T06:48:57Z</time>
      </trkpt>
      <trkpt lat="43.5924" lon="3.76888">
        <ele>69.1</ele>
        <time>2013-05-05T06:49:00Z</time>
      </trkpt>
      <trkpt lat="43.59243" lon="3.7689">
        <ele>69.1</ele>
        <time>2013-05-05T06:49:01Z</time>
      </trkpt>
      <trkpt lat="43.59256" lon="3.76899">
        <ele>69.8</ele>
        <time>2013-05-05T06:49:06Z</time>
      </trkpt>
      <trkpt lat="43.59264" lon="3.76904">
        <ele>69.7</ele>
        <time>2013-05-05T06:49:09Z</time>
      </trkpt>
      <trkpt lat="43.59272" lon="3.76908">
        <ele>70.4</ele>
        <time>2013-05-05T06:49:12Z</time>
      </trkpt>
      <trkpt lat="43.59281" lon="3.76911">
        <ele>71.1</ele>
        <time>2013-05-05T06:49:15Z</time>
      </trkpt>
      <trkpt lat="43.59287" lon="3.76913">
        <ele>71.5</ele>
        <time>2013-05-05T06:49:17Z</time>
      </trkpt>
      <trkpt lat="43.59292" lon="3.76915">
        <ele>71.7</ele>
        <time>2013-05-05T06:49:19Z</time>
      </trkpt>
      <trkpt lat="43.59298" lon="3.76917">
        <ele>71.8</ele>
        <time>2013-05-05T06:49:21Z</time>
      </trkpt>
      <trkpt lat="43.59306" lon="3.76921">
        <ele>71.7</ele>
        <time>2013-05-05T06:49:24Z</time>
      </trkpt>
      <trkpt lat="43.59312" lon="3.76924">
        <ele>72.4</ele>
        <time>2013-05-05T06:49:26Z</time>
      </trkpt>
      <trkpt lat="43.59317" lon="3.76929">
        <ele>72.9</ele>
        <time>2013-05-05T06:49:28Z</time>
      </trkpt>
      <trkpt lat="43.59322" lon="3.76933">
        <ele>73.2</ele>
        <time>2013-05-05T06:49:30Z</time>
      </trkpt>
      <trkpt lat="43.59327" lon="3.76938">
        <ele>72.8</ele>
        <time>2013-05-05T06:49:32Z</time>
      </trkpt>
      <trkpt lat="43.59332" lon="3.76943">
        <ele>72.9</ele>
        <time>2013-05-05T06:49:34Z</time>
      </trkpt>
      <trkpt lat="43.59339" lon="3.7695">
        <ele>73.2</ele>
        <time>2013-05-05T06:49:37Z</time>
      </trkpt>
      <trkpt lat="43.59346" lon="3.76958">
        <ele>73.1</ele>
        <time>2013-05-05T06:49:40Z</time>
      </trkpt>
      <trkpt lat="43.59351" lon="3.76962">
        <ele>73.7</ele>
        <time>2013-05-05T06:49:42Z</time>
      </trkpt>
      <trkpt lat="43.59356" lon="3.76967">
        <ele>73.8</ele>
        <time>2013-05-05T06:49:44Z</time>
      </trkpt>
      <trkpt lat="43.59362" lon="3.76972">
        <ele>73.7</ele>
        <time>2013-05-05T06:49:46Z</time>
      </trkpt>
      <trkpt lat="43.59367" lon="3.76976">
        <ele>73.7</ele>
        <time>2013-05-05T06:49:48Z</time>
      </trkpt>
      <trkpt lat="43.59373" lon="3.7698">
        <ele>74</ele>
        <time>2013-05-05T06:49:50Z</time>
      </trkpt>
      <trkpt lat="43.59379" lon="3.76984">
        <ele>74.4</ele>
        <time>2013-05-05T06:49:52Z</time>
      </trkpt>
      <trkpt lat="43.59385" lon="3.76987">
        <ele>74.7</ele>
        <time>2013-05-05T06:49:54Z</time>
      </trkpt>
      <trkpt lat="43.59391" lon="3.7699">
        <ele>74.9</ele>
        <time>2013-05-05T06:49:56Z</time>
      </trkpt>
      <trkpt lat="43.59397" lon="3.76993">
        <ele>74.6</ele>
        <time>2013-05-05T06:49:58Z</time>
      </trkpt>
      <trkpt lat="43.59404" lon="3.76996">
        <ele>74.6</ele>
        <time>2013-05-05T06:50:00Z</time>
      </trkpt>
      <trkpt lat="43.5941" lon="3.76999">
        <ele>74.9</ele>
        <time>2013-05-05T06:50:02Z</time>
      </trkpt>
      <trkpt lat="43.59413" lon="3.77">
        <ele>75.3</ele>
        <time>2013-05-05T06:50:03Z</time>
      </trkpt>
      <trkpt lat="43.59422" lon="3.77004">
        <ele>76.2</ele>
        <time>2013-05-05T06:50:06Z</time>
      </trkpt>
      <trkpt lat="43.59428" lon="3.77007">
        <ele>76.5</ele>
        <time>2013-05-05T06:50:08Z</time>
      </trkpt>
      <trkpt lat="43.59434" lon="3.77011">
        <ele>76</ele>
        <time>2013-05-05T06:50:10Z</time>
      </trkpt>
      <trkpt lat="43.59441" lon="3.77015">
        <ele>75.7</ele>
        <time>2013-05-05T06:50:12Z</time>
      </trkpt>
      <trkpt lat="43.59448" lon="3.77019">
        <ele>76.5</ele>
        <time>2013-05-05T06:50:14Z</time>
      </trkpt>
      <trkpt lat="43.59455" lon="3.77024">
        <ele>76.2</ele>
        <time>2013-05-05T06:50:16Z</time>
      </trkpt>
      <trkpt lat="43.59463" lon="3.7703">
        <ele>75.6</ele>
        <time>2013-05-05T06:50:18Z</time>
      </trkpt>
      <trkpt lat="43.59467" lon="3.77033">
        <ele>75.5</ele>
        <time>2013-05-05T06:50:19Z</time>
      </trkpt>
      <trkpt lat="43.59471" lon="3.77036">
        <ele>75.5</ele>
        <time>2013-05-05T06:50:20Z</time>
      </trkpt>
      <trkpt lat="43.59476" lon="3.77039">
        <ele>75.5</ele>
        <time>2013-05-05T06:50:21Z</time>
      </trkpt>
      <trkpt lat="43.5948" lon="3.77042">
        <ele>75.2</ele>
        <time>2013-05-05T06:50:22Z</time>
      </trkpt>
      <trkpt lat="43.59485" lon="3.77046">
        <ele>75</ele>
        <time>2013-05-05T06:50:23Z</time>
      </trkpt>
      <trkpt lat="43.5949" lon="3.77049">
        <ele>74.9</ele>
        <time>2013-05-05T06:50:24Z</time>
      </trkpt>
      <trkpt lat="43.59495" lon="3.77051">
        <ele>74.4</ele>
        <time>2013-05-05T06:50:25Z</time>
      </trkpt>
      <trkpt lat="43.595" lon="3.77054">
        <ele>74</ele>
        <time>2013-05-05T06:50:26Z</time>
      </trkpt>
      <trkpt lat="43.59506" lon="3.77056">
        <ele>73.7</ele>
        <time>2013-05-05T06:50:27Z</time>
      </trkpt>
      <trkpt lat="43.59511" lon="3.77058">
        <ele>73.7</ele>
        <time>2013-05-05T06:50:28Z</time>
      </trkpt>
      <trkpt lat="43.59516" lon="3.7706">
        <ele>73.7</ele>
        <time>2013-05-05T06:50:29Z</time>
      </trkpt>
      <trkpt lat="43.59521" lon="3.77062">
        <ele>73.7</ele>
        <time>2013-05-05T06:50:30Z</time>
      </trkpt>
      <trkpt lat="43.59526" lon="3.77064">
        <ele>73.7</ele>
        <time>2013-05-05T06:50:31Z</time>
      </trkpt>
      <trkpt lat="43.59532" lon="3.77066">
        <ele>73.2</ele>
        <time>2013-05-05T06:50:32Z</time>
      </trkpt>
      <trkpt lat="43.59537" lon="3.77068">
        <ele>72.9</ele>
        <time>2013-05-05T06:50:33Z</time>
      </trkpt>
      <trkpt lat="43.59542" lon="3.77071">
        <ele>72.7</ele>
        <time>2013-05-05T06:50:34Z</time>
      </trkpt>
      <trkpt lat="43.59547" lon="3.77073">
        <ele>72.5</ele>
        <time>2013-05-05T06:50:35Z</time>
      </trkpt>
      <trkpt lat="43.59552" lon="3.77076">
        <ele>72.3</ele>
        <time>2013-05-05T06:50:36Z</time>
      </trkpt>
      <trkpt lat="43.59556" lon="3.77078">
        <ele>72.2</ele>
        <time>2013-05-05T06:50:37Z</time>
      </trkpt>
      <trkpt lat="43.59561" lon="3.7708">
        <ele>72</ele>
        <time>2013-05-05T06:50:38Z</time>
      </trkpt>
      <trkpt lat="43.59566" lon="3.77083">
        <ele>71.9</ele>
        <time>2013-05-05T06:50:39Z</time>
      </trkpt>
      <trkpt lat="43.59571" lon="3.77085">
        <ele>71.7</ele>
        <time>2013-05-05T06:50:40Z</time>
      </trkpt>
      <trkpt lat="43.59575" lon="3.77088">
        <ele>71.6</ele>
        <time>2013-05-05T06:50:41Z</time>
      </trkpt>
      <trkpt lat="43.5958" lon="3.7709">
        <ele>71.5</ele>
        <time>2013-05-05T06:50:42Z</time>
      </trkpt>
      <trkpt lat="43.59585" lon="3.77093">
        <ele>71.4</ele>
        <time>2013-05-05T06:50:43Z</time>
      </trkpt>
      <trkpt lat="43.59589" lon="3.77095">
        <ele>71.4</ele>
        <time>2013-05-05T06:50:44Z</time>
      </trkpt>
      <trkpt lat="43.59594" lon="3.77098">
        <ele>71.4</ele>
        <time>2013-05-05T06:50:45Z</time>
      </trkpt>
      <trkpt lat="43.59599" lon="3.771">
        <ele>71.4</ele>
        <time>2013-05-05T06:50:46Z</time>
      </trkpt>
      <trkpt lat="43.59603" lon="3.77103">
        <ele>71.2</ele>
        <time>2013-05-05T06:50:47Z</time>
      </trkpt>
      <trkpt lat="43.59608" lon="3.77105">
        <ele>71</ele>
        <time>2013-05-05T06:50:48Z</time>
      </trkpt>
      <trkpt lat="43.59613" lon="3.77108">
        <ele>70.9</ele>
        <time>2013-05-05T06:50:49Z</time>
      </trkpt>
      <trkpt lat="43.59617" lon="3.7711">
        <ele>70.8</ele>
        <time>2013-05-05T06:50:50Z</time>
      </trkpt>
      <trkpt lat="43.59622" lon="3.77112">
        <ele>70.5</ele>
        <time>2013-05-05T06:50:51Z</time>
      </trkpt>
      <trkpt lat="43.59626" lon="3.77115">
        <ele>70.4</ele>
        <time>2013-05-05T06:50:52Z</time>
      </trkpt>
      <trkpt lat="43.59631" lon="3.77117">
        <ele>70.2</ele>
        <time>2013-05-05T06:50:53Z</time>
      </trkpt>
      <trkpt lat="43.59635" lon="3.7712">
        <ele>70.1</ele>
        <time>2013-05-05T06:50:54Z</time>
      </trkpt>
      <trkpt lat="43.5964" lon="3.77122">
        <ele>70</ele>
        <time>2013-05-05T06:50:55Z</time>
      </trkpt>
      <trkpt lat="43.59644" lon="3.77125">
        <ele>70</ele>
        <time>2013-05-05T06:50:56Z</time>
      </trkpt>
      <trkpt lat="43.59649" lon="3.77127">
        <ele>70</ele>
        <time>2013-05-05T06:50:57Z</time>
      </trkpt>
      <trkpt lat="43.59653" lon="3.7713">
        <ele>69.9</ele>
        <time>2013-05-05T06:50:58Z</time>
      </trkpt>
      <trkpt lat="43.59658" lon="3.77132">
        <ele>69.9</ele>
        <time>2013-05-05T06:50:59Z</time>
      </trkpt>
      <trkpt lat="43.59662" lon="3.77135">
        <ele>70</ele>
        <time>2013-05-05T06:51:00Z</time>
      </trkpt>
      <trkpt lat="43.59667" lon="3.77137">
        <ele>70</ele>
        <time>2013-05-05T06:51:01Z</time>
      </trkpt>
      <trkpt lat="43.59671" lon="3.7714">
        <ele>70</ele>
        <time>2013-05-05T06:51:02Z</time>
      </trkpt>
      <trkpt lat="43.59676" lon="3.77142">
        <ele>69.8</ele>
        <time>2013-05-05T06:51:03Z</time>
      </trkpt>
      <trkpt lat="43.5968" lon="3.77145">
        <ele>69.7</ele>
        <time>2013-05-05T06:51:04Z</time>
      </trkpt>
      <trkpt lat="43.59684" lon="3.77148">
        <ele>69.6</ele>
        <time>2013-05-05T06:51:05Z</time>
      </trkpt>
      <trkpt lat="43.59689" lon="3.7715">
        <ele>69.3</ele>
        <time>2013-05-05T06:51:06Z</time>
      </trkpt>
      <trkpt lat="43.59693" lon="3.77153">
        <ele>69.1</ele>
        <time>2013-05-05T06:51:07Z</time>
      </trkpt>
      <trkpt lat="43.59698" lon="3.77156">
        <ele>68.9</ele>
        <time>2013-05-05T06:51:08Z</time>
      </trkpt>
      <trkpt lat="43.59703" lon="3.77158">
        <ele>68.8</ele>
        <time>2013-05-05T06:51:09Z</time>
      </trkpt>
      <trkpt lat="43.59707" lon="3.77161">
        <ele>68.7</ele>
        <time>2013-05-05T06:51:10Z</time>
      </trkpt>
      <trkpt lat="43.59712" lon="3.77163">
        <ele>68.7</ele>
        <time>2013-05-05T06:51:11Z</time>
      </trkpt>
      <trkpt lat="43.59716" lon="3.77166">
        <ele>68.7</ele>
        <time>2013-05-05T06:51:12Z</time>
      </trkpt>
      <trkpt lat="43.5972" lon="3.7717">
        <ele>68.8</ele>
        <time>2013-05-05T06:51:13Z</time>
      </trkpt>
      <trkpt lat="43.59724" lon="3.7718">
        <ele>68.9</ele>
        <time>2013-05-05T06:51:15Z</time>
      </trkpt>
      <trkpt lat="43.59721" lon="3.77189">
        <ele>68.7</ele>
        <time>2013-05-05T06:51:17Z</time>
      </trkpt>
      <trkpt lat="43.59715" lon="3.77196">
        <ele>68.3</ele>
        <time>2013-05-05T06:51:19Z</time>
      </trkpt>
      <trkpt lat="43.59711" lon="3.772">
        <ele>68</ele>
        <time>2013-05-05T06:51:20Z</time>
      </trkpt>
      <trkpt lat="43.59707" lon="3.77204">
        <ele>67.8</ele>
        <time>2013-05-05T06:51:21Z</time>
      </trkpt>
      <trkpt lat="43.59703" lon="3.77208">
        <ele>67.5</ele>
        <time>2013-05-05T06:51:22Z</time>
      </trkpt>
      <trkpt lat="43.59699" lon="3.77212">
        <ele>67.3</ele>
        <time>2013-05-05T06:51:23Z</time>
      </trkpt>
      <trkpt lat="43.59695" lon="3.77216">
        <ele>67.1</ele>
        <time>2013-05-05T06:51:24Z</time>
      </trkpt>
      <trkpt lat="43.59691" lon="3.7722">
        <ele>67.2</ele>
        <time>2013-05-05T06:51:25Z</time>
      </trkpt>
      <trkpt lat="43.59687" lon="3.77224">
        <ele>67.2</ele>
        <time>2013-05-05T06:51:26Z</time>
      </trkpt>
      <trkpt lat="43.59683" lon="3.77228">
        <ele>67.2</ele>
        <time>2013-05-05T06:51:27Z</time>
      </trkpt>
      <trkpt lat="43.59678" lon="3.77231">
        <ele>67.2</ele>
        <time>2013-05-05T06:51:28Z</time>
      </trkpt>
      <trkpt lat="43.59674" lon="3.77235">
        <ele>67.2</ele>
        <time>2013-05-05T06:51:29Z</time>
      </trkpt>
      <trkpt lat="43.59669" lon="3.77239">
        <ele>67.2</ele>
        <time>2013-05-05T06:51:30Z</time>
      </trkpt>
      <trkpt lat="43.59665" lon="3.77242">
        <ele>67.2</ele>
        <time>2013-05-05T06:51:31Z</time>
      </trkpt>
      <trkpt lat="43.5966" lon="3.77245">
        <ele>67.3</ele>
        <time>2013-05-05T06:51:32Z</time>
      </trkpt>
      <trkpt lat="43.59655" lon="3.77249">
        <ele>67.5</ele>
        <time>2013-05-05T06:51:33Z</time>
      </trkpt>
      <trkpt lat="43.5965" lon="3.77252">
        <ele>67.6</ele>
        <time>2013-05-05T06:51:34Z</time>
      </trkpt>
      <trkpt lat="43.59646" lon="3.77255">
        <ele>67.5</ele>
        <time>2013-05-05T06:51:35Z</time>
      </trkpt>
      <trkpt lat="43.59641" lon="3.77258">
        <ele>67.5</ele>
        <time>2013-05-05T06:51:36Z</time>
      </trkpt>
      <trkpt lat="43.59636" lon="3.77261">
        <ele>67.5</ele>
        <time>2013-05-05T06:51:37Z</time>
      </trkpt>
      <trkpt lat="43.59631" lon="3.77264">
        <ele>67.4</ele>
        <time>2013-05-05T06:51:38Z</time>
      </trkpt>
      <trkpt lat="43.59627" lon="3.77267">
        <ele>67.3</ele>
        <time>2013-05-05T06:51:39Z</time>
      </trkpt>
      <trkpt lat="43.59622" lon="3.77271">
        <ele>67.2</ele>
        <time>2013-05-05T06:51:40Z</time>
      </trkpt>
      <trkpt lat="43.59617" lon="3.77274">
        <ele>67</ele>
        <time>2013-05-05T06:51:41Z</time>
      </trkpt>
      <trkpt lat="43.59613" lon="3.77278">
        <ele>66.9</ele>
        <time>2013-05-05T06:51:42Z</time>
      </trkpt>
      <trkpt lat="43.59608" lon="3.77282">
        <ele>66.7</ele>
        <time>2013-05-05T06:51:43Z</time>
      </trkpt>
      <trkpt lat="43.59603" lon="3.77285">
        <ele>66.6</ele>
        <time>2013-05-05T06:51:44Z</time>
      </trkpt>
      <trkpt lat="43.59599" lon="3.77289">
        <ele>66.5</ele>
        <time>2013-05-05T06:51:45Z</time>
      </trkpt>
      <trkpt lat="43.59594" lon="3.77293">
        <ele>66.4</ele>
        <time>2013-05-05T06:51:46Z</time>
      </trkpt>
      <trkpt lat="43.5959" lon="3.77297">
        <ele>66.3</ele>
        <time>2013-05-05T06:51:47Z</time>
      </trkpt>
      <trkpt lat="43.59586" lon="3.77301">
        <ele>66.2</ele>
        <time>2013-05-05T06:51:48Z</time>
      </trkpt>
      <trkpt lat="43.59582" lon="3.77305">
        <ele>66</ele>
        <time>2013-05-05T06:51:49Z</time>
      </trkpt>
      <trkpt lat="43.59577" lon="3.77309">
        <ele>65.9</ele>
        <time>2013-05-05T06:51:50Z</time>
      </trkpt>
      <trkpt lat="43.59573" lon="3.77313">
        <ele>66</ele>
        <time>2013-05-05T06:51:51Z</time>
      </trkpt>
      <trkpt lat="43.59569" lon="3.77317">
        <ele>66</ele>
        <time>2013-05-05T06:51:52Z</time>
      </trkpt>
      <trkpt lat="43.59565" lon="3.77321">
        <ele>66.1</ele>
        <time>2013-05-05T06:51:53Z</time>
      </trkpt>
      <trkpt lat="43.59561" lon="3.77326">
        <ele>65.6</ele>
        <time>2013-05-05T06:51:54Z</time>
      </trkpt>
      <trkpt lat="43.59557" lon="3.7733">
        <ele>65.3</ele>
        <time>2013-05-05T06:51:55Z</time>
      </trkpt>
      <trkpt lat="43.59552" lon="3.77334">
        <ele>65.1</ele>
        <time>2013-05-05T06:51:56Z</time>
      </trkpt>
      <trkpt lat="43.59548" lon="3.77338">
        <ele>65.1</ele>
        <time>2013-05-05T06:51:57Z</time>
      </trkpt>
      <trkpt lat="43.59544" lon="3.77342">
        <ele>65.1</ele>
        <time>2013-05-05T06:51:58Z</time>
      </trkpt>
      <trkpt lat="43.59539" lon="3.77345">
        <ele>65.1</ele>
        <time>2013-05-05T06:51:59Z</time>
      </trkpt>
      <trkpt lat="43.59535" lon="3.77348">
        <ele>65.4</ele>
        <time>2013-05-05T06:52:00Z</time>
      </trkpt>
      <trkpt lat="43.5953" lon="3.7735">
        <ele>65.7</ele>
        <time>2013-05-05T06:52:01Z</time>
      </trkpt>
      <trkpt lat="43.59525" lon="3.77352">
        <ele>65.8</ele>
        <time>2013-05-05T06:52:02Z</time>
      </trkpt>
      <trkpt lat="43.5952" lon="3.77354">
        <ele>66</ele>
        <time>2013-05-05T06:52:03Z</time>
      </trkpt>
      <trkpt lat="43.59515" lon="3.77356">
        <ele>66</ele>
        <time>2013-05-05T06:52:04Z</time>
      </trkpt>
      <trkpt lat="43.5951" lon="3.77358">
        <ele>66</ele>
        <time>2013-05-05T06:52:05Z</time>
      </trkpt>
      <trkpt lat="43.59506" lon="3.77361">
        <ele>65.9</ele>
        <time>2013-05-05T06:52:06Z</time>
      </trkpt>
      <trkpt lat="43.59502" lon="3.77365">
        <ele>66.1</ele>
        <time>2013-05-05T06:52:07Z</time>
      </trkpt>
      <trkpt lat="43.59498" lon="3.7737">
        <ele>66.2</ele>
        <time>2013-05-05T06:52:08Z</time>
      </trkpt>
      <trkpt lat="43.59495" lon="3.77375">
        <ele>66.2</ele>
        <time>2013-05-05T06:52:09Z</time>
      </trkpt>
      <trkpt lat="43.59491" lon="3.77381">
        <ele>66.1</ele>
        <time>2013-05-05T06:52:10Z</time>
      </trkpt>
      <trkpt lat="43.59488" lon="3.77386">
        <ele>66.1</ele>
        <time>2013-05-05T06:52:11Z</time>
      </trkpt>
      <trkpt lat="43.59485" lon="3.77392">
        <ele>66</ele>
        <time>2013-05-05T06:52:12Z</time>
      </trkpt>
      <trkpt lat="43.59481" lon="3.77398">
        <ele>65.6</ele>
        <time>2013-05-05T06:52:13Z</time>
      </trkpt>
      <trkpt lat="43.59477" lon="3.77404">
        <ele>65.3</ele>
        <time>2013-05-05T06:52:14Z</time>
      </trkpt>
      <trkpt lat="43.59474" lon="3.7741">
        <ele>65.1</ele>
        <time>2013-05-05T06:52:15Z</time>
      </trkpt>
      <trkpt lat="43.5947" lon="3.77416">
        <ele>65.1</ele>
        <time>2013-05-05T06:52:16Z</time>
      </trkpt>
      <trkpt lat="43.59466" lon="3.77423">
        <ele>65.1</ele>
        <time>2013-05-05T06:52:17Z</time>
      </trkpt>
      <trkpt lat="43.59464" lon="3.7743">
        <ele>65.1</ele>
        <time>2013-05-05T06:52:18Z</time>
      </trkpt>
      <trkpt lat="43.59463" lon="3.77439">
        <ele>64.8</ele>
        <time>2013-05-05T06:52:19Z</time>
      </trkpt>
      <trkpt lat="43.59463" lon="3.77447">
        <ele>64.7</ele>
        <time>2013-05-05T06:52:20Z</time>
      </trkpt>
      <trkpt lat="43.59464" lon="3.77456">
        <ele>64.5</ele>
        <time>2013-05-05T06:52:21Z</time>
      </trkpt>
      <trkpt lat="43.59465" lon="3.77464">
        <ele>64.4</ele>
        <time>2013-05-05T06:52:22Z</time>
      </trkpt>
      <trkpt lat="43.59466" lon="3.77473">
        <ele>64</ele>
        <time>2013-05-05T06:52:23Z</time>
      </trkpt>
      <trkpt lat="43.59466" lon="3.77481">
        <ele>63.6</ele>
        <time>2013-05-05T06:52:24Z</time>
      </trkpt>
      <trkpt lat="43.59464" lon="3.77489">
        <ele>63.4</ele>
        <time>2013-05-05T06:52:25Z</time>
      </trkpt>
      <trkpt lat="43.59462" lon="3.77497">
        <ele>62.9</ele>
        <time>2013-05-05T06:52:26Z</time>
      </trkpt>
      <trkpt lat="43.59458" lon="3.77504">
        <ele>62.6</ele>
        <time>2013-05-05T06:52:27Z</time>
      </trkpt>
      <trkpt lat="43.59454" lon="3.77511">
        <ele>62.4</ele>
        <time>2013-05-05T06:52:28Z</time>
      </trkpt>
      <trkpt lat="43.5945" lon="3.77517">
        <ele>62.3</ele>
        <time>2013-05-05T06:52:29Z</time>
      </trkpt>
      <trkpt lat="43.59445" lon="3.77522">
        <ele>62.2</ele>
        <time>2013-05-05T06:52:30Z</time>
      </trkpt>
      <trkpt lat="43.5944" lon="3.77528">
        <ele>62.2</ele>
        <time>2013-05-05T06:52:31Z</time>
      </trkpt>
      <trkpt lat="43.59436" lon="3.77534">
        <ele>62.1</ele>
        <time>2013-05-05T06:52:32Z</time>
      </trkpt>
      <trkpt lat="43.59431" lon="3.77539">
        <ele>62</ele>
        <time>2013-05-05T06:52:33Z</time>
      </trkpt>
      <trkpt lat="43.59427" lon="3.77544">
        <ele>61.9</ele>
        <time>2013-05-05T06:52:34Z</time>
      </trkpt>
      <trkpt lat="43.59422" lon="3.7755">
        <ele>61.4</ele>
        <time>2013-05-05T06:52:35Z</time>
      </trkpt>
      <trkpt lat="43.59418" lon="3.77555">
        <ele>61</ele>
        <time>2013-05-05T06:52:36Z</time>
      </trkpt>
      <trkpt lat="43.59414" lon="3.77559">
        <ele>60.7</ele>
        <time>2013-05-05T06:52:37Z</time>
      </trkpt>
      <trkpt lat="43.59409" lon="3.77564">
        <ele>60.5</ele>
        <time>2013-05-05T06:52:38Z</time>
      </trkpt>
      <trkpt lat="43.59405" lon="3.77568">
        <ele>60.5</ele>
        <time>2013-05-05T06:52:39Z</time>
      </trkpt>
      <trkpt lat="43.59402" lon="3.77573">
        <ele>60.5</ele>
        <time>2013-05-05T06:52:40Z</time>
      </trkpt>
      <trkpt lat="43.59399" lon="3.77585">
        <ele>60.1</ele>
        <time>2013-05-05T06:52:42Z</time>
      </trkpt>
      <trkpt lat="43.594" lon="3.77591">
        <ele>59.8</ele>
        <time>2013-05-05T06:52:43Z</time>
      </trkpt>
      <trkpt lat="43.594" lon="3.77603">
        <ele>59.7</ele>
        <time>2013-05-05T06:52:45Z</time>
      </trkpt>
      <trkpt lat="43.59403" lon="3.77614">
        <ele>59.8</ele>
        <time>2013-05-05T06:52:47Z</time>
      </trkpt>
      <trkpt lat="43.59405" lon="3.77623">
        <ele>60.4</ele>
        <time>2013-05-05T06:52:49Z</time>
      </trkpt>
      <trkpt lat="43.59408" lon="3.77634">
        <ele>60.6</ele>
        <time>2013-05-05T06:52:51Z</time>
      </trkpt>
      <trkpt lat="43.5941" lon="3.77645">
        <ele>60.7</ele>
        <time>2013-05-05T06:52:53Z</time>
      </trkpt>
      <trkpt lat="43.59413" lon="3.77655">
        <ele>60.1</ele>
        <time>2013-05-05T06:52:55Z</time>
      </trkpt>
      <trkpt lat="43.59415" lon="3.77666">
        <ele>59.8</ele>
        <time>2013-05-05T06:52:57Z</time>
      </trkpt>
      <trkpt lat="43.59416" lon="3.77672">
        <ele>59.6</ele>
        <time>2013-05-05T06:52:58Z</time>
      </trkpt>
      <trkpt lat="43.59418" lon="3.77678">
        <ele>59.5</ele>
        <time>2013-05-05T06:52:59Z</time>
      </trkpt>
      <trkpt lat="43.59421" lon="3.77684">
        <ele>59.4</ele>
        <time>2013-05-05T06:53:00Z</time>
      </trkpt>
      <trkpt lat="43.59424" lon="3.77689">
        <ele>58.9</ele>
        <time>2013-05-05T06:53:01Z</time>
      </trkpt>
      <trkpt lat="43.59426" lon="3.777">
        <ele>58.3</ele>
        <time>2013-05-05T06:53:03Z</time>
      </trkpt>
      <trkpt lat="43.59421" lon="3.7771">
        <ele>58.3</ele>
        <time>2013-05-05T06:53:05Z</time>
      </trkpt>
      <trkpt lat="43.59415" lon="3.77718">
        <ele>58.7</ele>
        <time>2013-05-05T06:53:07Z</time>
      </trkpt>
      <trkpt lat="43.59412" lon="3.77722">
        <ele>58.9</ele>
        <time>2013-05-05T06:53:08Z</time>
      </trkpt>
      <trkpt lat="43.59404" lon="3.77734">
        <ele>59.3</ele>
        <time>2013-05-05T06:53:11Z</time>
      </trkpt>
      <trkpt lat="43.59398" lon="3.77741">
        <ele>59.2</ele>
        <time>2013-05-05T06:53:13Z</time>
      </trkpt>
      <trkpt lat="43.59392" lon="3.7775">
        <ele>59.1</ele>
        <time>2013-05-05T06:53:15Z</time>
      </trkpt>
      <trkpt lat="43.59389" lon="3.77754">
        <ele>59.1</ele>
        <time>2013-05-05T06:53:16Z</time>
      </trkpt>
      <trkpt lat="43.59385" lon="3.77759">
        <ele>58.7</ele>
        <time>2013-05-05T06:53:17Z</time>
      </trkpt>
      <trkpt lat="43.59382" lon="3.77764">
        <ele>58.5</ele>
        <time>2013-05-05T06:53:18Z</time>
      </trkpt>
      <trkpt lat="43.59379" lon="3.77768">
        <ele>58.3</ele>
        <time>2013-05-05T06:53:19Z</time>
      </trkpt>
      <trkpt lat="43.59375" lon="3.77773">
        <ele>58.4</ele>
        <time>2013-05-05T06:53:20Z</time>
      </trkpt>
      <trkpt lat="43.59372" lon="3.77778">
        <ele>58.5</ele>
        <time>2013-05-05T06:53:21Z</time>
      </trkpt>
      <trkpt lat="43.59368" lon="3.77783">
        <ele>58.6</ele>
        <time>2013-05-05T06:53:22Z</time>
      </trkpt>
      <trkpt lat="43.59365" lon="3.77789">
        <ele>58.6</ele>
        <time>2013-05-05T06:53:23Z</time>
      </trkpt>
      <trkpt lat="43.59362" lon="3.77794">
        <ele>58.6</ele>
        <time>2013-05-05T06:53:24Z</time>
      </trkpt>
      <trkpt lat="43.59359" lon="3.778">
        <ele>58.6</ele>
        <time>2013-05-05T06:53:25Z</time>
      </trkpt>
      <trkpt lat="43.59356" lon="3.77806">
        <ele>58.6</ele>
        <time>2013-05-05T06:53:26Z</time>
      </trkpt>
      <trkpt lat="43.59354" lon="3.77812">
        <ele>58.6</ele>
        <time>2013-05-05T06:53:27Z</time>
      </trkpt>
      <trkpt lat="43.59352" lon="3.77818">
        <ele>58.7</ele>
        <time>2013-05-05T06:53:28Z</time>
      </trkpt>
      <trkpt lat="43.5935" lon="3.77824">
        <ele>58.4</ele>
        <time>2013-05-05T06:53:29Z</time>
      </trkpt>
      <trkpt lat="43.59348" lon="3.77831">
        <ele>58.1</ele>
        <time>2013-05-05T06:53:30Z</time>
      </trkpt>
      <trkpt lat="43.59347" lon="3.77837">
        <ele>58</ele>
        <time>2013-05-05T06:53:31Z</time>
      </trkpt>
      <trkpt lat="43.59346" lon="3.77844">
        <ele>58</ele>
        <time>2013-05-05T06:53:32Z</time>
      </trkpt>
      <trkpt lat="43.59345" lon="3.77851">
        <ele>58</ele>
        <time>2013-05-05T06:53:33Z</time>
      </trkpt>
      <trkpt lat="43.59344" lon="3.77858">
        <ele>58</ele>
        <time>2013-05-05T06:53:34Z</time>
      </trkpt>
      <trkpt lat="43.59343" lon="3.77865">
        <ele>58</ele>
        <time>2013-05-05T06:53:35Z</time>
      </trkpt>
      <trkpt lat="43.59342" lon="3.77872">
        <ele>57.7</ele>
        <time>2013-05-05T06:53:36Z</time>
      </trkpt>
      <trkpt lat="43.59341" lon="3.77879">
        <ele>57.5</ele>
        <time>2013-05-05T06:53:37Z</time>
      </trkpt>
      <trkpt lat="43.59341" lon="3.77886">
        <ele>57.4</ele>
        <time>2013-05-05T06:53:38Z</time>
      </trkpt>
      <trkpt lat="43.5934" lon="3.77892">
        <ele>57.8</ele>
        <time>2013-05-05T06:53:39Z</time>
      </trkpt>
      <trkpt lat="43.59339" lon="3.77899">
        <ele>58.2</ele>
        <time>2013-05-05T06:53:40Z</time>
      </trkpt>
      <trkpt lat="43.59338" lon="3.77906">
        <ele>58.5</ele>
        <time>2013-05-05T06:53:41Z</time>
      </trkpt>
      <trkpt lat="43.59337" lon="3.77913">
        <ele>58</ele>
        <time>2013-05-05T06:53:42Z</time>
      </trkpt>
      <trkpt lat="43.59336" lon="3.7792">
        <ele>57.7</ele>
        <time>2013-05-05T06:53:43Z</time>
      </trkpt>
      <trkpt lat="43.59336" lon="3.77926">
        <ele>57.5</ele>
        <time>2013-05-05T06:53:44Z</time>
      </trkpt>
      <trkpt lat="43.59335" lon="3.77933">
        <ele>57.3</ele>
        <time>2013-05-05T06:53:45Z</time>
      </trkpt>
      <trkpt lat="43.59334" lon="3.7794">
        <ele>57.1</ele>
        <time>2013-05-05T06:53:46Z</time>
      </trkpt>
      <trkpt lat="43.59333" lon="3.77947">
        <ele>57</ele>
        <time>2013-05-05T06:53:47Z</time>
      </trkpt>
      <trkpt lat="43.59333" lon="3.77954">
        <ele>57</ele>
        <time>2013-05-05T06:53:48Z</time>
      </trkpt>
      <trkpt lat="43.59332" lon="3.77961">
        <ele>57.1</ele>
        <time>2013-05-05T06:53:49Z</time>
      </trkpt>
      <trkpt lat="43.59332" lon="3.77968">
        <ele>57.1</ele>
        <time>2013-05-05T06:53:50Z</time>
      </trkpt>
      <trkpt lat="43.59331" lon="3.77975">
        <ele>56.7</ele>
        <time>2013-05-05T06:53:51Z</time>
      </trkpt>
      <trkpt lat="43.59331" lon="3.77982">
        <ele>56.4</ele>
        <time>2013-05-05T06:53:52Z</time>
      </trkpt>
      <trkpt lat="43.59331" lon="3.77989">
        <ele>56.3</ele>
        <time>2013-05-05T06:53:53Z</time>
      </trkpt>
      <trkpt lat="43.59331" lon="3.77996">
        <ele>56.1</ele>
        <time>2013-05-05T06:53:54Z</time>
      </trkpt>
      <trkpt lat="43.59331" lon="3.78003">
        <ele>55.6</ele>
        <time>2013-05-05T06:53:55Z</time>
      </trkpt>
      <trkpt lat="43.59332" lon="3.78011">
        <ele>55.2</ele>
        <time>2013-05-05T06:53:56Z</time>
      </trkpt>
      <trkpt lat="43.59332" lon="3.78018">
        <ele>55</ele>
        <time>2013-05-05T06:53:57Z</time>
      </trkpt>
      <trkpt lat="43.59332" lon="3.78025">
        <ele>55.2</ele>
        <time>2013-05-05T06:53:58Z</time>
      </trkpt>
      <trkpt lat="43.59332" lon="3.78032">
        <ele>55.4</ele>
        <time>2013-05-05T06:53:59Z</time>
      </trkpt>
      <trkpt lat="43.59333" lon="3.78039">
        <ele>55.6</ele>
        <time>2013-05-05T06:54:00Z</time>
      </trkpt>
      <trkpt lat="43.59333" lon="3.78046">
        <ele>55.5</ele>
        <time>2013-05-05T06:54:01Z</time>
      </trkpt>
      <trkpt lat="43.59334" lon="3.78053">
        <ele>55.5</ele>
        <time>2013-05-05T06:54:02Z</time>
      </trkpt>
      <trkpt lat="43.59334" lon="3.78061">
        <ele>55.4</ele>
        <time>2013-05-05T06:54:03Z</time>
      </trkpt>
      <trkpt lat="43.59335" lon="3.78068">
        <ele>55.5</ele>
        <time>2013-05-05T06:54:04Z</time>
      </trkpt>
      <trkpt lat="43.59335" lon="3.78075">
        <ele>55.6</ele>
        <time>2013-05-05T06:54:05Z</time>
      </trkpt>
      <trkpt lat="43.59336" lon="3.78082">
        <ele>55.6</ele>
        <time>2013-05-05T06:54:06Z</time>
      </trkpt>
      <trkpt lat="43.59336" lon="3.7809">
        <ele>55.4</ele>
        <time>2013-05-05T06:54:07Z</time>
      </trkpt>
      <trkpt lat="43.59336" lon="3.78097">
        <ele>55.3</ele>
        <time>2013-05-05T06:54:08Z</time>
      </trkpt>
      <trkpt lat="43.59335" lon="3.78104">
        <ele>55.2</ele>
        <time>2013-05-05T06:54:09Z</time>
      </trkpt>
      <trkpt lat="43.59334" lon="3.78112">
        <ele>55.1</ele>
        <time>2013-05-05T06:54:10Z</time>
      </trkpt>
      <trkpt lat="43.59333" lon="3.78119">
        <ele>55.1</ele>
        <time>2013-05-05T06:54:11Z</time>
      </trkpt>
      <trkpt lat="43.59331" lon="3.78125">
        <ele>55.1</ele>
        <time>2013-05-05T06:54:12Z</time>
      </trkpt>
      <trkpt lat="43.59329" lon="3.78132">
        <ele>55.1</ele>
        <time>2013-05-05T06:54:13Z</time>
      </trkpt>
      <trkpt lat="43.59327" lon="3.78139">
        <ele>54.7</ele>
        <time>2013-05-05T06:54:14Z</time>
      </trkpt>
      <trkpt lat="43.59326" lon="3.78146">
        <ele>54.4</ele>
        <time>2013-05-05T06:54:15Z</time>
      </trkpt>
      <trkpt lat="43.59324" lon="3.78153">
        <ele>54.2</ele>
        <time>2013-05-05T06:54:16Z</time>
      </trkpt>
      <trkpt lat="43.59322" lon="3.78159">
        <ele>54.2</ele>
        <time>2013-05-05T06:54:17Z</time>
      </trkpt>
      <trkpt lat="43.5932" lon="3.78166">
        <ele>54.3</ele>
        <time>2013-05-05T06:54:18Z</time>
      </trkpt>
      <trkpt lat="43.59318" lon="3.78172">
        <ele>54.3</ele>
        <time>2013-05-05T06:54:19Z</time>
      </trkpt>
      <trkpt lat="43.59311" lon="3.78178">
        <ele>53.9</ele>
        <time>2013-05-05T06:54:21Z</time>
      </trkpt>
      <trkpt lat="43.59303" lon="3.78175">
        <ele>53.6</ele>
        <time>2013-05-05T06:54:23Z</time>
      </trkpt>
      <trkpt lat="43.59295" lon="3.7817">
        <ele>53.5</ele>
        <time>2013-05-05T06:54:25Z</time>
      </trkpt>
      <trkpt lat="43.59287" lon="3.78166">
        <ele>53.5</ele>
        <time>2013-05-05T06:54:27Z</time>
      </trkpt>
      <trkpt lat="43.59279" lon="3.78167">
        <ele>53.4</ele>
        <time>2013-05-05T06:54:29Z</time>
      </trkpt>
      <trkpt lat="43.59276" lon="3.78175">
        <ele>53.2</ele>
        <time>2013-05-05T06:54:31Z</time>
      </trkpt>
      <trkpt lat="43.59272" lon="3.78185">
        <ele>53.4</ele>
        <time>2013-05-05T06:54:33Z</time>
      </trkpt>
      <trkpt lat="43.59269" lon="3.78196">
        <ele>53.8</ele>
        <time>2013-05-05T06:54:35Z</time>
      </trkpt>
      <trkpt lat="43.59265" lon="3.78207">
        <ele>53.5</ele>
        <time>2013-05-05T06:54:37Z</time>
      </trkpt>
      <trkpt lat="43.59262" lon="3.78218">
        <ele>53.3</ele>
        <time>2013-05-05T06:54:39Z</time>
      </trkpt>
      <trkpt lat="43.59259" lon="3.78229">
        <ele>53.1</ele>
        <time>2013-05-05T06:54:41Z</time>
      </trkpt>
      <trkpt lat="43.59257" lon="3.78241">
        <ele>52.7</ele>
        <time>2013-05-05T06:54:43Z</time>
      </trkpt>
      <trkpt lat="43.59255" lon="3.78252">
        <ele>52.8</ele>
        <time>2013-05-05T06:54:45Z</time>
      </trkpt>
      <trkpt lat="43.59253" lon="3.78264">
        <ele>53</ele>
        <time>2013-05-05T06:54:47Z</time>
      </trkpt>
      <trkpt lat="43.59252" lon="3.78277">
        <ele>53.2</ele>
        <time>2013-05-05T06:54:49Z</time>
      </trkpt>
      <trkpt lat="43.59251" lon="3.78289">
        <ele>53.4</ele>
        <time>2013-05-05T06:54:51Z</time>
      </trkpt>
      <trkpt lat="43.5925" lon="3.78295">
        <ele>53.1</ele>
        <time>2013-05-05T06:54:52Z</time>
      </trkpt>
      <trkpt lat="43.59249" lon="3.78301">
        <ele>52.8</ele>
        <time>2013-05-05T06:54:53Z</time>
      </trkpt>
      <trkpt lat="43.59248" lon="3.78314">
        <ele>52.5</ele>
        <time>2013-05-05T06:54:55Z</time>
      </trkpt>
      <trkpt lat="43.59247" lon="3.78326">
        <ele>52.3</ele>
        <time>2013-05-05T06:54:57Z</time>
      </trkpt>
      <trkpt lat="43.59247" lon="3.78332">
        <ele>52.5</ele>
        <time>2013-05-05T06:54:58Z</time>
      </trkpt>
      <trkpt lat="43.59246" lon="3.78338">
        <ele>52.6</ele>
        <time>2013-05-05T06:54:59Z</time>
      </trkpt>
      <trkpt lat="43.59246" lon="3.78344">
        <ele>52.6</ele>
        <time>2013-05-05T06:55:00Z</time>
      </trkpt>
      <trkpt lat="43.59244" lon="3.78357">
        <ele>52.1</ele>
        <time>2013-05-05T06:55:02Z</time>
      </trkpt>
      <trkpt lat="43.59243" lon="3.78369">
        <ele>51.8</ele>
        <time>2013-05-05T06:55:04Z</time>
      </trkpt>
      <trkpt lat="43.59241" lon="3.78381">
        <ele>51.6</ele>
        <time>2013-05-05T06:55:06Z</time>
      </trkpt>
      <trkpt lat="43.5924" lon="3.78387">
        <ele>51.5</ele>
        <time>2013-05-05T06:55:07Z</time>
      </trkpt>
      <trkpt lat="43.59238" lon="3.78393">
        <ele>51.8</ele>
        <time>2013-05-05T06:55:08Z</time>
      </trkpt>
      <trkpt lat="43.59237" lon="3.78399">
        <ele>51.9</ele>
        <time>2013-05-05T06:55:09Z</time>
      </trkpt>
      <trkpt lat="43.59237" lon="3.78405">
        <ele>52.1</ele>
        <time>2013-05-05T06:55:10Z</time>
      </trkpt>
      <trkpt lat="43.59236" lon="3.78411">
        <ele>51.9</ele>
        <time>2013-05-05T06:55:11Z</time>
      </trkpt>
      <trkpt lat="43.59234" lon="3.78417">
        <ele>51.8</ele>
        <time>2013-05-05T06:55:12Z</time>
      </trkpt>
      <trkpt lat="43.59233" lon="3.78423">
        <ele>51.7</ele>
        <time>2013-05-05T06:55:13Z</time>
      </trkpt>
      <trkpt lat="43.59232" lon="3.78429">
        <ele>51.5</ele>
        <time>2013-05-05T06:55:14Z</time>
      </trkpt>
      <trkpt lat="43.59231" lon="3.78436">
        <ele>51.4</ele>
        <time>2013-05-05T06:55:15Z</time>
      </trkpt>
      <trkpt lat="43.5923" lon="3.78442">
        <ele>51.2</ele>
        <time>2013-05-05T06:55:16Z</time>
      </trkpt>
      <trkpt lat="43.5923" lon="3.78448">
        <ele>51.3</ele>
        <time>2013-05-05T06:55:17Z</time>
      </trkpt>
      <trkpt lat="43.59229" lon="3.78454">
        <ele>51.3</ele>
        <time>2013-05-05T06:55:18Z</time>
      </trkpt>
      <trkpt lat="43.59227" lon="3.78466">
        <ele>51</ele>
        <time>2013-05-05T06:55:20Z</time>
      </trkpt>
      <trkpt lat="43.59227" lon="3.78472">
        <ele>50.8</ele>
        <time>2013-05-05T06:55:21Z</time>
      </trkpt>
      <trkpt lat="43.59227" lon="3.78479">
        <ele>50.6</ele>
        <time>2013-05-05T06:55:22Z</time>
      </trkpt>
      <trkpt lat="43.59226" lon="3.78485">
        <ele>50.5</ele>
        <time>2013-05-05T06:55:23Z</time>
      </trkpt>
      <trkpt lat="43.59226" lon="3.78491">
        <ele>50.7</ele>
        <time>2013-05-05T06:55:24Z</time>
      </trkpt>
      <trkpt lat="43.59225" lon="3.78498">
        <ele>50.8</ele>
        <time>2013-05-05T06:55:25Z</time>
      </trkpt>
      <trkpt lat="43.59225" lon="3.78504">
        <ele>50.9</ele>
        <time>2013-05-05T06:55:26Z</time>
      </trkpt>
      <trkpt lat="43.59225" lon="3.7851">
        <ele>50.9</ele>
        <time>2013-05-05T06:55:27Z</time>
      </trkpt>
      <trkpt lat="43.59224" lon="3.78516">
        <ele>50.9</ele>
        <time>2013-05-05T06:55:28Z</time>
      </trkpt>
      <trkpt lat="43.59224" lon="3.78523">
        <ele>50.9</ele>
        <time>2013-05-05T06:55:29Z</time>
      </trkpt>
      <trkpt lat="43.59223" lon="3.78529">
        <ele>50.7</ele>
        <time>2013-05-05T06:55:30Z</time>
      </trkpt>
      <trkpt lat="43.59222" lon="3.78541">
        <ele>50.4</ele>
        <time>2013-05-05T06:55:32Z</time>
      </trkpt>
      <trkpt lat="43.59222" lon="3.78547">
        <ele>50.1</ele>
        <time>2013-05-05T06:55:33Z</time>
      </trkpt>
      <trkpt lat="43.59221" lon="3.78554">
        <ele>49.8</ele>
        <time>2013-05-05T06:55:34Z</time>
      </trkpt>
      <trkpt lat="43.59219" lon="3.7856">
        <ele>49.6</ele>
        <time>2013-05-05T06:55:35Z</time>
      </trkpt>
      <trkpt lat="43.59217" lon="3.78566">
        <ele>49.7</ele>
        <time>2013-05-05T06:55:36Z</time>
      </trkpt>
      <trkpt lat="43.59216" lon="3.78572">
        <ele>49.8</ele>
        <time>2013-05-05T06:55:37Z</time>
      </trkpt>
      <trkpt lat="43.59214" lon="3.78577">
        <ele>49.9</ele>
        <time>2013-05-05T06:55:38Z</time>
      </trkpt>
      <trkpt lat="43.59212" lon="3.78583">
        <ele>50</ele>
        <time>2013-05-05T06:55:39Z</time>
      </trkpt>
      <trkpt lat="43.5921" lon="3.78589">
        <ele>50</ele>
        <time>2013-05-05T06:55:40Z</time>
      </trkpt>
      <trkpt lat="43.59209" lon="3.78595">
        <ele>50</ele>
        <time>2013-05-05T06:55:41Z</time>
      </trkpt>
      <trkpt lat="43.59207" lon="3.78601">
        <ele>50.1</ele>
        <time>2013-05-05T06:55:42Z</time>
      </trkpt>
      <trkpt lat="43.59205" lon="3.78607">
        <ele>50.4</ele>
        <time>2013-05-05T06:55:43Z</time>
      </trkpt>
      <trkpt lat="43.59203" lon="3.78612">
        <ele>50.7</ele>
        <time>2013-05-05T06:55:44Z</time>
      </trkpt>
      <trkpt lat="43.59201" lon="3.78618">
        <ele>50.8</ele>
        <time>2013-05-05T06:55:45Z</time>
      </trkpt>
      <trkpt lat="43.59198" lon="3.78629">
        <ele>50.5</ele>
        <time>2013-05-05T06:55:47Z</time>
      </trkpt>
      <trkpt lat="43.59196" lon="3.78635">
        <ele>50.4</ele>
        <time>2013-05-05T06:55:48Z</time>
      </trkpt>
      <trkpt lat="43.59194" lon="3.78641">
        <ele>50.1</ele>
        <time>2013-05-05T06:55:49Z</time>
      </trkpt>
      <trkpt lat="43.5919" lon="3.78652">
        <ele>49.8</ele>
        <time>2013-05-05T06:55:51Z</time>
      </trkpt>
      <trkpt lat="43.59186" lon="3.78663">
        <ele>49.7</ele>
        <time>2013-05-05T06:55:53Z</time>
      </trkpt>
      <trkpt lat="43.59184" lon="3.78668">
        <ele>49.7</ele>
        <time>2013-05-05T06:55:54Z</time>
      </trkpt>
      <trkpt lat="43.59182" lon="3.78674">
        <ele>49.2</ele>
        <time>2013-05-05T06:55:55Z</time>
      </trkpt>
      <trkpt lat="43.5918" lon="3.7868">
        <ele>48.8</ele>
        <time>2013-05-05T06:55:56Z</time>
      </trkpt>
      <trkpt lat="43.59179" lon="3.78685">
        <ele>48.5</ele>
        <time>2013-05-05T06:55:57Z</time>
      </trkpt>
      <trkpt lat="43.59177" lon="3.78691">
        <ele>48.8</ele>
        <time>2013-05-05T06:55:58Z</time>
      </trkpt>
      <trkpt lat="43.59176" lon="3.78697">
        <ele>49</ele>
        <time>2013-05-05T06:55:59Z</time>
      </trkpt>
      <trkpt lat="43.59174" lon="3.78703">
        <ele>49.2</ele>
        <time>2013-05-05T06:56:00Z</time>
      </trkpt>
      <trkpt lat="43.59173" lon="3.78709">
        <ele>49.3</ele>
        <time>2013-05-05T06:56:01Z</time>
      </trkpt>
      <trkpt lat="43.59171" lon="3.78715">
        <ele>49.1</ele>
        <time>2013-05-05T06:56:02Z</time>
      </trkpt>
      <trkpt lat="43.5917" lon="3.78722">
        <ele>49</ele>
        <time>2013-05-05T06:56:03Z</time>
      </trkpt>
      <trkpt lat="43.59169" lon="3.78728">
        <ele>48.9</ele>
        <time>2013-05-05T06:56:04Z</time>
      </trkpt>
      <trkpt lat="43.59168" lon="3.78734">
        <ele>49</ele>
        <time>2013-05-05T06:56:05Z</time>
      </trkpt>
      <trkpt lat="43.59167" lon="3.7874">
        <ele>49.2</ele>
        <time>2013-05-05T06:56:06Z</time>
      </trkpt>
      <trkpt lat="43.59166" lon="3.78746">
        <ele>49.3</ele>
        <time>2013-05-05T06:56:07Z</time>
      </trkpt>
      <trkpt lat="43.59165" lon="3.78752">
        <ele>49.3</ele>
        <time>2013-05-05T06:56:08Z</time>
      </trkpt>
      <trkpt lat="43.59164" lon="3.78759">
        <ele>49.3</ele>
        <time>2013-05-05T06:56:09Z</time>
      </trkpt>
      <trkpt lat="43.59163" lon="3.78765">
        <ele>49.4</ele>
        <time>2013-05-05T06:56:10Z</time>
      </trkpt>
      <trkpt lat="43.59162" lon="3.78772">
        <ele>48.8</ele>
        <time>2013-05-05T06:56:11Z</time>
      </trkpt>
      <trkpt lat="43.59161" lon="3.78778">
        <ele>48.4</ele>
        <time>2013-05-05T06:56:12Z</time>
      </trkpt>
      <trkpt lat="43.5916" lon="3.78784">
        <ele>48.1</ele>
        <time>2013-05-05T06:56:13Z</time>
      </trkpt>
      <trkpt lat="43.59158" lon="3.7879">
        <ele>47.9</ele>
        <time>2013-05-05T06:56:14Z</time>
      </trkpt>
      <trkpt lat="43.59157" lon="3.78796">
        <ele>47.7</ele>
        <time>2013-05-05T06:56:15Z</time>
      </trkpt>
      <trkpt lat="43.59155" lon="3.78802">
        <ele>47.6</ele>
        <time>2013-05-05T06:56:16Z</time>
      </trkpt>
      <trkpt lat="43.59152" lon="3.78813">
        <ele>47.9</ele>
        <time>2013-05-05T06:56:18Z</time>
      </trkpt>
      <trkpt lat="43.59148" lon="3.78825">
        <ele>48</ele>
        <time>2013-05-05T06:56:20Z</time>
      </trkpt>
      <trkpt lat="43.59144" lon="3.78836">
        <ele>48</ele>
        <time>2013-05-05T06:56:22Z</time>
      </trkpt>
      <trkpt lat="43.59141" lon="3.78847">
        <ele>48</ele>
        <time>2013-05-05T06:56:24Z</time>
      </trkpt>
      <trkpt lat="43.59137" lon="3.78858">
        <ele>48</ele>
        <time>2013-05-05T06:56:26Z</time>
      </trkpt>
      <trkpt lat="43.59135" lon="3.78864">
        <ele>47.7</ele>
        <time>2013-05-05T06:56:27Z</time>
      </trkpt>
      <trkpt lat="43.59133" lon="3.7887">
        <ele>47.5</ele>
        <time>2013-05-05T06:56:28Z</time>
      </trkpt>
      <trkpt lat="43.59129" lon="3.7888">
        <ele>46.8</ele>
        <time>2013-05-05T06:56:30Z</time>
      </trkpt>
      <trkpt lat="43.59121" lon="3.78877">
        <ele>46.9</ele>
        <time>2013-05-05T06:56:36Z</time>
      </trkpt>
      <trkpt lat="43.59114" lon="3.78871">
        <ele>47.6</ele>
        <time>2013-05-05T06:56:46Z</time>
      </trkpt>
      <trkpt lat="43.59107" lon="3.78864">
        <ele>48.7</ele>
        <time>2013-05-05T06:56:59Z</time>
      </trkpt>
      <trkpt lat="43.59104" lon="3.78852">
        <ele>48.9</ele>
        <time>2013-05-05T06:57:20Z</time>
      </trkpt>
      <trkpt lat="43.59104" lon="3.7885">
        <ele>49</ele>
        <time>2013-05-05T06:57:21Z</time>
      </trkpt>
      <trkpt lat="43.591" lon="3.78831">
        <ele>49.4</ele>
        <time>2013-05-05T06:57:28Z</time>
      </trkpt>
      <trkpt lat="43.59095" lon="3.78821">
        <ele>49.8</ele>
        <time>2013-05-05T06:57:32Z</time>
      </trkpt>
      <trkpt lat="43.59092" lon="3.7881">
        <ele>49.4</ele>
        <time>2013-05-05T06:57:36Z</time>
      </trkpt>
      <trkpt lat="43.59088" lon="3.788">
        <ele>50.6</ele>
        <time>2013-05-05T06:57:40Z</time>
      </trkpt>
      <trkpt lat="43.59087" lon="3.78788">
        <ele>51.3</ele>
        <time>2013-05-05T06:57:44Z</time>
      </trkpt>
      <trkpt lat="43.59084" lon="3.78779">
        <ele>51.6</ele>
        <time>2013-05-05T06:57:47Z</time>
      </trkpt>
      <trkpt lat="43.59081" lon="3.7877">
        <ele>52.1</ele>
        <time>2013-05-05T06:57:50Z</time>
      </trkpt>
      <trkpt lat="43.59078" lon="3.78761">
        <ele>52.8</ele>
        <time>2013-05-05T06:57:53Z</time>
      </trkpt>
      <trkpt lat="43.59074" lon="3.78752">
        <ele>53</ele>
        <time>2013-05-05T06:57:56Z</time>
      </trkpt>
      <trkpt lat="43.5907" lon="3.78744">
        <ele>53.4</ele>
        <time>2013-05-05T06:57:59Z</time>
      </trkpt>
      <trkpt lat="43.59067" lon="3.78736">
        <ele>53.6</ele>
        <time>2013-05-05T06:58:02Z</time>
      </trkpt>
      <trkpt lat="43.59065" lon="3.78726">
        <ele>53.8</ele>
        <time>2013-05-05T06:58:05Z</time>
      </trkpt>
      <trkpt lat="43.59065" lon="3.78716">
        <ele>54.1</ele>
        <time>2013-05-05T06:58:08Z</time>
      </trkpt>
      <trkpt lat="43.59068" lon="3.78705">
        <ele>54.9</ele>
        <time>2013-05-05T06:58:11Z</time>
      </trkpt>
      <trkpt lat="43.5907" lon="3.78696">
        <ele>54.7</ele>
        <time>2013-05-05T06:58:13Z</time>
      </trkpt>
      <trkpt lat="43.59073" lon="3.78687">
        <ele>54.5</ele>
        <time>2013-05-05T06:58:15Z</time>
      </trkpt>
      <trkpt lat="43.59076" lon="3.78677">
        <ele>54.4</ele>
        <time>2013-05-05T06:58:17Z</time>
      </trkpt>
      <trkpt lat="43.59078" lon="3.78668">
        <ele>54.6</ele>
        <time>2013-05-05T06:58:19Z</time>
      </trkpt>
      <trkpt lat="43.59081" lon="3.78658">
        <ele>55</ele>
        <time>2013-05-05T06:58:21Z</time>
      </trkpt>
      <trkpt lat="43.59083" lon="3.78653">
        <ele>55.2</ele>
        <time>2013-05-05T06:58:22Z</time>
      </trkpt>
      <trkpt lat="43.59087" lon="3.78636">
        <ele>55.3</ele>
        <time>2013-05-05T06:58:25Z</time>
      </trkpt>
      <trkpt lat="43.59089" lon="3.78627">
        <ele>55.3</ele>
        <time>2013-05-05T06:58:27Z</time>
      </trkpt>
      <trkpt lat="43.59093" lon="3.78617">
        <ele>56</ele>
        <time>2013-05-05T06:58:29Z</time>
      </trkpt>
      <trkpt lat="43.59094" lon="3.78607">
        <ele>56.5</ele>
        <time>2013-05-05T06:58:31Z</time>
      </trkpt>
      <trkpt lat="43.59095" lon="3.78598">
        <ele>56.8</ele>
        <time>2013-05-05T06:58:33Z</time>
      </trkpt>
      <trkpt lat="43.59096" lon="3.78589">
        <ele>57.1</ele>
        <time>2013-05-05T06:58:35Z</time>
      </trkpt>
      <trkpt lat="43.59097" lon="3.7858">
        <ele>57.9</ele>
        <time>2013-05-05T06:58:37Z</time>
      </trkpt>
      <trkpt lat="43.59098" lon="3.78571">
        <ele>58.8</ele>
        <time>2013-05-05T06:58:39Z</time>
      </trkpt>
      <trkpt lat="43.59099" lon="3.78562">
        <ele>58.7</ele>
        <time>2013-05-05T06:58:41Z</time>
      </trkpt>
      <trkpt lat="43.591" lon="3.78553">
        <ele>58.7</ele>
        <time>2013-05-05T06:58:43Z</time>
      </trkpt>
      <trkpt lat="43.591" lon="3.78544">
        <ele>59.1</ele>
        <time>2013-05-05T06:58:45Z</time>
      </trkpt>
      <trkpt lat="43.591" lon="3.78534">
        <ele>59.5</ele>
        <time>2013-05-05T06:58:47Z</time>
      </trkpt>
      <trkpt lat="43.59101" lon="3.78525">
        <ele>59.9</ele>
        <time>2013-05-05T06:58:49Z</time>
      </trkpt>
      <trkpt lat="43.59101" lon="3.78514">
        <ele>59.8</ele>
        <time>2013-05-05T06:58:51Z</time>
      </trkpt>
      <trkpt lat="43.59102" lon="3.78504">
        <ele>59.9</ele>
        <time>2013-05-05T06:58:53Z</time>
      </trkpt>
      <trkpt lat="43.59101" lon="3.78494">
        <ele>60</ele>
        <time>2013-05-05T06:58:55Z</time>
      </trkpt>
      <trkpt lat="43.591" lon="3.78484">
        <ele>61.1</ele>
        <time>2013-05-05T06:58:57Z</time>
      </trkpt>
      <trkpt lat="43.59098" lon="3.78475">
        <ele>61.8</ele>
        <time>2013-05-05T06:58:59Z</time>
      </trkpt>
      <trkpt lat="43.59097" lon="3.78466">
        <ele>62.2</ele>
        <time>2013-05-05T06:59:01Z</time>
      </trkpt>
      <trkpt lat="43.59096" lon="3.78457">
        <ele>62.4</ele>
        <time>2013-05-05T06:59:03Z</time>
      </trkpt>
      <trkpt lat="43.59098" lon="3.78448">
        <ele>62.5</ele>
        <time>2013-05-05T06:59:05Z</time>
      </trkpt>
      <trkpt lat="43.59098" lon="3.7844">
        <ele>62.8</ele>
        <time>2013-05-05T06:59:07Z</time>
      </trkpt>
      <trkpt lat="43.59097" lon="3.78427">
        <ele>63.4</ele>
        <time>2013-05-05T06:59:10Z</time>
      </trkpt>
      <trkpt lat="43.59096" lon="3.78416">
        <ele>64.2</ele>
        <time>2013-05-05T06:59:13Z</time>
      </trkpt>
      <trkpt lat="43.59096" lon="3.78406">
        <ele>65.1</ele>
        <time>2013-05-05T06:59:16Z</time>
      </trkpt>
      <trkpt lat="43.59095" lon="3.78394">
        <ele>66.3</ele>
        <time>2013-05-05T06:59:20Z</time>
      </trkpt>
      <trkpt lat="43.59093" lon="3.78383">
        <ele>67.2</ele>
        <time>2013-05-05T06:59:24Z</time>
      </trkpt>
      <trkpt lat="43.59093" lon="3.7838">
        <ele>67.6</ele>
        <time>2013-05-05T06:59:25Z</time>
      </trkpt>
      <trkpt lat="43.59093" lon="3.78363">
        <ele>68.4</ele>
        <time>2013-05-05T06:59:30Z</time>
      </trkpt>
      <trkpt lat="43.59092" lon="3.7835">
        <ele>69</ele>
        <time>2013-05-05T06:59:33Z</time>
      </trkpt>
      <trkpt lat="43.59089" lon="3.7834">
        <ele>69.7</ele>
        <time>2013-05-05T06:59:36Z</time>
      </trkpt>
      <trkpt lat="43.59085" lon="3.78329">
        <ele>69.6</ele>
        <time>2013-05-05T06:59:39Z</time>
      </trkpt>
      <trkpt lat="43.59082" lon="3.78318">
        <ele>69.9</ele>
        <time>2013-05-05T06:59:42Z</time>
      </trkpt>
      <trkpt lat="43.59078" lon="3.78308">
        <ele>70.3</ele>
        <time>2013-05-05T06:59:45Z</time>
      </trkpt>
      <trkpt lat="43.59075" lon="3.783">
        <ele>70.5</ele>
        <time>2013-05-05T06:59:47Z</time>
      </trkpt>
      <trkpt lat="43.59072" lon="3.78293">
        <ele>70.7</ele>
        <time>2013-05-05T06:59:49Z</time>
      </trkpt>
      <trkpt lat="43.59067" lon="3.78283">
        <ele>70.5</ele>
        <time>2013-05-05T06:59:52Z</time>
      </trkpt>
      <trkpt lat="43.59062" lon="3.78275">
        <ele>70.7</ele>
        <time>2013-05-05T06:59:55Z</time>
      </trkpt>
      <trkpt lat="43.59058" lon="3.78268">
        <ele>71.2</ele>
        <time>2013-05-05T06:59:57Z</time>
      </trkpt>
      <trkpt lat="43.59054" lon="3.78262">
        <ele>71.5</ele>
        <time>2013-05-05T06:59:59Z</time>
      </trkpt>
      <trkpt lat="43.59051" lon="3.78254">
        <ele>70.9</ele>
        <time>2013-05-05T07:00:01Z</time>
      </trkpt>
      <trkpt lat="43.59047" lon="3.78247">
        <ele>71.1</ele>
        <time>2013-05-05T07:00:03Z</time>
      </trkpt>
      <trkpt lat="43.59042" lon="3.78237">
        <ele>71.5</ele>
        <time>2013-05-05T07:00:06Z</time>
      </trkpt>
      <trkpt lat="43.59034" lon="3.78232">
        <ele>71.4</ele>
        <time>2013-05-05T07:00:09Z</time>
      </trkpt>
      <trkpt lat="43.59025" lon="3.78231">
        <ele>71.1</ele>
        <time>2013-05-05T07:00:12Z</time>
      </trkpt>
      <trkpt lat="43.59017" lon="3.78231">
        <ele>70.9</ele>
        <time>2013-05-05T07:00:15Z</time>
      </trkpt>
      <trkpt lat="43.59009" lon="3.78236">
        <ele>72</ele>
        <time>2013-05-05T07:00:19Z</time>
      </trkpt>
      <trkpt lat="43.59002" lon="3.7823">
        <ele>73.5</ele>
        <time>2013-05-05T07:00:24Z</time>
      </trkpt>
      <trkpt lat="43.58999" lon="3.78219">
        <ele>74.6</ele>
        <time>2013-05-05T07:00:28Z</time>
      </trkpt>
      <trkpt lat="43.58998" lon="3.78215">
        <ele>74.6</ele>
        <time>2013-05-05T07:00:29Z</time>
      </trkpt>
      <trkpt lat="43.58989" lon="3.78203">
        <ele>74.4</ele>
        <time>2013-05-05T07:00:34Z</time>
      </trkpt>
      <trkpt lat="43.58985" lon="3.78198">
        <ele>74.7</ele>
        <time>2013-05-05T07:00:36Z</time>
      </trkpt>
      <trkpt lat="43.5898" lon="3.78193">
        <ele>74.4</ele>
        <time>2013-05-05T07:00:38Z</time>
      </trkpt>
      <trkpt lat="43.58973" lon="3.78186">
        <ele>73.9</ele>
        <time>2013-05-05T07:00:41Z</time>
      </trkpt>
      <trkpt lat="43.58968" lon="3.7818">
        <ele>73.9</ele>
        <time>2013-05-05T07:00:43Z</time>
      </trkpt>
      <trkpt lat="43.58962" lon="3.78177">
        <ele>73.5</ele>
        <time>2013-05-05T07:00:45Z</time>
      </trkpt>
      <trkpt lat="43.58954" lon="3.78178">
        <ele>73.5</ele>
        <time>2013-05-05T07:00:47Z</time>
      </trkpt>
      <trkpt lat="43.58946" lon="3.78181">
        <ele>73.7</ele>
        <time>2013-05-05T07:00:49Z</time>
      </trkpt>
      <trkpt lat="43.58937" lon="3.78181">
        <ele>73.6</ele>
        <time>2013-05-05T07:00:51Z</time>
      </trkpt>
      <trkpt lat="43.58933" lon="3.78183">
        <ele>73.6</ele>
        <time>2013-05-05T07:00:52Z</time>
      </trkpt>
      <trkpt lat="43.58925" lon="3.78187">
        <ele>73.7</ele>
        <time>2013-05-05T07:00:54Z</time>
      </trkpt>
      <trkpt lat="43.58916" lon="3.7819">
        <ele>73.8</ele>
        <time>2013-05-05T07:00:56Z</time>
      </trkpt>
      <trkpt lat="43.58907" lon="3.78187">
        <ele>73.1</ele>
        <time>2013-05-05T07:00:58Z</time>
      </trkpt>
      <trkpt lat="43.58903" lon="3.78185">
        <ele>72.9</ele>
        <time>2013-05-05T07:00:59Z</time>
      </trkpt>
      <trkpt lat="43.58894" lon="3.78184">
        <ele>72.2</ele>
        <time>2013-05-05T07:01:01Z</time>
      </trkpt>
      <trkpt lat="43.58887" lon="3.7819">
        <ele>71.5</ele>
        <time>2013-05-05T07:01:03Z</time>
      </trkpt>
      <trkpt lat="43.58878" lon="3.78192">
        <ele>70.9</ele>
        <time>2013-05-05T07:01:05Z</time>
      </trkpt>
      <trkpt lat="43.58869" lon="3.7819">
        <ele>70.7</ele>
        <time>2013-05-05T07:01:07Z</time>
      </trkpt>
      <trkpt lat="43.58865" lon="3.78189">
        <ele>70.7</ele>
        <time>2013-05-05T07:01:08Z</time>
      </trkpt>
      <trkpt lat="43.5886" lon="3.78188">
        <ele>70.1</ele>
        <time>2013-05-05T07:01:09Z</time>
      </trkpt>
      <trkpt lat="43.58854" lon="3.78188">
        <ele>69.7</ele>
        <time>2013-05-05T07:01:10Z</time>
      </trkpt>
      <trkpt lat="43.58849" lon="3.78188">
        <ele>69.3</ele>
        <time>2013-05-05T07:01:11Z</time>
      </trkpt>
      <trkpt lat="43.58843" lon="3.78188">
        <ele>69.1</ele>
        <time>2013-05-05T07:01:12Z</time>
      </trkpt>
      <trkpt lat="43.58838" lon="3.78189">
        <ele>69</ele>
        <time>2013-05-05T07:01:13Z</time>
      </trkpt>
      <trkpt lat="43.58832" lon="3.78191">
        <ele>69</ele>
        <time>2013-05-05T07:01:14Z</time>
      </trkpt>
      <trkpt lat="43.58827" lon="3.78194">
        <ele>69</ele>
        <time>2013-05-05T07:01:15Z</time>
      </trkpt>
      <trkpt lat="43.58821" lon="3.78196">
        <ele>68.3</ele>
        <time>2013-05-05T07:01:16Z</time>
      </trkpt>
      <trkpt lat="43.58816" lon="3.78198">
        <ele>67.8</ele>
        <time>2013-05-05T07:01:17Z</time>
      </trkpt>
      <trkpt lat="43.58811" lon="3.782">
        <ele>67.4</ele>
        <time>2013-05-05T07:01:18Z</time>
      </trkpt>
      <trkpt lat="43.58806" lon="3.78202">
        <ele>67.4</ele>
        <time>2013-05-05T07:01:19Z</time>
      </trkpt>
      <trkpt lat="43.58798" lon="3.78207">
        <ele>67.4</ele>
        <time>2013-05-05T07:01:21Z</time>
      </trkpt>
      <trkpt lat="43.5879" lon="3.78206">
        <ele>67.2</ele>
        <time>2013-05-05T07:01:23Z</time>
      </trkpt>
      <trkpt lat="43.58783" lon="3.78201">
        <ele>66.7</ele>
        <time>2013-05-05T07:01:25Z</time>
      </trkpt>
      <trkpt lat="43.58774" lon="3.78199">
        <ele>66.1</ele>
        <time>2013-05-05T07:01:27Z</time>
      </trkpt>
      <trkpt lat="43.58766" lon="3.78201">
        <ele>66.4</ele>
        <time>2013-05-05T07:01:29Z</time>
      </trkpt>
      <trkpt lat="43.58762" lon="3.782">
        <ele>66.5</ele>
        <time>2013-05-05T07:01:30Z</time>
      </trkpt>
      <trkpt lat="43.58751" lon="3.78203">
        <ele>65.8</ele>
        <time>2013-05-05T07:01:33Z</time>
      </trkpt>
      <trkpt lat="43.58744" lon="3.78206">
        <ele>65.8</ele>
        <time>2013-05-05T07:01:35Z</time>
      </trkpt>
      <trkpt lat="43.58737" lon="3.7821">
        <ele>66.2</ele>
        <time>2013-05-05T07:01:37Z</time>
      </trkpt>
      <trkpt lat="43.58728" lon="3.7821">
        <ele>66</ele>
        <time>2013-05-05T07:01:39Z</time>
      </trkpt>
      <trkpt lat="43.58724" lon="3.7821">
        <ele>66</ele>
        <time>2013-05-05T07:01:40Z</time>
      </trkpt>
      <trkpt lat="43.58719" lon="3.78211">
        <ele>65.6</ele>
        <time>2013-05-05T07:01:41Z</time>
      </trkpt>
      <trkpt lat="43.58714" lon="3.78212">
        <ele>65.4</ele>
        <time>2013-05-05T07:01:42Z</time>
      </trkpt>
      <trkpt lat="43.58709" lon="3.78213">
        <ele>65.2</ele>
        <time>2013-05-05T07:01:43Z</time>
      </trkpt>
      <trkpt lat="43.58703" lon="3.78214">
        <ele>65.2</ele>
        <time>2013-05-05T07:01:44Z</time>
      </trkpt>
      <trkpt lat="43.58698" lon="3.78214">
        <ele>65.2</ele>
        <time>2013-05-05T07:01:45Z</time>
      </trkpt>
      <trkpt lat="43.58693" lon="3.78213">
        <ele>65.2</ele>
        <time>2013-05-05T07:01:46Z</time>
      </trkpt>
      <trkpt lat="43.58687" lon="3.78213">
        <ele>65.2</ele>
        <time>2013-05-05T07:01:47Z</time>
      </trkpt>
      <trkpt lat="43.58683" lon="3.78215">
        <ele>65</ele>
        <time>2013-05-05T07:01:48Z</time>
      </trkpt>
      <trkpt lat="43.58679" lon="3.78226">
        <ele>64.6</ele>
        <time>2013-05-05T07:01:50Z</time>
      </trkpt>
      <trkpt lat="43.58677" lon="3.78233">
        <ele>64.1</ele>
        <time>2013-05-05T07:01:51Z</time>
      </trkpt>
      <trkpt lat="43.58675" lon="3.78239">
        <ele>63.7</ele>
        <time>2013-05-05T07:01:52Z</time>
      </trkpt>
      <trkpt lat="43.58671" lon="3.78243">
        <ele>63.4</ele>
        <time>2013-05-05T07:01:53Z</time>
      </trkpt>
      <trkpt lat="43.58667" lon="3.78249">
        <ele>63.2</ele>
        <time>2013-05-05T07:01:54Z</time>
      </trkpt>
      <trkpt lat="43.58663" lon="3.78255">
        <ele>63</ele>
        <time>2013-05-05T07:01:55Z</time>
      </trkpt>
      <trkpt lat="43.58661" lon="3.78261">
        <ele>62.9</ele>
        <time>2013-05-05T07:01:56Z</time>
      </trkpt>
      <trkpt lat="43.58658" lon="3.78266">
        <ele>62.2</ele>
        <time>2013-05-05T07:01:57Z</time>
      </trkpt>
      <trkpt lat="43.58656" lon="3.78272">
        <ele>61.8</ele>
        <time>2013-05-05T07:01:58Z</time>
      </trkpt>
      <trkpt lat="43.58649" lon="3.78279">
        <ele>61.1</ele>
        <time>2013-05-05T07:02:00Z</time>
      </trkpt>
      <trkpt lat="43.58644" lon="3.78279">
        <ele>60.9</ele>
        <time>2013-05-05T07:02:01Z</time>
      </trkpt>
      <trkpt lat="43.58639" lon="3.78278">
        <ele>60.8</ele>
        <time>2013-05-05T07:02:02Z</time>
      </trkpt>
      <trkpt lat="43.58635" lon="3.78275">
        <ele>60.5</ele>
        <time>2013-05-05T07:02:03Z</time>
      </trkpt>
      <trkpt lat="43.58632" lon="3.7827">
        <ele>60.3</ele>
        <time>2013-05-05T07:02:04Z</time>
      </trkpt>
      <trkpt lat="43.58628" lon="3.78266">
        <ele>60.1</ele>
        <time>2013-05-05T07:02:05Z</time>
      </trkpt>
      <trkpt lat="43.58624" lon="3.78262">
        <ele>60</ele>
        <time>2013-05-05T07:02:06Z</time>
      </trkpt>
      <trkpt lat="43.58619" lon="3.78259">
        <ele>59.8</ele>
        <time>2013-05-05T07:02:07Z</time>
      </trkpt>
      <trkpt lat="43.58615" lon="3.78257">
        <ele>59.6</ele>
        <time>2013-05-05T07:02:08Z</time>
      </trkpt>
      <trkpt lat="43.5861" lon="3.78254">
        <ele>59.5</ele>
        <time>2013-05-05T07:02:09Z</time>
      </trkpt>
      <trkpt lat="43.58605" lon="3.78251">
        <ele>59.3</ele>
        <time>2013-05-05T07:02:10Z</time>
      </trkpt>
      <trkpt lat="43.58599" lon="3.78249">
        <ele>59.1</ele>
        <time>2013-05-05T07:02:11Z</time>
      </trkpt>
      <trkpt lat="43.58594" lon="3.78248">
        <ele>59</ele>
        <time>2013-05-05T07:02:12Z</time>
      </trkpt>
      <trkpt lat="43.58588" lon="3.78247">
        <ele>58.6</ele>
        <time>2013-05-05T07:02:13Z</time>
      </trkpt>
      <trkpt lat="43.5858" lon="3.78248">
        <ele>58</ele>
        <time>2013-05-05T07:02:15Z</time>
      </trkpt>
      <trkpt lat="43.58572" lon="3.78252">
        <ele>56.9</ele>
        <time>2013-05-05T07:02:17Z</time>
      </trkpt>
      <trkpt lat="43.58567" lon="3.78253">
        <ele>56.6</ele>
        <time>2013-05-05T07:02:18Z</time>
      </trkpt>
      <trkpt lat="43.58563" lon="3.78255">
        <ele>56.4</ele>
        <time>2013-05-05T07:02:19Z</time>
      </trkpt>
      <trkpt lat="43.58559" lon="3.78257">
        <ele>56.2</ele>
        <time>2013-05-05T07:02:20Z</time>
      </trkpt>
      <trkpt lat="43.58553" lon="3.78259">
        <ele>56.1</ele>
        <time>2013-05-05T07:02:21Z</time>
      </trkpt>
      <trkpt lat="43.58548" lon="3.78261">
        <ele>55.1</ele>
        <time>2013-05-05T07:02:22Z</time>
      </trkpt>
      <trkpt lat="43.58542" lon="3.78262">
        <ele>54.3</ele>
        <time>2013-05-05T07:02:23Z</time>
      </trkpt>
      <trkpt lat="43.58537" lon="3.78263">
        <ele>53.8</ele>
        <time>2013-05-05T07:02:24Z</time>
      </trkpt>
      <trkpt lat="43.58529" lon="3.78267">
        <ele>52.5</ele>
        <time>2013-05-05T07:02:26Z</time>
      </trkpt>
      <trkpt lat="43.58522" lon="3.78263">
        <ele>51.4</ele>
        <time>2013-05-05T07:02:28Z</time>
      </trkpt>
      <trkpt lat="43.58516" lon="3.78255">
        <ele>50.8</ele>
        <time>2013-05-05T07:02:31Z</time>
      </trkpt>
      <trkpt lat="43.58515" lon="3.78251">
        <ele>50.5</ele>
        <time>2013-05-05T07:02:32Z</time>
      </trkpt>
      <trkpt lat="43.58507" lon="3.78239">
        <ele>49.8</ele>
        <time>2013-05-05T07:02:35Z</time>
      </trkpt>
      <trkpt lat="43.58501" lon="3.78231">
        <ele>49.3</ele>
        <time>2013-05-05T07:02:37Z</time>
      </trkpt>
      <trkpt lat="43.58496" lon="3.78224">
        <ele>48.9</ele>
        <time>2013-05-05T07:02:40Z</time>
      </trkpt>
      <trkpt lat="43.58493" lon="3.78215">
        <ele>48.3</ele>
        <time>2013-05-05T07:02:43Z</time>
      </trkpt>
      <trkpt lat="43.58493" lon="3.78203">
        <ele>48.2</ele>
        <time>2013-05-05T07:02:46Z</time>
      </trkpt>
      <trkpt lat="43.58493" lon="3.78195">
        <ele>48.4</ele>
        <time>2013-05-05T07:02:48Z</time>
      </trkpt>
      <trkpt lat="43.58492" lon="3.78186">
        <ele>48.5</ele>
        <time>2013-05-05T07:02:50Z</time>
      </trkpt>
      <trkpt lat="43.58492" lon="3.78176">
        <ele>48.1</ele>
        <time>2013-05-05T07:02:52Z</time>
      </trkpt>
      <trkpt lat="43.58492" lon="3.78166">
        <ele>48.4</ele>
        <time>2013-05-05T07:02:54Z</time>
      </trkpt>
      <trkpt lat="43.58491" lon="3.78155">
        <ele>48.8</ele>
        <time>2013-05-05T07:02:56Z</time>
      </trkpt>
      <trkpt lat="43.58491" lon="3.78144">
        <ele>48.6</ele>
        <time>2013-05-05T07:02:58Z</time>
      </trkpt>
      <trkpt lat="43.5849" lon="3.78131">
        <ele>48.5</ele>
        <time>2013-05-05T07:03:00Z</time>
      </trkpt>
      <trkpt lat="43.58491" lon="3.78125">
        <ele>48.7</ele>
        <time>2013-05-05T07:03:01Z</time>
      </trkpt>
      <trkpt lat="43.58491" lon="3.78119">
        <ele>48.8</ele>
        <time>2013-05-05T07:03:02Z</time>
      </trkpt>
      <trkpt lat="43.58491" lon="3.78112">
        <ele>48.9</ele>
        <time>2013-05-05T07:03:03Z</time>
      </trkpt>
      <trkpt lat="43.58491" lon="3.78106">
        <ele>48.7</ele>
        <time>2013-05-05T07:03:04Z</time>
      </trkpt>
      <trkpt lat="43.58491" lon="3.781">
        <ele>48.5</ele>
        <time>2013-05-05T07:03:05Z</time>
      </trkpt>
      <trkpt lat="43.58491" lon="3.78093">
        <ele>48.3</ele>
        <time>2013-05-05T07:03:06Z</time>
      </trkpt>
      <trkpt lat="43.5849" lon="3.78087">
        <ele>48.1</ele>
        <time>2013-05-05T07:03:07Z</time>
      </trkpt>
      <trkpt lat="43.5849" lon="3.78081">
        <ele>47.9</ele>
        <time>2013-05-05T07:03:08Z</time>
      </trkpt>
      <trkpt lat="43.5849" lon="3.78074">
        <ele>47.8</ele>
        <time>2013-05-05T07:03:09Z</time>
      </trkpt>
      <trkpt lat="43.5849" lon="3.78068">
        <ele>47.6</ele>
        <time>2013-05-05T07:03:10Z</time>
      </trkpt>
      <trkpt lat="43.5849" lon="3.78062">
        <ele>47.4</ele>
        <time>2013-05-05T07:03:11Z</time>
      </trkpt>
      <trkpt lat="43.5849" lon="3.78056">
        <ele>47.3</ele>
        <time>2013-05-05T07:03:12Z</time>
      </trkpt>
      <trkpt lat="43.58491" lon="3.78049">
        <ele>47.2</ele>
        <time>2013-05-05T07:03:13Z</time>
      </trkpt>
      <trkpt lat="43.58491" lon="3.78043">
        <ele>47.1</ele>
        <time>2013-05-05T07:03:14Z</time>
      </trkpt>
      <trkpt lat="43.58491" lon="3.78036">
        <ele>47.1</ele>
        <time>2013-05-05T07:03:15Z</time>
      </trkpt>
      <trkpt lat="43.58491" lon="3.78029">
        <ele>47</ele>
        <time>2013-05-05T07:03:16Z</time>
      </trkpt>
      <trkpt lat="43.58491" lon="3.78023">
        <ele>46.8</ele>
        <time>2013-05-05T07:03:17Z</time>
      </trkpt>
      <trkpt lat="43.58491" lon="3.78016">
        <ele>46.8</ele>
        <time>2013-05-05T07:03:18Z</time>
      </trkpt>
      <trkpt lat="43.58491" lon="3.78009">
        <ele>46.7</ele>
        <time>2013-05-05T07:03:19Z</time>
      </trkpt>
      <trkpt lat="43.58492" lon="3.78002">
        <ele>46.6</ele>
        <time>2013-05-05T07:03:20Z</time>
      </trkpt>
      <trkpt lat="43.58493" lon="3.77996">
        <ele>46.5</ele>
        <time>2013-05-05T07:03:21Z</time>
      </trkpt>
      <trkpt lat="43.58494" lon="3.77989">
        <ele>46.4</ele>
        <time>2013-05-05T07:03:22Z</time>
      </trkpt>
      <trkpt lat="43.58495" lon="3.77982">
        <ele>46.5</ele>
        <time>2013-05-05T07:03:23Z</time>
      </trkpt>
      <trkpt lat="43.58495" lon="3.77975">
        <ele>46.6</ele>
        <time>2013-05-05T07:03:24Z</time>
      </trkpt>
      <trkpt lat="43.58496" lon="3.77969">
        <ele>46.6</ele>
        <time>2013-05-05T07:03:25Z</time>
      </trkpt>
      <trkpt lat="43.58497" lon="3.77962">
        <ele>46.6</ele>
        <time>2013-05-05T07:03:26Z</time>
      </trkpt>
      <trkpt lat="43.58498" lon="3.77955">
        <ele>46.7</ele>
        <time>2013-05-05T07:03:27Z</time>
      </trkpt>
      <trkpt lat="43.58499" lon="3.77948">
        <ele>46.7</ele>
        <time>2013-05-05T07:03:28Z</time>
      </trkpt>
      <trkpt lat="43.585" lon="3.77942">
        <ele>46.6</ele>
        <time>2013-05-05T07:03:29Z</time>
      </trkpt>
      <trkpt lat="43.58501" lon="3.77935">
        <ele>46.6</ele>
        <time>2013-05-05T07:03:30Z</time>
      </trkpt>
      <trkpt lat="43.58503" lon="3.77928">
        <ele>46.6</ele>
        <time>2013-05-05T07:03:31Z</time>
      </trkpt>
      <trkpt lat="43.58504" lon="3.77921">
        <ele>46.4</ele>
        <time>2013-05-05T07:03:32Z</time>
      </trkpt>
      <trkpt lat="43.58505" lon="3.77915">
        <ele>46.2</ele>
        <time>2013-05-05T07:03:33Z</time>
      </trkpt>
      <trkpt lat="43.58505" lon="3.77903">
        <ele>45.9</ele>
        <time>2013-05-05T07:03:35Z</time>
      </trkpt>
      <trkpt lat="43.585" lon="3.77892">
        <ele>46.3</ele>
        <time>2013-05-05T07:03:37Z</time>
      </trkpt>
      <trkpt lat="43.58497" lon="3.77887">
        <ele>46.4</ele>
        <time>2013-05-05T07:03:38Z</time>
      </trkpt>
      <trkpt lat="43.58494" lon="3.77882">
        <ele>46.5</ele>
        <time>2013-05-05T07:03:39Z</time>
      </trkpt>
      <trkpt lat="43.58491" lon="3.77877">
        <ele>46.6</ele>
        <time>2013-05-05T07:03:40Z</time>
      </trkpt>
      <trkpt lat="43.58487" lon="3.77873">
        <ele>46.7</ele>
        <time>2013-05-05T07:03:41Z</time>
      </trkpt>
      <trkpt lat="43.58482" lon="3.77863">
        <ele>46.2</ele>
        <time>2013-05-05T07:03:43Z</time>
      </trkpt>
      <trkpt lat="43.58482" lon="3.77852">
        <ele>46.1</ele>
        <time>2013-05-05T07:03:45Z</time>
      </trkpt>
      <trkpt lat="43.58482" lon="3.77843">
        <ele>46.2</ele>
        <time>2013-05-05T07:03:47Z</time>
      </trkpt>
      <trkpt lat="43.58477" lon="3.77836">
        <ele>46.9</ele>
        <time>2013-05-05T07:03:50Z</time>
      </trkpt>
      <trkpt lat="43.5847" lon="3.7784">
        <ele>45.4</ele>
        <time>2013-05-05T07:04:00Z</time>
      </trkpt>
      <trkpt lat="43.58467" lon="3.77848">
        <ele>45.5</ele>
        <time>2013-05-05T07:04:02Z</time>
      </trkpt>
      <trkpt lat="43.58467" lon="3.77854">
        <ele>45.5</ele>
        <time>2013-05-05T07:04:03Z</time>
      </trkpt>
      <trkpt lat="43.58467" lon="3.77861">
        <ele>45.5</ele>
        <time>2013-05-05T07:04:04Z</time>
      </trkpt>
      <trkpt lat="43.58468" lon="3.77869">
        <ele>45.4</ele>
        <time>2013-05-05T07:04:05Z</time>
      </trkpt>
      <trkpt lat="43.58469" lon="3.77877">
        <ele>45.4</ele>
        <time>2013-05-05T07:04:06Z</time>
      </trkpt>
      <trkpt lat="43.5847" lon="3.77886">
        <ele>45.1</ele>
        <time>2013-05-05T07:04:07Z</time>
      </trkpt>
      <trkpt lat="43.58471" lon="3.77896">
        <ele>44.9</ele>
        <time>2013-05-05T07:04:08Z</time>
      </trkpt>
      <trkpt lat="43.58472" lon="3.77905">
        <ele>44.7</ele>
        <time>2013-05-05T07:04:09Z</time>
      </trkpt>
      <trkpt lat="43.58473" lon="3.77913">
        <ele>45</ele>
        <time>2013-05-05T07:04:10Z</time>
      </trkpt>
      <trkpt lat="43.58472" lon="3.77922">
        <ele>45.3</ele>
        <time>2013-05-05T07:04:11Z</time>
      </trkpt>
      <trkpt lat="43.58471" lon="3.77929">
        <ele>45.5</ele>
        <time>2013-05-05T07:04:12Z</time>
      </trkpt>
      <trkpt lat="43.58469" lon="3.77937">
        <ele>45.7</ele>
        <time>2013-05-05T07:04:13Z</time>
      </trkpt>
      <trkpt lat="43.58467" lon="3.77943">
        <ele>45.6</ele>
        <time>2013-05-05T07:04:14Z</time>
      </trkpt>
      <trkpt lat="43.58464" lon="3.77954">
        <ele>45.6</ele>
        <time>2013-05-05T07:04:16Z</time>
      </trkpt>
      <trkpt lat="43.5846" lon="3.77963">
        <ele>45</ele>
        <time>2013-05-05T07:04:18Z</time>
      </trkpt>
      <trkpt lat="43.58457" lon="3.77973">
        <ele>44.9</ele>
        <time>2013-05-05T07:04:20Z</time>
      </trkpt>
      <trkpt lat="43.58454" lon="3.77982">
        <ele>45.1</ele>
        <time>2013-05-05T07:04:22Z</time>
      </trkpt>
      <trkpt lat="43.5845" lon="3.77991">
        <ele>45.1</ele>
        <time>2013-05-05T07:04:24Z</time>
      </trkpt>
      <trkpt lat="43.58444" lon="3.77998">
        <ele>45</ele>
        <time>2013-05-05T07:04:26Z</time>
      </trkpt>
      <trkpt lat="43.58437" lon="3.78002">
        <ele>45</ele>
        <time>2013-05-05T07:04:28Z</time>
      </trkpt>
      <trkpt lat="43.58429" lon="3.78006">
        <ele>44.7</ele>
        <time>2013-05-05T07:04:30Z</time>
      </trkpt>
      <trkpt lat="43.58421" lon="3.78011">
        <ele>44.5</ele>
        <time>2013-05-05T07:04:32Z</time>
      </trkpt>
      <trkpt lat="43.58413" lon="3.78016">
        <ele>44.8</ele>
        <time>2013-05-05T07:04:34Z</time>
      </trkpt>
      <trkpt lat="43.58409" lon="3.78019">
        <ele>44.9</ele>
        <time>2013-05-05T07:04:35Z</time>
      </trkpt>
      <trkpt lat="43.58401" lon="3.78024">
        <ele>45</ele>
        <time>2013-05-05T07:04:37Z</time>
      </trkpt>
      <trkpt lat="43.58396" lon="3.78027">
        <ele>45</ele>
        <time>2013-05-05T07:04:38Z</time>
      </trkpt>
      <trkpt lat="43.58392" lon="3.78029">
        <ele>45.1</ele>
        <time>2013-05-05T07:04:39Z</time>
      </trkpt>
      <trkpt lat="43.58388" lon="3.78032">
        <ele>45.1</ele>
        <time>2013-05-05T07:04:40Z</time>
      </trkpt>
      <trkpt lat="43.58383" lon="3.78035">
        <ele>45.1</ele>
        <time>2013-05-05T07:04:41Z</time>
      </trkpt>
      <trkpt lat="43.58379" lon="3.78037">
        <ele>45</ele>
        <time>2013-05-05T07:04:42Z</time>
      </trkpt>
      <trkpt lat="43.58375" lon="3.7804">
        <ele>45</ele>
        <time>2013-05-05T07:04:43Z</time>
      </trkpt>
      <trkpt lat="43.5837" lon="3.78043">
        <ele>45</ele>
        <time>2013-05-05T07:04:44Z</time>
      </trkpt>
      <trkpt lat="43.58366" lon="3.78045">
        <ele>44.9</ele>
        <time>2013-05-05T07:04:45Z</time>
      </trkpt>
      <trkpt lat="43.58362" lon="3.78048">
        <ele>44.9</ele>
        <time>2013-05-05T07:04:46Z</time>
      </trkpt>
      <trkpt lat="43.58358" lon="3.78051">
        <ele>44.9</ele>
        <time>2013-05-05T07:04:47Z</time>
      </trkpt>
      <trkpt lat="43.58353" lon="3.78053">
        <ele>45</ele>
        <time>2013-05-05T07:04:48Z</time>
      </trkpt>
      <trkpt lat="43.58349" lon="3.78056">
        <ele>45.1</ele>
        <time>2013-05-05T07:04:49Z</time>
      </trkpt>
      <trkpt lat="43.58345" lon="3.78059">
        <ele>45.1</ele>
        <time>2013-05-05T07:04:50Z</time>
      </trkpt>
      <trkpt lat="43.5834" lon="3.78061">
        <ele>45.1</ele>
        <time>2013-05-05T07:04:51Z</time>
      </trkpt>
      <trkpt lat="43.58336" lon="3.78063">
        <ele>45.1</ele>
        <time>2013-05-05T07:04:52Z</time>
      </trkpt>
      <trkpt lat="43.58331" lon="3.78065">
        <ele>45</ele>
        <time>2013-05-05T07:04:53Z</time>
      </trkpt>
      <trkpt lat="43.58326" lon="3.78066">
        <ele>45</ele>
        <time>2013-05-05T07:04:54Z</time>
      </trkpt>
      <trkpt lat="43.58322" lon="3.78068">
        <ele>44.7</ele>
        <time>2013-05-05T07:04:55Z</time>
      </trkpt>
      <trkpt lat="43.58317" lon="3.78069">
        <ele>44.4</ele>
        <time>2013-05-05T07:04:56Z</time>
      </trkpt>
      <trkpt lat="43.58313" lon="3.7807">
        <ele>44.3</ele>
        <time>2013-05-05T07:04:57Z</time>
      </trkpt>
      <trkpt lat="43.58308" lon="3.78072">
        <ele>44.6</ele>
        <time>2013-05-05T07:04:58Z</time>
      </trkpt>
      <trkpt lat="43.58303" lon="3.78073">
        <ele>44.8</ele>
        <time>2013-05-05T07:04:59Z</time>
      </trkpt>
      <trkpt lat="43.58299" lon="3.78074">
        <ele>44.9</ele>
        <time>2013-05-05T07:05:00Z</time>
      </trkpt>
      <trkpt lat="43.58294" lon="3.78075">
        <ele>44.8</ele>
        <time>2013-05-05T07:05:01Z</time>
      </trkpt>
      <trkpt lat="43.58289" lon="3.78076">
        <ele>44.7</ele>
        <time>2013-05-05T07:05:02Z</time>
      </trkpt>
      <trkpt lat="43.58285" lon="3.78078">
        <ele>44.7</ele>
        <time>2013-05-05T07:05:03Z</time>
      </trkpt>
      <trkpt lat="43.5828" lon="3.78079">
        <ele>44.6</ele>
        <time>2013-05-05T07:05:04Z</time>
      </trkpt>
      <trkpt lat="43.58276" lon="3.78079">
        <ele>44.5</ele>
        <time>2013-05-05T07:05:05Z</time>
      </trkpt>
      <trkpt lat="43.58271" lon="3.7808">
        <ele>44.5</ele>
        <time>2013-05-05T07:05:06Z</time>
      </trkpt>
      <trkpt lat="43.58262" lon="3.7808">
        <ele>44.4</ele>
        <time>2013-05-05T07:05:08Z</time>
      </trkpt>
      <trkpt lat="43.58253" lon="3.7808">
        <ele>44.3</ele>
        <time>2013-05-05T07:05:10Z</time>
      </trkpt>
      <trkpt lat="43.58244" lon="3.7808">
        <ele>44.8</ele>
        <time>2013-05-05T07:05:12Z</time>
      </trkpt>
      <trkpt lat="43.58236" lon="3.7808">
        <ele>44.9</ele>
        <time>2013-05-05T07:05:14Z</time>
      </trkpt>
      <trkpt lat="43.58227" lon="3.7808">
        <ele>44.8</ele>
        <time>2013-05-05T07:05:16Z</time>
      </trkpt>
      <trkpt lat="43.58218" lon="3.7808">
        <ele>44.7</ele>
        <time>2013-05-05T07:05:18Z</time>
      </trkpt>
      <trkpt lat="43.58209" lon="3.78081">
        <ele>44.9</ele>
        <time>2013-05-05T07:05:20Z</time>
      </trkpt>
      <trkpt lat="43.582" lon="3.78082">
        <ele>45.3</ele>
        <time>2013-05-05T07:05:22Z</time>
      </trkpt>
      <trkpt lat="43.58192" lon="3.78082">
        <ele>45.4</ele>
        <time>2013-05-05T07:05:24Z</time>
      </trkpt>
      <trkpt lat="43.58183" lon="3.78083">
        <ele>45.4</ele>
        <time>2013-05-05T07:05:26Z</time>
      </trkpt>
      <trkpt lat="43.58174" lon="3.78084">
        <ele>45.4</ele>
        <time>2013-05-05T07:05:28Z</time>
      </trkpt>
      <trkpt lat="43.58166" lon="3.78085">
        <ele>45.6</ele>
        <time>2013-05-05T07:05:30Z</time>
      </trkpt>
      <trkpt lat="43.58157" lon="3.78086">
        <ele>45.8</ele>
        <time>2013-05-05T07:05:32Z</time>
      </trkpt>
      <trkpt lat="43.58149" lon="3.78087">
        <ele>45.6</ele>
        <time>2013-05-05T07:05:34Z</time>
      </trkpt>
      <trkpt lat="43.58141" lon="3.78088">
        <ele>45.4</ele>
        <time>2013-05-05T07:05:36Z</time>
      </trkpt>
      <trkpt lat="43.58136" lon="3.78089">
        <ele>45.3</ele>
        <time>2013-05-05T07:05:37Z</time>
      </trkpt>
      <trkpt lat="43.58124" lon="3.7809">
        <ele>45.4</ele>
        <time>2013-05-05T07:05:40Z</time>
      </trkpt>
      <trkpt lat="43.58116" lon="3.7809">
        <ele>46</ele>
        <time>2013-05-05T07:05:42Z</time>
      </trkpt>
      <trkpt lat="43.58108" lon="3.7809">
        <ele>46.7</ele>
        <time>2013-05-05T07:05:44Z</time>
      </trkpt>
      <trkpt lat="43.58101" lon="3.7809">
        <ele>47.1</ele>
        <time>2013-05-05T07:05:46Z</time>
      </trkpt>
      <trkpt lat="43.58093" lon="3.78091">
        <ele>47.4</ele>
        <time>2013-05-05T07:05:48Z</time>
      </trkpt>
      <trkpt lat="43.58086" lon="3.78091">
        <ele>46.7</ele>
        <time>2013-05-05T07:05:50Z</time>
      </trkpt>
      <trkpt lat="43.58078" lon="3.78092">
        <ele>46.7</ele>
        <time>2013-05-05T07:05:52Z</time>
      </trkpt>
      <trkpt lat="43.5807" lon="3.78093">
        <ele>46.9</ele>
        <time>2013-05-05T07:05:54Z</time>
      </trkpt>
      <trkpt lat="43.58062" lon="3.78094">
        <ele>47.1</ele>
        <time>2013-05-05T07:05:56Z</time>
      </trkpt>
      <trkpt lat="43.58054" lon="3.78095">
        <ele>46.9</ele>
        <time>2013-05-05T07:05:58Z</time>
      </trkpt>
      <trkpt lat="43.58046" lon="3.78097">
        <ele>46.5</ele>
        <time>2013-05-05T07:06:00Z</time>
      </trkpt>
      <trkpt lat="43.58038" lon="3.78098">
        <ele>46.7</ele>
        <time>2013-05-05T07:06:02Z</time>
      </trkpt>
      <trkpt lat="43.58029" lon="3.78098">
        <ele>47</ele>
        <time>2013-05-05T07:06:04Z</time>
      </trkpt>
      <trkpt lat="43.58021" lon="3.78099">
        <ele>47.7</ele>
        <time>2013-05-05T07:06:06Z</time>
      </trkpt>
      <trkpt lat="43.58013" lon="3.78099">
        <ele>48.1</ele>
        <time>2013-05-05T07:06:08Z</time>
      </trkpt>
      <trkpt lat="43.58004" lon="3.78099">
        <ele>48.2</ele>
        <time>2013-05-05T07:06:10Z</time>
      </trkpt>
      <trkpt lat="43.57996" lon="3.78099">
        <ele>47.7</ele>
        <time>2013-05-05T07:06:12Z</time>
      </trkpt>
      <trkpt lat="43.57987" lon="3.781">
        <ele>47.7</ele>
        <time>2013-05-05T07:06:14Z</time>
      </trkpt>
      <trkpt lat="43.57979" lon="3.781">
        <ele>48</ele>
        <time>2013-05-05T07:06:16Z</time>
      </trkpt>
      <trkpt lat="43.5797" lon="3.781">
        <ele>48</ele>
        <time>2013-05-05T07:06:18Z</time>
      </trkpt>
      <trkpt lat="43.57961" lon="3.78101">
        <ele>48</ele>
        <time>2013-05-05T07:06:20Z</time>
      </trkpt>
      <trkpt lat="43.57953" lon="3.78101">
        <ele>48.3</ele>
        <time>2013-05-05T07:06:22Z</time>
      </trkpt>
      <trkpt lat="43.57944" lon="3.78101">
        <ele>48.3</ele>
        <time>2013-05-05T07:06:24Z</time>
      </trkpt>
      <trkpt lat="43.57935" lon="3.78102">
        <ele>48.2</ele>
        <time>2013-05-05T07:06:26Z</time>
      </trkpt>
      <trkpt lat="43.57927" lon="3.78102">
        <ele>48.3</ele>
        <time>2013-05-05T07:06:28Z</time>
      </trkpt>
      <trkpt lat="43.57918" lon="3.78102">
        <ele>48.4</ele>
        <time>2013-05-05T07:06:30Z</time>
      </trkpt>
      <trkpt lat="43.5791" lon="3.78103">
        <ele>48.5</ele>
        <time>2013-05-05T07:06:32Z</time>
      </trkpt>
      <trkpt lat="43.57902" lon="3.78103">
        <ele>48.7</ele>
        <time>2013-05-05T07:06:34Z</time>
      </trkpt>
      <trkpt lat="43.57894" lon="3.78104">
        <ele>48.5</ele>
        <time>2013-05-05T07:06:36Z</time>
      </trkpt>
      <trkpt lat="43.57887" lon="3.78105">
        <ele>48</ele>
        <time>2013-05-05T07:06:38Z</time>
      </trkpt>
      <trkpt lat="43.57883" lon="3.78105">
        <ele>47.9</ele>
        <time>2013-05-05T07:06:39Z</time>
      </trkpt>
      <trkpt lat="43.5787" lon="3.78106">
        <ele>48.7</ele>
        <time>2013-05-05T07:06:43Z</time>
      </trkpt>
      <trkpt lat="43.57863" lon="3.78109">
        <ele>48.6</ele>
        <time>2013-05-05T07:06:46Z</time>
      </trkpt>
      <trkpt lat="43.57856" lon="3.78114">
        <ele>48.8</ele>
        <time>2013-05-05T07:06:49Z</time>
      </trkpt>
      <trkpt lat="43.57851" lon="3.78119">
        <ele>48.9</ele>
        <time>2013-05-05T07:06:51Z</time>
      </trkpt>
      <trkpt lat="43.57844" lon="3.78125">
        <ele>49.2</ele>
        <time>2013-05-05T07:06:53Z</time>
      </trkpt>
      <trkpt lat="43.57837" lon="3.7813">
        <ele>49.4</ele>
        <time>2013-05-05T07:06:55Z</time>
      </trkpt>
      <trkpt lat="43.57833" lon="3.78134">
        <ele>49.4</ele>
        <time>2013-05-05T07:06:56Z</time>
      </trkpt>
      <trkpt lat="43.57828" lon="3.78137">
        <ele>49.5</ele>
        <time>2013-05-05T07:06:57Z</time>
      </trkpt>
      <trkpt lat="43.57824" lon="3.78139">
        <ele>49.5</ele>
        <time>2013-05-05T07:06:58Z</time>
      </trkpt>
      <trkpt lat="43.5782" lon="3.78142">
        <ele>48.7</ele>
        <time>2013-05-05T07:06:59Z</time>
      </trkpt>
      <trkpt lat="43.57815" lon="3.78145">
        <ele>48.1</ele>
        <time>2013-05-05T07:07:00Z</time>
      </trkpt>
      <trkpt lat="43.57811" lon="3.78147">
        <ele>47.6</ele>
        <time>2013-05-05T07:07:01Z</time>
      </trkpt>
      <trkpt lat="43.57806" lon="3.7815">
        <ele>47.1</ele>
        <time>2013-05-05T07:07:02Z</time>
      </trkpt>
      <trkpt lat="43.578" lon="3.78151">
        <ele>46.7</ele>
        <time>2013-05-05T07:07:03Z</time>
      </trkpt>
      <trkpt lat="43.57795" lon="3.78152">
        <ele>46.4</ele>
        <time>2013-05-05T07:07:04Z</time>
      </trkpt>
      <trkpt lat="43.5779" lon="3.78153">
        <ele>46.1</ele>
        <time>2013-05-05T07:07:05Z</time>
      </trkpt>
      <trkpt lat="43.57784" lon="3.78154">
        <ele>46</ele>
        <time>2013-05-05T07:07:06Z</time>
      </trkpt>
      <trkpt lat="43.57779" lon="3.78155">
        <ele>45.8</ele>
        <time>2013-05-05T07:07:07Z</time>
      </trkpt>
      <trkpt lat="43.57774" lon="3.78155">
        <ele>45.5</ele>
        <time>2013-05-05T07:07:08Z</time>
      </trkpt>
      <trkpt lat="43.57768" lon="3.78155">
        <ele>45.2</ele>
        <time>2013-05-05T07:07:09Z</time>
      </trkpt>
      <trkpt lat="43.57763" lon="3.78154">
        <ele>45</ele>
        <time>2013-05-05T07:07:10Z</time>
      </trkpt>
      <trkpt lat="43.57757" lon="3.78154">
        <ele>44.3</ele>
        <time>2013-05-05T07:07:11Z</time>
      </trkpt>
      <trkpt lat="43.57752" lon="3.78154">
        <ele>43.7</ele>
        <time>2013-05-05T07:07:12Z</time>
      </trkpt>
      <trkpt lat="43.57746" lon="3.78154">
        <ele>43.3</ele>
        <time>2013-05-05T07:07:13Z</time>
      </trkpt>
      <trkpt lat="43.57741" lon="3.78154">
        <ele>43.2</ele>
        <time>2013-05-05T07:07:14Z</time>
      </trkpt>
      <trkpt lat="43.57735" lon="3.78153">
        <ele>43</ele>
        <time>2013-05-05T07:07:15Z</time>
      </trkpt>
      <trkpt lat="43.5773" lon="3.78153">
        <ele>42.9</ele>
        <time>2013-05-05T07:07:16Z</time>
      </trkpt>
      <trkpt lat="43.57725" lon="3.78153">
        <ele>42.9</ele>
        <time>2013-05-05T07:07:17Z</time>
      </trkpt>
      <trkpt lat="43.57719" lon="3.78154">
        <ele>42.7</ele>
        <time>2013-05-05T07:07:18Z</time>
      </trkpt>
      <trkpt lat="43.57714" lon="3.78156">
        <ele>42.6</ele>
        <time>2013-05-05T07:07:19Z</time>
      </trkpt>
      <trkpt lat="43.57709" lon="3.7816">
        <ele>42.6</ele>
        <time>2013-05-05T07:07:20Z</time>
      </trkpt>
      <trkpt lat="43.57705" lon="3.78164">
        <ele>42.1</ele>
        <time>2013-05-05T07:07:21Z</time>
      </trkpt>
      <trkpt lat="43.57701" lon="3.78168">
        <ele>41.8</ele>
        <time>2013-05-05T07:07:22Z</time>
      </trkpt>
      <trkpt lat="43.57696" lon="3.7817">
        <ele>41.6</ele>
        <time>2013-05-05T07:07:23Z</time>
      </trkpt>
      <trkpt lat="43.57691" lon="3.78173">
        <ele>41.2</ele>
        <time>2013-05-05T07:07:24Z</time>
      </trkpt>
      <trkpt lat="43.57687" lon="3.78176">
        <ele>41</ele>
        <time>2013-05-05T07:07:25Z</time>
      </trkpt>
      <trkpt lat="43.57683" lon="3.7818">
        <ele>40.8</ele>
        <time>2013-05-05T07:07:26Z</time>
      </trkpt>
      <trkpt lat="43.57678" lon="3.78183">
        <ele>40.8</ele>
        <time>2013-05-05T07:07:27Z</time>
      </trkpt>
      <trkpt lat="43.57674" lon="3.78185">
        <ele>40.8</ele>
        <time>2013-05-05T07:07:28Z</time>
      </trkpt>
      <trkpt lat="43.57669" lon="3.78188">
        <ele>40.8</ele>
        <time>2013-05-05T07:07:29Z</time>
      </trkpt>
      <trkpt lat="43.57664" lon="3.78191">
        <ele>40.4</ele>
        <time>2013-05-05T07:07:30Z</time>
      </trkpt>
      <trkpt lat="43.57659" lon="3.78194">
        <ele>40</ele>
        <time>2013-05-05T07:07:31Z</time>
      </trkpt>
      <trkpt lat="43.57655" lon="3.78198">
        <ele>39.8</ele>
        <time>2013-05-05T07:07:32Z</time>
      </trkpt>
      <trkpt lat="43.5765" lon="3.78201">
        <ele>39.7</ele>
        <time>2013-05-05T07:07:33Z</time>
      </trkpt>
      <trkpt lat="43.57645" lon="3.78204">
        <ele>39.6</ele>
        <time>2013-05-05T07:07:34Z</time>
      </trkpt>
      <trkpt lat="43.57641" lon="3.78207">
        <ele>39.6</ele>
        <time>2013-05-05T07:07:35Z</time>
      </trkpt>
      <trkpt lat="43.57636" lon="3.78211">
        <ele>39.5</ele>
        <time>2013-05-05T07:07:36Z</time>
      </trkpt>
      <trkpt lat="43.57631" lon="3.78214">
        <ele>39.3</ele>
        <time>2013-05-05T07:07:37Z</time>
      </trkpt>
      <trkpt lat="43.57627" lon="3.78217">
        <ele>39.2</ele>
        <time>2013-05-05T07:07:38Z</time>
      </trkpt>
      <trkpt lat="43.57622" lon="3.78221">
        <ele>39.1</ele>
        <time>2013-05-05T07:07:39Z</time>
      </trkpt>
      <trkpt lat="43.57618" lon="3.78225">
        <ele>39</ele>
        <time>2013-05-05T07:07:40Z</time>
      </trkpt>
      <trkpt lat="43.57613" lon="3.78229">
        <ele>39</ele>
        <time>2013-05-05T07:07:41Z</time>
      </trkpt>
      <trkpt lat="43.57608" lon="3.78232">
        <ele>38.9</ele>
        <time>2013-05-05T07:07:42Z</time>
      </trkpt>
      <trkpt lat="43.57604" lon="3.78235">
        <ele>39.2</ele>
        <time>2013-05-05T07:07:43Z</time>
      </trkpt>
      <trkpt lat="43.57599" lon="3.78239">
        <ele>39.4</ele>
        <time>2013-05-05T07:07:44Z</time>
      </trkpt>
      <trkpt lat="43.57594" lon="3.78242">
        <ele>39.5</ele>
        <time>2013-05-05T07:07:45Z</time>
      </trkpt>
      <trkpt lat="43.5759" lon="3.78245">
        <ele>39.2</ele>
        <time>2013-05-05T07:07:46Z</time>
      </trkpt>
      <trkpt lat="43.57585" lon="3.78248">
        <ele>38.9</ele>
        <time>2013-05-05T07:07:47Z</time>
      </trkpt>
      <trkpt lat="43.5758" lon="3.7825">
        <ele>38.7</ele>
        <time>2013-05-05T07:07:48Z</time>
      </trkpt>
      <trkpt lat="43.57574" lon="3.78252">
        <ele>38.6</ele>
        <time>2013-05-05T07:07:49Z</time>
      </trkpt>
      <trkpt lat="43.57568" lon="3.78254">
        <ele>38.4</ele>
        <time>2013-05-05T07:07:50Z</time>
      </trkpt>
      <trkpt lat="43.57561" lon="3.78256">
        <ele>38.4</ele>
        <time>2013-05-05T07:07:51Z</time>
      </trkpt>
      <trkpt lat="43.57555" lon="3.78258">
        <ele>38.3</ele>
        <time>2013-05-05T07:07:52Z</time>
      </trkpt>
      <trkpt lat="43.57548" lon="3.7826">
        <ele>37.7</ele>
        <time>2013-05-05T07:07:53Z</time>
      </trkpt>
      <trkpt lat="43.57542" lon="3.78262">
        <ele>37.3</ele>
        <time>2013-05-05T07:07:54Z</time>
      </trkpt>
      <trkpt lat="43.57536" lon="3.78263">
        <ele>36.9</ele>
        <time>2013-05-05T07:07:55Z</time>
      </trkpt>
      <trkpt lat="43.57531" lon="3.78263">
        <ele>36.4</ele>
        <time>2013-05-05T07:07:56Z</time>
      </trkpt>
      <trkpt lat="43.57526" lon="3.78261">
        <ele>36</ele>
        <time>2013-05-05T07:07:57Z</time>
      </trkpt>
      <trkpt lat="43.57519" lon="3.78254">
        <ele>35.6</ele>
        <time>2013-05-05T07:07:59Z</time>
      </trkpt>
      <trkpt lat="43.57511" lon="3.78254">
        <ele>35.6</ele>
        <time>2013-05-05T07:08:01Z</time>
      </trkpt>
      <trkpt lat="43.57506" lon="3.78264">
        <ele>34.5</ele>
        <time>2013-05-05T07:08:05Z</time>
      </trkpt>
      <trkpt lat="43.57499" lon="3.78271">
        <ele>34.1</ele>
        <time>2013-05-05T07:08:09Z</time>
      </trkpt>
      <trkpt lat="43.57492" lon="3.78276">
        <ele>33.7</ele>
        <time>2013-05-05T07:08:12Z</time>
      </trkpt>
      <trkpt lat="43.57485" lon="3.78283">
        <ele>33.4</ele>
        <time>2013-05-05T07:08:15Z</time>
      </trkpt>
      <trkpt lat="43.57479" lon="3.78289">
        <ele>33.4</ele>
        <time>2013-05-05T07:08:17Z</time>
      </trkpt>
      <trkpt lat="43.57472" lon="3.78295">
        <ele>33.2</ele>
        <time>2013-05-05T07:08:19Z</time>
      </trkpt>
      <trkpt lat="43.57468" lon="3.78299">
        <ele>33.1</ele>
        <time>2013-05-05T07:08:20Z</time>
      </trkpt>
      <trkpt lat="43.57464" lon="3.78302">
        <ele>33.2</ele>
        <time>2013-05-05T07:08:21Z</time>
      </trkpt>
      <trkpt lat="43.57459" lon="3.78306">
        <ele>33.3</ele>
        <time>2013-05-05T07:08:22Z</time>
      </trkpt>
      <trkpt lat="43.57455" lon="3.7831">
        <ele>33.4</ele>
        <time>2013-05-05T07:08:23Z</time>
      </trkpt>
      <trkpt lat="43.57451" lon="3.78313">
        <ele>33.1</ele>
        <time>2013-05-05T07:08:24Z</time>
      </trkpt>
      <trkpt lat="43.57446" lon="3.78317">
        <ele>33</ele>
        <time>2013-05-05T07:08:25Z</time>
      </trkpt>
      <trkpt lat="43.57442" lon="3.7832">
        <ele>32.8</ele>
        <time>2013-05-05T07:08:26Z</time>
      </trkpt>
      <trkpt lat="43.57437" lon="3.78323">
        <ele>33.1</ele>
        <time>2013-05-05T07:08:27Z</time>
      </trkpt>
      <trkpt lat="43.57433" lon="3.78326">
        <ele>33.4</ele>
        <time>2013-05-05T07:08:28Z</time>
      </trkpt>
      <trkpt lat="43.57428" lon="3.7833">
        <ele>33.6</ele>
        <time>2013-05-05T07:08:29Z</time>
      </trkpt>
      <trkpt lat="43.57424" lon="3.78334">
        <ele>33.7</ele>
        <time>2013-05-05T07:08:30Z</time>
      </trkpt>
      <trkpt lat="43.57419" lon="3.78338">
        <ele>33.3</ele>
        <time>2013-05-05T07:08:31Z</time>
      </trkpt>
      <trkpt lat="43.57415" lon="3.78343">
        <ele>33</ele>
        <time>2013-05-05T07:08:32Z</time>
      </trkpt>
      <trkpt lat="43.57411" lon="3.78347">
        <ele>32.8</ele>
        <time>2013-05-05T07:08:33Z</time>
      </trkpt>
      <trkpt lat="43.57407" lon="3.78351">
        <ele>32.8</ele>
        <time>2013-05-05T07:08:34Z</time>
      </trkpt>
      <trkpt lat="43.57402" lon="3.78355">
        <ele>32.7</ele>
        <time>2013-05-05T07:08:35Z</time>
      </trkpt>
      <trkpt lat="43.57398" lon="3.78358">
        <ele>32.6</ele>
        <time>2013-05-05T07:08:36Z</time>
      </trkpt>
      <trkpt lat="43.57393" lon="3.78361">
        <ele>32.3</ele>
        <time>2013-05-05T07:08:37Z</time>
      </trkpt>
      <trkpt lat="43.57389" lon="3.78365">
        <ele>32.1</ele>
        <time>2013-05-05T07:08:38Z</time>
      </trkpt>
      <trkpt lat="43.57385" lon="3.78368">
        <ele>31.9</ele>
        <time>2013-05-05T07:08:39Z</time>
      </trkpt>
      <trkpt lat="43.57381" lon="3.78372">
        <ele>31.6</ele>
        <time>2013-05-05T07:08:40Z</time>
      </trkpt>
      <trkpt lat="43.57377" lon="3.78376">
        <ele>31.4</ele>
        <time>2013-05-05T07:08:41Z</time>
      </trkpt>
      <trkpt lat="43.57373" lon="3.78379">
        <ele>31.2</ele>
        <time>2013-05-05T07:08:42Z</time>
      </trkpt>
      <trkpt lat="43.57368" lon="3.78383">
        <ele>31.5</ele>
        <time>2013-05-05T07:08:43Z</time>
      </trkpt>
      <trkpt lat="43.57364" lon="3.78387">
        <ele>31.6</ele>
        <time>2013-05-05T07:08:44Z</time>
      </trkpt>
      <trkpt lat="43.5736" lon="3.78391">
        <ele>31.7</ele>
        <time>2013-05-05T07:08:45Z</time>
      </trkpt>
      <trkpt lat="43.57356" lon="3.78395">
        <ele>31.6</ele>
        <time>2013-05-05T07:08:46Z</time>
      </trkpt>
      <trkpt lat="43.57352" lon="3.78398">
        <ele>31.5</ele>
        <time>2013-05-05T07:08:47Z</time>
      </trkpt>
      <trkpt lat="43.57348" lon="3.78401">
        <ele>31.5</ele>
        <time>2013-05-05T07:08:48Z</time>
      </trkpt>
      <trkpt lat="43.57343" lon="3.78405">
        <ele>31.4</ele>
        <time>2013-05-05T07:08:49Z</time>
      </trkpt>
      <trkpt lat="43.57339" lon="3.78409">
        <ele>31.1</ele>
        <time>2013-05-05T07:08:50Z</time>
      </trkpt>
      <trkpt lat="43.57335" lon="3.78412">
        <ele>30.9</ele>
        <time>2013-05-05T07:08:51Z</time>
      </trkpt>
      <trkpt lat="43.57331" lon="3.78416">
        <ele>30.7</ele>
        <time>2013-05-05T07:08:52Z</time>
      </trkpt>
      <trkpt lat="43.57326" lon="3.78419">
        <ele>30.9</ele>
        <time>2013-05-05T07:08:53Z</time>
      </trkpt>
      <trkpt lat="43.57322" lon="3.78421">
        <ele>31.1</ele>
        <time>2013-05-05T07:08:54Z</time>
      </trkpt>
      <trkpt lat="43.57313" lon="3.78426">
        <ele>31.1</ele>
        <time>2013-05-05T07:08:56Z</time>
      </trkpt>
      <trkpt lat="43.57306" lon="3.78431">
        <ele>31</ele>
        <time>2013-05-05T07:08:58Z</time>
      </trkpt>
      <trkpt lat="43.57298" lon="3.78436">
        <ele>30.5</ele>
        <time>2013-05-05T07:09:00Z</time>
      </trkpt>
      <trkpt lat="43.57294" lon="3.78438">
        <ele>30.3</ele>
        <time>2013-05-05T07:09:01Z</time>
      </trkpt>
      <trkpt lat="43.5729" lon="3.78442">
        <ele>30.5</ele>
        <time>2013-05-05T07:09:02Z</time>
      </trkpt>
      <trkpt lat="43.57285" lon="3.78446">
        <ele>30.6</ele>
        <time>2013-05-05T07:09:03Z</time>
      </trkpt>
      <trkpt lat="43.57281" lon="3.78449">
        <ele>30.7</ele>
        <time>2013-05-05T07:09:04Z</time>
      </trkpt>
      <trkpt lat="43.57277" lon="3.78453">
        <ele>30.8</ele>
        <time>2013-05-05T07:09:05Z</time>
      </trkpt>
      <trkpt lat="43.57273" lon="3.78456">
        <ele>30.6</ele>
        <time>2013-05-05T07:09:06Z</time>
      </trkpt>
      <trkpt lat="43.57269" lon="3.7846">
        <ele>30.4</ele>
        <time>2013-05-05T07:09:07Z</time>
      </trkpt>
      <trkpt lat="43.57265" lon="3.78464">
        <ele>30.3</ele>
        <time>2013-05-05T07:09:08Z</time>
      </trkpt>
      <trkpt lat="43.5726" lon="3.78468">
        <ele>30.3</ele>
        <time>2013-05-05T07:09:09Z</time>
      </trkpt>
      <trkpt lat="43.57257" lon="3.78471">
        <ele>30.3</ele>
        <time>2013-05-05T07:09:10Z</time>
      </trkpt>
      <trkpt lat="43.57253" lon="3.78475">
        <ele>30.3</ele>
        <time>2013-05-05T07:09:11Z</time>
      </trkpt>
      <trkpt lat="43.5725" lon="3.7848">
        <ele>30.4</ele>
        <time>2013-05-05T07:09:12Z</time>
      </trkpt>
      <trkpt lat="43.57246" lon="3.78484">
        <ele>30.5</ele>
        <time>2013-05-05T07:09:13Z</time>
      </trkpt>
      <trkpt lat="43.57243" lon="3.78489">
        <ele>30.6</ele>
        <time>2013-05-05T07:09:14Z</time>
      </trkpt>
      <trkpt lat="43.5724" lon="3.78494">
        <ele>30.5</ele>
        <time>2013-05-05T07:09:15Z</time>
      </trkpt>
      <trkpt lat="43.57236" lon="3.78499">
        <ele>30.5</ele>
        <time>2013-05-05T07:09:16Z</time>
      </trkpt>
      <trkpt lat="43.57233" lon="3.78504">
        <ele>30.5</ele>
        <time>2013-05-05T07:09:17Z</time>
      </trkpt>
      <trkpt lat="43.5723" lon="3.7851">
        <ele>30.6</ele>
        <time>2013-05-05T07:09:18Z</time>
      </trkpt>
      <trkpt lat="43.57226" lon="3.78515">
        <ele>30.7</ele>
        <time>2013-05-05T07:09:19Z</time>
      </trkpt>
      <trkpt lat="43.57223" lon="3.7852">
        <ele>30.7</ele>
        <time>2013-05-05T07:09:20Z</time>
      </trkpt>
      <trkpt lat="43.5722" lon="3.78524">
        <ele>30.7</ele>
        <time>2013-05-05T07:09:21Z</time>
      </trkpt>
      <trkpt lat="43.57216" lon="3.78529">
        <ele>30.6</ele>
        <time>2013-05-05T07:09:22Z</time>
      </trkpt>
      <trkpt lat="43.57212" lon="3.78535">
        <ele>30.6</ele>
        <time>2013-05-05T07:09:23Z</time>
      </trkpt>
      <trkpt lat="43.57209" lon="3.78539">
        <ele>30.6</ele>
        <time>2013-05-05T07:09:24Z</time>
      </trkpt>
      <trkpt lat="43.57205" lon="3.78544">
        <ele>30.6</ele>
        <time>2013-05-05T07:09:25Z</time>
      </trkpt>
      <trkpt lat="43.57201" lon="3.78549">
        <ele>30.6</ele>
        <time>2013-05-05T07:09:26Z</time>
      </trkpt>
      <trkpt lat="43.57197" lon="3.78554">
        <ele>30.6</ele>
        <time>2013-05-05T07:09:27Z</time>
      </trkpt>
      <trkpt lat="43.57194" lon="3.78559">
        <ele>30.4</ele>
        <time>2013-05-05T07:09:28Z</time>
      </trkpt>
      <trkpt lat="43.57191" lon="3.78565">
        <ele>30.2</ele>
        <time>2013-05-05T07:09:29Z</time>
      </trkpt>
      <trkpt lat="43.57188" lon="3.7857">
        <ele>30</ele>
        <time>2013-05-05T07:09:30Z</time>
      </trkpt>
      <trkpt lat="43.57184" lon="3.78575">
        <ele>29.5</ele>
        <time>2013-05-05T07:09:31Z</time>
      </trkpt>
      <trkpt lat="43.57181" lon="3.7858">
        <ele>29</ele>
        <time>2013-05-05T07:09:32Z</time>
      </trkpt>
      <trkpt lat="43.57177" lon="3.78585">
        <ele>28.7</ele>
        <time>2013-05-05T07:09:33Z</time>
      </trkpt>
      <trkpt lat="43.57174" lon="3.78589">
        <ele>28.9</ele>
        <time>2013-05-05T07:09:34Z</time>
      </trkpt>
      <trkpt lat="43.5717" lon="3.78594">
        <ele>29.1</ele>
        <time>2013-05-05T07:09:35Z</time>
      </trkpt>
      <trkpt lat="43.57167" lon="3.78599">
        <ele>29.2</ele>
        <time>2013-05-05T07:09:36Z</time>
      </trkpt>
      <trkpt lat="43.57163" lon="3.78604">
        <ele>29.5</ele>
        <time>2013-05-05T07:09:37Z</time>
      </trkpt>
      <trkpt lat="43.5716" lon="3.78609">
        <ele>29.7</ele>
        <time>2013-05-05T07:09:38Z</time>
      </trkpt>
      <trkpt lat="43.57156" lon="3.78613">
        <ele>29.8</ele>
        <time>2013-05-05T07:09:39Z</time>
      </trkpt>
      <trkpt lat="43.57152" lon="3.78617">
        <ele>29.7</ele>
        <time>2013-05-05T07:09:40Z</time>
      </trkpt>
      <trkpt lat="43.57149" lon="3.78622">
        <ele>29.6</ele>
        <time>2013-05-05T07:09:41Z</time>
      </trkpt>
      <trkpt lat="43.57145" lon="3.78626">
        <ele>29.6</ele>
        <time>2013-05-05T07:09:42Z</time>
      </trkpt>
      <trkpt lat="43.57139" lon="3.78635">
        <ele>29.5</ele>
        <time>2013-05-05T07:09:44Z</time>
      </trkpt>
      <trkpt lat="43.57131" lon="3.78634">
        <ele>29.2</ele>
        <time>2013-05-05T07:09:47Z</time>
      </trkpt>
      <trkpt lat="43.57125" lon="3.78628">
        <ele>28.9</ele>
        <time>2013-05-05T07:09:49Z</time>
      </trkpt>
      <trkpt lat="43.5712" lon="3.78622">
        <ele>29.4</ele>
        <time>2013-05-05T07:09:51Z</time>
      </trkpt>
      <trkpt lat="43.57115" lon="3.78616">
        <ele>29.5</ele>
        <time>2013-05-05T07:09:53Z</time>
      </trkpt>
      <trkpt lat="43.57109" lon="3.78609">
        <ele>29.4</ele>
        <time>2013-05-05T07:09:55Z</time>
      </trkpt>
      <trkpt lat="43.57103" lon="3.78602">
        <ele>29.3</ele>
        <time>2013-05-05T07:09:57Z</time>
      </trkpt>
      <trkpt lat="43.57097" lon="3.78594">
        <ele>29.3</ele>
        <time>2013-05-05T07:09:59Z</time>
      </trkpt>
      <trkpt lat="43.57089" lon="3.78595">
        <ele>29.2</ele>
        <time>2013-05-05T07:10:01Z</time>
      </trkpt>
      <trkpt lat="43.57085" lon="3.78604">
        <ele>28.9</ele>
        <time>2013-05-05T07:10:03Z</time>
      </trkpt>
      <trkpt lat="43.57082" lon="3.78613">
        <ele>28.4</ele>
        <time>2013-05-05T07:10:05Z</time>
      </trkpt>
      <trkpt lat="43.57079" lon="3.78624">
        <ele>28</ele>
        <time>2013-05-05T07:10:07Z</time>
      </trkpt>
      <trkpt lat="43.57075" lon="3.78634">
        <ele>27.6</ele>
        <time>2013-05-05T07:10:09Z</time>
      </trkpt>
      <trkpt lat="43.57072" lon="3.78645">
        <ele>27.3</ele>
        <time>2013-05-05T07:10:11Z</time>
      </trkpt>
      <trkpt lat="43.57069" lon="3.78654">
        <ele>28.9</ele>
        <time>2013-05-05T07:10:13Z</time>
      </trkpt>
      <trkpt lat="43.57065" lon="3.78665">
        <ele>29.1</ele>
        <time>2013-05-05T07:10:15Z</time>
      </trkpt>
      <trkpt lat="43.5706" lon="3.78675">
        <ele>28.8</ele>
        <time>2013-05-05T07:10:17Z</time>
      </trkpt>
      <trkpt lat="43.57057" lon="3.7868">
        <ele>28.8</ele>
        <time>2013-05-05T07:10:18Z</time>
      </trkpt>
      <trkpt lat="43.57054" lon="3.78684">
        <ele>28.6</ele>
        <time>2013-05-05T07:10:19Z</time>
      </trkpt>
      <trkpt lat="43.57051" lon="3.78689">
        <ele>28.4</ele>
        <time>2013-05-05T07:10:20Z</time>
      </trkpt>
      <trkpt lat="43.57048" lon="3.78694">
        <ele>28.3</ele>
        <time>2013-05-05T07:10:21Z</time>
      </trkpt>
      <trkpt lat="43.57045" lon="3.78699">
        <ele>28.4</ele>
        <time>2013-05-05T07:10:22Z</time>
      </trkpt>
      <trkpt lat="43.57042" lon="3.78704">
        <ele>28.4</ele>
        <time>2013-05-05T07:10:23Z</time>
      </trkpt>
      <trkpt lat="43.57039" lon="3.78709">
        <ele>28.5</ele>
        <time>2013-05-05T07:10:24Z</time>
      </trkpt>
      <trkpt lat="43.57036" lon="3.78714">
        <ele>28.2</ele>
        <time>2013-05-05T07:10:25Z</time>
      </trkpt>
      <trkpt lat="43.57033" lon="3.78719">
        <ele>28</ele>
        <time>2013-05-05T07:10:26Z</time>
      </trkpt>
      <trkpt lat="43.5703" lon="3.78725">
        <ele>27.9</ele>
        <time>2013-05-05T07:10:27Z</time>
      </trkpt>
      <trkpt lat="43.57027" lon="3.78731">
        <ele>28</ele>
        <time>2013-05-05T07:10:28Z</time>
      </trkpt>
      <trkpt lat="43.57025" lon="3.78737">
        <ele>28.1</ele>
        <time>2013-05-05T07:10:29Z</time>
      </trkpt>
      <trkpt lat="43.57022" lon="3.78743">
        <ele>28.1</ele>
        <time>2013-05-05T07:10:30Z</time>
      </trkpt>
      <trkpt lat="43.5702" lon="3.78749">
        <ele>28</ele>
        <time>2013-05-05T07:10:31Z</time>
      </trkpt>
      <trkpt lat="43.57018" lon="3.78755">
        <ele>27.9</ele>
        <time>2013-05-05T07:10:32Z</time>
      </trkpt>
      <trkpt lat="43.57016" lon="3.78761">
        <ele>27.8</ele>
        <time>2013-05-05T07:10:33Z</time>
      </trkpt>
      <trkpt lat="43.57013" lon="3.78766">
        <ele>27.7</ele>
        <time>2013-05-05T07:10:34Z</time>
      </trkpt>
      <trkpt lat="43.57009" lon="3.78777">
        <ele>27.5</ele>
        <time>2013-05-05T07:10:36Z</time>
      </trkpt>
      <trkpt lat="43.57006" lon="3.78788">
        <ele>27.1</ele>
        <time>2013-05-05T07:10:38Z</time>
      </trkpt>
      <trkpt lat="43.57002" lon="3.78797">
        <ele>26.7</ele>
        <time>2013-05-05T07:10:40Z</time>
      </trkpt>
      <trkpt lat="43.56999" lon="3.78807">
        <ele>26.9</ele>
        <time>2013-05-05T07:10:42Z</time>
      </trkpt>
      <trkpt lat="43.56997" lon="3.78812">
        <ele>27</ele>
        <time>2013-05-05T07:10:43Z</time>
      </trkpt>
      <trkpt lat="43.56991" lon="3.78828">
        <ele>27.2</ele>
        <time>2013-05-05T07:10:46Z</time>
      </trkpt>
      <trkpt lat="43.56987" lon="3.78839">
        <ele>27.1</ele>
        <time>2013-05-05T07:10:48Z</time>
      </trkpt>
      <trkpt lat="43.56985" lon="3.78844">
        <ele>27.1</ele>
        <time>2013-05-05T07:10:49Z</time>
      </trkpt>
      <trkpt lat="43.56983" lon="3.7885">
        <ele>27.4</ele>
        <time>2013-05-05T07:10:50Z</time>
      </trkpt>
      <trkpt lat="43.56981" lon="3.78855">
        <ele>27.5</ele>
        <time>2013-05-05T07:10:51Z</time>
      </trkpt>
      <trkpt lat="43.56976" lon="3.78866">
        <ele>27.5</ele>
        <time>2013-05-05T07:10:53Z</time>
      </trkpt>
      <trkpt lat="43.56972" lon="3.78877">
        <ele>27.2</ele>
        <time>2013-05-05T07:10:55Z</time>
      </trkpt>
      <trkpt lat="43.56967" lon="3.78886">
        <ele>27.1</ele>
        <time>2013-05-05T07:10:57Z</time>
      </trkpt>
      <trkpt lat="43.56963" lon="3.78896">
        <ele>27.2</ele>
        <time>2013-05-05T07:10:59Z</time>
      </trkpt>
      <trkpt lat="43.5696" lon="3.78901">
        <ele>27.1</ele>
        <time>2013-05-05T07:11:00Z</time>
      </trkpt>
      <trkpt lat="43.56957" lon="3.78907">
        <ele>27.1</ele>
        <time>2013-05-05T07:11:01Z</time>
      </trkpt>
      <trkpt lat="43.56954" lon="3.78912">
        <ele>27.1</ele>
        <time>2013-05-05T07:11:02Z</time>
      </trkpt>
      <trkpt lat="43.56952" lon="3.78917">
        <ele>27</ele>
        <time>2013-05-05T07:11:03Z</time>
      </trkpt>
      <trkpt lat="43.56949" lon="3.78923">
        <ele>27</ele>
        <time>2013-05-05T07:11:04Z</time>
      </trkpt>
      <trkpt lat="43.56947" lon="3.78928">
        <ele>26.9</ele>
        <time>2013-05-05T07:11:05Z</time>
      </trkpt>
      <trkpt lat="43.56944" lon="3.78934">
        <ele>27.1</ele>
        <time>2013-05-05T07:11:06Z</time>
      </trkpt>
      <trkpt lat="43.56941" lon="3.78939">
        <ele>27.2</ele>
        <time>2013-05-05T07:11:07Z</time>
      </trkpt>
      <trkpt lat="43.56939" lon="3.78945">
        <ele>27.3</ele>
        <time>2013-05-05T07:11:08Z</time>
      </trkpt>
      <trkpt lat="43.56936" lon="3.7895">
        <ele>26.9</ele>
        <time>2013-05-05T07:11:09Z</time>
      </trkpt>
      <trkpt lat="43.56932" lon="3.7896">
        <ele>26.4</ele>
        <time>2013-05-05T07:11:11Z</time>
      </trkpt>
      <trkpt lat="43.56929" lon="3.78965">
        <ele>26.6</ele>
        <time>2013-05-05T07:11:12Z</time>
      </trkpt>
      <trkpt lat="43.56927" lon="3.7897">
        <ele>26.8</ele>
        <time>2013-05-05T07:11:13Z</time>
      </trkpt>
      <trkpt lat="43.56924" lon="3.78976">
        <ele>27</ele>
        <time>2013-05-05T07:11:14Z</time>
      </trkpt>
      <trkpt lat="43.56921" lon="3.78981">
        <ele>27.1</ele>
        <time>2013-05-05T07:11:15Z</time>
      </trkpt>
      <trkpt lat="43.56919" lon="3.78986">
        <ele>26.7</ele>
        <time>2013-05-05T07:11:16Z</time>
      </trkpt>
      <trkpt lat="43.56916" lon="3.78992">
        <ele>26.5</ele>
        <time>2013-05-05T07:11:17Z</time>
      </trkpt>
      <trkpt lat="43.56914" lon="3.78997">
        <ele>26.3</ele>
        <time>2013-05-05T07:11:18Z</time>
      </trkpt>
      <trkpt lat="43.56911" lon="3.79003">
        <ele>26.2</ele>
        <time>2013-05-05T07:11:19Z</time>
      </trkpt>
      <trkpt lat="43.56908" lon="3.79008">
        <ele>26.1</ele>
        <time>2013-05-05T07:11:20Z</time>
      </trkpt>
      <trkpt lat="43.56906" lon="3.79014">
        <ele>26</ele>
        <time>2013-05-05T07:11:21Z</time>
      </trkpt>
      <trkpt lat="43.56903" lon="3.7902">
        <ele>26.1</ele>
        <time>2013-05-05T07:11:22Z</time>
      </trkpt>
      <trkpt lat="43.569" lon="3.79026">
        <ele>26.1</ele>
        <time>2013-05-05T07:11:23Z</time>
      </trkpt>
      <trkpt lat="43.56898" lon="3.79032">
        <ele>26.2</ele>
        <time>2013-05-05T07:11:24Z</time>
      </trkpt>
      <trkpt lat="43.56895" lon="3.79039">
        <ele>26.3</ele>
        <time>2013-05-05T07:11:25Z</time>
      </trkpt>
      <trkpt lat="43.56893" lon="3.79044">
        <ele>26.4</ele>
        <time>2013-05-05T07:11:26Z</time>
      </trkpt>
      <trkpt lat="43.56891" lon="3.7905">
        <ele>26.5</ele>
        <time>2013-05-05T07:11:27Z</time>
      </trkpt>
      <trkpt lat="43.56888" lon="3.79056">
        <ele>26.3</ele>
        <time>2013-05-05T07:11:28Z</time>
      </trkpt>
      <trkpt lat="43.56886" lon="3.79061">
        <ele>26.1</ele>
        <time>2013-05-05T07:11:29Z</time>
      </trkpt>
      <trkpt lat="43.56884" lon="3.79066">
        <ele>25.9</ele>
        <time>2013-05-05T07:11:30Z</time>
      </trkpt>
      <trkpt lat="43.56881" lon="3.79072">
        <ele>25.8</ele>
        <time>2013-05-05T07:11:31Z</time>
      </trkpt>
      <trkpt lat="43.56879" lon="3.79078">
        <ele>25.8</ele>
        <time>2013-05-05T07:11:32Z</time>
      </trkpt>
      <trkpt lat="43.56877" lon="3.79084">
        <ele>25.8</ele>
        <time>2013-05-05T07:11:33Z</time>
      </trkpt>
      <trkpt lat="43.56875" lon="3.7909">
        <ele>25.8</ele>
        <time>2013-05-05T07:11:34Z</time>
      </trkpt>
      <trkpt lat="43.56872" lon="3.79096">
        <ele>25.7</ele>
        <time>2013-05-05T07:11:35Z</time>
      </trkpt>
      <trkpt lat="43.5687" lon="3.79102">
        <ele>25.5</ele>
        <time>2013-05-05T07:11:36Z</time>
      </trkpt>
      <trkpt lat="43.56867" lon="3.79108">
        <ele>25.4</ele>
        <time>2013-05-05T07:11:37Z</time>
      </trkpt>
      <trkpt lat="43.56865" lon="3.79114">
        <ele>25.4</ele>
        <time>2013-05-05T07:11:38Z</time>
      </trkpt>
      <trkpt lat="43.56862" lon="3.7912">
        <ele>25.4</ele>
        <time>2013-05-05T07:11:39Z</time>
      </trkpt>
      <trkpt lat="43.5686" lon="3.79126">
        <ele>25.4</ele>
        <time>2013-05-05T07:11:40Z</time>
      </trkpt>
      <trkpt lat="43.56858" lon="3.79132">
        <ele>25</ele>
        <time>2013-05-05T07:11:41Z</time>
      </trkpt>
      <trkpt lat="43.56856" lon="3.79138">
        <ele>24.7</ele>
        <time>2013-05-05T07:11:42Z</time>
      </trkpt>
      <trkpt lat="43.56853" lon="3.79149">
        <ele>24.6</ele>
        <time>2013-05-05T07:11:44Z</time>
      </trkpt>
      <trkpt lat="43.56852" lon="3.79154">
        <ele>24.7</ele>
        <time>2013-05-05T07:11:45Z</time>
      </trkpt>
      <trkpt lat="43.56848" lon="3.7917">
        <ele>25.3</ele>
        <time>2013-05-05T07:11:48Z</time>
      </trkpt>
      <trkpt lat="43.56845" lon="3.79181">
        <ele>25.7</ele>
        <time>2013-05-05T07:11:50Z</time>
      </trkpt>
      <trkpt lat="43.56841" lon="3.79192">
        <ele>25.4</ele>
        <time>2013-05-05T07:11:52Z</time>
      </trkpt>
      <trkpt lat="43.56839" lon="3.79197">
        <ele>25.3</ele>
        <time>2013-05-05T07:11:53Z</time>
      </trkpt>
      <trkpt lat="43.56836" lon="3.79209">
        <ele>25.1</ele>
        <time>2013-05-05T07:11:55Z</time>
      </trkpt>
      <trkpt lat="43.56832" lon="3.7922">
        <ele>25.3</ele>
        <time>2013-05-05T07:11:57Z</time>
      </trkpt>
      <trkpt lat="43.5683" lon="3.79226">
        <ele>25.6</ele>
        <time>2013-05-05T07:11:58Z</time>
      </trkpt>
      <trkpt lat="43.56828" lon="3.79232">
        <ele>25.7</ele>
        <time>2013-05-05T07:11:59Z</time>
      </trkpt>
      <trkpt lat="43.56826" lon="3.79238">
        <ele>25.5</ele>
        <time>2013-05-05T07:12:00Z</time>
      </trkpt>
      <trkpt lat="43.56824" lon="3.79244">
        <ele>25.3</ele>
        <time>2013-05-05T07:12:01Z</time>
      </trkpt>
      <trkpt lat="43.56822" lon="3.79251">
        <ele>25.2</ele>
        <time>2013-05-05T07:12:02Z</time>
      </trkpt>
      <trkpt lat="43.5682" lon="3.79257">
        <ele>25.2</ele>
        <time>2013-05-05T07:12:03Z</time>
      </trkpt>
      <trkpt lat="43.56818" lon="3.79264">
        <ele>25.2</ele>
        <time>2013-05-05T07:12:04Z</time>
      </trkpt>
      <trkpt lat="43.56816" lon="3.7927">
        <ele>25.2</ele>
        <time>2013-05-05T07:12:05Z</time>
      </trkpt>
      <trkpt lat="43.56814" lon="3.79277">
        <ele>25.1</ele>
        <time>2013-05-05T07:12:06Z</time>
      </trkpt>
      <trkpt lat="43.56812" lon="3.79284">
        <ele>25</ele>
        <time>2013-05-05T07:12:07Z</time>
      </trkpt>
      <trkpt lat="43.56809" lon="3.7929">
        <ele>24.9</ele>
        <time>2013-05-05T07:12:08Z</time>
      </trkpt>
      <trkpt lat="43.56807" lon="3.79296">
        <ele>24.9</ele>
        <time>2013-05-05T07:12:09Z</time>
      </trkpt>
      <trkpt lat="43.56805" lon="3.79302">
        <ele>25.1</ele>
        <time>2013-05-05T07:12:10Z</time>
      </trkpt>
      <trkpt lat="43.56802" lon="3.79307">
        <ele>25.3</ele>
        <time>2013-05-05T07:12:11Z</time>
      </trkpt>
      <trkpt lat="43.568" lon="3.79313">
        <ele>25.5</ele>
        <time>2013-05-05T07:12:12Z</time>
      </trkpt>
      <trkpt lat="43.56797" lon="3.7932">
        <ele>25.2</ele>
        <time>2013-05-05T07:12:13Z</time>
      </trkpt>
      <trkpt lat="43.56795" lon="3.79326">
        <ele>25</ele>
        <time>2013-05-05T07:12:14Z</time>
      </trkpt>
      <trkpt lat="43.56792" lon="3.79332">
        <ele>24.8</ele>
        <time>2013-05-05T07:12:15Z</time>
      </trkpt>
      <trkpt lat="43.5679" lon="3.79338">
        <ele>24.7</ele>
        <time>2013-05-05T07:12:16Z</time>
      </trkpt>
      <trkpt lat="43.56788" lon="3.79344">
        <ele>24.6</ele>
        <time>2013-05-05T07:12:17Z</time>
      </trkpt>
      <trkpt lat="43.56785" lon="3.7935">
        <ele>24.5</ele>
        <time>2013-05-05T07:12:18Z</time>
      </trkpt>
      <trkpt lat="43.56783" lon="3.79357">
        <ele>24.8</ele>
        <time>2013-05-05T07:12:19Z</time>
      </trkpt>
      <trkpt lat="43.56781" lon="3.79363">
        <ele>25</ele>
        <time>2013-05-05T07:12:20Z</time>
      </trkpt>
      <trkpt lat="43.56779" lon="3.7937">
        <ele>25.1</ele>
        <time>2013-05-05T07:12:21Z</time>
      </trkpt>
      <trkpt lat="43.56776" lon="3.79376">
        <ele>25.3</ele>
        <time>2013-05-05T07:12:22Z</time>
      </trkpt>
      <trkpt lat="43.56773" lon="3.79381">
        <ele>25.4</ele>
        <time>2013-05-05T07:12:23Z</time>
      </trkpt>
      <trkpt lat="43.56771" lon="3.79387">
        <ele>25.4</ele>
        <time>2013-05-05T07:12:24Z</time>
      </trkpt>
      <trkpt lat="43.56768" lon="3.79394">
        <ele>25.5</ele>
        <time>2013-05-05T07:12:25Z</time>
      </trkpt>
      <trkpt lat="43.56766" lon="3.794">
        <ele>25.3</ele>
        <time>2013-05-05T07:12:26Z</time>
      </trkpt>
      <trkpt lat="43.56764" lon="3.79407">
        <ele>25.1</ele>
        <time>2013-05-05T07:12:27Z</time>
      </trkpt>
      <trkpt lat="43.56762" lon="3.79414">
        <ele>25</ele>
        <time>2013-05-05T07:12:28Z</time>
      </trkpt>
      <trkpt lat="43.5676" lon="3.7942">
        <ele>24.6</ele>
        <time>2013-05-05T07:12:29Z</time>
      </trkpt>
      <trkpt lat="43.56758" lon="3.79427">
        <ele>24.3</ele>
        <time>2013-05-05T07:12:30Z</time>
      </trkpt>
      <trkpt lat="43.56756" lon="3.79434">
        <ele>24.1</ele>
        <time>2013-05-05T07:12:31Z</time>
      </trkpt>
      <trkpt lat="43.56754" lon="3.79441">
        <ele>24.2</ele>
        <time>2013-05-05T07:12:32Z</time>
      </trkpt>
      <trkpt lat="43.56753" lon="3.79448">
        <ele>24.2</ele>
        <time>2013-05-05T07:12:33Z</time>
      </trkpt>
      <trkpt lat="43.56751" lon="3.79454">
        <ele>24.3</ele>
        <time>2013-05-05T07:12:34Z</time>
      </trkpt>
      <trkpt lat="43.5675" lon="3.79461">
        <ele>24.2</ele>
        <time>2013-05-05T07:12:35Z</time>
      </trkpt>
      <trkpt lat="43.56748" lon="3.79467">
        <ele>24.1</ele>
        <time>2013-05-05T07:12:36Z</time>
      </trkpt>
      <trkpt lat="43.56747" lon="3.79474">
        <ele>24.1</ele>
        <time>2013-05-05T07:12:37Z</time>
      </trkpt>
      <trkpt lat="43.56745" lon="3.7948">
        <ele>24</ele>
        <time>2013-05-05T07:12:38Z</time>
      </trkpt>
      <trkpt lat="43.56744" lon="3.79487">
        <ele>23.9</ele>
        <time>2013-05-05T07:12:39Z</time>
      </trkpt>
      <trkpt lat="43.56743" lon="3.79493">
        <ele>23.8</ele>
        <time>2013-05-05T07:12:40Z</time>
      </trkpt>
      <trkpt lat="43.56742" lon="3.795">
        <ele>23.8</ele>
        <time>2013-05-05T07:12:41Z</time>
      </trkpt>
      <trkpt lat="43.56741" lon="3.79506">
        <ele>23.8</ele>
        <time>2013-05-05T07:12:42Z</time>
      </trkpt>
      <trkpt lat="43.56739" lon="3.79512">
        <ele>23.8</ele>
        <time>2013-05-05T07:12:43Z</time>
      </trkpt>
      <trkpt lat="43.56737" lon="3.79524">
        <ele>23.9</ele>
        <time>2013-05-05T07:12:45Z</time>
      </trkpt>
      <trkpt lat="43.56736" lon="3.79529">
        <ele>23.9</ele>
        <time>2013-05-05T07:12:46Z</time>
      </trkpt>
      <trkpt lat="43.56733" lon="3.79546">
        <ele>23.5</ele>
        <time>2013-05-05T07:12:49Z</time>
      </trkpt>
      <trkpt lat="43.56733" lon="3.79558">
        <ele>23.4</ele>
        <time>2013-05-05T07:12:51Z</time>
      </trkpt>
      <trkpt lat="43.56738" lon="3.79568">
        <ele>23.4</ele>
        <time>2013-05-05T07:12:53Z</time>
      </trkpt>
      <trkpt lat="43.56745" lon="3.79574">
        <ele>23.6</ele>
        <time>2013-05-05T07:12:55Z</time>
      </trkpt>
      <trkpt lat="43.56752" lon="3.79579">
        <ele>24</ele>
        <time>2013-05-05T07:12:57Z</time>
      </trkpt>
      <trkpt lat="43.56759" lon="3.79585">
        <ele>24.4</ele>
        <time>2013-05-05T07:12:59Z</time>
      </trkpt>
      <trkpt lat="43.56766" lon="3.79589">
        <ele>24.4</ele>
        <time>2013-05-05T07:13:01Z</time>
      </trkpt>
      <trkpt lat="43.56773" lon="3.79593">
        <ele>24.3</ele>
        <time>2013-05-05T07:13:03Z</time>
      </trkpt>
      <trkpt lat="43.5678" lon="3.79597">
        <ele>24.8</ele>
        <time>2013-05-05T07:13:05Z</time>
      </trkpt>
      <trkpt lat="43.56787" lon="3.79602">
        <ele>24.9</ele>
        <time>2013-05-05T07:13:07Z</time>
      </trkpt>
      <trkpt lat="43.56794" lon="3.79605">
        <ele>24.9</ele>
        <time>2013-05-05T07:13:09Z</time>
      </trkpt>
      <trkpt lat="43.56801" lon="3.7961">
        <ele>25.3</ele>
        <time>2013-05-05T07:13:11Z</time>
      </trkpt>
      <trkpt lat="43.56808" lon="3.79614">
        <ele>25.5</ele>
        <time>2013-05-05T07:13:13Z</time>
      </trkpt>
      <trkpt lat="43.56813" lon="3.79619">
        <ele>25.7</ele>
        <time>2013-05-05T07:13:15Z</time>
      </trkpt>
      <trkpt lat="43.56814" lon="3.79628">
        <ele>25.5</ele>
        <time>2013-05-05T07:13:17Z</time>
      </trkpt>
      <trkpt lat="43.56812" lon="3.79637">
        <ele>25.4</ele>
        <time>2013-05-05T07:13:19Z</time>
      </trkpt>
      <trkpt lat="43.56809" lon="3.79647">
        <ele>25.3</ele>
        <time>2013-05-05T07:13:21Z</time>
      </trkpt>
      <trkpt lat="43.56806" lon="3.79656">
        <ele>25.3</ele>
        <time>2013-05-05T07:13:23Z</time>
      </trkpt>
      <trkpt lat="43.56803" lon="3.79666">
        <ele>25.4</ele>
        <time>2013-05-05T07:13:25Z</time>
      </trkpt>
      <trkpt lat="43.568" lon="3.79676">
        <ele>25.5</ele>
        <time>2013-05-05T07:13:27Z</time>
      </trkpt>
      <trkpt lat="43.56797" lon="3.79686">
        <ele>25.5</ele>
        <time>2013-05-05T07:13:29Z</time>
      </trkpt>
      <trkpt lat="43.56793" lon="3.79696">
        <ele>25.3</ele>
        <time>2013-05-05T07:13:31Z</time>
      </trkpt>
      <trkpt lat="43.56789" lon="3.79705">
        <ele>25.2</ele>
        <time>2013-05-05T07:13:33Z</time>
      </trkpt>
      <trkpt lat="43.56785" lon="3.79714">
        <ele>25.5</ele>
        <time>2013-05-05T07:13:35Z</time>
      </trkpt>
      <trkpt lat="43.56781" lon="3.79723">
        <ele>25.8</ele>
        <time>2013-05-05T07:13:37Z</time>
      </trkpt>
      <trkpt lat="43.56778" lon="3.79733">
        <ele>25.9</ele>
        <time>2013-05-05T07:13:39Z</time>
      </trkpt>
      <trkpt lat="43.56774" lon="3.79743">
        <ele>25.9</ele>
        <time>2013-05-05T07:13:41Z</time>
      </trkpt>
      <trkpt lat="43.5677" lon="3.79753">
        <ele>26.1</ele>
        <time>2013-05-05T07:13:43Z</time>
      </trkpt>
      <trkpt lat="43.56766" lon="3.79762">
        <ele>26.2</ele>
        <time>2013-05-05T07:13:45Z</time>
      </trkpt>
      <trkpt lat="43.56762" lon="3.79772">
        <ele>26.2</ele>
        <time>2013-05-05T07:13:47Z</time>
      </trkpt>
      <trkpt lat="43.5676" lon="3.79777">
        <ele>26.2</ele>
        <time>2013-05-05T07:13:48Z</time>
      </trkpt>
      <trkpt lat="43.56755" lon="3.79791">
        <ele>25.8</ele>
        <time>2013-05-05T07:13:51Z</time>
      </trkpt>
      <trkpt lat="43.56751" lon="3.798">
        <ele>25.4</ele>
        <time>2013-05-05T07:13:53Z</time>
      </trkpt>
      <trkpt lat="43.56747" lon="3.79809">
        <ele>25.3</ele>
        <time>2013-05-05T07:13:55Z</time>
      </trkpt>
      <trkpt lat="43.56744" lon="3.79819">
        <ele>25.2</ele>
        <time>2013-05-05T07:13:57Z</time>
      </trkpt>
      <trkpt lat="43.5674" lon="3.79829">
        <ele>25.2</ele>
        <time>2013-05-05T07:13:59Z</time>
      </trkpt>
      <trkpt lat="43.56736" lon="3.7984">
        <ele>25</ele>
        <time>2013-05-05T07:14:01Z</time>
      </trkpt>
      <trkpt lat="43.56732" lon="3.7985">
        <ele>24.6</ele>
        <time>2013-05-05T07:14:03Z</time>
      </trkpt>
      <trkpt lat="43.56728" lon="3.7986">
        <ele>24.6</ele>
        <time>2013-05-05T07:14:05Z</time>
      </trkpt>
      <trkpt lat="43.56724" lon="3.7987">
        <ele>24.6</ele>
        <time>2013-05-05T07:14:07Z</time>
      </trkpt>
      <trkpt lat="43.56721" lon="3.7988">
        <ele>24.5</ele>
        <time>2013-05-05T07:14:09Z</time>
      </trkpt>
      <trkpt lat="43.56717" lon="3.7989">
        <ele>24.8</ele>
        <time>2013-05-05T07:14:11Z</time>
      </trkpt>
      <trkpt lat="43.56714" lon="3.799">
        <ele>24.6</ele>
        <time>2013-05-05T07:14:13Z</time>
      </trkpt>
      <trkpt lat="43.56711" lon="3.7991">
        <ele>24.1</ele>
        <time>2013-05-05T07:14:15Z</time>
      </trkpt>
      <trkpt lat="43.56707" lon="3.7992">
        <ele>23.7</ele>
        <time>2013-05-05T07:14:17Z</time>
      </trkpt>
      <trkpt lat="43.56703" lon="3.7993">
        <ele>23.4</ele>
        <time>2013-05-05T07:14:19Z</time>
      </trkpt>
      <trkpt lat="43.56699" lon="3.7994">
        <ele>23.8</ele>
        <time>2013-05-05T07:14:21Z</time>
      </trkpt>
      <trkpt lat="43.56696" lon="3.79951">
        <ele>24</ele>
        <time>2013-05-05T07:14:23Z</time>
      </trkpt>
      <trkpt lat="43.56693" lon="3.79961">
        <ele>24</ele>
        <time>2013-05-05T07:14:25Z</time>
      </trkpt>
      <trkpt lat="43.5669" lon="3.79972">
        <ele>23.7</ele>
        <time>2013-05-05T07:14:27Z</time>
      </trkpt>
      <trkpt lat="43.56687" lon="3.79982">
        <ele>23.5</ele>
        <time>2013-05-05T07:14:29Z</time>
      </trkpt>
      <trkpt lat="43.56683" lon="3.79992">
        <ele>23.3</ele>
        <time>2013-05-05T07:14:31Z</time>
      </trkpt>
      <trkpt lat="43.5668" lon="3.80001">
        <ele>23.5</ele>
        <time>2013-05-05T07:14:33Z</time>
      </trkpt>
      <trkpt lat="43.56677" lon="3.80011">
        <ele>23.6</ele>
        <time>2013-05-05T07:14:35Z</time>
      </trkpt>
      <trkpt lat="43.56673" lon="3.8002">
        <ele>23.5</ele>
        <time>2013-05-05T07:14:37Z</time>
      </trkpt>
      <trkpt lat="43.5667" lon="3.8003">
        <ele>23.8</ele>
        <time>2013-05-05T07:14:39Z</time>
      </trkpt>
      <trkpt lat="43.56667" lon="3.80039">
        <ele>24.1</ele>
        <time>2013-05-05T07:14:41Z</time>
      </trkpt>
      <trkpt lat="43.56664" lon="3.80049">
        <ele>23.5</ele>
        <time>2013-05-05T07:14:43Z</time>
      </trkpt>
      <trkpt lat="43.56661" lon="3.80059">
        <ele>23.4</ele>
        <time>2013-05-05T07:14:45Z</time>
      </trkpt>
      <trkpt lat="43.56657" lon="3.80068">
        <ele>23.6</ele>
        <time>2013-05-05T07:14:47Z</time>
      </trkpt>
      <trkpt lat="43.56654" lon="3.80079">
        <ele>23.5</ele>
        <time>2013-05-05T07:14:49Z</time>
      </trkpt>
      <trkpt lat="43.56652" lon="3.80084">
        <ele>23.5</ele>
        <time>2013-05-05T07:14:50Z</time>
      </trkpt>
      <trkpt lat="43.56647" lon="3.80098">
        <ele>23.9</ele>
        <time>2013-05-05T07:14:53Z</time>
      </trkpt>
      <trkpt lat="43.56643" lon="3.80107">
        <ele>24</ele>
        <time>2013-05-05T07:14:55Z</time>
      </trkpt>
      <trkpt lat="43.56639" lon="3.80117">
        <ele>24.1</ele>
        <time>2013-05-05T07:14:57Z</time>
      </trkpt>
      <trkpt lat="43.56635" lon="3.80126">
        <ele>23.9</ele>
        <time>2013-05-05T07:14:59Z</time>
      </trkpt>
      <trkpt lat="43.56631" lon="3.80135">
        <ele>23.5</ele>
        <time>2013-05-05T07:15:01Z</time>
      </trkpt>
      <trkpt lat="43.56627" lon="3.80144">
        <ele>23.1</ele>
        <time>2013-05-05T07:15:03Z</time>
      </trkpt>
      <trkpt lat="43.56624" lon="3.80153">
        <ele>23.1</ele>
        <time>2013-05-05T07:15:05Z</time>
      </trkpt>
      <trkpt lat="43.5662" lon="3.80163">
        <ele>23.2</ele>
        <time>2013-05-05T07:15:07Z</time>
      </trkpt>
      <trkpt lat="43.56617" lon="3.80172">
        <ele>23.4</ele>
        <time>2013-05-05T07:15:09Z</time>
      </trkpt>
      <trkpt lat="43.56613" lon="3.80181">
        <ele>23.7</ele>
        <time>2013-05-05T07:15:11Z</time>
      </trkpt>
      <trkpt lat="43.5661" lon="3.80189">
        <ele>23.8</ele>
        <time>2013-05-05T07:15:13Z</time>
      </trkpt>
      <trkpt lat="43.56607" lon="3.80198">
        <ele>24.3</ele>
        <time>2013-05-05T07:15:15Z</time>
      </trkpt>
      <trkpt lat="43.56604" lon="3.80206">
        <ele>24.9</ele>
        <time>2013-05-05T07:15:17Z</time>
      </trkpt>
      <trkpt lat="43.56601" lon="3.80215">
        <ele>25.3</ele>
        <time>2013-05-05T07:15:19Z</time>
      </trkpt>
      <trkpt lat="43.56597" lon="3.80224">
        <ele>25.2</ele>
        <time>2013-05-05T07:15:21Z</time>
      </trkpt>
      <trkpt lat="43.56596" lon="3.80235">
        <ele>24.8</ele>
        <time>2013-05-05T07:15:23Z</time>
      </trkpt>
      <trkpt lat="43.56594" lon="3.80245">
        <ele>24.4</ele>
        <time>2013-05-05T07:15:25Z</time>
      </trkpt>
      <trkpt lat="43.56592" lon="3.80257">
        <ele>24.7</ele>
        <time>2013-05-05T07:15:27Z</time>
      </trkpt>
      <trkpt lat="43.56591" lon="3.80263">
        <ele>24.8</ele>
        <time>2013-05-05T07:15:28Z</time>
      </trkpt>
      <trkpt lat="43.56589" lon="3.80269">
        <ele>24.8</ele>
        <time>2013-05-05T07:15:29Z</time>
      </trkpt>
      <trkpt lat="43.56587" lon="3.80275">
        <ele>24.9</ele>
        <time>2013-05-05T07:15:30Z</time>
      </trkpt>
      <trkpt lat="43.56585" lon="3.80281">
        <ele>25</ele>
        <time>2013-05-05T07:15:31Z</time>
      </trkpt>
      <trkpt lat="43.56584" lon="3.80288">
        <ele>25</ele>
        <time>2013-05-05T07:15:32Z</time>
      </trkpt>
      <trkpt lat="43.56581" lon="3.80299">
        <ele>24.3</ele>
        <time>2013-05-05T07:15:34Z</time>
      </trkpt>
      <trkpt lat="43.56578" lon="3.8031">
        <ele>24.1</ele>
        <time>2013-05-05T07:15:37Z</time>
      </trkpt>
      <trkpt lat="43.56576" lon="3.80321">
        <ele>23.6</ele>
        <time>2013-05-05T07:17:07Z</time>
      </trkpt>
      <trkpt lat="43.56576" lon="3.80324">
        <ele>23.6</ele>
        <time>2013-05-05T07:17:08Z</time>
      </trkpt>
      <trkpt lat="43.56574" lon="3.80342">
        <ele>23.3</ele>
        <time>2013-05-05T07:17:14Z</time>
      </trkpt>
      <trkpt lat="43.56573" lon="3.8035">
        <ele>23.3</ele>
        <time>2013-05-05T07:17:16Z</time>
      </trkpt>
      <trkpt lat="43.56572" lon="3.80359">
        <ele>24</ele>
        <time>2013-05-05T07:17:18Z</time>
      </trkpt>
      <trkpt lat="43.56572" lon="3.80368">
        <ele>24.4</ele>
        <time>2013-05-05T07:17:20Z</time>
      </trkpt>
      <trkpt lat="43.5657" lon="3.80378">
        <ele>24.4</ele>
        <time>2013-05-05T07:17:22Z</time>
      </trkpt>
      <trkpt lat="43.56569" lon="3.80388">
        <ele>24.5</ele>
        <time>2013-05-05T07:17:24Z</time>
      </trkpt>
      <trkpt lat="43.56568" lon="3.80399">
        <ele>24.6</ele>
        <time>2013-05-05T07:17:26Z</time>
      </trkpt>
      <trkpt lat="43.56567" lon="3.80411">
        <ele>24</ele>
        <time>2013-05-05T07:17:28Z</time>
      </trkpt>
      <trkpt lat="43.56566" lon="3.80422">
        <ele>23.9</ele>
        <time>2013-05-05T07:17:30Z</time>
      </trkpt>
      <trkpt lat="43.56564" lon="3.80432">
        <ele>24.1</ele>
        <time>2013-05-05T07:17:32Z</time>
      </trkpt>
      <trkpt lat="43.56562" lon="3.80443">
        <ele>24.2</ele>
        <time>2013-05-05T07:17:34Z</time>
      </trkpt>
      <trkpt lat="43.56561" lon="3.80453">
        <ele>24.3</ele>
        <time>2013-05-05T07:17:36Z</time>
      </trkpt>
      <trkpt lat="43.56561" lon="3.80462">
        <ele>24.8</ele>
        <time>2013-05-05T07:17:38Z</time>
      </trkpt>
      <trkpt lat="43.56562" lon="3.80471">
        <ele>24.6</ele>
        <time>2013-05-05T07:17:40Z</time>
      </trkpt>
      <trkpt lat="43.56564" lon="3.80481">
        <ele>24.1</ele>
        <time>2013-05-05T07:17:43Z</time>
      </trkpt>
      <trkpt lat="43.56568" lon="3.80491">
        <ele>24.3</ele>
        <time>2013-05-05T07:17:46Z</time>
      </trkpt>
      <trkpt lat="43.56572" lon="3.80502">
        <ele>24.2</ele>
        <time>2013-05-05T07:17:50Z</time>
      </trkpt>
      <trkpt lat="43.56573" lon="3.80512">
        <ele>24.3</ele>
        <time>2013-05-05T07:17:52Z</time>
      </trkpt>
      <trkpt lat="43.56577" lon="3.80521">
        <ele>24.6</ele>
        <time>2013-05-05T07:17:54Z</time>
      </trkpt>
      <trkpt lat="43.56582" lon="3.80529">
        <ele>24.4</ele>
        <time>2013-05-05T07:17:56Z</time>
      </trkpt>
      <trkpt lat="43.56587" lon="3.80537">
        <ele>24.3</ele>
        <time>2013-05-05T07:17:58Z</time>
      </trkpt>
      <trkpt lat="43.56592" lon="3.80545">
        <ele>24.3</ele>
        <time>2013-05-05T07:18:00Z</time>
      </trkpt>
      <trkpt lat="43.56598" lon="3.80553">
        <ele>24.6</ele>
        <time>2013-05-05T07:18:02Z</time>
      </trkpt>
      <trkpt lat="43.56603" lon="3.80561">
        <ele>25.1</ele>
        <time>2013-05-05T07:18:04Z</time>
      </trkpt>
      <trkpt lat="43.56609" lon="3.80569">
        <ele>25</ele>
        <time>2013-05-05T07:18:06Z</time>
      </trkpt>
      <trkpt lat="43.56614" lon="3.80577">
        <ele>24.8</ele>
        <time>2013-05-05T07:18:08Z</time>
      </trkpt>
      <trkpt lat="43.56616" lon="3.80581">
        <ele>24.7</ele>
        <time>2013-05-05T07:18:09Z</time>
      </trkpt>
      <trkpt lat="43.56623" lon="3.80591">
        <ele>24.8</ele>
        <time>2013-05-05T07:18:12Z</time>
      </trkpt>
      <trkpt lat="43.56628" lon="3.80598">
        <ele>24.9</ele>
        <time>2013-05-05T07:18:14Z</time>
      </trkpt>
      <trkpt lat="43.56633" lon="3.80606">
        <ele>25.2</ele>
        <time>2013-05-05T07:18:16Z</time>
      </trkpt>
      <trkpt lat="43.56639" lon="3.80614">
        <ele>25.1</ele>
        <time>2013-05-05T07:18:18Z</time>
      </trkpt>
      <trkpt lat="43.56644" lon="3.80622">
        <ele>24.8</ele>
        <time>2013-05-05T07:18:20Z</time>
      </trkpt>
      <trkpt lat="43.5665" lon="3.80631">
        <ele>25</ele>
        <time>2013-05-05T07:18:22Z</time>
      </trkpt>
      <trkpt lat="43.56656" lon="3.8064">
        <ele>24.9</ele>
        <time>2013-05-05T07:18:24Z</time>
      </trkpt>
      <trkpt lat="43.56662" lon="3.80648">
        <ele>24.7</ele>
        <time>2013-05-05T07:18:26Z</time>
      </trkpt>
      <trkpt lat="43.56668" lon="3.80657">
        <ele>25</ele>
        <time>2013-05-05T07:18:28Z</time>
      </trkpt>
      <trkpt lat="43.56671" lon="3.80662">
        <ele>25.1</ele>
        <time>2013-05-05T07:18:29Z</time>
      </trkpt>
      <trkpt lat="43.56674" lon="3.80667">
        <ele>24.7</ele>
        <time>2013-05-05T07:18:30Z</time>
      </trkpt>
      <trkpt lat="43.56677" lon="3.80671">
        <ele>24.4</ele>
        <time>2013-05-05T07:18:31Z</time>
      </trkpt>
      <trkpt lat="43.5668" lon="3.80676">
        <ele>24.2</ele>
        <time>2013-05-05T07:18:32Z</time>
      </trkpt>
      <trkpt lat="43.56684" lon="3.80681">
        <ele>24</ele>
        <time>2013-05-05T07:18:33Z</time>
      </trkpt>
      <trkpt lat="43.56687" lon="3.80686">
        <ele>23.7</ele>
        <time>2013-05-05T07:18:34Z</time>
      </trkpt>
      <trkpt lat="43.5669" lon="3.8069">
        <ele>23.5</ele>
        <time>2013-05-05T07:18:35Z</time>
      </trkpt>
      <trkpt lat="43.56693" lon="3.80695">
        <ele>23.3</ele>
        <time>2013-05-05T07:18:36Z</time>
      </trkpt>
      <trkpt lat="43.56696" lon="3.807">
        <ele>23.7</ele>
        <time>2013-05-05T07:18:37Z</time>
      </trkpt>
      <trkpt lat="43.567" lon="3.80705">
        <ele>24</ele>
        <time>2013-05-05T07:18:38Z</time>
      </trkpt>
      <trkpt lat="43.56703" lon="3.8071">
        <ele>24.2</ele>
        <time>2013-05-05T07:18:39Z</time>
      </trkpt>
      <trkpt lat="43.56706" lon="3.80715">
        <ele>24.1</ele>
        <time>2013-05-05T07:18:40Z</time>
      </trkpt>
      <trkpt lat="43.56709" lon="3.8072">
        <ele>24</ele>
        <time>2013-05-05T07:18:41Z</time>
      </trkpt>
      <trkpt lat="43.56712" lon="3.80726">
        <ele>23.9</ele>
        <time>2013-05-05T07:18:42Z</time>
      </trkpt>
      <trkpt lat="43.56715" lon="3.80731">
        <ele>23.9</ele>
        <time>2013-05-05T07:18:43Z</time>
      </trkpt>
      <trkpt lat="43.56718" lon="3.80737">
        <ele>24</ele>
        <time>2013-05-05T07:18:44Z</time>
      </trkpt>
      <trkpt lat="43.56721" lon="3.80742">
        <ele>24</ele>
        <time>2013-05-05T07:18:45Z</time>
      </trkpt>
      <trkpt lat="43.56724" lon="3.80747">
        <ele>23.7</ele>
        <time>2013-05-05T07:18:46Z</time>
      </trkpt>
      <trkpt lat="43.56726" lon="3.80752">
        <ele>23.6</ele>
        <time>2013-05-05T07:18:47Z</time>
      </trkpt>
      <trkpt lat="43.56729" lon="3.80757">
        <ele>23.4</ele>
        <time>2013-05-05T07:18:48Z</time>
      </trkpt>
      <trkpt lat="43.56735" lon="3.80767">
        <ele>23.6</ele>
        <time>2013-05-05T07:18:50Z</time>
      </trkpt>
      <trkpt lat="43.56738" lon="3.80776">
        <ele>23.9</ele>
        <time>2013-05-05T07:18:52Z</time>
      </trkpt>
      <trkpt lat="43.56744" lon="3.80785">
        <ele>23.5</ele>
        <time>2013-05-05T07:19:02Z</time>
      </trkpt>
      <trkpt lat="43.56748" lon="3.80794">
        <ele>23.5</ele>
        <time>2013-05-05T07:19:07Z</time>
      </trkpt>
      <trkpt lat="43.56753" lon="3.80802">
        <ele>23.3</ele>
        <time>2013-05-05T07:19:10Z</time>
      </trkpt>
      <trkpt lat="43.56755" lon="3.80804">
        <ele>23.3</ele>
        <time>2013-05-05T07:19:11Z</time>
      </trkpt>
      <trkpt lat="43.56765" lon="3.80818">
        <ele>22.8</ele>
        <time>2013-05-05T07:19:16Z</time>
      </trkpt>
      <trkpt lat="43.5677" lon="3.80826">
        <ele>23</ele>
        <time>2013-05-05T07:19:19Z</time>
      </trkpt>
      <trkpt lat="43.56775" lon="3.80835">
        <ele>23.1</ele>
        <time>2013-05-05T07:19:22Z</time>
      </trkpt>
      <trkpt lat="43.56775" lon="3.80847">
        <ele>23.2</ele>
        <time>2013-05-05T07:19:26Z</time>
      </trkpt>
      <trkpt lat="43.5677" lon="3.80854">
        <ele>23.9</ele>
        <time>2013-05-05T07:19:29Z</time>
      </trkpt>
      <trkpt lat="43.56762" lon="3.80859">
        <ele>23.7</ele>
        <time>2013-05-05T07:19:33Z</time>
      </trkpt>
      <trkpt lat="43.56754" lon="3.80864">
        <ele>25.1</ele>
        <time>2013-05-05T07:19:38Z</time>
      </trkpt>
      <trkpt lat="43.56755" lon="3.80876">
        <ele>24.5</ele>
        <time>2013-05-05T07:20:39Z</time>
      </trkpt>
      <trkpt lat="43.56755" lon="3.80877">
        <ele>24.6</ele>
        <time>2013-05-05T07:20:40Z</time>
      </trkpt>
      <trkpt lat="43.56756" lon="3.809">
        <ele>28.9</ele>
        <time>2013-05-05T07:20:59Z</time>
      </trkpt>
      <trkpt lat="43.56753" lon="3.8091">
        <ele>31</ele>
        <time>2013-05-05T07:21:08Z</time>
      </trkpt>
      <trkpt lat="43.56747" lon="3.8092">
        <ele>33.5</ele>
        <time>2013-05-05T07:21:23Z</time>
      </trkpt>
      <trkpt lat="43.56743" lon="3.80929">
        <ele>34.1</ele>
        <time>2013-05-05T07:21:29Z</time>
      </trkpt>
      <trkpt lat="43.56739" lon="3.80939">
        <ele>35.5</ele>
        <time>2013-05-05T07:21:34Z</time>
      </trkpt>
      <trkpt lat="43.56736" lon="3.80949">
        <ele>36.1</ele>
        <time>2013-05-05T07:21:38Z</time>
      </trkpt>
      <trkpt lat="43.56734" lon="3.8096">
        <ele>37.1</ele>
        <time>2013-05-05T07:21:42Z</time>
      </trkpt>
      <trkpt lat="43.56732" lon="3.80962">
        <ele>37.2</ele>
        <time>2013-05-05T07:21:43Z</time>
      </trkpt>
      <trkpt lat="43.56721" lon="3.80972">
        <ele>38.2</ele>
        <time>2013-05-05T07:21:48Z</time>
      </trkpt>
      <trkpt lat="43.56715" lon="3.80975">
        <ele>38.5</ele>
        <time>2013-05-05T07:21:50Z</time>
      </trkpt>
      <trkpt lat="43.56707" lon="3.8098">
        <ele>38.6</ele>
        <time>2013-05-05T07:21:53Z</time>
      </trkpt>
      <trkpt lat="43.56699" lon="3.80985">
        <ele>38</ele>
        <time>2013-05-05T07:21:57Z</time>
      </trkpt>
      <trkpt lat="43.56699" lon="3.80995">
        <ele>38.6</ele>
        <time>2013-05-05T07:22:01Z</time>
      </trkpt>
      <trkpt lat="43.56697" lon="3.81005">
        <ele>38.9</ele>
        <time>2013-05-05T07:22:05Z</time>
      </trkpt>
      <trkpt lat="43.56695" lon="3.81016">
        <ele>39.6</ele>
        <time>2013-05-05T07:22:09Z</time>
      </trkpt>
      <trkpt lat="43.56692" lon="3.81026">
        <ele>40.1</ele>
        <time>2013-05-05T07:22:13Z</time>
      </trkpt>
      <trkpt lat="43.5669" lon="3.81036">
        <ele>40.9</ele>
        <time>2013-05-05T07:22:17Z</time>
      </trkpt>
      <trkpt lat="43.56689" lon="3.81047">
        <ele>41.8</ele>
        <time>2013-05-05T07:22:21Z</time>
      </trkpt>
      <trkpt lat="43.56687" lon="3.81059">
        <ele>42.5</ele>
        <time>2013-05-05T07:22:25Z</time>
      </trkpt>
      <trkpt lat="43.56686" lon="3.81069">
        <ele>43</ele>
        <time>2013-05-05T07:22:28Z</time>
      </trkpt>
      <trkpt lat="43.56682" lon="3.81079">
        <ele>44.2</ele>
        <time>2013-05-05T07:22:32Z</time>
      </trkpt>
      <trkpt lat="43.56677" lon="3.81089">
        <ele>45.6</ele>
        <time>2013-05-05T07:22:36Z</time>
      </trkpt>
      <trkpt lat="43.5667" lon="3.81097">
        <ele>46.8</ele>
        <time>2013-05-05T07:22:40Z</time>
      </trkpt>
      <trkpt lat="43.56664" lon="3.81102">
        <ele>47.5</ele>
        <time>2013-05-05T07:22:43Z</time>
      </trkpt>
      <trkpt lat="43.56663" lon="3.81104">
        <ele>47.7</ele>
        <time>2013-05-05T07:22:44Z</time>
      </trkpt>
      <trkpt lat="43.56653" lon="3.81117">
        <ele>49.9</ele>
        <time>2013-05-05T07:22:50Z</time>
      </trkpt>
      <trkpt lat="43.56647" lon="3.81123">
        <ele>49.9</ele>
        <time>2013-05-05T07:22:53Z</time>
      </trkpt>
      <trkpt lat="43.56642" lon="3.8113">
        <ele>50.1</ele>
        <time>2013-05-05T07:22:56Z</time>
      </trkpt>
      <trkpt lat="43.56638" lon="3.81137">
        <ele>50.3</ele>
        <time>2013-05-05T07:22:59Z</time>
      </trkpt>
      <trkpt lat="43.56633" lon="3.81145">
        <ele>50.8</ele>
        <time>2013-05-05T07:23:02Z</time>
      </trkpt>
      <trkpt lat="43.56628" lon="3.81154">
        <ele>52</ele>
        <time>2013-05-05T07:23:06Z</time>
      </trkpt>
      <trkpt lat="43.56623" lon="3.81162">
        <ele>53.2</ele>
        <time>2013-05-05T07:23:09Z</time>
      </trkpt>
      <trkpt lat="43.56618" lon="3.81169">
        <ele>53.9</ele>
        <time>2013-05-05T07:23:12Z</time>
      </trkpt>
      <trkpt lat="43.56613" lon="3.81176">
        <ele>54.1</ele>
        <time>2013-05-05T07:23:15Z</time>
      </trkpt>
      <trkpt lat="43.56608" lon="3.81185">
        <ele>53.8</ele>
        <time>2013-05-05T07:23:18Z</time>
      </trkpt>
      <trkpt lat="43.56604" lon="3.81194">
        <ele>53.7</ele>
        <time>2013-05-05T07:23:21Z</time>
      </trkpt>
      <trkpt lat="43.56601" lon="3.81202">
        <ele>53.9</ele>
        <time>2013-05-05T07:23:24Z</time>
      </trkpt>
      <trkpt lat="43.56598" lon="3.81212">
        <ele>53.9</ele>
        <time>2013-05-05T07:23:27Z</time>
      </trkpt>
      <trkpt lat="43.56594" lon="3.81222">
        <ele>53.5</ele>
        <time>2013-05-05T07:23:31Z</time>
      </trkpt>
      <trkpt lat="43.56589" lon="3.8123">
        <ele>53.7</ele>
        <time>2013-05-05T07:23:35Z</time>
      </trkpt>
      <trkpt lat="43.5658" lon="3.81231">
        <ele>53.7</ele>
        <time>2013-05-05T07:23:38Z</time>
      </trkpt>
      <trkpt lat="43.56573" lon="3.81231">
        <ele>52.7</ele>
        <time>2013-05-05T07:23:40Z</time>
      </trkpt>
      <trkpt lat="43.56565" lon="3.81229">
        <ele>50.9</ele>
        <time>2013-05-05T07:23:43Z</time>
      </trkpt>
      <trkpt lat="43.56558" lon="3.81228">
        <ele>50.3</ele>
        <time>2013-05-05T07:23:45Z</time>
      </trkpt>
      <trkpt lat="43.56555" lon="3.81229">
        <ele>49.7</ele>
        <time>2013-05-05T07:23:46Z</time>
      </trkpt>
      <trkpt lat="43.56543" lon="3.81231">
        <ele>47.4</ele>
        <time>2013-05-05T07:23:52Z</time>
      </trkpt>
      <trkpt lat="43.56534" lon="3.81233">
        <ele>46.9</ele>
        <time>2013-05-05T07:23:57Z</time>
      </trkpt>
      <trkpt lat="43.56525" lon="3.81234">
        <ele>46.5</ele>
        <time>2013-05-05T07:24:01Z</time>
      </trkpt>
      <trkpt lat="43.56519" lon="3.8124">
        <ele>47</ele>
        <time>2013-05-05T07:24:05Z</time>
      </trkpt>
      <trkpt lat="43.56513" lon="3.81247">
        <ele>48.9</ele>
        <time>2013-05-05T07:24:09Z</time>
      </trkpt>
      <trkpt lat="43.56507" lon="3.81252">
        <ele>50.1</ele>
        <time>2013-05-05T07:24:13Z</time>
      </trkpt>
      <trkpt lat="43.56499" lon="3.81258">
        <ele>51.8</ele>
        <time>2013-05-05T07:24:18Z</time>
      </trkpt>
      <trkpt lat="43.56491" lon="3.81255">
        <ele>52.8</ele>
        <time>2013-05-05T07:24:23Z</time>
      </trkpt>
      <trkpt lat="43.56486" lon="3.81248">
        <ele>53.9</ele>
        <time>2013-05-05T07:24:26Z</time>
      </trkpt>
      <trkpt lat="43.5648" lon="3.81243">
        <ele>54.6</ele>
        <time>2013-05-05T07:24:29Z</time>
      </trkpt>
      <trkpt lat="43.56475" lon="3.81234">
        <ele>54.9</ele>
        <time>2013-05-05T07:24:32Z</time>
      </trkpt>
      <trkpt lat="43.5647" lon="3.81225">
        <ele>55.3</ele>
        <time>2013-05-05T07:24:35Z</time>
      </trkpt>
      <trkpt lat="43.56464" lon="3.81216">
        <ele>55.6</ele>
        <time>2013-05-05T07:24:38Z</time>
      </trkpt>
      <trkpt lat="43.56459" lon="3.81208">
        <ele>56.5</ele>
        <time>2013-05-05T07:24:41Z</time>
      </trkpt>
      <trkpt lat="43.56455" lon="3.81199">
        <ele>56.2</ele>
        <time>2013-05-05T07:26:25Z</time>
      </trkpt>
      <trkpt lat="43.56454" lon="3.81197">
        <ele>56.2</ele>
        <time>2013-05-05T07:26:26Z</time>
      </trkpt>
      <trkpt lat="43.56442" lon="3.81188">
        <ele>56.7</ele>
        <time>2013-05-05T07:26:32Z</time>
      </trkpt>
      <trkpt lat="43.56434" lon="3.81187">
        <ele>57</ele>
        <time>2013-05-05T07:26:35Z</time>
      </trkpt>
      <trkpt lat="43.56427" lon="3.81184">
        <ele>57.3</ele>
        <time>2013-05-05T07:26:38Z</time>
      </trkpt>
      <trkpt lat="43.56422" lon="3.81174">
        <ele>57.7</ele>
        <time>2013-05-05T07:26:41Z</time>
      </trkpt>
      <trkpt lat="43.5642" lon="3.81166">
        <ele>58.1</ele>
        <time>2013-05-05T07:26:43Z</time>
      </trkpt>
      <trkpt lat="43.56418" lon="3.81158">
        <ele>58.1</ele>
        <time>2013-05-05T07:26:45Z</time>
      </trkpt>
      <trkpt lat="43.56416" lon="3.81146">
        <ele>57.9</ele>
        <time>2013-05-05T07:26:48Z</time>
      </trkpt>
      <trkpt lat="43.56414" lon="3.81136">
        <ele>58.1</ele>
        <time>2013-05-05T07:26:51Z</time>
      </trkpt>
      <trkpt lat="43.56412" lon="3.81127">
        <ele>58.2</ele>
        <time>2013-05-05T07:26:54Z</time>
      </trkpt>
      <trkpt lat="43.56409" lon="3.81118">
        <ele>58.3</ele>
        <time>2013-05-05T07:26:56Z</time>
      </trkpt>
      <trkpt lat="43.56406" lon="3.81109">
        <ele>57.7</ele>
        <time>2013-05-05T07:26:58Z</time>
      </trkpt>
      <trkpt lat="43.56404" lon="3.81101">
        <ele>57.4</ele>
        <time>2013-05-05T07:27:00Z</time>
      </trkpt>
      <trkpt lat="43.56401" lon="3.81092">
        <ele>57.7</ele>
        <time>2013-05-05T07:27:02Z</time>
      </trkpt>
      <trkpt lat="43.56398" lon="3.81081">
        <ele>57.6</ele>
        <time>2013-05-05T07:27:04Z</time>
      </trkpt>
      <trkpt lat="43.56396" lon="3.81071">
        <ele>57.4</ele>
        <time>2013-05-05T07:27:06Z</time>
      </trkpt>
      <trkpt lat="43.56391" lon="3.81064">
        <ele>56.5</ele>
        <time>2013-05-05T07:27:08Z</time>
      </trkpt>
      <trkpt lat="43.56387" lon="3.81055">
        <ele>56.1</ele>
        <time>2013-05-05T07:27:10Z</time>
      </trkpt>
      <trkpt lat="43.56383" lon="3.81046">
        <ele>55.9</ele>
        <time>2013-05-05T07:27:12Z</time>
      </trkpt>
      <trkpt lat="43.56376" lon="3.8104">
        <ele>55.8</ele>
        <time>2013-05-05T07:27:14Z</time>
      </trkpt>
      <trkpt lat="43.56372" lon="3.81037">
        <ele>55.8</ele>
        <time>2013-05-05T07:27:15Z</time>
      </trkpt>
      <trkpt lat="43.56369" lon="3.81032">
        <ele>55.7</ele>
        <time>2013-05-05T07:27:16Z</time>
      </trkpt>
      <trkpt lat="43.56365" lon="3.81028">
        <ele>55.5</ele>
        <time>2013-05-05T07:27:17Z</time>
      </trkpt>
      <trkpt lat="43.5636" lon="3.81026">
        <ele>55.3</ele>
        <time>2013-05-05T07:27:18Z</time>
      </trkpt>
      <trkpt lat="43.56355" lon="3.81024">
        <ele>55.2</ele>
        <time>2013-05-05T07:27:19Z</time>
      </trkpt>
      <trkpt lat="43.5635" lon="3.81022">
        <ele>55</ele>
        <time>2013-05-05T07:27:20Z</time>
      </trkpt>
      <trkpt lat="43.56346" lon="3.8102">
        <ele>54.9</ele>
        <time>2013-05-05T07:27:21Z</time>
      </trkpt>
      <trkpt lat="43.56337" lon="3.81018">
        <ele>54.7</ele>
        <time>2013-05-05T07:27:23Z</time>
      </trkpt>
      <trkpt lat="43.56328" lon="3.81015">
        <ele>54.6</ele>
        <time>2013-05-05T07:27:25Z</time>
      </trkpt>
      <trkpt lat="43.5632" lon="3.81014">
        <ele>54.5</ele>
        <time>2013-05-05T07:27:27Z</time>
      </trkpt>
      <trkpt lat="43.56316" lon="3.81014">
        <ele>54.4</ele>
        <time>2013-05-05T07:27:28Z</time>
      </trkpt>
      <trkpt lat="43.56303" lon="3.81014">
        <ele>54.7</ele>
        <time>2013-05-05T07:27:31Z</time>
      </trkpt>
      <trkpt lat="43.56296" lon="3.81013">
        <ele>54.6</ele>
        <time>2013-05-05T07:27:33Z</time>
      </trkpt>
      <trkpt lat="43.56288" lon="3.81011">
        <ele>54.6</ele>
        <time>2013-05-05T07:27:35Z</time>
      </trkpt>
      <trkpt lat="43.56279" lon="3.81011">
        <ele>54</ele>
        <time>2013-05-05T07:27:37Z</time>
      </trkpt>
      <trkpt lat="43.5627" lon="3.81009">
        <ele>53.9</ele>
        <time>2013-05-05T07:27:39Z</time>
      </trkpt>
      <trkpt lat="43.56261" lon="3.81008">
        <ele>54.1</ele>
        <time>2013-05-05T07:27:41Z</time>
      </trkpt>
      <trkpt lat="43.56257" lon="3.81008">
        <ele>54</ele>
        <time>2013-05-05T07:27:42Z</time>
      </trkpt>
      <trkpt lat="43.56252" lon="3.81008">
        <ele>53.9</ele>
        <time>2013-05-05T07:27:43Z</time>
      </trkpt>
      <trkpt lat="43.56248" lon="3.81008">
        <ele>53.8</ele>
        <time>2013-05-05T07:27:44Z</time>
      </trkpt>
      <trkpt lat="43.56243" lon="3.81007">
        <ele>53.4</ele>
        <time>2013-05-05T07:27:45Z</time>
      </trkpt>
      <trkpt lat="43.56239" lon="3.81006">
        <ele>53.1</ele>
        <time>2013-05-05T07:27:46Z</time>
      </trkpt>
      <trkpt lat="43.56234" lon="3.81006">
        <ele>52.9</ele>
        <time>2013-05-05T07:27:47Z</time>
      </trkpt>
      <trkpt lat="43.56229" lon="3.81006">
        <ele>52.7</ele>
        <time>2013-05-05T07:27:48Z</time>
      </trkpt>
      <trkpt lat="43.56224" lon="3.81006">
        <ele>52.5</ele>
        <time>2013-05-05T07:27:49Z</time>
      </trkpt>
      <trkpt lat="43.56219" lon="3.81006">
        <ele>52.4</ele>
        <time>2013-05-05T07:27:50Z</time>
      </trkpt>
      <trkpt lat="43.56212" lon="3.81008">
        <ele>51.8</ele>
        <time>2013-05-05T07:27:52Z</time>
      </trkpt>
      <trkpt lat="43.56205" lon="3.81013">
        <ele>51.2</ele>
        <time>2013-05-05T07:27:54Z</time>
      </trkpt>
      <trkpt lat="43.56198" lon="3.81007">
        <ele>50.9</ele>
        <time>2013-05-05T07:28:03Z</time>
      </trkpt>
      <trkpt lat="43.56198" lon="3.80998">
        <ele>50.7</ele>
        <time>2013-05-05T07:28:05Z</time>
      </trkpt>
      <trkpt lat="43.56196" lon="3.80987">
        <ele>50.6</ele>
        <time>2013-05-05T07:28:07Z</time>
      </trkpt>
      <trkpt lat="43.56192" lon="3.80976">
        <ele>50</ele>
        <time>2013-05-05T07:28:09Z</time>
      </trkpt>
      <trkpt lat="43.56189" lon="3.8097">
        <ele>49.8</ele>
        <time>2013-05-05T07:28:10Z</time>
      </trkpt>
      <trkpt lat="43.56187" lon="3.80964">
        <ele>49.3</ele>
        <time>2013-05-05T07:28:11Z</time>
      </trkpt>
      <trkpt lat="43.56184" lon="3.80958">
        <ele>48.9</ele>
        <time>2013-05-05T07:28:12Z</time>
      </trkpt>
      <trkpt lat="43.56181" lon="3.8095">
        <ele>48.6</ele>
        <time>2013-05-05T07:28:13Z</time>
      </trkpt>
      <trkpt lat="43.56177" lon="3.80943">
        <ele>48.6</ele>
        <time>2013-05-05T07:28:14Z</time>
      </trkpt>
      <trkpt lat="43.56175" lon="3.80935">
        <ele>48.7</ele>
        <time>2013-05-05T07:28:15Z</time>
      </trkpt>
      <trkpt lat="43.56172" lon="3.80926">
        <ele>48.7</ele>
        <time>2013-05-05T07:28:16Z</time>
      </trkpt>
      <trkpt lat="43.56169" lon="3.80917">
        <ele>47.5</ele>
        <time>2013-05-05T07:28:17Z</time>
      </trkpt>
      <trkpt lat="43.56166" lon="3.80909">
        <ele>46.5</ele>
        <time>2013-05-05T07:28:18Z</time>
      </trkpt>
      <trkpt lat="43.56162" lon="3.80902">
        <ele>45.8</ele>
        <time>2013-05-05T07:28:19Z</time>
      </trkpt>
      <trkpt lat="43.56156" lon="3.80896">
        <ele>45.1</ele>
        <time>2013-05-05T07:28:20Z</time>
      </trkpt>
      <trkpt lat="43.56151" lon="3.8089">
        <ele>44.6</ele>
        <time>2013-05-05T07:28:21Z</time>
      </trkpt>
      <trkpt lat="43.56146" lon="3.80883">
        <ele>44.1</ele>
        <time>2013-05-05T07:28:22Z</time>
      </trkpt>
      <trkpt lat="43.56142" lon="3.80875">
        <ele>43.8</ele>
        <time>2013-05-05T07:28:23Z</time>
      </trkpt>
      <trkpt lat="43.56138" lon="3.80867">
        <ele>43.1</ele>
        <time>2013-05-05T07:28:24Z</time>
      </trkpt>
      <trkpt lat="43.56135" lon="3.80859">
        <ele>42.6</ele>
        <time>2013-05-05T07:28:25Z</time>
      </trkpt>
      <trkpt lat="43.56131" lon="3.80851">
        <ele>42.2</ele>
        <time>2013-05-05T07:28:26Z</time>
      </trkpt>
      <trkpt lat="43.56127" lon="3.80844">
        <ele>41.5</ele>
        <time>2013-05-05T07:28:27Z</time>
      </trkpt>
      <trkpt lat="43.56122" lon="3.80838">
        <ele>41</ele>
        <time>2013-05-05T07:28:28Z</time>
      </trkpt>
      <trkpt lat="43.56117" lon="3.80832">
        <ele>40.7</ele>
        <time>2013-05-05T07:28:29Z</time>
      </trkpt>
      <trkpt lat="43.56111" lon="3.80827">
        <ele>39.9</ele>
        <time>2013-05-05T07:28:30Z</time>
      </trkpt>
      <trkpt lat="43.56106" lon="3.80823">
        <ele>39.3</ele>
        <time>2013-05-05T07:28:31Z</time>
      </trkpt>
      <trkpt lat="43.561" lon="3.80819">
        <ele>38.9</ele>
        <time>2013-05-05T07:28:32Z</time>
      </trkpt>
      <trkpt lat="43.56095" lon="3.80815">
        <ele>38.6</ele>
        <time>2013-05-05T07:28:33Z</time>
      </trkpt>
      <trkpt lat="43.5609" lon="3.80812">
        <ele>38.4</ele>
        <time>2013-05-05T07:28:34Z</time>
      </trkpt>
      <trkpt lat="43.56085" lon="3.80808">
        <ele>38.2</ele>
        <time>2013-05-05T07:28:35Z</time>
      </trkpt>
      <trkpt lat="43.56081" lon="3.80805">
        <ele>38</ele>
        <time>2013-05-05T07:28:36Z</time>
      </trkpt>
      <trkpt lat="43.56077" lon="3.80802">
        <ele>37.9</ele>
        <time>2013-05-05T07:28:37Z</time>
      </trkpt>
      <trkpt lat="43.56069" lon="3.80797">
        <ele>37.7</ele>
        <time>2013-05-05T07:28:39Z</time>
      </trkpt>
      <trkpt lat="43.56061" lon="3.80792">
        <ele>37.6</ele>
        <time>2013-05-05T07:28:41Z</time>
      </trkpt>
      <trkpt lat="43.56057" lon="3.8079">
        <ele>37.5</ele>
        <time>2013-05-05T07:28:42Z</time>
      </trkpt>
      <trkpt lat="43.56052" lon="3.80789">
        <ele>37.4</ele>
        <time>2013-05-05T07:28:43Z</time>
      </trkpt>
      <trkpt lat="43.56047" lon="3.80788">
        <ele>37.3</ele>
        <time>2013-05-05T07:28:44Z</time>
      </trkpt>
      <trkpt lat="43.56043" lon="3.80787">
        <ele>37.2</ele>
        <time>2013-05-05T07:28:45Z</time>
      </trkpt>
      <trkpt lat="43.56038" lon="3.80787">
        <ele>37.2</ele>
        <time>2013-05-05T07:28:46Z</time>
      </trkpt>
      <trkpt lat="43.56029" lon="3.80788">
        <ele>37.1</ele>
        <time>2013-05-05T07:28:48Z</time>
      </trkpt>
      <trkpt lat="43.56021" lon="3.80788">
        <ele>37.3</ele>
        <time>2013-05-05T07:28:50Z</time>
      </trkpt>
      <trkpt lat="43.56017" lon="3.80787">
        <ele>37.4</ele>
        <time>2013-05-05T07:28:51Z</time>
      </trkpt>
      <trkpt lat="43.56012" lon="3.80785">
        <ele>37.6</ele>
        <time>2013-05-05T07:28:52Z</time>
      </trkpt>
      <trkpt lat="43.56008" lon="3.80782">
        <ele>37.7</ele>
        <time>2013-05-05T07:28:53Z</time>
      </trkpt>
      <trkpt lat="43.56003" lon="3.80778">
        <ele>37.8</ele>
        <time>2013-05-05T07:28:54Z</time>
      </trkpt>
      <trkpt lat="43.55999" lon="3.80775">
        <ele>37.3</ele>
        <time>2013-05-05T07:28:55Z</time>
      </trkpt>
      <trkpt lat="43.55995" lon="3.80772">
        <ele>36.9</ele>
        <time>2013-05-05T07:28:56Z</time>
      </trkpt>
      <trkpt lat="43.5599" lon="3.80768">
        <ele>36.7</ele>
        <time>2013-05-05T07:28:57Z</time>
      </trkpt>
      <trkpt lat="43.55986" lon="3.80766">
        <ele>36.5</ele>
        <time>2013-05-05T07:28:58Z</time>
      </trkpt>
      <trkpt lat="43.55981" lon="3.80764">
        <ele>36</ele>
        <time>2013-05-05T07:28:59Z</time>
      </trkpt>
      <trkpt lat="43.55977" lon="3.80763">
        <ele>35.6</ele>
        <time>2013-05-05T07:29:00Z</time>
      </trkpt>
      <trkpt lat="43.55972" lon="3.80763">
        <ele>35.4</ele>
        <time>2013-05-05T07:29:01Z</time>
      </trkpt>
      <trkpt lat="43.55967" lon="3.80762">
        <ele>34.7</ele>
        <time>2013-05-05T07:29:02Z</time>
      </trkpt>
      <trkpt lat="43.55962" lon="3.80762">
        <ele>34.3</ele>
        <time>2013-05-05T07:29:03Z</time>
      </trkpt>
      <trkpt lat="43.55958" lon="3.80762">
        <ele>33.9</ele>
        <time>2013-05-05T07:29:04Z</time>
      </trkpt>
      <trkpt lat="43.55953" lon="3.80762">
        <ele>33.6</ele>
        <time>2013-05-05T07:29:05Z</time>
      </trkpt>
      <trkpt lat="43.55948" lon="3.8076">
        <ele>33.3</ele>
        <time>2013-05-05T07:29:06Z</time>
      </trkpt>
      <trkpt lat="43.5594" lon="3.80756">
        <ele>32.4</ele>
        <time>2013-05-05T07:29:08Z</time>
      </trkpt>
      <trkpt lat="43.55933" lon="3.80753">
        <ele>31.4</ele>
        <time>2013-05-05T07:29:10Z</time>
      </trkpt>
      <trkpt lat="43.55925" lon="3.80752">
        <ele>29.7</ele>
        <time>2013-05-05T07:29:12Z</time>
      </trkpt>
      <trkpt lat="43.5592" lon="3.80752">
        <ele>29.1</ele>
        <time>2013-05-05T07:29:13Z</time>
      </trkpt>
      <trkpt lat="43.55916" lon="3.80753">
        <ele>28.7</ele>
        <time>2013-05-05T07:29:14Z</time>
      </trkpt>
      <trkpt lat="43.5591" lon="3.80754">
        <ele>28.6</ele>
        <time>2013-05-05T07:29:15Z</time>
      </trkpt>
      <trkpt lat="43.55905" lon="3.80756">
        <ele>28.5</ele>
        <time>2013-05-05T07:29:16Z</time>
      </trkpt>
      <trkpt lat="43.55899" lon="3.80757">
        <ele>28.4</ele>
        <time>2013-05-05T07:29:17Z</time>
      </trkpt>
      <trkpt lat="43.55894" lon="3.80759">
        <ele>27.4</ele>
        <time>2013-05-05T07:29:18Z</time>
      </trkpt>
      <trkpt lat="43.55887" lon="3.80761">
        <ele>26.1</ele>
        <time>2013-05-05T07:29:20Z</time>
      </trkpt>
      <trkpt lat="43.55879" lon="3.80765">
        <ele>25.6</ele>
        <time>2013-05-05T07:29:22Z</time>
      </trkpt>
      <trkpt lat="43.55874" lon="3.80767">
        <ele>25.4</ele>
        <time>2013-05-05T07:29:23Z</time>
      </trkpt>
      <trkpt lat="43.55869" lon="3.80768">
        <ele>24.6</ele>
        <time>2013-05-05T07:29:24Z</time>
      </trkpt>
      <trkpt lat="43.55864" lon="3.80769">
        <ele>24</ele>
        <time>2013-05-05T07:29:25Z</time>
      </trkpt>
      <trkpt lat="43.55859" lon="3.80769">
        <ele>23.5</ele>
        <time>2013-05-05T07:29:26Z</time>
      </trkpt>
      <trkpt lat="43.55851" lon="3.80768">
        <ele>22.6</ele>
        <time>2013-05-05T07:29:28Z</time>
      </trkpt>
      <trkpt lat="43.55843" lon="3.80768">
        <ele>17.5</ele>
        <time>2013-05-05T07:29:40Z</time>
      </trkpt>
      <trkpt lat="43.55842" lon="3.80767">
        <ele>17.6</ele>
        <time>2013-05-05T07:29:41Z</time>
      </trkpt>
      <trkpt lat="43.55828" lon="3.80765">
        <ele>17.3</ele>
        <time>2013-05-05T07:29:47Z</time>
      </trkpt>
      <trkpt lat="43.5582" lon="3.80761">
        <ele>17.8</ele>
        <time>2013-05-05T07:29:51Z</time>
      </trkpt>
      <trkpt lat="43.55813" lon="3.80755">
        <ele>17.3</ele>
        <time>2013-05-05T07:29:55Z</time>
      </trkpt>
      <trkpt lat="43.55819" lon="3.80763">
        <ele>17.4</ele>
        <time>2013-05-05T07:30:14Z</time>
      </trkpt>
      <trkpt lat="43.55828" lon="3.80765">
        <ele>17.9</ele>
        <time>2013-05-05T07:30:18Z</time>
      </trkpt>
      <trkpt lat="43.55835" lon="3.80771">
        <ele>17.2</ele>
        <time>2013-05-05T07:30:22Z</time>
      </trkpt>
      <trkpt lat="43.55832" lon="3.80782">
        <ele>17.7</ele>
        <time>2013-05-05T07:30:26Z</time>
      </trkpt>
      <trkpt lat="43.55828" lon="3.80792">
        <ele>18.3</ele>
        <time>2013-05-05T07:30:30Z</time>
      </trkpt>
      <trkpt lat="43.55822" lon="3.80793">
        <ele>17.5</ele>
        <time>2013-05-05T07:30:34Z</time>
      </trkpt>
      <trkpt lat="43.55814" lon="3.80798">
        <ele>17.5</ele>
        <time>2013-05-05T07:30:37Z</time>
      </trkpt>
      <trkpt lat="43.55809" lon="3.80807">
        <ele>17.3</ele>
        <time>2013-05-05T07:30:40Z</time>
      </trkpt>
      <trkpt lat="43.55806" lon="3.80815">
        <ele>17.1</ele>
        <time>2013-05-05T07:30:42Z</time>
      </trkpt>
      <trkpt lat="43.55803" lon="3.80818">
        <ele>17</ele>
        <time>2013-05-05T07:30:43Z</time>
      </trkpt>
      <trkpt lat="43.55794" lon="3.80826">
        <ele>17.8</ele>
        <time>2013-05-05T07:30:46Z</time>
      </trkpt>
      <trkpt lat="43.55792" lon="3.80836">
        <ele>17.8</ele>
        <time>2013-05-05T07:30:48Z</time>
      </trkpt>
      <trkpt lat="43.55792" lon="3.80846">
        <ele>17.9</ele>
        <time>2013-05-05T07:30:50Z</time>
      </trkpt>
      <trkpt lat="43.55792" lon="3.80856">
        <ele>18</ele>
        <time>2013-05-05T07:30:52Z</time>
      </trkpt>
      <trkpt lat="43.55795" lon="3.80867">
        <ele>17.5</ele>
        <time>2013-05-05T07:30:55Z</time>
      </trkpt>
      <trkpt lat="43.55802" lon="3.80872">
        <ele>17.7</ele>
        <time>2013-05-05T07:30:59Z</time>
      </trkpt>
      <trkpt lat="43.55807" lon="3.80877">
        <ele>17.4</ele>
        <time>2013-05-05T07:31:01Z</time>
      </trkpt>
      <trkpt lat="43.5581" lon="3.80885">
        <ele>17.4</ele>
        <time>2013-05-05T07:31:03Z</time>
      </trkpt>
      <trkpt lat="43.55811" lon="3.80895">
        <ele>17.5</ele>
        <time>2013-05-05T07:31:05Z</time>
      </trkpt>
      <trkpt lat="43.55811" lon="3.80904">
        <ele>17.3</ele>
        <time>2013-05-05T07:31:07Z</time>
      </trkpt>
      <trkpt lat="43.55815" lon="3.80915">
        <ele>17.6</ele>
        <time>2013-05-05T07:31:10Z</time>
      </trkpt>
      <trkpt lat="43.55818" lon="3.80926">
        <ele>18.1</ele>
        <time>2013-05-05T07:31:13Z</time>
      </trkpt>
      <trkpt lat="43.55823" lon="3.80936">
        <ele>17.9</ele>
        <time>2013-05-05T07:31:16Z</time>
      </trkpt>
      <trkpt lat="43.55827" lon="3.80942">
        <ele>17.4</ele>
        <time>2013-05-05T07:31:18Z</time>
      </trkpt>
      <trkpt lat="43.5583" lon="3.80951">
        <ele>17.8</ele>
        <time>2013-05-05T07:31:20Z</time>
      </trkpt>
      <trkpt lat="43.55832" lon="3.8096">
        <ele>17.9</ele>
        <time>2013-05-05T07:31:22Z</time>
      </trkpt>
      <trkpt lat="43.55835" lon="3.80969">
        <ele>17.9</ele>
        <time>2013-05-05T07:31:24Z</time>
      </trkpt>
      <trkpt lat="43.55841" lon="3.80977">
        <ele>17.8</ele>
        <time>2013-05-05T07:31:27Z</time>
      </trkpt>
      <trkpt lat="43.55845" lon="3.80984">
        <ele>17.6</ele>
        <time>2013-05-05T07:31:29Z</time>
      </trkpt>
      <trkpt lat="43.5585" lon="3.80993">
        <ele>17.3</ele>
        <time>2013-05-05T07:31:31Z</time>
      </trkpt>
      <trkpt lat="43.55853" lon="3.81001">
        <ele>16.9</ele>
        <time>2013-05-05T07:31:33Z</time>
      </trkpt>
      <trkpt lat="43.55859" lon="3.81009">
        <ele>17.2</ele>
        <time>2013-05-05T07:31:36Z</time>
      </trkpt>
      <trkpt lat="43.55864" lon="3.81019">
        <ele>16.4</ele>
        <time>2013-05-05T07:31:39Z</time>
      </trkpt>
      <trkpt lat="43.55868" lon="3.81025">
        <ele>15.9</ele>
        <time>2013-05-05T07:31:41Z</time>
      </trkpt>
      <trkpt lat="43.55873" lon="3.81031">
        <ele>16.1</ele>
        <time>2013-05-05T07:31:43Z</time>
      </trkpt>
      <trkpt lat="43.55875" lon="3.81035">
        <ele>16.2</ele>
        <time>2013-05-05T07:31:44Z</time>
      </trkpt>
      <trkpt lat="43.55882" lon="3.81044">
        <ele>16.7</ele>
        <time>2013-05-05T07:31:47Z</time>
      </trkpt>
      <trkpt lat="43.55886" lon="3.81052">
        <ele>16.8</ele>
        <time>2013-05-05T07:31:49Z</time>
      </trkpt>
      <trkpt lat="43.55891" lon="3.8106">
        <ele>16.8</ele>
        <time>2013-05-05T07:31:51Z</time>
      </trkpt>
      <trkpt lat="43.55897" lon="3.81064">
        <ele>16.7</ele>
        <time>2013-05-05T07:31:53Z</time>
      </trkpt>
      <trkpt lat="43.55903" lon="3.81069">
        <ele>16.2</ele>
        <time>2013-05-05T07:31:55Z</time>
      </trkpt>
      <trkpt lat="43.55907" lon="3.81077">
        <ele>16.3</ele>
        <time>2013-05-05T07:31:57Z</time>
      </trkpt>
      <trkpt lat="43.55911" lon="3.81086">
        <ele>16.7</ele>
        <time>2013-05-05T07:31:59Z</time>
      </trkpt>
      <trkpt lat="43.55916" lon="3.81094">
        <ele>16.7</ele>
        <time>2013-05-05T07:32:01Z</time>
      </trkpt>
      <trkpt lat="43.55921" lon="3.811">
        <ele>16.6</ele>
        <time>2013-05-05T07:32:03Z</time>
      </trkpt>
      <trkpt lat="43.55926" lon="3.81106">
        <ele>16.6</ele>
        <time>2013-05-05T07:32:05Z</time>
      </trkpt>
      <trkpt lat="43.55931" lon="3.81114">
        <ele>16.9</ele>
        <time>2013-05-05T07:32:07Z</time>
      </trkpt>
      <trkpt lat="43.55937" lon="3.8112">
        <ele>17.2</ele>
        <time>2013-05-05T07:32:09Z</time>
      </trkpt>
      <trkpt lat="43.55943" lon="3.81126">
        <ele>16.7</ele>
        <time>2013-05-05T07:32:11Z</time>
      </trkpt>
      <trkpt lat="43.5595" lon="3.81133">
        <ele>16.5</ele>
        <time>2013-05-05T07:32:13Z</time>
      </trkpt>
      <trkpt lat="43.55958" lon="3.81138">
        <ele>16.4</ele>
        <time>2013-05-05T07:32:16Z</time>
      </trkpt>
      <trkpt lat="43.55965" lon="3.81144">
        <ele>16.7</ele>
        <time>2013-05-05T07:32:19Z</time>
      </trkpt>
      <trkpt lat="43.55972" lon="3.81145">
        <ele>16</ele>
        <time>2013-05-05T07:32:22Z</time>
      </trkpt>
      <trkpt lat="43.5598" lon="3.81144">
        <ele>16.3</ele>
        <time>2013-05-05T07:32:25Z</time>
      </trkpt>
      <trkpt lat="43.55988" lon="3.81145">
        <ele>17.2</ele>
        <time>2013-05-05T07:32:29Z</time>
      </trkpt>
      <trkpt lat="43.55992" lon="3.81154">
        <ele>17.6</ele>
        <time>2013-05-05T07:32:32Z</time>
      </trkpt>
      <trkpt lat="43.55996" lon="3.81161">
        <ele>17.8</ele>
        <time>2013-05-05T07:32:34Z</time>
      </trkpt>
      <trkpt lat="43.55999" lon="3.81168">
        <ele>17.4</ele>
        <time>2013-05-05T07:32:36Z</time>
      </trkpt>
      <trkpt lat="43.56003" lon="3.81175">
        <ele>16.9</ele>
        <time>2013-05-05T07:32:38Z</time>
      </trkpt>
      <trkpt lat="43.56006" lon="3.81183">
        <ele>17.1</ele>
        <time>2013-05-05T07:32:40Z</time>
      </trkpt>
      <trkpt lat="43.56009" lon="3.81191">
        <ele>17.2</ele>
        <time>2013-05-05T07:32:42Z</time>
      </trkpt>
      <trkpt lat="43.56012" lon="3.81201">
        <ele>17.3</ele>
        <time>2013-05-05T07:32:45Z</time>
      </trkpt>
      <trkpt lat="43.56013" lon="3.81205">
        <ele>17.4</ele>
        <time>2013-05-05T07:32:46Z</time>
      </trkpt>
      <trkpt lat="43.56017" lon="3.8122">
        <ele>18.2</ele>
        <time>2013-05-05T07:32:51Z</time>
      </trkpt>
      <trkpt lat="43.56016" lon="3.81229">
        <ele>18.4</ele>
        <time>2013-05-05T07:32:53Z</time>
      </trkpt>
      <trkpt lat="43.56016" lon="3.81239">
        <ele>18</ele>
        <time>2013-05-05T07:32:55Z</time>
      </trkpt>
      <trkpt lat="43.56016" lon="3.81251">
        <ele>17.3</ele>
        <time>2013-05-05T07:32:58Z</time>
      </trkpt>
      <trkpt lat="43.56013" lon="3.81263">
        <ele>16.4</ele>
        <time>2013-05-05T07:33:02Z</time>
      </trkpt>
      <trkpt lat="43.56015" lon="3.81272">
        <ele>15.4</ele>
        <time>2013-05-05T07:33:05Z</time>
      </trkpt>
      <trkpt lat="43.56019" lon="3.81282">
        <ele>15.5</ele>
        <time>2013-05-05T07:33:08Z</time>
      </trkpt>
      <trkpt lat="43.56019" lon="3.8129">
        <ele>16.2</ele>
        <time>2013-05-05T07:33:10Z</time>
      </trkpt>
      <trkpt lat="43.56018" lon="3.813">
        <ele>16.5</ele>
        <time>2013-05-05T07:33:12Z</time>
      </trkpt>
      <trkpt lat="43.56016" lon="3.8131">
        <ele>16.2</ele>
        <time>2013-05-05T07:33:14Z</time>
      </trkpt>
      <trkpt lat="43.56014" lon="3.81321">
        <ele>15.7</ele>
        <time>2013-05-05T07:33:16Z</time>
      </trkpt>
      <trkpt lat="43.56012" lon="3.81331">
        <ele>16.2</ele>
        <time>2013-05-05T07:33:18Z</time>
      </trkpt>
      <trkpt lat="43.56009" lon="3.8134">
        <ele>16.6</ele>
        <time>2013-05-05T07:33:20Z</time>
      </trkpt>
      <trkpt lat="43.56007" lon="3.8135">
        <ele>16.8</ele>
        <time>2013-05-05T07:33:22Z</time>
      </trkpt>
      <trkpt lat="43.56009" lon="3.81358">
        <ele>17.1</ele>
        <time>2013-05-05T07:33:24Z</time>
      </trkpt>
      <trkpt lat="43.5601" lon="3.81368">
        <ele>17.3</ele>
        <time>2013-05-05T07:33:26Z</time>
      </trkpt>
      <trkpt lat="43.56011" lon="3.81377">
        <ele>17.2</ele>
        <time>2013-05-05T07:33:28Z</time>
      </trkpt>
      <trkpt lat="43.5601" lon="3.81387">
        <ele>17.3</ele>
        <time>2013-05-05T07:33:30Z</time>
      </trkpt>
      <trkpt lat="43.5601" lon="3.81398">
        <ele>17.3</ele>
        <time>2013-05-05T07:33:32Z</time>
      </trkpt>
      <trkpt lat="43.56009" lon="3.81409">
        <ele>17</ele>
        <time>2013-05-05T07:33:34Z</time>
      </trkpt>
      <trkpt lat="43.5601" lon="3.8142">
        <ele>17.2</ele>
        <time>2013-05-05T07:33:36Z</time>
      </trkpt>
      <trkpt lat="43.56007" lon="3.81428">
        <ele>17.6</ele>
        <time>2013-05-05T07:33:38Z</time>
      </trkpt>
      <trkpt lat="43.56005" lon="3.8144">
        <ele>17.7</ele>
        <time>2013-05-05T07:33:40Z</time>
      </trkpt>
      <trkpt lat="43.56003" lon="3.81446">
        <ele>17.7</ele>
        <time>2013-05-05T07:33:41Z</time>
      </trkpt>
      <trkpt lat="43.56002" lon="3.81458">
        <ele>17.7</ele>
        <time>2013-05-05T07:33:43Z</time>
      </trkpt>
      <trkpt lat="43.55995" lon="3.81466">
        <ele>17.4</ele>
        <time>2013-05-05T07:33:46Z</time>
      </trkpt>
      <trkpt lat="43.55994" lon="3.81469">
        <ele>17.2</ele>
        <time>2013-05-05T07:33:47Z</time>
      </trkpt>
      <trkpt lat="43.5599" lon="3.81482">
        <ele>17.1</ele>
        <time>2013-05-05T07:33:50Z</time>
      </trkpt>
      <trkpt lat="43.55987" lon="3.8149">
        <ele>17</ele>
        <time>2013-05-05T07:33:52Z</time>
      </trkpt>
      <trkpt lat="43.55984" lon="3.81498">
        <ele>16.8</ele>
        <time>2013-05-05T07:33:54Z</time>
      </trkpt>
      <trkpt lat="43.5598" lon="3.81506">
        <ele>16.7</ele>
        <time>2013-05-05T07:33:56Z</time>
      </trkpt>
      <trkpt lat="43.55975" lon="3.81514">
        <ele>16.6</ele>
        <time>2013-05-05T07:33:58Z</time>
      </trkpt>
      <trkpt lat="43.55972" lon="3.81523">
        <ele>16.5</ele>
        <time>2013-05-05T07:34:00Z</time>
      </trkpt>
      <trkpt lat="43.55967" lon="3.81532">
        <ele>16.6</ele>
        <time>2013-05-05T07:34:03Z</time>
      </trkpt>
      <trkpt lat="43.55962" lon="3.81539">
        <ele>16.6</ele>
        <time>2013-05-05T07:34:05Z</time>
      </trkpt>
      <trkpt lat="43.55957" lon="3.81545">
        <ele>16.6</ele>
        <time>2013-05-05T07:34:07Z</time>
      </trkpt>
      <trkpt lat="43.55952" lon="3.81551">
        <ele>16.5</ele>
        <time>2013-05-05T07:34:09Z</time>
      </trkpt>
      <trkpt lat="43.55947" lon="3.81556">
        <ele>16.5</ele>
        <time>2013-05-05T07:34:11Z</time>
      </trkpt>
      <trkpt lat="43.55942" lon="3.8156">
        <ele>16.3</ele>
        <time>2013-05-05T07:34:13Z</time>
      </trkpt>
      <trkpt lat="43.55937" lon="3.81568">
        <ele>16.1</ele>
        <time>2013-05-05T07:34:15Z</time>
      </trkpt>
      <trkpt lat="43.55932" lon="3.81575">
        <ele>15.8</ele>
        <time>2013-05-05T07:34:17Z</time>
      </trkpt>
      <trkpt lat="43.55926" lon="3.81583">
        <ele>15.5</ele>
        <time>2013-05-05T07:34:21Z</time>
      </trkpt>
      <trkpt lat="43.55917" lon="3.81586">
        <ele>15.2</ele>
        <time>2013-05-05T07:34:25Z</time>
      </trkpt>
      <trkpt lat="43.55912" lon="3.8159">
        <ele>15.2</ele>
        <time>2013-05-05T07:34:27Z</time>
      </trkpt>
      <trkpt lat="43.55907" lon="3.81596">
        <ele>15.4</ele>
        <time>2013-05-05T07:34:29Z</time>
      </trkpt>
      <trkpt lat="43.55901" lon="3.816">
        <ele>15.4</ele>
        <time>2013-05-05T07:34:31Z</time>
      </trkpt>
      <trkpt lat="43.55893" lon="3.81606">
        <ele>15.2</ele>
        <time>2013-05-05T07:34:35Z</time>
      </trkpt>
      <trkpt lat="43.55886" lon="3.81612">
        <ele>16.4</ele>
        <time>2013-05-05T07:34:42Z</time>
      </trkpt>
      <trkpt lat="43.55879" lon="3.81619">
        <ele>17.7</ele>
        <time>2013-05-05T07:34:50Z</time>
      </trkpt>
      <trkpt lat="43.55879" lon="3.8162">
        <ele>17.9</ele>
        <time>2013-05-05T07:34:51Z</time>
      </trkpt>
      <trkpt lat="43.55865" lon="3.81631">
        <ele>15.4</ele>
        <time>2013-05-05T07:35:41Z</time>
      </trkpt>
      <trkpt lat="43.55857" lon="3.81636">
        <ele>15.4</ele>
        <time>2013-05-05T07:35:45Z</time>
      </trkpt>
      <trkpt lat="43.55849" lon="3.81642">
        <ele>14.7</ele>
        <time>2013-05-05T07:36:04Z</time>
      </trkpt>
      <trkpt lat="43.55847" lon="3.81642">
        <ele>14.7</ele>
        <time>2013-05-05T07:36:05Z</time>
      </trkpt>
      <trkpt lat="43.55834" lon="3.8165">
        <ele>14.9</ele>
        <time>2013-05-05T07:36:10Z</time>
      </trkpt>
      <trkpt lat="43.55828" lon="3.81654">
        <ele>15.5</ele>
        <time>2013-05-05T07:36:13Z</time>
      </trkpt>
      <trkpt lat="43.55823" lon="3.81662">
        <ele>15.9</ele>
        <time>2013-05-05T07:36:16Z</time>
      </trkpt>
      <trkpt lat="43.55816" lon="3.81668">
        <ele>15.4</ele>
        <time>2013-05-05T07:36:19Z</time>
      </trkpt>
      <trkpt lat="43.55808" lon="3.81672">
        <ele>15.6</ele>
        <time>2013-05-05T07:36:22Z</time>
      </trkpt>
      <trkpt lat="43.55801" lon="3.81678">
        <ele>16.4</ele>
        <time>2013-05-05T07:36:25Z</time>
      </trkpt>
      <trkpt lat="43.55795" lon="3.81681">
        <ele>16.5</ele>
        <time>2013-05-05T07:36:27Z</time>
      </trkpt>
      <trkpt lat="43.55788" lon="3.81681">
        <ele>16.7</ele>
        <time>2013-05-05T07:36:29Z</time>
      </trkpt>
      <trkpt lat="43.55783" lon="3.81684">
        <ele>16.8</ele>
        <time>2013-05-05T07:36:31Z</time>
      </trkpt>
      <trkpt lat="43.55774" lon="3.81685">
        <ele>16.8</ele>
        <time>2013-05-05T07:36:34Z</time>
      </trkpt>
      <trkpt lat="43.55767" lon="3.8169">
        <ele>15.4</ele>
        <time>2013-05-05T07:36:41Z</time>
      </trkpt>
      <trkpt lat="43.55759" lon="3.81694">
        <ele>15</ele>
        <time>2013-05-05T07:36:44Z</time>
      </trkpt>
      <trkpt lat="43.55753" lon="3.81697">
        <ele>14.4</ele>
        <time>2013-05-05T07:36:46Z</time>
      </trkpt>
      <trkpt lat="43.55747" lon="3.81699">
        <ele>14.1</ele>
        <time>2013-05-05T07:36:48Z</time>
      </trkpt>
      <trkpt lat="43.55738" lon="3.817">
        <ele>14.3</ele>
        <time>2013-05-05T07:36:51Z</time>
      </trkpt>
      <trkpt lat="43.55732" lon="3.81704">
        <ele>14.7</ele>
        <time>2013-05-05T07:36:53Z</time>
      </trkpt>
      <trkpt lat="43.55726" lon="3.81706">
        <ele>15.2</ele>
        <time>2013-05-05T07:36:55Z</time>
      </trkpt>
      <trkpt lat="43.55719" lon="3.81711">
        <ele>15.5</ele>
        <time>2013-05-05T07:36:57Z</time>
      </trkpt>
      <trkpt lat="43.55712" lon="3.81712">
        <ele>14.8</ele>
        <time>2013-05-05T07:36:59Z</time>
      </trkpt>
      <trkpt lat="43.55706" lon="3.81715">
        <ele>14.8</ele>
        <time>2013-05-05T07:37:01Z</time>
      </trkpt>
      <trkpt lat="43.55698" lon="3.81719">
        <ele>15.2</ele>
        <time>2013-05-05T07:37:03Z</time>
      </trkpt>
      <trkpt lat="43.5569" lon="3.81722">
        <ele>15.3</ele>
        <time>2013-05-05T07:37:05Z</time>
      </trkpt>
      <trkpt lat="43.55686" lon="3.81724">
        <ele>15.3</ele>
        <time>2013-05-05T07:37:06Z</time>
      </trkpt>
      <trkpt lat="43.55675" lon="3.8173">
        <ele>15.1</ele>
        <time>2013-05-05T07:37:09Z</time>
      </trkpt>
      <trkpt lat="43.55667" lon="3.81734">
        <ele>15.1</ele>
        <time>2013-05-05T07:37:11Z</time>
      </trkpt>
      <trkpt lat="43.5566" lon="3.81739">
        <ele>15.2</ele>
        <time>2013-05-05T07:37:13Z</time>
      </trkpt>
      <trkpt lat="43.55652" lon="3.81744">
        <ele>15.4</ele>
        <time>2013-05-05T07:37:15Z</time>
      </trkpt>
      <trkpt lat="43.55646" lon="3.81751">
        <ele>15.5</ele>
        <time>2013-05-05T07:37:17Z</time>
      </trkpt>
      <trkpt lat="43.55638" lon="3.81755">
        <ele>15.6</ele>
        <time>2013-05-05T07:37:19Z</time>
      </trkpt>
      <trkpt lat="43.55631" lon="3.8176">
        <ele>15.7</ele>
        <time>2013-05-05T07:37:21Z</time>
      </trkpt>
      <trkpt lat="43.55625" lon="3.81767">
        <ele>15.4</ele>
        <time>2013-05-05T07:37:23Z</time>
      </trkpt>
      <trkpt lat="43.55618" lon="3.81771">
        <ele>14.9</ele>
        <time>2013-05-05T07:37:25Z</time>
      </trkpt>
      <trkpt lat="43.55611" lon="3.81775">
        <ele>15</ele>
        <time>2013-05-05T07:37:27Z</time>
      </trkpt>
      <trkpt lat="43.55604" lon="3.81781">
        <ele>15.1</ele>
        <time>2013-05-05T07:37:29Z</time>
      </trkpt>
      <trkpt lat="43.55597" lon="3.81787">
        <ele>15.1</ele>
        <time>2013-05-05T07:37:31Z</time>
      </trkpt>
      <trkpt lat="43.55591" lon="3.81793">
        <ele>15.1</ele>
        <time>2013-05-05T07:37:33Z</time>
      </trkpt>
      <trkpt lat="43.55584" lon="3.81799">
        <ele>15</ele>
        <time>2013-05-05T07:37:35Z</time>
      </trkpt>
      <trkpt lat="43.55579" lon="3.81806">
        <ele>15</ele>
        <time>2013-05-05T07:37:37Z</time>
      </trkpt>
      <trkpt lat="43.55572" lon="3.81813">
        <ele>14.5</ele>
        <time>2013-05-05T07:37:39Z</time>
      </trkpt>
      <trkpt lat="43.55565" lon="3.81819">
        <ele>13.8</ele>
        <time>2013-05-05T07:37:41Z</time>
      </trkpt>
      <trkpt lat="43.55559" lon="3.81825">
        <ele>14</ele>
        <time>2013-05-05T07:37:43Z</time>
      </trkpt>
      <trkpt lat="43.55556" lon="3.81833">
        <ele>14.5</ele>
        <time>2013-05-05T07:37:45Z</time>
      </trkpt>
      <trkpt lat="43.55552" lon="3.81843">
        <ele>15.1</ele>
        <time>2013-05-05T07:37:47Z</time>
      </trkpt>
      <trkpt lat="43.55547" lon="3.8185">
        <ele>15.2</ele>
        <time>2013-05-05T07:37:49Z</time>
      </trkpt>
      <trkpt lat="43.55543" lon="3.81857">
        <ele>15.1</ele>
        <time>2013-05-05T07:37:51Z</time>
      </trkpt>
      <trkpt lat="43.5554" lon="3.81864">
        <ele>15.5</ele>
        <time>2013-05-05T07:37:53Z</time>
      </trkpt>
      <trkpt lat="43.55533" lon="3.81869">
        <ele>15.1</ele>
        <time>2013-05-05T07:37:55Z</time>
      </trkpt>
      <trkpt lat="43.55525" lon="3.81873">
        <ele>14.5</ele>
        <time>2013-05-05T07:37:57Z</time>
      </trkpt>
      <trkpt lat="43.55521" lon="3.81883">
        <ele>14.8</ele>
        <time>2013-05-05T07:38:01Z</time>
      </trkpt>
      <trkpt lat="43.55519" lon="3.81895">
        <ele>14.4</ele>
        <time>2013-05-05T07:38:05Z</time>
      </trkpt>
      <trkpt lat="43.55513" lon="3.81902">
        <ele>14.5</ele>
        <time>2013-05-05T07:38:09Z</time>
      </trkpt>
      <trkpt lat="43.55511" lon="3.81904">
        <ele>14.5</ele>
        <time>2013-05-05T07:38:10Z</time>
      </trkpt>
      <trkpt lat="43.55504" lon="3.81917">
        <ele>15.3</ele>
        <time>2013-05-05T07:38:15Z</time>
      </trkpt>
      <trkpt lat="43.55498" lon="3.81923">
        <ele>15.1</ele>
        <time>2013-05-05T07:38:18Z</time>
      </trkpt>
      <trkpt lat="43.55491" lon="3.81928">
        <ele>15.2</ele>
        <time>2013-05-05T07:38:21Z</time>
      </trkpt>
      <trkpt lat="43.55486" lon="3.81932">
        <ele>15.2</ele>
        <time>2013-05-05T07:38:23Z</time>
      </trkpt>
      <trkpt lat="43.5548" lon="3.81936">
        <ele>15.6</ele>
        <time>2013-05-05T07:38:25Z</time>
      </trkpt>
      <trkpt lat="43.55474" lon="3.81941">
        <ele>15.7</ele>
        <time>2013-05-05T07:38:27Z</time>
      </trkpt>
      <trkpt lat="43.55468" lon="3.81945">
        <ele>15.7</ele>
        <time>2013-05-05T07:38:29Z</time>
      </trkpt>
      <trkpt lat="43.55462" lon="3.8195">
        <ele>15.5</ele>
        <time>2013-05-05T07:38:31Z</time>
      </trkpt>
      <trkpt lat="43.55456" lon="3.81955">
        <ele>15.5</ele>
        <time>2013-05-05T07:38:33Z</time>
      </trkpt>
      <trkpt lat="43.5545" lon="3.8196">
        <ele>15.6</ele>
        <time>2013-05-05T07:38:35Z</time>
      </trkpt>
      <trkpt lat="43.55443" lon="3.81965">
        <ele>15.5</ele>
        <time>2013-05-05T07:38:37Z</time>
      </trkpt>
      <trkpt lat="43.55437" lon="3.81971">
        <ele>15.4</ele>
        <time>2013-05-05T07:38:39Z</time>
      </trkpt>
      <trkpt lat="43.5543" lon="3.81976">
        <ele>15.7</ele>
        <time>2013-05-05T07:38:41Z</time>
      </trkpt>
      <trkpt lat="43.55424" lon="3.81981">
        <ele>15.7</ele>
        <time>2013-05-05T07:38:43Z</time>
      </trkpt>
      <trkpt lat="43.55418" lon="3.81987">
        <ele>15.6</ele>
        <time>2013-05-05T07:38:45Z</time>
      </trkpt>
      <trkpt lat="43.55411" lon="3.81992">
        <ele>15.8</ele>
        <time>2013-05-05T07:38:47Z</time>
      </trkpt>
      <trkpt lat="43.55404" lon="3.81996">
        <ele>16</ele>
        <time>2013-05-05T07:38:49Z</time>
      </trkpt>
      <trkpt lat="43.55398" lon="3.82">
        <ele>16.2</ele>
        <time>2013-05-05T07:38:51Z</time>
      </trkpt>
      <trkpt lat="43.5539" lon="3.82006">
        <ele>16.3</ele>
        <time>2013-05-05T07:38:54Z</time>
      </trkpt>
      <trkpt lat="43.55382" lon="3.82009">
        <ele>16.6</ele>
        <time>2013-05-05T07:38:58Z</time>
      </trkpt>
      <trkpt lat="43.55376" lon="3.82016">
        <ele>16.7</ele>
        <time>2013-05-05T07:39:01Z</time>
      </trkpt>
      <trkpt lat="43.5537" lon="3.82022">
        <ele>16.7</ele>
        <time>2013-05-05T07:39:04Z</time>
      </trkpt>
      <trkpt lat="43.55364" lon="3.82027">
        <ele>16.4</ele>
        <time>2013-05-05T07:39:06Z</time>
      </trkpt>
      <trkpt lat="43.55359" lon="3.82034">
        <ele>16.2</ele>
        <time>2013-05-05T07:39:08Z</time>
      </trkpt>
      <trkpt lat="43.55353" lon="3.8204">
        <ele>16.1</ele>
        <time>2013-05-05T07:39:10Z</time>
      </trkpt>
      <trkpt lat="43.5535" lon="3.82044">
        <ele>16</ele>
        <time>2013-05-05T07:39:11Z</time>
      </trkpt>
      <trkpt lat="43.55339" lon="3.82054">
        <ele>15.5</ele>
        <time>2013-05-05T07:39:14Z</time>
      </trkpt>
      <trkpt lat="43.55335" lon="3.82058">
        <ele>15.8</ele>
        <time>2013-05-05T07:39:15Z</time>
      </trkpt>
      <trkpt lat="43.55331" lon="3.82062">
        <ele>15.9</ele>
        <time>2013-05-05T07:39:16Z</time>
      </trkpt>
      <trkpt lat="43.55328" lon="3.82066">
        <ele>16.1</ele>
        <time>2013-05-05T07:39:17Z</time>
      </trkpt>
      <trkpt lat="43.55324" lon="3.82071">
        <ele>15.8</ele>
        <time>2013-05-05T07:39:18Z</time>
      </trkpt>
      <trkpt lat="43.55321" lon="3.82076">
        <ele>15.6</ele>
        <time>2013-05-05T07:39:19Z</time>
      </trkpt>
      <trkpt lat="43.55318" lon="3.82081">
        <ele>15.4</ele>
        <time>2013-05-05T07:39:20Z</time>
      </trkpt>
      <trkpt lat="43.55315" lon="3.82086">
        <ele>15.2</ele>
        <time>2013-05-05T07:39:21Z</time>
      </trkpt>
      <trkpt lat="43.55311" lon="3.82089">
        <ele>15.1</ele>
        <time>2013-05-05T07:39:22Z</time>
      </trkpt>
      <trkpt lat="43.55307" lon="3.82092">
        <ele>15</ele>
        <time>2013-05-05T07:39:23Z</time>
      </trkpt>
      <trkpt lat="43.55303" lon="3.82095">
        <ele>14.7</ele>
        <time>2013-05-05T07:39:24Z</time>
      </trkpt>
      <trkpt lat="43.55298" lon="3.82098">
        <ele>14.4</ele>
        <time>2013-05-05T07:39:25Z</time>
      </trkpt>
      <trkpt lat="43.55294" lon="3.82101">
        <ele>14.2</ele>
        <time>2013-05-05T07:39:26Z</time>
      </trkpt>
      <trkpt lat="43.55287" lon="3.82108">
        <ele>14.2</ele>
        <time>2013-05-05T07:39:28Z</time>
      </trkpt>
      <trkpt lat="43.5528" lon="3.82116">
        <ele>14.2</ele>
        <time>2013-05-05T07:39:30Z</time>
      </trkpt>
      <trkpt lat="43.55274" lon="3.82124">
        <ele>14.3</ele>
        <time>2013-05-05T07:39:32Z</time>
      </trkpt>
      <trkpt lat="43.55267" lon="3.82133">
        <ele>14.7</ele>
        <time>2013-05-05T07:39:34Z</time>
      </trkpt>
      <trkpt lat="43.55262" lon="3.82142">
        <ele>15.2</ele>
        <time>2013-05-05T07:39:36Z</time>
      </trkpt>
      <trkpt lat="43.55255" lon="3.82151">
        <ele>15.2</ele>
        <time>2013-05-05T07:39:38Z</time>
      </trkpt>
      <trkpt lat="43.55248" lon="3.82158">
        <ele>15.6</ele>
        <time>2013-05-05T07:39:40Z</time>
      </trkpt>
      <trkpt lat="43.55242" lon="3.82166">
        <ele>16.1</ele>
        <time>2013-05-05T07:39:42Z</time>
      </trkpt>
      <trkpt lat="43.55237" lon="3.82174">
        <ele>15.4</ele>
        <time>2013-05-05T07:39:44Z</time>
      </trkpt>
      <trkpt lat="43.5523" lon="3.8218">
        <ele>15</ele>
        <time>2013-05-05T07:39:46Z</time>
      </trkpt>
      <trkpt lat="43.55224" lon="3.82186">
        <ele>15.7</ele>
        <time>2013-05-05T07:39:48Z</time>
      </trkpt>
      <trkpt lat="43.55218" lon="3.82192">
        <ele>16.2</ele>
        <time>2013-05-05T07:39:50Z</time>
      </trkpt>
      <trkpt lat="43.55215" lon="3.82201">
        <ele>16.5</ele>
        <time>2013-05-05T07:39:52Z</time>
      </trkpt>
      <trkpt lat="43.55211" lon="3.82209">
        <ele>16.4</ele>
        <time>2013-05-05T07:39:54Z</time>
      </trkpt>
      <trkpt lat="43.55209" lon="3.82218">
        <ele>16.4</ele>
        <time>2013-05-05T07:39:56Z</time>
      </trkpt>
      <trkpt lat="43.5521" lon="3.82229">
        <ele>16.7</ele>
        <time>2013-05-05T07:39:59Z</time>
      </trkpt>
      <trkpt lat="43.55209" lon="3.8224">
        <ele>17.1</ele>
        <time>2013-05-05T07:40:02Z</time>
      </trkpt>
      <trkpt lat="43.55207" lon="3.82248">
        <ele>17.1</ele>
        <time>2013-05-05T07:40:04Z</time>
      </trkpt>
      <trkpt lat="43.55204" lon="3.82257">
        <ele>17</ele>
        <time>2013-05-05T07:40:06Z</time>
      </trkpt>
      <trkpt lat="43.55201" lon="3.82266">
        <ele>16.9</ele>
        <time>2013-05-05T07:40:08Z</time>
      </trkpt>
      <trkpt lat="43.552" lon="3.82277">
        <ele>16.6</ele>
        <time>2013-05-05T07:40:10Z</time>
      </trkpt>
      <trkpt lat="43.552" lon="3.82287">
        <ele>15.8</ele>
        <time>2013-05-05T07:40:12Z</time>
      </trkpt>
      <trkpt lat="43.552" lon="3.82293">
        <ele>15.2</ele>
        <time>2013-05-05T07:40:13Z</time>
      </trkpt>
      <trkpt lat="43.552" lon="3.82305">
        <ele>15.4</ele>
        <time>2013-05-05T07:40:15Z</time>
      </trkpt>
      <trkpt lat="43.55201" lon="3.82311">
        <ele>15.9</ele>
        <time>2013-05-05T07:40:16Z</time>
      </trkpt>
      <trkpt lat="43.55202" lon="3.82317">
        <ele>16.3</ele>
        <time>2013-05-05T07:40:17Z</time>
      </trkpt>
      <trkpt lat="43.55203" lon="3.82324">
        <ele>16.6</ele>
        <time>2013-05-05T07:40:18Z</time>
      </trkpt>
      <trkpt lat="43.55205" lon="3.82331">
        <ele>16.7</ele>
        <time>2013-05-05T07:40:19Z</time>
      </trkpt>
      <trkpt lat="43.55208" lon="3.82337">
        <ele>16.8</ele>
        <time>2013-05-05T07:40:20Z</time>
      </trkpt>
      <trkpt lat="43.55211" lon="3.82343">
        <ele>16.8</ele>
        <time>2013-05-05T07:40:21Z</time>
      </trkpt>
      <trkpt lat="43.55214" lon="3.82348">
        <ele>16.6</ele>
        <time>2013-05-05T07:40:22Z</time>
      </trkpt>
      <trkpt lat="43.55217" lon="3.82353">
        <ele>16.4</ele>
        <time>2013-05-05T07:40:23Z</time>
      </trkpt>
      <trkpt lat="43.55221" lon="3.82358">
        <ele>16.2</ele>
        <time>2013-05-05T07:40:24Z</time>
      </trkpt>
      <trkpt lat="43.55225" lon="3.82363">
        <ele>16.3</ele>
        <time>2013-05-05T07:40:25Z</time>
      </trkpt>
      <trkpt lat="43.55229" lon="3.82367">
        <ele>16.3</ele>
        <time>2013-05-05T07:40:26Z</time>
      </trkpt>
      <trkpt lat="43.55234" lon="3.82372">
        <ele>16.3</ele>
        <time>2013-05-05T07:40:27Z</time>
      </trkpt>
      <trkpt lat="43.55238" lon="3.82376">
        <ele>16.1</ele>
        <time>2013-05-05T07:40:28Z</time>
      </trkpt>
      <trkpt lat="43.55242" lon="3.8238">
        <ele>15.9</ele>
        <time>2013-05-05T07:40:29Z</time>
      </trkpt>
      <trkpt lat="43.55246" lon="3.82384">
        <ele>15.8</ele>
        <time>2013-05-05T07:40:30Z</time>
      </trkpt>
      <trkpt lat="43.55251" lon="3.82387">
        <ele>15.7</ele>
        <time>2013-05-05T07:40:31Z</time>
      </trkpt>
      <trkpt lat="43.55255" lon="3.82391">
        <ele>15.7</ele>
        <time>2013-05-05T07:40:32Z</time>
      </trkpt>
      <trkpt lat="43.55259" lon="3.82395">
        <ele>15.7</ele>
        <time>2013-05-05T07:40:33Z</time>
      </trkpt>
      <trkpt lat="43.55263" lon="3.82399">
        <ele>15.7</ele>
        <time>2013-05-05T07:40:34Z</time>
      </trkpt>
      <trkpt lat="43.55267" lon="3.82403">
        <ele>15.9</ele>
        <time>2013-05-05T07:40:35Z</time>
      </trkpt>
      <trkpt lat="43.55274" lon="3.8241">
        <ele>16.1</ele>
        <time>2013-05-05T07:40:37Z</time>
      </trkpt>
      <trkpt lat="43.55281" lon="3.82417">
        <ele>16.9</ele>
        <time>2013-05-05T07:40:39Z</time>
      </trkpt>
      <trkpt lat="43.55288" lon="3.82424">
        <ele>17.3</ele>
        <time>2013-05-05T07:40:41Z</time>
      </trkpt>
      <trkpt lat="43.55292" lon="3.82428">
        <ele>17.4</ele>
        <time>2013-05-05T07:40:42Z</time>
      </trkpt>
      <trkpt lat="43.55296" lon="3.82432">
        <ele>17.5</ele>
        <time>2013-05-05T07:40:43Z</time>
      </trkpt>
      <trkpt lat="43.553" lon="3.82436">
        <ele>17.5</ele>
        <time>2013-05-05T07:40:44Z</time>
      </trkpt>
      <trkpt lat="43.55304" lon="3.8244">
        <ele>17.6</ele>
        <time>2013-05-05T07:40:45Z</time>
      </trkpt>
      <trkpt lat="43.55308" lon="3.82444">
        <ele>17.7</ele>
        <time>2013-05-05T07:40:46Z</time>
      </trkpt>
      <trkpt lat="43.55311" lon="3.82449">
        <ele>17.4</ele>
        <time>2013-05-05T07:40:47Z</time>
      </trkpt>
      <trkpt lat="43.55315" lon="3.82454">
        <ele>17.2</ele>
        <time>2013-05-05T07:40:48Z</time>
      </trkpt>
      <trkpt lat="43.55319" lon="3.82458">
        <ele>17</ele>
        <time>2013-05-05T07:40:49Z</time>
      </trkpt>
      <trkpt lat="43.55322" lon="3.82462">
        <ele>16.9</ele>
        <time>2013-05-05T07:40:50Z</time>
      </trkpt>
      <trkpt lat="43.55326" lon="3.82466">
        <ele>16.6</ele>
        <time>2013-05-05T07:40:51Z</time>
      </trkpt>
      <trkpt lat="43.55329" lon="3.8247">
        <ele>16.5</ele>
        <time>2013-05-05T07:40:52Z</time>
      </trkpt>
      <trkpt lat="43.55333" lon="3.82474">
        <ele>16.3</ele>
        <time>2013-05-05T07:40:53Z</time>
      </trkpt>
      <trkpt lat="43.55337" lon="3.82478">
        <ele>16.7</ele>
        <time>2013-05-05T07:40:54Z</time>
      </trkpt>
      <trkpt lat="43.5534" lon="3.82482">
        <ele>17</ele>
        <time>2013-05-05T07:40:55Z</time>
      </trkpt>
      <trkpt lat="43.55344" lon="3.82485">
        <ele>17.2</ele>
        <time>2013-05-05T07:40:56Z</time>
      </trkpt>
      <trkpt lat="43.55348" lon="3.82489">
        <ele>17.5</ele>
        <time>2013-05-05T07:40:57Z</time>
      </trkpt>
      <trkpt lat="43.55352" lon="3.82492">
        <ele>17.7</ele>
        <time>2013-05-05T07:40:58Z</time>
      </trkpt>
      <trkpt lat="43.55356" lon="3.82496">
        <ele>17.9</ele>
        <time>2013-05-05T07:40:59Z</time>
      </trkpt>
      <trkpt lat="43.55359" lon="3.82499">
        <ele>17.9</ele>
        <time>2013-05-05T07:41:00Z</time>
      </trkpt>
      <trkpt lat="43.55366" lon="3.82508">
        <ele>18</ele>
        <time>2013-05-05T07:41:02Z</time>
      </trkpt>
      <trkpt lat="43.55369" lon="3.82513">
        <ele>18.1</ele>
        <time>2013-05-05T07:41:03Z</time>
      </trkpt>
      <trkpt lat="43.55372" lon="3.82517">
        <ele>18.1</ele>
        <time>2013-05-05T07:41:04Z</time>
      </trkpt>
      <trkpt lat="43.55375" lon="3.82523">
        <ele>18.2</ele>
        <time>2013-05-05T07:41:05Z</time>
      </trkpt>
      <trkpt lat="43.55377" lon="3.82529">
        <ele>18.3</ele>
        <time>2013-05-05T07:41:06Z</time>
      </trkpt>
      <trkpt lat="43.5538" lon="3.82535">
        <ele>18.3</ele>
        <time>2013-05-05T07:41:07Z</time>
      </trkpt>
      <trkpt lat="43.55382" lon="3.82541">
        <ele>18.3</ele>
        <time>2013-05-05T07:41:08Z</time>
      </trkpt>
      <trkpt lat="43.55384" lon="3.82547">
        <ele>18.4</ele>
        <time>2013-05-05T07:41:09Z</time>
      </trkpt>
      <trkpt lat="43.55387" lon="3.82558">
        <ele>18.5</ele>
        <time>2013-05-05T07:41:11Z</time>
      </trkpt>
      <trkpt lat="43.5539" lon="3.82569">
        <ele>18.4</ele>
        <time>2013-05-05T07:41:13Z</time>
      </trkpt>
      <trkpt lat="43.5539" lon="3.82574">
        <ele>18.3</ele>
        <time>2013-05-05T07:41:14Z</time>
      </trkpt>
      <trkpt lat="43.55392" lon="3.82586">
        <ele>18</ele>
        <time>2013-05-05T07:41:16Z</time>
      </trkpt>
      <trkpt lat="43.55394" lon="3.82593">
        <ele>17.8</ele>
        <time>2013-05-05T07:41:17Z</time>
      </trkpt>
      <trkpt lat="43.55396" lon="3.82599">
        <ele>17.7</ele>
        <time>2013-05-05T07:41:18Z</time>
      </trkpt>
      <trkpt lat="43.55398" lon="3.82605">
        <ele>17.9</ele>
        <time>2013-05-05T07:41:19Z</time>
      </trkpt>
      <trkpt lat="43.55399" lon="3.82612">
        <ele>18</ele>
        <time>2013-05-05T07:41:20Z</time>
      </trkpt>
      <trkpt lat="43.554" lon="3.82623">
        <ele>17.7</ele>
        <time>2013-05-05T07:41:22Z</time>
      </trkpt>
      <trkpt lat="43.55401" lon="3.82634">
        <ele>16.8</ele>
        <time>2013-05-05T07:41:25Z</time>
      </trkpt>
      <trkpt lat="43.55403" lon="3.82642">
        <ele>15.7</ele>
        <time>2013-05-05T07:41:28Z</time>
      </trkpt>
      <trkpt lat="43.55402" lon="3.8265">
        <ele>14.7</ele>
        <time>2013-05-05T07:41:30Z</time>
      </trkpt>
      <trkpt lat="43.55402" lon="3.82661">
        <ele>14.9</ele>
        <time>2013-05-05T07:41:32Z</time>
      </trkpt>
      <trkpt lat="43.55405" lon="3.8267">
        <ele>15.5</ele>
        <time>2013-05-05T07:41:34Z</time>
      </trkpt>
      <trkpt lat="43.55407" lon="3.8268">
        <ele>13.3</ele>
        <time>2013-05-05T07:41:37Z</time>
      </trkpt>
      <trkpt lat="43.55408" lon="3.8269">
        <ele>13.2</ele>
        <time>2013-05-05T07:41:40Z</time>
      </trkpt>
      <trkpt lat="43.55403" lon="3.82698">
        <ele>12.4</ele>
        <time>2013-05-05T07:41:43Z</time>
      </trkpt>
      <trkpt lat="43.55396" lon="3.82704">
        <ele>12.2</ele>
        <time>2013-05-05T07:41:46Z</time>
      </trkpt>
      <trkpt lat="43.5539" lon="3.82709">
        <ele>12.1</ele>
        <time>2013-05-05T07:41:48Z</time>
      </trkpt>
      <trkpt lat="43.55398" lon="3.82704">
        <ele>10.6</ele>
        <time>2013-05-05T07:42:20Z</time>
      </trkpt>
      <trkpt lat="43.55399" lon="3.82704">
        <ele>10.8</ele>
        <time>2013-05-05T07:42:21Z</time>
      </trkpt>
      <trkpt lat="43.55411" lon="3.82692">
        <ele>12.3</ele>
        <time>2013-05-05T07:42:52Z</time>
      </trkpt>
      <trkpt lat="43.5542" lon="3.82693">
        <ele>13</ele>
        <time>2013-05-05T07:42:57Z</time>
      </trkpt>
      <trkpt lat="43.55426" lon="3.82701">
        <ele>12.5</ele>
        <time>2013-05-05T07:43:00Z</time>
      </trkpt>
      <trkpt lat="43.5543" lon="3.82712">
        <ele>13.6</ele>
        <time>2013-05-05T07:43:03Z</time>
      </trkpt>
      <trkpt lat="43.55436" lon="3.82721">
        <ele>13.1</ele>
        <time>2013-05-05T07:43:07Z</time>
      </trkpt>
      <trkpt lat="43.55436" lon="3.82731">
        <ele>13.1</ele>
        <time>2013-05-05T07:43:11Z</time>
      </trkpt>
      <trkpt lat="43.55441" lon="3.82739">
        <ele>12.8</ele>
        <time>2013-05-05T07:43:14Z</time>
      </trkpt>
      <trkpt lat="43.55446" lon="3.82749">
        <ele>12.7</ele>
        <time>2013-05-05T07:43:17Z</time>
      </trkpt>
      <trkpt lat="43.55452" lon="3.82758">
        <ele>12.9</ele>
        <time>2013-05-05T07:43:21Z</time>
      </trkpt>
      <trkpt lat="43.55452" lon="3.82759">
        <ele>12.9</ele>
        <time>2013-05-05T07:43:22Z</time>
      </trkpt>
      <trkpt lat="43.55464" lon="3.82775">
        <ele>13.4</ele>
        <time>2013-05-05T07:43:35Z</time>
      </trkpt>
      <trkpt lat="43.5547" lon="3.82785">
        <ele>12.1</ele>
        <time>2013-05-05T07:43:39Z</time>
      </trkpt>
      <trkpt lat="43.55472" lon="3.82794">
        <ele>12.2</ele>
        <time>2013-05-05T07:43:42Z</time>
      </trkpt>
      <trkpt lat="43.55478" lon="3.82801">
        <ele>12.3</ele>
        <time>2013-05-05T07:43:45Z</time>
      </trkpt>
      <trkpt lat="43.55484" lon="3.82804">
        <ele>12.2</ele>
        <time>2013-05-05T07:43:47Z</time>
      </trkpt>
      <trkpt lat="43.5549" lon="3.82805">
        <ele>12.1</ele>
        <time>2013-05-05T07:43:49Z</time>
      </trkpt>
      <trkpt lat="43.55497" lon="3.82807">
        <ele>12.1</ele>
        <time>2013-05-05T07:43:51Z</time>
      </trkpt>
      <trkpt lat="43.55504" lon="3.8281">
        <ele>13.4</ele>
        <time>2013-05-05T07:43:54Z</time>
      </trkpt>
      <trkpt lat="43.55512" lon="3.82812">
        <ele>13.4</ele>
        <time>2013-05-05T07:43:57Z</time>
      </trkpt>
      <trkpt lat="43.55521" lon="3.82814">
        <ele>13.8</ele>
        <time>2013-05-05T07:44:01Z</time>
      </trkpt>
      <trkpt lat="43.55526" lon="3.82818">
        <ele>15</ele>
        <time>2013-05-05T07:44:04Z</time>
      </trkpt>
      <trkpt lat="43.55533" lon="3.82825">
        <ele>14.7</ele>
        <time>2013-05-05T07:44:07Z</time>
      </trkpt>
      <trkpt lat="43.5554" lon="3.82832">
        <ele>13.7</ele>
        <time>2013-05-05T07:44:11Z</time>
      </trkpt>
      <trkpt lat="43.55546" lon="3.82837">
        <ele>14.1</ele>
        <time>2013-05-05T07:44:15Z</time>
      </trkpt>
      <trkpt lat="43.55552" lon="3.82842">
        <ele>14.2</ele>
        <time>2013-05-05T07:44:18Z</time>
      </trkpt>
      <trkpt lat="43.5556" lon="3.82845">
        <ele>14.1</ele>
        <time>2013-05-05T07:44:21Z</time>
      </trkpt>
      <trkpt lat="43.55568" lon="3.82849">
        <ele>13.8</ele>
        <time>2013-05-05T07:44:24Z</time>
      </trkpt>
      <trkpt lat="43.5557" lon="3.8285">
        <ele>13.6</ele>
        <time>2013-05-05T07:44:25Z</time>
      </trkpt>
      <trkpt lat="43.55583" lon="3.82857">
        <ele>14.4</ele>
        <time>2013-05-05T07:44:30Z</time>
      </trkpt>
      <trkpt lat="43.55591" lon="3.82862">
        <ele>14.3</ele>
        <time>2013-05-05T07:44:33Z</time>
      </trkpt>
      <trkpt lat="43.55598" lon="3.82867">
        <ele>14</ele>
        <time>2013-05-05T07:44:36Z</time>
      </trkpt>
      <trkpt lat="43.55605" lon="3.82871">
        <ele>13.9</ele>
        <time>2013-05-05T07:44:40Z</time>
      </trkpt>
      <trkpt lat="43.55612" lon="3.82878">
        <ele>14.5</ele>
        <time>2013-05-05T07:44:44Z</time>
      </trkpt>
      <trkpt lat="43.55619" lon="3.82885">
        <ele>14.9</ele>
        <time>2013-05-05T07:44:47Z</time>
      </trkpt>
      <trkpt lat="43.55625" lon="3.82893">
        <ele>15.1</ele>
        <time>2013-05-05T07:44:50Z</time>
      </trkpt>
      <trkpt lat="43.55631" lon="3.82898">
        <ele>15</ele>
        <time>2013-05-05T07:44:52Z</time>
      </trkpt>
      <trkpt lat="43.55637" lon="3.82903">
        <ele>15</ele>
        <time>2013-05-05T07:44:54Z</time>
      </trkpt>
      <trkpt lat="43.55642" lon="3.82908">
        <ele>15.2</ele>
        <time>2013-05-05T07:44:56Z</time>
      </trkpt>
      <trkpt lat="43.55649" lon="3.82916">
        <ele>15.6</ele>
        <time>2013-05-05T07:44:59Z</time>
      </trkpt>
      <trkpt lat="43.55654" lon="3.82925">
        <ele>15.9</ele>
        <time>2013-05-05T07:45:02Z</time>
      </trkpt>
      <trkpt lat="43.55659" lon="3.82934">
        <ele>15.7</ele>
        <time>2013-05-05T07:45:05Z</time>
      </trkpt>
      <trkpt lat="43.55663" lon="3.82943">
        <ele>15.9</ele>
        <time>2013-05-05T07:45:08Z</time>
      </trkpt>
      <trkpt lat="43.55668" lon="3.82952">
        <ele>15.5</ele>
        <time>2013-05-05T07:45:11Z</time>
      </trkpt>
      <trkpt lat="43.55671" lon="3.8296">
        <ele>15.4</ele>
        <time>2013-05-05T07:45:13Z</time>
      </trkpt>
      <trkpt lat="43.55675" lon="3.82968">
        <ele>15.1</ele>
        <time>2013-05-05T07:45:15Z</time>
      </trkpt>
      <trkpt lat="43.55672" lon="3.82957">
        <ele>14.3</ele>
        <time>2013-05-05T07:45:42Z</time>
      </trkpt>
      <trkpt lat="43.5567" lon="3.82954">
        <ele>14.3</ele>
        <time>2013-05-05T07:45:43Z</time>
      </trkpt>
      <trkpt lat="43.55663" lon="3.82939">
        <ele>14.7</ele>
        <time>2013-05-05T07:45:47Z</time>
      </trkpt>
      <trkpt lat="43.55659" lon="3.8293">
        <ele>14.9</ele>
        <time>2013-05-05T07:45:49Z</time>
      </trkpt>
      <trkpt lat="43.55655" lon="3.82923">
        <ele>15.3</ele>
        <time>2013-05-05T07:45:51Z</time>
      </trkpt>
      <trkpt lat="43.5565" lon="3.82915">
        <ele>15.8</ele>
        <time>2013-05-05T07:45:53Z</time>
      </trkpt>
      <trkpt lat="43.55645" lon="3.82909">
        <ele>15.9</ele>
        <time>2013-05-05T07:45:55Z</time>
      </trkpt>
      <trkpt lat="43.55639" lon="3.82904">
        <ele>15.9</ele>
        <time>2013-05-05T07:45:57Z</time>
      </trkpt>
      <trkpt lat="43.55632" lon="3.82898">
        <ele>15.8</ele>
        <time>2013-05-05T07:46:00Z</time>
      </trkpt>
      <trkpt lat="43.55625" lon="3.82892">
        <ele>14</ele>
        <time>2013-05-05T07:46:07Z</time>
      </trkpt>
      <trkpt lat="43.55619" lon="3.82884">
        <ele>14.6</ele>
        <time>2013-05-05T07:46:13Z</time>
      </trkpt>
      <trkpt lat="43.55612" lon="3.82877">
        <ele>14.4</ele>
        <time>2013-05-05T07:46:21Z</time>
      </trkpt>
      <trkpt lat="43.55605" lon="3.82871">
        <ele>14.6</ele>
        <time>2013-05-05T07:46:31Z</time>
      </trkpt>
      <trkpt lat="43.55598" lon="3.82865">
        <ele>15</ele>
        <time>2013-05-05T07:46:34Z</time>
      </trkpt>
      <trkpt lat="43.55593" lon="3.82861">
        <ele>14.7</ele>
        <time>2013-05-05T07:46:36Z</time>
      </trkpt>
      <trkpt lat="43.55585" lon="3.82855">
        <ele>14.6</ele>
        <time>2013-05-05T07:46:39Z</time>
      </trkpt>
      <trkpt lat="43.55578" lon="3.82851">
        <ele>14.5</ele>
        <time>2013-05-05T07:46:42Z</time>
      </trkpt>
      <trkpt lat="43.55572" lon="3.82848">
        <ele>14.5</ele>
        <time>2013-05-05T07:46:44Z</time>
      </trkpt>
      <trkpt lat="43.55569" lon="3.82847">
        <ele>14.6</ele>
        <time>2013-05-05T07:46:45Z</time>
      </trkpt>
      <trkpt lat="43.55559" lon="3.82843">
        <ele>14.7</ele>
        <time>2013-05-05T07:46:48Z</time>
      </trkpt>
      <trkpt lat="43.55552" lon="3.82838">
        <ele>14.6</ele>
        <time>2013-05-05T07:46:50Z</time>
      </trkpt>
      <trkpt lat="43.55546" lon="3.82831">
        <ele>14.5</ele>
        <time>2013-05-05T07:46:52Z</time>
      </trkpt>
      <trkpt lat="43.55542" lon="3.82828">
        <ele>14.5</ele>
        <time>2013-05-05T07:46:53Z</time>
      </trkpt>
      <trkpt lat="43.55538" lon="3.82824">
        <ele>14.3</ele>
        <time>2013-05-05T07:46:54Z</time>
      </trkpt>
      <trkpt lat="43.55532" lon="3.82816">
        <ele>14</ele>
        <time>2013-05-05T07:46:56Z</time>
      </trkpt>
      <trkpt lat="43.55532" lon="3.82805">
        <ele>14.7</ele>
        <time>2013-05-05T07:47:00Z</time>
      </trkpt>
      <trkpt lat="43.55538" lon="3.82802">
        <ele>14.3</ele>
        <time>2013-05-05T07:47:03Z</time>
      </trkpt>
      <trkpt lat="43.55547" lon="3.82799">
        <ele>14.8</ele>
        <time>2013-05-05T07:47:06Z</time>
      </trkpt>
      <trkpt lat="43.55555" lon="3.82796">
        <ele>16.3</ele>
        <time>2013-05-05T07:47:09Z</time>
      </trkpt>
      <trkpt lat="43.55562" lon="3.82794">
        <ele>17.2</ele>
        <time>2013-05-05T07:47:12Z</time>
      </trkpt>
      <trkpt lat="43.55569" lon="3.82792">
        <ele>18.1</ele>
        <time>2013-05-05T07:47:15Z</time>
      </trkpt>
      <trkpt lat="43.55577" lon="3.82789">
        <ele>19.2</ele>
        <time>2013-05-05T07:47:18Z</time>
      </trkpt>
      <trkpt lat="43.55583" lon="3.82788">
        <ele>19.7</ele>
        <time>2013-05-05T07:47:20Z</time>
      </trkpt>
      <trkpt lat="43.55589" lon="3.82787">
        <ele>19.9</ele>
        <time>2013-05-05T07:47:22Z</time>
      </trkpt>
      <trkpt lat="43.55596" lon="3.82787">
        <ele>20.6</ele>
        <time>2013-05-05T07:47:24Z</time>
      </trkpt>
      <trkpt lat="43.55602" lon="3.82788">
        <ele>21.1</ele>
        <time>2013-05-05T07:47:26Z</time>
      </trkpt>
      <trkpt lat="43.5561" lon="3.8279">
        <ele>21.6</ele>
        <time>2013-05-05T07:47:29Z</time>
      </trkpt>
      <trkpt lat="43.55617" lon="3.82791">
        <ele>21.8</ele>
        <time>2013-05-05T07:47:32Z</time>
      </trkpt>
      <trkpt lat="43.55625" lon="3.82794">
        <ele>23.4</ele>
        <time>2013-05-05T07:47:35Z</time>
      </trkpt>
      <trkpt lat="43.55632" lon="3.82796">
        <ele>23.6</ele>
        <time>2013-05-05T07:47:38Z</time>
      </trkpt>
      <trkpt lat="43.55639" lon="3.82798">
        <ele>25.4</ele>
        <time>2013-05-05T07:47:42Z</time>
      </trkpt>
      <trkpt lat="43.55647" lon="3.82799">
        <ele>27.3</ele>
        <time>2013-05-05T07:47:47Z</time>
      </trkpt>
      <trkpt lat="43.55649" lon="3.82799">
        <ele>27.5</ele>
        <time>2013-05-05T07:47:48Z</time>
      </trkpt>
      <trkpt lat="43.55664" lon="3.82799">
        <ele>28.3</ele>
        <time>2013-05-05T07:47:55Z</time>
      </trkpt>
      <trkpt lat="43.55672" lon="3.828">
        <ele>28.2</ele>
        <time>2013-05-05T07:47:58Z</time>
      </trkpt>
      <trkpt lat="43.5568" lon="3.828">
        <ele>28.2</ele>
        <time>2013-05-05T07:48:01Z</time>
      </trkpt>
      <trkpt lat="43.55687" lon="3.828">
        <ele>28.7</ele>
        <time>2013-05-05T07:48:04Z</time>
      </trkpt>
      <trkpt lat="43.55695" lon="3.828">
        <ele>28.3</ele>
        <time>2013-05-05T07:48:08Z</time>
      </trkpt>
      <trkpt lat="43.55704" lon="3.82799">
        <ele>28.3</ele>
        <time>2013-05-05T07:48:12Z</time>
      </trkpt>
      <trkpt lat="43.55712" lon="3.82798">
        <ele>27.1</ele>
        <time>2013-05-05T07:48:16Z</time>
      </trkpt>
      <trkpt lat="43.55721" lon="3.82796">
        <ele>28.1</ele>
        <time>2013-05-05T07:48:20Z</time>
      </trkpt>
      <trkpt lat="43.55728" lon="3.82793">
        <ele>27.9</ele>
        <time>2013-05-05T07:48:23Z</time>
      </trkpt>
      <trkpt lat="43.55737" lon="3.8279">
        <ele>28.7</ele>
        <time>2013-05-05T07:48:26Z</time>
      </trkpt>
      <trkpt lat="43.55743" lon="3.82789">
        <ele>28.2</ele>
        <time>2013-05-05T07:48:28Z</time>
      </trkpt>
      <trkpt lat="43.55749" lon="3.82788">
        <ele>28.2</ele>
        <time>2013-05-05T07:48:30Z</time>
      </trkpt>
      <trkpt lat="43.55756" lon="3.82787">
        <ele>28.3</ele>
        <time>2013-05-05T07:48:32Z</time>
      </trkpt>
      <trkpt lat="43.55763" lon="3.82787">
        <ele>27.7</ele>
        <time>2013-05-05T07:48:34Z</time>
      </trkpt>
      <trkpt lat="43.55771" lon="3.82786">
        <ele>27.4</ele>
        <time>2013-05-05T07:48:36Z</time>
      </trkpt>
      <trkpt lat="43.55779" lon="3.82784">
        <ele>27.3</ele>
        <time>2013-05-05T07:48:38Z</time>
      </trkpt>
      <trkpt lat="43.55783" lon="3.82782">
        <ele>27.3</ele>
        <time>2013-05-05T07:48:39Z</time>
      </trkpt>
      <trkpt lat="43.55788" lon="3.8278">
        <ele>27</ele>
        <time>2013-05-05T07:48:40Z</time>
      </trkpt>
      <trkpt lat="43.55796" lon="3.82774">
        <ele>26.7</ele>
        <time>2013-05-05T07:48:42Z</time>
      </trkpt>
      <trkpt lat="43.55802" lon="3.8277">
        <ele>25.9</ele>
        <time>2013-05-05T07:48:44Z</time>
      </trkpt>
      <trkpt lat="43.55809" lon="3.82766">
        <ele>25.1</ele>
        <time>2013-05-05T07:48:46Z</time>
      </trkpt>
      <trkpt lat="43.55817" lon="3.82762">
        <ele>24.5</ele>
        <time>2013-05-05T07:48:48Z</time>
      </trkpt>
      <trkpt lat="43.55822" lon="3.8276">
        <ele>24.1</ele>
        <time>2013-05-05T07:48:49Z</time>
      </trkpt>
      <trkpt lat="43.55827" lon="3.82759">
        <ele>23.8</ele>
        <time>2013-05-05T07:48:50Z</time>
      </trkpt>
      <trkpt lat="43.55831" lon="3.82758">
        <ele>23.6</ele>
        <time>2013-05-05T07:48:51Z</time>
      </trkpt>
      <trkpt lat="43.55836" lon="3.82757">
        <ele>23.4</ele>
        <time>2013-05-05T07:48:52Z</time>
      </trkpt>
      <trkpt lat="43.55841" lon="3.82756">
        <ele>23.4</ele>
        <time>2013-05-05T07:48:53Z</time>
      </trkpt>
      <trkpt lat="43.55847" lon="3.82755">
        <ele>23.4</ele>
        <time>2013-05-05T07:48:54Z</time>
      </trkpt>
      <trkpt lat="43.55853" lon="3.82755">
        <ele>23.4</ele>
        <time>2013-05-05T07:48:55Z</time>
      </trkpt>
      <trkpt lat="43.55859" lon="3.82755">
        <ele>22.8</ele>
        <time>2013-05-05T07:48:56Z</time>
      </trkpt>
      <trkpt lat="43.55865" lon="3.82754">
        <ele>22.4</ele>
        <time>2013-05-05T07:48:57Z</time>
      </trkpt>
      <trkpt lat="43.55871" lon="3.82754">
        <ele>22.1</ele>
        <time>2013-05-05T07:48:58Z</time>
      </trkpt>
      <trkpt lat="43.55876" lon="3.82754">
        <ele>21.9</ele>
        <time>2013-05-05T07:48:59Z</time>
      </trkpt>
      <trkpt lat="43.55881" lon="3.82754">
        <ele>21.7</ele>
        <time>2013-05-05T07:49:00Z</time>
      </trkpt>
      <trkpt lat="43.55889" lon="3.82754">
        <ele>21.6</ele>
        <time>2013-05-05T07:49:02Z</time>
      </trkpt>
      <trkpt lat="43.55896" lon="3.82755">
        <ele>21.6</ele>
        <time>2013-05-05T07:49:04Z</time>
      </trkpt>
      <trkpt lat="43.55903" lon="3.82755">
        <ele>22.3</ele>
        <time>2013-05-05T07:49:06Z</time>
      </trkpt>
      <trkpt lat="43.55911" lon="3.82756">
        <ele>22.6</ele>
        <time>2013-05-05T07:49:08Z</time>
      </trkpt>
      <trkpt lat="43.55918" lon="3.82757">
        <ele>22.6</ele>
        <time>2013-05-05T07:49:10Z</time>
      </trkpt>
      <trkpt lat="43.55925" lon="3.82761">
        <ele>23</ele>
        <time>2013-05-05T07:49:12Z</time>
      </trkpt>
      <trkpt lat="43.55932" lon="3.82765">
        <ele>23.7</ele>
        <time>2013-05-05T07:49:14Z</time>
      </trkpt>
      <trkpt lat="43.55938" lon="3.8277">
        <ele>23.8</ele>
        <time>2013-05-05T07:49:16Z</time>
      </trkpt>
      <trkpt lat="43.55944" lon="3.82774">
        <ele>24.4</ele>
        <time>2013-05-05T07:49:18Z</time>
      </trkpt>
      <trkpt lat="43.5595" lon="3.82778">
        <ele>25.1</ele>
        <time>2013-05-05T07:49:20Z</time>
      </trkpt>
      <trkpt lat="43.55956" lon="3.82782">
        <ele>25.6</ele>
        <time>2013-05-05T07:49:22Z</time>
      </trkpt>
      <trkpt lat="43.55961" lon="3.8279">
        <ele>26.8</ele>
        <time>2013-05-05T07:49:25Z</time>
      </trkpt>
      <trkpt lat="43.55963" lon="3.82801">
        <ele>28.4</ele>
        <time>2013-05-05T07:51:31Z</time>
      </trkpt>
      <trkpt lat="43.55961" lon="3.82803">
        <ele>28.6</ele>
        <time>2013-05-05T07:51:32Z</time>
      </trkpt>
      <trkpt lat="43.55953" lon="3.82819">
        <ele>29.2</ele>
        <time>2013-05-05T07:51:37Z</time>
      </trkpt>
      <trkpt lat="43.55949" lon="3.8283">
        <ele>30</ele>
        <time>2013-05-05T07:51:40Z</time>
      </trkpt>
      <trkpt lat="43.55946" lon="3.82838">
        <ele>30.5</ele>
        <time>2013-05-05T07:51:42Z</time>
      </trkpt>
      <trkpt lat="43.55944" lon="3.82847">
        <ele>30.9</ele>
        <time>2013-05-05T07:51:44Z</time>
      </trkpt>
      <trkpt lat="43.55943" lon="3.82856">
        <ele>31.6</ele>
        <time>2013-05-05T07:51:46Z</time>
      </trkpt>
      <trkpt lat="43.55943" lon="3.82865">
        <ele>32</ele>
        <time>2013-05-05T07:51:48Z</time>
      </trkpt>
      <trkpt lat="43.55945" lon="3.82873">
        <ele>32</ele>
        <time>2013-05-05T07:51:50Z</time>
      </trkpt>
      <trkpt lat="43.55947" lon="3.82885">
        <ele>32.2</ele>
        <time>2013-05-05T07:51:53Z</time>
      </trkpt>
      <trkpt lat="43.55951" lon="3.82896">
        <ele>33.1</ele>
        <time>2013-05-05T07:51:56Z</time>
      </trkpt>
      <trkpt lat="43.55953" lon="3.82906">
        <ele>33.8</ele>
        <time>2013-05-05T07:51:59Z</time>
      </trkpt>
      <trkpt lat="43.5595" lon="3.82917">
        <ele>34.5</ele>
        <time>2013-05-05T07:52:02Z</time>
      </trkpt>
      <trkpt lat="43.55946" lon="3.82925">
        <ele>35</ele>
        <time>2013-05-05T07:52:04Z</time>
      </trkpt>
      <trkpt lat="43.55943" lon="3.82934">
        <ele>35.4</ele>
        <time>2013-05-05T07:52:06Z</time>
      </trkpt>
      <trkpt lat="43.55939" lon="3.82942">
        <ele>35.4</ele>
        <time>2013-05-05T07:52:08Z</time>
      </trkpt>
      <trkpt lat="43.55936" lon="3.82951">
        <ele>35.2</ele>
        <time>2013-05-05T07:52:10Z</time>
      </trkpt>
      <trkpt lat="43.55932" lon="3.82959">
        <ele>34.9</ele>
        <time>2013-05-05T07:52:12Z</time>
      </trkpt>
      <trkpt lat="43.55928" lon="3.82967">
        <ele>34.9</ele>
        <time>2013-05-05T07:52:14Z</time>
      </trkpt>
      <trkpt lat="43.55929" lon="3.82979">
        <ele>34.7</ele>
        <time>2013-05-05T07:52:17Z</time>
      </trkpt>
      <trkpt lat="43.55933" lon="3.82989">
        <ele>34.5</ele>
        <time>2013-05-05T07:52:20Z</time>
      </trkpt>
      <trkpt lat="43.55936" lon="3.83">
        <ele>35.1</ele>
        <time>2013-05-05T07:52:23Z</time>
      </trkpt>
      <trkpt lat="43.5594" lon="3.83009">
        <ele>35.7</ele>
        <time>2013-05-05T07:52:26Z</time>
      </trkpt>
      <trkpt lat="43.55942" lon="3.8302">
        <ele>36.5</ele>
        <time>2013-05-05T07:52:29Z</time>
      </trkpt>
      <trkpt lat="43.55944" lon="3.83031">
        <ele>37.5</ele>
        <time>2013-05-05T07:52:32Z</time>
      </trkpt>
      <trkpt lat="43.55946" lon="3.83034">
        <ele>37.4</ele>
        <time>2013-05-05T07:52:33Z</time>
      </trkpt>
      <trkpt lat="43.55955" lon="3.83049">
        <ele>37.7</ele>
        <time>2013-05-05T07:52:38Z</time>
      </trkpt>
      <trkpt lat="43.55953" lon="3.83058">
        <ele>38.5</ele>
        <time>2013-05-05T07:52:41Z</time>
      </trkpt>
      <trkpt lat="43.55949" lon="3.83065">
        <ele>37.8</ele>
        <time>2013-05-05T07:52:43Z</time>
      </trkpt>
      <trkpt lat="43.55944" lon="3.83073">
        <ele>37.4</ele>
        <time>2013-05-05T07:52:45Z</time>
      </trkpt>
      <trkpt lat="43.5594" lon="3.83083">
        <ele>37.1</ele>
        <time>2013-05-05T07:52:47Z</time>
      </trkpt>
      <trkpt lat="43.55934" lon="3.8309">
        <ele>36.8</ele>
        <time>2013-05-05T07:52:49Z</time>
      </trkpt>
      <trkpt lat="43.55931" lon="3.83093">
        <ele>36.6</ele>
        <time>2013-05-05T07:52:50Z</time>
      </trkpt>
      <trkpt lat="43.55925" lon="3.83102">
        <ele>36.2</ele>
        <time>2013-05-05T07:52:52Z</time>
      </trkpt>
      <trkpt lat="43.55922" lon="3.83112">
        <ele>35.8</ele>
        <time>2013-05-05T07:52:54Z</time>
      </trkpt>
      <trkpt lat="43.55919" lon="3.83123">
        <ele>35.5</ele>
        <time>2013-05-05T07:52:56Z</time>
      </trkpt>
      <trkpt lat="43.5592" lon="3.83133">
        <ele>35.2</ele>
        <time>2013-05-05T07:52:58Z</time>
      </trkpt>
      <trkpt lat="43.55926" lon="3.83142">
        <ele>34.8</ele>
        <time>2013-05-05T07:53:01Z</time>
      </trkpt>
      <trkpt lat="43.55928" lon="3.83151">
        <ele>34.5</ele>
        <time>2013-05-05T07:53:03Z</time>
      </trkpt>
      <trkpt lat="43.55927" lon="3.8316">
        <ele>34.6</ele>
        <time>2013-05-05T07:53:05Z</time>
      </trkpt>
      <trkpt lat="43.55926" lon="3.83171">
        <ele>34.2</ele>
        <time>2013-05-05T07:53:08Z</time>
      </trkpt>
      <trkpt lat="43.55923" lon="3.83182">
        <ele>33.3</ele>
        <time>2013-05-05T07:53:11Z</time>
      </trkpt>
      <trkpt lat="43.55929" lon="3.83191">
        <ele>33.3</ele>
        <time>2013-05-05T07:53:15Z</time>
      </trkpt>
      <trkpt lat="43.55932" lon="3.83201">
        <ele>33.2</ele>
        <time>2013-05-05T07:53:18Z</time>
      </trkpt>
      <trkpt lat="43.55938" lon="3.83209">
        <ele>33.1</ele>
        <time>2013-05-05T07:53:21Z</time>
      </trkpt>
      <trkpt lat="43.55941" lon="3.83215">
        <ele>33</ele>
        <time>2013-05-05T07:53:23Z</time>
      </trkpt>
      <trkpt lat="43.55948" lon="3.8322">
        <ele>32.2</ele>
        <time>2013-05-05T07:53:25Z</time>
      </trkpt>
      <trkpt lat="43.55955" lon="3.83223">
        <ele>31.8</ele>
        <time>2013-05-05T07:53:27Z</time>
      </trkpt>
      <trkpt lat="43.55962" lon="3.83227">
        <ele>31.7</ele>
        <time>2013-05-05T07:53:29Z</time>
      </trkpt>
      <trkpt lat="43.5597" lon="3.83232">
        <ele>31.5</ele>
        <time>2013-05-05T07:53:31Z</time>
      </trkpt>
      <trkpt lat="43.55978" lon="3.83235">
        <ele>31.2</ele>
        <time>2013-05-05T07:53:33Z</time>
      </trkpt>
      <trkpt lat="43.55982" lon="3.83236">
        <ele>31.1</ele>
        <time>2013-05-05T07:53:34Z</time>
      </trkpt>
      <trkpt lat="43.55994" lon="3.83239">
        <ele>30.3</ele>
        <time>2013-05-05T07:53:37Z</time>
      </trkpt>
      <trkpt lat="43.56001" lon="3.83243">
        <ele>29.6</ele>
        <time>2013-05-05T07:53:39Z</time>
      </trkpt>
      <trkpt lat="43.56008" lon="3.8325">
        <ele>28.6</ele>
        <time>2013-05-05T07:53:41Z</time>
      </trkpt>
      <trkpt lat="43.56012" lon="3.83255">
        <ele>28.3</ele>
        <time>2013-05-05T07:53:42Z</time>
      </trkpt>
      <trkpt lat="43.56016" lon="3.83261">
        <ele>27.8</ele>
        <time>2013-05-05T07:53:43Z</time>
      </trkpt>
      <trkpt lat="43.56019" lon="3.83267">
        <ele>27.5</ele>
        <time>2013-05-05T07:53:44Z</time>
      </trkpt>
      <trkpt lat="43.5602" lon="3.83274">
        <ele>27.2</ele>
        <time>2013-05-05T07:53:45Z</time>
      </trkpt>
      <trkpt lat="43.56024" lon="3.83284">
        <ele>26.5</ele>
        <time>2013-05-05T07:53:47Z</time>
      </trkpt>
      <trkpt lat="43.56017" lon="3.8329">
        <ele>25.3</ele>
        <time>2013-05-05T07:53:53Z</time>
      </trkpt>
      <trkpt lat="43.5601" lon="3.83292">
        <ele>25.5</ele>
        <time>2013-05-05T07:53:55Z</time>
      </trkpt>
      <trkpt lat="43.56004" lon="3.83299">
        <ele>25.2</ele>
        <time>2013-05-05T07:53:57Z</time>
      </trkpt>
      <trkpt lat="43.55997" lon="3.83305">
        <ele>25.2</ele>
        <time>2013-05-05T07:53:59Z</time>
      </trkpt>
      <trkpt lat="43.55993" lon="3.83306">
        <ele>25.3</ele>
        <time>2013-05-05T07:54:00Z</time>
      </trkpt>
      <trkpt lat="43.55984" lon="3.83306">
        <ele>25</ele>
        <time>2013-05-05T07:54:02Z</time>
      </trkpt>
      <trkpt lat="43.55975" lon="3.83307">
        <ele>24.6</ele>
        <time>2013-05-05T07:54:04Z</time>
      </trkpt>
      <trkpt lat="43.55966" lon="3.83309">
        <ele>24.6</ele>
        <time>2013-05-05T07:54:06Z</time>
      </trkpt>
      <trkpt lat="43.55958" lon="3.83311">
        <ele>24.6</ele>
        <time>2013-05-05T07:54:08Z</time>
      </trkpt>
      <trkpt lat="43.55953" lon="3.83312">
        <ele>24.9</ele>
        <time>2013-05-05T07:54:09Z</time>
      </trkpt>
      <trkpt lat="43.55948" lon="3.83312">
        <ele>25.1</ele>
        <time>2013-05-05T07:54:10Z</time>
      </trkpt>
      <trkpt lat="43.55944" lon="3.83312">
        <ele>25.2</ele>
        <time>2013-05-05T07:54:11Z</time>
      </trkpt>
      <trkpt lat="43.55939" lon="3.83313">
        <ele>25.2</ele>
        <time>2013-05-05T07:54:12Z</time>
      </trkpt>
      <trkpt lat="43.55935" lon="3.83313">
        <ele>25.2</ele>
        <time>2013-05-05T07:54:13Z</time>
      </trkpt>
      <trkpt lat="43.5593" lon="3.83313">
        <ele>25.1</ele>
        <time>2013-05-05T07:54:14Z</time>
      </trkpt>
      <trkpt lat="43.55925" lon="3.83314">
        <ele>25.2</ele>
        <time>2013-05-05T07:54:15Z</time>
      </trkpt>
      <trkpt lat="43.5592" lon="3.83314">
        <ele>25.3</ele>
        <time>2013-05-05T07:54:16Z</time>
      </trkpt>
      <trkpt lat="43.55915" lon="3.83315">
        <ele>25.3</ele>
        <time>2013-05-05T07:54:17Z</time>
      </trkpt>
      <trkpt lat="43.5591" lon="3.83315">
        <ele>25.7</ele>
        <time>2013-05-05T07:54:18Z</time>
      </trkpt>
      <trkpt lat="43.55905" lon="3.83315">
        <ele>26</ele>
        <time>2013-05-05T07:54:19Z</time>
      </trkpt>
      <trkpt lat="43.55901" lon="3.83316">
        <ele>26.2</ele>
        <time>2013-05-05T07:54:20Z</time>
      </trkpt>
      <trkpt lat="43.55896" lon="3.83316">
        <ele>26.3</ele>
        <time>2013-05-05T07:54:21Z</time>
      </trkpt>
      <trkpt lat="43.55891" lon="3.83317">
        <ele>26.4</ele>
        <time>2013-05-05T07:54:22Z</time>
      </trkpt>
      <trkpt lat="43.55886" lon="3.83317">
        <ele>26.4</ele>
        <time>2013-05-05T07:54:23Z</time>
      </trkpt>
      <trkpt lat="43.55881" lon="3.83318">
        <ele>26.5</ele>
        <time>2013-05-05T07:54:24Z</time>
      </trkpt>
      <trkpt lat="43.55877" lon="3.83319">
        <ele>26.7</ele>
        <time>2013-05-05T07:54:25Z</time>
      </trkpt>
      <trkpt lat="43.55872" lon="3.8332">
        <ele>26.8</ele>
        <time>2013-05-05T07:54:26Z</time>
      </trkpt>
      <trkpt lat="43.55867" lon="3.83321">
        <ele>26.9</ele>
        <time>2013-05-05T07:54:27Z</time>
      </trkpt>
      <trkpt lat="43.55863" lon="3.83323">
        <ele>26.9</ele>
        <time>2013-05-05T07:54:28Z</time>
      </trkpt>
      <trkpt lat="43.55858" lon="3.83324">
        <ele>26.9</ele>
        <time>2013-05-05T07:54:29Z</time>
      </trkpt>
      <trkpt lat="43.55853" lon="3.83325">
        <ele>26.9</ele>
        <time>2013-05-05T07:54:30Z</time>
      </trkpt>
      <trkpt lat="43.55849" lon="3.83326">
        <ele>26.9</ele>
        <time>2013-05-05T07:54:31Z</time>
      </trkpt>
      <trkpt lat="43.55844" lon="3.83327">
        <ele>26.9</ele>
        <time>2013-05-05T07:54:32Z</time>
      </trkpt>
      <trkpt lat="43.5584" lon="3.83327">
        <ele>26.9</ele>
        <time>2013-05-05T07:54:33Z</time>
      </trkpt>
      <trkpt lat="43.55835" lon="3.83327">
        <ele>26.6</ele>
        <time>2013-05-05T07:54:34Z</time>
      </trkpt>
      <trkpt lat="43.5583" lon="3.83326">
        <ele>26.3</ele>
        <time>2013-05-05T07:54:35Z</time>
      </trkpt>
      <trkpt lat="43.55825" lon="3.83325">
        <ele>26.2</ele>
        <time>2013-05-05T07:54:36Z</time>
      </trkpt>
      <trkpt lat="43.5582" lon="3.83324">
        <ele>26.2</ele>
        <time>2013-05-05T07:54:37Z</time>
      </trkpt>
      <trkpt lat="43.55815" lon="3.83324">
        <ele>26.2</ele>
        <time>2013-05-05T07:54:38Z</time>
      </trkpt>
      <trkpt lat="43.55811" lon="3.83323">
        <ele>26.2</ele>
        <time>2013-05-05T07:54:39Z</time>
      </trkpt>
      <trkpt lat="43.55806" lon="3.83323">
        <ele>26.5</ele>
        <time>2013-05-05T07:54:40Z</time>
      </trkpt>
      <trkpt lat="43.55801" lon="3.83323">
        <ele>26.7</ele>
        <time>2013-05-05T07:54:41Z</time>
      </trkpt>
      <trkpt lat="43.55796" lon="3.83323">
        <ele>26.9</ele>
        <time>2013-05-05T07:54:42Z</time>
      </trkpt>
      <trkpt lat="43.55791" lon="3.83322">
        <ele>27.1</ele>
        <time>2013-05-05T07:54:43Z</time>
      </trkpt>
      <trkpt lat="43.55786" lon="3.8332">
        <ele>26.9</ele>
        <time>2013-05-05T07:54:44Z</time>
      </trkpt>
      <trkpt lat="43.55781" lon="3.83319">
        <ele>26.8</ele>
        <time>2013-05-05T07:54:45Z</time>
      </trkpt>
      <trkpt lat="43.55776" lon="3.83317">
        <ele>26.7</ele>
        <time>2013-05-05T07:54:46Z</time>
      </trkpt>
      <trkpt lat="43.55771" lon="3.83316">
        <ele>26.7</ele>
        <time>2013-05-05T07:54:47Z</time>
      </trkpt>
      <trkpt lat="43.55766" lon="3.83316">
        <ele>26.8</ele>
        <time>2013-05-05T07:54:48Z</time>
      </trkpt>
      <trkpt lat="43.55761" lon="3.83316">
        <ele>26.8</ele>
        <time>2013-05-05T07:54:49Z</time>
      </trkpt>
      <trkpt lat="43.55756" lon="3.83317">
        <ele>26.4</ele>
        <time>2013-05-05T07:54:50Z</time>
      </trkpt>
      <trkpt lat="43.55751" lon="3.83319">
        <ele>26.2</ele>
        <time>2013-05-05T07:54:51Z</time>
      </trkpt>
      <trkpt lat="43.55746" lon="3.83322">
        <ele>26</ele>
        <time>2013-05-05T07:54:52Z</time>
      </trkpt>
      <trkpt lat="43.55741" lon="3.83326">
        <ele>25.7</ele>
        <time>2013-05-05T07:54:53Z</time>
      </trkpt>
      <trkpt lat="43.55737" lon="3.8333">
        <ele>25.4</ele>
        <time>2013-05-05T07:54:54Z</time>
      </trkpt>
      <trkpt lat="43.55732" lon="3.83333">
        <ele>25.3</ele>
        <time>2013-05-05T07:54:55Z</time>
      </trkpt>
      <trkpt lat="43.55724" lon="3.83337">
        <ele>24.3</ele>
        <time>2013-05-05T07:54:57Z</time>
      </trkpt>
      <trkpt lat="43.55717" lon="3.83344">
        <ele>23.8</ele>
        <time>2013-05-05T07:54:59Z</time>
      </trkpt>
      <trkpt lat="43.55714" lon="3.83349">
        <ele>23.5</ele>
        <time>2013-05-05T07:55:00Z</time>
      </trkpt>
      <trkpt lat="43.55711" lon="3.83353">
        <ele>23.2</ele>
        <time>2013-05-05T07:55:01Z</time>
      </trkpt>
      <trkpt lat="43.55707" lon="3.83358">
        <ele>23</ele>
        <time>2013-05-05T07:55:02Z</time>
      </trkpt>
      <trkpt lat="43.557" lon="3.83364">
        <ele>22.9</ele>
        <time>2013-05-05T07:55:04Z</time>
      </trkpt>
      <trkpt lat="43.55694" lon="3.83373">
        <ele>22.8</ele>
        <time>2013-05-05T07:55:06Z</time>
      </trkpt>
      <trkpt lat="43.55687" lon="3.8338">
        <ele>22.6</ele>
        <time>2013-05-05T07:55:08Z</time>
      </trkpt>
      <trkpt lat="43.55681" lon="3.83386">
        <ele>21.8</ele>
        <time>2013-05-05T07:55:10Z</time>
      </trkpt>
      <trkpt lat="43.55677" lon="3.83393">
        <ele>20.9</ele>
        <time>2013-05-05T07:55:13Z</time>
      </trkpt>
      <trkpt lat="43.55672" lon="3.83397">
        <ele>20.6</ele>
        <time>2013-05-05T07:55:15Z</time>
      </trkpt>
      <trkpt lat="43.5567" lon="3.83407">
        <ele>19.7</ele>
        <time>2013-05-05T07:55:20Z</time>
      </trkpt>
      <trkpt lat="43.55672" lon="3.83416">
        <ele>18.5</ele>
        <time>2013-05-05T07:55:23Z</time>
      </trkpt>
      <trkpt lat="43.55673" lon="3.83428">
        <ele>17.8</ele>
        <time>2013-05-05T07:55:25Z</time>
      </trkpt>
      <trkpt lat="43.55674" lon="3.83434">
        <ele>17.5</ele>
        <time>2013-05-05T07:55:26Z</time>
      </trkpt>
      <trkpt lat="43.55676" lon="3.83444">
        <ele>17.2</ele>
        <time>2013-05-05T07:55:28Z</time>
      </trkpt>
      <trkpt lat="43.55673" lon="3.83455">
        <ele>17.3</ele>
        <time>2013-05-05T07:55:32Z</time>
      </trkpt>
      <trkpt lat="43.55673" lon="3.83465">
        <ele>17.9</ele>
        <time>2013-05-05T07:55:36Z</time>
      </trkpt>
      <trkpt lat="43.55672" lon="3.83468">
        <ele>18</ele>
        <time>2013-05-05T07:55:37Z</time>
      </trkpt>
      <trkpt lat="43.55675" lon="3.83486">
        <ele>19.5</ele>
        <time>2013-05-05T07:55:42Z</time>
      </trkpt>
      <trkpt lat="43.55676" lon="3.83497">
        <ele>20.4</ele>
        <time>2013-05-05T07:55:45Z</time>
      </trkpt>
      <trkpt lat="43.55677" lon="3.83507">
        <ele>20.7</ele>
        <time>2013-05-05T07:55:48Z</time>
      </trkpt>
      <trkpt lat="43.55676" lon="3.83517">
        <ele>21.5</ele>
        <time>2013-05-05T07:55:51Z</time>
      </trkpt>
      <trkpt lat="43.55673" lon="3.83527">
        <ele>22.4</ele>
        <time>2013-05-05T07:55:54Z</time>
      </trkpt>
      <trkpt lat="43.55668" lon="3.83534">
        <ele>22.5</ele>
        <time>2013-05-05T07:55:56Z</time>
      </trkpt>
      <trkpt lat="43.55665" lon="3.83542">
        <ele>22.8</ele>
        <time>2013-05-05T07:55:58Z</time>
      </trkpt>
      <trkpt lat="43.55665" lon="3.83554">
        <ele>23</ele>
        <time>2013-05-05T07:56:01Z</time>
      </trkpt>
      <trkpt lat="43.55671" lon="3.83563">
        <ele>23.2</ele>
        <time>2013-05-05T07:56:04Z</time>
      </trkpt>
      <trkpt lat="43.55671" lon="3.83574">
        <ele>23.6</ele>
        <time>2013-05-05T07:56:07Z</time>
      </trkpt>
      <trkpt lat="43.55669" lon="3.83584">
        <ele>24</ele>
        <time>2013-05-05T07:56:10Z</time>
      </trkpt>
      <trkpt lat="43.55668" lon="3.83593">
        <ele>24.2</ele>
        <time>2013-05-05T07:56:12Z</time>
      </trkpt>
      <trkpt lat="43.55666" lon="3.83605">
        <ele>24.3</ele>
        <time>2013-05-05T07:56:15Z</time>
      </trkpt>
      <trkpt lat="43.55662" lon="3.83616">
        <ele>24.6</ele>
        <time>2013-05-05T07:56:18Z</time>
      </trkpt>
      <trkpt lat="43.55659" lon="3.83627">
        <ele>25</ele>
        <time>2013-05-05T07:56:21Z</time>
      </trkpt>
      <trkpt lat="43.55659" lon="3.83638">
        <ele>25.6</ele>
        <time>2013-05-05T07:56:24Z</time>
      </trkpt>
      <trkpt lat="43.55663" lon="3.83647">
        <ele>26</ele>
        <time>2013-05-05T07:56:30Z</time>
      </trkpt>
      <trkpt lat="43.55667" lon="3.83656">
        <ele>26.3</ele>
        <time>2013-05-05T07:56:34Z</time>
      </trkpt>
      <trkpt lat="43.55671" lon="3.83664">
        <ele>26.6</ele>
        <time>2013-05-05T07:56:37Z</time>
      </trkpt>
      <trkpt lat="43.55672" lon="3.83667">
        <ele>26.7</ele>
        <time>2013-05-05T07:56:38Z</time>
      </trkpt>
      <trkpt lat="43.5568" lon="3.83684">
        <ele>27</ele>
        <time>2013-05-05T07:56:43Z</time>
      </trkpt>
      <trkpt lat="43.55683" lon="3.83691">
        <ele>27.3</ele>
        <time>2013-05-05T07:56:45Z</time>
      </trkpt>
      <trkpt lat="43.55687" lon="3.83698">
        <ele>27.4</ele>
        <time>2013-05-05T07:56:47Z</time>
      </trkpt>
      <trkpt lat="43.55691" lon="3.83705">
        <ele>28.5</ele>
        <time>2013-05-05T07:56:49Z</time>
      </trkpt>
      <trkpt lat="43.55694" lon="3.83712">
        <ele>28.9</ele>
        <time>2013-05-05T07:56:51Z</time>
      </trkpt>
      <trkpt lat="43.55698" lon="3.83719">
        <ele>28.9</ele>
        <time>2013-05-05T07:56:53Z</time>
      </trkpt>
      <trkpt lat="43.55701" lon="3.83727">
        <ele>29.1</ele>
        <time>2013-05-05T07:56:55Z</time>
      </trkpt>
      <trkpt lat="43.55705" lon="3.83734">
        <ele>29.4</ele>
        <time>2013-05-05T07:56:57Z</time>
      </trkpt>
      <trkpt lat="43.55708" lon="3.83741">
        <ele>30</ele>
        <time>2013-05-05T07:56:59Z</time>
      </trkpt>
      <trkpt lat="43.55712" lon="3.83749">
        <ele>30.1</ele>
        <time>2013-05-05T07:57:01Z</time>
      </trkpt>
      <trkpt lat="43.55715" lon="3.83758">
        <ele>30.3</ele>
        <time>2013-05-05T07:57:04Z</time>
      </trkpt>
      <trkpt lat="43.55713" lon="3.83769">
        <ele>30.8</ele>
        <time>2013-05-05T07:57:09Z</time>
      </trkpt>
      <trkpt lat="43.55707" lon="3.83775">
        <ele>30.5</ele>
        <time>2013-05-05T07:57:13Z</time>
      </trkpt>
      <trkpt lat="43.55702" lon="3.83779">
        <ele>29.9</ele>
        <time>2013-05-05T07:57:15Z</time>
      </trkpt>
      <trkpt lat="43.55694" lon="3.83783">
        <ele>29.2</ele>
        <time>2013-05-05T07:57:17Z</time>
      </trkpt>
      <trkpt lat="43.5569" lon="3.83786">
        <ele>28.8</ele>
        <time>2013-05-05T07:57:18Z</time>
      </trkpt>
      <trkpt lat="43.55683" lon="3.83789">
        <ele>28.2</ele>
        <time>2013-05-05T07:57:20Z</time>
      </trkpt>
      <trkpt lat="43.55677" lon="3.83792">
        <ele>27.8</ele>
        <time>2013-05-05T07:57:22Z</time>
      </trkpt>
      <trkpt lat="43.55669" lon="3.83792">
        <ele>27.1</ele>
        <time>2013-05-05T07:57:24Z</time>
      </trkpt>
      <trkpt lat="43.55661" lon="3.83791">
        <ele>26.4</ele>
        <time>2013-05-05T07:57:26Z</time>
      </trkpt>
      <trkpt lat="43.55656" lon="3.83789">
        <ele>26.1</ele>
        <time>2013-05-05T07:57:27Z</time>
      </trkpt>
      <trkpt lat="43.55652" lon="3.83788">
        <ele>25.9</ele>
        <time>2013-05-05T07:57:28Z</time>
      </trkpt>
      <trkpt lat="43.55647" lon="3.83787">
        <ele>25.7</ele>
        <time>2013-05-05T07:57:29Z</time>
      </trkpt>
      <trkpt lat="43.55641" lon="3.83786">
        <ele>25.5</ele>
        <time>2013-05-05T07:57:30Z</time>
      </trkpt>
      <trkpt lat="43.55636" lon="3.83785">
        <ele>25.3</ele>
        <time>2013-05-05T07:57:31Z</time>
      </trkpt>
      <trkpt lat="43.5563" lon="3.83784">
        <ele>25.2</ele>
        <time>2013-05-05T07:57:32Z</time>
      </trkpt>
      <trkpt lat="43.55623" lon="3.83783">
        <ele>24</ele>
        <time>2013-05-05T07:57:34Z</time>
      </trkpt>
      <trkpt lat="43.55614" lon="3.83781">
        <ele>20.8</ele>
        <time>2013-05-05T07:58:10Z</time>
      </trkpt>
      <trkpt lat="43.55614" lon="3.83779">
        <ele>20.7</ele>
        <time>2013-05-05T07:58:11Z</time>
      </trkpt>
      <trkpt lat="43.55601" lon="3.83772">
        <ele>21</ele>
        <time>2013-05-05T07:58:16Z</time>
      </trkpt>
      <trkpt lat="43.55595" lon="3.83769">
        <ele>20.6</ele>
        <time>2013-05-05T07:58:18Z</time>
      </trkpt>
      <trkpt lat="43.55587" lon="3.83764">
        <ele>20</ele>
        <time>2013-05-05T07:58:20Z</time>
      </trkpt>
      <trkpt lat="43.55583" lon="3.83761">
        <ele>20.1</ele>
        <time>2013-05-05T07:58:21Z</time>
      </trkpt>
      <trkpt lat="43.55579" lon="3.83759">
        <ele>20.1</ele>
        <time>2013-05-05T07:58:22Z</time>
      </trkpt>
      <trkpt lat="43.55574" lon="3.83759">
        <ele>20.1</ele>
        <time>2013-05-05T07:58:23Z</time>
      </trkpt>
      <trkpt lat="43.55569" lon="3.83759">
        <ele>19.9</ele>
        <time>2013-05-05T07:58:24Z</time>
      </trkpt>
      <trkpt lat="43.55563" lon="3.8376">
        <ele>19.7</ele>
        <time>2013-05-05T07:58:25Z</time>
      </trkpt>
      <trkpt lat="43.55558" lon="3.83761">
        <ele>19.6</ele>
        <time>2013-05-05T07:58:26Z</time>
      </trkpt>
      <trkpt lat="43.55552" lon="3.83763">
        <ele>19</ele>
        <time>2013-05-05T07:58:27Z</time>
      </trkpt>
      <trkpt lat="43.55547" lon="3.83764">
        <ele>18.6</ele>
        <time>2013-05-05T07:58:28Z</time>
      </trkpt>
      <trkpt lat="43.55541" lon="3.83766">
        <ele>18.3</ele>
        <time>2013-05-05T07:58:29Z</time>
      </trkpt>
      <trkpt lat="43.55535" lon="3.83767">
        <ele>17.8</ele>
        <time>2013-05-05T07:58:30Z</time>
      </trkpt>
      <trkpt lat="43.5553" lon="3.83767">
        <ele>17.5</ele>
        <time>2013-05-05T07:58:31Z</time>
      </trkpt>
      <trkpt lat="43.55523" lon="3.83773">
        <ele>16.4</ele>
        <time>2013-05-05T07:58:33Z</time>
      </trkpt>
      <trkpt lat="43.5552" lon="3.83782">
        <ele>15.4</ele>
        <time>2013-05-05T07:58:35Z</time>
      </trkpt>
      <trkpt lat="43.55519" lon="3.83792">
        <ele>15</ele>
        <time>2013-05-05T07:58:37Z</time>
      </trkpt>
      <trkpt lat="43.55518" lon="3.83802">
        <ele>15.1</ele>
        <time>2013-05-05T07:58:39Z</time>
      </trkpt>
      <trkpt lat="43.55518" lon="3.83813">
        <ele>15</ele>
        <time>2013-05-05T07:58:41Z</time>
      </trkpt>
      <trkpt lat="43.55518" lon="3.83823">
        <ele>14.8</ele>
        <time>2013-05-05T07:58:43Z</time>
      </trkpt>
      <trkpt lat="43.55518" lon="3.83834">
        <ele>14.5</ele>
        <time>2013-05-05T07:58:45Z</time>
      </trkpt>
      <trkpt lat="43.55519" lon="3.83845">
        <ele>14.7</ele>
        <time>2013-05-05T07:58:47Z</time>
      </trkpt>
      <trkpt lat="43.5552" lon="3.83855">
        <ele>14.5</ele>
        <time>2013-05-05T07:58:49Z</time>
      </trkpt>
      <trkpt lat="43.55522" lon="3.83865">
        <ele>14.2</ele>
        <time>2013-05-05T07:58:51Z</time>
      </trkpt>
      <trkpt lat="43.55523" lon="3.83874">
        <ele>14.3</ele>
        <time>2013-05-05T07:58:53Z</time>
      </trkpt>
      <trkpt lat="43.55526" lon="3.83885">
        <ele>14.6</ele>
        <time>2013-05-05T07:58:56Z</time>
      </trkpt>
      <trkpt lat="43.55527" lon="3.83896">
        <ele>14.7</ele>
        <time>2013-05-05T07:58:59Z</time>
      </trkpt>
      <trkpt lat="43.5553" lon="3.83907">
        <ele>14.7</ele>
        <time>2013-05-05T07:59:02Z</time>
      </trkpt>
      <trkpt lat="43.55532" lon="3.83918">
        <ele>14.6</ele>
        <time>2013-05-05T07:59:05Z</time>
      </trkpt>
      <trkpt lat="43.55535" lon="3.83928">
        <ele>14.4</ele>
        <time>2013-05-05T07:59:09Z</time>
      </trkpt>
      <trkpt lat="43.55538" lon="3.83937">
        <ele>14.2</ele>
        <time>2013-05-05T07:59:12Z</time>
      </trkpt>
      <trkpt lat="43.55539" lon="3.83941">
        <ele>14.2</ele>
        <time>2013-05-05T07:59:13Z</time>
      </trkpt>
      <trkpt lat="43.55542" lon="3.83958">
        <ele>14.7</ele>
        <time>2013-05-05T07:59:17Z</time>
      </trkpt>
      <trkpt lat="43.55544" lon="3.83967">
        <ele>15.2</ele>
        <time>2013-05-05T07:59:19Z</time>
      </trkpt>
      <trkpt lat="43.55547" lon="3.83976">
        <ele>15.3</ele>
        <time>2013-05-05T07:59:21Z</time>
      </trkpt>
      <trkpt lat="43.55549" lon="3.83986">
        <ele>15.1</ele>
        <time>2013-05-05T07:59:23Z</time>
      </trkpt>
      <trkpt lat="43.5555" lon="3.83995">
        <ele>15.2</ele>
        <time>2013-05-05T07:59:25Z</time>
      </trkpt>
      <trkpt lat="43.55551" lon="3.84007">
        <ele>15.3</ele>
        <time>2013-05-05T07:59:28Z</time>
      </trkpt>
      <trkpt lat="43.55554" lon="3.84018">
        <ele>14.4</ele>
        <time>2013-05-05T08:00:13Z</time>
      </trkpt>
      <trkpt lat="43.55553" lon="3.84019">
        <ele>14.6</ele>
        <time>2013-05-05T08:00:14Z</time>
      </trkpt>
      <trkpt lat="43.55554" lon="3.84037">
        <ele>14.2</ele>
        <time>2013-05-05T08:00:19Z</time>
      </trkpt>
      <trkpt lat="43.55556" lon="3.84047">
        <ele>14.1</ele>
        <time>2013-05-05T08:00:21Z</time>
      </trkpt>
      <trkpt lat="43.55561" lon="3.84056">
        <ele>13.7</ele>
        <time>2013-05-05T08:00:23Z</time>
      </trkpt>
      <trkpt lat="43.55569" lon="3.84059">
        <ele>12.8</ele>
        <time>2013-05-05T08:00:33Z</time>
      </trkpt>
      <trkpt lat="43.55571" lon="3.84071">
        <ele>12.4</ele>
        <time>2013-05-05T08:00:38Z</time>
      </trkpt>
      <trkpt lat="43.55571" lon="3.84079">
        <ele>12.1</ele>
        <time>2013-05-05T08:00:40Z</time>
      </trkpt>
      <trkpt lat="43.55571" lon="3.84091">
        <ele>11.8</ele>
        <time>2013-05-05T08:00:43Z</time>
      </trkpt>
      <trkpt lat="43.5557" lon="3.84103">
        <ele>12.6</ele>
        <time>2013-05-05T08:00:47Z</time>
      </trkpt>
      <trkpt lat="43.55571" lon="3.84115">
        <ele>13.1</ele>
        <time>2013-05-05T08:00:51Z</time>
      </trkpt>
      <trkpt lat="43.55574" lon="3.84125">
        <ele>13.6</ele>
        <time>2013-05-05T08:00:54Z</time>
      </trkpt>
      <trkpt lat="43.55577" lon="3.84135">
        <ele>13.4</ele>
        <time>2013-05-05T08:00:57Z</time>
      </trkpt>
      <trkpt lat="43.5558" lon="3.84142">
        <ele>13</ele>
        <time>2013-05-05T08:00:59Z</time>
      </trkpt>
      <trkpt lat="43.55583" lon="3.8415">
        <ele>13</ele>
        <time>2013-05-05T08:01:01Z</time>
      </trkpt>
      <trkpt lat="43.55587" lon="3.8416">
        <ele>13</ele>
        <time>2013-05-05T08:01:03Z</time>
      </trkpt>
      <trkpt lat="43.5559" lon="3.84169">
        <ele>13.2</ele>
        <time>2013-05-05T08:01:05Z</time>
      </trkpt>
      <trkpt lat="43.55593" lon="3.84178">
        <ele>13.3</ele>
        <time>2013-05-05T08:01:07Z</time>
      </trkpt>
      <trkpt lat="43.55596" lon="3.84187">
        <ele>13.2</ele>
        <time>2013-05-05T08:01:09Z</time>
      </trkpt>
      <trkpt lat="43.55599" lon="3.84195">
        <ele>12.6</ele>
        <time>2013-05-05T08:01:11Z</time>
      </trkpt>
      <trkpt lat="43.55602" lon="3.84206">
        <ele>12.1</ele>
        <time>2013-05-05T08:01:14Z</time>
      </trkpt>
      <trkpt lat="43.55604" lon="3.8421">
        <ele>12.1</ele>
        <time>2013-05-05T08:01:15Z</time>
      </trkpt>
      <trkpt lat="43.55613" lon="3.84221">
        <ele>12</ele>
        <time>2013-05-05T08:01:20Z</time>
      </trkpt>
      <trkpt lat="43.5562" lon="3.84226">
        <ele>12.6</ele>
        <time>2013-05-05T08:01:23Z</time>
      </trkpt>
      <trkpt lat="43.55629" lon="3.84229">
        <ele>13.5</ele>
        <time>2013-05-05T08:01:26Z</time>
      </trkpt>
      <trkpt lat="43.55635" lon="3.84231">
        <ele>14.1</ele>
        <time>2013-05-05T08:01:28Z</time>
      </trkpt>
      <trkpt lat="43.55641" lon="3.84234">
        <ele>14.5</ele>
        <time>2013-05-05T08:01:30Z</time>
      </trkpt>
      <trkpt lat="43.55648" lon="3.84236">
        <ele>15.3</ele>
        <time>2013-05-05T08:01:32Z</time>
      </trkpt>
      <trkpt lat="43.55654" lon="3.84237">
        <ele>16.1</ele>
        <time>2013-05-05T08:01:34Z</time>
      </trkpt>
      <trkpt lat="43.55662" lon="3.84236">
        <ele>16.1</ele>
        <time>2013-05-05T08:01:37Z</time>
      </trkpt>
      <trkpt lat="43.55669" lon="3.84229">
        <ele>16.3</ele>
        <time>2013-05-05T08:01:40Z</time>
      </trkpt>
      <trkpt lat="43.55673" lon="3.84222">
        <ele>16.9</ele>
        <time>2013-05-05T08:01:42Z</time>
      </trkpt>
      <trkpt lat="43.55677" lon="3.84215">
        <ele>17.5</ele>
        <time>2013-05-05T08:01:44Z</time>
      </trkpt>
      <trkpt lat="43.55681" lon="3.84209">
        <ele>17.9</ele>
        <time>2013-05-05T08:01:46Z</time>
      </trkpt>
      <trkpt lat="43.55687" lon="3.84203">
        <ele>18.7</ele>
        <time>2013-05-05T08:01:48Z</time>
      </trkpt>
      <trkpt lat="43.55692" lon="3.84199">
        <ele>19.6</ele>
        <time>2013-05-05T08:01:50Z</time>
      </trkpt>
      <trkpt lat="43.55698" lon="3.84194">
        <ele>19.3</ele>
        <time>2013-05-05T08:01:52Z</time>
      </trkpt>
      <trkpt lat="43.55704" lon="3.8419">
        <ele>19.2</ele>
        <time>2013-05-05T08:01:54Z</time>
      </trkpt>
      <trkpt lat="43.5571" lon="3.84187">
        <ele>19.5</ele>
        <time>2013-05-05T08:01:56Z</time>
      </trkpt>
      <trkpt lat="43.55717" lon="3.84185">
        <ele>19.9</ele>
        <time>2013-05-05T08:01:58Z</time>
      </trkpt>
      <trkpt lat="43.55724" lon="3.84187">
        <ele>20.3</ele>
        <time>2013-05-05T08:02:00Z</time>
      </trkpt>
      <trkpt lat="43.5573" lon="3.84192">
        <ele>20.7</ele>
        <time>2013-05-05T08:02:02Z</time>
      </trkpt>
      <trkpt lat="43.55734" lon="3.842">
        <ele>20.9</ele>
        <time>2013-05-05T08:02:04Z</time>
      </trkpt>
      <trkpt lat="43.55737" lon="3.84208">
        <ele>21</ele>
        <time>2013-05-05T08:02:06Z</time>
      </trkpt>
      <trkpt lat="43.55739" lon="3.84216">
        <ele>22.4</ele>
        <time>2013-05-05T08:02:08Z</time>
      </trkpt>
      <trkpt lat="43.55742" lon="3.84225">
        <ele>23.2</ele>
        <time>2013-05-05T08:02:10Z</time>
      </trkpt>
      <trkpt lat="43.55744" lon="3.84234">
        <ele>23.7</ele>
        <time>2013-05-05T08:02:12Z</time>
      </trkpt>
      <trkpt lat="43.55746" lon="3.84243">
        <ele>23.9</ele>
        <time>2013-05-05T08:02:14Z</time>
      </trkpt>
      <trkpt lat="43.55748" lon="3.84252">
        <ele>24</ele>
        <time>2013-05-05T08:02:16Z</time>
      </trkpt>
      <trkpt lat="43.5575" lon="3.84257">
        <ele>24.4</ele>
        <time>2013-05-05T08:02:17Z</time>
      </trkpt>
      <trkpt lat="43.55754" lon="3.8427">
        <ele>25.1</ele>
        <time>2013-05-05T08:02:20Z</time>
      </trkpt>
      <trkpt lat="43.55756" lon="3.84279">
        <ele>25.2</ele>
        <time>2013-05-05T08:02:22Z</time>
      </trkpt>
      <trkpt lat="43.55758" lon="3.84288">
        <ele>25.3</ele>
        <time>2013-05-05T08:02:24Z</time>
      </trkpt>
      <trkpt lat="43.5576" lon="3.84297">
        <ele>26.3</ele>
        <time>2013-05-05T08:02:26Z</time>
      </trkpt>
      <trkpt lat="43.55763" lon="3.84306">
        <ele>27.6</ele>
        <time>2013-05-05T08:02:28Z</time>
      </trkpt>
      <trkpt lat="43.55765" lon="3.84315">
        <ele>27.7</ele>
        <time>2013-05-05T08:02:30Z</time>
      </trkpt>
      <trkpt lat="43.55768" lon="3.84324">
        <ele>27.2</ele>
        <time>2013-05-05T08:02:32Z</time>
      </trkpt>
      <trkpt lat="43.55771" lon="3.84333">
        <ele>27.7</ele>
        <time>2013-05-05T08:02:34Z</time>
      </trkpt>
      <trkpt lat="43.55774" lon="3.84342">
        <ele>28.1</ele>
        <time>2013-05-05T08:02:36Z</time>
      </trkpt>
      <trkpt lat="43.55777" lon="3.84351">
        <ele>28.3</ele>
        <time>2013-05-05T08:02:38Z</time>
      </trkpt>
      <trkpt lat="43.55778" lon="3.8436">
        <ele>28.4</ele>
        <time>2013-05-05T08:02:40Z</time>
      </trkpt>
      <trkpt lat="43.55779" lon="3.8437">
        <ele>28.7</ele>
        <time>2013-05-05T08:02:42Z</time>
      </trkpt>
      <trkpt lat="43.55779" lon="3.84379">
        <ele>28.9</ele>
        <time>2013-05-05T08:02:44Z</time>
      </trkpt>
      <trkpt lat="43.5578" lon="3.84387">
        <ele>29.1</ele>
        <time>2013-05-05T08:02:46Z</time>
      </trkpt>
      <trkpt lat="43.55782" lon="3.84396">
        <ele>29.2</ele>
        <time>2013-05-05T08:02:48Z</time>
      </trkpt>
      <trkpt lat="43.55786" lon="3.84406">
        <ele>28.8</ele>
        <time>2013-05-05T08:02:50Z</time>
      </trkpt>
      <trkpt lat="43.5579" lon="3.84417">
        <ele>28.8</ele>
        <time>2013-05-05T08:02:52Z</time>
      </trkpt>
      <trkpt lat="43.55794" lon="3.84426">
        <ele>29</ele>
        <time>2013-05-05T08:02:54Z</time>
      </trkpt>
      <trkpt lat="43.55798" lon="3.84436">
        <ele>29</ele>
        <time>2013-05-05T08:02:56Z</time>
      </trkpt>
      <trkpt lat="43.55802" lon="3.84446">
        <ele>29.2</ele>
        <time>2013-05-05T08:02:58Z</time>
      </trkpt>
      <trkpt lat="43.55806" lon="3.84455">
        <ele>29.6</ele>
        <time>2013-05-05T08:03:00Z</time>
      </trkpt>
      <trkpt lat="43.5581" lon="3.84462">
        <ele>29.5</ele>
        <time>2013-05-05T08:03:02Z</time>
      </trkpt>
      <trkpt lat="43.55815" lon="3.8447">
        <ele>29.3</ele>
        <time>2013-05-05T08:03:04Z</time>
      </trkpt>
      <trkpt lat="43.55819" lon="3.84478">
        <ele>29.3</ele>
        <time>2013-05-05T08:03:06Z</time>
      </trkpt>
      <trkpt lat="43.55817" lon="3.84487">
        <ele>29.5</ele>
        <time>2013-05-05T08:03:08Z</time>
      </trkpt>
      <trkpt lat="43.55812" lon="3.84494">
        <ele>29.7</ele>
        <time>2013-05-05T08:03:10Z</time>
      </trkpt>
      <trkpt lat="43.55806" lon="3.845">
        <ele>29.6</ele>
        <time>2013-05-05T08:03:12Z</time>
      </trkpt>
      <trkpt lat="43.55801" lon="3.84508">
        <ele>29.7</ele>
        <time>2013-05-05T08:03:14Z</time>
      </trkpt>
      <trkpt lat="43.55796" lon="3.84516">
        <ele>29.9</ele>
        <time>2013-05-05T08:03:16Z</time>
      </trkpt>
      <trkpt lat="43.55791" lon="3.84525">
        <ele>29.8</ele>
        <time>2013-05-05T08:03:18Z</time>
      </trkpt>
      <trkpt lat="43.55788" lon="3.84529">
        <ele>29.6</ele>
        <time>2013-05-05T08:03:19Z</time>
      </trkpt>
      <trkpt lat="43.55783" lon="3.8454">
        <ele>29.2</ele>
        <time>2013-05-05T08:03:21Z</time>
      </trkpt>
      <trkpt lat="43.5578" lon="3.84546">
        <ele>29</ele>
        <time>2013-05-05T08:03:22Z</time>
      </trkpt>
      <trkpt lat="43.55778" lon="3.84553">
        <ele>28.8</ele>
        <time>2013-05-05T08:03:23Z</time>
      </trkpt>
      <trkpt lat="43.55776" lon="3.8456">
        <ele>28.2</ele>
        <time>2013-05-05T08:03:24Z</time>
      </trkpt>
      <trkpt lat="43.55775" lon="3.84568">
        <ele>27.8</ele>
        <time>2013-05-05T08:03:25Z</time>
      </trkpt>
      <trkpt lat="43.55773" lon="3.84576">
        <ele>27.4</ele>
        <time>2013-05-05T08:03:26Z</time>
      </trkpt>
      <trkpt lat="43.55772" lon="3.84584">
        <ele>27.2</ele>
        <time>2013-05-05T08:03:27Z</time>
      </trkpt>
      <trkpt lat="43.55772" lon="3.84591">
        <ele>27.1</ele>
        <time>2013-05-05T08:03:28Z</time>
      </trkpt>
      <trkpt lat="43.55772" lon="3.84599">
        <ele>27</ele>
        <time>2013-05-05T08:03:29Z</time>
      </trkpt>
      <trkpt lat="43.55772" lon="3.84607">
        <ele>26.9</ele>
        <time>2013-05-05T08:03:30Z</time>
      </trkpt>
      <trkpt lat="43.55772" lon="3.84614">
        <ele>26.8</ele>
        <time>2013-05-05T08:03:31Z</time>
      </trkpt>
      <trkpt lat="43.55772" lon="3.84621">
        <ele>26.7</ele>
        <time>2013-05-05T08:03:32Z</time>
      </trkpt>
      <trkpt lat="43.55774" lon="3.84627">
        <ele>26.6</ele>
        <time>2013-05-05T08:03:33Z</time>
      </trkpt>
      <trkpt lat="43.55774" lon="3.84634">
        <ele>26.7</ele>
        <time>2013-05-05T08:03:34Z</time>
      </trkpt>
      <trkpt lat="43.55777" lon="3.84645">
        <ele>26.8</ele>
        <time>2013-05-05T08:03:36Z</time>
      </trkpt>
      <trkpt lat="43.55779" lon="3.84651">
        <ele>26.6</ele>
        <time>2013-05-05T08:03:37Z</time>
      </trkpt>
      <trkpt lat="43.55782" lon="3.84663">
        <ele>26.3</ele>
        <time>2013-05-05T08:03:39Z</time>
      </trkpt>
      <trkpt lat="43.55786" lon="3.84673">
        <ele>26.3</ele>
        <time>2013-05-05T08:03:41Z</time>
      </trkpt>
      <trkpt lat="43.55791" lon="3.84682">
        <ele>26.5</ele>
        <time>2013-05-05T08:03:43Z</time>
      </trkpt>
      <trkpt lat="43.55796" lon="3.84691">
        <ele>26.7</ele>
        <time>2013-05-05T08:03:45Z</time>
      </trkpt>
      <trkpt lat="43.55802" lon="3.84699">
        <ele>26.4</ele>
        <time>2013-05-05T08:03:47Z</time>
      </trkpt>
      <trkpt lat="43.55808" lon="3.84706">
        <ele>26.5</ele>
        <time>2013-05-05T08:03:49Z</time>
      </trkpt>
      <trkpt lat="43.55814" lon="3.84712">
        <ele>26.6</ele>
        <time>2013-05-05T08:03:51Z</time>
      </trkpt>
      <trkpt lat="43.55821" lon="3.84716">
        <ele>26.7</ele>
        <time>2013-05-05T08:03:53Z</time>
      </trkpt>
      <trkpt lat="43.55829" lon="3.84721">
        <ele>26.7</ele>
        <time>2013-05-05T08:03:55Z</time>
      </trkpt>
      <trkpt lat="43.55837" lon="3.84725">
        <ele>27.1</ele>
        <time>2013-05-05T08:03:57Z</time>
      </trkpt>
      <trkpt lat="43.55845" lon="3.84729">
        <ele>27.5</ele>
        <time>2013-05-05T08:03:59Z</time>
      </trkpt>
      <trkpt lat="43.55853" lon="3.84733">
        <ele>27.9</ele>
        <time>2013-05-05T08:04:01Z</time>
      </trkpt>
      <trkpt lat="43.55862" lon="3.84736">
        <ele>27.8</ele>
        <time>2013-05-05T08:04:03Z</time>
      </trkpt>
      <trkpt lat="43.55866" lon="3.84737">
        <ele>27.7</ele>
        <time>2013-05-05T08:04:04Z</time>
      </trkpt>
      <trkpt lat="43.55871" lon="3.8474">
        <ele>27.4</ele>
        <time>2013-05-05T08:04:05Z</time>
      </trkpt>
      <trkpt lat="43.55875" lon="3.84741">
        <ele>27.2</ele>
        <time>2013-05-05T08:04:06Z</time>
      </trkpt>
      <trkpt lat="43.5588" lon="3.84743">
        <ele>27</ele>
        <time>2013-05-05T08:04:07Z</time>
      </trkpt>
      <trkpt lat="43.55885" lon="3.84745">
        <ele>26.9</ele>
        <time>2013-05-05T08:04:08Z</time>
      </trkpt>
      <trkpt lat="43.55889" lon="3.84746">
        <ele>27.1</ele>
        <time>2013-05-05T08:04:09Z</time>
      </trkpt>
      <trkpt lat="43.55894" lon="3.84748">
        <ele>27.2</ele>
        <time>2013-05-05T08:04:10Z</time>
      </trkpt>
      <trkpt lat="43.55899" lon="3.8475">
        <ele>27.3</ele>
        <time>2013-05-05T08:04:11Z</time>
      </trkpt>
      <trkpt lat="43.55903" lon="3.84752">
        <ele>27.2</ele>
        <time>2013-05-05T08:04:12Z</time>
      </trkpt>
      <trkpt lat="43.55908" lon="3.84753">
        <ele>27.1</ele>
        <time>2013-05-05T08:04:13Z</time>
      </trkpt>
      <trkpt lat="43.55912" lon="3.84755">
        <ele>27.1</ele>
        <time>2013-05-05T08:04:14Z</time>
      </trkpt>
      <trkpt lat="43.55917" lon="3.84758">
        <ele>27</ele>
        <time>2013-05-05T08:04:15Z</time>
      </trkpt>
      <trkpt lat="43.55921" lon="3.84761">
        <ele>26.9</ele>
        <time>2013-05-05T08:04:16Z</time>
      </trkpt>
      <trkpt lat="43.55924" lon="3.84767">
        <ele>26.8</ele>
        <time>2013-05-05T08:04:17Z</time>
      </trkpt>
      <trkpt lat="43.55927" lon="3.84774">
        <ele>26.5</ele>
        <time>2013-05-05T08:04:18Z</time>
      </trkpt>
      <trkpt lat="43.55927" lon="3.84782">
        <ele>26.2</ele>
        <time>2013-05-05T08:04:19Z</time>
      </trkpt>
      <trkpt lat="43.55926" lon="3.8479">
        <ele>26</ele>
        <time>2013-05-05T08:04:20Z</time>
      </trkpt>
      <trkpt lat="43.55924" lon="3.84798">
        <ele>25.5</ele>
        <time>2013-05-05T08:04:21Z</time>
      </trkpt>
      <trkpt lat="43.55923" lon="3.84807">
        <ele>25.1</ele>
        <time>2013-05-05T08:04:22Z</time>
      </trkpt>
      <trkpt lat="43.55921" lon="3.84816">
        <ele>24.8</ele>
        <time>2013-05-05T08:04:23Z</time>
      </trkpt>
      <trkpt lat="43.55919" lon="3.84825">
        <ele>24.6</ele>
        <time>2013-05-05T08:04:24Z</time>
      </trkpt>
      <trkpt lat="43.55917" lon="3.84833">
        <ele>24</ele>
        <time>2013-05-05T08:04:25Z</time>
      </trkpt>
      <trkpt lat="43.55913" lon="3.8484">
        <ele>23.6</ele>
        <time>2013-05-05T08:04:26Z</time>
      </trkpt>
      <trkpt lat="43.55908" lon="3.84845">
        <ele>23.2</ele>
        <time>2013-05-05T08:04:27Z</time>
      </trkpt>
      <trkpt lat="43.55902" lon="3.84847">
        <ele>22.7</ele>
        <time>2013-05-05T08:04:28Z</time>
      </trkpt>
      <trkpt lat="43.55896" lon="3.84848">
        <ele>22.3</ele>
        <time>2013-05-05T08:04:29Z</time>
      </trkpt>
      <trkpt lat="43.5589" lon="3.84849">
        <ele>22</ele>
        <time>2013-05-05T08:04:30Z</time>
      </trkpt>
      <trkpt lat="43.55883" lon="3.8485">
        <ele>21.7</ele>
        <time>2013-05-05T08:04:31Z</time>
      </trkpt>
      <trkpt lat="43.55877" lon="3.8485">
        <ele>21.5</ele>
        <time>2013-05-05T08:04:32Z</time>
      </trkpt>
      <trkpt lat="43.55871" lon="3.8485">
        <ele>21.3</ele>
        <time>2013-05-05T08:04:33Z</time>
      </trkpt>
      <trkpt lat="43.55864" lon="3.8485">
        <ele>21.4</ele>
        <time>2013-05-05T08:04:34Z</time>
      </trkpt>
      <trkpt lat="43.55857" lon="3.8485">
        <ele>21.5</ele>
        <time>2013-05-05T08:04:35Z</time>
      </trkpt>
      <trkpt lat="43.55851" lon="3.84851">
        <ele>21.5</ele>
        <time>2013-05-05T08:04:36Z</time>
      </trkpt>
      <trkpt lat="43.55844" lon="3.84851">
        <ele>21.2</ele>
        <time>2013-05-05T08:04:37Z</time>
      </trkpt>
      <trkpt lat="43.55837" lon="3.84852">
        <ele>21.1</ele>
        <time>2013-05-05T08:04:38Z</time>
      </trkpt>
      <trkpt lat="43.5583" lon="3.84853">
        <ele>20.9</ele>
        <time>2013-05-05T08:04:39Z</time>
      </trkpt>
      <trkpt lat="43.55823" lon="3.84854">
        <ele>20.8</ele>
        <time>2013-05-05T08:04:40Z</time>
      </trkpt>
      <trkpt lat="43.55815" lon="3.84855">
        <ele>20.3</ele>
        <time>2013-05-05T08:04:41Z</time>
      </trkpt>
      <trkpt lat="43.55808" lon="3.84856">
        <ele>19.9</ele>
        <time>2013-05-05T08:04:42Z</time>
      </trkpt>
      <trkpt lat="43.558" lon="3.84858">
        <ele>19.6</ele>
        <time>2013-05-05T08:04:43Z</time>
      </trkpt>
      <trkpt lat="43.55793" lon="3.84859">
        <ele>19.5</ele>
        <time>2013-05-05T08:04:44Z</time>
      </trkpt>
      <trkpt lat="43.55785" lon="3.8486">
        <ele>19.5</ele>
        <time>2013-05-05T08:04:45Z</time>
      </trkpt>
      <trkpt lat="43.55778" lon="3.8486">
        <ele>19.5</ele>
        <time>2013-05-05T08:04:46Z</time>
      </trkpt>
      <trkpt lat="43.55771" lon="3.84861">
        <ele>19.4</ele>
        <time>2013-05-05T08:04:47Z</time>
      </trkpt>
      <trkpt lat="43.55764" lon="3.84861">
        <ele>19.3</ele>
        <time>2013-05-05T08:04:48Z</time>
      </trkpt>
      <trkpt lat="43.55757" lon="3.84862">
        <ele>19.2</ele>
        <time>2013-05-05T08:04:49Z</time>
      </trkpt>
      <trkpt lat="43.5575" lon="3.84862">
        <ele>19.2</ele>
        <time>2013-05-05T08:04:50Z</time>
      </trkpt>
      <trkpt lat="43.55743" lon="3.84863">
        <ele>19.2</ele>
        <time>2013-05-05T08:04:51Z</time>
      </trkpt>
      <trkpt lat="43.55736" lon="3.84864">
        <ele>19.2</ele>
        <time>2013-05-05T08:04:52Z</time>
      </trkpt>
      <trkpt lat="43.55729" lon="3.84864">
        <ele>19.4</ele>
        <time>2013-05-05T08:04:53Z</time>
      </trkpt>
      <trkpt lat="43.55723" lon="3.84864">
        <ele>19.6</ele>
        <time>2013-05-05T08:04:54Z</time>
      </trkpt>
      <trkpt lat="43.55716" lon="3.84865">
        <ele>19.7</ele>
        <time>2013-05-05T08:04:55Z</time>
      </trkpt>
      <trkpt lat="43.55709" lon="3.84866">
        <ele>19.8</ele>
        <time>2013-05-05T08:04:56Z</time>
      </trkpt>
      <trkpt lat="43.55702" lon="3.84866">
        <ele>19.8</ele>
        <time>2013-05-05T08:04:57Z</time>
      </trkpt>
      <trkpt lat="43.55695" lon="3.84867">
        <ele>19.9</ele>
        <time>2013-05-05T08:04:58Z</time>
      </trkpt>
      <trkpt lat="43.55688" lon="3.84867">
        <ele>19.9</ele>
        <time>2013-05-05T08:04:59Z</time>
      </trkpt>
      <trkpt lat="43.55681" lon="3.84868">
        <ele>20.2</ele>
        <time>2013-05-05T08:05:00Z</time>
      </trkpt>
      <trkpt lat="43.55674" lon="3.84868">
        <ele>20.4</ele>
        <time>2013-05-05T08:05:01Z</time>
      </trkpt>
      <trkpt lat="43.55667" lon="3.84868">
        <ele>20.5</ele>
        <time>2013-05-05T08:05:02Z</time>
      </trkpt>
      <trkpt lat="43.55659" lon="3.84868">
        <ele>20.2</ele>
        <time>2013-05-05T08:05:03Z</time>
      </trkpt>
      <trkpt lat="43.55652" lon="3.84867">
        <ele>20</ele>
        <time>2013-05-05T08:05:04Z</time>
      </trkpt>
      <trkpt lat="43.55645" lon="3.84864">
        <ele>19.8</ele>
        <time>2013-05-05T08:05:05Z</time>
      </trkpt>
      <trkpt lat="43.55638" lon="3.84862">
        <ele>20</ele>
        <time>2013-05-05T08:05:06Z</time>
      </trkpt>
      <trkpt lat="43.55631" lon="3.84859">
        <ele>20.1</ele>
        <time>2013-05-05T08:05:07Z</time>
      </trkpt>
      <trkpt lat="43.55624" lon="3.84855">
        <ele>20.2</ele>
        <time>2013-05-05T08:05:08Z</time>
      </trkpt>
      <trkpt lat="43.55618" lon="3.84851">
        <ele>20</ele>
        <time>2013-05-05T08:05:09Z</time>
      </trkpt>
      <trkpt lat="43.55611" lon="3.84847">
        <ele>19.9</ele>
        <time>2013-05-05T08:05:10Z</time>
      </trkpt>
      <trkpt lat="43.55605" lon="3.84842">
        <ele>19.7</ele>
        <time>2013-05-05T08:05:11Z</time>
      </trkpt>
      <trkpt lat="43.55599" lon="3.84836">
        <ele>19.6</ele>
        <time>2013-05-05T08:05:12Z</time>
      </trkpt>
      <trkpt lat="43.55593" lon="3.8483">
        <ele>19.5</ele>
        <time>2013-05-05T08:05:13Z</time>
      </trkpt>
      <trkpt lat="43.55587" lon="3.84824">
        <ele>19.4</ele>
        <time>2013-05-05T08:05:14Z</time>
      </trkpt>
      <trkpt lat="43.55582" lon="3.84817">
        <ele>19.4</ele>
        <time>2013-05-05T08:05:15Z</time>
      </trkpt>
      <trkpt lat="43.55576" lon="3.8481">
        <ele>19.7</ele>
        <time>2013-05-05T08:05:16Z</time>
      </trkpt>
      <trkpt lat="43.55572" lon="3.84803">
        <ele>19.9</ele>
        <time>2013-05-05T08:05:17Z</time>
      </trkpt>
      <trkpt lat="43.55567" lon="3.84795">
        <ele>20</ele>
        <time>2013-05-05T08:05:18Z</time>
      </trkpt>
      <trkpt lat="43.55563" lon="3.84788">
        <ele>20.2</ele>
        <time>2013-05-05T08:05:19Z</time>
      </trkpt>
      <trkpt lat="43.55559" lon="3.8478">
        <ele>20.3</ele>
        <time>2013-05-05T08:05:20Z</time>
      </trkpt>
      <trkpt lat="43.55556" lon="3.84772">
        <ele>20.3</ele>
        <time>2013-05-05T08:05:21Z</time>
      </trkpt>
      <trkpt lat="43.55553" lon="3.84764">
        <ele>20.5</ele>
        <time>2013-05-05T08:05:22Z</time>
      </trkpt>
      <trkpt lat="43.5555" lon="3.84755">
        <ele>20.5</ele>
        <time>2013-05-05T08:05:23Z</time>
      </trkpt>
      <trkpt lat="43.55547" lon="3.84747">
        <ele>20.6</ele>
        <time>2013-05-05T08:05:24Z</time>
      </trkpt>
      <trkpt lat="43.55545" lon="3.84738">
        <ele>20.7</ele>
        <time>2013-05-05T08:05:25Z</time>
      </trkpt>
      <trkpt lat="43.55542" lon="3.84729">
        <ele>20.8</ele>
        <time>2013-05-05T08:05:26Z</time>
      </trkpt>
      <trkpt lat="43.5554" lon="3.84721">
        <ele>20.8</ele>
        <time>2013-05-05T08:05:27Z</time>
      </trkpt>
      <trkpt lat="43.55537" lon="3.84713">
        <ele>20.8</ele>
        <time>2013-05-05T08:05:28Z</time>
      </trkpt>
      <trkpt lat="43.55535" lon="3.84705">
        <ele>20.8</ele>
        <time>2013-05-05T08:05:29Z</time>
      </trkpt>
      <trkpt lat="43.55533" lon="3.84697">
        <ele>20.8</ele>
        <time>2013-05-05T08:05:30Z</time>
      </trkpt>
      <trkpt lat="43.55531" lon="3.84689">
        <ele>20.7</ele>
        <time>2013-05-05T08:05:31Z</time>
      </trkpt>
      <trkpt lat="43.55528" lon="3.84681">
        <ele>20.8</ele>
        <time>2013-05-05T08:05:32Z</time>
      </trkpt>
      <trkpt lat="43.55526" lon="3.84673">
        <ele>20.8</ele>
        <time>2013-05-05T08:05:33Z</time>
      </trkpt>
      <trkpt lat="43.55524" lon="3.84665">
        <ele>20.8</ele>
        <time>2013-05-05T08:05:34Z</time>
      </trkpt>
      <trkpt lat="43.55521" lon="3.84657">
        <ele>20.8</ele>
        <time>2013-05-05T08:05:35Z</time>
      </trkpt>
      <trkpt lat="43.55519" lon="3.84649">
        <ele>20.9</ele>
        <time>2013-05-05T08:05:36Z</time>
      </trkpt>
      <trkpt lat="43.55517" lon="3.84641">
        <ele>20.9</ele>
        <time>2013-05-05T08:05:37Z</time>
      </trkpt>
      <trkpt lat="43.55515" lon="3.84633">
        <ele>20.8</ele>
        <time>2013-05-05T08:05:38Z</time>
      </trkpt>
      <trkpt lat="43.55512" lon="3.84625">
        <ele>20.7</ele>
        <time>2013-05-05T08:05:39Z</time>
      </trkpt>
      <trkpt lat="43.5551" lon="3.84616">
        <ele>20.6</ele>
        <time>2013-05-05T08:05:40Z</time>
      </trkpt>
      <trkpt lat="43.55508" lon="3.84608">
        <ele>20.4</ele>
        <time>2013-05-05T08:05:41Z</time>
      </trkpt>
      <trkpt lat="43.55505" lon="3.84599">
        <ele>20.2</ele>
        <time>2013-05-05T08:05:42Z</time>
      </trkpt>
      <trkpt lat="43.55503" lon="3.8459">
        <ele>20.1</ele>
        <time>2013-05-05T08:05:43Z</time>
      </trkpt>
      <trkpt lat="43.555" lon="3.84581">
        <ele>19.9</ele>
        <time>2013-05-05T08:05:44Z</time>
      </trkpt>
      <trkpt lat="43.55497" lon="3.84572">
        <ele>19.8</ele>
        <time>2013-05-05T08:05:45Z</time>
      </trkpt>
      <trkpt lat="43.55495" lon="3.84562">
        <ele>19.7</ele>
        <time>2013-05-05T08:05:46Z</time>
      </trkpt>
      <trkpt lat="43.55492" lon="3.84553">
        <ele>19.7</ele>
        <time>2013-05-05T08:05:47Z</time>
      </trkpt>
      <trkpt lat="43.55489" lon="3.84544">
        <ele>19.3</ele>
        <time>2013-05-05T08:05:48Z</time>
      </trkpt>
      <trkpt lat="43.55486" lon="3.84535">
        <ele>19</ele>
        <time>2013-05-05T08:05:49Z</time>
      </trkpt>
      <trkpt lat="43.55482" lon="3.84526">
        <ele>18.8</ele>
        <time>2013-05-05T08:05:50Z</time>
      </trkpt>
      <trkpt lat="43.55479" lon="3.84517">
        <ele>18.9</ele>
        <time>2013-05-05T08:05:51Z</time>
      </trkpt>
      <trkpt lat="43.55476" lon="3.84509">
        <ele>19</ele>
        <time>2013-05-05T08:05:52Z</time>
      </trkpt>
      <trkpt lat="43.55474" lon="3.84501">
        <ele>19.1</ele>
        <time>2013-05-05T08:05:53Z</time>
      </trkpt>
      <trkpt lat="43.55471" lon="3.84494">
        <ele>19</ele>
        <time>2013-05-05T08:05:54Z</time>
      </trkpt>
      <trkpt lat="43.5547" lon="3.84488">
        <ele>19</ele>
        <time>2013-05-05T08:05:55Z</time>
      </trkpt>
      <trkpt lat="43.55466" lon="3.84476">
        <ele>18.6</ele>
        <time>2013-05-05T08:05:57Z</time>
      </trkpt>
      <trkpt lat="43.5546" lon="3.8447">
        <ele>18</ele>
        <time>2013-05-05T08:05:59Z</time>
      </trkpt>
      <trkpt lat="43.55452" lon="3.84472">
        <ele>17.6</ele>
        <time>2013-05-05T08:06:01Z</time>
      </trkpt>
      <trkpt lat="43.55445" lon="3.84476">
        <ele>17.4</ele>
        <time>2013-05-05T08:06:03Z</time>
      </trkpt>
      <trkpt lat="43.55441" lon="3.8448">
        <ele>17.1</ele>
        <time>2013-05-05T08:06:04Z</time>
      </trkpt>
      <trkpt lat="43.55437" lon="3.84484">
        <ele>16.8</ele>
        <time>2013-05-05T08:06:05Z</time>
      </trkpt>
      <trkpt lat="43.55433" lon="3.84488">
        <ele>16.6</ele>
        <time>2013-05-05T08:06:06Z</time>
      </trkpt>
      <trkpt lat="43.5543" lon="3.84492">
        <ele>16.1</ele>
        <time>2013-05-05T08:06:07Z</time>
      </trkpt>
      <trkpt lat="43.55426" lon="3.84496">
        <ele>15.7</ele>
        <time>2013-05-05T08:06:08Z</time>
      </trkpt>
      <trkpt lat="43.55421" lon="3.84499">
        <ele>15.4</ele>
        <time>2013-05-05T08:06:09Z</time>
      </trkpt>
      <trkpt lat="43.55417" lon="3.84502">
        <ele>15.2</ele>
        <time>2013-05-05T08:06:10Z</time>
      </trkpt>
      <trkpt lat="43.55413" lon="3.84506">
        <ele>15</ele>
        <time>2013-05-05T08:06:11Z</time>
      </trkpt>
      <trkpt lat="43.55409" lon="3.8451">
        <ele>14.8</ele>
        <time>2013-05-05T08:06:12Z</time>
      </trkpt>
      <trkpt lat="43.55405" lon="3.84514">
        <ele>14.6</ele>
        <time>2013-05-05T08:06:13Z</time>
      </trkpt>
      <trkpt lat="43.55401" lon="3.84518">
        <ele>14.5</ele>
        <time>2013-05-05T08:06:14Z</time>
      </trkpt>
      <trkpt lat="43.55397" lon="3.84521">
        <ele>14.4</ele>
        <time>2013-05-05T08:06:15Z</time>
      </trkpt>
      <trkpt lat="43.55393" lon="3.84525">
        <ele>14.9</ele>
        <time>2013-05-05T08:06:16Z</time>
      </trkpt>
      <trkpt lat="43.55389" lon="3.84529">
        <ele>15.2</ele>
        <time>2013-05-05T08:06:17Z</time>
      </trkpt>
      <trkpt lat="43.55385" lon="3.84533">
        <ele>15.4</ele>
        <time>2013-05-05T08:06:18Z</time>
      </trkpt>
      <trkpt lat="43.55381" lon="3.84537">
        <ele>15.4</ele>
        <time>2013-05-05T08:06:19Z</time>
      </trkpt>
      <trkpt lat="43.55377" lon="3.8454">
        <ele>15.4</ele>
        <time>2013-05-05T08:06:20Z</time>
      </trkpt>
      <trkpt lat="43.55373" lon="3.84544">
        <ele>15.3</ele>
        <time>2013-05-05T08:06:21Z</time>
      </trkpt>
      <trkpt lat="43.55369" lon="3.84548">
        <ele>15.3</ele>
        <time>2013-05-05T08:06:22Z</time>
      </trkpt>
      <trkpt lat="43.55365" lon="3.84552">
        <ele>14.8</ele>
        <time>2013-05-05T08:06:23Z</time>
      </trkpt>
      <trkpt lat="43.55361" lon="3.84555">
        <ele>14.5</ele>
        <time>2013-05-05T08:06:24Z</time>
      </trkpt>
      <trkpt lat="43.55357" lon="3.84559">
        <ele>14.3</ele>
        <time>2013-05-05T08:06:25Z</time>
      </trkpt>
      <trkpt lat="43.55353" lon="3.84563">
        <ele>14.2</ele>
        <time>2013-05-05T08:06:26Z</time>
      </trkpt>
      <trkpt lat="43.55348" lon="3.84566">
        <ele>14.1</ele>
        <time>2013-05-05T08:06:27Z</time>
      </trkpt>
      <trkpt lat="43.55344" lon="3.8457">
        <ele>14.1</ele>
        <time>2013-05-05T08:06:28Z</time>
      </trkpt>
      <trkpt lat="43.55339" lon="3.84571">
        <ele>14.1</ele>
        <time>2013-05-05T08:06:29Z</time>
      </trkpt>
      <trkpt lat="43.55334" lon="3.8457">
        <ele>14.1</ele>
        <time>2013-05-05T08:06:30Z</time>
      </trkpt>
      <trkpt lat="43.5533" lon="3.84566">
        <ele>14.1</ele>
        <time>2013-05-05T08:06:31Z</time>
      </trkpt>
      <trkpt lat="43.55326" lon="3.84562">
        <ele>14.3</ele>
        <time>2013-05-05T08:06:32Z</time>
      </trkpt>
      <trkpt lat="43.55323" lon="3.84557">
        <ele>14.5</ele>
        <time>2013-05-05T08:06:33Z</time>
      </trkpt>
      <trkpt lat="43.5532" lon="3.84552">
        <ele>14.6</ele>
        <time>2013-05-05T08:06:34Z</time>
      </trkpt>
      <trkpt lat="43.55317" lon="3.84547">
        <ele>14.7</ele>
        <time>2013-05-05T08:06:35Z</time>
      </trkpt>
      <trkpt lat="43.55315" lon="3.84542">
        <ele>14.7</ele>
        <time>2013-05-05T08:06:36Z</time>
      </trkpt>
      <trkpt lat="43.55309" lon="3.84532">
        <ele>14.8</ele>
        <time>2013-05-05T08:06:38Z</time>
      </trkpt>
      <trkpt lat="43.55304" lon="3.84522">
        <ele>14.7</ele>
        <time>2013-05-05T08:06:40Z</time>
      </trkpt>
      <trkpt lat="43.55298" lon="3.84514">
        <ele>14.5</ele>
        <time>2013-05-05T08:06:42Z</time>
      </trkpt>
      <trkpt lat="43.55294" lon="3.8451">
        <ele>14.4</ele>
        <time>2013-05-05T08:06:43Z</time>
      </trkpt>
      <trkpt lat="43.5529" lon="3.84508">
        <ele>14.3</ele>
        <time>2013-05-05T08:06:44Z</time>
      </trkpt>
      <trkpt lat="43.55285" lon="3.84506">
        <ele>14.5</ele>
        <time>2013-05-05T08:06:45Z</time>
      </trkpt>
      <trkpt lat="43.55281" lon="3.84504">
        <ele>14.5</ele>
        <time>2013-05-05T08:06:46Z</time>
      </trkpt>
      <trkpt lat="43.55276" lon="3.84502">
        <ele>14.6</ele>
        <time>2013-05-05T08:06:47Z</time>
      </trkpt>
      <trkpt lat="43.55272" lon="3.84499">
        <ele>14.5</ele>
        <time>2013-05-05T08:06:48Z</time>
      </trkpt>
      <trkpt lat="43.55264" lon="3.84493">
        <ele>14.5</ele>
        <time>2013-05-05T08:06:50Z</time>
      </trkpt>
      <trkpt lat="43.55258" lon="3.84485">
        <ele>14.7</ele>
        <time>2013-05-05T08:06:52Z</time>
      </trkpt>
      <trkpt lat="43.55252" lon="3.84477">
        <ele>14.9</ele>
        <time>2013-05-05T08:06:54Z</time>
      </trkpt>
      <trkpt lat="43.55246" lon="3.84468">
        <ele>15.8</ele>
        <time>2013-05-05T08:06:56Z</time>
      </trkpt>
      <trkpt lat="43.55241" lon="3.84459">
        <ele>16.2</ele>
        <time>2013-05-05T08:06:58Z</time>
      </trkpt>
      <trkpt lat="43.55235" lon="3.8445">
        <ele>16.3</ele>
        <time>2013-05-05T08:07:00Z</time>
      </trkpt>
      <trkpt lat="43.55229" lon="3.84441">
        <ele>16.7</ele>
        <time>2013-05-05T08:07:02Z</time>
      </trkpt>
      <trkpt lat="43.55224" lon="3.84432">
        <ele>17.3</ele>
        <time>2013-05-05T08:07:04Z</time>
      </trkpt>
      <trkpt lat="43.55218" lon="3.84422">
        <ele>17.9</ele>
        <time>2013-05-05T08:07:06Z</time>
      </trkpt>
      <trkpt lat="43.55213" lon="3.84412">
        <ele>17.8</ele>
        <time>2013-05-05T08:07:08Z</time>
      </trkpt>
      <trkpt lat="43.55209" lon="3.84402">
        <ele>17.8</ele>
        <time>2013-05-05T08:07:10Z</time>
      </trkpt>
      <trkpt lat="43.55205" lon="3.84391">
        <ele>18.6</ele>
        <time>2013-05-05T08:07:12Z</time>
      </trkpt>
      <trkpt lat="43.55202" lon="3.84381">
        <ele>18.8</ele>
        <time>2013-05-05T08:07:14Z</time>
      </trkpt>
      <trkpt lat="43.55199" lon="3.84372">
        <ele>18.7</ele>
        <time>2013-05-05T08:07:16Z</time>
      </trkpt>
      <trkpt lat="43.55193" lon="3.84367">
        <ele>19.3</ele>
        <time>2013-05-05T08:07:18Z</time>
      </trkpt>
      <trkpt lat="43.55188" lon="3.84362">
        <ele>19.6</ele>
        <time>2013-05-05T08:07:20Z</time>
      </trkpt>
      <trkpt lat="43.55181" lon="3.84354">
        <ele>20.2</ele>
        <time>2013-05-05T08:07:23Z</time>
      </trkpt>
      <trkpt lat="43.55179" lon="3.84352">
        <ele>20.5</ele>
        <time>2013-05-05T08:07:24Z</time>
      </trkpt>
      <trkpt lat="43.55168" lon="3.84339">
        <ele>22.1</ele>
        <time>2013-05-05T08:07:31Z</time>
      </trkpt>
      <trkpt lat="43.55162" lon="3.8433">
        <ele>22</ele>
        <time>2013-05-05T08:07:37Z</time>
      </trkpt>
      <trkpt lat="43.55166" lon="3.84337">
        <ele>21.8</ele>
        <time>2013-05-05T08:07:45Z</time>
      </trkpt>
      <trkpt lat="43.55171" lon="3.84342">
        <ele>21.9</ele>
        <time>2013-05-05T08:07:47Z</time>
      </trkpt>
      <trkpt lat="43.55176" lon="3.84349">
        <ele>21.8</ele>
        <time>2013-05-05T08:07:49Z</time>
      </trkpt>
      <trkpt lat="43.5518" lon="3.84353">
        <ele>21.7</ele>
        <time>2013-05-05T08:07:50Z</time>
      </trkpt>
      <trkpt lat="43.55184" lon="3.84357">
        <ele>21.7</ele>
        <time>2013-05-05T08:07:51Z</time>
      </trkpt>
      <trkpt lat="43.55188" lon="3.84361">
        <ele>21.1</ele>
        <time>2013-05-05T08:07:52Z</time>
      </trkpt>
      <trkpt lat="43.55192" lon="3.84365">
        <ele>20.6</ele>
        <time>2013-05-05T08:07:53Z</time>
      </trkpt>
      <trkpt lat="43.55198" lon="3.84374">
        <ele>20.3</ele>
        <time>2013-05-05T08:07:55Z</time>
      </trkpt>
      <trkpt lat="43.55197" lon="3.84386">
        <ele>19.1</ele>
        <time>2013-05-05T08:08:01Z</time>
      </trkpt>
      <trkpt lat="43.55189" lon="3.84389">
        <ele>19.8</ele>
        <time>2013-05-05T08:08:05Z</time>
      </trkpt>
      <trkpt lat="43.55182" lon="3.84392">
        <ele>19.9</ele>
        <time>2013-05-05T08:08:08Z</time>
      </trkpt>
      <trkpt lat="43.55175" lon="3.84396">
        <ele>20.3</ele>
        <time>2013-05-05T08:08:11Z</time>
      </trkpt>
      <trkpt lat="43.55169" lon="3.844">
        <ele>20.6</ele>
        <time>2013-05-05T08:08:14Z</time>
      </trkpt>
      <trkpt lat="43.55163" lon="3.84405">
        <ele>20.6</ele>
        <time>2013-05-05T08:08:17Z</time>
      </trkpt>
      <trkpt lat="43.55156" lon="3.84407">
        <ele>21.7</ele>
        <time>2013-05-05T08:08:20Z</time>
      </trkpt>
      <trkpt lat="43.5515" lon="3.84411">
        <ele>21.6</ele>
        <time>2013-05-05T08:08:23Z</time>
      </trkpt>
      <trkpt lat="43.55143" lon="3.84411">
        <ele>21.9</ele>
        <time>2013-05-05T08:08:26Z</time>
      </trkpt>
      <trkpt lat="43.5514" lon="3.84411">
        <ele>22.1</ele>
        <time>2013-05-05T08:08:27Z</time>
      </trkpt>
      <trkpt lat="43.55129" lon="3.84417">
        <ele>23.1</ele>
        <time>2013-05-05T08:08:32Z</time>
      </trkpt>
      <trkpt lat="43.55121" lon="3.84413">
        <ele>23.8</ele>
        <time>2013-05-05T08:08:36Z</time>
      </trkpt>
      <trkpt lat="43.55115" lon="3.84408">
        <ele>24.8</ele>
        <time>2013-05-05T08:08:39Z</time>
      </trkpt>
      <trkpt lat="43.55107" lon="3.84407">
        <ele>26.2</ele>
        <time>2013-05-05T08:08:42Z</time>
      </trkpt>
      <trkpt lat="43.551" lon="3.84405">
        <ele>24.5</ele>
        <time>2013-05-05T08:08:45Z</time>
      </trkpt>
      <trkpt lat="43.55093" lon="3.84409">
        <ele>24.2</ele>
        <time>2013-05-05T08:08:48Z</time>
      </trkpt>
      <trkpt lat="43.55085" lon="3.84411">
        <ele>25.9</ele>
        <time>2013-05-05T08:08:51Z</time>
      </trkpt>
      <trkpt lat="43.55077" lon="3.84413">
        <ele>26.5</ele>
        <time>2013-05-05T08:08:54Z</time>
      </trkpt>
      <trkpt lat="43.55072" lon="3.84417">
        <ele>26.6</ele>
        <time>2013-05-05T08:08:56Z</time>
      </trkpt>
      <trkpt lat="43.55065" lon="3.84426">
        <ele>26.7</ele>
        <time>2013-05-05T08:08:59Z</time>
      </trkpt>
      <trkpt lat="43.55059" lon="3.84434">
        <ele>27.1</ele>
        <time>2013-05-05T08:09:02Z</time>
      </trkpt>
      <trkpt lat="43.55054" lon="3.84444">
        <ele>27.7</ele>
        <time>2013-05-05T08:09:05Z</time>
      </trkpt>
      <trkpt lat="43.55049" lon="3.84451">
        <ele>28.3</ele>
        <time>2013-05-05T08:09:07Z</time>
      </trkpt>
      <trkpt lat="43.55044" lon="3.84459">
        <ele>28</ele>
        <time>2013-05-05T08:09:09Z</time>
      </trkpt>
      <trkpt lat="43.5504" lon="3.84468">
        <ele>27.4</ele>
        <time>2013-05-05T08:09:11Z</time>
      </trkpt>
      <trkpt lat="43.55037" lon="3.84473">
        <ele>27.3</ele>
        <time>2013-05-05T08:09:12Z</time>
      </trkpt>
      <trkpt lat="43.55033" lon="3.84479">
        <ele>27.1</ele>
        <time>2013-05-05T08:09:13Z</time>
      </trkpt>
      <trkpt lat="43.5503" lon="3.84485">
        <ele>27</ele>
        <time>2013-05-05T08:09:14Z</time>
      </trkpt>
      <trkpt lat="43.55027" lon="3.84491">
        <ele>26.6</ele>
        <time>2013-05-05T08:09:15Z</time>
      </trkpt>
      <trkpt lat="43.55023" lon="3.84502">
        <ele>26.1</ele>
        <time>2013-05-05T08:09:17Z</time>
      </trkpt>
      <trkpt lat="43.55021" lon="3.84507">
        <ele>25.4</ele>
        <time>2013-05-05T08:09:18Z</time>
      </trkpt>
      <trkpt lat="43.55018" lon="3.84512">
        <ele>24.8</ele>
        <time>2013-05-05T08:09:19Z</time>
      </trkpt>
      <trkpt lat="43.55013" lon="3.84521">
        <ele>24.1</ele>
        <time>2013-05-05T08:09:21Z</time>
      </trkpt>
      <trkpt lat="43.55009" lon="3.84526">
        <ele>23.8</ele>
        <time>2013-05-05T08:09:22Z</time>
      </trkpt>
      <trkpt lat="43.55005" lon="3.8453">
        <ele>23.6</ele>
        <time>2013-05-05T08:09:23Z</time>
      </trkpt>
      <trkpt lat="43.55002" lon="3.84534">
        <ele>23.4</ele>
        <time>2013-05-05T08:09:24Z</time>
      </trkpt>
      <trkpt lat="43.54996" lon="3.84543">
        <ele>21.8</ele>
        <time>2013-05-05T08:09:26Z</time>
      </trkpt>
      <trkpt lat="43.54991" lon="3.8455">
        <ele>20.3</ele>
        <time>2013-05-05T08:09:28Z</time>
      </trkpt>
      <trkpt lat="43.54988" lon="3.84553">
        <ele>19.5</ele>
        <time>2013-05-05T08:09:29Z</time>
      </trkpt>
      <trkpt lat="43.54977" lon="3.84561">
        <ele>16.8</ele>
        <time>2013-05-05T08:09:33Z</time>
      </trkpt>
      <trkpt lat="43.54972" lon="3.84551">
        <ele>13</ele>
        <time>2013-05-05T08:09:40Z</time>
      </trkpt>
      <trkpt lat="43.5497" lon="3.8456">
        <ele>12.7</ele>
        <time>2013-05-05T08:09:49Z</time>
      </trkpt>
      <trkpt lat="43.54967" lon="3.84568">
        <ele>12.6</ele>
        <time>2013-05-05T08:09:51Z</time>
      </trkpt>
      <trkpt lat="43.54964" lon="3.84578">
        <ele>12.5</ele>
        <time>2013-05-05T08:09:53Z</time>
      </trkpt>
      <trkpt lat="43.54961" lon="3.84584">
        <ele>12.4</ele>
        <time>2013-05-05T08:09:54Z</time>
      </trkpt>
      <trkpt lat="43.54959" lon="3.8459">
        <ele>12.4</ele>
        <time>2013-05-05T08:09:55Z</time>
      </trkpt>
      <trkpt lat="43.54955" lon="3.846">
        <ele>12.1</ele>
        <time>2013-05-05T08:09:57Z</time>
      </trkpt>
      <trkpt lat="43.54947" lon="3.846">
        <ele>11.3</ele>
        <time>2013-05-05T08:10:00Z</time>
      </trkpt>
      <trkpt lat="43.54941" lon="3.84597">
        <ele>10.9</ele>
        <time>2013-05-05T08:10:02Z</time>
      </trkpt>
      <trkpt lat="43.54935" lon="3.84593">
        <ele>11.2</ele>
        <time>2013-05-05T08:10:04Z</time>
      </trkpt>
      <trkpt lat="43.54929" lon="3.84588">
        <ele>11.5</ele>
        <time>2013-05-05T08:10:06Z</time>
      </trkpt>
      <trkpt lat="43.54923" lon="3.84583">
        <ele>11.8</ele>
        <time>2013-05-05T08:10:08Z</time>
      </trkpt>
      <trkpt lat="43.54918" lon="3.84578">
        <ele>12.2</ele>
        <time>2013-05-05T08:10:10Z</time>
      </trkpt>
      <trkpt lat="43.54912" lon="3.84573">
        <ele>12.9</ele>
        <time>2013-05-05T08:10:12Z</time>
      </trkpt>
      <trkpt lat="43.54906" lon="3.84567">
        <ele>13.6</ele>
        <time>2013-05-05T08:10:14Z</time>
      </trkpt>
      <trkpt lat="43.54899" lon="3.84559">
        <ele>13.3</ele>
        <time>2013-05-05T08:10:16Z</time>
      </trkpt>
      <trkpt lat="43.54895" lon="3.84555">
        <ele>12.9</ele>
        <time>2013-05-05T08:10:17Z</time>
      </trkpt>
      <trkpt lat="43.54891" lon="3.84551">
        <ele>12.6</ele>
        <time>2013-05-05T08:10:18Z</time>
      </trkpt>
      <trkpt lat="43.54888" lon="3.84547">
        <ele>12.2</ele>
        <time>2013-05-05T08:10:19Z</time>
      </trkpt>
      <trkpt lat="43.54884" lon="3.84543">
        <ele>11.9</ele>
        <time>2013-05-05T08:10:20Z</time>
      </trkpt>
      <trkpt lat="43.5488" lon="3.84539">
        <ele>11.6</ele>
        <time>2013-05-05T08:10:21Z</time>
      </trkpt>
      <trkpt lat="43.54876" lon="3.84534">
        <ele>11.4</ele>
        <time>2013-05-05T08:10:22Z</time>
      </trkpt>
      <trkpt lat="43.54872" lon="3.8453">
        <ele>11.2</ele>
        <time>2013-05-05T08:10:23Z</time>
      </trkpt>
      <trkpt lat="43.54868" lon="3.84525">
        <ele>11</ele>
        <time>2013-05-05T08:10:24Z</time>
      </trkpt>
      <trkpt lat="43.54864" lon="3.84521">
        <ele>11.1</ele>
        <time>2013-05-05T08:10:25Z</time>
      </trkpt>
      <trkpt lat="43.54861" lon="3.84516">
        <ele>11.1</ele>
        <time>2013-05-05T08:10:26Z</time>
      </trkpt>
      <trkpt lat="43.54857" lon="3.84511">
        <ele>11.1</ele>
        <time>2013-05-05T08:10:27Z</time>
      </trkpt>
      <trkpt lat="43.54853" lon="3.84506">
        <ele>11.1</ele>
        <time>2013-05-05T08:10:28Z</time>
      </trkpt>
      <trkpt lat="43.54849" lon="3.84502">
        <ele>11.2</ele>
        <time>2013-05-05T08:10:29Z</time>
      </trkpt>
      <trkpt lat="43.54845" lon="3.84497">
        <ele>11.2</ele>
        <time>2013-05-05T08:10:30Z</time>
      </trkpt>
      <trkpt lat="43.54842" lon="3.84492">
        <ele>11.2</ele>
        <time>2013-05-05T08:10:31Z</time>
      </trkpt>
      <trkpt lat="43.54838" lon="3.84487">
        <ele>11</ele>
        <time>2013-05-05T08:10:32Z</time>
      </trkpt>
      <trkpt lat="43.54834" lon="3.84481">
        <ele>10.9</ele>
        <time>2013-05-05T08:10:33Z</time>
      </trkpt>
      <trkpt lat="43.5483" lon="3.84476">
        <ele>10.8</ele>
        <time>2013-05-05T08:10:34Z</time>
      </trkpt>
      <trkpt lat="43.54826" lon="3.84471">
        <ele>10.9</ele>
        <time>2013-05-05T08:10:35Z</time>
      </trkpt>
      <trkpt lat="43.54822" lon="3.84466">
        <ele>10.9</ele>
        <time>2013-05-05T08:10:36Z</time>
      </trkpt>
      <trkpt lat="43.54818" lon="3.84461">
        <ele>10.9</ele>
        <time>2013-05-05T08:10:37Z</time>
      </trkpt>
      <trkpt lat="43.54814" lon="3.84456">
        <ele>11</ele>
        <time>2013-05-05T08:10:38Z</time>
      </trkpt>
      <trkpt lat="43.5481" lon="3.8445">
        <ele>11</ele>
        <time>2013-05-05T08:10:39Z</time>
      </trkpt>
      <trkpt lat="43.54806" lon="3.84445">
        <ele>11</ele>
        <time>2013-05-05T08:10:40Z</time>
      </trkpt>
      <trkpt lat="43.54802" lon="3.8444">
        <ele>11</ele>
        <time>2013-05-05T08:10:41Z</time>
      </trkpt>
      <trkpt lat="43.54798" lon="3.84434">
        <ele>11</ele>
        <time>2013-05-05T08:10:42Z</time>
      </trkpt>
      <trkpt lat="43.54794" lon="3.84429">
        <ele>11</ele>
        <time>2013-05-05T08:10:43Z</time>
      </trkpt>
      <trkpt lat="43.5479" lon="3.84423">
        <ele>11.1</ele>
        <time>2013-05-05T08:10:44Z</time>
      </trkpt>
      <trkpt lat="43.54786" lon="3.84418">
        <ele>11.2</ele>
        <time>2013-05-05T08:10:45Z</time>
      </trkpt>
      <trkpt lat="43.54781" lon="3.84413">
        <ele>11.3</ele>
        <time>2013-05-05T08:10:46Z</time>
      </trkpt>
      <trkpt lat="43.54777" lon="3.84407">
        <ele>11.3</ele>
        <time>2013-05-05T08:10:47Z</time>
      </trkpt>
      <trkpt lat="43.54773" lon="3.84402">
        <ele>10.9</ele>
        <time>2013-05-05T08:10:48Z</time>
      </trkpt>
      <trkpt lat="43.54769" lon="3.84397">
        <ele>10.6</ele>
        <time>2013-05-05T08:10:49Z</time>
      </trkpt>
      <trkpt lat="43.54765" lon="3.84391">
        <ele>10.4</ele>
        <time>2013-05-05T08:10:50Z</time>
      </trkpt>
      <trkpt lat="43.54761" lon="3.84386">
        <ele>10.6</ele>
        <time>2013-05-05T08:10:51Z</time>
      </trkpt>
      <trkpt lat="43.54757" lon="3.84381">
        <ele>10.7</ele>
        <time>2013-05-05T08:10:52Z</time>
      </trkpt>
      <trkpt lat="43.54753" lon="3.84376">
        <ele>10.8</ele>
        <time>2013-05-05T08:10:53Z</time>
      </trkpt>
      <trkpt lat="43.54749" lon="3.84371">
        <ele>10.9</ele>
        <time>2013-05-05T08:10:54Z</time>
      </trkpt>
      <trkpt lat="43.54745" lon="3.84365">
        <ele>10.9</ele>
        <time>2013-05-05T08:10:55Z</time>
      </trkpt>
      <trkpt lat="43.54741" lon="3.8436">
        <ele>11</ele>
        <time>2013-05-05T08:10:56Z</time>
      </trkpt>
      <trkpt lat="43.54737" lon="3.84355">
        <ele>11.3</ele>
        <time>2013-05-05T08:10:57Z</time>
      </trkpt>
      <trkpt lat="43.54733" lon="3.84349">
        <ele>11.5</ele>
        <time>2013-05-05T08:10:58Z</time>
      </trkpt>
      <trkpt lat="43.54729" lon="3.84344">
        <ele>11.6</ele>
        <time>2013-05-05T08:10:59Z</time>
      </trkpt>
      <trkpt lat="43.54725" lon="3.84339">
        <ele>11.2</ele>
        <time>2013-05-05T08:11:00Z</time>
      </trkpt>
      <trkpt lat="43.54721" lon="3.84333">
        <ele>11</ele>
        <time>2013-05-05T08:11:01Z</time>
      </trkpt>
      <trkpt lat="43.54718" lon="3.84328">
        <ele>10.7</ele>
        <time>2013-05-05T08:11:02Z</time>
      </trkpt>
      <trkpt lat="43.54714" lon="3.84323">
        <ele>10.6</ele>
        <time>2013-05-05T08:11:03Z</time>
      </trkpt>
      <trkpt lat="43.5471" lon="3.84317">
        <ele>10.5</ele>
        <time>2013-05-05T08:11:04Z</time>
      </trkpt>
      <trkpt lat="43.54707" lon="3.84312">
        <ele>10.4</ele>
        <time>2013-05-05T08:11:05Z</time>
      </trkpt>
      <trkpt lat="43.54703" lon="3.84307">
        <ele>10.3</ele>
        <time>2013-05-05T08:11:06Z</time>
      </trkpt>
      <trkpt lat="43.54699" lon="3.84302">
        <ele>10.3</ele>
        <time>2013-05-05T08:11:07Z</time>
      </trkpt>
      <trkpt lat="43.54696" lon="3.84296">
        <ele>10.3</ele>
        <time>2013-05-05T08:11:08Z</time>
      </trkpt>
      <trkpt lat="43.54692" lon="3.84291">
        <ele>10.3</ele>
        <time>2013-05-05T08:11:09Z</time>
      </trkpt>
      <trkpt lat="43.54688" lon="3.84285">
        <ele>10.4</ele>
        <time>2013-05-05T08:11:10Z</time>
      </trkpt>
      <trkpt lat="43.54684" lon="3.8428">
        <ele>10.4</ele>
        <time>2013-05-05T08:11:11Z</time>
      </trkpt>
      <trkpt lat="43.54681" lon="3.84275">
        <ele>10.4</ele>
        <time>2013-05-05T08:11:12Z</time>
      </trkpt>
      <trkpt lat="43.54677" lon="3.8427">
        <ele>10.7</ele>
        <time>2013-05-05T08:11:13Z</time>
      </trkpt>
      <trkpt lat="43.54673" lon="3.84264">
        <ele>11</ele>
        <time>2013-05-05T08:11:14Z</time>
      </trkpt>
      <trkpt lat="43.5467" lon="3.84258">
        <ele>11.2</ele>
        <time>2013-05-05T08:11:15Z</time>
      </trkpt>
      <trkpt lat="43.54666" lon="3.84253">
        <ele>11.1</ele>
        <time>2013-05-05T08:11:16Z</time>
      </trkpt>
      <trkpt lat="43.54663" lon="3.84247">
        <ele>11.1</ele>
        <time>2013-05-05T08:11:17Z</time>
      </trkpt>
      <trkpt lat="43.54659" lon="3.84241">
        <ele>11.1</ele>
        <time>2013-05-05T08:11:18Z</time>
      </trkpt>
      <trkpt lat="43.54656" lon="3.84235">
        <ele>11.5</ele>
        <time>2013-05-05T08:11:19Z</time>
      </trkpt>
      <trkpt lat="43.54653" lon="3.84229">
        <ele>11.8</ele>
        <time>2013-05-05T08:11:20Z</time>
      </trkpt>
      <trkpt lat="43.5465" lon="3.84222">
        <ele>12</ele>
        <time>2013-05-05T08:11:21Z</time>
      </trkpt>
      <trkpt lat="43.54647" lon="3.84216">
        <ele>12.2</ele>
        <time>2013-05-05T08:11:22Z</time>
      </trkpt>
      <trkpt lat="43.54644" lon="3.8421">
        <ele>12.3</ele>
        <time>2013-05-05T08:11:23Z</time>
      </trkpt>
      <trkpt lat="43.54641" lon="3.84203">
        <ele>12.3</ele>
        <time>2013-05-05T08:11:24Z</time>
      </trkpt>
      <trkpt lat="43.54638" lon="3.84197">
        <ele>12.4</ele>
        <time>2013-05-05T08:11:25Z</time>
      </trkpt>
      <trkpt lat="43.54635" lon="3.84191">
        <ele>11.9</ele>
        <time>2013-05-05T08:11:26Z</time>
      </trkpt>
      <trkpt lat="43.54632" lon="3.84185">
        <ele>11.6</ele>
        <time>2013-05-05T08:11:27Z</time>
      </trkpt>
      <trkpt lat="43.54629" lon="3.84178">
        <ele>11.3</ele>
        <time>2013-05-05T08:11:28Z</time>
      </trkpt>
      <trkpt lat="43.54627" lon="3.84172">
        <ele>11.1</ele>
        <time>2013-05-05T08:11:29Z</time>
      </trkpt>
      <trkpt lat="43.54624" lon="3.84165">
        <ele>11</ele>
        <time>2013-05-05T08:11:30Z</time>
      </trkpt>
      <trkpt lat="43.54622" lon="3.84159">
        <ele>10.9</ele>
        <time>2013-05-05T08:11:31Z</time>
      </trkpt>
      <trkpt lat="43.54619" lon="3.84153">
        <ele>11.1</ele>
        <time>2013-05-05T08:11:32Z</time>
      </trkpt>
      <trkpt lat="43.54617" lon="3.84146">
        <ele>11.3</ele>
        <time>2013-05-05T08:11:33Z</time>
      </trkpt>
      <trkpt lat="43.54614" lon="3.8414">
        <ele>11.4</ele>
        <time>2013-05-05T08:11:34Z</time>
      </trkpt>
      <trkpt lat="43.54611" lon="3.84134">
        <ele>11.3</ele>
        <time>2013-05-05T08:11:35Z</time>
      </trkpt>
      <trkpt lat="43.54609" lon="3.84127">
        <ele>11.2</ele>
        <time>2013-05-05T08:11:36Z</time>
      </trkpt>
      <trkpt lat="43.54606" lon="3.84121">
        <ele>11.2</ele>
        <time>2013-05-05T08:11:37Z</time>
      </trkpt>
      <trkpt lat="43.54603" lon="3.84115">
        <ele>11.1</ele>
        <time>2013-05-05T08:11:38Z</time>
      </trkpt>
      <trkpt lat="43.546" lon="3.84109">
        <ele>11.4</ele>
        <time>2013-05-05T08:11:39Z</time>
      </trkpt>
      <trkpt lat="43.54598" lon="3.84102">
        <ele>11.5</ele>
        <time>2013-05-05T08:11:40Z</time>
      </trkpt>
      <trkpt lat="43.54594" lon="3.84096">
        <ele>11.7</ele>
        <time>2013-05-05T08:11:41Z</time>
      </trkpt>
      <trkpt lat="43.54591" lon="3.84091">
        <ele>11.6</ele>
        <time>2013-05-05T08:11:42Z</time>
      </trkpt>
      <trkpt lat="43.54588" lon="3.84085">
        <ele>11.5</ele>
        <time>2013-05-05T08:11:43Z</time>
      </trkpt>
      <trkpt lat="43.54585" lon="3.84079">
        <ele>11.5</ele>
        <time>2013-05-05T08:11:44Z</time>
      </trkpt>
      <trkpt lat="43.54581" lon="3.84073">
        <ele>11.6</ele>
        <time>2013-05-05T08:11:45Z</time>
      </trkpt>
      <trkpt lat="43.54578" lon="3.84067">
        <ele>11.7</ele>
        <time>2013-05-05T08:11:46Z</time>
      </trkpt>
      <trkpt lat="43.54575" lon="3.84062">
        <ele>11.8</ele>
        <time>2013-05-05T08:11:47Z</time>
      </trkpt>
      <trkpt lat="43.54571" lon="3.84056">
        <ele>11.7</ele>
        <time>2013-05-05T08:11:48Z</time>
      </trkpt>
      <trkpt lat="43.54567" lon="3.84051">
        <ele>11.6</ele>
        <time>2013-05-05T08:11:49Z</time>
      </trkpt>
      <trkpt lat="43.54564" lon="3.84045">
        <ele>11.5</ele>
        <time>2013-05-05T08:11:50Z</time>
      </trkpt>
      <trkpt lat="43.5456" lon="3.8404">
        <ele>11.6</ele>
        <time>2013-05-05T08:11:51Z</time>
      </trkpt>
      <trkpt lat="43.54557" lon="3.84034">
        <ele>11.7</ele>
        <time>2013-05-05T08:11:52Z</time>
      </trkpt>
      <trkpt lat="43.54554" lon="3.84029">
        <ele>11.8</ele>
        <time>2013-05-05T08:11:53Z</time>
      </trkpt>
      <trkpt lat="43.5455" lon="3.84023">
        <ele>11.8</ele>
        <time>2013-05-05T08:11:54Z</time>
      </trkpt>
      <trkpt lat="43.54547" lon="3.84018">
        <ele>12.3</ele>
        <time>2013-05-05T08:11:55Z</time>
      </trkpt>
      <trkpt lat="43.54543" lon="3.84013">
        <ele>12.6</ele>
        <time>2013-05-05T08:11:56Z</time>
      </trkpt>
      <trkpt lat="43.5454" lon="3.84008">
        <ele>12.9</ele>
        <time>2013-05-05T08:11:57Z</time>
      </trkpt>
      <trkpt lat="43.54536" lon="3.84003">
        <ele>12.4</ele>
        <time>2013-05-05T08:11:58Z</time>
      </trkpt>
      <trkpt lat="43.54533" lon="3.83998">
        <ele>12.1</ele>
        <time>2013-05-05T08:11:59Z</time>
      </trkpt>
      <trkpt lat="43.54529" lon="3.83993">
        <ele>11.8</ele>
        <time>2013-05-05T08:12:00Z</time>
      </trkpt>
      <trkpt lat="43.54525" lon="3.83988">
        <ele>11.9</ele>
        <time>2013-05-05T08:12:01Z</time>
      </trkpt>
      <trkpt lat="43.54522" lon="3.83984">
        <ele>11.9</ele>
        <time>2013-05-05T08:12:02Z</time>
      </trkpt>
      <trkpt lat="43.54518" lon="3.83979">
        <ele>11.9</ele>
        <time>2013-05-05T08:12:03Z</time>
      </trkpt>
      <trkpt lat="43.54514" lon="3.83975">
        <ele>11.9</ele>
        <time>2013-05-05T08:12:04Z</time>
      </trkpt>
      <trkpt lat="43.54511" lon="3.8397">
        <ele>11.9</ele>
        <time>2013-05-05T08:12:05Z</time>
      </trkpt>
      <trkpt lat="43.54507" lon="3.83966">
        <ele>11.9</ele>
        <time>2013-05-05T08:12:06Z</time>
      </trkpt>
      <trkpt lat="43.54504" lon="3.83962">
        <ele>12</ele>
        <time>2013-05-05T08:12:07Z</time>
      </trkpt>
      <trkpt lat="43.545" lon="3.83958">
        <ele>12</ele>
        <time>2013-05-05T08:12:08Z</time>
      </trkpt>
      <trkpt lat="43.54497" lon="3.83953">
        <ele>12.1</ele>
        <time>2013-05-05T08:12:09Z</time>
      </trkpt>
      <trkpt lat="43.54493" lon="3.83949">
        <ele>12.1</ele>
        <time>2013-05-05T08:12:10Z</time>
      </trkpt>
      <trkpt lat="43.5449" lon="3.83944">
        <ele>12.1</ele>
        <time>2013-05-05T08:12:11Z</time>
      </trkpt>
      <trkpt lat="43.54486" lon="3.8394">
        <ele>12.1</ele>
        <time>2013-05-05T08:12:12Z</time>
      </trkpt>
      <trkpt lat="43.54482" lon="3.83935">
        <ele>12.1</ele>
        <time>2013-05-05T08:12:13Z</time>
      </trkpt>
      <trkpt lat="43.54477" lon="3.8393">
        <ele>12.3</ele>
        <time>2013-05-05T08:12:14Z</time>
      </trkpt>
      <trkpt lat="43.54473" lon="3.83926">
        <ele>12.4</ele>
        <time>2013-05-05T08:12:15Z</time>
      </trkpt>
      <trkpt lat="43.54469" lon="3.83921">
        <ele>12.5</ele>
        <time>2013-05-05T08:12:16Z</time>
      </trkpt>
      <trkpt lat="43.54465" lon="3.83916">
        <ele>12.6</ele>
        <time>2013-05-05T08:12:17Z</time>
      </trkpt>
      <trkpt lat="43.5446" lon="3.83912">
        <ele>12.7</ele>
        <time>2013-05-05T08:12:18Z</time>
      </trkpt>
      <trkpt lat="43.54456" lon="3.83907">
        <ele>12.8</ele>
        <time>2013-05-05T08:12:19Z</time>
      </trkpt>
      <trkpt lat="43.54451" lon="3.83903">
        <ele>12.8</ele>
        <time>2013-05-05T08:12:20Z</time>
      </trkpt>
      <trkpt lat="43.54446" lon="3.83899">
        <ele>12.8</ele>
        <time>2013-05-05T08:12:21Z</time>
      </trkpt>
      <trkpt lat="43.54442" lon="3.83895">
        <ele>12.8</ele>
        <time>2013-05-05T08:12:22Z</time>
      </trkpt>
      <trkpt lat="43.54437" lon="3.83891">
        <ele>12.9</ele>
        <time>2013-05-05T08:12:23Z</time>
      </trkpt>
      <trkpt lat="43.54432" lon="3.83887">
        <ele>12.9</ele>
        <time>2013-05-05T08:12:24Z</time>
      </trkpt>
      <trkpt lat="43.54427" lon="3.83883">
        <ele>13</ele>
        <time>2013-05-05T08:12:25Z</time>
      </trkpt>
      <trkpt lat="43.54423" lon="3.83879">
        <ele>13</ele>
        <time>2013-05-05T08:12:26Z</time>
      </trkpt>
      <trkpt lat="43.54418" lon="3.83875">
        <ele>12.7</ele>
        <time>2013-05-05T08:12:27Z</time>
      </trkpt>
      <trkpt lat="43.54413" lon="3.83871">
        <ele>12.4</ele>
        <time>2013-05-05T08:12:28Z</time>
      </trkpt>
      <trkpt lat="43.54408" lon="3.83867">
        <ele>12.3</ele>
        <time>2013-05-05T08:12:29Z</time>
      </trkpt>
      <trkpt lat="43.54403" lon="3.83863">
        <ele>12.2</ele>
        <time>2013-05-05T08:12:30Z</time>
      </trkpt>
      <trkpt lat="43.54398" lon="3.83859">
        <ele>12.1</ele>
        <time>2013-05-05T08:12:31Z</time>
      </trkpt>
      <trkpt lat="43.54393" lon="3.83855">
        <ele>12.1</ele>
        <time>2013-05-05T08:12:32Z</time>
      </trkpt>
      <trkpt lat="43.54388" lon="3.83851">
        <ele>12</ele>
        <time>2013-05-05T08:12:33Z</time>
      </trkpt>
      <trkpt lat="43.54383" lon="3.83848">
        <ele>12</ele>
        <time>2013-05-05T08:12:34Z</time>
      </trkpt>
      <trkpt lat="43.54379" lon="3.83845">
        <ele>11.9</ele>
        <time>2013-05-05T08:12:35Z</time>
      </trkpt>
      <trkpt lat="43.54372" lon="3.83837">
        <ele>11.6</ele>
        <time>2013-05-05T08:12:38Z</time>
      </trkpt>
      <trkpt lat="43.54365" lon="3.83843">
        <ele>12.4</ele>
        <time>2013-05-05T08:12:55Z</time>
      </trkpt>
      <trkpt lat="43.5436" lon="3.83843">
        <ele>12.3</ele>
        <time>2013-05-05T08:12:57Z</time>
      </trkpt>
      <trkpt lat="43.54351" lon="3.83842">
        <ele>12.3</ele>
        <time>2013-05-05T08:13:00Z</time>
      </trkpt>
      <trkpt lat="43.54345" lon="3.83836">
        <ele>12.6</ele>
        <time>2013-05-05T08:13:03Z</time>
      </trkpt>
      <trkpt lat="43.54341" lon="3.83829">
        <ele>12.5</ele>
        <time>2013-05-05T08:13:05Z</time>
      </trkpt>
      <trkpt lat="43.54336" lon="3.8382">
        <ele>12.3</ele>
        <time>2013-05-05T08:13:07Z</time>
      </trkpt>
      <trkpt lat="43.54329" lon="3.83812">
        <ele>12</ele>
        <time>2013-05-05T08:13:09Z</time>
      </trkpt>
      <trkpt lat="43.54325" lon="3.83809">
        <ele>11.9</ele>
        <time>2013-05-05T08:13:10Z</time>
      </trkpt>
      <trkpt lat="43.54321" lon="3.83806">
        <ele>11.8</ele>
        <time>2013-05-05T08:13:11Z</time>
      </trkpt>
      <trkpt lat="43.54317" lon="3.83803">
        <ele>11.7</ele>
        <time>2013-05-05T08:13:12Z</time>
      </trkpt>
      <trkpt lat="43.54312" lon="3.838">
        <ele>11.7</ele>
        <time>2013-05-05T08:13:13Z</time>
      </trkpt>
      <trkpt lat="43.54308" lon="3.83797">
        <ele>11.6</ele>
        <time>2013-05-05T08:13:14Z</time>
      </trkpt>
      <trkpt lat="43.54304" lon="3.83794">
        <ele>11.5</ele>
        <time>2013-05-05T08:13:15Z</time>
      </trkpt>
      <trkpt lat="43.543" lon="3.83791">
        <ele>11.4</ele>
        <time>2013-05-05T08:13:16Z</time>
      </trkpt>
      <trkpt lat="43.54295" lon="3.83789">
        <ele>11.4</ele>
        <time>2013-05-05T08:13:17Z</time>
      </trkpt>
      <trkpt lat="43.54291" lon="3.83787">
        <ele>11.1</ele>
        <time>2013-05-05T08:13:18Z</time>
      </trkpt>
      <trkpt lat="43.54287" lon="3.83784">
        <ele>10.9</ele>
        <time>2013-05-05T08:13:19Z</time>
      </trkpt>
      <trkpt lat="43.54283" lon="3.83781">
        <ele>10.7</ele>
        <time>2013-05-05T08:13:20Z</time>
      </trkpt>
      <trkpt lat="43.54275" lon="3.83776">
        <ele>10.7</ele>
        <time>2013-05-05T08:13:22Z</time>
      </trkpt>
      <trkpt lat="43.54267" lon="3.83771">
        <ele>10.6</ele>
        <time>2013-05-05T08:13:24Z</time>
      </trkpt>
      <trkpt lat="43.54259" lon="3.83767">
        <ele>10.4</ele>
        <time>2013-05-05T08:13:26Z</time>
      </trkpt>
      <trkpt lat="43.54251" lon="3.83763">
        <ele>9.9</ele>
        <time>2013-05-05T08:13:28Z</time>
      </trkpt>
      <trkpt lat="43.54244" lon="3.83759">
        <ele>9.6</ele>
        <time>2013-05-05T08:13:30Z</time>
      </trkpt>
      <trkpt lat="43.54237" lon="3.83756">
        <ele>9.4</ele>
        <time>2013-05-05T08:13:32Z</time>
      </trkpt>
      <trkpt lat="43.54234" lon="3.83754">
        <ele>9.4</ele>
        <time>2013-05-05T08:13:33Z</time>
      </trkpt>
      <trkpt lat="43.54224" lon="3.83748">
        <ele>9.8</ele>
        <time>2013-05-05T08:13:36Z</time>
      </trkpt>
      <trkpt lat="43.54218" lon="3.83744">
        <ele>9.6</ele>
        <time>2013-05-05T08:13:38Z</time>
      </trkpt>
      <trkpt lat="43.54213" lon="3.8374">
        <ele>9.4</ele>
        <time>2013-05-05T08:13:40Z</time>
      </trkpt>
      <trkpt lat="43.54205" lon="3.83734">
        <ele>9.3</ele>
        <time>2013-05-05T08:13:43Z</time>
      </trkpt>
      <trkpt lat="43.542" lon="3.83728">
        <ele>9.5</ele>
        <time>2013-05-05T08:13:45Z</time>
      </trkpt>
      <trkpt lat="43.54194" lon="3.83723">
        <ele>9</ele>
        <time>2013-05-05T08:13:47Z</time>
      </trkpt>
      <trkpt lat="43.54188" lon="3.83717">
        <ele>9.1</ele>
        <time>2013-05-05T08:13:49Z</time>
      </trkpt>
      <trkpt lat="43.54181" lon="3.8371">
        <ele>9.3</ele>
        <time>2013-05-05T08:13:51Z</time>
      </trkpt>
      <trkpt lat="43.54174" lon="3.83703">
        <ele>9.4</ele>
        <time>2013-05-05T08:13:53Z</time>
      </trkpt>
      <trkpt lat="43.5417" lon="3.837">
        <ele>9.4</ele>
        <time>2013-05-05T08:13:54Z</time>
      </trkpt>
      <trkpt lat="43.54167" lon="3.83696">
        <ele>9.4</ele>
        <time>2013-05-05T08:13:55Z</time>
      </trkpt>
      <trkpt lat="43.54163" lon="3.83692">
        <ele>9.6</ele>
        <time>2013-05-05T08:13:56Z</time>
      </trkpt>
      <trkpt lat="43.54159" lon="3.83688">
        <ele>9.8</ele>
        <time>2013-05-05T08:13:57Z</time>
      </trkpt>
      <trkpt lat="43.54155" lon="3.83685">
        <ele>9.9</ele>
        <time>2013-05-05T08:13:58Z</time>
      </trkpt>
      <trkpt lat="43.54152" lon="3.83681">
        <ele>9.7</ele>
        <time>2013-05-05T08:13:59Z</time>
      </trkpt>
      <trkpt lat="43.54148" lon="3.83677">
        <ele>9.5</ele>
        <time>2013-05-05T08:14:00Z</time>
      </trkpt>
      <trkpt lat="43.54144" lon="3.83673">
        <ele>9.3</ele>
        <time>2013-05-05T08:14:01Z</time>
      </trkpt>
      <trkpt lat="43.5414" lon="3.83669">
        <ele>9.4</ele>
        <time>2013-05-05T08:14:02Z</time>
      </trkpt>
      <trkpt lat="43.54137" lon="3.83666">
        <ele>9.6</ele>
        <time>2013-05-05T08:14:03Z</time>
      </trkpt>
      <trkpt lat="43.54133" lon="3.83662">
        <ele>9.6</ele>
        <time>2013-05-05T08:14:04Z</time>
      </trkpt>
      <trkpt lat="43.54129" lon="3.83658">
        <ele>9.7</ele>
        <time>2013-05-05T08:14:05Z</time>
      </trkpt>
      <trkpt lat="43.54125" lon="3.83654">
        <ele>9.7</ele>
        <time>2013-05-05T08:14:06Z</time>
      </trkpt>
      <trkpt lat="43.54121" lon="3.8365">
        <ele>9.7</ele>
        <time>2013-05-05T08:14:07Z</time>
      </trkpt>
      <trkpt lat="43.54118" lon="3.83647">
        <ele>9.8</ele>
        <time>2013-05-05T08:14:08Z</time>
      </trkpt>
      <trkpt lat="43.54114" lon="3.83643">
        <ele>9.7</ele>
        <time>2013-05-05T08:14:09Z</time>
      </trkpt>
      <trkpt lat="43.5411" lon="3.83639">
        <ele>9.7</ele>
        <time>2013-05-05T08:14:10Z</time>
      </trkpt>
      <trkpt lat="43.54106" lon="3.83636">
        <ele>9.7</ele>
        <time>2013-05-05T08:14:11Z</time>
      </trkpt>
      <trkpt lat="43.54102" lon="3.83632">
        <ele>10</ele>
        <time>2013-05-05T08:14:12Z</time>
      </trkpt>
      <trkpt lat="43.54098" lon="3.83628">
        <ele>10.2</ele>
        <time>2013-05-05T08:14:13Z</time>
      </trkpt>
      <trkpt lat="43.54094" lon="3.83624">
        <ele>10.4</ele>
        <time>2013-05-05T08:14:14Z</time>
      </trkpt>
      <trkpt lat="43.5409" lon="3.8362">
        <ele>10.5</ele>
        <time>2013-05-05T08:14:15Z</time>
      </trkpt>
      <trkpt lat="43.54086" lon="3.83617">
        <ele>10.5</ele>
        <time>2013-05-05T08:14:16Z</time>
      </trkpt>
      <trkpt lat="43.54082" lon="3.83613">
        <ele>10.6</ele>
        <time>2013-05-05T08:14:17Z</time>
      </trkpt>
      <trkpt lat="43.54078" lon="3.8361">
        <ele>10.7</ele>
        <time>2013-05-05T08:14:18Z</time>
      </trkpt>
      <trkpt lat="43.54074" lon="3.83606">
        <ele>10.9</ele>
        <time>2013-05-05T08:14:19Z</time>
      </trkpt>
      <trkpt lat="43.5407" lon="3.83603">
        <ele>10.9</ele>
        <time>2013-05-05T08:14:20Z</time>
      </trkpt>
      <trkpt lat="43.54062" lon="3.836">
        <ele>10.7</ele>
        <time>2013-05-05T08:14:22Z</time>
      </trkpt>
      <trkpt lat="43.54054" lon="3.83598">
        <ele>10</ele>
        <time>2013-05-05T08:14:25Z</time>
      </trkpt>
      <trkpt lat="43.54047" lon="3.83591">
        <ele>9.9</ele>
        <time>2013-05-05T08:14:30Z</time>
      </trkpt>
      <trkpt lat="43.54041" lon="3.83586">
        <ele>10</ele>
        <time>2013-05-05T08:14:32Z</time>
      </trkpt>
      <trkpt lat="43.54034" lon="3.83581">
        <ele>10.4</ele>
        <time>2013-05-05T08:14:34Z</time>
      </trkpt>
      <trkpt lat="43.54031" lon="3.83578">
        <ele>10.7</ele>
        <time>2013-05-05T08:14:35Z</time>
      </trkpt>
      <trkpt lat="43.5402" lon="3.83571">
        <ele>11</ele>
        <time>2013-05-05T08:14:38Z</time>
      </trkpt>
      <trkpt lat="43.54012" lon="3.83566">
        <ele>11.1</ele>
        <time>2013-05-05T08:14:40Z</time>
      </trkpt>
      <trkpt lat="43.54004" lon="3.83561">
        <ele>10.8</ele>
        <time>2013-05-05T08:14:42Z</time>
      </trkpt>
      <trkpt lat="43.53996" lon="3.83556">
        <ele>10.4</ele>
        <time>2013-05-05T08:14:44Z</time>
      </trkpt>
      <trkpt lat="43.53987" lon="3.83552">
        <ele>10</ele>
        <time>2013-05-05T08:14:46Z</time>
      </trkpt>
      <trkpt lat="43.53979" lon="3.83548">
        <ele>10.1</ele>
        <time>2013-05-05T08:14:48Z</time>
      </trkpt>
      <trkpt lat="43.53971" lon="3.83544">
        <ele>10.1</ele>
        <time>2013-05-05T08:14:50Z</time>
      </trkpt>
      <trkpt lat="43.53964" lon="3.8354">
        <ele>10.2</ele>
        <time>2013-05-05T08:14:52Z</time>
      </trkpt>
      <trkpt lat="43.53956" lon="3.83536">
        <ele>10.6</ele>
        <time>2013-05-05T08:14:54Z</time>
      </trkpt>
      <trkpt lat="43.53948" lon="3.83531">
        <ele>10.8</ele>
        <time>2013-05-05T08:14:56Z</time>
      </trkpt>
      <trkpt lat="43.5394" lon="3.83526">
        <ele>10.6</ele>
        <time>2013-05-05T08:14:58Z</time>
      </trkpt>
      <trkpt lat="43.53936" lon="3.83523">
        <ele>10.5</ele>
        <time>2013-05-05T08:14:59Z</time>
      </trkpt>
      <trkpt lat="43.53932" lon="3.8352">
        <ele>10.8</ele>
        <time>2013-05-05T08:15:00Z</time>
      </trkpt>
      <trkpt lat="43.53928" lon="3.83517">
        <ele>11.1</ele>
        <time>2013-05-05T08:15:01Z</time>
      </trkpt>
      <trkpt lat="43.53924" lon="3.83514">
        <ele>11.3</ele>
        <time>2013-05-05T08:15:02Z</time>
      </trkpt>
      <trkpt lat="43.5392" lon="3.83511">
        <ele>11.1</ele>
        <time>2013-05-05T08:15:03Z</time>
      </trkpt>
      <trkpt lat="43.53915" lon="3.83508">
        <ele>11</ele>
        <time>2013-05-05T08:15:04Z</time>
      </trkpt>
      <trkpt lat="43.53911" lon="3.83505">
        <ele>11</ele>
        <time>2013-05-05T08:15:05Z</time>
      </trkpt>
      <trkpt lat="43.53907" lon="3.83502">
        <ele>10.6</ele>
        <time>2013-05-05T08:15:06Z</time>
      </trkpt>
      <trkpt lat="43.53903" lon="3.83498">
        <ele>10.3</ele>
        <time>2013-05-05T08:15:07Z</time>
      </trkpt>
      <trkpt lat="43.53899" lon="3.83495">
        <ele>10.1</ele>
        <time>2013-05-05T08:15:08Z</time>
      </trkpt>
      <trkpt lat="43.53895" lon="3.83492">
        <ele>10.1</ele>
        <time>2013-05-05T08:15:09Z</time>
      </trkpt>
      <trkpt lat="43.53891" lon="3.83488">
        <ele>10.1</ele>
        <time>2013-05-05T08:15:10Z</time>
      </trkpt>
      <trkpt lat="43.53887" lon="3.83485">
        <ele>10.1</ele>
        <time>2013-05-05T08:15:11Z</time>
      </trkpt>
      <trkpt lat="43.53883" lon="3.83482">
        <ele>10.1</ele>
        <time>2013-05-05T08:15:12Z</time>
      </trkpt>
      <trkpt lat="43.53879" lon="3.83479">
        <ele>10.3</ele>
        <time>2013-05-05T08:15:13Z</time>
      </trkpt>
      <trkpt lat="43.53875" lon="3.83475">
        <ele>10.5</ele>
        <time>2013-05-05T08:15:14Z</time>
      </trkpt>
      <trkpt lat="43.53871" lon="3.83472">
        <ele>10.6</ele>
        <time>2013-05-05T08:15:15Z</time>
      </trkpt>
      <trkpt lat="43.53867" lon="3.83468">
        <ele>10.5</ele>
        <time>2013-05-05T08:15:16Z</time>
      </trkpt>
      <trkpt lat="43.53863" lon="3.83464">
        <ele>10.5</ele>
        <time>2013-05-05T08:15:17Z</time>
      </trkpt>
      <trkpt lat="43.53859" lon="3.83461">
        <ele>10.5</ele>
        <time>2013-05-05T08:15:18Z</time>
      </trkpt>
      <trkpt lat="43.53855" lon="3.83457">
        <ele>10.6</ele>
        <time>2013-05-05T08:15:19Z</time>
      </trkpt>
      <trkpt lat="43.53851" lon="3.83453">
        <ele>10.7</ele>
        <time>2013-05-05T08:15:20Z</time>
      </trkpt>
      <trkpt lat="43.53846" lon="3.8345">
        <ele>10.7</ele>
        <time>2013-05-05T08:15:21Z</time>
      </trkpt>
      <trkpt lat="43.53842" lon="3.83446">
        <ele>10.4</ele>
        <time>2013-05-05T08:15:22Z</time>
      </trkpt>
      <trkpt lat="43.53838" lon="3.83443">
        <ele>10.2</ele>
        <time>2013-05-05T08:15:23Z</time>
      </trkpt>
      <trkpt lat="43.53834" lon="3.83439">
        <ele>10</ele>
        <time>2013-05-05T08:15:24Z</time>
      </trkpt>
      <trkpt lat="43.53829" lon="3.83435">
        <ele>10.1</ele>
        <time>2013-05-05T08:15:25Z</time>
      </trkpt>
      <trkpt lat="43.53825" lon="3.8343">
        <ele>10.1</ele>
        <time>2013-05-05T08:15:26Z</time>
      </trkpt>
      <trkpt lat="43.53821" lon="3.83426">
        <ele>10.1</ele>
        <time>2013-05-05T08:15:27Z</time>
      </trkpt>
      <trkpt lat="43.53817" lon="3.83422">
        <ele>10</ele>
        <time>2013-05-05T08:15:28Z</time>
      </trkpt>
      <trkpt lat="43.53813" lon="3.83418">
        <ele>10</ele>
        <time>2013-05-05T08:15:29Z</time>
      </trkpt>
      <trkpt lat="43.53809" lon="3.83414">
        <ele>10</ele>
        <time>2013-05-05T08:15:30Z</time>
      </trkpt>
      <trkpt lat="43.53805" lon="3.8341">
        <ele>9.9</ele>
        <time>2013-05-05T08:15:31Z</time>
      </trkpt>
      <trkpt lat="43.53801" lon="3.83406">
        <ele>10.3</ele>
        <time>2013-05-05T08:15:32Z</time>
      </trkpt>
      <trkpt lat="43.53796" lon="3.83402">
        <ele>10.6</ele>
        <time>2013-05-05T08:15:33Z</time>
      </trkpt>
      <trkpt lat="43.53792" lon="3.83399">
        <ele>10.9</ele>
        <time>2013-05-05T08:15:34Z</time>
      </trkpt>
      <trkpt lat="43.53788" lon="3.83395">
        <ele>10.8</ele>
        <time>2013-05-05T08:15:35Z</time>
      </trkpt>
      <trkpt lat="43.53784" lon="3.8339">
        <ele>10.8</ele>
        <time>2013-05-05T08:15:36Z</time>
      </trkpt>
      <trkpt lat="43.5378" lon="3.83386">
        <ele>10.7</ele>
        <time>2013-05-05T08:15:37Z</time>
      </trkpt>
      <trkpt lat="43.53776" lon="3.83381">
        <ele>11.2</ele>
        <time>2013-05-05T08:15:38Z</time>
      </trkpt>
      <trkpt lat="43.53772" lon="3.83377">
        <ele>11.6</ele>
        <time>2013-05-05T08:15:39Z</time>
      </trkpt>
      <trkpt lat="43.53768" lon="3.83372">
        <ele>11.9</ele>
        <time>2013-05-05T08:15:40Z</time>
      </trkpt>
      <trkpt lat="43.53764" lon="3.83368">
        <ele>10.6</ele>
        <time>2013-05-05T08:15:41Z</time>
      </trkpt>
      <trkpt lat="43.5376" lon="3.83363">
        <ele>9.6</ele>
        <time>2013-05-05T08:15:42Z</time>
      </trkpt>
      <trkpt lat="43.53756" lon="3.83359">
        <ele>8.9</ele>
        <time>2013-05-05T08:15:43Z</time>
      </trkpt>
      <trkpt lat="43.53752" lon="3.83354">
        <ele>9.1</ele>
        <time>2013-05-05T08:15:44Z</time>
      </trkpt>
      <trkpt lat="43.53748" lon="3.8335">
        <ele>9.3</ele>
        <time>2013-05-05T08:15:45Z</time>
      </trkpt>
      <trkpt lat="43.53744" lon="3.83346">
        <ele>9.4</ele>
        <time>2013-05-05T08:15:46Z</time>
      </trkpt>
      <trkpt lat="43.5374" lon="3.83342">
        <ele>9.5</ele>
        <time>2013-05-05T08:15:47Z</time>
      </trkpt>
      <trkpt lat="43.53736" lon="3.83338">
        <ele>9.1</ele>
        <time>2013-05-05T08:15:48Z</time>
      </trkpt>
      <trkpt lat="43.53732" lon="3.83334">
        <ele>8.9</ele>
        <time>2013-05-05T08:15:49Z</time>
      </trkpt>
      <trkpt lat="43.53728" lon="3.8333">
        <ele>8.6</ele>
        <time>2013-05-05T08:15:50Z</time>
      </trkpt>
      <trkpt lat="43.53724" lon="3.83326">
        <ele>8.4</ele>
        <time>2013-05-05T08:15:51Z</time>
      </trkpt>
      <trkpt lat="43.5372" lon="3.83322">
        <ele>8.2</ele>
        <time>2013-05-05T08:15:52Z</time>
      </trkpt>
      <trkpt lat="43.53716" lon="3.83319">
        <ele>8.1</ele>
        <time>2013-05-05T08:15:53Z</time>
      </trkpt>
      <trkpt lat="43.53712" lon="3.83316">
        <ele>8.5</ele>
        <time>2013-05-05T08:15:54Z</time>
      </trkpt>
      <trkpt lat="43.53704" lon="3.8331">
        <ele>8.9</ele>
        <time>2013-05-05T08:15:56Z</time>
      </trkpt>
      <trkpt lat="43.53697" lon="3.83306">
        <ele>8.8</ele>
        <time>2013-05-05T08:15:58Z</time>
      </trkpt>
      <trkpt lat="43.53691" lon="3.83302">
        <ele>8.8</ele>
        <time>2013-05-05T08:16:00Z</time>
      </trkpt>
      <trkpt lat="43.53683" lon="3.83299">
        <ele>8.8</ele>
        <time>2013-05-05T08:16:03Z</time>
      </trkpt>
      <trkpt lat="43.53676" lon="3.83295">
        <ele>9</ele>
        <time>2013-05-05T08:16:06Z</time>
      </trkpt>
      <trkpt lat="43.53669" lon="3.83292">
        <ele>9.5</ele>
        <time>2013-05-05T08:16:09Z</time>
      </trkpt>
      <trkpt lat="43.53675" lon="3.83295">
        <ele>9.4</ele>
        <time>2013-05-05T08:16:22Z</time>
      </trkpt>
      <trkpt lat="43.5368" lon="3.83299">
        <ele>9.2</ele>
        <time>2013-05-05T08:16:24Z</time>
      </trkpt>
      <trkpt lat="43.53687" lon="3.83294">
        <ele>9.5</ele>
        <time>2013-05-05T08:16:27Z</time>
      </trkpt>
      <trkpt lat="43.53688" lon="3.83282">
        <ele>9.5</ele>
        <time>2013-05-05T08:16:30Z</time>
      </trkpt>
      <trkpt lat="43.5369" lon="3.83275">
        <ele>9.6</ele>
        <time>2013-05-05T08:16:32Z</time>
      </trkpt>
      <trkpt lat="43.53693" lon="3.83267">
        <ele>9.8</ele>
        <time>2013-05-05T08:16:34Z</time>
      </trkpt>
      <trkpt lat="43.53697" lon="3.8326">
        <ele>10.2</ele>
        <time>2013-05-05T08:16:36Z</time>
      </trkpt>
      <trkpt lat="43.53698" lon="3.83257">
        <ele>10.4</ele>
        <time>2013-05-05T08:16:37Z</time>
      </trkpt>
      <trkpt lat="43.53704" lon="3.83246">
        <ele>10.9</ele>
        <time>2013-05-05T08:16:40Z</time>
      </trkpt>
      <trkpt lat="43.53708" lon="3.83239">
        <ele>10.8</ele>
        <time>2013-05-05T08:16:42Z</time>
      </trkpt>
      <trkpt lat="43.53711" lon="3.83232">
        <ele>10.6</ele>
        <time>2013-05-05T08:16:44Z</time>
      </trkpt>
      <trkpt lat="43.53716" lon="3.83223">
        <ele>10.6</ele>
        <time>2013-05-05T08:16:47Z</time>
      </trkpt>
      <trkpt lat="43.53721" lon="3.83213">
        <ele>11.3</ele>
        <time>2013-05-05T08:16:50Z</time>
      </trkpt>
      <trkpt lat="43.53725" lon="3.83207">
        <ele>11.2</ele>
        <time>2013-05-05T08:16:52Z</time>
      </trkpt>
      <trkpt lat="43.5373" lon="3.832">
        <ele>11</ele>
        <time>2013-05-05T08:16:54Z</time>
      </trkpt>
      <trkpt lat="43.53734" lon="3.83194">
        <ele>10.7</ele>
        <time>2013-05-05T08:16:56Z</time>
      </trkpt>
      <trkpt lat="43.5374" lon="3.8319">
        <ele>10.6</ele>
        <time>2013-05-05T08:16:58Z</time>
      </trkpt>
      <trkpt lat="43.53746" lon="3.83185">
        <ele>10.7</ele>
        <time>2013-05-05T08:17:00Z</time>
      </trkpt>
      <trkpt lat="43.53751" lon="3.8318">
        <ele>10.6</ele>
        <time>2013-05-05T08:17:02Z</time>
      </trkpt>
      <trkpt lat="43.53756" lon="3.83175">
        <ele>11</ele>
        <time>2013-05-05T08:17:04Z</time>
      </trkpt>
      <trkpt lat="43.53761" lon="3.83169">
        <ele>11.5</ele>
        <time>2013-05-05T08:17:06Z</time>
      </trkpt>
      <trkpt lat="43.53766" lon="3.83163">
        <ele>11.5</ele>
        <time>2013-05-05T08:17:08Z</time>
      </trkpt>
      <trkpt lat="43.5377" lon="3.83156">
        <ele>11.5</ele>
        <time>2013-05-05T08:17:10Z</time>
      </trkpt>
      <trkpt lat="43.53774" lon="3.83149">
        <ele>11.5</ele>
        <time>2013-05-05T08:17:12Z</time>
      </trkpt>
      <trkpt lat="43.53778" lon="3.83141">
        <ele>11.8</ele>
        <time>2013-05-05T08:17:14Z</time>
      </trkpt>
      <trkpt lat="43.53781" lon="3.83133">
        <ele>12.1</ele>
        <time>2013-05-05T08:17:16Z</time>
      </trkpt>
      <trkpt lat="43.53785" lon="3.83125">
        <ele>12.1</ele>
        <time>2013-05-05T08:17:18Z</time>
      </trkpt>
      <trkpt lat="43.53789" lon="3.83117">
        <ele>12.2</ele>
        <time>2013-05-05T08:17:20Z</time>
      </trkpt>
      <trkpt lat="43.53792" lon="3.83108">
        <ele>12.4</ele>
        <time>2013-05-05T08:17:22Z</time>
      </trkpt>
      <trkpt lat="43.53796" lon="3.831">
        <ele>12.4</ele>
        <time>2013-05-05T08:17:24Z</time>
      </trkpt>
      <trkpt lat="43.538" lon="3.83092">
        <ele>12.4</ele>
        <time>2013-05-05T08:17:26Z</time>
      </trkpt>
      <trkpt lat="43.53804" lon="3.83084">
        <ele>13</ele>
        <time>2013-05-05T08:17:28Z</time>
      </trkpt>
      <trkpt lat="43.53808" lon="3.83075">
        <ele>13.2</ele>
        <time>2013-05-05T08:17:30Z</time>
      </trkpt>
      <trkpt lat="43.53812" lon="3.83067">
        <ele>13.2</ele>
        <time>2013-05-05T08:17:32Z</time>
      </trkpt>
      <trkpt lat="43.53817" lon="3.83059">
        <ele>12.8</ele>
        <time>2013-05-05T08:17:34Z</time>
      </trkpt>
      <trkpt lat="43.53822" lon="3.83052">
        <ele>13</ele>
        <time>2013-05-05T08:17:36Z</time>
      </trkpt>
      <trkpt lat="43.53827" lon="3.83046">
        <ele>13.4</ele>
        <time>2013-05-05T08:17:38Z</time>
      </trkpt>
      <trkpt lat="43.5383" lon="3.83043">
        <ele>13.5</ele>
        <time>2013-05-05T08:17:39Z</time>
      </trkpt>
      <trkpt lat="43.53838" lon="3.83033">
        <ele>13.5</ele>
        <time>2013-05-05T08:17:43Z</time>
      </trkpt>
      <trkpt lat="43.5383" lon="3.83038">
        <ele>14.2</ele>
        <time>2013-05-05T08:23:16Z</time>
      </trkpt>
      <trkpt lat="43.53829" lon="3.8304">
        <ele>14.1</ele>
        <time>2013-05-05T08:23:17Z</time>
      </trkpt>
      <trkpt lat="43.53821" lon="3.8305">
        <ele>14.3</ele>
        <time>2013-05-05T08:23:21Z</time>
      </trkpt>
      <trkpt lat="43.53815" lon="3.83056">
        <ele>14.7</ele>
        <time>2013-05-05T08:23:23Z</time>
      </trkpt>
      <trkpt lat="43.53811" lon="3.83065">
        <ele>14</ele>
        <time>2013-05-05T08:23:25Z</time>
      </trkpt>
      <trkpt lat="43.53807" lon="3.83073">
        <ele>13.7</ele>
        <time>2013-05-05T08:23:27Z</time>
      </trkpt>
      <trkpt lat="43.53802" lon="3.83081">
        <ele>13.5</ele>
        <time>2013-05-05T08:23:29Z</time>
      </trkpt>
      <trkpt lat="43.53798" lon="3.8309">
        <ele>13.2</ele>
        <time>2013-05-05T08:23:31Z</time>
      </trkpt>
      <trkpt lat="43.53794" lon="3.83098">
        <ele>12.8</ele>
        <time>2013-05-05T08:23:33Z</time>
      </trkpt>
      <trkpt lat="43.5379" lon="3.83106">
        <ele>12.6</ele>
        <time>2013-05-05T08:23:35Z</time>
      </trkpt>
      <trkpt lat="43.53786" lon="3.83116">
        <ele>12.2</ele>
        <time>2013-05-05T08:23:37Z</time>
      </trkpt>
      <trkpt lat="43.53781" lon="3.83125">
        <ele>11.8</ele>
        <time>2013-05-05T08:23:39Z</time>
      </trkpt>
      <trkpt lat="43.53777" lon="3.83136">
        <ele>12.1</ele>
        <time>2013-05-05T08:23:41Z</time>
      </trkpt>
      <trkpt lat="43.53775" lon="3.83141">
        <ele>12.2</ele>
        <time>2013-05-05T08:23:42Z</time>
      </trkpt>
      <trkpt lat="43.53772" lon="3.83146">
        <ele>12</ele>
        <time>2013-05-05T08:23:43Z</time>
      </trkpt>
      <trkpt lat="43.5377" lon="3.83152">
        <ele>11.9</ele>
        <time>2013-05-05T08:23:44Z</time>
      </trkpt>
      <trkpt lat="43.53767" lon="3.83157">
        <ele>11.8</ele>
        <time>2013-05-05T08:23:45Z</time>
      </trkpt>
      <trkpt lat="43.53764" lon="3.83163">
        <ele>11.7</ele>
        <time>2013-05-05T08:23:46Z</time>
      </trkpt>
      <trkpt lat="43.53761" lon="3.83167">
        <ele>11.7</ele>
        <time>2013-05-05T08:23:47Z</time>
      </trkpt>
      <trkpt lat="43.53758" lon="3.83172">
        <ele>11.7</ele>
        <time>2013-05-05T08:23:48Z</time>
      </trkpt>
      <trkpt lat="43.53754" lon="3.83176">
        <ele>11.7</ele>
        <time>2013-05-05T08:23:49Z</time>
      </trkpt>
      <trkpt lat="43.5375" lon="3.83181">
        <ele>11.8</ele>
        <time>2013-05-05T08:23:50Z</time>
      </trkpt>
      <trkpt lat="43.53747" lon="3.83184">
        <ele>11.9</ele>
        <time>2013-05-05T08:23:51Z</time>
      </trkpt>
      <trkpt lat="43.53743" lon="3.83188">
        <ele>11.9</ele>
        <time>2013-05-05T08:23:52Z</time>
      </trkpt>
      <trkpt lat="43.53735" lon="3.83195">
        <ele>11.9</ele>
        <time>2013-05-05T08:23:54Z</time>
      </trkpt>
      <trkpt lat="43.53731" lon="3.83198">
        <ele>11.9</ele>
        <time>2013-05-05T08:23:55Z</time>
      </trkpt>
      <trkpt lat="43.53728" lon="3.83203">
        <ele>11.7</ele>
        <time>2013-05-05T08:23:56Z</time>
      </trkpt>
      <trkpt lat="43.53725" lon="3.83208">
        <ele>11.5</ele>
        <time>2013-05-05T08:23:57Z</time>
      </trkpt>
      <trkpt lat="43.53722" lon="3.83213">
        <ele>11.4</ele>
        <time>2013-05-05T08:23:58Z</time>
      </trkpt>
      <trkpt lat="43.53719" lon="3.83218">
        <ele>11.4</ele>
        <time>2013-05-05T08:23:59Z</time>
      </trkpt>
      <trkpt lat="43.53716" lon="3.83224">
        <ele>11.3</ele>
        <time>2013-05-05T08:24:00Z</time>
      </trkpt>
      <trkpt lat="43.53714" lon="3.83229">
        <ele>11.3</ele>
        <time>2013-05-05T08:24:01Z</time>
      </trkpt>
      <trkpt lat="43.53711" lon="3.83235">
        <ele>11.2</ele>
        <time>2013-05-05T08:24:02Z</time>
      </trkpt>
      <trkpt lat="43.53708" lon="3.8324">
        <ele>11.1</ele>
        <time>2013-05-05T08:24:03Z</time>
      </trkpt>
      <trkpt lat="43.53705" lon="3.83246">
        <ele>11</ele>
        <time>2013-05-05T08:24:04Z</time>
      </trkpt>
      <trkpt lat="43.53702" lon="3.83251">
        <ele>10.9</ele>
        <time>2013-05-05T08:24:05Z</time>
      </trkpt>
      <trkpt lat="43.53699" lon="3.83256">
        <ele>10.8</ele>
        <time>2013-05-05T08:24:06Z</time>
      </trkpt>
      <trkpt lat="43.53696" lon="3.83262">
        <ele>10.7</ele>
        <time>2013-05-05T08:24:07Z</time>
      </trkpt>
      <trkpt lat="43.53694" lon="3.83267">
        <ele>10.6</ele>
        <time>2013-05-05T08:24:08Z</time>
      </trkpt>
      <trkpt lat="43.53691" lon="3.83272">
        <ele>10.7</ele>
        <time>2013-05-05T08:24:09Z</time>
      </trkpt>
      <trkpt lat="43.53689" lon="3.83277">
        <ele>10.7</ele>
        <time>2013-05-05T08:24:10Z</time>
      </trkpt>
      <trkpt lat="43.53687" lon="3.83289">
        <ele>10.6</ele>
        <time>2013-05-05T08:24:12Z</time>
      </trkpt>
      <trkpt lat="43.53688" lon="3.833">
        <ele>10.4</ele>
        <time>2013-05-05T08:24:14Z</time>
      </trkpt>
      <trkpt lat="43.53691" lon="3.83308">
        <ele>10.4</ele>
        <time>2013-05-05T08:24:16Z</time>
      </trkpt>
      <trkpt lat="43.53696" lon="3.83312">
        <ele>10</ele>
        <time>2013-05-05T08:24:18Z</time>
      </trkpt>
      <trkpt lat="43.53699" lon="3.83315">
        <ele>9.7</ele>
        <time>2013-05-05T08:24:19Z</time>
      </trkpt>
      <trkpt lat="43.53709" lon="3.83323">
        <ele>9.1</ele>
        <time>2013-05-05T08:24:22Z</time>
      </trkpt>
      <trkpt lat="43.53716" lon="3.8333">
        <ele>8.8</ele>
        <time>2013-05-05T08:24:24Z</time>
      </trkpt>
      <trkpt lat="43.53723" lon="3.83337">
        <ele>9.5</ele>
        <time>2013-05-05T08:24:26Z</time>
      </trkpt>
      <trkpt lat="43.53727" lon="3.8334">
        <ele>9.7</ele>
        <time>2013-05-05T08:24:27Z</time>
      </trkpt>
      <trkpt lat="43.53731" lon="3.83344">
        <ele>9.8</ele>
        <time>2013-05-05T08:24:28Z</time>
      </trkpt>
      <trkpt lat="43.53735" lon="3.83347">
        <ele>9.8</ele>
        <time>2013-05-05T08:24:29Z</time>
      </trkpt>
      <trkpt lat="43.53738" lon="3.83351">
        <ele>9.9</ele>
        <time>2013-05-05T08:24:30Z</time>
      </trkpt>
      <trkpt lat="43.53742" lon="3.83355">
        <ele>9.8</ele>
        <time>2013-05-05T08:24:31Z</time>
      </trkpt>
      <trkpt lat="43.53746" lon="3.83359">
        <ele>9.8</ele>
        <time>2013-05-05T08:24:32Z</time>
      </trkpt>
      <trkpt lat="43.5375" lon="3.83363">
        <ele>9.8</ele>
        <time>2013-05-05T08:24:33Z</time>
      </trkpt>
      <trkpt lat="43.53754" lon="3.83368">
        <ele>10</ele>
        <time>2013-05-05T08:24:34Z</time>
      </trkpt>
      <trkpt lat="43.53757" lon="3.83372">
        <ele>10.1</ele>
        <time>2013-05-05T08:24:35Z</time>
      </trkpt>
      <trkpt lat="43.53761" lon="3.83376">
        <ele>10.3</ele>
        <time>2013-05-05T08:24:36Z</time>
      </trkpt>
      <trkpt lat="43.53765" lon="3.8338">
        <ele>10.3</ele>
        <time>2013-05-05T08:24:37Z</time>
      </trkpt>
      <trkpt lat="43.53769" lon="3.83384">
        <ele>10.1</ele>
        <time>2013-05-05T08:24:38Z</time>
      </trkpt>
      <trkpt lat="43.53772" lon="3.83388">
        <ele>10</ele>
        <time>2013-05-05T08:24:39Z</time>
      </trkpt>
      <trkpt lat="43.53776" lon="3.83392">
        <ele>9.9</ele>
        <time>2013-05-05T08:24:40Z</time>
      </trkpt>
      <trkpt lat="43.5378" lon="3.83396">
        <ele>9.9</ele>
        <time>2013-05-05T08:24:41Z</time>
      </trkpt>
      <trkpt lat="43.53784" lon="3.83399">
        <ele>9.9</ele>
        <time>2013-05-05T08:24:42Z</time>
      </trkpt>
      <trkpt lat="43.53788" lon="3.83403">
        <ele>9.9</ele>
        <time>2013-05-05T08:24:43Z</time>
      </trkpt>
      <trkpt lat="43.53792" lon="3.83406">
        <ele>9.6</ele>
        <time>2013-05-05T08:24:44Z</time>
      </trkpt>
      <trkpt lat="43.53796" lon="3.8341">
        <ele>9.5</ele>
        <time>2013-05-05T08:24:45Z</time>
      </trkpt>
      <trkpt lat="43.538" lon="3.83414">
        <ele>9.4</ele>
        <time>2013-05-05T08:24:46Z</time>
      </trkpt>
      <trkpt lat="43.53804" lon="3.83418">
        <ele>9.3</ele>
        <time>2013-05-05T08:24:47Z</time>
      </trkpt>
      <trkpt lat="43.53808" lon="3.83421">
        <ele>9.2</ele>
        <time>2013-05-05T08:24:48Z</time>
      </trkpt>
      <trkpt lat="43.53812" lon="3.83425">
        <ele>9.2</ele>
        <time>2013-05-05T08:24:49Z</time>
      </trkpt>
      <trkpt lat="43.53816" lon="3.83429">
        <ele>9.2</ele>
        <time>2013-05-05T08:24:50Z</time>
      </trkpt>
      <trkpt lat="43.5382" lon="3.83433">
        <ele>9.2</ele>
        <time>2013-05-05T08:24:51Z</time>
      </trkpt>
      <trkpt lat="43.53824" lon="3.83438">
        <ele>9.2</ele>
        <time>2013-05-05T08:24:52Z</time>
      </trkpt>
      <trkpt lat="43.53828" lon="3.83442">
        <ele>9.2</ele>
        <time>2013-05-05T08:24:53Z</time>
      </trkpt>
      <trkpt lat="43.53832" lon="3.83446">
        <ele>9.4</ele>
        <time>2013-05-05T08:24:54Z</time>
      </trkpt>
      <trkpt lat="43.53836" lon="3.8345">
        <ele>9.6</ele>
        <time>2013-05-05T08:24:55Z</time>
      </trkpt>
      <trkpt lat="43.5384" lon="3.83453">
        <ele>9.7</ele>
        <time>2013-05-05T08:24:56Z</time>
      </trkpt>
      <trkpt lat="43.53844" lon="3.83457">
        <ele>9.9</ele>
        <time>2013-05-05T08:24:57Z</time>
      </trkpt>
      <trkpt lat="43.53848" lon="3.83461">
        <ele>10</ele>
        <time>2013-05-05T08:24:58Z</time>
      </trkpt>
      <trkpt lat="43.53853" lon="3.83464">
        <ele>10.2</ele>
        <time>2013-05-05T08:24:59Z</time>
      </trkpt>
      <trkpt lat="43.53857" lon="3.83468">
        <ele>10.4</ele>
        <time>2013-05-05T08:25:00Z</time>
      </trkpt>
      <trkpt lat="43.53861" lon="3.83471">
        <ele>10.5</ele>
        <time>2013-05-05T08:25:01Z</time>
      </trkpt>
      <trkpt lat="43.53865" lon="3.83475">
        <ele>10.6</ele>
        <time>2013-05-05T08:25:02Z</time>
      </trkpt>
      <trkpt lat="43.53869" lon="3.83479">
        <ele>10.8</ele>
        <time>2013-05-05T08:25:03Z</time>
      </trkpt>
      <trkpt lat="43.53874" lon="3.83482">
        <ele>11</ele>
        <time>2013-05-05T08:25:04Z</time>
      </trkpt>
      <trkpt lat="43.53878" lon="3.83486">
        <ele>11.1</ele>
        <time>2013-05-05T08:25:05Z</time>
      </trkpt>
      <trkpt lat="43.53882" lon="3.8349">
        <ele>10.8</ele>
        <time>2013-05-05T08:25:06Z</time>
      </trkpt>
      <trkpt lat="43.53886" lon="3.83494">
        <ele>10.6</ele>
        <time>2013-05-05T08:25:07Z</time>
      </trkpt>
      <trkpt lat="43.53891" lon="3.83497">
        <ele>10.5</ele>
        <time>2013-05-05T08:25:08Z</time>
      </trkpt>
      <trkpt lat="43.53895" lon="3.83501">
        <ele>10.5</ele>
        <time>2013-05-05T08:25:09Z</time>
      </trkpt>
      <trkpt lat="43.53899" lon="3.83504">
        <ele>10.6</ele>
        <time>2013-05-05T08:25:10Z</time>
      </trkpt>
      <trkpt lat="43.53904" lon="3.83508">
        <ele>10.6</ele>
        <time>2013-05-05T08:25:11Z</time>
      </trkpt>
      <trkpt lat="43.53908" lon="3.83511">
        <ele>10.6</ele>
        <time>2013-05-05T08:25:12Z</time>
      </trkpt>
      <trkpt lat="43.53913" lon="3.83515">
        <ele>10.4</ele>
        <time>2013-05-05T08:25:13Z</time>
      </trkpt>
      <trkpt lat="43.53917" lon="3.83518">
        <ele>10.3</ele>
        <time>2013-05-05T08:25:14Z</time>
      </trkpt>
      <trkpt lat="43.53921" lon="3.83522">
        <ele>10.2</ele>
        <time>2013-05-05T08:25:15Z</time>
      </trkpt>
      <trkpt lat="43.53926" lon="3.83525">
        <ele>10.5</ele>
        <time>2013-05-05T08:25:16Z</time>
      </trkpt>
      <trkpt lat="43.5393" lon="3.83528">
        <ele>10.7</ele>
        <time>2013-05-05T08:25:17Z</time>
      </trkpt>
      <trkpt lat="43.53935" lon="3.83531">
        <ele>10.9</ele>
        <time>2013-05-05T08:25:18Z</time>
      </trkpt>
      <trkpt lat="43.53939" lon="3.83534">
        <ele>10.6</ele>
        <time>2013-05-05T08:25:19Z</time>
      </trkpt>
      <trkpt lat="43.53944" lon="3.83537">
        <ele>10.4</ele>
        <time>2013-05-05T08:25:20Z</time>
      </trkpt>
      <trkpt lat="43.53948" lon="3.8354">
        <ele>10.2</ele>
        <time>2013-05-05T08:25:21Z</time>
      </trkpt>
      <trkpt lat="43.53953" lon="3.83542">
        <ele>10.2</ele>
        <time>2013-05-05T08:25:22Z</time>
      </trkpt>
      <trkpt lat="43.53958" lon="3.83545">
        <ele>10.1</ele>
        <time>2013-05-05T08:25:23Z</time>
      </trkpt>
      <trkpt lat="43.53962" lon="3.83548">
        <ele>10.1</ele>
        <time>2013-05-05T08:25:24Z</time>
      </trkpt>
      <trkpt lat="43.53967" lon="3.8355">
        <ele>10.1</ele>
        <time>2013-05-05T08:25:25Z</time>
      </trkpt>
      <trkpt lat="43.53972" lon="3.83552">
        <ele>10.1</ele>
        <time>2013-05-05T08:25:26Z</time>
      </trkpt>
      <trkpt lat="43.53977" lon="3.83555">
        <ele>10.1</ele>
        <time>2013-05-05T08:25:27Z</time>
      </trkpt>
      <trkpt lat="43.53982" lon="3.83557">
        <ele>10.2</ele>
        <time>2013-05-05T08:25:28Z</time>
      </trkpt>
      <trkpt lat="43.53987" lon="3.8356">
        <ele>10.3</ele>
        <time>2013-05-05T08:25:29Z</time>
      </trkpt>
      <trkpt lat="43.53992" lon="3.83563">
        <ele>10.4</ele>
        <time>2013-05-05T08:25:30Z</time>
      </trkpt>
      <trkpt lat="43.53997" lon="3.83565">
        <ele>10.5</ele>
        <time>2013-05-05T08:25:31Z</time>
      </trkpt>
      <trkpt lat="43.54002" lon="3.83567">
        <ele>10.7</ele>
        <time>2013-05-05T08:25:32Z</time>
      </trkpt>
      <trkpt lat="43.54007" lon="3.8357">
        <ele>10.9</ele>
        <time>2013-05-05T08:25:33Z</time>
      </trkpt>
      <trkpt lat="43.54012" lon="3.83573">
        <ele>11</ele>
        <time>2013-05-05T08:25:34Z</time>
      </trkpt>
      <trkpt lat="43.54017" lon="3.83576">
        <ele>11.2</ele>
        <time>2013-05-05T08:25:35Z</time>
      </trkpt>
      <trkpt lat="43.54022" lon="3.8358">
        <ele>11.4</ele>
        <time>2013-05-05T08:25:36Z</time>
      </trkpt>
      <trkpt lat="43.54027" lon="3.83583">
        <ele>11.5</ele>
        <time>2013-05-05T08:25:37Z</time>
      </trkpt>
      <trkpt lat="43.54031" lon="3.83586">
        <ele>11.2</ele>
        <time>2013-05-05T08:25:38Z</time>
      </trkpt>
      <trkpt lat="43.54036" lon="3.83589">
        <ele>10.9</ele>
        <time>2013-05-05T08:25:39Z</time>
      </trkpt>
      <trkpt lat="43.54041" lon="3.83592">
        <ele>10.7</ele>
        <time>2013-05-05T08:25:40Z</time>
      </trkpt>
      <trkpt lat="43.54046" lon="3.83595">
        <ele>10.4</ele>
        <time>2013-05-05T08:25:41Z</time>
      </trkpt>
      <trkpt lat="43.54051" lon="3.83598">
        <ele>10.2</ele>
        <time>2013-05-05T08:25:42Z</time>
      </trkpt>
      <trkpt lat="43.54055" lon="3.83601">
        <ele>10</ele>
        <time>2013-05-05T08:25:43Z</time>
      </trkpt>
      <trkpt lat="43.5406" lon="3.83604">
        <ele>9.9</ele>
        <time>2013-05-05T08:25:44Z</time>
      </trkpt>
      <trkpt lat="43.54065" lon="3.83607">
        <ele>9.7</ele>
        <time>2013-05-05T08:25:45Z</time>
      </trkpt>
      <trkpt lat="43.54069" lon="3.8361">
        <ele>9.5</ele>
        <time>2013-05-05T08:25:46Z</time>
      </trkpt>
      <trkpt lat="43.54074" lon="3.83613">
        <ele>9.3</ele>
        <time>2013-05-05T08:25:47Z</time>
      </trkpt>
      <trkpt lat="43.54079" lon="3.83616">
        <ele>9.3</ele>
        <time>2013-05-05T08:25:48Z</time>
      </trkpt>
      <trkpt lat="43.54083" lon="3.83619">
        <ele>9.3</ele>
        <time>2013-05-05T08:25:49Z</time>
      </trkpt>
      <trkpt lat="43.54087" lon="3.83623">
        <ele>9.3</ele>
        <time>2013-05-05T08:25:50Z</time>
      </trkpt>
      <trkpt lat="43.54091" lon="3.83627">
        <ele>9.5</ele>
        <time>2013-05-05T08:25:51Z</time>
      </trkpt>
      <trkpt lat="43.54095" lon="3.83631">
        <ele>9.6</ele>
        <time>2013-05-05T08:25:52Z</time>
      </trkpt>
      <trkpt lat="43.541" lon="3.83635">
        <ele>9.7</ele>
        <time>2013-05-05T08:25:53Z</time>
      </trkpt>
      <trkpt lat="43.54104" lon="3.83639">
        <ele>10.1</ele>
        <time>2013-05-05T08:25:54Z</time>
      </trkpt>
      <trkpt lat="43.54108" lon="3.83643">
        <ele>10.3</ele>
        <time>2013-05-05T08:25:55Z</time>
      </trkpt>
      <trkpt lat="43.54112" lon="3.83647">
        <ele>10.5</ele>
        <time>2013-05-05T08:25:56Z</time>
      </trkpt>
      <trkpt lat="43.54116" lon="3.83652">
        <ele>10.9</ele>
        <time>2013-05-05T08:25:57Z</time>
      </trkpt>
      <trkpt lat="43.54121" lon="3.83656">
        <ele>11.3</ele>
        <time>2013-05-05T08:25:58Z</time>
      </trkpt>
      <trkpt lat="43.54125" lon="3.83661">
        <ele>11.5</ele>
        <time>2013-05-05T08:25:59Z</time>
      </trkpt>
      <trkpt lat="43.5413" lon="3.83665">
        <ele>11.7</ele>
        <time>2013-05-05T08:26:00Z</time>
      </trkpt>
      <trkpt lat="43.54135" lon="3.83669">
        <ele>11.2</ele>
        <time>2013-05-05T08:26:01Z</time>
      </trkpt>
      <trkpt lat="43.54139" lon="3.83673">
        <ele>10.8</ele>
        <time>2013-05-05T08:26:02Z</time>
      </trkpt>
      <trkpt lat="43.54144" lon="3.83678">
        <ele>10.6</ele>
        <time>2013-05-05T08:26:03Z</time>
      </trkpt>
      <trkpt lat="43.54148" lon="3.83682">
        <ele>10.3</ele>
        <time>2013-05-05T08:26:04Z</time>
      </trkpt>
      <trkpt lat="43.54153" lon="3.83687">
        <ele>10.1</ele>
        <time>2013-05-05T08:26:05Z</time>
      </trkpt>
      <trkpt lat="43.54157" lon="3.83691">
        <ele>10</ele>
        <time>2013-05-05T08:26:06Z</time>
      </trkpt>
      <trkpt lat="43.54162" lon="3.83696">
        <ele>9.8</ele>
        <time>2013-05-05T08:26:07Z</time>
      </trkpt>
      <trkpt lat="43.54166" lon="3.837">
        <ele>9.6</ele>
        <time>2013-05-05T08:26:08Z</time>
      </trkpt>
      <trkpt lat="43.54171" lon="3.83704">
        <ele>9.5</ele>
        <time>2013-05-05T08:26:09Z</time>
      </trkpt>
      <trkpt lat="43.54175" lon="3.83709">
        <ele>9.5</ele>
        <time>2013-05-05T08:26:10Z</time>
      </trkpt>
      <trkpt lat="43.54179" lon="3.83713">
        <ele>9.5</ele>
        <time>2013-05-05T08:26:11Z</time>
      </trkpt>
      <trkpt lat="43.54184" lon="3.83718">
        <ele>9.5</ele>
        <time>2013-05-05T08:26:12Z</time>
      </trkpt>
      <trkpt lat="43.54188" lon="3.83722">
        <ele>9.3</ele>
        <time>2013-05-05T08:26:13Z</time>
      </trkpt>
      <trkpt lat="43.54193" lon="3.83726">
        <ele>9.1</ele>
        <time>2013-05-05T08:26:14Z</time>
      </trkpt>
      <trkpt lat="43.54197" lon="3.8373">
        <ele>9</ele>
        <time>2013-05-05T08:26:15Z</time>
      </trkpt>
      <trkpt lat="43.54202" lon="3.83734">
        <ele>9.2</ele>
        <time>2013-05-05T08:26:16Z</time>
      </trkpt>
      <trkpt lat="43.54206" lon="3.83738">
        <ele>9.4</ele>
        <time>2013-05-05T08:26:17Z</time>
      </trkpt>
      <trkpt lat="43.54211" lon="3.83742">
        <ele>9.5</ele>
        <time>2013-05-05T08:26:18Z</time>
      </trkpt>
      <trkpt lat="43.54215" lon="3.83746">
        <ele>9.6</ele>
        <time>2013-05-05T08:26:19Z</time>
      </trkpt>
      <trkpt lat="43.5422" lon="3.83749">
        <ele>9.9</ele>
        <time>2013-05-05T08:26:20Z</time>
      </trkpt>
      <trkpt lat="43.54224" lon="3.83753">
        <ele>10.1</ele>
        <time>2013-05-05T08:26:21Z</time>
      </trkpt>
      <trkpt lat="43.54229" lon="3.83756">
        <ele>10.2</ele>
        <time>2013-05-05T08:26:22Z</time>
      </trkpt>
      <trkpt lat="43.54234" lon="3.83759">
        <ele>10.1</ele>
        <time>2013-05-05T08:26:23Z</time>
      </trkpt>
      <trkpt lat="43.54238" lon="3.83761">
        <ele>10</ele>
        <time>2013-05-05T08:26:24Z</time>
      </trkpt>
      <trkpt lat="43.54243" lon="3.83764">
        <ele>10</ele>
        <time>2013-05-05T08:26:25Z</time>
      </trkpt>
      <trkpt lat="43.54247" lon="3.83766">
        <ele>9.6</ele>
        <time>2013-05-05T08:26:26Z</time>
      </trkpt>
      <trkpt lat="43.54252" lon="3.83769">
        <ele>9.3</ele>
        <time>2013-05-05T08:26:27Z</time>
      </trkpt>
      <trkpt lat="43.54257" lon="3.83771">
        <ele>9</ele>
        <time>2013-05-05T08:26:28Z</time>
      </trkpt>
      <trkpt lat="43.54262" lon="3.83774">
        <ele>9.1</ele>
        <time>2013-05-05T08:26:29Z</time>
      </trkpt>
      <trkpt lat="43.54266" lon="3.83777">
        <ele>9.1</ele>
        <time>2013-05-05T08:26:30Z</time>
      </trkpt>
      <trkpt lat="43.54271" lon="3.83779">
        <ele>9.2</ele>
        <time>2013-05-05T08:26:31Z</time>
      </trkpt>
      <trkpt lat="43.54275" lon="3.83782">
        <ele>9.3</ele>
        <time>2013-05-05T08:26:32Z</time>
      </trkpt>
      <trkpt lat="43.5428" lon="3.83785">
        <ele>9.3</ele>
        <time>2013-05-05T08:26:33Z</time>
      </trkpt>
      <trkpt lat="43.54284" lon="3.83788">
        <ele>9.4</ele>
        <time>2013-05-05T08:26:34Z</time>
      </trkpt>
      <trkpt lat="43.54289" lon="3.83791">
        <ele>9.4</ele>
        <time>2013-05-05T08:26:35Z</time>
      </trkpt>
      <trkpt lat="43.54293" lon="3.83794">
        <ele>10.1</ele>
        <time>2013-05-05T08:26:36Z</time>
      </trkpt>
      <trkpt lat="43.54298" lon="3.83797">
        <ele>10.6</ele>
        <time>2013-05-05T08:26:37Z</time>
      </trkpt>
      <trkpt lat="43.54302" lon="3.83799">
        <ele>11</ele>
        <time>2013-05-05T08:26:38Z</time>
      </trkpt>
      <trkpt lat="43.54307" lon="3.83802">
        <ele>10.6</ele>
        <time>2013-05-05T08:26:39Z</time>
      </trkpt>
      <trkpt lat="43.54311" lon="3.83805">
        <ele>10.4</ele>
        <time>2013-05-05T08:26:40Z</time>
      </trkpt>
      <trkpt lat="43.54316" lon="3.83808">
        <ele>10.2</ele>
        <time>2013-05-05T08:26:41Z</time>
      </trkpt>
      <trkpt lat="43.5432" lon="3.83811">
        <ele>10.1</ele>
        <time>2013-05-05T08:26:42Z</time>
      </trkpt>
      <trkpt lat="43.54324" lon="3.83814">
        <ele>10</ele>
        <time>2013-05-05T08:26:43Z</time>
      </trkpt>
      <trkpt lat="43.54328" lon="3.83818">
        <ele>9.9</ele>
        <time>2013-05-05T08:26:44Z</time>
      </trkpt>
      <trkpt lat="43.54332" lon="3.83822">
        <ele>10</ele>
        <time>2013-05-05T08:26:45Z</time>
      </trkpt>
      <trkpt lat="43.54338" lon="3.8383">
        <ele>10</ele>
        <time>2013-05-05T08:26:47Z</time>
      </trkpt>
      <trkpt lat="43.54343" lon="3.83838">
        <ele>10.6</ele>
        <time>2013-05-05T08:26:49Z</time>
      </trkpt>
      <trkpt lat="43.5435" lon="3.83846">
        <ele>11.1</ele>
        <time>2013-05-05T08:26:52Z</time>
      </trkpt>
      <trkpt lat="43.54353" lon="3.83837">
        <ele>11.2</ele>
        <time>2013-05-05T08:26:56Z</time>
      </trkpt>
      <trkpt lat="43.54353" lon="3.83827">
        <ele>11.3</ele>
        <time>2013-05-05T08:26:58Z</time>
      </trkpt>
      <trkpt lat="43.54353" lon="3.83815">
        <ele>11.5</ele>
        <time>2013-05-05T08:27:00Z</time>
      </trkpt>
      <trkpt lat="43.54353" lon="3.83803">
        <ele>11.5</ele>
        <time>2013-05-05T08:27:02Z</time>
      </trkpt>
      <trkpt lat="43.54353" lon="3.83797">
        <ele>11.6</ele>
        <time>2013-05-05T08:27:03Z</time>
      </trkpt>
      <trkpt lat="43.54353" lon="3.83791">
        <ele>11.8</ele>
        <time>2013-05-05T08:27:04Z</time>
      </trkpt>
      <trkpt lat="43.54353" lon="3.83784">
        <ele>12.1</ele>
        <time>2013-05-05T08:27:05Z</time>
      </trkpt>
      <trkpt lat="43.54353" lon="3.83778">
        <ele>12.2</ele>
        <time>2013-05-05T08:27:06Z</time>
      </trkpt>
      <trkpt lat="43.54353" lon="3.83771">
        <ele>12.3</ele>
        <time>2013-05-05T08:27:07Z</time>
      </trkpt>
      <trkpt lat="43.54353" lon="3.83764">
        <ele>12.8</ele>
        <time>2013-05-05T08:27:08Z</time>
      </trkpt>
      <trkpt lat="43.54353" lon="3.83757">
        <ele>13.1</ele>
        <time>2013-05-05T08:27:09Z</time>
      </trkpt>
      <trkpt lat="43.54354" lon="3.8375">
        <ele>13.4</ele>
        <time>2013-05-05T08:27:10Z</time>
      </trkpt>
      <trkpt lat="43.54354" lon="3.83744">
        <ele>13.3</ele>
        <time>2013-05-05T08:27:11Z</time>
      </trkpt>
      <trkpt lat="43.54354" lon="3.83737">
        <ele>13.2</ele>
        <time>2013-05-05T08:27:12Z</time>
      </trkpt>
      <trkpt lat="43.54355" lon="3.8373">
        <ele>13.2</ele>
        <time>2013-05-05T08:27:13Z</time>
      </trkpt>
      <trkpt lat="43.54355" lon="3.83723">
        <ele>13.3</ele>
        <time>2013-05-05T08:27:14Z</time>
      </trkpt>
      <trkpt lat="43.54356" lon="3.83717">
        <ele>13.4</ele>
        <time>2013-05-05T08:27:15Z</time>
      </trkpt>
      <trkpt lat="43.54357" lon="3.8371">
        <ele>13.4</ele>
        <time>2013-05-05T08:27:16Z</time>
      </trkpt>
      <trkpt lat="43.54357" lon="3.83703">
        <ele>13.2</ele>
        <time>2013-05-05T08:27:17Z</time>
      </trkpt>
      <trkpt lat="43.54358" lon="3.83696">
        <ele>13</ele>
        <time>2013-05-05T08:27:18Z</time>
      </trkpt>
      <trkpt lat="43.54359" lon="3.8369">
        <ele>12.9</ele>
        <time>2013-05-05T08:27:19Z</time>
      </trkpt>
      <trkpt lat="43.5436" lon="3.83683">
        <ele>12.9</ele>
        <time>2013-05-05T08:27:20Z</time>
      </trkpt>
      <trkpt lat="43.54361" lon="3.83676">
        <ele>12.9</ele>
        <time>2013-05-05T08:27:21Z</time>
      </trkpt>
      <trkpt lat="43.54362" lon="3.83669">
        <ele>12.9</ele>
        <time>2013-05-05T08:27:22Z</time>
      </trkpt>
      <trkpt lat="43.54363" lon="3.83662">
        <ele>12.9</ele>
        <time>2013-05-05T08:27:23Z</time>
      </trkpt>
      <trkpt lat="43.54364" lon="3.83655">
        <ele>13.3</ele>
        <time>2013-05-05T08:27:24Z</time>
      </trkpt>
      <trkpt lat="43.54365" lon="3.83648">
        <ele>13.7</ele>
        <time>2013-05-05T08:27:25Z</time>
      </trkpt>
      <trkpt lat="43.54366" lon="3.83641">
        <ele>13.9</ele>
        <time>2013-05-05T08:27:26Z</time>
      </trkpt>
      <trkpt lat="43.54367" lon="3.83634">
        <ele>13.8</ele>
        <time>2013-05-05T08:27:27Z</time>
      </trkpt>
      <trkpt lat="43.54368" lon="3.83627">
        <ele>13.7</ele>
        <time>2013-05-05T08:27:28Z</time>
      </trkpt>
      <trkpt lat="43.54369" lon="3.8362">
        <ele>13.7</ele>
        <time>2013-05-05T08:27:29Z</time>
      </trkpt>
      <trkpt lat="43.54371" lon="3.83613">
        <ele>13.5</ele>
        <time>2013-05-05T08:27:30Z</time>
      </trkpt>
      <trkpt lat="43.54372" lon="3.83606">
        <ele>13.3</ele>
        <time>2013-05-05T08:27:31Z</time>
      </trkpt>
      <trkpt lat="43.54373" lon="3.83599">
        <ele>13.2</ele>
        <time>2013-05-05T08:27:32Z</time>
      </trkpt>
      <trkpt lat="43.54375" lon="3.83592">
        <ele>13.2</ele>
        <time>2013-05-05T08:27:33Z</time>
      </trkpt>
      <trkpt lat="43.54376" lon="3.83585">
        <ele>13.3</ele>
        <time>2013-05-05T08:27:34Z</time>
      </trkpt>
      <trkpt lat="43.54377" lon="3.83578">
        <ele>13.3</ele>
        <time>2013-05-05T08:27:35Z</time>
      </trkpt>
      <trkpt lat="43.54378" lon="3.83571">
        <ele>13.4</ele>
        <time>2013-05-05T08:27:36Z</time>
      </trkpt>
      <trkpt lat="43.5438" lon="3.83564">
        <ele>13.6</ele>
        <time>2013-05-05T08:27:37Z</time>
      </trkpt>
      <trkpt lat="43.54381" lon="3.83557">
        <ele>13.7</ele>
        <time>2013-05-05T08:27:38Z</time>
      </trkpt>
      <trkpt lat="43.54382" lon="3.8355">
        <ele>13.5</ele>
        <time>2013-05-05T08:27:39Z</time>
      </trkpt>
      <trkpt lat="43.54384" lon="3.83543">
        <ele>13.4</ele>
        <time>2013-05-05T08:27:40Z</time>
      </trkpt>
      <trkpt lat="43.54385" lon="3.83536">
        <ele>13.4</ele>
        <time>2013-05-05T08:27:41Z</time>
      </trkpt>
      <trkpt lat="43.54386" lon="3.83529">
        <ele>13.3</ele>
        <time>2013-05-05T08:27:42Z</time>
      </trkpt>
      <trkpt lat="43.54387" lon="3.83522">
        <ele>13.5</ele>
        <time>2013-05-05T08:27:43Z</time>
      </trkpt>
      <trkpt lat="43.54389" lon="3.83515">
        <ele>13.7</ele>
        <time>2013-05-05T08:27:44Z</time>
      </trkpt>
      <trkpt lat="43.5439" lon="3.83508">
        <ele>13.8</ele>
        <time>2013-05-05T08:27:45Z</time>
      </trkpt>
      <trkpt lat="43.54391" lon="3.83501">
        <ele>13.9</ele>
        <time>2013-05-05T08:27:46Z</time>
      </trkpt>
      <trkpt lat="43.54392" lon="3.83494">
        <ele>13.9</ele>
        <time>2013-05-05T08:27:47Z</time>
      </trkpt>
      <trkpt lat="43.54394" lon="3.83488">
        <ele>13.9</ele>
        <time>2013-05-05T08:27:48Z</time>
      </trkpt>
      <trkpt lat="43.54395" lon="3.83481">
        <ele>13.8</ele>
        <time>2013-05-05T08:27:49Z</time>
      </trkpt>
      <trkpt lat="43.54396" lon="3.83474">
        <ele>13.7</ele>
        <time>2013-05-05T08:27:50Z</time>
      </trkpt>
      <trkpt lat="43.54398" lon="3.83467">
        <ele>13.6</ele>
        <time>2013-05-05T08:27:51Z</time>
      </trkpt>
      <trkpt lat="43.54399" lon="3.83459">
        <ele>13.6</ele>
        <time>2013-05-05T08:27:52Z</time>
      </trkpt>
      <trkpt lat="43.544" lon="3.83452">
        <ele>13.6</ele>
        <time>2013-05-05T08:27:53Z</time>
      </trkpt>
      <trkpt lat="43.54401" lon="3.83445">
        <ele>13.6</ele>
        <time>2013-05-05T08:27:54Z</time>
      </trkpt>
      <trkpt lat="43.54402" lon="3.83438">
        <ele>13.7</ele>
        <time>2013-05-05T08:27:55Z</time>
      </trkpt>
      <trkpt lat="43.54404" lon="3.83431">
        <ele>13.8</ele>
        <time>2013-05-05T08:27:56Z</time>
      </trkpt>
      <trkpt lat="43.54405" lon="3.83424">
        <ele>13.9</ele>
        <time>2013-05-05T08:27:57Z</time>
      </trkpt>
      <trkpt lat="43.54406" lon="3.83417">
        <ele>13.9</ele>
        <time>2013-05-05T08:27:58Z</time>
      </trkpt>
      <trkpt lat="43.54407" lon="3.83411">
        <ele>13.9</ele>
        <time>2013-05-05T08:27:59Z</time>
      </trkpt>
      <trkpt lat="43.54408" lon="3.83404">
        <ele>13.9</ele>
        <time>2013-05-05T08:28:00Z</time>
      </trkpt>
      <trkpt lat="43.54409" lon="3.83397">
        <ele>13.8</ele>
        <time>2013-05-05T08:28:01Z</time>
      </trkpt>
      <trkpt lat="43.54411" lon="3.8339">
        <ele>13.9</ele>
        <time>2013-05-05T08:28:02Z</time>
      </trkpt>
      <trkpt lat="43.54412" lon="3.83383">
        <ele>14</ele>
        <time>2013-05-05T08:28:03Z</time>
      </trkpt>
      <trkpt lat="43.54413" lon="3.83376">
        <ele>14.1</ele>
        <time>2013-05-05T08:28:04Z</time>
      </trkpt>
      <trkpt lat="43.54414" lon="3.83369">
        <ele>14.3</ele>
        <time>2013-05-05T08:28:05Z</time>
      </trkpt>
      <trkpt lat="43.54416" lon="3.83362">
        <ele>14.5</ele>
        <time>2013-05-05T08:28:06Z</time>
      </trkpt>
      <trkpt lat="43.54417" lon="3.83355">
        <ele>14.6</ele>
        <time>2013-05-05T08:28:07Z</time>
      </trkpt>
      <trkpt lat="43.54418" lon="3.83348">
        <ele>14.7</ele>
        <time>2013-05-05T08:28:08Z</time>
      </trkpt>
      <trkpt lat="43.5442" lon="3.83341">
        <ele>14.8</ele>
        <time>2013-05-05T08:28:09Z</time>
      </trkpt>
      <trkpt lat="43.54421" lon="3.83335">
        <ele>14.9</ele>
        <time>2013-05-05T08:28:10Z</time>
      </trkpt>
      <trkpt lat="43.54422" lon="3.83328">
        <ele>14.8</ele>
        <time>2013-05-05T08:28:11Z</time>
      </trkpt>
      <trkpt lat="43.54423" lon="3.83321">
        <ele>14.8</ele>
        <time>2013-05-05T08:28:12Z</time>
      </trkpt>
      <trkpt lat="43.54425" lon="3.83315">
        <ele>14.8</ele>
        <time>2013-05-05T08:28:13Z</time>
      </trkpt>
      <trkpt lat="43.54426" lon="3.83308">
        <ele>14.8</ele>
        <time>2013-05-05T08:28:14Z</time>
      </trkpt>
      <trkpt lat="43.54427" lon="3.83302">
        <ele>14.9</ele>
        <time>2013-05-05T08:28:15Z</time>
      </trkpt>
      <trkpt lat="43.54428" lon="3.83296">
        <ele>14.9</ele>
        <time>2013-05-05T08:28:16Z</time>
      </trkpt>
      <trkpt lat="43.54429" lon="3.8329">
        <ele>15</ele>
        <time>2013-05-05T08:28:17Z</time>
      </trkpt>
      <trkpt lat="43.5443" lon="3.83283">
        <ele>15.2</ele>
        <time>2013-05-05T08:28:18Z</time>
      </trkpt>
      <trkpt lat="43.54431" lon="3.83277">
        <ele>15.4</ele>
        <time>2013-05-05T08:28:19Z</time>
      </trkpt>
      <trkpt lat="43.54432" lon="3.8327">
        <ele>15.5</ele>
        <time>2013-05-05T08:28:20Z</time>
      </trkpt>
      <trkpt lat="43.54433" lon="3.83264">
        <ele>15.8</ele>
        <time>2013-05-05T08:28:21Z</time>
      </trkpt>
      <trkpt lat="43.54435" lon="3.83257">
        <ele>16.1</ele>
        <time>2013-05-05T08:28:22Z</time>
      </trkpt>
      <trkpt lat="43.54436" lon="3.83251">
        <ele>16.2</ele>
        <time>2013-05-05T08:28:23Z</time>
      </trkpt>
      <trkpt lat="43.54437" lon="3.83245">
        <ele>16.9</ele>
        <time>2013-05-05T08:28:24Z</time>
      </trkpt>
      <trkpt lat="43.54438" lon="3.83238">
        <ele>17.4</ele>
        <time>2013-05-05T08:28:25Z</time>
      </trkpt>
      <trkpt lat="43.54439" lon="3.83232">
        <ele>17.8</ele>
        <time>2013-05-05T08:28:26Z</time>
      </trkpt>
      <trkpt lat="43.5444" lon="3.83226">
        <ele>18.2</ele>
        <time>2013-05-05T08:28:27Z</time>
      </trkpt>
      <trkpt lat="43.54441" lon="3.8322">
        <ele>18.5</ele>
        <time>2013-05-05T08:28:28Z</time>
      </trkpt>
      <trkpt lat="43.54442" lon="3.83214">
        <ele>18.7</ele>
        <time>2013-05-05T08:28:29Z</time>
      </trkpt>
      <trkpt lat="43.54443" lon="3.83208">
        <ele>18.8</ele>
        <time>2013-05-05T08:28:30Z</time>
      </trkpt>
      <trkpt lat="43.54445" lon="3.83196">
        <ele>18.3</ele>
        <time>2013-05-05T08:28:32Z</time>
      </trkpt>
      <trkpt lat="43.54446" lon="3.8319">
        <ele>18.1</ele>
        <time>2013-05-05T08:28:33Z</time>
      </trkpt>
      <trkpt lat="43.54448" lon="3.83184">
        <ele>18.6</ele>
        <time>2013-05-05T08:28:34Z</time>
      </trkpt>
      <trkpt lat="43.54449" lon="3.83178">
        <ele>19</ele>
        <time>2013-05-05T08:28:35Z</time>
      </trkpt>
      <trkpt lat="43.5445" lon="3.83171">
        <ele>19.2</ele>
        <time>2013-05-05T08:28:36Z</time>
      </trkpt>
      <trkpt lat="43.54452" lon="3.83159">
        <ele>19.2</ele>
        <time>2013-05-05T08:28:38Z</time>
      </trkpt>
      <trkpt lat="43.54453" lon="3.83153">
        <ele>19.2</ele>
        <time>2013-05-05T08:28:39Z</time>
      </trkpt>
      <trkpt lat="43.54455" lon="3.83142">
        <ele>19.3</ele>
        <time>2013-05-05T08:28:41Z</time>
      </trkpt>
      <trkpt lat="43.54457" lon="3.8313">
        <ele>19.6</ele>
        <time>2013-05-05T08:28:43Z</time>
      </trkpt>
      <trkpt lat="43.54459" lon="3.83119">
        <ele>20</ele>
        <time>2013-05-05T08:28:45Z</time>
      </trkpt>
      <trkpt lat="43.54462" lon="3.83107">
        <ele>20.2</ele>
        <time>2013-05-05T08:28:47Z</time>
      </trkpt>
      <trkpt lat="43.54464" lon="3.83096">
        <ele>20.3</ele>
        <time>2013-05-05T08:28:49Z</time>
      </trkpt>
      <trkpt lat="43.54466" lon="3.83085">
        <ele>20.6</ele>
        <time>2013-05-05T08:28:51Z</time>
      </trkpt>
      <trkpt lat="43.54468" lon="3.83074">
        <ele>21.1</ele>
        <time>2013-05-05T08:28:53Z</time>
      </trkpt>
      <trkpt lat="43.54469" lon="3.83063">
        <ele>21.5</ele>
        <time>2013-05-05T08:28:55Z</time>
      </trkpt>
      <trkpt lat="43.54471" lon="3.83053">
        <ele>21.7</ele>
        <time>2013-05-05T08:28:57Z</time>
      </trkpt>
      <trkpt lat="43.54473" lon="3.83042">
        <ele>21.8</ele>
        <time>2013-05-05T08:28:59Z</time>
      </trkpt>
      <trkpt lat="43.54474" lon="3.83031">
        <ele>21.9</ele>
        <time>2013-05-05T08:29:01Z</time>
      </trkpt>
      <trkpt lat="43.54476" lon="3.8302">
        <ele>22.3</ele>
        <time>2013-05-05T08:29:03Z</time>
      </trkpt>
      <trkpt lat="43.54476" lon="3.83009">
        <ele>23</ele>
        <time>2013-05-05T08:29:05Z</time>
      </trkpt>
      <trkpt lat="43.54477" lon="3.82999">
        <ele>23</ele>
        <time>2013-05-05T08:29:07Z</time>
      </trkpt>
      <trkpt lat="43.54478" lon="3.82989">
        <ele>23.5</ele>
        <time>2013-05-05T08:29:09Z</time>
      </trkpt>
      <trkpt lat="43.54479" lon="3.82978">
        <ele>24.1</ele>
        <time>2013-05-05T08:29:11Z</time>
      </trkpt>
      <trkpt lat="43.5448" lon="3.82969">
        <ele>25</ele>
        <time>2013-05-05T08:29:13Z</time>
      </trkpt>
      <trkpt lat="43.54483" lon="3.82958">
        <ele>24.5</ele>
        <time>2013-05-05T08:29:17Z</time>
      </trkpt>
      <trkpt lat="43.54483" lon="3.82946">
        <ele>25.1</ele>
        <time>2013-05-05T08:29:20Z</time>
      </trkpt>
      <trkpt lat="43.54483" lon="3.82937">
        <ele>25.2</ele>
        <time>2013-05-05T08:29:22Z</time>
      </trkpt>
      <trkpt lat="43.54483" lon="3.82928">
        <ele>25.1</ele>
        <time>2013-05-05T08:29:24Z</time>
      </trkpt>
      <trkpt lat="43.54483" lon="3.82923">
        <ele>25.5</ele>
        <time>2013-05-05T08:29:25Z</time>
      </trkpt>
      <trkpt lat="43.54482" lon="3.82908">
        <ele>26.1</ele>
        <time>2013-05-05T08:29:28Z</time>
      </trkpt>
      <trkpt lat="43.54482" lon="3.82899">
        <ele>26</ele>
        <time>2013-05-05T08:29:30Z</time>
      </trkpt>
      <trkpt lat="43.54481" lon="3.82889">
        <ele>26.8</ele>
        <time>2013-05-05T08:29:32Z</time>
      </trkpt>
      <trkpt lat="43.54481" lon="3.8288">
        <ele>27.3</ele>
        <time>2013-05-05T08:29:34Z</time>
      </trkpt>
      <trkpt lat="43.54481" lon="3.82871">
        <ele>27.5</ele>
        <time>2013-05-05T08:29:36Z</time>
      </trkpt>
      <trkpt lat="43.54481" lon="3.82862">
        <ele>27.7</ele>
        <time>2013-05-05T08:29:38Z</time>
      </trkpt>
      <trkpt lat="43.54481" lon="3.82853">
        <ele>27.8</ele>
        <time>2013-05-05T08:29:40Z</time>
      </trkpt>
      <trkpt lat="43.54481" lon="3.82845">
        <ele>28.6</ele>
        <time>2013-05-05T08:29:42Z</time>
      </trkpt>
      <trkpt lat="43.5448" lon="3.82836">
        <ele>29</ele>
        <time>2013-05-05T08:29:44Z</time>
      </trkpt>
      <trkpt lat="43.5448" lon="3.82827">
        <ele>29.3</ele>
        <time>2013-05-05T08:29:46Z</time>
      </trkpt>
      <trkpt lat="43.5448" lon="3.82818">
        <ele>30</ele>
        <time>2013-05-05T08:29:48Z</time>
      </trkpt>
      <trkpt lat="43.5448" lon="3.8281">
        <ele>30.5</ele>
        <time>2013-05-05T08:29:50Z</time>
      </trkpt>
      <trkpt lat="43.5448" lon="3.82801">
        <ele>30.8</ele>
        <time>2013-05-05T08:29:52Z</time>
      </trkpt>
      <trkpt lat="43.5448" lon="3.82792">
        <ele>31</ele>
        <time>2013-05-05T08:29:54Z</time>
      </trkpt>
      <trkpt lat="43.5448" lon="3.82783">
        <ele>31.1</ele>
        <time>2013-05-05T08:29:56Z</time>
      </trkpt>
      <trkpt lat="43.5448" lon="3.82774">
        <ele>32.3</ele>
        <time>2013-05-05T08:29:58Z</time>
      </trkpt>
      <trkpt lat="43.5448" lon="3.82765">
        <ele>33</ele>
        <time>2013-05-05T08:30:00Z</time>
      </trkpt>
      <trkpt lat="43.5448" lon="3.82756">
        <ele>33.5</ele>
        <time>2013-05-05T08:30:02Z</time>
      </trkpt>
      <trkpt lat="43.5448" lon="3.82747">
        <ele>33.7</ele>
        <time>2013-05-05T08:30:04Z</time>
      </trkpt>
      <trkpt lat="43.5448" lon="3.82739">
        <ele>34.2</ele>
        <time>2013-05-05T08:30:06Z</time>
      </trkpt>
      <trkpt lat="43.5448" lon="3.8273">
        <ele>34.7</ele>
        <time>2013-05-05T08:30:08Z</time>
      </trkpt>
      <trkpt lat="43.54481" lon="3.82722">
        <ele>34.7</ele>
        <time>2013-05-05T08:30:10Z</time>
      </trkpt>
      <trkpt lat="43.54481" lon="3.8271">
        <ele>34.6</ele>
        <time>2013-05-05T08:30:13Z</time>
      </trkpt>
      <trkpt lat="43.5448" lon="3.82698">
        <ele>35.1</ele>
        <time>2013-05-05T08:30:16Z</time>
      </trkpt>
      <trkpt lat="43.5448" lon="3.82688">
        <ele>36</ele>
        <time>2013-05-05T08:30:19Z</time>
      </trkpt>
      <trkpt lat="43.54482" lon="3.82676">
        <ele>37.1</ele>
        <time>2013-05-05T08:30:24Z</time>
      </trkpt>
      <trkpt lat="43.54488" lon="3.82669">
        <ele>37.6</ele>
        <time>2013-05-05T08:30:27Z</time>
      </trkpt>
      <trkpt lat="43.54489" lon="3.82665">
        <ele>37.7</ele>
        <time>2013-05-05T08:30:28Z</time>
      </trkpt>
      <trkpt lat="43.5449" lon="3.82652">
        <ele>38.4</ele>
        <time>2013-05-05T08:30:31Z</time>
      </trkpt>
      <trkpt lat="43.5449" lon="3.82644">
        <ele>38.7</ele>
        <time>2013-05-05T08:30:33Z</time>
      </trkpt>
      <trkpt lat="43.54491" lon="3.82635">
        <ele>39</ele>
        <time>2013-05-05T08:30:35Z</time>
      </trkpt>
      <trkpt lat="43.54491" lon="3.82627">
        <ele>39.4</ele>
        <time>2013-05-05T08:30:37Z</time>
      </trkpt>
      <trkpt lat="43.54492" lon="3.82618">
        <ele>39.9</ele>
        <time>2013-05-05T08:30:39Z</time>
      </trkpt>
      <trkpt lat="43.54492" lon="3.8261">
        <ele>40.1</ele>
        <time>2013-05-05T08:30:41Z</time>
      </trkpt>
      <trkpt lat="43.54492" lon="3.82601">
        <ele>40.2</ele>
        <time>2013-05-05T08:30:43Z</time>
      </trkpt>
      <trkpt lat="43.54493" lon="3.82593">
        <ele>40.5</ele>
        <time>2013-05-05T08:30:45Z</time>
      </trkpt>
      <trkpt lat="43.54494" lon="3.82584">
        <ele>40.8</ele>
        <time>2013-05-05T08:30:47Z</time>
      </trkpt>
      <trkpt lat="43.54495" lon="3.82576">
        <ele>41.5</ele>
        <time>2013-05-05T08:30:49Z</time>
      </trkpt>
      <trkpt lat="43.54495" lon="3.82564">
        <ele>42.2</ele>
        <time>2013-05-05T08:30:52Z</time>
      </trkpt>
      <trkpt lat="43.54497" lon="3.82552">
        <ele>42.5</ele>
        <time>2013-05-05T08:30:55Z</time>
      </trkpt>
      <trkpt lat="43.54498" lon="3.8254">
        <ele>42.9</ele>
        <time>2013-05-05T08:30:58Z</time>
      </trkpt>
      <trkpt lat="43.54499" lon="3.82527">
        <ele>43.6</ele>
        <time>2013-05-05T08:31:01Z</time>
      </trkpt>
      <trkpt lat="43.545" lon="3.82515">
        <ele>44.5</ele>
        <time>2013-05-05T08:31:04Z</time>
      </trkpt>
      <trkpt lat="43.54501" lon="3.82507">
        <ele>44.8</ele>
        <time>2013-05-05T08:31:06Z</time>
      </trkpt>
      <trkpt lat="43.54501" lon="3.82499">
        <ele>44.9</ele>
        <time>2013-05-05T08:31:08Z</time>
      </trkpt>
      <trkpt lat="43.54502" lon="3.8249">
        <ele>45.5</ele>
        <time>2013-05-05T08:31:10Z</time>
      </trkpt>
      <trkpt lat="43.54503" lon="3.82482">
        <ele>46.1</ele>
        <time>2013-05-05T08:31:12Z</time>
      </trkpt>
      <trkpt lat="43.54504" lon="3.82473">
        <ele>46.7</ele>
        <time>2013-05-05T08:31:14Z</time>
      </trkpt>
      <trkpt lat="43.54505" lon="3.82464">
        <ele>47</ele>
        <time>2013-05-05T08:31:16Z</time>
      </trkpt>
      <trkpt lat="43.54506" lon="3.82455">
        <ele>47.7</ele>
        <time>2013-05-05T08:31:18Z</time>
      </trkpt>
      <trkpt lat="43.54507" lon="3.82446">
        <ele>48.1</ele>
        <time>2013-05-05T08:31:20Z</time>
      </trkpt>
      <trkpt lat="43.54507" lon="3.82437">
        <ele>48.4</ele>
        <time>2013-05-05T08:31:22Z</time>
      </trkpt>
      <trkpt lat="43.54508" lon="3.82428">
        <ele>48.8</ele>
        <time>2013-05-05T08:31:24Z</time>
      </trkpt>
      <trkpt lat="43.5451" lon="3.82419">
        <ele>49.2</ele>
        <time>2013-05-05T08:31:26Z</time>
      </trkpt>
      <trkpt lat="43.54511" lon="3.82409">
        <ele>49.5</ele>
        <time>2013-05-05T08:31:28Z</time>
      </trkpt>
      <trkpt lat="43.54511" lon="3.82404">
        <ele>49.7</ele>
        <time>2013-05-05T08:31:29Z</time>
      </trkpt>
      <trkpt lat="43.54512" lon="3.82389">
        <ele>50</ele>
        <time>2013-05-05T08:31:32Z</time>
      </trkpt>
      <trkpt lat="43.54513" lon="3.8238">
        <ele>49.9</ele>
        <time>2013-05-05T08:31:34Z</time>
      </trkpt>
      <trkpt lat="43.54514" lon="3.8237">
        <ele>50.3</ele>
        <time>2013-05-05T08:31:36Z</time>
      </trkpt>
      <trkpt lat="43.54515" lon="3.8236">
        <ele>50.8</ele>
        <time>2013-05-05T08:31:38Z</time>
      </trkpt>
      <trkpt lat="43.54516" lon="3.82351">
        <ele>51.2</ele>
        <time>2013-05-05T08:31:40Z</time>
      </trkpt>
      <trkpt lat="43.54517" lon="3.82341">
        <ele>51.3</ele>
        <time>2013-05-05T08:31:42Z</time>
      </trkpt>
      <trkpt lat="43.54518" lon="3.82332">
        <ele>51.3</ele>
        <time>2013-05-05T08:31:44Z</time>
      </trkpt>
      <trkpt lat="43.54519" lon="3.82322">
        <ele>51.5</ele>
        <time>2013-05-05T08:31:46Z</time>
      </trkpt>
      <trkpt lat="43.5452" lon="3.82311">
        <ele>51.4</ele>
        <time>2013-05-05T08:31:48Z</time>
      </trkpt>
      <trkpt lat="43.54521" lon="3.82301">
        <ele>51.2</ele>
        <time>2013-05-05T08:31:50Z</time>
      </trkpt>
      <trkpt lat="43.54523" lon="3.8229">
        <ele>51.4</ele>
        <time>2013-05-05T08:31:52Z</time>
      </trkpt>
      <trkpt lat="43.54524" lon="3.82279">
        <ele>51.7</ele>
        <time>2013-05-05T08:31:54Z</time>
      </trkpt>
      <trkpt lat="43.54525" lon="3.82268">
        <ele>51.6</ele>
        <time>2013-05-05T08:31:56Z</time>
      </trkpt>
      <trkpt lat="43.54527" lon="3.82257">
        <ele>51.5</ele>
        <time>2013-05-05T08:31:58Z</time>
      </trkpt>
      <trkpt lat="43.54528" lon="3.82245">
        <ele>51.5</ele>
        <time>2013-05-05T08:32:00Z</time>
      </trkpt>
      <trkpt lat="43.54529" lon="3.82239">
        <ele>51.4</ele>
        <time>2013-05-05T08:32:01Z</time>
      </trkpt>
      <trkpt lat="43.5453" lon="3.82232">
        <ele>51.3</ele>
        <time>2013-05-05T08:32:02Z</time>
      </trkpt>
      <trkpt lat="43.5453" lon="3.82225">
        <ele>51.3</ele>
        <time>2013-05-05T08:32:03Z</time>
      </trkpt>
      <trkpt lat="43.54531" lon="3.82218">
        <ele>50.9</ele>
        <time>2013-05-05T08:32:04Z</time>
      </trkpt>
      <trkpt lat="43.54532" lon="3.8221">
        <ele>50.6</ele>
        <time>2013-05-05T08:32:05Z</time>
      </trkpt>
      <trkpt lat="43.54533" lon="3.82202">
        <ele>50.4</ele>
        <time>2013-05-05T08:32:06Z</time>
      </trkpt>
      <trkpt lat="43.54534" lon="3.82194">
        <ele>50.3</ele>
        <time>2013-05-05T08:32:07Z</time>
      </trkpt>
      <trkpt lat="43.54535" lon="3.82185">
        <ele>49.9</ele>
        <time>2013-05-05T08:32:08Z</time>
      </trkpt>
      <trkpt lat="43.54537" lon="3.82177">
        <ele>49.7</ele>
        <time>2013-05-05T08:32:09Z</time>
      </trkpt>
      <trkpt lat="43.54538" lon="3.82168">
        <ele>49.5</ele>
        <time>2013-05-05T08:32:10Z</time>
      </trkpt>
      <trkpt lat="43.5454" lon="3.82158">
        <ele>49.1</ele>
        <time>2013-05-05T08:32:11Z</time>
      </trkpt>
      <trkpt lat="43.54542" lon="3.82148">
        <ele>48.8</ele>
        <time>2013-05-05T08:32:12Z</time>
      </trkpt>
      <trkpt lat="43.54543" lon="3.82139">
        <ele>48.5</ele>
        <time>2013-05-05T08:32:13Z</time>
      </trkpt>
      <trkpt lat="43.54545" lon="3.82128">
        <ele>47.7</ele>
        <time>2013-05-05T08:32:14Z</time>
      </trkpt>
      <trkpt lat="43.54547" lon="3.82118">
        <ele>47.1</ele>
        <time>2013-05-05T08:32:15Z</time>
      </trkpt>
      <trkpt lat="43.54549" lon="3.82108">
        <ele>46.6</ele>
        <time>2013-05-05T08:32:16Z</time>
      </trkpt>
      <trkpt lat="43.54551" lon="3.82098">
        <ele>46.7</ele>
        <time>2013-05-05T08:32:17Z</time>
      </trkpt>
      <trkpt lat="43.54554" lon="3.82088">
        <ele>46.8</ele>
        <time>2013-05-05T08:32:18Z</time>
      </trkpt>
      <trkpt lat="43.54556" lon="3.82079">
        <ele>46.9</ele>
        <time>2013-05-05T08:32:19Z</time>
      </trkpt>
      <trkpt lat="43.54558" lon="3.8207">
        <ele>46.6</ele>
        <time>2013-05-05T08:32:20Z</time>
      </trkpt>
      <trkpt lat="43.54561" lon="3.8206">
        <ele>46.4</ele>
        <time>2013-05-05T08:32:21Z</time>
      </trkpt>
      <trkpt lat="43.54563" lon="3.82051">
        <ele>46.2</ele>
        <time>2013-05-05T08:32:22Z</time>
      </trkpt>
      <trkpt lat="43.54566" lon="3.82042">
        <ele>46.1</ele>
        <time>2013-05-05T08:32:23Z</time>
      </trkpt>
      <trkpt lat="43.54568" lon="3.82034">
        <ele>45.9</ele>
        <time>2013-05-05T08:32:24Z</time>
      </trkpt>
      <trkpt lat="43.54571" lon="3.82025">
        <ele>45.8</ele>
        <time>2013-05-05T08:32:25Z</time>
      </trkpt>
      <trkpt lat="43.54574" lon="3.82017">
        <ele>45.7</ele>
        <time>2013-05-05T08:32:26Z</time>
      </trkpt>
      <trkpt lat="43.54576" lon="3.82009">
        <ele>45.4</ele>
        <time>2013-05-05T08:32:27Z</time>
      </trkpt>
      <trkpt lat="43.54578" lon="3.82001">
        <ele>45.1</ele>
        <time>2013-05-05T08:32:28Z</time>
      </trkpt>
      <trkpt lat="43.5458" lon="3.81994">
        <ele>44.9</ele>
        <time>2013-05-05T08:32:29Z</time>
      </trkpt>
      <trkpt lat="43.54583" lon="3.81986">
        <ele>44.6</ele>
        <time>2013-05-05T08:32:30Z</time>
      </trkpt>
      <trkpt lat="43.54585" lon="3.81979">
        <ele>44.4</ele>
        <time>2013-05-05T08:32:31Z</time>
      </trkpt>
      <trkpt lat="43.54587" lon="3.81973">
        <ele>44.2</ele>
        <time>2013-05-05T08:32:32Z</time>
      </trkpt>
      <trkpt lat="43.54588" lon="3.81966">
        <ele>43.9</ele>
        <time>2013-05-05T08:32:33Z</time>
      </trkpt>
      <trkpt lat="43.5459" lon="3.81959">
        <ele>43.8</ele>
        <time>2013-05-05T08:32:34Z</time>
      </trkpt>
      <trkpt lat="43.54592" lon="3.81953">
        <ele>43.6</ele>
        <time>2013-05-05T08:32:35Z</time>
      </trkpt>
      <trkpt lat="43.54594" lon="3.81947">
        <ele>43.8</ele>
        <time>2013-05-05T08:32:36Z</time>
      </trkpt>
      <trkpt lat="43.54595" lon="3.8194">
        <ele>43.9</ele>
        <time>2013-05-05T08:32:37Z</time>
      </trkpt>
      <trkpt lat="43.54597" lon="3.81934">
        <ele>44</ele>
        <time>2013-05-05T08:32:38Z</time>
      </trkpt>
      <trkpt lat="43.546" lon="3.81923">
        <ele>44.2</ele>
        <time>2013-05-05T08:32:40Z</time>
      </trkpt>
      <trkpt lat="43.54603" lon="3.81911">
        <ele>44.3</ele>
        <time>2013-05-05T08:32:42Z</time>
      </trkpt>
      <trkpt lat="43.54606" lon="3.81901">
        <ele>44.2</ele>
        <time>2013-05-05T08:32:44Z</time>
      </trkpt>
      <trkpt lat="43.54609" lon="3.8189">
        <ele>44</ele>
        <time>2013-05-05T08:32:46Z</time>
      </trkpt>
      <trkpt lat="43.54611" lon="3.8188">
        <ele>43.9</ele>
        <time>2013-05-05T08:32:48Z</time>
      </trkpt>
      <trkpt lat="43.54614" lon="3.81869">
        <ele>43.9</ele>
        <time>2013-05-05T08:32:50Z</time>
      </trkpt>
      <trkpt lat="43.54617" lon="3.81858">
        <ele>43.9</ele>
        <time>2013-05-05T08:32:52Z</time>
      </trkpt>
      <trkpt lat="43.54617" lon="3.81847">
        <ele>43.8</ele>
        <time>2013-05-05T08:32:54Z</time>
      </trkpt>
      <trkpt lat="43.54614" lon="3.8184">
        <ele>44.2</ele>
        <time>2013-05-05T08:32:56Z</time>
      </trkpt>
      <trkpt lat="43.54609" lon="3.81831">
        <ele>44.9</ele>
        <time>2013-05-05T08:32:59Z</time>
      </trkpt>
      <trkpt lat="43.54603" lon="3.81822">
        <ele>45.5</ele>
        <time>2013-05-05T08:33:02Z</time>
      </trkpt>
      <trkpt lat="43.54598" lon="3.81812">
        <ele>45.4</ele>
        <time>2013-05-05T08:33:05Z</time>
      </trkpt>
      <trkpt lat="43.54594" lon="3.81801">
        <ele>45.8</ele>
        <time>2013-05-05T08:33:08Z</time>
      </trkpt>
      <trkpt lat="43.5459" lon="3.81792">
        <ele>46.5</ele>
        <time>2013-05-05T08:33:11Z</time>
      </trkpt>
      <trkpt lat="43.54587" lon="3.81782">
        <ele>46.2</ele>
        <time>2013-05-05T08:33:14Z</time>
      </trkpt>
      <trkpt lat="43.54583" lon="3.81772">
        <ele>46.9</ele>
        <time>2013-05-05T08:33:17Z</time>
      </trkpt>
      <trkpt lat="43.54579" lon="3.81764">
        <ele>47.2</ele>
        <time>2013-05-05T08:33:20Z</time>
      </trkpt>
      <trkpt lat="43.54573" lon="3.81755">
        <ele>47.7</ele>
        <time>2013-05-05T08:33:23Z</time>
      </trkpt>
      <trkpt lat="43.54566" lon="3.81749">
        <ele>49.1</ele>
        <time>2013-05-05T08:33:26Z</time>
      </trkpt>
      <trkpt lat="43.54559" lon="3.81745">
        <ele>49.4</ele>
        <time>2013-05-05T08:33:29Z</time>
      </trkpt>
      <trkpt lat="43.54551" lon="3.81741">
        <ele>49.5</ele>
        <time>2013-05-05T08:33:32Z</time>
      </trkpt>
      <trkpt lat="43.54548" lon="3.8174">
        <ele>49.5</ele>
        <time>2013-05-05T08:33:33Z</time>
      </trkpt>
      <trkpt lat="43.54535" lon="3.81739">
        <ele>50</ele>
        <time>2013-05-05T08:33:37Z</time>
      </trkpt>
      <trkpt lat="43.54529" lon="3.81738">
        <ele>50.2</ele>
        <time>2013-05-05T08:33:39Z</time>
      </trkpt>
      <trkpt lat="43.54522" lon="3.81736">
        <ele>50.3</ele>
        <time>2013-05-05T08:33:41Z</time>
      </trkpt>
      <trkpt lat="43.54514" lon="3.81734">
        <ele>51</ele>
        <time>2013-05-05T08:33:44Z</time>
      </trkpt>
      <trkpt lat="43.54505" lon="3.81733">
        <ele>51.3</ele>
        <time>2013-05-05T08:33:48Z</time>
      </trkpt>
      <trkpt lat="43.54497" lon="3.81734">
        <ele>52.3</ele>
        <time>2013-05-05T08:37:59Z</time>
      </trkpt>
      <trkpt lat="43.54495" lon="3.81734">
        <ele>52.1</ele>
        <time>2013-05-05T08:38:00Z</time>
      </trkpt>
      <trkpt lat="43.54483" lon="3.81731">
        <ele>51.4</ele>
        <time>2013-05-05T08:38:07Z</time>
      </trkpt>
      <trkpt lat="43.54475" lon="3.81728">
        <ele>52.3</ele>
        <time>2013-05-05T08:38:11Z</time>
      </trkpt>
      <trkpt lat="43.54466" lon="3.81725">
        <ele>52.2</ele>
        <time>2013-05-05T08:38:15Z</time>
      </trkpt>
      <trkpt lat="43.5446" lon="3.81722">
        <ele>52.2</ele>
        <time>2013-05-05T08:38:18Z</time>
      </trkpt>
      <trkpt lat="43.54453" lon="3.81717">
        <ele>52.4</ele>
        <time>2013-05-05T08:38:21Z</time>
      </trkpt>
      <trkpt lat="43.54446" lon="3.81713">
        <ele>52.3</ele>
        <time>2013-05-05T08:38:24Z</time>
      </trkpt>
      <trkpt lat="43.5444" lon="3.81708">
        <ele>52.2</ele>
        <time>2013-05-05T08:38:27Z</time>
      </trkpt>
      <trkpt lat="43.54433" lon="3.81704">
        <ele>52.6</ele>
        <time>2013-05-05T08:38:30Z</time>
      </trkpt>
      <trkpt lat="43.54427" lon="3.81699">
        <ele>54.5</ele>
        <time>2013-05-05T08:38:33Z</time>
      </trkpt>
      <trkpt lat="43.54419" lon="3.81696">
        <ele>53.6</ele>
        <time>2013-05-05T08:38:36Z</time>
      </trkpt>
      <trkpt lat="43.54412" lon="3.81693">
        <ele>54.1</ele>
        <time>2013-05-05T08:38:39Z</time>
      </trkpt>
      <trkpt lat="43.54407" lon="3.81686">
        <ele>53.6</ele>
        <time>2013-05-05T08:38:42Z</time>
      </trkpt>
      <trkpt lat="43.54401" lon="3.81679">
        <ele>53.4</ele>
        <time>2013-05-05T08:38:45Z</time>
      </trkpt>
      <trkpt lat="43.54394" lon="3.81674">
        <ele>53.7</ele>
        <time>2013-05-05T08:38:48Z</time>
      </trkpt>
      <trkpt lat="43.54387" lon="3.81669">
        <ele>54.1</ele>
        <time>2013-05-05T08:38:51Z</time>
      </trkpt>
      <trkpt lat="43.54381" lon="3.81669">
        <ele>53.9</ele>
        <time>2013-05-05T08:38:53Z</time>
      </trkpt>
      <trkpt lat="43.54374" lon="3.81671">
        <ele>53.6</ele>
        <time>2013-05-05T08:38:55Z</time>
      </trkpt>
      <trkpt lat="43.54367" lon="3.81671">
        <ele>53.7</ele>
        <time>2013-05-05T08:38:57Z</time>
      </trkpt>
      <trkpt lat="43.54361" lon="3.81672">
        <ele>53.8</ele>
        <time>2013-05-05T08:38:59Z</time>
      </trkpt>
      <trkpt lat="43.54354" lon="3.81673">
        <ele>53.9</ele>
        <time>2013-05-05T08:39:01Z</time>
      </trkpt>
      <trkpt lat="43.54351" lon="3.81673">
        <ele>53.9</ele>
        <time>2013-05-05T08:39:02Z</time>
      </trkpt>
      <trkpt lat="43.54342" lon="3.81669">
        <ele>54.3</ele>
        <time>2013-05-05T08:39:05Z</time>
      </trkpt>
      <trkpt lat="43.54337" lon="3.81665">
        <ele>53.8</ele>
        <time>2013-05-05T08:39:07Z</time>
      </trkpt>
      <trkpt lat="43.54332" lon="3.81656">
        <ele>53.8</ele>
        <time>2013-05-05T08:39:10Z</time>
      </trkpt>
      <trkpt lat="43.5433" lon="3.81644">
        <ele>54.6</ele>
        <time>2013-05-05T08:39:13Z</time>
      </trkpt>
      <trkpt lat="43.54328" lon="3.81636">
        <ele>55</ele>
        <time>2013-05-05T08:39:15Z</time>
      </trkpt>
      <trkpt lat="43.54324" lon="3.81629">
        <ele>55.1</ele>
        <time>2013-05-05T08:39:17Z</time>
      </trkpt>
      <trkpt lat="43.5432" lon="3.81623">
        <ele>55.1</ele>
        <time>2013-05-05T08:39:19Z</time>
      </trkpt>
      <trkpt lat="43.54316" lon="3.81617">
        <ele>55.1</ele>
        <time>2013-05-05T08:39:21Z</time>
      </trkpt>
      <trkpt lat="43.54312" lon="3.81605">
        <ele>55.3</ele>
        <time>2013-05-05T08:39:24Z</time>
      </trkpt>
      <trkpt lat="43.54311" lon="3.81593">
        <ele>56</ele>
        <time>2013-05-05T08:39:27Z</time>
      </trkpt>
      <trkpt lat="43.54314" lon="3.81583">
        <ele>56</ele>
        <time>2013-05-05T08:39:30Z</time>
      </trkpt>
      <trkpt lat="43.54319" lon="3.81576">
        <ele>56.8</ele>
        <time>2013-05-05T08:39:33Z</time>
      </trkpt>
      <trkpt lat="43.5432" lon="3.81565">
        <ele>57.6</ele>
        <time>2013-05-05T08:39:36Z</time>
      </trkpt>
      <trkpt lat="43.54323" lon="3.81554">
        <ele>58.1</ele>
        <time>2013-05-05T08:39:39Z</time>
      </trkpt>
      <trkpt lat="43.54324" lon="3.81542">
        <ele>58.4</ele>
        <time>2013-05-05T08:39:42Z</time>
      </trkpt>
      <trkpt lat="43.54324" lon="3.8153">
        <ele>59.1</ele>
        <time>2013-05-05T08:39:45Z</time>
      </trkpt>
      <trkpt lat="43.54323" lon="3.81518">
        <ele>58.9</ele>
        <time>2013-05-05T08:39:48Z</time>
      </trkpt>
      <trkpt lat="43.5432" lon="3.81506">
        <ele>59.2</ele>
        <time>2013-05-05T08:39:51Z</time>
      </trkpt>
      <trkpt lat="43.54317" lon="3.81496">
        <ele>60.1</ele>
        <time>2013-05-05T08:39:54Z</time>
      </trkpt>
      <trkpt lat="43.54313" lon="3.81485">
        <ele>60.6</ele>
        <time>2013-05-05T08:39:57Z</time>
      </trkpt>
      <trkpt lat="43.54309" lon="3.81474">
        <ele>60.9</ele>
        <time>2013-05-05T08:40:00Z</time>
      </trkpt>
      <trkpt lat="43.54307" lon="3.81463">
        <ele>61.4</ele>
        <time>2013-05-05T08:40:03Z</time>
      </trkpt>
      <trkpt lat="43.54306" lon="3.8146">
        <ele>61.6</ele>
        <time>2013-05-05T08:40:04Z</time>
      </trkpt>
      <trkpt lat="43.54299" lon="3.81443">
        <ele>62.3</ele>
        <time>2013-05-05T08:40:09Z</time>
      </trkpt>
      <trkpt lat="43.54296" lon="3.81432">
        <ele>63.5</ele>
        <time>2013-05-05T08:40:12Z</time>
      </trkpt>
      <trkpt lat="43.54292" lon="3.81422">
        <ele>63.7</ele>
        <time>2013-05-05T08:40:15Z</time>
      </trkpt>
      <trkpt lat="43.54289" lon="3.81412">
        <ele>64.7</ele>
        <time>2013-05-05T08:40:18Z</time>
      </trkpt>
      <trkpt lat="43.54286" lon="3.81401">
        <ele>64.6</ele>
        <time>2013-05-05T08:40:21Z</time>
      </trkpt>
      <trkpt lat="43.54288" lon="3.81389">
        <ele>65.4</ele>
        <time>2013-05-05T08:40:24Z</time>
      </trkpt>
      <trkpt lat="43.54288" lon="3.81379">
        <ele>65.4</ele>
        <time>2013-05-05T08:40:27Z</time>
      </trkpt>
      <trkpt lat="43.54292" lon="3.81369">
        <ele>66.5</ele>
        <time>2013-05-05T08:40:30Z</time>
      </trkpt>
      <trkpt lat="43.54291" lon="3.81358">
        <ele>66.6</ele>
        <time>2013-05-05T08:40:33Z</time>
      </trkpt>
      <trkpt lat="43.54291" lon="3.81348">
        <ele>67.3</ele>
        <time>2013-05-05T08:40:36Z</time>
      </trkpt>
      <trkpt lat="43.5429" lon="3.81339">
        <ele>68</ele>
        <time>2013-05-05T08:40:39Z</time>
      </trkpt>
      <trkpt lat="43.54287" lon="3.8133">
        <ele>68.8</ele>
        <time>2013-05-05T08:40:42Z</time>
      </trkpt>
      <trkpt lat="43.54288" lon="3.8132">
        <ele>69.1</ele>
        <time>2013-05-05T08:40:45Z</time>
      </trkpt>
      <trkpt lat="43.54291" lon="3.81309">
        <ele>69.8</ele>
        <time>2013-05-05T08:40:49Z</time>
      </trkpt>
      <trkpt lat="43.54292" lon="3.81298">
        <ele>71.5</ele>
        <time>2013-05-05T08:40:53Z</time>
      </trkpt>
      <trkpt lat="43.54296" lon="3.81288">
        <ele>72.4</ele>
        <time>2013-05-05T08:41:01Z</time>
      </trkpt>
      <trkpt lat="43.54299" lon="3.81279">
        <ele>72.7</ele>
        <time>2013-05-05T08:41:06Z</time>
      </trkpt>
      <trkpt lat="43.54299" lon="3.81276">
        <ele>72.9</ele>
        <time>2013-05-05T08:41:07Z</time>
      </trkpt>
      <trkpt lat="43.54299" lon="3.81258">
        <ele>75.3</ele>
        <time>2013-05-05T08:41:14Z</time>
      </trkpt>
      <trkpt lat="43.54295" lon="3.81248">
        <ele>75.9</ele>
        <time>2013-05-05T08:41:18Z</time>
      </trkpt>
      <trkpt lat="43.54293" lon="3.81237">
        <ele>75.6</ele>
        <time>2013-05-05T08:41:22Z</time>
      </trkpt>
      <trkpt lat="43.54292" lon="3.81227">
        <ele>75.7</ele>
        <time>2013-05-05T08:41:26Z</time>
      </trkpt>
      <trkpt lat="43.54287" lon="3.81217">
        <ele>77.1</ele>
        <time>2013-05-05T08:41:30Z</time>
      </trkpt>
      <trkpt lat="43.54283" lon="3.81207">
        <ele>78.5</ele>
        <time>2013-05-05T08:41:34Z</time>
      </trkpt>
      <trkpt lat="43.54279" lon="3.81197">
        <ele>78.5</ele>
        <time>2013-05-05T08:41:38Z</time>
      </trkpt>
      <trkpt lat="43.54271" lon="3.81191">
        <ele>80.1</ele>
        <time>2013-05-05T08:41:42Z</time>
      </trkpt>
      <trkpt lat="43.54271" lon="3.81178">
        <ele>81.6</ele>
        <time>2013-05-05T08:42:12Z</time>
      </trkpt>
      <trkpt lat="43.54273" lon="3.81177">
        <ele>81.7</ele>
        <time>2013-05-05T08:42:13Z</time>
      </trkpt>
      <trkpt lat="43.54286" lon="3.81167">
        <ele>82.3</ele>
        <time>2013-05-05T08:42:19Z</time>
      </trkpt>
      <trkpt lat="43.54292" lon="3.81165">
        <ele>81.9</ele>
        <time>2013-05-05T08:42:21Z</time>
      </trkpt>
      <trkpt lat="43.54298" lon="3.81162">
        <ele>81.7</ele>
        <time>2013-05-05T08:42:23Z</time>
      </trkpt>
      <trkpt lat="43.54304" lon="3.8116">
        <ele>82.1</ele>
        <time>2013-05-05T08:42:25Z</time>
      </trkpt>
      <trkpt lat="43.5431" lon="3.81155">
        <ele>82.4</ele>
        <time>2013-05-05T08:42:27Z</time>
      </trkpt>
      <trkpt lat="43.54317" lon="3.81152">
        <ele>82.5</ele>
        <time>2013-05-05T08:42:29Z</time>
      </trkpt>
      <trkpt lat="43.54324" lon="3.81149">
        <ele>81.8</ele>
        <time>2013-05-05T08:42:31Z</time>
      </trkpt>
      <trkpt lat="43.54331" lon="3.81145">
        <ele>81.6</ele>
        <time>2013-05-05T08:42:33Z</time>
      </trkpt>
      <trkpt lat="43.54338" lon="3.8114">
        <ele>81.6</ele>
        <time>2013-05-05T08:42:35Z</time>
      </trkpt>
      <trkpt lat="43.54346" lon="3.81136">
        <ele>80.8</ele>
        <time>2013-05-05T08:42:37Z</time>
      </trkpt>
      <trkpt lat="43.54354" lon="3.81133">
        <ele>80.3</ele>
        <time>2013-05-05T08:42:39Z</time>
      </trkpt>
      <trkpt lat="43.54356" lon="3.81124">
        <ele>80.2</ele>
        <time>2013-05-05T08:42:41Z</time>
      </trkpt>
      <trkpt lat="43.54355" lon="3.81115">
        <ele>80.2</ele>
        <time>2013-05-05T08:42:43Z</time>
      </trkpt>
      <trkpt lat="43.54352" lon="3.81104">
        <ele>80.3</ele>
        <time>2013-05-05T08:42:45Z</time>
      </trkpt>
      <trkpt lat="43.54351" lon="3.81094">
        <ele>80.3</ele>
        <time>2013-05-05T08:42:47Z</time>
      </trkpt>
      <trkpt lat="43.54355" lon="3.81084">
        <ele>80.4</ele>
        <time>2013-05-05T08:42:49Z</time>
      </trkpt>
      <trkpt lat="43.54358" lon="3.81073">
        <ele>80.5</ele>
        <time>2013-05-05T08:42:51Z</time>
      </trkpt>
      <trkpt lat="43.5436" lon="3.81061">
        <ele>80.6</ele>
        <time>2013-05-05T08:42:53Z</time>
      </trkpt>
      <trkpt lat="43.54359" lon="3.81049">
        <ele>80.7</ele>
        <time>2013-05-05T08:42:55Z</time>
      </trkpt>
      <trkpt lat="43.54356" lon="3.81039">
        <ele>79.9</ele>
        <time>2013-05-05T08:42:57Z</time>
      </trkpt>
      <trkpt lat="43.54353" lon="3.81029">
        <ele>79.4</ele>
        <time>2013-05-05T08:42:59Z</time>
      </trkpt>
      <trkpt lat="43.54351" lon="3.8102">
        <ele>79</ele>
        <time>2013-05-05T08:43:01Z</time>
      </trkpt>
      <trkpt lat="43.54349" lon="3.81012">
        <ele>79</ele>
        <time>2013-05-05T08:43:03Z</time>
      </trkpt>
      <trkpt lat="43.54347" lon="3.81">
        <ele>79.1</ele>
        <time>2013-05-05T08:43:06Z</time>
      </trkpt>
      <trkpt lat="43.54344" lon="3.80992">
        <ele>79.1</ele>
        <time>2013-05-05T08:43:08Z</time>
      </trkpt>
      <trkpt lat="43.54342" lon="3.80983">
        <ele>79</ele>
        <time>2013-05-05T08:43:10Z</time>
      </trkpt>
      <trkpt lat="43.5434" lon="3.80975">
        <ele>79.4</ele>
        <time>2013-05-05T08:43:12Z</time>
      </trkpt>
      <trkpt lat="43.54338" lon="3.80966">
        <ele>79.8</ele>
        <time>2013-05-05T08:43:14Z</time>
      </trkpt>
      <trkpt lat="43.54337" lon="3.80962">
        <ele>80.4</ele>
        <time>2013-05-05T08:43:15Z</time>
      </trkpt>
      <trkpt lat="43.54334" lon="3.80949">
        <ele>81.2</ele>
        <time>2013-05-05T08:43:18Z</time>
      </trkpt>
      <trkpt lat="43.54333" lon="3.80941">
        <ele>81.3</ele>
        <time>2013-05-05T08:43:20Z</time>
      </trkpt>
      <trkpt lat="43.54332" lon="3.80932">
        <ele>82</ele>
        <time>2013-05-05T08:43:22Z</time>
      </trkpt>
      <trkpt lat="43.54335" lon="3.80923">
        <ele>82.3</ele>
        <time>2013-05-05T08:43:24Z</time>
      </trkpt>
      <trkpt lat="43.5434" lon="3.80914">
        <ele>82.4</ele>
        <time>2013-05-05T08:43:27Z</time>
      </trkpt>
      <trkpt lat="43.54342" lon="3.80906">
        <ele>83.3</ele>
        <time>2013-05-05T08:43:29Z</time>
      </trkpt>
      <trkpt lat="43.54343" lon="3.80897">
        <ele>83.6</ele>
        <time>2013-05-05T08:43:31Z</time>
      </trkpt>
      <trkpt lat="43.54343" lon="3.80888">
        <ele>83.6</ele>
        <time>2013-05-05T08:43:33Z</time>
      </trkpt>
      <trkpt lat="43.5434" lon="3.80879">
        <ele>83.5</ele>
        <time>2013-05-05T08:43:35Z</time>
      </trkpt>
      <trkpt lat="43.54338" lon="3.8087">
        <ele>83.3</ele>
        <time>2013-05-05T08:43:37Z</time>
      </trkpt>
      <trkpt lat="43.54335" lon="3.80861">
        <ele>83.1</ele>
        <time>2013-05-05T08:43:39Z</time>
      </trkpt>
      <trkpt lat="43.54333" lon="3.80849">
        <ele>83.3</ele>
        <time>2013-05-05T08:43:41Z</time>
      </trkpt>
      <trkpt lat="43.54331" lon="3.80844">
        <ele>83.3</ele>
        <time>2013-05-05T08:43:42Z</time>
      </trkpt>
      <trkpt lat="43.54329" lon="3.80838">
        <ele>83.4</ele>
        <time>2013-05-05T08:43:43Z</time>
      </trkpt>
      <trkpt lat="43.54327" lon="3.80832">
        <ele>83.5</ele>
        <time>2013-05-05T08:43:44Z</time>
      </trkpt>
      <trkpt lat="43.54325" lon="3.80826">
        <ele>83.6</ele>
        <time>2013-05-05T08:43:45Z</time>
      </trkpt>
      <trkpt lat="43.54322" lon="3.8082">
        <ele>83.6</ele>
        <time>2013-05-05T08:43:46Z</time>
      </trkpt>
      <trkpt lat="43.54318" lon="3.80815">
        <ele>83.3</ele>
        <time>2013-05-05T08:43:47Z</time>
      </trkpt>
      <trkpt lat="43.54314" lon="3.80812">
        <ele>83.1</ele>
        <time>2013-05-05T08:43:48Z</time>
      </trkpt>
      <trkpt lat="43.54309" lon="3.8081">
        <ele>82.9</ele>
        <time>2013-05-05T08:43:49Z</time>
      </trkpt>
      <trkpt lat="43.54304" lon="3.8081">
        <ele>82.9</ele>
        <time>2013-05-05T08:43:50Z</time>
      </trkpt>
      <trkpt lat="43.543" lon="3.80811">
        <ele>82.9</ele>
        <time>2013-05-05T08:43:51Z</time>
      </trkpt>
      <trkpt lat="43.54295" lon="3.80812">
        <ele>82.9</ele>
        <time>2013-05-05T08:43:52Z</time>
      </trkpt>
      <trkpt lat="43.54291" lon="3.80814">
        <ele>82.7</ele>
        <time>2013-05-05T08:43:53Z</time>
      </trkpt>
      <trkpt lat="43.54286" lon="3.80816">
        <ele>82.6</ele>
        <time>2013-05-05T08:43:54Z</time>
      </trkpt>
      <trkpt lat="43.54278" lon="3.8082">
        <ele>82.3</ele>
        <time>2013-05-05T08:43:56Z</time>
      </trkpt>
      <trkpt lat="43.54273" lon="3.80822">
        <ele>82.1</ele>
        <time>2013-05-05T08:43:57Z</time>
      </trkpt>
      <trkpt lat="43.54269" lon="3.80824">
        <ele>82</ele>
        <time>2013-05-05T08:43:58Z</time>
      </trkpt>
      <trkpt lat="43.54264" lon="3.80826">
        <ele>81.9</ele>
        <time>2013-05-05T08:43:59Z</time>
      </trkpt>
      <trkpt lat="43.54259" lon="3.80826">
        <ele>81.8</ele>
        <time>2013-05-05T08:44:00Z</time>
      </trkpt>
      <trkpt lat="43.54254" lon="3.80826">
        <ele>81.7</ele>
        <time>2013-05-05T08:44:01Z</time>
      </trkpt>
      <trkpt lat="43.54249" lon="3.80826">
        <ele>81.7</ele>
        <time>2013-05-05T08:44:02Z</time>
      </trkpt>
      <trkpt lat="43.54244" lon="3.80824">
        <ele>81.6</ele>
        <time>2013-05-05T08:44:03Z</time>
      </trkpt>
      <trkpt lat="43.54239" lon="3.80823">
        <ele>81.6</ele>
        <time>2013-05-05T08:44:04Z</time>
      </trkpt>
      <trkpt lat="43.54233" lon="3.80821">
        <ele>81.6</ele>
        <time>2013-05-05T08:44:05Z</time>
      </trkpt>
      <trkpt lat="43.54226" lon="3.80819">
        <ele>81.1</ele>
        <time>2013-05-05T08:44:06Z</time>
      </trkpt>
      <trkpt lat="43.5422" lon="3.80817">
        <ele>80.7</ele>
        <time>2013-05-05T08:44:07Z</time>
      </trkpt>
      <trkpt lat="43.54213" lon="3.80815">
        <ele>80.4</ele>
        <time>2013-05-05T08:44:08Z</time>
      </trkpt>
      <trkpt lat="43.54206" lon="3.80814">
        <ele>79.4</ele>
        <time>2013-05-05T08:44:09Z</time>
      </trkpt>
      <trkpt lat="43.54199" lon="3.80811">
        <ele>78.7</ele>
        <time>2013-05-05T08:44:10Z</time>
      </trkpt>
      <trkpt lat="43.54191" lon="3.80809">
        <ele>78.1</ele>
        <time>2013-05-05T08:44:11Z</time>
      </trkpt>
      <trkpt lat="43.54184" lon="3.80806">
        <ele>77.2</ele>
        <time>2013-05-05T08:44:12Z</time>
      </trkpt>
      <trkpt lat="43.54176" lon="3.80802">
        <ele>76.5</ele>
        <time>2013-05-05T08:44:13Z</time>
      </trkpt>
      <trkpt lat="43.54168" lon="3.808">
        <ele>76</ele>
        <time>2013-05-05T08:44:14Z</time>
      </trkpt>
      <trkpt lat="43.5416" lon="3.80798">
        <ele>75.2</ele>
        <time>2013-05-05T08:44:15Z</time>
      </trkpt>
      <trkpt lat="43.54152" lon="3.80795">
        <ele>74.6</ele>
        <time>2013-05-05T08:44:16Z</time>
      </trkpt>
      <trkpt lat="43.54145" lon="3.80791">
        <ele>74.2</ele>
        <time>2013-05-05T08:44:17Z</time>
      </trkpt>
      <trkpt lat="43.54137" lon="3.80787">
        <ele>73.9</ele>
        <time>2013-05-05T08:44:18Z</time>
      </trkpt>
      <trkpt lat="43.54131" lon="3.80782">
        <ele>73.6</ele>
        <time>2013-05-05T08:44:19Z</time>
      </trkpt>
      <trkpt lat="43.54125" lon="3.80777">
        <ele>73.4</ele>
        <time>2013-05-05T08:44:20Z</time>
      </trkpt>
      <trkpt lat="43.5412" lon="3.80773">
        <ele>73.2</ele>
        <time>2013-05-05T08:44:21Z</time>
      </trkpt>
      <trkpt lat="43.54116" lon="3.80768">
        <ele>72.7</ele>
        <time>2013-05-05T08:44:22Z</time>
      </trkpt>
      <trkpt lat="43.54109" lon="3.80761">
        <ele>72.1</ele>
        <time>2013-05-05T08:44:24Z</time>
      </trkpt>
      <trkpt lat="43.54102" lon="3.80753">
        <ele>72.1</ele>
        <time>2013-05-05T08:44:26Z</time>
      </trkpt>
      <trkpt lat="43.54099" lon="3.80749">
        <ele>72.1</ele>
        <time>2013-05-05T08:44:27Z</time>
      </trkpt>
      <trkpt lat="43.54095" lon="3.80744">
        <ele>72.1</ele>
        <time>2013-05-05T08:44:28Z</time>
      </trkpt>
      <trkpt lat="43.54092" lon="3.80739">
        <ele>72</ele>
        <time>2013-05-05T08:44:29Z</time>
      </trkpt>
      <trkpt lat="43.54089" lon="3.80734">
        <ele>72</ele>
        <time>2013-05-05T08:44:30Z</time>
      </trkpt>
      <trkpt lat="43.54086" lon="3.80728">
        <ele>72</ele>
        <time>2013-05-05T08:44:31Z</time>
      </trkpt>
      <trkpt lat="43.54083" lon="3.80722">
        <ele>71.9</ele>
        <time>2013-05-05T08:44:32Z</time>
      </trkpt>
      <trkpt lat="43.54081" lon="3.80715">
        <ele>71.9</ele>
        <time>2013-05-05T08:44:33Z</time>
      </trkpt>
      <trkpt lat="43.54079" lon="3.80709">
        <ele>71.9</ele>
        <time>2013-05-05T08:44:34Z</time>
      </trkpt>
      <trkpt lat="43.54077" lon="3.80702">
        <ele>71.7</ele>
        <time>2013-05-05T08:44:35Z</time>
      </trkpt>
      <trkpt lat="43.54076" lon="3.80696">
        <ele>71.5</ele>
        <time>2013-05-05T08:44:36Z</time>
      </trkpt>
      <trkpt lat="43.54075" lon="3.80689">
        <ele>71.4</ele>
        <time>2013-05-05T08:44:37Z</time>
      </trkpt>
      <trkpt lat="43.54073" lon="3.80677">
        <ele>71</ele>
        <time>2013-05-05T08:44:39Z</time>
      </trkpt>
      <trkpt lat="43.54071" lon="3.80667">
        <ele>70.8</ele>
        <time>2013-05-05T08:44:41Z</time>
      </trkpt>
      <trkpt lat="43.54069" lon="3.80658">
        <ele>70.6</ele>
        <time>2013-05-05T08:44:43Z</time>
      </trkpt>
      <trkpt lat="43.54067" lon="3.8065">
        <ele>70.4</ele>
        <time>2013-05-05T08:44:45Z</time>
      </trkpt>
      <trkpt lat="43.54064" lon="3.80638">
        <ele>70.3</ele>
        <time>2013-05-05T08:44:47Z</time>
      </trkpt>
      <trkpt lat="43.54061" lon="3.80628">
        <ele>70.2</ele>
        <time>2013-05-05T08:44:49Z</time>
      </trkpt>
      <trkpt lat="43.54058" lon="3.80618">
        <ele>70.9</ele>
        <time>2013-05-05T08:44:51Z</time>
      </trkpt>
      <trkpt lat="43.54051" lon="3.80609">
        <ele>70.7</ele>
        <time>2013-05-05T08:44:54Z</time>
      </trkpt>
      <trkpt lat="43.54044" lon="3.80612">
        <ele>69.9</ele>
        <time>2013-05-05T08:44:57Z</time>
      </trkpt>
      <trkpt lat="43.54037" lon="3.80615">
        <ele>70.1</ele>
        <time>2013-05-05T08:45:00Z</time>
      </trkpt>
      <trkpt lat="43.54029" lon="3.80617">
        <ele>70.7</ele>
        <time>2013-05-05T08:45:03Z</time>
      </trkpt>
      <trkpt lat="43.5402" lon="3.80619">
        <ele>71.6</ele>
        <time>2013-05-05T08:45:06Z</time>
      </trkpt>
      <trkpt lat="43.54012" lon="3.80618">
        <ele>72.1</ele>
        <time>2013-05-05T08:45:09Z</time>
      </trkpt>
      <trkpt lat="43.54004" lon="3.80619">
        <ele>71.9</ele>
        <time>2013-05-05T08:45:12Z</time>
      </trkpt>
      <trkpt lat="43.53995" lon="3.80622">
        <ele>72.8</ele>
        <time>2013-05-05T08:45:16Z</time>
      </trkpt>
      <trkpt lat="43.53994" lon="3.80623">
        <ele>72.9</ele>
        <time>2013-05-05T08:45:17Z</time>
      </trkpt>
      <trkpt lat="43.53981" lon="3.8063">
        <ele>73.6</ele>
        <time>2013-05-05T08:45:24Z</time>
      </trkpt>
      <trkpt lat="43.53973" lon="3.80634">
        <ele>73.3</ele>
        <time>2013-05-05T08:45:27Z</time>
      </trkpt>
      <trkpt lat="43.53966" lon="3.80639">
        <ele>74.4</ele>
        <time>2013-05-05T08:45:30Z</time>
      </trkpt>
      <trkpt lat="43.5396" lon="3.80645">
        <ele>75.1</ele>
        <time>2013-05-05T08:45:33Z</time>
      </trkpt>
      <trkpt lat="43.53955" lon="3.80653">
        <ele>75.2</ele>
        <time>2013-05-05T08:45:36Z</time>
      </trkpt>
      <trkpt lat="43.5395" lon="3.80661">
        <ele>76.4</ele>
        <time>2013-05-05T08:45:39Z</time>
      </trkpt>
      <trkpt lat="43.53945" lon="3.80669">
        <ele>77.5</ele>
        <time>2013-05-05T08:45:42Z</time>
      </trkpt>
      <trkpt lat="43.5394" lon="3.8068">
        <ele>78.1</ele>
        <time>2013-05-05T08:45:46Z</time>
      </trkpt>
      <trkpt lat="43.53938" lon="3.80691">
        <ele>78.3</ele>
        <time>2013-05-05T08:45:50Z</time>
      </trkpt>
      <trkpt lat="43.53934" lon="3.80702">
        <ele>80.3</ele>
        <time>2013-05-05T08:45:54Z</time>
      </trkpt>
      <trkpt lat="43.53929" lon="3.8071">
        <ele>81.1</ele>
        <time>2013-05-05T08:45:58Z</time>
      </trkpt>
      <trkpt lat="43.53922" lon="3.80716">
        <ele>81.1</ele>
        <time>2013-05-05T08:46:02Z</time>
      </trkpt>
      <trkpt lat="43.53914" lon="3.80721">
        <ele>81.4</ele>
        <time>2013-05-05T08:46:06Z</time>
      </trkpt>
      <trkpt lat="43.53906" lon="3.80723">
        <ele>82.7</ele>
        <time>2013-05-05T08:46:10Z</time>
      </trkpt>
      <trkpt lat="43.53897" lon="3.80723">
        <ele>82.7</ele>
        <time>2013-05-05T08:46:14Z</time>
      </trkpt>
      <trkpt lat="43.53889" lon="3.80722">
        <ele>83.6</ele>
        <time>2013-05-05T08:46:18Z</time>
      </trkpt>
      <trkpt lat="43.53888" lon="3.80722">
        <ele>83.9</ele>
        <time>2013-05-05T08:46:19Z</time>
      </trkpt>
      <trkpt lat="43.53874" lon="3.80716">
        <ele>85.5</ele>
        <time>2013-05-05T08:46:26Z</time>
      </trkpt>
      <trkpt lat="43.53867" lon="3.80712">
        <ele>86</ele>
        <time>2013-05-05T08:46:30Z</time>
      </trkpt>
      <trkpt lat="43.5386" lon="3.80707">
        <ele>87</ele>
        <time>2013-05-05T08:46:34Z</time>
      </trkpt>
      <trkpt lat="43.53853" lon="3.80702">
        <ele>87.1</ele>
        <time>2013-05-05T08:46:38Z</time>
      </trkpt>
      <trkpt lat="43.53846" lon="3.80699">
        <ele>87.9</ele>
        <time>2013-05-05T08:46:42Z</time>
      </trkpt>
      <trkpt lat="43.5384" lon="3.80694">
        <ele>89.4</ele>
        <time>2013-05-05T08:46:46Z</time>
      </trkpt>
      <trkpt lat="43.53833" lon="3.80689">
        <ele>90.4</ele>
        <time>2013-05-05T08:46:50Z</time>
      </trkpt>
      <trkpt lat="43.53826" lon="3.80684">
        <ele>91.4</ele>
        <time>2013-05-05T08:46:54Z</time>
      </trkpt>
      <trkpt lat="43.5382" lon="3.80679">
        <ele>92.3</ele>
        <time>2013-05-05T08:46:58Z</time>
      </trkpt>
      <trkpt lat="43.53814" lon="3.80672">
        <ele>93.4</ele>
        <time>2013-05-05T08:47:02Z</time>
      </trkpt>
      <trkpt lat="43.53809" lon="3.80665">
        <ele>95.4</ele>
        <time>2013-05-05T08:47:06Z</time>
      </trkpt>
      <trkpt lat="43.53804" lon="3.80656">
        <ele>95.9</ele>
        <time>2013-05-05T08:47:10Z</time>
      </trkpt>
      <trkpt lat="43.538" lon="3.80646">
        <ele>97.5</ele>
        <time>2013-05-05T08:47:15Z</time>
      </trkpt>
      <trkpt lat="43.53795" lon="3.80638">
        <ele>97</ele>
        <time>2013-05-05T08:47:19Z</time>
      </trkpt>
      <trkpt lat="43.53795" lon="3.80635">
        <ele>96.8</ele>
        <time>2013-05-05T08:47:20Z</time>
      </trkpt>
      <trkpt lat="43.53787" lon="3.80619">
        <ele>98.6</ele>
        <time>2013-05-05T08:47:27Z</time>
      </trkpt>
      <trkpt lat="43.53782" lon="3.8061">
        <ele>99.1</ele>
        <time>2013-05-05T08:47:31Z</time>
      </trkpt>
      <trkpt lat="43.53777" lon="3.80601">
        <ele>99.8</ele>
        <time>2013-05-05T08:47:35Z</time>
      </trkpt>
      <trkpt lat="43.5377" lon="3.80594">
        <ele>100.2</ele>
        <time>2013-05-05T08:47:40Z</time>
      </trkpt>
      <trkpt lat="43.53762" lon="3.80588">
        <ele>100.7</ele>
        <time>2013-05-05T08:47:45Z</time>
      </trkpt>
      <trkpt lat="43.53754" lon="3.80584">
        <ele>101.8</ele>
        <time>2013-05-05T08:47:50Z</time>
      </trkpt>
      <trkpt lat="43.53747" lon="3.80581">
        <ele>102.9</ele>
        <time>2013-05-05T08:47:55Z</time>
      </trkpt>
      <trkpt lat="43.53739" lon="3.80581">
        <ele>103.5</ele>
        <time>2013-05-05T08:48:00Z</time>
      </trkpt>
      <trkpt lat="43.5373" lon="3.8058">
        <ele>103.8</ele>
        <time>2013-05-05T08:48:05Z</time>
      </trkpt>
      <trkpt lat="43.53722" lon="3.8058">
        <ele>104.4</ele>
        <time>2013-05-05T08:48:09Z</time>
      </trkpt>
      <trkpt lat="43.53715" lon="3.80579">
        <ele>105.6</ele>
        <time>2013-05-05T08:48:13Z</time>
      </trkpt>
      <trkpt lat="43.53706" lon="3.80581">
        <ele>107.1</ele>
        <time>2013-05-05T08:48:18Z</time>
      </trkpt>
      <trkpt lat="43.53698" lon="3.80584">
        <ele>108.7</ele>
        <time>2013-05-05T08:48:23Z</time>
      </trkpt>
      <trkpt lat="43.53696" lon="3.80584">
        <ele>108.8</ele>
        <time>2013-05-05T08:48:24Z</time>
      </trkpt>
      <trkpt lat="43.53682" lon="3.80591">
        <ele>109.8</ele>
        <time>2013-05-05T08:48:33Z</time>
      </trkpt>
      <trkpt lat="43.53675" lon="3.80593">
        <ele>111.3</ele>
        <time>2013-05-05T08:48:37Z</time>
      </trkpt>
      <trkpt lat="43.53667" lon="3.80597">
        <ele>112.7</ele>
        <time>2013-05-05T08:48:42Z</time>
      </trkpt>
      <trkpt lat="43.53659" lon="3.80594">
        <ele>113.5</ele>
        <time>2013-05-05T08:48:47Z</time>
      </trkpt>
      <trkpt lat="43.53652" lon="3.80593">
        <ele>114.4</ele>
        <time>2013-05-05T08:48:51Z</time>
      </trkpt>
      <trkpt lat="43.53645" lon="3.80593">
        <ele>114.3</ele>
        <time>2013-05-05T08:48:54Z</time>
      </trkpt>
      <trkpt lat="43.53636" lon="3.80592">
        <ele>114.2</ele>
        <time>2013-05-05T08:48:57Z</time>
      </trkpt>
      <trkpt lat="43.53628" lon="3.80587">
        <ele>114.7</ele>
        <time>2013-05-05T08:49:00Z</time>
      </trkpt>
      <trkpt lat="43.53622" lon="3.80579">
        <ele>114.7</ele>
        <time>2013-05-05T08:49:03Z</time>
      </trkpt>
      <trkpt lat="43.53619" lon="3.80571">
        <ele>114.3</ele>
        <time>2013-05-05T08:49:05Z</time>
      </trkpt>
      <trkpt lat="43.53617" lon="3.80563">
        <ele>115.1</ele>
        <time>2013-05-05T08:49:07Z</time>
      </trkpt>
      <trkpt lat="43.53615" lon="3.80554">
        <ele>115.7</ele>
        <time>2013-05-05T08:49:09Z</time>
      </trkpt>
      <trkpt lat="43.53614" lon="3.80544">
        <ele>116.3</ele>
        <time>2013-05-05T08:49:11Z</time>
      </trkpt>
      <trkpt lat="43.53612" lon="3.80535">
        <ele>115.4</ele>
        <time>2013-05-05T08:49:13Z</time>
      </trkpt>
      <trkpt lat="43.5361" lon="3.80527">
        <ele>115.3</ele>
        <time>2013-05-05T08:49:15Z</time>
      </trkpt>
      <trkpt lat="43.53609" lon="3.80519">
        <ele>115.5</ele>
        <time>2013-05-05T08:49:17Z</time>
      </trkpt>
      <trkpt lat="43.53607" lon="3.8051">
        <ele>115.5</ele>
        <time>2013-05-05T08:49:19Z</time>
      </trkpt>
      <trkpt lat="43.53605" lon="3.80502">
        <ele>115.4</ele>
        <time>2013-05-05T08:49:21Z</time>
      </trkpt>
      <trkpt lat="43.53604" lon="3.80494">
        <ele>115.6</ele>
        <time>2013-05-05T08:49:23Z</time>
      </trkpt>
      <trkpt lat="43.53603" lon="3.80486">
        <ele>115.4</ele>
        <time>2013-05-05T08:49:25Z</time>
      </trkpt>
      <trkpt lat="43.53603" lon="3.80481">
        <ele>115.3</ele>
        <time>2013-05-05T08:49:26Z</time>
      </trkpt>
      <trkpt lat="43.53602" lon="3.80468">
        <ele>115.1</ele>
        <time>2013-05-05T08:49:29Z</time>
      </trkpt>
      <trkpt lat="43.53602" lon="3.80458">
        <ele>115.3</ele>
        <time>2013-05-05T08:49:31Z</time>
      </trkpt>
      <trkpt lat="43.53601" lon="3.80449">
        <ele>115.5</ele>
        <time>2013-05-05T08:49:33Z</time>
      </trkpt>
      <trkpt lat="43.53601" lon="3.80439">
        <ele>115.2</ele>
        <time>2013-05-05T08:49:35Z</time>
      </trkpt>
      <trkpt lat="43.53601" lon="3.80428">
        <ele>114.7</ele>
        <time>2013-05-05T08:49:37Z</time>
      </trkpt>
      <trkpt lat="43.53601" lon="3.80417">
        <ele>115.3</ele>
        <time>2013-05-05T08:49:39Z</time>
      </trkpt>
      <trkpt lat="43.536" lon="3.80406">
        <ele>115.3</ele>
        <time>2013-05-05T08:49:41Z</time>
      </trkpt>
      <trkpt lat="43.536" lon="3.80394">
        <ele>115</ele>
        <time>2013-05-05T08:49:43Z</time>
      </trkpt>
      <trkpt lat="43.53601" lon="3.80382">
        <ele>114.8</ele>
        <time>2013-05-05T08:49:45Z</time>
      </trkpt>
      <trkpt lat="43.53602" lon="3.8037">
        <ele>114.8</ele>
        <time>2013-05-05T08:49:47Z</time>
      </trkpt>
      <trkpt lat="43.53604" lon="3.80358">
        <ele>114.9</ele>
        <time>2013-05-05T08:49:49Z</time>
      </trkpt>
      <trkpt lat="43.53607" lon="3.80347">
        <ele>114.7</ele>
        <time>2013-05-05T08:49:51Z</time>
      </trkpt>
      <trkpt lat="43.5361" lon="3.80336">
        <ele>114.3</ele>
        <time>2013-05-05T08:49:53Z</time>
      </trkpt>
      <trkpt lat="43.53613" lon="3.80325">
        <ele>113.7</ele>
        <time>2013-05-05T08:49:55Z</time>
      </trkpt>
      <trkpt lat="43.53616" lon="3.80314">
        <ele>113.5</ele>
        <time>2013-05-05T08:49:57Z</time>
      </trkpt>
      <trkpt lat="43.53619" lon="3.80304">
        <ele>113.6</ele>
        <time>2013-05-05T08:49:59Z</time>
      </trkpt>
      <trkpt lat="43.5362" lon="3.80295">
        <ele>114</ele>
        <time>2013-05-05T08:50:01Z</time>
      </trkpt>
      <trkpt lat="43.53613" lon="3.8029">
        <ele>114.4</ele>
        <time>2013-05-05T08:50:06Z</time>
      </trkpt>
      <trkpt lat="43.53608" lon="3.80295">
        <ele>115</ele>
        <time>2013-05-05T08:50:08Z</time>
      </trkpt>
      <trkpt lat="43.53604" lon="3.80302">
        <ele>115.2</ele>
        <time>2013-05-05T08:50:10Z</time>
      </trkpt>
      <trkpt lat="43.53601" lon="3.8031">
        <ele>115.2</ele>
        <time>2013-05-05T08:50:12Z</time>
      </trkpt>
      <trkpt lat="43.53597" lon="3.80316">
        <ele>115.8</ele>
        <time>2013-05-05T08:50:14Z</time>
      </trkpt>
      <trkpt lat="43.53593" lon="3.80323">
        <ele>116.2</ele>
        <time>2013-05-05T08:50:16Z</time>
      </trkpt>
      <trkpt lat="43.53587" lon="3.80332">
        <ele>117.2</ele>
        <time>2013-05-05T08:50:19Z</time>
      </trkpt>
      <trkpt lat="43.53581" lon="3.80339">
        <ele>117.8</ele>
        <time>2013-05-05T08:50:22Z</time>
      </trkpt>
      <trkpt lat="43.53575" lon="3.80346">
        <ele>117.7</ele>
        <time>2013-05-05T08:50:25Z</time>
      </trkpt>
      <trkpt lat="43.5357" lon="3.80352">
        <ele>117.5</ele>
        <time>2013-05-05T08:50:27Z</time>
      </trkpt>
      <trkpt lat="43.53567" lon="3.80354">
        <ele>117.5</ele>
        <time>2013-05-05T08:50:28Z</time>
      </trkpt>
      <trkpt lat="43.53555" lon="3.80364">
        <ele>118.9</ele>
        <time>2013-05-05T08:50:33Z</time>
      </trkpt>
      <trkpt lat="43.53547" lon="3.80368">
        <ele>119.9</ele>
        <time>2013-05-05T08:50:37Z</time>
      </trkpt>
      <trkpt lat="43.53538" lon="3.80368">
        <ele>120.1</ele>
        <time>2013-05-05T08:50:41Z</time>
      </trkpt>
      <trkpt lat="43.53531" lon="3.80367">
        <ele>120.8</ele>
        <time>2013-05-05T08:50:44Z</time>
      </trkpt>
      <trkpt lat="43.53523" lon="3.80362">
        <ele>120.6</ele>
        <time>2013-05-05T08:50:47Z</time>
      </trkpt>
      <trkpt lat="43.53518" lon="3.80353">
        <ele>120.6</ele>
        <time>2013-05-05T08:50:50Z</time>
      </trkpt>
      <trkpt lat="43.53515" lon="3.80342">
        <ele>121.3</ele>
        <time>2013-05-05T08:50:53Z</time>
      </trkpt>
      <trkpt lat="43.53511" lon="3.80334">
        <ele>121.5</ele>
        <time>2013-05-05T08:50:56Z</time>
      </trkpt>
      <trkpt lat="43.53506" lon="3.80325">
        <ele>122.5</ele>
        <time>2013-05-05T08:50:59Z</time>
      </trkpt>
      <trkpt lat="43.53502" lon="3.80316">
        <ele>122.8</ele>
        <time>2013-05-05T08:51:02Z</time>
      </trkpt>
      <trkpt lat="43.53497" lon="3.80307">
        <ele>123.1</ele>
        <time>2013-05-05T08:51:05Z</time>
      </trkpt>
      <trkpt lat="43.53492" lon="3.80299">
        <ele>122.9</ele>
        <time>2013-05-05T08:51:08Z</time>
      </trkpt>
      <trkpt lat="43.53487" lon="3.80291">
        <ele>123.5</ele>
        <time>2013-05-05T08:51:11Z</time>
      </trkpt>
      <trkpt lat="43.53483" lon="3.80282">
        <ele>124</ele>
        <time>2013-05-05T08:51:14Z</time>
      </trkpt>
      <trkpt lat="43.53479" lon="3.80273">
        <ele>124.4</ele>
        <time>2013-05-05T08:51:17Z</time>
      </trkpt>
      <trkpt lat="43.53475" lon="3.80264">
        <ele>124.6</ele>
        <time>2013-05-05T08:51:20Z</time>
      </trkpt>
      <trkpt lat="43.53472" lon="3.80255">
        <ele>124.5</ele>
        <time>2013-05-05T08:51:23Z</time>
      </trkpt>
      <trkpt lat="43.53471" lon="3.80245">
        <ele>125.1</ele>
        <time>2013-05-05T08:51:26Z</time>
      </trkpt>
      <trkpt lat="43.53469" lon="3.80236">
        <ele>125.7</ele>
        <time>2013-05-05T08:51:29Z</time>
      </trkpt>
      <trkpt lat="43.53469" lon="3.80232">
        <ele>125.7</ele>
        <time>2013-05-05T08:51:30Z</time>
      </trkpt>
      <trkpt lat="43.53467" lon="3.80216">
        <ele>126.1</ele>
        <time>2013-05-05T08:51:35Z</time>
      </trkpt>
      <trkpt lat="43.53466" lon="3.80204">
        <ele>126.7</ele>
        <time>2013-05-05T08:51:39Z</time>
      </trkpt>
      <trkpt lat="43.53465" lon="3.80192">
        <ele>126.7</ele>
        <time>2013-05-05T08:51:43Z</time>
      </trkpt>
      <trkpt lat="43.53467" lon="3.80181">
        <ele>128</ele>
        <time>2013-05-05T08:51:47Z</time>
      </trkpt>
      <trkpt lat="43.5347" lon="3.8017">
        <ele>129.2</ele>
        <time>2013-05-05T08:51:51Z</time>
      </trkpt>
      <trkpt lat="43.53476" lon="3.80162">
        <ele>129.5</ele>
        <time>2013-05-05T08:51:56Z</time>
      </trkpt>
      <trkpt lat="43.53481" lon="3.80152">
        <ele>130.4</ele>
        <time>2013-05-05T08:52:02Z</time>
      </trkpt>
      <trkpt lat="43.53485" lon="3.80143">
        <ele>131.3</ele>
        <time>2013-05-05T08:52:07Z</time>
      </trkpt>
      <trkpt lat="43.5349" lon="3.80133">
        <ele>131.4</ele>
        <time>2013-05-05T08:52:13Z</time>
      </trkpt>
      <trkpt lat="43.53495" lon="3.80123">
        <ele>131.6</ele>
        <time>2013-05-05T08:52:18Z</time>
      </trkpt>
      <trkpt lat="43.535" lon="3.80116">
        <ele>132.5</ele>
        <time>2013-05-05T08:52:22Z</time>
      </trkpt>
      <trkpt lat="43.53507" lon="3.80108">
        <ele>133.4</ele>
        <time>2013-05-05T08:52:27Z</time>
      </trkpt>
      <trkpt lat="43.53513" lon="3.801">
        <ele>134.4</ele>
        <time>2013-05-05T08:52:32Z</time>
      </trkpt>
      <trkpt lat="43.53514" lon="3.80098">
        <ele>134.6</ele>
        <time>2013-05-05T08:52:33Z</time>
      </trkpt>
      <trkpt lat="43.53517" lon="3.80078">
        <ele>135.9</ele>
        <time>2013-05-05T08:52:41Z</time>
      </trkpt>
      <trkpt lat="43.53518" lon="3.80066">
        <ele>136.7</ele>
        <time>2013-05-05T08:52:45Z</time>
      </trkpt>
      <trkpt lat="43.53519" lon="3.80054">
        <ele>136.4</ele>
        <time>2013-05-05T08:52:49Z</time>
      </trkpt>
      <trkpt lat="43.5352" lon="3.80042">
        <ele>136.9</ele>
        <time>2013-05-05T08:52:53Z</time>
      </trkpt>
      <trkpt lat="43.53519" lon="3.8003">
        <ele>137.2</ele>
        <time>2013-05-05T08:52:57Z</time>
      </trkpt>
      <trkpt lat="43.53518" lon="3.8002">
        <ele>138</ele>
        <time>2013-05-05T08:53:00Z</time>
      </trkpt>
      <trkpt lat="43.53517" lon="3.80008">
        <ele>138</ele>
        <time>2013-05-05T08:53:04Z</time>
      </trkpt>
      <trkpt lat="43.53522" lon="3.79999">
        <ele>138.4</ele>
        <time>2013-05-05T08:53:08Z</time>
      </trkpt>
      <trkpt lat="43.5353" lon="3.79997">
        <ele>139.4</ele>
        <time>2013-05-05T08:53:12Z</time>
      </trkpt>
      <trkpt lat="43.53534" lon="3.79985">
        <ele>139.5</ele>
        <time>2013-05-05T08:53:17Z</time>
      </trkpt>
      <trkpt lat="43.53531" lon="3.79974">
        <ele>140.8</ele>
        <time>2013-05-05T08:53:21Z</time>
      </trkpt>
      <trkpt lat="43.53529" lon="3.79962">
        <ele>141.9</ele>
        <time>2013-05-05T08:53:25Z</time>
      </trkpt>
      <trkpt lat="43.53526" lon="3.79951">
        <ele>141.7</ele>
        <time>2013-05-05T08:53:29Z</time>
      </trkpt>
      <trkpt lat="43.53521" lon="3.79942">
        <ele>140.6</ele>
        <time>2013-05-05T08:53:33Z</time>
      </trkpt>
      <trkpt lat="43.53519" lon="3.7994">
        <ele>141.3</ele>
        <time>2013-05-05T08:53:34Z</time>
      </trkpt>
      <trkpt lat="43.5351" lon="3.79927">
        <ele>142.5</ele>
        <time>2013-05-05T08:53:39Z</time>
      </trkpt>
      <trkpt lat="43.53504" lon="3.79919">
        <ele>142.2</ele>
        <time>2013-05-05T08:53:42Z</time>
      </trkpt>
      <trkpt lat="43.53498" lon="3.79911">
        <ele>142.4</ele>
        <time>2013-05-05T08:53:45Z</time>
      </trkpt>
      <trkpt lat="43.53493" lon="3.79903">
        <ele>142.2</ele>
        <time>2013-05-05T08:53:48Z</time>
      </trkpt>
      <trkpt lat="43.5349" lon="3.79894">
        <ele>142.4</ele>
        <time>2013-05-05T08:53:51Z</time>
      </trkpt>
      <trkpt lat="43.53494" lon="3.79883">
        <ele>143</ele>
        <time>2013-05-05T08:53:55Z</time>
      </trkpt>
      <trkpt lat="43.53501" lon="3.7988">
        <ele>142.9</ele>
        <time>2013-05-05T08:53:59Z</time>
      </trkpt>
      <trkpt lat="43.53508" lon="3.79873">
        <ele>143.8</ele>
        <time>2013-05-05T08:54:03Z</time>
      </trkpt>
      <trkpt lat="43.53515" lon="3.79866">
        <ele>145.7</ele>
        <time>2013-05-05T08:54:07Z</time>
      </trkpt>
      <trkpt lat="43.53521" lon="3.79862">
        <ele>146.4</ele>
        <time>2013-05-05T08:54:10Z</time>
      </trkpt>
      <trkpt lat="43.53528" lon="3.79859">
        <ele>147</ele>
        <time>2013-05-05T08:54:13Z</time>
      </trkpt>
      <trkpt lat="43.53536" lon="3.79853">
        <ele>147</ele>
        <time>2013-05-05T08:54:17Z</time>
      </trkpt>
      <trkpt lat="43.53542" lon="3.79849">
        <ele>147.3</ele>
        <time>2013-05-05T08:54:20Z</time>
      </trkpt>
      <trkpt lat="43.53549" lon="3.79843">
        <ele>148.2</ele>
        <time>2013-05-05T08:54:24Z</time>
      </trkpt>
      <trkpt lat="43.53555" lon="3.79837">
        <ele>149.1</ele>
        <time>2013-05-05T08:54:28Z</time>
      </trkpt>
      <trkpt lat="43.53563" lon="3.79832">
        <ele>148.6</ele>
        <time>2013-05-05T08:54:33Z</time>
      </trkpt>
      <trkpt lat="43.53571" lon="3.79828">
        <ele>149</ele>
        <time>2013-05-05T08:54:42Z</time>
      </trkpt>
      <trkpt lat="43.53572" lon="3.79827">
        <ele>149.1</ele>
        <time>2013-05-05T08:54:43Z</time>
      </trkpt>
      <trkpt lat="43.5358" lon="3.79824">
        <ele>149.6</ele>
        <time>2013-05-05T08:59:42Z</time>
      </trkpt>
      <trkpt lat="43.53592" lon="3.79819">
        <ele>149.9</ele>
        <time>2013-05-05T08:59:48Z</time>
      </trkpt>
      <trkpt lat="43.536" lon="3.79814">
        <ele>149.4</ele>
        <time>2013-05-05T08:59:52Z</time>
      </trkpt>
      <trkpt lat="43.53603" lon="3.79806">
        <ele>148.6</ele>
        <time>2013-05-05T08:59:56Z</time>
      </trkpt>
      <trkpt lat="43.53606" lon="3.79797">
        <ele>147.7</ele>
        <time>2013-05-05T08:59:59Z</time>
      </trkpt>
      <trkpt lat="43.53605" lon="3.79787">
        <ele>149</ele>
        <time>2013-05-05T09:00:02Z</time>
      </trkpt>
      <trkpt lat="43.53607" lon="3.79777">
        <ele>149.8</ele>
        <time>2013-05-05T09:00:05Z</time>
      </trkpt>
      <trkpt lat="43.53609" lon="3.79766">
        <ele>150.3</ele>
        <time>2013-05-05T09:00:08Z</time>
      </trkpt>
      <trkpt lat="43.53611" lon="3.79756">
        <ele>151.5</ele>
        <time>2013-05-05T09:00:12Z</time>
      </trkpt>
      <trkpt lat="43.53609" lon="3.79744">
        <ele>152.8</ele>
        <time>2013-05-05T09:00:22Z</time>
      </trkpt>
      <trkpt lat="43.53611" lon="3.79733">
        <ele>154.9</ele>
        <time>2013-05-05T09:00:35Z</time>
      </trkpt>
      <trkpt lat="43.53609" lon="3.79722">
        <ele>156.2</ele>
        <time>2013-05-05T09:00:52Z</time>
      </trkpt>
      <trkpt lat="43.53608" lon="3.7972">
        <ele>156.2</ele>
        <time>2013-05-05T09:00:53Z</time>
      </trkpt>
      <trkpt lat="43.53604" lon="3.79699">
        <ele>157.5</ele>
        <time>2013-05-05T09:01:02Z</time>
      </trkpt>
      <trkpt lat="43.53603" lon="3.79689">
        <ele>158.4</ele>
        <time>2013-05-05T09:01:06Z</time>
      </trkpt>
      <trkpt lat="43.53605" lon="3.79678">
        <ele>159.8</ele>
        <time>2013-05-05T09:01:10Z</time>
      </trkpt>
      <trkpt lat="43.53605" lon="3.79667">
        <ele>161.1</ele>
        <time>2013-05-05T09:01:14Z</time>
      </trkpt>
      <trkpt lat="43.53606" lon="3.79656">
        <ele>161.5</ele>
        <time>2013-05-05T09:01:18Z</time>
      </trkpt>
      <trkpt lat="43.53607" lon="3.79645">
        <ele>163.2</ele>
        <time>2013-05-05T09:01:22Z</time>
      </trkpt>
      <trkpt lat="43.53608" lon="3.79634">
        <ele>164.2</ele>
        <time>2013-05-05T09:01:26Z</time>
      </trkpt>
      <trkpt lat="43.5361" lon="3.79623">
        <ele>164.2</ele>
        <time>2013-05-05T09:01:31Z</time>
      </trkpt>
      <trkpt lat="43.53612" lon="3.79613">
        <ele>164.7</ele>
        <time>2013-05-05T09:01:35Z</time>
      </trkpt>
      <trkpt lat="43.53616" lon="3.79603">
        <ele>164</ele>
        <time>2013-05-05T09:03:09Z</time>
      </trkpt>
      <trkpt lat="43.53616" lon="3.79602">
        <ele>164.3</ele>
        <time>2013-05-05T09:03:10Z</time>
      </trkpt>
      <trkpt lat="43.53624" lon="3.79586">
        <ele>164</ele>
        <time>2013-05-05T09:03:22Z</time>
      </trkpt>
      <trkpt lat="43.53627" lon="3.79578">
        <ele>164.1</ele>
        <time>2013-05-05T09:03:24Z</time>
      </trkpt>
      <trkpt lat="43.53629" lon="3.79568">
        <ele>164.2</ele>
        <time>2013-05-05T09:03:26Z</time>
      </trkpt>
      <trkpt lat="43.53629" lon="3.79558">
        <ele>164.1</ele>
        <time>2013-05-05T09:03:28Z</time>
      </trkpt>
      <trkpt lat="43.53629" lon="3.79546">
        <ele>163.9</ele>
        <time>2013-05-05T09:03:30Z</time>
      </trkpt>
      <trkpt lat="43.53627" lon="3.79537">
        <ele>163.6</ele>
        <time>2013-05-05T09:03:32Z</time>
      </trkpt>
      <trkpt lat="43.5362" lon="3.79531">
        <ele>162.8</ele>
        <time>2013-05-05T09:03:35Z</time>
      </trkpt>
      <trkpt lat="43.53613" lon="3.79526">
        <ele>163.3</ele>
        <time>2013-05-05T09:03:38Z</time>
      </trkpt>
      <trkpt lat="43.53605" lon="3.79521">
        <ele>164.2</ele>
        <time>2013-05-05T09:03:41Z</time>
      </trkpt>
      <trkpt lat="43.53597" lon="3.79515">
        <ele>165.2</ele>
        <time>2013-05-05T09:03:44Z</time>
      </trkpt>
      <trkpt lat="43.5359" lon="3.7951">
        <ele>165.6</ele>
        <time>2013-05-05T09:03:47Z</time>
      </trkpt>
      <trkpt lat="43.53583" lon="3.79505">
        <ele>165.6</ele>
        <time>2013-05-05T09:03:50Z</time>
      </trkpt>
      <trkpt lat="43.53577" lon="3.795">
        <ele>166.1</ele>
        <time>2013-05-05T09:03:53Z</time>
      </trkpt>
      <trkpt lat="43.5357" lon="3.79496">
        <ele>167.1</ele>
        <time>2013-05-05T09:03:56Z</time>
      </trkpt>
      <trkpt lat="43.53563" lon="3.79494">
        <ele>167.8</ele>
        <time>2013-05-05T09:03:59Z</time>
      </trkpt>
      <trkpt lat="43.53556" lon="3.79491">
        <ele>168.4</ele>
        <time>2013-05-05T09:04:02Z</time>
      </trkpt>
      <trkpt lat="43.53548" lon="3.79487">
        <ele>169.6</ele>
        <time>2013-05-05T09:04:05Z</time>
      </trkpt>
      <trkpt lat="43.53542" lon="3.79481">
        <ele>169.5</ele>
        <time>2013-05-05T09:04:08Z</time>
      </trkpt>
      <trkpt lat="43.53538" lon="3.79473">
        <ele>170.2</ele>
        <time>2013-05-05T09:04:11Z</time>
      </trkpt>
      <trkpt lat="43.53536" lon="3.7947">
        <ele>170.3</ele>
        <time>2013-05-05T09:04:12Z</time>
      </trkpt>
      <trkpt lat="43.53529" lon="3.79457">
        <ele>170.2</ele>
        <time>2013-05-05T09:04:17Z</time>
      </trkpt>
      <trkpt lat="43.53525" lon="3.79449">
        <ele>170.9</ele>
        <time>2013-05-05T09:04:20Z</time>
      </trkpt>
      <trkpt lat="43.53519" lon="3.79443">
        <ele>171.3</ele>
        <time>2013-05-05T09:04:23Z</time>
      </trkpt>
      <trkpt lat="43.53514" lon="3.79439">
        <ele>171.3</ele>
        <time>2013-05-05T09:04:25Z</time>
      </trkpt>
      <trkpt lat="43.53508" lon="3.79435">
        <ele>171.2</ele>
        <time>2013-05-05T09:04:27Z</time>
      </trkpt>
      <trkpt lat="43.53502" lon="3.7943">
        <ele>170.8</ele>
        <time>2013-05-05T09:04:29Z</time>
      </trkpt>
      <trkpt lat="43.53496" lon="3.79422">
        <ele>170.5</ele>
        <time>2013-05-05T09:04:31Z</time>
      </trkpt>
      <trkpt lat="43.53492" lon="3.79417">
        <ele>170.5</ele>
        <time>2013-05-05T09:04:32Z</time>
      </trkpt>
      <trkpt lat="43.53488" lon="3.79412">
        <ele>170.4</ele>
        <time>2013-05-05T09:04:33Z</time>
      </trkpt>
      <trkpt lat="43.53484" lon="3.79408">
        <ele>170.4</ele>
        <time>2013-05-05T09:04:34Z</time>
      </trkpt>
      <trkpt lat="43.5348" lon="3.79404">
        <ele>169.9</ele>
        <time>2013-05-05T09:04:35Z</time>
      </trkpt>
      <trkpt lat="43.53475" lon="3.794">
        <ele>169.5</ele>
        <time>2013-05-05T09:04:36Z</time>
      </trkpt>
      <trkpt lat="43.5347" lon="3.79397">
        <ele>169.2</ele>
        <time>2013-05-05T09:04:37Z</time>
      </trkpt>
      <trkpt lat="43.53464" lon="3.79395">
        <ele>169</ele>
        <time>2013-05-05T09:04:38Z</time>
      </trkpt>
      <trkpt lat="43.53459" lon="3.79393">
        <ele>168.9</ele>
        <time>2013-05-05T09:04:39Z</time>
      </trkpt>
      <trkpt lat="43.53453" lon="3.79391">
        <ele>168.7</ele>
        <time>2013-05-05T09:04:40Z</time>
      </trkpt>
      <trkpt lat="43.53448" lon="3.79388">
        <ele>168.7</ele>
        <time>2013-05-05T09:04:41Z</time>
      </trkpt>
      <trkpt lat="43.53443" lon="3.79385">
        <ele>168.7</ele>
        <time>2013-05-05T09:04:42Z</time>
      </trkpt>
      <trkpt lat="43.53438" lon="3.7938">
        <ele>168.6</ele>
        <time>2013-05-05T09:04:43Z</time>
      </trkpt>
      <trkpt lat="43.53434" lon="3.79375">
        <ele>168.7</ele>
        <time>2013-05-05T09:04:44Z</time>
      </trkpt>
      <trkpt lat="43.5343" lon="3.79369">
        <ele>168.7</ele>
        <time>2013-05-05T09:04:45Z</time>
      </trkpt>
      <trkpt lat="43.53427" lon="3.79362">
        <ele>168.7</ele>
        <time>2013-05-05T09:04:46Z</time>
      </trkpt>
      <trkpt lat="43.53424" lon="3.79356">
        <ele>168.5</ele>
        <time>2013-05-05T09:04:47Z</time>
      </trkpt>
      <trkpt lat="43.53421" lon="3.79351">
        <ele>168.4</ele>
        <time>2013-05-05T09:04:48Z</time>
      </trkpt>
      <trkpt lat="43.53415" lon="3.79342">
        <ele>168.3</ele>
        <time>2013-05-05T09:04:50Z</time>
      </trkpt>
      <trkpt lat="43.53408" lon="3.79337">
        <ele>168.8</ele>
        <time>2013-05-05T09:04:52Z</time>
      </trkpt>
      <trkpt lat="43.53401" lon="3.79335">
        <ele>169.4</ele>
        <time>2013-05-05T09:04:54Z</time>
      </trkpt>
      <trkpt lat="43.53393" lon="3.79329">
        <ele>170.3</ele>
        <time>2013-05-05T09:04:57Z</time>
      </trkpt>
      <trkpt lat="43.53388" lon="3.79321">
        <ele>170.8</ele>
        <time>2013-05-05T09:05:00Z</time>
      </trkpt>
      <trkpt lat="43.53384" lon="3.79313">
        <ele>171.1</ele>
        <time>2013-05-05T09:05:03Z</time>
      </trkpt>
      <trkpt lat="43.53381" lon="3.79305">
        <ele>171.3</ele>
        <time>2013-05-05T09:05:06Z</time>
      </trkpt>
      <trkpt lat="43.53378" lon="3.79296">
        <ele>172.8</ele>
        <time>2013-05-05T09:05:09Z</time>
      </trkpt>
      <trkpt lat="43.53376" lon="3.79287">
        <ele>174.2</ele>
        <time>2013-05-05T09:05:12Z</time>
      </trkpt>
      <trkpt lat="43.53375" lon="3.79284">
        <ele>174.4</ele>
        <time>2013-05-05T09:05:13Z</time>
      </trkpt>
      <trkpt lat="43.53371" lon="3.79268">
        <ele>175.3</ele>
        <time>2013-05-05T09:05:18Z</time>
      </trkpt>
      <trkpt lat="43.53369" lon="3.79259">
        <ele>175.4</ele>
        <time>2013-05-05T09:05:21Z</time>
      </trkpt>
      <trkpt lat="43.53365" lon="3.7925">
        <ele>175.7</ele>
        <time>2013-05-05T09:05:24Z</time>
      </trkpt>
      <trkpt lat="43.53362" lon="3.79242">
        <ele>176</ele>
        <time>2013-05-05T09:05:27Z</time>
      </trkpt>
      <trkpt lat="43.53358" lon="3.79231">
        <ele>177.3</ele>
        <time>2013-05-05T09:05:31Z</time>
      </trkpt>
      <trkpt lat="43.53355" lon="3.7922">
        <ele>179</ele>
        <time>2013-05-05T09:05:35Z</time>
      </trkpt>
      <trkpt lat="43.53351" lon="3.79209">
        <ele>179.9</ele>
        <time>2013-05-05T09:05:39Z</time>
      </trkpt>
      <trkpt lat="43.53348" lon="3.79201">
        <ele>180.2</ele>
        <time>2013-05-05T09:05:42Z</time>
      </trkpt>
      <trkpt lat="43.53343" lon="3.79193">
        <ele>180</ele>
        <time>2013-05-05T09:05:45Z</time>
      </trkpt>
      <trkpt lat="43.53337" lon="3.79186">
        <ele>180.4</ele>
        <time>2013-05-05T09:05:48Z</time>
      </trkpt>
      <trkpt lat="43.53331" lon="3.79179">
        <ele>180.1</ele>
        <time>2013-05-05T09:05:51Z</time>
      </trkpt>
      <trkpt lat="43.53324" lon="3.79172">
        <ele>180.6</ele>
        <time>2013-05-05T09:05:54Z</time>
      </trkpt>
      <trkpt lat="43.53319" lon="3.79167">
        <ele>181.4</ele>
        <time>2013-05-05T09:05:56Z</time>
      </trkpt>
      <trkpt lat="43.53314" lon="3.79161">
        <ele>181.7</ele>
        <time>2013-05-05T09:05:58Z</time>
      </trkpt>
      <trkpt lat="43.53309" lon="3.79154">
        <ele>181.9</ele>
        <time>2013-05-05T09:06:00Z</time>
      </trkpt>
      <trkpt lat="43.53305" lon="3.79147">
        <ele>181.6</ele>
        <time>2013-05-05T09:06:02Z</time>
      </trkpt>
      <trkpt lat="43.533" lon="3.79139">
        <ele>181.8</ele>
        <time>2013-05-05T09:06:04Z</time>
      </trkpt>
      <trkpt lat="43.53297" lon="3.79131">
        <ele>182</ele>
        <time>2013-05-05T09:06:06Z</time>
      </trkpt>
      <trkpt lat="43.53293" lon="3.79122">
        <ele>181.7</ele>
        <time>2013-05-05T09:06:08Z</time>
      </trkpt>
      <trkpt lat="43.53289" lon="3.79114">
        <ele>181.5</ele>
        <time>2013-05-05T09:06:10Z</time>
      </trkpt>
      <trkpt lat="43.53285" lon="3.79106">
        <ele>181.2</ele>
        <time>2013-05-05T09:06:12Z</time>
      </trkpt>
      <trkpt lat="43.53281" lon="3.79098">
        <ele>181.4</ele>
        <time>2013-05-05T09:06:14Z</time>
      </trkpt>
      <trkpt lat="43.53278" lon="3.79095">
        <ele>181.6</ele>
        <time>2013-05-05T09:06:15Z</time>
      </trkpt>
      <trkpt lat="43.53271" lon="3.79085">
        <ele>181.8</ele>
        <time>2013-05-05T09:06:18Z</time>
      </trkpt>
      <trkpt lat="43.53266" lon="3.7908">
        <ele>182.1</ele>
        <time>2013-05-05T09:06:20Z</time>
      </trkpt>
      <trkpt lat="43.53261" lon="3.79075">
        <ele>182.4</ele>
        <time>2013-05-05T09:06:22Z</time>
      </trkpt>
      <trkpt lat="43.53255" lon="3.79071">
        <ele>183.1</ele>
        <time>2013-05-05T09:06:24Z</time>
      </trkpt>
      <trkpt lat="43.5325" lon="3.79068">
        <ele>183.6</ele>
        <time>2013-05-05T09:06:26Z</time>
      </trkpt>
      <trkpt lat="43.53241" lon="3.79064">
        <ele>183.9</ele>
        <time>2013-05-05T09:06:29Z</time>
      </trkpt>
      <trkpt lat="43.53233" lon="3.79061">
        <ele>185.1</ele>
        <time>2013-05-05T09:06:32Z</time>
      </trkpt>
      <trkpt lat="43.53225" lon="3.79054">
        <ele>185.4</ele>
        <time>2013-05-05T09:06:35Z</time>
      </trkpt>
      <trkpt lat="43.5322" lon="3.7905">
        <ele>185.9</ele>
        <time>2013-05-05T09:06:37Z</time>
      </trkpt>
      <trkpt lat="43.53215" lon="3.79046">
        <ele>186</ele>
        <time>2013-05-05T09:06:39Z</time>
      </trkpt>
      <trkpt lat="43.53208" lon="3.79042">
        <ele>185.9</ele>
        <time>2013-05-05T09:06:41Z</time>
      </trkpt>
      <trkpt lat="43.53202" lon="3.79038">
        <ele>186.3</ele>
        <time>2013-05-05T09:06:43Z</time>
      </trkpt>
      <trkpt lat="43.53195" lon="3.79034">
        <ele>186.6</ele>
        <time>2013-05-05T09:06:45Z</time>
      </trkpt>
      <trkpt lat="43.53188" lon="3.7903">
        <ele>187.1</ele>
        <time>2013-05-05T09:06:47Z</time>
      </trkpt>
      <trkpt lat="43.53181" lon="3.79026">
        <ele>187.7</ele>
        <time>2013-05-05T09:06:49Z</time>
      </trkpt>
      <trkpt lat="43.53175" lon="3.79023">
        <ele>188.3</ele>
        <time>2013-05-05T09:06:51Z</time>
      </trkpt>
      <trkpt lat="43.53169" lon="3.79018">
        <ele>188.6</ele>
        <time>2013-05-05T09:06:53Z</time>
      </trkpt>
      <trkpt lat="43.53163" lon="3.79014">
        <ele>188.5</ele>
        <time>2013-05-05T09:06:55Z</time>
      </trkpt>
      <trkpt lat="43.53158" lon="3.79009">
        <ele>188.1</ele>
        <time>2013-05-05T09:06:57Z</time>
      </trkpt>
      <trkpt lat="43.5315" lon="3.79002">
        <ele>189.6</ele>
        <time>2013-05-05T09:07:00Z</time>
      </trkpt>
      <trkpt lat="43.53143" lon="3.78995">
        <ele>189.8</ele>
        <time>2013-05-05T09:07:05Z</time>
      </trkpt>
      <trkpt lat="43.53137" lon="3.78987">
        <ele>189.7</ele>
        <time>2013-05-05T09:07:11Z</time>
      </trkpt>
      <trkpt lat="43.53129" lon="3.78982">
        <ele>191.1</ele>
        <time>2013-05-05T09:07:16Z</time>
      </trkpt>
      <trkpt lat="43.53128" lon="3.7898">
        <ele>191.3</ele>
        <time>2013-05-05T09:07:17Z</time>
      </trkpt>
      <trkpt lat="43.53117" lon="3.7897">
        <ele>190.9</ele>
        <time>2013-05-05T09:07:24Z</time>
      </trkpt>
      <trkpt lat="43.5311" lon="3.78965">
        <ele>191.6</ele>
        <time>2013-05-05T09:07:28Z</time>
      </trkpt>
      <trkpt lat="43.53103" lon="3.7896">
        <ele>191.7</ele>
        <time>2013-05-05T09:07:32Z</time>
      </trkpt>
      <trkpt lat="43.53096" lon="3.78953">
        <ele>191.4</ele>
        <time>2013-05-05T09:07:36Z</time>
      </trkpt>
      <trkpt lat="43.5309" lon="3.78946">
        <ele>192.6</ele>
        <time>2013-05-05T09:07:40Z</time>
      </trkpt>
      <trkpt lat="43.53084" lon="3.78941">
        <ele>193</ele>
        <time>2013-05-05T09:07:43Z</time>
      </trkpt>
      <trkpt lat="43.53078" lon="3.78937">
        <ele>193.7</ele>
        <time>2013-05-05T09:07:46Z</time>
      </trkpt>
      <trkpt lat="43.5307" lon="3.78934">
        <ele>194.6</ele>
        <time>2013-05-05T09:07:49Z</time>
      </trkpt>
      <trkpt lat="43.53062" lon="3.78932">
        <ele>195</ele>
        <time>2013-05-05T09:07:52Z</time>
      </trkpt>
      <trkpt lat="43.53053" lon="3.7893">
        <ele>194.5</ele>
        <time>2013-05-05T09:07:55Z</time>
      </trkpt>
      <trkpt lat="43.53045" lon="3.78929">
        <ele>194.8</ele>
        <time>2013-05-05T09:07:58Z</time>
      </trkpt>
      <trkpt lat="43.53036" lon="3.78928">
        <ele>195.4</ele>
        <time>2013-05-05T09:08:01Z</time>
      </trkpt>
      <trkpt lat="43.5303" lon="3.78928">
        <ele>194.9</ele>
        <time>2013-05-05T09:08:03Z</time>
      </trkpt>
      <trkpt lat="43.53024" lon="3.78927">
        <ele>194.8</ele>
        <time>2013-05-05T09:08:05Z</time>
      </trkpt>
      <trkpt lat="43.53018" lon="3.78924">
        <ele>194.9</ele>
        <time>2013-05-05T09:08:07Z</time>
      </trkpt>
      <trkpt lat="43.53013" lon="3.78918">
        <ele>195.2</ele>
        <time>2013-05-05T09:08:09Z</time>
      </trkpt>
      <trkpt lat="43.53009" lon="3.78912">
        <ele>195.6</ele>
        <time>2013-05-05T09:08:11Z</time>
      </trkpt>
      <trkpt lat="43.53005" lon="3.78906">
        <ele>195.8</ele>
        <time>2013-05-05T09:08:13Z</time>
      </trkpt>
      <trkpt lat="43.52999" lon="3.78897">
        <ele>196.1</ele>
        <time>2013-05-05T09:08:16Z</time>
      </trkpt>
      <trkpt lat="43.52993" lon="3.78887">
        <ele>196.9</ele>
        <time>2013-05-05T09:08:19Z</time>
      </trkpt>
      <trkpt lat="43.52992" lon="3.78884">
        <ele>197.1</ele>
        <time>2013-05-05T09:08:20Z</time>
      </trkpt>
      <trkpt lat="43.52989" lon="3.78868">
        <ele>197.2</ele>
        <time>2013-05-05T09:08:24Z</time>
      </trkpt>
      <trkpt lat="43.52989" lon="3.78859">
        <ele>197.3</ele>
        <time>2013-05-05T09:08:26Z</time>
      </trkpt>
      <trkpt lat="43.52989" lon="3.78848">
        <ele>197.3</ele>
        <time>2013-05-05T09:08:28Z</time>
      </trkpt>
      <trkpt lat="43.5299" lon="3.78837">
        <ele>197.3</ele>
        <time>2013-05-05T09:08:30Z</time>
      </trkpt>
      <trkpt lat="43.5299" lon="3.78831">
        <ele>197.1</ele>
        <time>2013-05-05T09:08:31Z</time>
      </trkpt>
      <trkpt lat="43.5299" lon="3.78824">
        <ele>196.9</ele>
        <time>2013-05-05T09:08:32Z</time>
      </trkpt>
      <trkpt lat="43.52989" lon="3.78818">
        <ele>196.8</ele>
        <time>2013-05-05T09:08:33Z</time>
      </trkpt>
      <trkpt lat="43.52987" lon="3.78812">
        <ele>196.7</ele>
        <time>2013-05-05T09:08:34Z</time>
      </trkpt>
      <trkpt lat="43.52986" lon="3.78806">
        <ele>196.6</ele>
        <time>2013-05-05T09:08:35Z</time>
      </trkpt>
      <trkpt lat="43.52985" lon="3.788">
        <ele>196.6</ele>
        <time>2013-05-05T09:08:36Z</time>
      </trkpt>
      <trkpt lat="43.52984" lon="3.78793">
        <ele>196.4</ele>
        <time>2013-05-05T09:08:37Z</time>
      </trkpt>
      <trkpt lat="43.52983" lon="3.78787">
        <ele>196.3</ele>
        <time>2013-05-05T09:08:38Z</time>
      </trkpt>
      <trkpt lat="43.52983" lon="3.7878">
        <ele>196.2</ele>
        <time>2013-05-05T09:08:39Z</time>
      </trkpt>
      <trkpt lat="43.52982" lon="3.78773">
        <ele>196.1</ele>
        <time>2013-05-05T09:08:40Z</time>
      </trkpt>
      <trkpt lat="43.52981" lon="3.78766">
        <ele>195.9</ele>
        <time>2013-05-05T09:08:41Z</time>
      </trkpt>
      <trkpt lat="43.5298" lon="3.78759">
        <ele>195.8</ele>
        <time>2013-05-05T09:08:42Z</time>
      </trkpt>
      <trkpt lat="43.52979" lon="3.78751">
        <ele>195.7</ele>
        <time>2013-05-05T09:08:43Z</time>
      </trkpt>
      <trkpt lat="43.52978" lon="3.78743">
        <ele>195.5</ele>
        <time>2013-05-05T09:08:44Z</time>
      </trkpt>
      <trkpt lat="43.52977" lon="3.78735">
        <ele>195.4</ele>
        <time>2013-05-05T09:08:45Z</time>
      </trkpt>
      <trkpt lat="43.52976" lon="3.78727">
        <ele>195.3</ele>
        <time>2013-05-05T09:08:46Z</time>
      </trkpt>
      <trkpt lat="43.52975" lon="3.78719">
        <ele>194.9</ele>
        <time>2013-05-05T09:08:47Z</time>
      </trkpt>
      <trkpt lat="43.52974" lon="3.78712">
        <ele>194.6</ele>
        <time>2013-05-05T09:08:48Z</time>
      </trkpt>
      <trkpt lat="43.52972" lon="3.78705">
        <ele>194.3</ele>
        <time>2013-05-05T09:08:49Z</time>
      </trkpt>
      <trkpt lat="43.52971" lon="3.78698">
        <ele>194.2</ele>
        <time>2013-05-05T09:08:50Z</time>
      </trkpt>
      <trkpt lat="43.52969" lon="3.78692">
        <ele>194</ele>
        <time>2013-05-05T09:08:51Z</time>
      </trkpt>
      <trkpt lat="43.52967" lon="3.78687">
        <ele>193.9</ele>
        <time>2013-05-05T09:08:52Z</time>
      </trkpt>
      <trkpt lat="43.52964" lon="3.78676">
        <ele>193.8</ele>
        <time>2013-05-05T09:08:54Z</time>
      </trkpt>
      <trkpt lat="43.52959" lon="3.78665">
        <ele>193.6</ele>
        <time>2013-05-05T09:08:56Z</time>
      </trkpt>
      <trkpt lat="43.52956" lon="3.7866">
        <ele>193.6</ele>
        <time>2013-05-05T09:08:57Z</time>
      </trkpt>
      <trkpt lat="43.52953" lon="3.78655">
        <ele>193.5</ele>
        <time>2013-05-05T09:08:58Z</time>
      </trkpt>
      <trkpt lat="43.5295" lon="3.7865">
        <ele>193.5</ele>
        <time>2013-05-05T09:08:59Z</time>
      </trkpt>
      <trkpt lat="43.52948" lon="3.78644">
        <ele>193.5</ele>
        <time>2013-05-05T09:09:00Z</time>
      </trkpt>
      <trkpt lat="43.52945" lon="3.78639">
        <ele>193.4</ele>
        <time>2013-05-05T09:09:01Z</time>
      </trkpt>
      <trkpt lat="43.52942" lon="3.78633">
        <ele>193.4</ele>
        <time>2013-05-05T09:09:02Z</time>
      </trkpt>
      <trkpt lat="43.52939" lon="3.78628">
        <ele>193</ele>
        <time>2013-05-05T09:09:03Z</time>
      </trkpt>
      <trkpt lat="43.52937" lon="3.78622">
        <ele>192.8</ele>
        <time>2013-05-05T09:09:04Z</time>
      </trkpt>
      <trkpt lat="43.52931" lon="3.78613">
        <ele>192.7</ele>
        <time>2013-05-05T09:09:06Z</time>
      </trkpt>
      <trkpt lat="43.52928" lon="3.78609">
        <ele>192.8</ele>
        <time>2013-05-05T09:09:07Z</time>
      </trkpt>
      <trkpt lat="43.52924" lon="3.78605">
        <ele>192.9</ele>
        <time>2013-05-05T09:09:08Z</time>
      </trkpt>
      <trkpt lat="43.5292" lon="3.78601">
        <ele>192.8</ele>
        <time>2013-05-05T09:09:09Z</time>
      </trkpt>
      <trkpt lat="43.52917" lon="3.78597">
        <ele>192.7</ele>
        <time>2013-05-05T09:09:10Z</time>
      </trkpt>
      <trkpt lat="43.52912" lon="3.78593">
        <ele>192.6</ele>
        <time>2013-05-05T09:09:11Z</time>
      </trkpt>
      <trkpt lat="43.52907" lon="3.7859">
        <ele>192.6</ele>
        <time>2013-05-05T09:09:12Z</time>
      </trkpt>
      <trkpt lat="43.52903" lon="3.78586">
        <ele>192.5</ele>
        <time>2013-05-05T09:09:13Z</time>
      </trkpt>
      <trkpt lat="43.529" lon="3.78581">
        <ele>192.5</ele>
        <time>2013-05-05T09:09:14Z</time>
      </trkpt>
      <trkpt lat="43.52896" lon="3.78575">
        <ele>192.4</ele>
        <time>2013-05-05T09:09:15Z</time>
      </trkpt>
      <trkpt lat="43.52893" lon="3.78569">
        <ele>192.3</ele>
        <time>2013-05-05T09:09:16Z</time>
      </trkpt>
      <trkpt lat="43.5289" lon="3.78564">
        <ele>192.2</ele>
        <time>2013-05-05T09:09:17Z</time>
      </trkpt>
      <trkpt lat="43.52886" lon="3.78558">
        <ele>192.2</ele>
        <time>2013-05-05T09:09:18Z</time>
      </trkpt>
      <trkpt lat="43.52882" lon="3.78553">
        <ele>192.1</ele>
        <time>2013-05-05T09:09:19Z</time>
      </trkpt>
      <trkpt lat="43.52878" lon="3.78548">
        <ele>192.1</ele>
        <time>2013-05-05T09:09:20Z</time>
      </trkpt>
      <trkpt lat="43.52873" lon="3.78544">
        <ele>192.1</ele>
        <time>2013-05-05T09:09:21Z</time>
      </trkpt>
      <trkpt lat="43.52868" lon="3.7854">
        <ele>191.8</ele>
        <time>2013-05-05T09:09:22Z</time>
      </trkpt>
      <trkpt lat="43.52863" lon="3.78536">
        <ele>191.6</ele>
        <time>2013-05-05T09:09:23Z</time>
      </trkpt>
      <trkpt lat="43.52858" lon="3.78531">
        <ele>191.4</ele>
        <time>2013-05-05T09:09:24Z</time>
      </trkpt>
      <trkpt lat="43.52855" lon="3.78525">
        <ele>191.2</ele>
        <time>2013-05-05T09:09:25Z</time>
      </trkpt>
      <trkpt lat="43.52852" lon="3.78518">
        <ele>191</ele>
        <time>2013-05-05T09:09:26Z</time>
      </trkpt>
      <trkpt lat="43.52849" lon="3.78512">
        <ele>190.9</ele>
        <time>2013-05-05T09:09:27Z</time>
      </trkpt>
      <trkpt lat="43.52845" lon="3.78507">
        <ele>190.8</ele>
        <time>2013-05-05T09:09:28Z</time>
      </trkpt>
      <trkpt lat="43.52841" lon="3.78504">
        <ele>190.8</ele>
        <time>2013-05-05T09:09:29Z</time>
      </trkpt>
      <trkpt lat="43.52837" lon="3.78502">
        <ele>190.7</ele>
        <time>2013-05-05T09:09:30Z</time>
      </trkpt>
      <trkpt lat="43.52833" lon="3.78499">
        <ele>190.7</ele>
        <time>2013-05-05T09:09:31Z</time>
      </trkpt>
      <trkpt lat="43.52828" lon="3.78495">
        <ele>191.1</ele>
        <time>2013-05-05T09:09:32Z</time>
      </trkpt>
      <trkpt lat="43.52824" lon="3.78492">
        <ele>191.4</ele>
        <time>2013-05-05T09:09:33Z</time>
      </trkpt>
      <trkpt lat="43.52819" lon="3.7849">
        <ele>191.6</ele>
        <time>2013-05-05T09:09:34Z</time>
      </trkpt>
      <trkpt lat="43.52814" lon="3.78487">
        <ele>191.6</ele>
        <time>2013-05-05T09:09:35Z</time>
      </trkpt>
      <trkpt lat="43.52809" lon="3.78485">
        <ele>191.6</ele>
        <time>2013-05-05T09:09:36Z</time>
      </trkpt>
      <trkpt lat="43.52804" lon="3.78484">
        <ele>191.6</ele>
        <time>2013-05-05T09:09:37Z</time>
      </trkpt>
      <trkpt lat="43.52799" lon="3.78483">
        <ele>191.9</ele>
        <time>2013-05-05T09:09:38Z</time>
      </trkpt>
      <trkpt lat="43.52794" lon="3.78481">
        <ele>192</ele>
        <time>2013-05-05T09:09:39Z</time>
      </trkpt>
      <trkpt lat="43.52789" lon="3.78478">
        <ele>192.2</ele>
        <time>2013-05-05T09:09:40Z</time>
      </trkpt>
      <trkpt lat="43.52784" lon="3.78476">
        <ele>192.2</ele>
        <time>2013-05-05T09:09:41Z</time>
      </trkpt>
      <trkpt lat="43.52779" lon="3.78473">
        <ele>192.2</ele>
        <time>2013-05-05T09:09:42Z</time>
      </trkpt>
      <trkpt lat="43.52774" lon="3.78471">
        <ele>192.2</ele>
        <time>2013-05-05T09:09:43Z</time>
      </trkpt>
      <trkpt lat="43.52769" lon="3.78468">
        <ele>192.1</ele>
        <time>2013-05-05T09:09:44Z</time>
      </trkpt>
      <trkpt lat="43.52764" lon="3.78465">
        <ele>192</ele>
        <time>2013-05-05T09:09:45Z</time>
      </trkpt>
      <trkpt lat="43.52759" lon="3.78462">
        <ele>192</ele>
        <time>2013-05-05T09:09:46Z</time>
      </trkpt>
      <trkpt lat="43.52754" lon="3.78458">
        <ele>191.9</ele>
        <time>2013-05-05T09:09:47Z</time>
      </trkpt>
      <trkpt lat="43.5275" lon="3.78454">
        <ele>191.5</ele>
        <time>2013-05-05T09:09:48Z</time>
      </trkpt>
      <trkpt lat="43.52746" lon="3.78449">
        <ele>191.2</ele>
        <time>2013-05-05T09:09:49Z</time>
      </trkpt>
      <trkpt lat="43.52741" lon="3.78444">
        <ele>190.9</ele>
        <time>2013-05-05T09:09:50Z</time>
      </trkpt>
      <trkpt lat="43.52737" lon="3.7844">
        <ele>191</ele>
        <time>2013-05-05T09:09:51Z</time>
      </trkpt>
      <trkpt lat="43.52733" lon="3.78435">
        <ele>191</ele>
        <time>2013-05-05T09:09:52Z</time>
      </trkpt>
      <trkpt lat="43.52728" lon="3.78431">
        <ele>191</ele>
        <time>2013-05-05T09:09:53Z</time>
      </trkpt>
      <trkpt lat="43.52723" lon="3.78429">
        <ele>190.7</ele>
        <time>2013-05-05T09:09:54Z</time>
      </trkpt>
      <trkpt lat="43.52718" lon="3.78428">
        <ele>190.5</ele>
        <time>2013-05-05T09:09:55Z</time>
      </trkpt>
      <trkpt lat="43.52714" lon="3.7843">
        <ele>190.3</ele>
        <time>2013-05-05T09:09:56Z</time>
      </trkpt>
      <trkpt lat="43.52705" lon="3.78433">
        <ele>190.2</ele>
        <time>2013-05-05T09:09:58Z</time>
      </trkpt>
      <trkpt lat="43.52698" lon="3.78428">
        <ele>189.8</ele>
        <time>2013-05-05T09:10:00Z</time>
      </trkpt>
      <trkpt lat="43.52694" lon="3.78424">
        <ele>189.6</ele>
        <time>2013-05-05T09:10:01Z</time>
      </trkpt>
      <trkpt lat="43.5269" lon="3.7842">
        <ele>189.4</ele>
        <time>2013-05-05T09:10:02Z</time>
      </trkpt>
      <trkpt lat="43.52687" lon="3.78415">
        <ele>189.3</ele>
        <time>2013-05-05T09:10:03Z</time>
      </trkpt>
      <trkpt lat="43.52683" lon="3.78411">
        <ele>189.4</ele>
        <time>2013-05-05T09:10:04Z</time>
      </trkpt>
      <trkpt lat="43.5268" lon="3.78407">
        <ele>189.5</ele>
        <time>2013-05-05T09:10:05Z</time>
      </trkpt>
      <trkpt lat="43.52676" lon="3.78402">
        <ele>189.5</ele>
        <time>2013-05-05T09:10:06Z</time>
      </trkpt>
      <trkpt lat="43.52671" lon="3.78392">
        <ele>189.3</ele>
        <time>2013-05-05T09:10:08Z</time>
      </trkpt>
      <trkpt lat="43.52667" lon="3.78382">
        <ele>188.9</ele>
        <time>2013-05-05T09:10:10Z</time>
      </trkpt>
      <trkpt lat="43.52664" lon="3.78371">
        <ele>188.4</ele>
        <time>2013-05-05T09:10:12Z</time>
      </trkpt>
      <trkpt lat="43.5266" lon="3.7836">
        <ele>188.4</ele>
        <time>2013-05-05T09:10:14Z</time>
      </trkpt>
      <trkpt lat="43.52657" lon="3.78355">
        <ele>188.4</ele>
        <time>2013-05-05T09:10:15Z</time>
      </trkpt>
      <trkpt lat="43.52654" lon="3.7835">
        <ele>188.7</ele>
        <time>2013-05-05T09:10:16Z</time>
      </trkpt>
      <trkpt lat="43.52651" lon="3.78345">
        <ele>189</ele>
        <time>2013-05-05T09:10:17Z</time>
      </trkpt>
      <trkpt lat="43.52648" lon="3.78339">
        <ele>189.1</ele>
        <time>2013-05-05T09:10:18Z</time>
      </trkpt>
      <trkpt lat="43.52645" lon="3.78334">
        <ele>189.3</ele>
        <time>2013-05-05T09:10:19Z</time>
      </trkpt>
      <trkpt lat="43.52643" lon="3.78329">
        <ele>189.3</ele>
        <time>2013-05-05T09:10:20Z</time>
      </trkpt>
      <trkpt lat="43.52637" lon="3.78319">
        <ele>189.5</ele>
        <time>2013-05-05T09:10:22Z</time>
      </trkpt>
      <trkpt lat="43.52633" lon="3.78316">
        <ele>189.2</ele>
        <time>2013-05-05T09:10:23Z</time>
      </trkpt>
      <trkpt lat="43.52629" lon="3.78312">
        <ele>188.9</ele>
        <time>2013-05-05T09:10:24Z</time>
      </trkpt>
      <trkpt lat="43.52626" lon="3.78306">
        <ele>188.7</ele>
        <time>2013-05-05T09:10:25Z</time>
      </trkpt>
      <trkpt lat="43.52625" lon="3.783">
        <ele>188.5</ele>
        <time>2013-05-05T09:10:26Z</time>
      </trkpt>
      <trkpt lat="43.52624" lon="3.78293">
        <ele>188.3</ele>
        <time>2013-05-05T09:10:27Z</time>
      </trkpt>
      <trkpt lat="43.52624" lon="3.78282">
        <ele>188.3</ele>
        <time>2013-05-05T09:10:29Z</time>
      </trkpt>
      <trkpt lat="43.5262" lon="3.78275">
        <ele>188.5</ele>
        <time>2013-05-05T09:10:31Z</time>
      </trkpt>
      <trkpt lat="43.52615" lon="3.78269">
        <ele>189</ele>
        <time>2013-05-05T09:10:33Z</time>
      </trkpt>
      <trkpt lat="43.52609" lon="3.78265">
        <ele>189.3</ele>
        <time>2013-05-05T09:10:35Z</time>
      </trkpt>
      <trkpt lat="43.52602" lon="3.78261">
        <ele>189.5</ele>
        <time>2013-05-05T09:10:37Z</time>
      </trkpt>
      <trkpt lat="43.52595" lon="3.78257">
        <ele>189.8</ele>
        <time>2013-05-05T09:10:39Z</time>
      </trkpt>
      <trkpt lat="43.52587" lon="3.78253">
        <ele>190.1</ele>
        <time>2013-05-05T09:10:41Z</time>
      </trkpt>
      <trkpt lat="43.52579" lon="3.7825">
        <ele>189.3</ele>
        <time>2013-05-05T09:10:43Z</time>
      </trkpt>
      <trkpt lat="43.52573" lon="3.78244">
        <ele>189.1</ele>
        <time>2013-05-05T09:10:45Z</time>
      </trkpt>
      <trkpt lat="43.52565" lon="3.78237">
        <ele>189.3</ele>
        <time>2013-05-05T09:10:48Z</time>
      </trkpt>
      <trkpt lat="43.5256" lon="3.78234">
        <ele>189.5</ele>
        <time>2013-05-05T09:10:50Z</time>
      </trkpt>
      <trkpt lat="43.52553" lon="3.78229">
        <ele>189.3</ele>
        <time>2013-05-05T09:10:52Z</time>
      </trkpt>
      <trkpt lat="43.52545" lon="3.78227">
        <ele>189.2</ele>
        <time>2013-05-05T09:10:54Z</time>
      </trkpt>
      <trkpt lat="43.52538" lon="3.78223">
        <ele>188.9</ele>
        <time>2013-05-05T09:10:56Z</time>
      </trkpt>
      <trkpt lat="43.52531" lon="3.78219">
        <ele>189.3</ele>
        <time>2013-05-05T09:10:58Z</time>
      </trkpt>
      <trkpt lat="43.52524" lon="3.78215">
        <ele>189.9</ele>
        <time>2013-05-05T09:11:00Z</time>
      </trkpt>
      <trkpt lat="43.52516" lon="3.78213">
        <ele>189.3</ele>
        <time>2013-05-05T09:11:02Z</time>
      </trkpt>
      <trkpt lat="43.52508" lon="3.78215">
        <ele>188.8</ele>
        <time>2013-05-05T09:11:04Z</time>
      </trkpt>
      <trkpt lat="43.52501" lon="3.78218">
        <ele>188.3</ele>
        <time>2013-05-05T09:11:06Z</time>
      </trkpt>
      <trkpt lat="43.52494" lon="3.78219">
        <ele>187.9</ele>
        <time>2013-05-05T09:11:08Z</time>
      </trkpt>
      <trkpt lat="43.52486" lon="3.7822">
        <ele>187.6</ele>
        <time>2013-05-05T09:11:10Z</time>
      </trkpt>
      <trkpt lat="43.52478" lon="3.78222">
        <ele>187.1</ele>
        <time>2013-05-05T09:11:12Z</time>
      </trkpt>
      <trkpt lat="43.52471" lon="3.78226">
        <ele>186.3</ele>
        <time>2013-05-05T09:11:14Z</time>
      </trkpt>
      <trkpt lat="43.52465" lon="3.78231">
        <ele>185.5</ele>
        <time>2013-05-05T09:11:16Z</time>
      </trkpt>
      <trkpt lat="43.52459" lon="3.78233">
        <ele>184.1</ele>
        <time>2013-05-05T09:11:18Z</time>
      </trkpt>
      <trkpt lat="43.52452" lon="3.78228">
        <ele>183.4</ele>
        <time>2013-05-05T09:11:20Z</time>
      </trkpt>
      <trkpt lat="43.52445" lon="3.7822">
        <ele>183.1</ele>
        <time>2013-05-05T09:11:22Z</time>
      </trkpt>
      <trkpt lat="43.52441" lon="3.78216">
        <ele>182.7</ele>
        <time>2013-05-05T09:11:23Z</time>
      </trkpt>
      <trkpt lat="43.52437" lon="3.78213">
        <ele>182.4</ele>
        <time>2013-05-05T09:11:24Z</time>
      </trkpt>
      <trkpt lat="43.52433" lon="3.78211">
        <ele>182.2</ele>
        <time>2013-05-05T09:11:25Z</time>
      </trkpt>
      <trkpt lat="43.52429" lon="3.78208">
        <ele>181.7</ele>
        <time>2013-05-05T09:11:26Z</time>
      </trkpt>
      <trkpt lat="43.52425" lon="3.78205">
        <ele>181.4</ele>
        <time>2013-05-05T09:11:27Z</time>
      </trkpt>
      <trkpt lat="43.52421" lon="3.78201">
        <ele>181.2</ele>
        <time>2013-05-05T09:11:28Z</time>
      </trkpt>
      <trkpt lat="43.52417" lon="3.78198">
        <ele>181</ele>
        <time>2013-05-05T09:11:29Z</time>
      </trkpt>
      <trkpt lat="43.52413" lon="3.78196">
        <ele>180.6</ele>
        <time>2013-05-05T09:11:30Z</time>
      </trkpt>
      <trkpt lat="43.52408" lon="3.78193">
        <ele>180.3</ele>
        <time>2013-05-05T09:11:31Z</time>
      </trkpt>
      <trkpt lat="43.52402" lon="3.78186">
        <ele>178.6</ele>
        <time>2013-05-05T09:11:33Z</time>
      </trkpt>
      <trkpt lat="43.52401" lon="3.78178">
        <ele>176.7</ele>
        <time>2013-05-05T09:11:35Z</time>
      </trkpt>
      <trkpt lat="43.52403" lon="3.78168">
        <ele>176.5</ele>
        <time>2013-05-05T09:11:37Z</time>
      </trkpt>
      <trkpt lat="43.52403" lon="3.78159">
        <ele>176.4</ele>
        <time>2013-05-05T09:11:39Z</time>
      </trkpt>
      <trkpt lat="43.52404" lon="3.78151">
        <ele>176.2</ele>
        <time>2013-05-05T09:11:41Z</time>
      </trkpt>
      <trkpt lat="43.52405" lon="3.78142">
        <ele>177.1</ele>
        <time>2013-05-05T09:11:43Z</time>
      </trkpt>
      <trkpt lat="43.52407" lon="3.78132">
        <ele>177.7</ele>
        <time>2013-05-05T09:11:45Z</time>
      </trkpt>
      <trkpt lat="43.52409" lon="3.78121">
        <ele>177.9</ele>
        <time>2013-05-05T09:11:47Z</time>
      </trkpt>
      <trkpt lat="43.52411" lon="3.7811">
        <ele>178.1</ele>
        <time>2013-05-05T09:11:49Z</time>
      </trkpt>
      <trkpt lat="43.52412" lon="3.78099">
        <ele>178.2</ele>
        <time>2013-05-05T09:11:51Z</time>
      </trkpt>
      <trkpt lat="43.52413" lon="3.78086">
        <ele>178.1</ele>
        <time>2013-05-05T09:11:53Z</time>
      </trkpt>
      <trkpt lat="43.52414" lon="3.78074">
        <ele>178</ele>
        <time>2013-05-05T09:11:55Z</time>
      </trkpt>
      <trkpt lat="43.52414" lon="3.78063">
        <ele>178</ele>
        <time>2013-05-05T09:11:57Z</time>
      </trkpt>
      <trkpt lat="43.5241" lon="3.78053">
        <ele>178</ele>
        <time>2013-05-05T09:11:59Z</time>
      </trkpt>
      <trkpt lat="43.52405" lon="3.78043">
        <ele>177.9</ele>
        <time>2013-05-05T09:12:01Z</time>
      </trkpt>
      <trkpt lat="43.52404" lon="3.78038">
        <ele>177.8</ele>
        <time>2013-05-05T09:12:02Z</time>
      </trkpt>
      <trkpt lat="43.52402" lon="3.78031">
        <ele>177.8</ele>
        <time>2013-05-05T09:12:03Z</time>
      </trkpt>
      <trkpt lat="43.524" lon="3.78026">
        <ele>177.7</ele>
        <time>2013-05-05T09:12:04Z</time>
      </trkpt>
      <trkpt lat="43.52398" lon="3.7802">
        <ele>177.2</ele>
        <time>2013-05-05T09:12:05Z</time>
      </trkpt>
      <trkpt lat="43.52395" lon="3.78015">
        <ele>176.8</ele>
        <time>2013-05-05T09:12:06Z</time>
      </trkpt>
      <trkpt lat="43.52392" lon="3.7801">
        <ele>176.6</ele>
        <time>2013-05-05T09:12:07Z</time>
      </trkpt>
      <trkpt lat="43.52388" lon="3.78005">
        <ele>176.9</ele>
        <time>2013-05-05T09:12:08Z</time>
      </trkpt>
      <trkpt lat="43.52385" lon="3.78">
        <ele>177.1</ele>
        <time>2013-05-05T09:12:09Z</time>
      </trkpt>
      <trkpt lat="43.52381" lon="3.77997">
        <ele>177.2</ele>
        <time>2013-05-05T09:12:10Z</time>
      </trkpt>
      <trkpt lat="43.52377" lon="3.77994">
        <ele>176.5</ele>
        <time>2013-05-05T09:12:11Z</time>
      </trkpt>
      <trkpt lat="43.52372" lon="3.77991">
        <ele>176</ele>
        <time>2013-05-05T09:12:12Z</time>
      </trkpt>
      <trkpt lat="43.52367" lon="3.77989">
        <ele>175.6</ele>
        <time>2013-05-05T09:12:13Z</time>
      </trkpt>
      <trkpt lat="43.52362" lon="3.77989">
        <ele>175.7</ele>
        <time>2013-05-05T09:12:14Z</time>
      </trkpt>
      <trkpt lat="43.52353" lon="3.77986">
        <ele>175.8</ele>
        <time>2013-05-05T09:12:16Z</time>
      </trkpt>
      <trkpt lat="43.52347" lon="3.77977">
        <ele>174.6</ele>
        <time>2013-05-05T09:12:18Z</time>
      </trkpt>
      <trkpt lat="43.52344" lon="3.77972">
        <ele>173.7</ele>
        <time>2013-05-05T09:12:19Z</time>
      </trkpt>
      <trkpt lat="43.52341" lon="3.77967">
        <ele>173</ele>
        <time>2013-05-05T09:12:20Z</time>
      </trkpt>
      <trkpt lat="43.52338" lon="3.77961">
        <ele>172.9</ele>
        <time>2013-05-05T09:12:21Z</time>
      </trkpt>
      <trkpt lat="43.52335" lon="3.77956">
        <ele>172.8</ele>
        <time>2013-05-05T09:12:22Z</time>
      </trkpt>
      <trkpt lat="43.52332" lon="3.7795">
        <ele>172.7</ele>
        <time>2013-05-05T09:12:23Z</time>
      </trkpt>
      <trkpt lat="43.52329" lon="3.77945">
        <ele>172.7</ele>
        <time>2013-05-05T09:12:24Z</time>
      </trkpt>
      <trkpt lat="43.52325" lon="3.77941">
        <ele>172.7</ele>
        <time>2013-05-05T09:12:25Z</time>
      </trkpt>
      <trkpt lat="43.5232" lon="3.77936">
        <ele>172.6</ele>
        <time>2013-05-05T09:12:26Z</time>
      </trkpt>
      <trkpt lat="43.52317" lon="3.77931">
        <ele>172.3</ele>
        <time>2013-05-05T09:12:27Z</time>
      </trkpt>
      <trkpt lat="43.52313" lon="3.77926">
        <ele>172.1</ele>
        <time>2013-05-05T09:12:28Z</time>
      </trkpt>
      <trkpt lat="43.52309" lon="3.7792">
        <ele>171.9</ele>
        <time>2013-05-05T09:12:29Z</time>
      </trkpt>
      <trkpt lat="43.52305" lon="3.77915">
        <ele>171.3</ele>
        <time>2013-05-05T09:12:30Z</time>
      </trkpt>
      <trkpt lat="43.52301" lon="3.77911">
        <ele>170.9</ele>
        <time>2013-05-05T09:12:31Z</time>
      </trkpt>
      <trkpt lat="43.52297" lon="3.77907">
        <ele>170.5</ele>
        <time>2013-05-05T09:12:32Z</time>
      </trkpt>
      <trkpt lat="43.52293" lon="3.77903">
        <ele>170.2</ele>
        <time>2013-05-05T09:12:33Z</time>
      </trkpt>
      <trkpt lat="43.52289" lon="3.77899">
        <ele>169.3</ele>
        <time>2013-05-05T09:12:34Z</time>
      </trkpt>
      <trkpt lat="43.52285" lon="3.77897">
        <ele>168.6</ele>
        <time>2013-05-05T09:12:35Z</time>
      </trkpt>
      <trkpt lat="43.5228" lon="3.77894">
        <ele>168</ele>
        <time>2013-05-05T09:12:36Z</time>
      </trkpt>
      <trkpt lat="43.52274" lon="3.77886">
        <ele>166.9</ele>
        <time>2013-05-05T09:12:38Z</time>
      </trkpt>
      <trkpt lat="43.52271" lon="3.77876">
        <ele>166.4</ele>
        <time>2013-05-05T09:12:40Z</time>
      </trkpt>
      <trkpt lat="43.52267" lon="3.77865">
        <ele>166.2</ele>
        <time>2013-05-05T09:12:42Z</time>
      </trkpt>
      <trkpt lat="43.52264" lon="3.77854">
        <ele>165.6</ele>
        <time>2013-05-05T09:12:44Z</time>
      </trkpt>
      <trkpt lat="43.5226" lon="3.77844">
        <ele>164.4</ele>
        <time>2013-05-05T09:12:46Z</time>
      </trkpt>
      <trkpt lat="43.52253" lon="3.77837">
        <ele>163.2</ele>
        <time>2013-05-05T09:12:48Z</time>
      </trkpt>
      <trkpt lat="43.52245" lon="3.77833">
        <ele>162.2</ele>
        <time>2013-05-05T09:12:50Z</time>
      </trkpt>
      <trkpt lat="43.52236" lon="3.77832">
        <ele>161.6</ele>
        <time>2013-05-05T09:12:52Z</time>
      </trkpt>
      <trkpt lat="43.52227" lon="3.77832">
        <ele>157.7</ele>
        <time>2013-05-05T09:13:11Z</time>
      </trkpt>
      <trkpt lat="43.5222" lon="3.77831">
        <ele>158.1</ele>
        <time>2013-05-05T09:13:15Z</time>
      </trkpt>
      <trkpt lat="43.52214" lon="3.77829">
        <ele>158</ele>
        <time>2013-05-05T09:13:17Z</time>
      </trkpt>
      <trkpt lat="43.52208" lon="3.77824">
        <ele>157.4</ele>
        <time>2013-05-05T09:13:19Z</time>
      </trkpt>
      <trkpt lat="43.52203" lon="3.7782">
        <ele>156.7</ele>
        <time>2013-05-05T09:13:21Z</time>
      </trkpt>
      <trkpt lat="43.52197" lon="3.77815">
        <ele>156</ele>
        <time>2013-05-05T09:13:23Z</time>
      </trkpt>
      <trkpt lat="43.5219" lon="3.77809">
        <ele>155.2</ele>
        <time>2013-05-05T09:13:25Z</time>
      </trkpt>
      <trkpt lat="43.52187" lon="3.77807">
        <ele>154.7</ele>
        <time>2013-05-05T09:13:26Z</time>
      </trkpt>
      <trkpt lat="43.52177" lon="3.778">
        <ele>154</ele>
        <time>2013-05-05T09:13:29Z</time>
      </trkpt>
      <trkpt lat="43.5217" lon="3.77798">
        <ele>153.2</ele>
        <time>2013-05-05T09:13:31Z</time>
      </trkpt>
      <trkpt lat="43.52164" lon="3.77799">
        <ele>152.3</ele>
        <time>2013-05-05T09:13:33Z</time>
      </trkpt>
      <trkpt lat="43.52157" lon="3.77803">
        <ele>151.7</ele>
        <time>2013-05-05T09:13:35Z</time>
      </trkpt>
      <trkpt lat="43.5215" lon="3.77806">
        <ele>151</ele>
        <time>2013-05-05T09:13:37Z</time>
      </trkpt>
      <trkpt lat="43.52144" lon="3.77804">
        <ele>150.3</ele>
        <time>2013-05-05T09:13:39Z</time>
      </trkpt>
      <trkpt lat="43.52139" lon="3.77798">
        <ele>150</ele>
        <time>2013-05-05T09:13:41Z</time>
      </trkpt>
      <trkpt lat="43.52134" lon="3.7779">
        <ele>149.9</ele>
        <time>2013-05-05T09:13:43Z</time>
      </trkpt>
      <trkpt lat="43.52129" lon="3.77781">
        <ele>148.8</ele>
        <time>2013-05-05T09:13:45Z</time>
      </trkpt>
      <trkpt lat="43.52125" lon="3.77772">
        <ele>148.1</ele>
        <time>2013-05-05T09:13:47Z</time>
      </trkpt>
      <trkpt lat="43.52121" lon="3.77763">
        <ele>147.6</ele>
        <time>2013-05-05T09:13:49Z</time>
      </trkpt>
      <trkpt lat="43.52115" lon="3.77756">
        <ele>147.3</ele>
        <time>2013-05-05T09:13:51Z</time>
      </trkpt>
      <trkpt lat="43.52109" lon="3.77749">
        <ele>146.5</ele>
        <time>2013-05-05T09:13:53Z</time>
      </trkpt>
      <trkpt lat="43.52103" lon="3.77742">
        <ele>145.5</ele>
        <time>2013-05-05T09:13:55Z</time>
      </trkpt>
      <trkpt lat="43.52097" lon="3.77735">
        <ele>144.5</ele>
        <time>2013-05-05T09:13:57Z</time>
      </trkpt>
      <trkpt lat="43.52094" lon="3.77724">
        <ele>143.6</ele>
        <time>2013-05-05T09:13:59Z</time>
      </trkpt>
      <trkpt lat="43.52089" lon="3.77716">
        <ele>143.1</ele>
        <time>2013-05-05T09:14:01Z</time>
      </trkpt>
      <trkpt lat="43.52087" lon="3.77707">
        <ele>142.6</ele>
        <time>2013-05-05T09:14:03Z</time>
      </trkpt>
      <trkpt lat="43.52086" lon="3.77696">
        <ele>142</ele>
        <time>2013-05-05T09:14:05Z</time>
      </trkpt>
      <trkpt lat="43.52081" lon="3.77687">
        <ele>141.6</ele>
        <time>2013-05-05T09:14:07Z</time>
      </trkpt>
      <trkpt lat="43.52075" lon="3.77677">
        <ele>140.7</ele>
        <time>2013-05-05T09:14:09Z</time>
      </trkpt>
      <trkpt lat="43.52071" lon="3.77666">
        <ele>139.8</ele>
        <time>2013-05-05T09:14:11Z</time>
      </trkpt>
      <trkpt lat="43.5207" lon="3.7766">
        <ele>139.1</ele>
        <time>2013-05-05T09:14:12Z</time>
      </trkpt>
      <trkpt lat="43.52068" lon="3.77655">
        <ele>138.5</ele>
        <time>2013-05-05T09:14:13Z</time>
      </trkpt>
      <trkpt lat="43.52066" lon="3.77649">
        <ele>138.1</ele>
        <time>2013-05-05T09:14:14Z</time>
      </trkpt>
      <trkpt lat="43.52064" lon="3.77643">
        <ele>137.8</ele>
        <time>2013-05-05T09:14:15Z</time>
      </trkpt>
      <trkpt lat="43.52063" lon="3.77637">
        <ele>137.2</ele>
        <time>2013-05-05T09:14:16Z</time>
      </trkpt>
      <trkpt lat="43.52061" lon="3.7763">
        <ele>136.8</ele>
        <time>2013-05-05T09:14:17Z</time>
      </trkpt>
      <trkpt lat="43.5206" lon="3.77623">
        <ele>136.5</ele>
        <time>2013-05-05T09:14:18Z</time>
      </trkpt>
      <trkpt lat="43.5206" lon="3.77612">
        <ele>136.5</ele>
        <time>2013-05-05T09:14:20Z</time>
      </trkpt>
      <trkpt lat="43.52063" lon="3.776">
        <ele>136</ele>
        <time>2013-05-05T09:14:22Z</time>
      </trkpt>
      <trkpt lat="43.52065" lon="3.77594">
        <ele>135.7</ele>
        <time>2013-05-05T09:14:23Z</time>
      </trkpt>
      <trkpt lat="43.52067" lon="3.77588">
        <ele>135.4</ele>
        <time>2013-05-05T09:14:24Z</time>
      </trkpt>
      <trkpt lat="43.52068" lon="3.77581">
        <ele>134.8</ele>
        <time>2013-05-05T09:14:25Z</time>
      </trkpt>
      <trkpt lat="43.5207" lon="3.77574">
        <ele>134.4</ele>
        <time>2013-05-05T09:14:26Z</time>
      </trkpt>
      <trkpt lat="43.52072" lon="3.77568">
        <ele>134</ele>
        <time>2013-05-05T09:14:27Z</time>
      </trkpt>
      <trkpt lat="43.52077" lon="3.77557">
        <ele>133.5</ele>
        <time>2013-05-05T09:14:29Z</time>
      </trkpt>
      <trkpt lat="43.52077" lon="3.77546">
        <ele>133.2</ele>
        <time>2013-05-05T09:14:31Z</time>
      </trkpt>
      <trkpt lat="43.52075" lon="3.7754">
        <ele>132.7</ele>
        <time>2013-05-05T09:14:32Z</time>
      </trkpt>
      <trkpt lat="43.52073" lon="3.77534">
        <ele>132.4</ele>
        <time>2013-05-05T09:14:33Z</time>
      </trkpt>
      <trkpt lat="43.52071" lon="3.77528">
        <ele>132.1</ele>
        <time>2013-05-05T09:14:34Z</time>
      </trkpt>
      <trkpt lat="43.52069" lon="3.77521">
        <ele>131.6</ele>
        <time>2013-05-05T09:14:35Z</time>
      </trkpt>
      <trkpt lat="43.52067" lon="3.77516">
        <ele>131.3</ele>
        <time>2013-05-05T09:14:36Z</time>
      </trkpt>
      <trkpt lat="43.52064" lon="3.77511">
        <ele>131</ele>
        <time>2013-05-05T09:14:37Z</time>
      </trkpt>
      <trkpt lat="43.5206" lon="3.77507">
        <ele>130.8</ele>
        <time>2013-05-05T09:14:38Z</time>
      </trkpt>
      <trkpt lat="43.52052" lon="3.77504">
        <ele>130.4</ele>
        <time>2013-05-05T09:14:40Z</time>
      </trkpt>
      <trkpt lat="43.52043" lon="3.77503">
        <ele>129.1</ele>
        <time>2013-05-05T09:14:42Z</time>
      </trkpt>
      <trkpt lat="43.52036" lon="3.77499">
        <ele>128.2</ele>
        <time>2013-05-05T09:14:44Z</time>
      </trkpt>
      <trkpt lat="43.52031" lon="3.7749">
        <ele>127.6</ele>
        <time>2013-05-05T09:14:47Z</time>
      </trkpt>
      <trkpt lat="43.52027" lon="3.77481">
        <ele>127.1</ele>
        <time>2013-05-05T09:14:49Z</time>
      </trkpt>
      <trkpt lat="43.52025" lon="3.77475">
        <ele>126.9</ele>
        <time>2013-05-05T09:14:50Z</time>
      </trkpt>
      <trkpt lat="43.52022" lon="3.7747">
        <ele>126.7</ele>
        <time>2013-05-05T09:14:51Z</time>
      </trkpt>
      <trkpt lat="43.52019" lon="3.77464">
        <ele>126.6</ele>
        <time>2013-05-05T09:14:52Z</time>
      </trkpt>
      <trkpt lat="43.52016" lon="3.7746">
        <ele>126.5</ele>
        <time>2013-05-05T09:14:53Z</time>
      </trkpt>
      <trkpt lat="43.52013" lon="3.77449">
        <ele>125.6</ele>
        <time>2013-05-05T09:14:55Z</time>
      </trkpt>
      <trkpt lat="43.52011" lon="3.77437">
        <ele>124.6</ele>
        <time>2013-05-05T09:14:57Z</time>
      </trkpt>
      <trkpt lat="43.52006" lon="3.77427">
        <ele>123.6</ele>
        <time>2013-05-05T09:14:59Z</time>
      </trkpt>
      <trkpt lat="43.51998" lon="3.77421">
        <ele>122.8</ele>
        <time>2013-05-05T09:15:01Z</time>
      </trkpt>
      <trkpt lat="43.51991" lon="3.77415">
        <ele>122.4</ele>
        <time>2013-05-05T09:15:03Z</time>
      </trkpt>
      <trkpt lat="43.51987" lon="3.77412">
        <ele>122</ele>
        <time>2013-05-05T09:15:04Z</time>
      </trkpt>
      <trkpt lat="43.51983" lon="3.77409">
        <ele>121.6</ele>
        <time>2013-05-05T09:15:05Z</time>
      </trkpt>
      <trkpt lat="43.51978" lon="3.77405">
        <ele>121.4</ele>
        <time>2013-05-05T09:15:06Z</time>
      </trkpt>
      <trkpt lat="43.51974" lon="3.77401">
        <ele>121</ele>
        <time>2013-05-05T09:15:07Z</time>
      </trkpt>
      <trkpt lat="43.5197" lon="3.77396">
        <ele>120.7</ele>
        <time>2013-05-05T09:15:08Z</time>
      </trkpt>
      <trkpt lat="43.51965" lon="3.77391">
        <ele>120.5</ele>
        <time>2013-05-05T09:15:09Z</time>
      </trkpt>
      <trkpt lat="43.51962" lon="3.77385">
        <ele>120</ele>
        <time>2013-05-05T09:15:10Z</time>
      </trkpt>
      <trkpt lat="43.51958" lon="3.77379">
        <ele>119.6</ele>
        <time>2013-05-05T09:15:11Z</time>
      </trkpt>
      <trkpt lat="43.51955" lon="3.77372">
        <ele>119.3</ele>
        <time>2013-05-05T09:15:12Z</time>
      </trkpt>
      <trkpt lat="43.51951" lon="3.77366">
        <ele>119.2</ele>
        <time>2013-05-05T09:15:13Z</time>
      </trkpt>
      <trkpt lat="43.51947" lon="3.7736">
        <ele>119.1</ele>
        <time>2013-05-05T09:15:14Z</time>
      </trkpt>
      <trkpt lat="43.51942" lon="3.77355">
        <ele>119</ele>
        <time>2013-05-05T09:15:15Z</time>
      </trkpt>
      <trkpt lat="43.51938" lon="3.7735">
        <ele>118.4</ele>
        <time>2013-05-05T09:15:16Z</time>
      </trkpt>
      <trkpt lat="43.51933" lon="3.77346">
        <ele>118</ele>
        <time>2013-05-05T09:15:17Z</time>
      </trkpt>
      <trkpt lat="43.51929" lon="3.77341">
        <ele>117.7</ele>
        <time>2013-05-05T09:15:18Z</time>
      </trkpt>
      <trkpt lat="43.51925" lon="3.77337">
        <ele>117.6</ele>
        <time>2013-05-05T09:15:19Z</time>
      </trkpt>
      <trkpt lat="43.51921" lon="3.77331">
        <ele>117.5</ele>
        <time>2013-05-05T09:15:20Z</time>
      </trkpt>
      <trkpt lat="43.51917" lon="3.77326">
        <ele>117.5</ele>
        <time>2013-05-05T09:15:21Z</time>
      </trkpt>
      <trkpt lat="43.51913" lon="3.77321">
        <ele>117.5</ele>
        <time>2013-05-05T09:15:22Z</time>
      </trkpt>
      <trkpt lat="43.51908" lon="3.77316">
        <ele>117.3</ele>
        <time>2013-05-05T09:15:23Z</time>
      </trkpt>
      <trkpt lat="43.51904" lon="3.77312">
        <ele>117.2</ele>
        <time>2013-05-05T09:15:24Z</time>
      </trkpt>
      <trkpt lat="43.51899" lon="3.77307">
        <ele>117.1</ele>
        <time>2013-05-05T09:15:25Z</time>
      </trkpt>
      <trkpt lat="43.51894" lon="3.77302">
        <ele>116.7</ele>
        <time>2013-05-05T09:15:26Z</time>
      </trkpt>
      <trkpt lat="43.5189" lon="3.77296">
        <ele>116.4</ele>
        <time>2013-05-05T09:15:27Z</time>
      </trkpt>
      <trkpt lat="43.51885" lon="3.77291">
        <ele>116.2</ele>
        <time>2013-05-05T09:15:28Z</time>
      </trkpt>
      <trkpt lat="43.51881" lon="3.77285">
        <ele>116.4</ele>
        <time>2013-05-05T09:15:29Z</time>
      </trkpt>
      <trkpt lat="43.51877" lon="3.7728">
        <ele>116.6</ele>
        <time>2013-05-05T09:15:30Z</time>
      </trkpt>
      <trkpt lat="43.51873" lon="3.77276">
        <ele>116.7</ele>
        <time>2013-05-05T09:15:31Z</time>
      </trkpt>
      <trkpt lat="43.51868" lon="3.77273">
        <ele>116.9</ele>
        <time>2013-05-05T09:15:32Z</time>
      </trkpt>
      <trkpt lat="43.51864" lon="3.7727">
        <ele>117</ele>
        <time>2013-05-05T09:15:33Z</time>
      </trkpt>
      <trkpt lat="43.51859" lon="3.77266">
        <ele>117.1</ele>
        <time>2013-05-05T09:15:34Z</time>
      </trkpt>
      <trkpt lat="43.51855" lon="3.77263">
        <ele>117.2</ele>
        <time>2013-05-05T09:15:35Z</time>
      </trkpt>
      <trkpt lat="43.5185" lon="3.77261">
        <ele>117.4</ele>
        <time>2013-05-05T09:15:36Z</time>
      </trkpt>
      <trkpt lat="43.51845" lon="3.77259">
        <ele>117.5</ele>
        <time>2013-05-05T09:15:37Z</time>
      </trkpt>
      <trkpt lat="43.5184" lon="3.77257">
        <ele>117.7</ele>
        <time>2013-05-05T09:15:38Z</time>
      </trkpt>
      <trkpt lat="43.51833" lon="3.77254">
        <ele>117.6</ele>
        <time>2013-05-05T09:15:40Z</time>
      </trkpt>
      <trkpt lat="43.51828" lon="3.77243">
        <ele>117.3</ele>
        <time>2013-05-05T09:16:30Z</time>
      </trkpt>
      <trkpt lat="43.51827" lon="3.77242">
        <ele>117.4</ele>
        <time>2013-05-05T09:16:31Z</time>
      </trkpt>
      <trkpt lat="43.51818" lon="3.77225">
        <ele>117.9</ele>
        <time>2013-05-05T09:16:38Z</time>
      </trkpt>
      <trkpt lat="43.51813" lon="3.77217">
        <ele>118.2</ele>
        <time>2013-05-05T09:16:41Z</time>
      </trkpt>
      <trkpt lat="43.51813" lon="3.77204">
        <ele>119.4</ele>
        <time>2013-05-05T09:16:57Z</time>
      </trkpt>
      <trkpt lat="43.51812" lon="3.77193">
        <ele>120.2</ele>
        <time>2013-05-05T09:17:06Z</time>
      </trkpt>
      <trkpt lat="43.51815" lon="3.77181">
        <ele>120.5</ele>
        <time>2013-05-05T09:17:10Z</time>
      </trkpt>
      <trkpt lat="43.51817" lon="3.77171">
        <ele>121.8</ele>
        <time>2013-05-05T09:17:13Z</time>
      </trkpt>
      <trkpt lat="43.51818" lon="3.77163">
        <ele>121.6</ele>
        <time>2013-05-05T09:17:15Z</time>
      </trkpt>
      <trkpt lat="43.5182" lon="3.77154">
        <ele>121.4</ele>
        <time>2013-05-05T09:17:17Z</time>
      </trkpt>
      <trkpt lat="43.51825" lon="3.77146">
        <ele>121.7</ele>
        <time>2013-05-05T09:17:20Z</time>
      </trkpt>
      <trkpt lat="43.51831" lon="3.77138">
        <ele>123.1</ele>
        <time>2013-05-05T09:17:24Z</time>
      </trkpt>
      <trkpt lat="43.51826" lon="3.77132">
        <ele>123</ele>
        <time>2013-05-05T09:17:27Z</time>
      </trkpt>
      <trkpt lat="43.51818" lon="3.77128">
        <ele>122.5</ele>
        <time>2013-05-05T09:17:30Z</time>
      </trkpt>
      <trkpt lat="43.51809" lon="3.77127">
        <ele>122</ele>
        <time>2013-05-05T09:17:33Z</time>
      </trkpt>
      <trkpt lat="43.51806" lon="3.77127">
        <ele>122.2</ele>
        <time>2013-05-05T09:17:34Z</time>
      </trkpt>
      <trkpt lat="43.51792" lon="3.77126">
        <ele>121.8</ele>
        <time>2013-05-05T09:17:39Z</time>
      </trkpt>
      <trkpt lat="43.51789" lon="3.77116">
        <ele>120.9</ele>
        <time>2013-05-05T09:17:42Z</time>
      </trkpt>
      <trkpt lat="43.51791" lon="3.77108">
        <ele>120.5</ele>
        <time>2013-05-05T09:17:44Z</time>
      </trkpt>
      <trkpt lat="43.51795" lon="3.77098">
        <ele>120.4</ele>
        <time>2013-05-05T09:17:47Z</time>
      </trkpt>
      <trkpt lat="43.518" lon="3.77089">
        <ele>120</ele>
        <time>2013-05-05T09:17:50Z</time>
      </trkpt>
      <trkpt lat="43.51802" lon="3.7708">
        <ele>119.4</ele>
        <time>2013-05-05T09:17:52Z</time>
      </trkpt>
      <trkpt lat="43.51803" lon="3.77069">
        <ele>119.9</ele>
        <time>2013-05-05T09:17:54Z</time>
      </trkpt>
      <trkpt lat="43.51804" lon="3.77057">
        <ele>120</ele>
        <time>2013-05-05T09:17:56Z</time>
      </trkpt>
      <trkpt lat="43.51804" lon="3.77045">
        <ele>120</ele>
        <time>2013-05-05T09:17:58Z</time>
      </trkpt>
      <trkpt lat="43.51807" lon="3.77033">
        <ele>119.8</ele>
        <time>2013-05-05T09:18:00Z</time>
      </trkpt>
      <trkpt lat="43.51808" lon="3.77021">
        <ele>119.2</ele>
        <time>2013-05-05T09:18:02Z</time>
      </trkpt>
      <trkpt lat="43.51809" lon="3.77015">
        <ele>118.8</ele>
        <time>2013-05-05T09:18:03Z</time>
      </trkpt>
      <trkpt lat="43.51809" lon="3.77008">
        <ele>118.6</ele>
        <time>2013-05-05T09:18:04Z</time>
      </trkpt>
      <trkpt lat="43.5181" lon="3.77002">
        <ele>118.3</ele>
        <time>2013-05-05T09:18:05Z</time>
      </trkpt>
      <trkpt lat="43.5181" lon="3.76995">
        <ele>118</ele>
        <time>2013-05-05T09:18:06Z</time>
      </trkpt>
      <trkpt lat="43.51811" lon="3.76988">
        <ele>117.7</ele>
        <time>2013-05-05T09:18:07Z</time>
      </trkpt>
      <trkpt lat="43.51813" lon="3.76982">
        <ele>117.4</ele>
        <time>2013-05-05T09:18:08Z</time>
      </trkpt>
      <trkpt lat="43.51815" lon="3.76975">
        <ele>117.6</ele>
        <time>2013-05-05T09:18:09Z</time>
      </trkpt>
      <trkpt lat="43.51817" lon="3.76964">
        <ele>117.7</ele>
        <time>2013-05-05T09:18:11Z</time>
      </trkpt>
      <trkpt lat="43.51817" lon="3.76953">
        <ele>115.4</ele>
        <time>2013-05-05T09:18:32Z</time>
      </trkpt>
      <trkpt lat="43.51814" lon="3.76944">
        <ele>114.9</ele>
        <time>2013-05-05T09:18:36Z</time>
      </trkpt>
      <trkpt lat="43.51812" lon="3.76942">
        <ele>115.1</ele>
        <time>2013-05-05T09:18:37Z</time>
      </trkpt>
      <trkpt lat="43.51801" lon="3.7693">
        <ele>114.8</ele>
        <time>2013-05-05T09:18:42Z</time>
      </trkpt>
      <trkpt lat="43.51801" lon="3.76922">
        <ele>114.9</ele>
        <time>2013-05-05T09:18:44Z</time>
      </trkpt>
      <trkpt lat="43.51802" lon="3.76912">
        <ele>115.3</ele>
        <time>2013-05-05T09:18:46Z</time>
      </trkpt>
      <trkpt lat="43.51804" lon="3.76902">
        <ele>115.5</ele>
        <time>2013-05-05T09:18:48Z</time>
      </trkpt>
      <trkpt lat="43.51806" lon="3.76891">
        <ele>115.8</ele>
        <time>2013-05-05T09:18:50Z</time>
      </trkpt>
      <trkpt lat="43.51809" lon="3.76882">
        <ele>116</ele>
        <time>2013-05-05T09:18:52Z</time>
      </trkpt>
      <trkpt lat="43.5181" lon="3.76873">
        <ele>116.3</ele>
        <time>2013-05-05T09:18:54Z</time>
      </trkpt>
      <trkpt lat="43.51814" lon="3.76864">
        <ele>116.1</ele>
        <time>2013-05-05T09:18:57Z</time>
      </trkpt>
      <trkpt lat="43.51818" lon="3.76856">
        <ele>115.8</ele>
        <time>2013-05-05T09:19:00Z</time>
      </trkpt>
      <trkpt lat="43.51819" lon="3.76847">
        <ele>115.9</ele>
        <time>2013-05-05T09:19:03Z</time>
      </trkpt>
      <trkpt lat="43.51822" lon="3.76841">
        <ele>116</ele>
        <time>2013-05-05T09:19:05Z</time>
      </trkpt>
      <trkpt lat="43.51828" lon="3.76833">
        <ele>115.9</ele>
        <time>2013-05-05T09:19:07Z</time>
      </trkpt>
      <trkpt lat="43.51829" lon="3.76823">
        <ele>115.9</ele>
        <time>2013-05-05T09:19:09Z</time>
      </trkpt>
      <trkpt lat="43.5183" lon="3.76813">
        <ele>116.1</ele>
        <time>2013-05-05T09:19:11Z</time>
      </trkpt>
      <trkpt lat="43.5183" lon="3.76804">
        <ele>116</ele>
        <time>2013-05-05T09:19:13Z</time>
      </trkpt>
      <trkpt lat="43.5183" lon="3.76793">
        <ele>114.2</ele>
        <time>2013-05-05T09:20:11Z</time>
      </trkpt>
      <trkpt lat="43.51831" lon="3.76791">
        <ele>114.2</ele>
        <time>2013-05-05T09:20:12Z</time>
      </trkpt>
      <trkpt lat="43.51837" lon="3.76776">
        <ele>113.8</ele>
        <time>2013-05-05T09:20:16Z</time>
      </trkpt>
      <trkpt lat="43.51838" lon="3.7677">
        <ele>113.5</ele>
        <time>2013-05-05T09:20:17Z</time>
      </trkpt>
      <trkpt lat="43.5184" lon="3.76763">
        <ele>113.3</ele>
        <time>2013-05-05T09:20:18Z</time>
      </trkpt>
      <trkpt lat="43.51842" lon="3.76757">
        <ele>113.1</ele>
        <time>2013-05-05T09:20:19Z</time>
      </trkpt>
      <trkpt lat="43.51844" lon="3.76751">
        <ele>112.7</ele>
        <time>2013-05-05T09:20:20Z</time>
      </trkpt>
      <trkpt lat="43.51846" lon="3.76745">
        <ele>112.4</ele>
        <time>2013-05-05T09:20:21Z</time>
      </trkpt>
      <trkpt lat="43.51848" lon="3.76739">
        <ele>112.2</ele>
        <time>2013-05-05T09:20:22Z</time>
      </trkpt>
      <trkpt lat="43.51854" lon="3.7673">
        <ele>111.5</ele>
        <time>2013-05-05T09:20:24Z</time>
      </trkpt>
      <trkpt lat="43.51851" lon="3.76719">
        <ele>109.8</ele>
        <time>2013-05-05T09:20:27Z</time>
      </trkpt>
      <trkpt lat="43.51845" lon="3.76715">
        <ele>108.3</ele>
        <time>2013-05-05T09:20:29Z</time>
      </trkpt>
      <trkpt lat="43.51841" lon="3.76708">
        <ele>106.9</ele>
        <time>2013-05-05T09:20:31Z</time>
      </trkpt>
      <trkpt lat="43.51839" lon="3.767">
        <ele>105.9</ele>
        <time>2013-05-05T09:20:33Z</time>
      </trkpt>
      <trkpt lat="43.51837" lon="3.76691">
        <ele>105.2</ele>
        <time>2013-05-05T09:20:35Z</time>
      </trkpt>
      <trkpt lat="43.51833" lon="3.76684">
        <ele>104.5</ele>
        <time>2013-05-05T09:20:37Z</time>
      </trkpt>
      <trkpt lat="43.51827" lon="3.7668">
        <ele>103.3</ele>
        <time>2013-05-05T09:20:39Z</time>
      </trkpt>
      <trkpt lat="43.51819" lon="3.76681">
        <ele>102</ele>
        <time>2013-05-05T09:20:41Z</time>
      </trkpt>
      <trkpt lat="43.51814" lon="3.76687">
        <ele>100.4</ele>
        <time>2013-05-05T09:20:43Z</time>
      </trkpt>
      <trkpt lat="43.5181" lon="3.76694">
        <ele>99.8</ele>
        <time>2013-05-05T09:20:45Z</time>
      </trkpt>
      <trkpt lat="43.51806" lon="3.76702">
        <ele>99.7</ele>
        <time>2013-05-05T09:20:47Z</time>
      </trkpt>
      <trkpt lat="43.51802" lon="3.76711">
        <ele>99.9</ele>
        <time>2013-05-05T09:20:49Z</time>
      </trkpt>
      <trkpt lat="43.51797" lon="3.7672">
        <ele>100</ele>
        <time>2013-05-05T09:20:51Z</time>
      </trkpt>
      <trkpt lat="43.51791" lon="3.76726">
        <ele>99.9</ele>
        <time>2013-05-05T09:20:53Z</time>
      </trkpt>
      <trkpt lat="43.51785" lon="3.76734">
        <ele>100.4</ele>
        <time>2013-05-05T09:20:55Z</time>
      </trkpt>
      <trkpt lat="43.51781" lon="3.76738">
        <ele>100.8</ele>
        <time>2013-05-05T09:20:56Z</time>
      </trkpt>
      <trkpt lat="43.51778" lon="3.76742">
        <ele>101</ele>
        <time>2013-05-05T09:20:57Z</time>
      </trkpt>
      <trkpt lat="43.51774" lon="3.76747">
        <ele>100.9</ele>
        <time>2013-05-05T09:20:58Z</time>
      </trkpt>
      <trkpt lat="43.51771" lon="3.76752">
        <ele>100.8</ele>
        <time>2013-05-05T09:20:59Z</time>
      </trkpt>
      <trkpt lat="43.51767" lon="3.76757">
        <ele>100.8</ele>
        <time>2013-05-05T09:21:00Z</time>
      </trkpt>
      <trkpt lat="43.51762" lon="3.76761">
        <ele>100.8</ele>
        <time>2013-05-05T09:21:01Z</time>
      </trkpt>
      <trkpt lat="43.51757" lon="3.76766">
        <ele>100.8</ele>
        <time>2013-05-05T09:21:02Z</time>
      </trkpt>
      <trkpt lat="43.51752" lon="3.76771">
        <ele>100.8</ele>
        <time>2013-05-05T09:21:03Z</time>
      </trkpt>
      <trkpt lat="43.51748" lon="3.76776">
        <ele>100.5</ele>
        <time>2013-05-05T09:21:04Z</time>
      </trkpt>
      <trkpt lat="43.51743" lon="3.76782">
        <ele>100.3</ele>
        <time>2013-05-05T09:21:05Z</time>
      </trkpt>
      <trkpt lat="43.51739" lon="3.76788">
        <ele>100.1</ele>
        <time>2013-05-05T09:21:06Z</time>
      </trkpt>
      <trkpt lat="43.51735" lon="3.76795">
        <ele>99.8</ele>
        <time>2013-05-05T09:21:07Z</time>
      </trkpt>
      <trkpt lat="43.5173" lon="3.76803">
        <ele>99.6</ele>
        <time>2013-05-05T09:21:08Z</time>
      </trkpt>
      <trkpt lat="43.51725" lon="3.76811">
        <ele>99.5</ele>
        <time>2013-05-05T09:21:09Z</time>
      </trkpt>
      <trkpt lat="43.5172" lon="3.7682">
        <ele>99.4</ele>
        <time>2013-05-05T09:21:10Z</time>
      </trkpt>
      <trkpt lat="43.51715" lon="3.76829">
        <ele>98.8</ele>
        <time>2013-05-05T09:21:11Z</time>
      </trkpt>
      <trkpt lat="43.5171" lon="3.76837">
        <ele>98.4</ele>
        <time>2013-05-05T09:21:12Z</time>
      </trkpt>
      <trkpt lat="43.51705" lon="3.76846">
        <ele>98.1</ele>
        <time>2013-05-05T09:21:13Z</time>
      </trkpt>
      <trkpt lat="43.51699" lon="3.76856">
        <ele>97</ele>
        <time>2013-05-05T09:21:14Z</time>
      </trkpt>
      <trkpt lat="43.51694" lon="3.76864">
        <ele>96.1</ele>
        <time>2013-05-05T09:21:15Z</time>
      </trkpt>
      <trkpt lat="43.51688" lon="3.76873">
        <ele>95.5</ele>
        <time>2013-05-05T09:21:16Z</time>
      </trkpt>
      <trkpt lat="43.51682" lon="3.7688">
        <ele>95.1</ele>
        <time>2013-05-05T09:21:17Z</time>
      </trkpt>
      <trkpt lat="43.51675" lon="3.76887">
        <ele>94.8</ele>
        <time>2013-05-05T09:21:18Z</time>
      </trkpt>
      <trkpt lat="43.51668" lon="3.76894">
        <ele>94.5</ele>
        <time>2013-05-05T09:21:19Z</time>
      </trkpt>
      <trkpt lat="43.51663" lon="3.76903">
        <ele>93.3</ele>
        <time>2013-05-05T09:21:20Z</time>
      </trkpt>
      <trkpt lat="43.51659" lon="3.76913">
        <ele>92.5</ele>
        <time>2013-05-05T09:21:21Z</time>
      </trkpt>
      <trkpt lat="43.51656" lon="3.76923">
        <ele>91.8</ele>
        <time>2013-05-05T09:21:22Z</time>
      </trkpt>
      <trkpt lat="43.51653" lon="3.76932">
        <ele>91.2</ele>
        <time>2013-05-05T09:21:23Z</time>
      </trkpt>
      <trkpt lat="43.51648" lon="3.76939">
        <ele>90.7</ele>
        <time>2013-05-05T09:21:24Z</time>
      </trkpt>
      <trkpt lat="43.51642" lon="3.76944">
        <ele>90.3</ele>
        <time>2013-05-05T09:21:25Z</time>
      </trkpt>
      <trkpt lat="43.51636" lon="3.76949">
        <ele>90</ele>
        <time>2013-05-05T09:21:26Z</time>
      </trkpt>
      <trkpt lat="43.5163" lon="3.76953">
        <ele>90.3</ele>
        <time>2013-05-05T09:21:27Z</time>
      </trkpt>
      <trkpt lat="43.51624" lon="3.76959">
        <ele>90.6</ele>
        <time>2013-05-05T09:21:28Z</time>
      </trkpt>
      <trkpt lat="43.5162" lon="3.76967">
        <ele>90.8</ele>
        <time>2013-05-05T09:21:29Z</time>
      </trkpt>
      <trkpt lat="43.51616" lon="3.76974">
        <ele>89.9</ele>
        <time>2013-05-05T09:21:30Z</time>
      </trkpt>
      <trkpt lat="43.51611" lon="3.76981">
        <ele>89.2</ele>
        <time>2013-05-05T09:21:31Z</time>
      </trkpt>
      <trkpt lat="43.51605" lon="3.76986">
        <ele>88.7</ele>
        <time>2013-05-05T09:21:32Z</time>
      </trkpt>
      <trkpt lat="43.516" lon="3.7699">
        <ele>88.4</ele>
        <time>2013-05-05T09:21:33Z</time>
      </trkpt>
      <trkpt lat="43.51592" lon="3.76994">
        <ele>88</ele>
        <time>2013-05-05T09:21:35Z</time>
      </trkpt>
      <trkpt lat="43.51585" lon="3.76987">
        <ele>85</ele>
        <time>2013-05-05T09:22:37Z</time>
      </trkpt>
      <trkpt lat="43.51585" lon="3.76985">
        <ele>85.1</ele>
        <time>2013-05-05T09:22:38Z</time>
      </trkpt>
      <trkpt lat="43.51578" lon="3.76967">
        <ele>84.7</ele>
        <time>2013-05-05T09:22:43Z</time>
      </trkpt>
      <trkpt lat="43.51574" lon="3.76958">
        <ele>85.4</ele>
        <time>2013-05-05T09:22:45Z</time>
      </trkpt>
      <trkpt lat="43.5157" lon="3.76949">
        <ele>85.6</ele>
        <time>2013-05-05T09:22:47Z</time>
      </trkpt>
      <trkpt lat="43.51565" lon="3.7694">
        <ele>85.7</ele>
        <time>2013-05-05T09:22:49Z</time>
      </trkpt>
      <trkpt lat="43.51559" lon="3.7693">
        <ele>85.2</ele>
        <time>2013-05-05T09:22:51Z</time>
      </trkpt>
      <trkpt lat="43.51557" lon="3.76924">
        <ele>85.1</ele>
        <time>2013-05-05T09:22:52Z</time>
      </trkpt>
      <trkpt lat="43.51554" lon="3.76919">
        <ele>85.2</ele>
        <time>2013-05-05T09:22:53Z</time>
      </trkpt>
      <trkpt lat="43.51551" lon="3.76914">
        <ele>85.3</ele>
        <time>2013-05-05T09:22:54Z</time>
      </trkpt>
      <trkpt lat="43.51548" lon="3.76908">
        <ele>85.3</ele>
        <time>2013-05-05T09:22:55Z</time>
      </trkpt>
      <trkpt lat="43.51545" lon="3.76903">
        <ele>85.5</ele>
        <time>2013-05-05T09:22:56Z</time>
      </trkpt>
      <trkpt lat="43.51543" lon="3.76897">
        <ele>85.6</ele>
        <time>2013-05-05T09:22:57Z</time>
      </trkpt>
      <trkpt lat="43.5154" lon="3.76891">
        <ele>85.7</ele>
        <time>2013-05-05T09:22:58Z</time>
      </trkpt>
      <trkpt lat="43.51538" lon="3.76885">
        <ele>85.7</ele>
        <time>2013-05-05T09:22:59Z</time>
      </trkpt>
      <trkpt lat="43.51535" lon="3.7688">
        <ele>85.8</ele>
        <time>2013-05-05T09:23:00Z</time>
      </trkpt>
      <trkpt lat="43.51533" lon="3.76874">
        <ele>85.8</ele>
        <time>2013-05-05T09:23:01Z</time>
      </trkpt>
      <trkpt lat="43.51531" lon="3.76867">
        <ele>85.6</ele>
        <time>2013-05-05T09:23:02Z</time>
      </trkpt>
      <trkpt lat="43.5153" lon="3.76861">
        <ele>85.5</ele>
        <time>2013-05-05T09:23:03Z</time>
      </trkpt>
      <trkpt lat="43.51528" lon="3.76855">
        <ele>85.4</ele>
        <time>2013-05-05T09:23:04Z</time>
      </trkpt>
      <trkpt lat="43.51527" lon="3.76849">
        <ele>85.3</ele>
        <time>2013-05-05T09:23:05Z</time>
      </trkpt>
      <trkpt lat="43.51526" lon="3.76842">
        <ele>85.6</ele>
        <time>2013-05-05T09:23:06Z</time>
      </trkpt>
      <trkpt lat="43.51525" lon="3.76835">
        <ele>85.8</ele>
        <time>2013-05-05T09:23:07Z</time>
      </trkpt>
      <trkpt lat="43.51524" lon="3.76828">
        <ele>86</ele>
        <time>2013-05-05T09:23:08Z</time>
      </trkpt>
      <trkpt lat="43.51523" lon="3.76821">
        <ele>85.8</ele>
        <time>2013-05-05T09:23:09Z</time>
      </trkpt>
      <trkpt lat="43.51522" lon="3.76814">
        <ele>85.6</ele>
        <time>2013-05-05T09:23:10Z</time>
      </trkpt>
      <trkpt lat="43.51521" lon="3.76807">
        <ele>85.5</ele>
        <time>2013-05-05T09:23:11Z</time>
      </trkpt>
      <trkpt lat="43.5152" lon="3.76799">
        <ele>85.8</ele>
        <time>2013-05-05T09:23:12Z</time>
      </trkpt>
      <trkpt lat="43.51519" lon="3.76792">
        <ele>86</ele>
        <time>2013-05-05T09:23:13Z</time>
      </trkpt>
      <trkpt lat="43.51517" lon="3.76785">
        <ele>86.1</ele>
        <time>2013-05-05T09:23:14Z</time>
      </trkpt>
      <trkpt lat="43.51516" lon="3.76778">
        <ele>86</ele>
        <time>2013-05-05T09:23:15Z</time>
      </trkpt>
      <trkpt lat="43.51514" lon="3.76771">
        <ele>85.8</ele>
        <time>2013-05-05T09:23:16Z</time>
      </trkpt>
      <trkpt lat="43.51512" lon="3.76764">
        <ele>85.7</ele>
        <time>2013-05-05T09:23:17Z</time>
      </trkpt>
      <trkpt lat="43.5151" lon="3.76757">
        <ele>86.4</ele>
        <time>2013-05-05T09:23:18Z</time>
      </trkpt>
      <trkpt lat="43.51508" lon="3.7675">
        <ele>87</ele>
        <time>2013-05-05T09:23:19Z</time>
      </trkpt>
      <trkpt lat="43.51506" lon="3.76744">
        <ele>87.4</ele>
        <time>2013-05-05T09:23:20Z</time>
      </trkpt>
      <trkpt lat="43.51503" lon="3.76737">
        <ele>87.6</ele>
        <time>2013-05-05T09:23:21Z</time>
      </trkpt>
      <trkpt lat="43.51501" lon="3.76731">
        <ele>87.4</ele>
        <time>2013-05-05T09:23:22Z</time>
      </trkpt>
      <trkpt lat="43.51499" lon="3.76724">
        <ele>87.2</ele>
        <time>2013-05-05T09:23:23Z</time>
      </trkpt>
      <trkpt lat="43.51498" lon="3.76718">
        <ele>87</ele>
        <time>2013-05-05T09:23:24Z</time>
      </trkpt>
      <trkpt lat="43.51496" lon="3.76711">
        <ele>87.2</ele>
        <time>2013-05-05T09:23:25Z</time>
      </trkpt>
      <trkpt lat="43.51494" lon="3.76706">
        <ele>87.3</ele>
        <time>2013-05-05T09:23:26Z</time>
      </trkpt>
      <trkpt lat="43.51492" lon="3.767">
        <ele>87.4</ele>
        <time>2013-05-05T09:23:27Z</time>
      </trkpt>
      <trkpt lat="43.51489" lon="3.76695">
        <ele>87.6</ele>
        <time>2013-05-05T09:23:28Z</time>
      </trkpt>
      <trkpt lat="43.51487" lon="3.76689">
        <ele>87.8</ele>
        <time>2013-05-05T09:23:29Z</time>
      </trkpt>
      <trkpt lat="43.51485" lon="3.76683">
        <ele>87.9</ele>
        <time>2013-05-05T09:23:30Z</time>
      </trkpt>
      <trkpt lat="43.51483" lon="3.76677">
        <ele>87.5</ele>
        <time>2013-05-05T09:23:31Z</time>
      </trkpt>
      <trkpt lat="43.51481" lon="3.7667">
        <ele>87.3</ele>
        <time>2013-05-05T09:23:32Z</time>
      </trkpt>
      <trkpt lat="43.51479" lon="3.76665">
        <ele>87.1</ele>
        <time>2013-05-05T09:23:33Z</time>
      </trkpt>
      <trkpt lat="43.51477" lon="3.76659">
        <ele>87.4</ele>
        <time>2013-05-05T09:23:34Z</time>
      </trkpt>
      <trkpt lat="43.51473" lon="3.76648">
        <ele>87.8</ele>
        <time>2013-05-05T09:23:36Z</time>
      </trkpt>
      <trkpt lat="43.51469" lon="3.76637">
        <ele>88.2</ele>
        <time>2013-05-05T09:23:38Z</time>
      </trkpt>
      <trkpt lat="43.51466" lon="3.76633">
        <ele>88.4</ele>
        <time>2013-05-05T09:23:39Z</time>
      </trkpt>
      <trkpt lat="43.5146" lon="3.76623">
        <ele>88.8</ele>
        <time>2013-05-05T09:23:41Z</time>
      </trkpt>
      <trkpt lat="43.51457" lon="3.76618">
        <ele>89</ele>
        <time>2013-05-05T09:23:42Z</time>
      </trkpt>
      <trkpt lat="43.51454" lon="3.76613">
        <ele>89.2</ele>
        <time>2013-05-05T09:23:43Z</time>
      </trkpt>
      <trkpt lat="43.51451" lon="3.76608">
        <ele>89.2</ele>
        <time>2013-05-05T09:23:44Z</time>
      </trkpt>
      <trkpt lat="43.51448" lon="3.76604">
        <ele>89.1</ele>
        <time>2013-05-05T09:23:45Z</time>
      </trkpt>
      <trkpt lat="43.51445" lon="3.76599">
        <ele>89.1</ele>
        <time>2013-05-05T09:23:46Z</time>
      </trkpt>
      <trkpt lat="43.51442" lon="3.76594">
        <ele>88.7</ele>
        <time>2013-05-05T09:23:47Z</time>
      </trkpt>
      <trkpt lat="43.51438" lon="3.7659">
        <ele>88.5</ele>
        <time>2013-05-05T09:23:48Z</time>
      </trkpt>
      <trkpt lat="43.51435" lon="3.76586">
        <ele>88.2</ele>
        <time>2013-05-05T09:23:49Z</time>
      </trkpt>
      <trkpt lat="43.51431" lon="3.76582">
        <ele>89</ele>
        <time>2013-05-05T09:23:50Z</time>
      </trkpt>
      <trkpt lat="43.51428" lon="3.76578">
        <ele>89.5</ele>
        <time>2013-05-05T09:23:51Z</time>
      </trkpt>
      <trkpt lat="43.51424" lon="3.76574">
        <ele>89.9</ele>
        <time>2013-05-05T09:23:52Z</time>
      </trkpt>
      <trkpt lat="43.5142" lon="3.76569">
        <ele>89.9</ele>
        <time>2013-05-05T09:23:53Z</time>
      </trkpt>
      <trkpt lat="43.51417" lon="3.76565">
        <ele>89.9</ele>
        <time>2013-05-05T09:23:54Z</time>
      </trkpt>
      <trkpt lat="43.51413" lon="3.76561">
        <ele>89.9</ele>
        <time>2013-05-05T09:23:55Z</time>
      </trkpt>
      <trkpt lat="43.51409" lon="3.76557">
        <ele>89.9</ele>
        <time>2013-05-05T09:23:56Z</time>
      </trkpt>
      <trkpt lat="43.51406" lon="3.76553">
        <ele>90.1</ele>
        <time>2013-05-05T09:23:57Z</time>
      </trkpt>
      <trkpt lat="43.51402" lon="3.76549">
        <ele>90.2</ele>
        <time>2013-05-05T09:23:58Z</time>
      </trkpt>
      <trkpt lat="43.51398" lon="3.76545">
        <ele>90.3</ele>
        <time>2013-05-05T09:23:59Z</time>
      </trkpt>
      <trkpt lat="43.51395" lon="3.76541">
        <ele>90.3</ele>
        <time>2013-05-05T09:24:00Z</time>
      </trkpt>
      <trkpt lat="43.51391" lon="3.76537">
        <ele>90.4</ele>
        <time>2013-05-05T09:24:01Z</time>
      </trkpt>
      <trkpt lat="43.51387" lon="3.76533">
        <ele>90.4</ele>
        <time>2013-05-05T09:24:02Z</time>
      </trkpt>
      <trkpt lat="43.5138" lon="3.76526">
        <ele>90.8</ele>
        <time>2013-05-05T09:24:04Z</time>
      </trkpt>
      <trkpt lat="43.51374" lon="3.7652">
        <ele>91.5</ele>
        <time>2013-05-05T09:24:06Z</time>
      </trkpt>
      <trkpt lat="43.51367" lon="3.76515">
        <ele>92.3</ele>
        <time>2013-05-05T09:24:09Z</time>
      </trkpt>
      <trkpt lat="43.51359" lon="3.76509">
        <ele>92</ele>
        <time>2013-05-05T09:24:13Z</time>
      </trkpt>
      <trkpt lat="43.51352" lon="3.76502">
        <ele>91.9</ele>
        <time>2013-05-05T09:24:18Z</time>
      </trkpt>
      <trkpt lat="43.51347" lon="3.76497">
        <ele>92.1</ele>
        <time>2013-05-05T09:24:21Z</time>
      </trkpt>
      <trkpt lat="43.51342" lon="3.76492">
        <ele>92.1</ele>
        <time>2013-05-05T09:24:23Z</time>
      </trkpt>
      <trkpt lat="43.51335" lon="3.76487">
        <ele>91.9</ele>
        <time>2013-05-05T09:24:25Z</time>
      </trkpt>
      <trkpt lat="43.51328" lon="3.76481">
        <ele>91.5</ele>
        <time>2013-05-05T09:24:27Z</time>
      </trkpt>
      <trkpt lat="43.51321" lon="3.76476">
        <ele>91.5</ele>
        <time>2013-05-05T09:24:29Z</time>
      </trkpt>
      <trkpt lat="43.51313" lon="3.76471">
        <ele>91.6</ele>
        <time>2013-05-05T09:24:31Z</time>
      </trkpt>
      <trkpt lat="43.51306" lon="3.76467">
        <ele>91.6</ele>
        <time>2013-05-05T09:24:33Z</time>
      </trkpt>
      <trkpt lat="43.51298" lon="3.76464">
        <ele>91.9</ele>
        <time>2013-05-05T09:24:35Z</time>
      </trkpt>
      <trkpt lat="43.51291" lon="3.76458">
        <ele>92.2</ele>
        <time>2013-05-05T09:24:37Z</time>
      </trkpt>
      <trkpt lat="43.51284" lon="3.76453">
        <ele>92.2</ele>
        <time>2013-05-05T09:24:39Z</time>
      </trkpt>
      <trkpt lat="43.5128" lon="3.76451">
        <ele>92.1</ele>
        <time>2013-05-05T09:24:40Z</time>
      </trkpt>
      <trkpt lat="43.51271" lon="3.76442">
        <ele>92.1</ele>
        <time>2013-05-05T09:24:43Z</time>
      </trkpt>
      <trkpt lat="43.51264" lon="3.76433">
        <ele>92.3</ele>
        <time>2013-05-05T09:24:45Z</time>
      </trkpt>
      <trkpt lat="43.51257" lon="3.76426">
        <ele>92.7</ele>
        <time>2013-05-05T09:24:47Z</time>
      </trkpt>
      <trkpt lat="43.51249" lon="3.76421">
        <ele>92.9</ele>
        <time>2013-05-05T09:24:49Z</time>
      </trkpt>
      <trkpt lat="43.51241" lon="3.76417">
        <ele>93</ele>
        <time>2013-05-05T09:24:51Z</time>
      </trkpt>
      <trkpt lat="43.51233" lon="3.76412">
        <ele>92.9</ele>
        <time>2013-05-05T09:24:53Z</time>
      </trkpt>
      <trkpt lat="43.51225" lon="3.76407">
        <ele>93.8</ele>
        <time>2013-05-05T09:24:55Z</time>
      </trkpt>
      <trkpt lat="43.51218" lon="3.76403">
        <ele>94.2</ele>
        <time>2013-05-05T09:24:57Z</time>
      </trkpt>
      <trkpt lat="43.51211" lon="3.76398">
        <ele>94.2</ele>
        <time>2013-05-05T09:24:59Z</time>
      </trkpt>
      <trkpt lat="43.51204" lon="3.76394">
        <ele>94.9</ele>
        <time>2013-05-05T09:25:01Z</time>
      </trkpt>
      <trkpt lat="43.51198" lon="3.76389">
        <ele>95.7</ele>
        <time>2013-05-05T09:25:03Z</time>
      </trkpt>
      <trkpt lat="43.51191" lon="3.76386">
        <ele>95.8</ele>
        <time>2013-05-05T09:25:05Z</time>
      </trkpt>
      <trkpt lat="43.51184" lon="3.76383">
        <ele>95.9</ele>
        <time>2013-05-05T09:25:07Z</time>
      </trkpt>
      <trkpt lat="43.51178" lon="3.7638">
        <ele>95.9</ele>
        <time>2013-05-05T09:25:09Z</time>
      </trkpt>
      <trkpt lat="43.51171" lon="3.76378">
        <ele>96.7</ele>
        <time>2013-05-05T09:25:11Z</time>
      </trkpt>
      <trkpt lat="43.51165" lon="3.76376">
        <ele>97.1</ele>
        <time>2013-05-05T09:25:13Z</time>
      </trkpt>
      <trkpt lat="43.51159" lon="3.76373">
        <ele>97.4</ele>
        <time>2013-05-05T09:25:15Z</time>
      </trkpt>
      <trkpt lat="43.51151" lon="3.76369">
        <ele>97.3</ele>
        <time>2013-05-05T09:25:18Z</time>
      </trkpt>
      <trkpt lat="43.51145" lon="3.76367">
        <ele>97.4</ele>
        <time>2013-05-05T09:25:20Z</time>
      </trkpt>
      <trkpt lat="43.51136" lon="3.76363">
        <ele>98.8</ele>
        <time>2013-05-05T09:25:23Z</time>
      </trkpt>
      <trkpt lat="43.51129" lon="3.76358">
        <ele>100.7</ele>
        <time>2013-05-05T09:25:26Z</time>
      </trkpt>
      <trkpt lat="43.51134" lon="3.76349">
        <ele>101.6</ele>
        <time>2013-05-05T09:25:30Z</time>
      </trkpt>
      <trkpt lat="43.51141" lon="3.76343">
        <ele>101.2</ele>
        <time>2013-05-05T09:25:32Z</time>
      </trkpt>
      <trkpt lat="43.51147" lon="3.76336">
        <ele>100.3</ele>
        <time>2013-05-05T09:25:34Z</time>
      </trkpt>
      <trkpt lat="43.51151" lon="3.76326">
        <ele>100</ele>
        <time>2013-05-05T09:25:36Z</time>
      </trkpt>
      <trkpt lat="43.51151" lon="3.76315">
        <ele>100</ele>
        <time>2013-05-05T09:25:38Z</time>
      </trkpt>
      <trkpt lat="43.51151" lon="3.76305">
        <ele>99</ele>
        <time>2013-05-05T09:25:40Z</time>
      </trkpt>
      <trkpt lat="43.51153" lon="3.763">
        <ele>98.7</ele>
        <time>2013-05-05T09:25:41Z</time>
      </trkpt>
      <trkpt lat="43.51157" lon="3.76285">
        <ele>99.4</ele>
        <time>2013-05-05T09:25:44Z</time>
      </trkpt>
      <trkpt lat="43.51158" lon="3.76276">
        <ele>100.4</ele>
        <time>2013-05-05T09:25:46Z</time>
      </trkpt>
      <trkpt lat="43.51156" lon="3.76268">
        <ele>101.2</ele>
        <time>2013-05-05T09:25:48Z</time>
      </trkpt>
      <trkpt lat="43.51156" lon="3.76256">
        <ele>102.1</ele>
        <time>2013-05-05T09:25:51Z</time>
      </trkpt>
      <trkpt lat="43.51151" lon="3.76247">
        <ele>102.4</ele>
        <time>2013-05-05T09:25:54Z</time>
      </trkpt>
      <trkpt lat="43.51146" lon="3.76238">
        <ele>102.2</ele>
        <time>2013-05-05T09:25:57Z</time>
      </trkpt>
      <trkpt lat="43.51139" lon="3.76233">
        <ele>102.8</ele>
        <time>2013-05-05T09:26:00Z</time>
      </trkpt>
      <trkpt lat="43.51132" lon="3.76228">
        <ele>103.9</ele>
        <time>2013-05-05T09:26:03Z</time>
      </trkpt>
      <trkpt lat="43.51126" lon="3.76224">
        <ele>104</ele>
        <time>2013-05-05T09:26:06Z</time>
      </trkpt>
      <trkpt lat="43.5112" lon="3.76216">
        <ele>105.3</ele>
        <time>2013-05-05T09:26:10Z</time>
      </trkpt>
      <trkpt lat="43.51116" lon="3.76205">
        <ele>107.3</ele>
        <time>2013-05-05T09:26:15Z</time>
      </trkpt>
      <trkpt lat="43.51109" lon="3.76197">
        <ele>107.7</ele>
        <time>2013-05-05T09:26:19Z</time>
      </trkpt>
      <trkpt lat="43.51102" lon="3.76194">
        <ele>107.8</ele>
        <time>2013-05-05T09:26:22Z</time>
      </trkpt>
      <trkpt lat="43.51097" lon="3.76185">
        <ele>108.3</ele>
        <time>2013-05-05T09:26:25Z</time>
      </trkpt>
      <trkpt lat="43.51093" lon="3.76176">
        <ele>109</ele>
        <time>2013-05-05T09:26:28Z</time>
      </trkpt>
      <trkpt lat="43.51088" lon="3.76169">
        <ele>109.5</ele>
        <time>2013-05-05T09:26:31Z</time>
      </trkpt>
      <trkpt lat="43.51082" lon="3.76161">
        <ele>110.2</ele>
        <time>2013-05-05T09:26:34Z</time>
      </trkpt>
      <trkpt lat="43.51075" lon="3.76156">
        <ele>110.9</ele>
        <time>2013-05-05T09:26:37Z</time>
      </trkpt>
      <trkpt lat="43.51069" lon="3.76149">
        <ele>111.3</ele>
        <time>2013-05-05T09:26:40Z</time>
      </trkpt>
      <trkpt lat="43.51063" lon="3.7614">
        <ele>111.4</ele>
        <time>2013-05-05T09:26:43Z</time>
      </trkpt>
      <trkpt lat="43.51061" lon="3.76137">
        <ele>111.3</ele>
        <time>2013-05-05T09:26:44Z</time>
      </trkpt>
      <trkpt lat="43.51051" lon="3.76124">
        <ele>112</ele>
        <time>2013-05-05T09:26:49Z</time>
      </trkpt>
      <trkpt lat="43.51046" lon="3.76115">
        <ele>112.5</ele>
        <time>2013-05-05T09:26:52Z</time>
      </trkpt>
      <trkpt lat="43.5104" lon="3.76106">
        <ele>112.3</ele>
        <time>2013-05-05T09:26:55Z</time>
      </trkpt>
      <trkpt lat="43.51035" lon="3.76099">
        <ele>111.3</ele>
        <time>2013-05-05T09:26:58Z</time>
      </trkpt>
      <trkpt lat="43.5103" lon="3.76089">
        <ele>114.6</ele>
        <time>2013-05-05T09:27:12Z</time>
      </trkpt>
      <trkpt lat="43.51031" lon="3.76078">
        <ele>114.7</ele>
        <time>2013-05-05T09:27:16Z</time>
      </trkpt>
      <trkpt lat="43.5103" lon="3.76066">
        <ele>113.9</ele>
        <time>2013-05-05T09:27:20Z</time>
      </trkpt>
      <trkpt lat="43.51025" lon="3.7606">
        <ele>114</ele>
        <time>2013-05-05T09:27:22Z</time>
      </trkpt>
      <trkpt lat="43.5102" lon="3.76051">
        <ele>113.7</ele>
        <time>2013-05-05T09:27:25Z</time>
      </trkpt>
      <trkpt lat="43.51016" lon="3.76044">
        <ele>113.1</ele>
        <time>2013-05-05T09:27:27Z</time>
      </trkpt>
      <trkpt lat="43.51013" lon="3.76035">
        <ele>112.5</ele>
        <time>2013-05-05T09:27:29Z</time>
      </trkpt>
      <trkpt lat="43.51008" lon="3.76027">
        <ele>112.7</ele>
        <time>2013-05-05T09:27:31Z</time>
      </trkpt>
      <trkpt lat="43.51004" lon="3.76018">
        <ele>112.8</ele>
        <time>2013-05-05T09:27:33Z</time>
      </trkpt>
      <trkpt lat="43.51004" lon="3.7601">
        <ele>112.8</ele>
        <time>2013-05-05T09:27:35Z</time>
      </trkpt>
      <trkpt lat="43.51003" lon="3.75998">
        <ele>112.4</ele>
        <time>2013-05-05T09:27:38Z</time>
      </trkpt>
      <trkpt lat="43.51" lon="3.75987">
        <ele>112.1</ele>
        <time>2013-05-05T09:27:41Z</time>
      </trkpt>
      <trkpt lat="43.50998" lon="3.75978">
        <ele>112.2</ele>
        <time>2013-05-05T09:27:43Z</time>
      </trkpt>
      <trkpt lat="43.50996" lon="3.75967">
        <ele>112.2</ele>
        <time>2013-05-05T09:27:46Z</time>
      </trkpt>
      <trkpt lat="43.50996" lon="3.75962">
        <ele>112.1</ele>
        <time>2013-05-05T09:27:47Z</time>
      </trkpt>
      <trkpt lat="43.50996" lon="3.75947">
        <ele>112.1</ele>
        <time>2013-05-05T09:27:50Z</time>
      </trkpt>
      <trkpt lat="43.50995" lon="3.75941">
        <ele>112.3</ele>
        <time>2013-05-05T09:27:51Z</time>
      </trkpt>
      <trkpt lat="43.50994" lon="3.75929">
        <ele>112.3</ele>
        <time>2013-05-05T09:27:53Z</time>
      </trkpt>
      <trkpt lat="43.50992" lon="3.75922">
        <ele>112.1</ele>
        <time>2013-05-05T09:27:54Z</time>
      </trkpt>
      <trkpt lat="43.50992" lon="3.75916">
        <ele>112</ele>
        <time>2013-05-05T09:27:55Z</time>
      </trkpt>
      <trkpt lat="43.50993" lon="3.75909">
        <ele>112.2</ele>
        <time>2013-05-05T09:27:56Z</time>
      </trkpt>
      <trkpt lat="43.50993" lon="3.75902">
        <ele>112.4</ele>
        <time>2013-05-05T09:27:57Z</time>
      </trkpt>
      <trkpt lat="43.50992" lon="3.75896">
        <ele>112.5</ele>
        <time>2013-05-05T09:27:58Z</time>
      </trkpt>
      <trkpt lat="43.5099" lon="3.75889">
        <ele>112</ele>
        <time>2013-05-05T09:27:59Z</time>
      </trkpt>
      <trkpt lat="43.50989" lon="3.75882">
        <ele>111.6</ele>
        <time>2013-05-05T09:28:00Z</time>
      </trkpt>
      <trkpt lat="43.50988" lon="3.75875">
        <ele>111.3</ele>
        <time>2013-05-05T09:28:01Z</time>
      </trkpt>
      <trkpt lat="43.50987" lon="3.75867">
        <ele>111.6</ele>
        <time>2013-05-05T09:28:02Z</time>
      </trkpt>
      <trkpt lat="43.50986" lon="3.7586">
        <ele>111.7</ele>
        <time>2013-05-05T09:28:03Z</time>
      </trkpt>
      <trkpt lat="43.50986" lon="3.75853">
        <ele>111.9</ele>
        <time>2013-05-05T09:28:04Z</time>
      </trkpt>
      <trkpt lat="43.50986" lon="3.75846">
        <ele>112</ele>
        <time>2013-05-05T09:28:05Z</time>
      </trkpt>
      <trkpt lat="43.50986" lon="3.75839">
        <ele>111.6</ele>
        <time>2013-05-05T09:28:06Z</time>
      </trkpt>
      <trkpt lat="43.50986" lon="3.75832">
        <ele>111.2</ele>
        <time>2013-05-05T09:28:07Z</time>
      </trkpt>
      <trkpt lat="43.50984" lon="3.75825">
        <ele>111</ele>
        <time>2013-05-05T09:28:08Z</time>
      </trkpt>
      <trkpt lat="43.50982" lon="3.75819">
        <ele>111.5</ele>
        <time>2013-05-05T09:28:09Z</time>
      </trkpt>
      <trkpt lat="43.50978" lon="3.75808">
        <ele>112.1</ele>
        <time>2013-05-05T09:28:11Z</time>
      </trkpt>
      <trkpt lat="43.50977" lon="3.75796">
        <ele>112.1</ele>
        <time>2013-05-05T09:28:13Z</time>
      </trkpt>
      <trkpt lat="43.50976" lon="3.7579">
        <ele>112.1</ele>
        <time>2013-05-05T09:28:14Z</time>
      </trkpt>
      <trkpt lat="43.50976" lon="3.75783">
        <ele>112.6</ele>
        <time>2013-05-05T09:28:15Z</time>
      </trkpt>
      <trkpt lat="43.50976" lon="3.75777">
        <ele>112.9</ele>
        <time>2013-05-05T09:28:16Z</time>
      </trkpt>
      <trkpt lat="43.50977" lon="3.75765">
        <ele>113.4</ele>
        <time>2013-05-05T09:28:18Z</time>
      </trkpt>
      <trkpt lat="43.50978" lon="3.75753">
        <ele>113.7</ele>
        <time>2013-05-05T09:28:20Z</time>
      </trkpt>
      <trkpt lat="43.50979" lon="3.75741">
        <ele>113.6</ele>
        <time>2013-05-05T09:28:22Z</time>
      </trkpt>
      <trkpt lat="43.5098" lon="3.75734">
        <ele>113.4</ele>
        <time>2013-05-05T09:28:23Z</time>
      </trkpt>
      <trkpt lat="43.50981" lon="3.75728">
        <ele>113.3</ele>
        <time>2013-05-05T09:28:24Z</time>
      </trkpt>
      <trkpt lat="43.50981" lon="3.75722">
        <ele>113.2</ele>
        <time>2013-05-05T09:28:25Z</time>
      </trkpt>
      <trkpt lat="43.5098" lon="3.7571">
        <ele>113</ele>
        <time>2013-05-05T09:28:27Z</time>
      </trkpt>
      <trkpt lat="43.50978" lon="3.75703">
        <ele>113.3</ele>
        <time>2013-05-05T09:28:28Z</time>
      </trkpt>
      <trkpt lat="43.50977" lon="3.75697">
        <ele>113.5</ele>
        <time>2013-05-05T09:28:29Z</time>
      </trkpt>
      <trkpt lat="43.50978" lon="3.75689">
        <ele>113.6</ele>
        <time>2013-05-05T09:28:30Z</time>
      </trkpt>
      <trkpt lat="43.5098" lon="3.75682">
        <ele>113.6</ele>
        <time>2013-05-05T09:28:31Z</time>
      </trkpt>
      <trkpt lat="43.50981" lon="3.75675">
        <ele>113.7</ele>
        <time>2013-05-05T09:28:32Z</time>
      </trkpt>
      <trkpt lat="43.50983" lon="3.75668">
        <ele>113.7</ele>
        <time>2013-05-05T09:28:33Z</time>
      </trkpt>
      <trkpt lat="43.50986" lon="3.75659">
        <ele>113.5</ele>
        <time>2013-05-05T09:28:35Z</time>
      </trkpt>
      <trkpt lat="43.5099" lon="3.75651">
        <ele>112.9</ele>
        <time>2013-05-05T09:28:38Z</time>
      </trkpt>
      <trkpt lat="43.50993" lon="3.7564">
        <ele>112.2</ele>
        <time>2013-05-05T09:28:41Z</time>
      </trkpt>
      <trkpt lat="43.50992" lon="3.75628">
        <ele>111.1</ele>
        <time>2013-05-05T09:28:54Z</time>
      </trkpt>
      <trkpt lat="43.50992" lon="3.75627">
        <ele>111</ele>
        <time>2013-05-05T09:28:55Z</time>
      </trkpt>
      <trkpt lat="43.50991" lon="3.75605">
        <ele>111.5</ele>
        <time>2013-05-05T09:30:05Z</time>
      </trkpt>
      <trkpt lat="43.50991" lon="3.75603">
        <ele>111.5</ele>
        <time>2013-05-05T09:30:06Z</time>
      </trkpt>
      <trkpt lat="43.50992" lon="3.75588">
        <ele>111.5</ele>
        <time>2013-05-05T09:30:10Z</time>
      </trkpt>
      <trkpt lat="43.50995" lon="3.75579">
        <ele>111.5</ele>
        <time>2013-05-05T09:30:12Z</time>
      </trkpt>
      <trkpt lat="43.50998" lon="3.75568">
        <ele>111.3</ele>
        <time>2013-05-05T09:30:14Z</time>
      </trkpt>
      <trkpt lat="43.51001" lon="3.75557">
        <ele>111.2</ele>
        <time>2013-05-05T09:30:16Z</time>
      </trkpt>
      <trkpt lat="43.51005" lon="3.75546">
        <ele>111.2</ele>
        <time>2013-05-05T09:30:18Z</time>
      </trkpt>
      <trkpt lat="43.51009" lon="3.75536">
        <ele>111</ele>
        <time>2013-05-05T09:30:20Z</time>
      </trkpt>
      <trkpt lat="43.51014" lon="3.75526">
        <ele>110.8</ele>
        <time>2013-05-05T09:30:22Z</time>
      </trkpt>
      <trkpt lat="43.51019" lon="3.75515">
        <ele>111</ele>
        <time>2013-05-05T09:30:24Z</time>
      </trkpt>
      <trkpt lat="43.51021" lon="3.7551">
        <ele>111</ele>
        <time>2013-05-05T09:30:25Z</time>
      </trkpt>
      <trkpt lat="43.51023" lon="3.75505">
        <ele>110.8</ele>
        <time>2013-05-05T09:30:26Z</time>
      </trkpt>
      <trkpt lat="43.51026" lon="3.75499">
        <ele>110.7</ele>
        <time>2013-05-05T09:30:27Z</time>
      </trkpt>
      <trkpt lat="43.51028" lon="3.75493">
        <ele>110.6</ele>
        <time>2013-05-05T09:30:28Z</time>
      </trkpt>
      <trkpt lat="43.51029" lon="3.75487">
        <ele>110.4</ele>
        <time>2013-05-05T09:30:29Z</time>
      </trkpt>
      <trkpt lat="43.51031" lon="3.75481">
        <ele>110.3</ele>
        <time>2013-05-05T09:30:30Z</time>
      </trkpt>
      <trkpt lat="43.51033" lon="3.75475">
        <ele>110.2</ele>
        <time>2013-05-05T09:30:31Z</time>
      </trkpt>
      <trkpt lat="43.51034" lon="3.75469">
        <ele>109.9</ele>
        <time>2013-05-05T09:30:32Z</time>
      </trkpt>
      <trkpt lat="43.51036" lon="3.75462">
        <ele>109.8</ele>
        <time>2013-05-05T09:30:33Z</time>
      </trkpt>
      <trkpt lat="43.51037" lon="3.75456">
        <ele>109.6</ele>
        <time>2013-05-05T09:30:34Z</time>
      </trkpt>
      <trkpt lat="43.51039" lon="3.75449">
        <ele>109.5</ele>
        <time>2013-05-05T09:30:35Z</time>
      </trkpt>
      <trkpt lat="43.5104" lon="3.75443">
        <ele>109.4</ele>
        <time>2013-05-05T09:30:36Z</time>
      </trkpt>
      <trkpt lat="43.51041" lon="3.75436">
        <ele>109.3</ele>
        <time>2013-05-05T09:30:37Z</time>
      </trkpt>
      <trkpt lat="43.51042" lon="3.75429">
        <ele>109.2</ele>
        <time>2013-05-05T09:30:38Z</time>
      </trkpt>
      <trkpt lat="43.51043" lon="3.75423">
        <ele>109.2</ele>
        <time>2013-05-05T09:30:39Z</time>
      </trkpt>
      <trkpt lat="43.51044" lon="3.75416">
        <ele>109.2</ele>
        <time>2013-05-05T09:30:40Z</time>
      </trkpt>
      <trkpt lat="43.51044" lon="3.7541">
        <ele>109.2</ele>
        <time>2013-05-05T09:30:41Z</time>
      </trkpt>
      <trkpt lat="43.51045" lon="3.75403">
        <ele>109.4</ele>
        <time>2013-05-05T09:30:42Z</time>
      </trkpt>
      <trkpt lat="43.51047" lon="3.75397">
        <ele>109.6</ele>
        <time>2013-05-05T09:30:43Z</time>
      </trkpt>
      <trkpt lat="43.51049" lon="3.75391">
        <ele>109.7</ele>
        <time>2013-05-05T09:30:44Z</time>
      </trkpt>
      <trkpt lat="43.51051" lon="3.75385">
        <ele>109.6</ele>
        <time>2013-05-05T09:30:45Z</time>
      </trkpt>
      <trkpt lat="43.51053" lon="3.75379">
        <ele>109.5</ele>
        <time>2013-05-05T09:30:46Z</time>
      </trkpt>
      <trkpt lat="43.51055" lon="3.75372">
        <ele>109.4</ele>
        <time>2013-05-05T09:30:47Z</time>
      </trkpt>
      <trkpt lat="43.51055" lon="3.75366">
        <ele>109.4</ele>
        <time>2013-05-05T09:30:48Z</time>
      </trkpt>
      <trkpt lat="43.51056" lon="3.75359">
        <ele>109.5</ele>
        <time>2013-05-05T09:30:49Z</time>
      </trkpt>
      <trkpt lat="43.51056" lon="3.75353">
        <ele>109.5</ele>
        <time>2013-05-05T09:30:50Z</time>
      </trkpt>
      <trkpt lat="43.51056" lon="3.75346">
        <ele>109.6</ele>
        <time>2013-05-05T09:30:51Z</time>
      </trkpt>
      <trkpt lat="43.51057" lon="3.7534">
        <ele>110</ele>
        <time>2013-05-05T09:30:52Z</time>
      </trkpt>
      <trkpt lat="43.51057" lon="3.75333">
        <ele>110.2</ele>
        <time>2013-05-05T09:30:53Z</time>
      </trkpt>
      <trkpt lat="43.51058" lon="3.75326">
        <ele>110.5</ele>
        <time>2013-05-05T09:30:54Z</time>
      </trkpt>
      <trkpt lat="43.51059" lon="3.75319">
        <ele>109.6</ele>
        <time>2013-05-05T09:30:55Z</time>
      </trkpt>
      <trkpt lat="43.5106" lon="3.75312">
        <ele>108.9</ele>
        <time>2013-05-05T09:30:56Z</time>
      </trkpt>
      <trkpt lat="43.51061" lon="3.75305">
        <ele>108.5</ele>
        <time>2013-05-05T09:30:57Z</time>
      </trkpt>
      <trkpt lat="43.51062" lon="3.75297">
        <ele>108.4</ele>
        <time>2013-05-05T09:30:58Z</time>
      </trkpt>
      <trkpt lat="43.51063" lon="3.7529">
        <ele>108.4</ele>
        <time>2013-05-05T09:30:59Z</time>
      </trkpt>
      <trkpt lat="43.51064" lon="3.75282">
        <ele>108.4</ele>
        <time>2013-05-05T09:31:00Z</time>
      </trkpt>
      <trkpt lat="43.51066" lon="3.75274">
        <ele>108.7</ele>
        <time>2013-05-05T09:31:01Z</time>
      </trkpt>
      <trkpt lat="43.51067" lon="3.75266">
        <ele>108.9</ele>
        <time>2013-05-05T09:31:02Z</time>
      </trkpt>
      <trkpt lat="43.51068" lon="3.75259">
        <ele>109.1</ele>
        <time>2013-05-05T09:31:03Z</time>
      </trkpt>
      <trkpt lat="43.51069" lon="3.75251">
        <ele>108.5</ele>
        <time>2013-05-05T09:31:04Z</time>
      </trkpt>
      <trkpt lat="43.5107" lon="3.75243">
        <ele>108.1</ele>
        <time>2013-05-05T09:31:05Z</time>
      </trkpt>
      <trkpt lat="43.51072" lon="3.75235">
        <ele>107.7</ele>
        <time>2013-05-05T09:31:06Z</time>
      </trkpt>
      <trkpt lat="43.51073" lon="3.75227">
        <ele>107.5</ele>
        <time>2013-05-05T09:31:07Z</time>
      </trkpt>
      <trkpt lat="43.51074" lon="3.7522">
        <ele>107.5</ele>
        <time>2013-05-05T09:31:08Z</time>
      </trkpt>
      <trkpt lat="43.51076" lon="3.75213">
        <ele>107.5</ele>
        <time>2013-05-05T09:31:09Z</time>
      </trkpt>
      <trkpt lat="43.51077" lon="3.75205">
        <ele>107.6</ele>
        <time>2013-05-05T09:31:10Z</time>
      </trkpt>
      <trkpt lat="43.51078" lon="3.75198">
        <ele>107</ele>
        <time>2013-05-05T09:31:11Z</time>
      </trkpt>
      <trkpt lat="43.51079" lon="3.7519">
        <ele>106.6</ele>
        <time>2013-05-05T09:31:12Z</time>
      </trkpt>
      <trkpt lat="43.51079" lon="3.75183">
        <ele>106.3</ele>
        <time>2013-05-05T09:31:13Z</time>
      </trkpt>
      <trkpt lat="43.51079" lon="3.75175">
        <ele>106.3</ele>
        <time>2013-05-05T09:31:14Z</time>
      </trkpt>
      <trkpt lat="43.5108" lon="3.75167">
        <ele>106.3</ele>
        <time>2013-05-05T09:31:15Z</time>
      </trkpt>
      <trkpt lat="43.5108" lon="3.75159">
        <ele>106.3</ele>
        <time>2013-05-05T09:31:16Z</time>
      </trkpt>
      <trkpt lat="43.5108" lon="3.75151">
        <ele>106</ele>
        <time>2013-05-05T09:31:17Z</time>
      </trkpt>
      <trkpt lat="43.5108" lon="3.75143">
        <ele>105.8</ele>
        <time>2013-05-05T09:31:18Z</time>
      </trkpt>
      <trkpt lat="43.5108" lon="3.75135">
        <ele>105.6</ele>
        <time>2013-05-05T09:31:19Z</time>
      </trkpt>
      <trkpt lat="43.51079" lon="3.75127">
        <ele>105.7</ele>
        <time>2013-05-05T09:31:20Z</time>
      </trkpt>
      <trkpt lat="43.51077" lon="3.75118">
        <ele>105.7</ele>
        <time>2013-05-05T09:31:21Z</time>
      </trkpt>
      <trkpt lat="43.51076" lon="3.7511">
        <ele>105.8</ele>
        <time>2013-05-05T09:31:22Z</time>
      </trkpt>
      <trkpt lat="43.51074" lon="3.75102">
        <ele>105.4</ele>
        <time>2013-05-05T09:31:23Z</time>
      </trkpt>
      <trkpt lat="43.51072" lon="3.75094">
        <ele>105.1</ele>
        <time>2013-05-05T09:31:24Z</time>
      </trkpt>
      <trkpt lat="43.5107" lon="3.75085">
        <ele>104.9</ele>
        <time>2013-05-05T09:31:25Z</time>
      </trkpt>
      <trkpt lat="43.51067" lon="3.75077">
        <ele>104.8</ele>
        <time>2013-05-05T09:31:26Z</time>
      </trkpt>
      <trkpt lat="43.51064" lon="3.75069">
        <ele>104.6</ele>
        <time>2013-05-05T09:31:27Z</time>
      </trkpt>
      <trkpt lat="43.51061" lon="3.7506">
        <ele>104.5</ele>
        <time>2013-05-05T09:31:28Z</time>
      </trkpt>
      <trkpt lat="43.51056" lon="3.75052">
        <ele>104.4</ele>
        <time>2013-05-05T09:31:29Z</time>
      </trkpt>
      <trkpt lat="43.51052" lon="3.75044">
        <ele>104</ele>
        <time>2013-05-05T09:31:30Z</time>
      </trkpt>
      <trkpt lat="43.51048" lon="3.75035">
        <ele>103.7</ele>
        <time>2013-05-05T09:31:31Z</time>
      </trkpt>
      <trkpt lat="43.51045" lon="3.75026">
        <ele>103.5</ele>
        <time>2013-05-05T09:31:32Z</time>
      </trkpt>
      <trkpt lat="43.51041" lon="3.75017">
        <ele>103</ele>
        <time>2013-05-05T09:31:33Z</time>
      </trkpt>
      <trkpt lat="43.51038" lon="3.75008">
        <ele>102.7</ele>
        <time>2013-05-05T09:31:34Z</time>
      </trkpt>
      <trkpt lat="43.51035" lon="3.74998">
        <ele>102.4</ele>
        <time>2013-05-05T09:31:35Z</time>
      </trkpt>
      <trkpt lat="43.51032" lon="3.74988">
        <ele>101.5</ele>
        <time>2013-05-05T09:31:36Z</time>
      </trkpt>
      <trkpt lat="43.51029" lon="3.74978">
        <ele>100.7</ele>
        <time>2013-05-05T09:31:37Z</time>
      </trkpt>
      <trkpt lat="43.51025" lon="3.74968">
        <ele>100.2</ele>
        <time>2013-05-05T09:31:38Z</time>
      </trkpt>
      <trkpt lat="43.51022" lon="3.74958">
        <ele>99</ele>
        <time>2013-05-05T09:31:39Z</time>
      </trkpt>
      <trkpt lat="43.5102" lon="3.74947">
        <ele>98.2</ele>
        <time>2013-05-05T09:31:40Z</time>
      </trkpt>
      <trkpt lat="43.5102" lon="3.74937">
        <ele>97.6</ele>
        <time>2013-05-05T09:31:41Z</time>
      </trkpt>
      <trkpt lat="43.51019" lon="3.74926">
        <ele>97.1</ele>
        <time>2013-05-05T09:31:42Z</time>
      </trkpt>
      <trkpt lat="43.51019" lon="3.74916">
        <ele>96.4</ele>
        <time>2013-05-05T09:31:43Z</time>
      </trkpt>
      <trkpt lat="43.51018" lon="3.74905">
        <ele>95.9</ele>
        <time>2013-05-05T09:31:44Z</time>
      </trkpt>
      <trkpt lat="43.51017" lon="3.74895">
        <ele>95.5</ele>
        <time>2013-05-05T09:31:45Z</time>
      </trkpt>
      <trkpt lat="43.51015" lon="3.74885">
        <ele>94.4</ele>
        <time>2013-05-05T09:31:46Z</time>
      </trkpt>
      <trkpt lat="43.51013" lon="3.74874">
        <ele>93.7</ele>
        <time>2013-05-05T09:31:47Z</time>
      </trkpt>
      <trkpt lat="43.51011" lon="3.74864">
        <ele>93.1</ele>
        <time>2013-05-05T09:31:48Z</time>
      </trkpt>
      <trkpt lat="43.51009" lon="3.74854">
        <ele>94</ele>
        <time>2013-05-05T09:31:49Z</time>
      </trkpt>
      <trkpt lat="43.51007" lon="3.74844">
        <ele>94.6</ele>
        <time>2013-05-05T09:31:50Z</time>
      </trkpt>
      <trkpt lat="43.51005" lon="3.74834">
        <ele>95.1</ele>
        <time>2013-05-05T09:31:51Z</time>
      </trkpt>
      <trkpt lat="43.51003" lon="3.74824">
        <ele>93.9</ele>
        <time>2013-05-05T09:31:52Z</time>
      </trkpt>
      <trkpt lat="43.51002" lon="3.74814">
        <ele>93</ele>
        <time>2013-05-05T09:31:53Z</time>
      </trkpt>
      <trkpt lat="43.51001" lon="3.74804">
        <ele>92.3</ele>
        <time>2013-05-05T09:31:54Z</time>
      </trkpt>
      <trkpt lat="43.51002" lon="3.74794">
        <ele>91.8</ele>
        <time>2013-05-05T09:31:55Z</time>
      </trkpt>
      <trkpt lat="43.51002" lon="3.74783">
        <ele>91.4</ele>
        <time>2013-05-05T09:31:56Z</time>
      </trkpt>
      <trkpt lat="43.51002" lon="3.74772">
        <ele>91.2</ele>
        <time>2013-05-05T09:31:57Z</time>
      </trkpt>
      <trkpt lat="43.51002" lon="3.74762">
        <ele>91</ele>
        <time>2013-05-05T09:31:58Z</time>
      </trkpt>
      <trkpt lat="43.51" lon="3.74751">
        <ele>91.1</ele>
        <time>2013-05-05T09:31:59Z</time>
      </trkpt>
      <trkpt lat="43.50997" lon="3.74741">
        <ele>91.2</ele>
        <time>2013-05-05T09:32:00Z</time>
      </trkpt>
      <trkpt lat="43.50994" lon="3.74731">
        <ele>91.2</ele>
        <time>2013-05-05T09:32:01Z</time>
      </trkpt>
      <trkpt lat="43.5099" lon="3.7472">
        <ele>90.9</ele>
        <time>2013-05-05T09:32:02Z</time>
      </trkpt>
      <trkpt lat="43.50986" lon="3.7471">
        <ele>90.6</ele>
        <time>2013-05-05T09:32:03Z</time>
      </trkpt>
      <trkpt lat="43.50982" lon="3.74699">
        <ele>90.4</ele>
        <time>2013-05-05T09:32:04Z</time>
      </trkpt>
      <trkpt lat="43.50978" lon="3.74689">
        <ele>90.4</ele>
        <time>2013-05-05T09:32:05Z</time>
      </trkpt>
      <trkpt lat="43.50974" lon="3.74678">
        <ele>90.3</ele>
        <time>2013-05-05T09:32:06Z</time>
      </trkpt>
      <trkpt lat="43.50971" lon="3.74667">
        <ele>90.3</ele>
        <time>2013-05-05T09:32:07Z</time>
      </trkpt>
      <trkpt lat="43.50969" lon="3.74656">
        <ele>90.2</ele>
        <time>2013-05-05T09:32:08Z</time>
      </trkpt>
      <trkpt lat="43.50967" lon="3.74647">
        <ele>90.2</ele>
        <time>2013-05-05T09:32:09Z</time>
      </trkpt>
      <trkpt lat="43.50965" lon="3.74639">
        <ele>90.1</ele>
        <time>2013-05-05T09:32:10Z</time>
      </trkpt>
      <trkpt lat="43.50963" lon="3.74633">
        <ele>89.7</ele>
        <time>2013-05-05T09:32:11Z</time>
      </trkpt>
      <trkpt lat="43.50956" lon="3.74626">
        <ele>89.2</ele>
        <time>2013-05-05T09:32:13Z</time>
      </trkpt>
      <trkpt lat="43.50949" lon="3.74622">
        <ele>89.5</ele>
        <time>2013-05-05T09:32:21Z</time>
      </trkpt>
      <trkpt lat="43.50942" lon="3.7462">
        <ele>89</ele>
        <time>2013-05-05T09:32:25Z</time>
      </trkpt>
      <trkpt lat="43.50934" lon="3.74619">
        <ele>89.2</ele>
        <time>2013-05-05T09:32:28Z</time>
      </trkpt>
      <trkpt lat="43.50928" lon="3.74618">
        <ele>89.4</ele>
        <time>2013-05-05T09:32:30Z</time>
      </trkpt>
      <trkpt lat="43.50922" lon="3.74617">
        <ele>89.8</ele>
        <time>2013-05-05T09:32:32Z</time>
      </trkpt>
      <trkpt lat="43.50913" lon="3.74616">
        <ele>90.8</ele>
        <time>2013-05-05T09:32:35Z</time>
      </trkpt>
      <trkpt lat="43.50905" lon="3.74615">
        <ele>91</ele>
        <time>2013-05-05T09:32:38Z</time>
      </trkpt>
      <trkpt lat="43.50897" lon="3.74615">
        <ele>91.8</ele>
        <time>2013-05-05T09:32:41Z</time>
      </trkpt>
      <trkpt lat="43.50889" lon="3.74616">
        <ele>92.3</ele>
        <time>2013-05-05T09:32:44Z</time>
      </trkpt>
      <trkpt lat="43.50881" lon="3.74616">
        <ele>92.4</ele>
        <time>2013-05-05T09:32:47Z</time>
      </trkpt>
      <trkpt lat="43.50873" lon="3.74615">
        <ele>93</ele>
        <time>2013-05-05T09:32:50Z</time>
      </trkpt>
      <trkpt lat="43.50865" lon="3.74615">
        <ele>94</ele>
        <time>2013-05-05T09:32:53Z</time>
      </trkpt>
      <trkpt lat="43.50857" lon="3.74613">
        <ele>93.8</ele>
        <time>2013-05-05T09:32:56Z</time>
      </trkpt>
      <trkpt lat="43.5085" lon="3.74612">
        <ele>92.9</ele>
        <time>2013-05-05T09:32:59Z</time>
      </trkpt>
      <trkpt lat="43.50843" lon="3.74611">
        <ele>93.4</ele>
        <time>2013-05-05T09:33:02Z</time>
      </trkpt>
      <trkpt lat="43.50835" lon="3.7461">
        <ele>94.6</ele>
        <time>2013-05-05T09:33:05Z</time>
      </trkpt>
      <trkpt lat="43.50829" lon="3.74609">
        <ele>95.4</ele>
        <time>2013-05-05T09:33:08Z</time>
      </trkpt>
      <trkpt lat="43.50826" lon="3.74609">
        <ele>95.6</ele>
        <time>2013-05-05T09:33:09Z</time>
      </trkpt>
      <trkpt lat="43.50814" lon="3.74608">
        <ele>97</ele>
        <time>2013-05-05T09:33:14Z</time>
      </trkpt>
      <trkpt lat="43.50806" lon="3.74608">
        <ele>97.2</ele>
        <time>2013-05-05T09:33:17Z</time>
      </trkpt>
      <trkpt lat="43.50797" lon="3.74607">
        <ele>97.8</ele>
        <time>2013-05-05T09:33:20Z</time>
      </trkpt>
      <trkpt lat="43.50789" lon="3.74606">
        <ele>98.2</ele>
        <time>2013-05-05T09:33:23Z</time>
      </trkpt>
      <trkpt lat="43.50781" lon="3.74605">
        <ele>99.1</ele>
        <time>2013-05-05T09:33:26Z</time>
      </trkpt>
      <trkpt lat="43.50773" lon="3.74604">
        <ele>100</ele>
        <time>2013-05-05T09:33:29Z</time>
      </trkpt>
      <trkpt lat="43.50765" lon="3.74604">
        <ele>100.5</ele>
        <time>2013-05-05T09:33:32Z</time>
      </trkpt>
      <trkpt lat="43.50756" lon="3.74604">
        <ele>101.3</ele>
        <time>2013-05-05T09:33:35Z</time>
      </trkpt>
      <trkpt lat="43.50747" lon="3.74605">
        <ele>101.8</ele>
        <time>2013-05-05T09:33:38Z</time>
      </trkpt>
      <trkpt lat="43.50741" lon="3.74605">
        <ele>102.1</ele>
        <time>2013-05-05T09:33:40Z</time>
      </trkpt>
      <trkpt lat="43.50733" lon="3.74605">
        <ele>102.2</ele>
        <time>2013-05-05T09:33:43Z</time>
      </trkpt>
      <trkpt lat="43.50724" lon="3.74605">
        <ele>103.9</ele>
        <time>2013-05-05T09:33:46Z</time>
      </trkpt>
      <trkpt lat="43.50718" lon="3.74605">
        <ele>103.7</ele>
        <time>2013-05-05T09:33:48Z</time>
      </trkpt>
      <trkpt lat="43.50712" lon="3.74605">
        <ele>103.9</ele>
        <time>2013-05-05T09:33:50Z</time>
      </trkpt>
      <trkpt lat="43.50706" lon="3.74605">
        <ele>104.3</ele>
        <time>2013-05-05T09:33:52Z</time>
      </trkpt>
      <trkpt lat="43.50697" lon="3.74605">
        <ele>104.6</ele>
        <time>2013-05-05T09:33:55Z</time>
      </trkpt>
      <trkpt lat="43.50689" lon="3.74605">
        <ele>104.9</ele>
        <time>2013-05-05T09:33:58Z</time>
      </trkpt>
      <trkpt lat="43.50682" lon="3.74605">
        <ele>105.4</ele>
        <time>2013-05-05T09:34:01Z</time>
      </trkpt>
      <trkpt lat="43.50675" lon="3.74605">
        <ele>106.1</ele>
        <time>2013-05-05T09:34:04Z</time>
      </trkpt>
      <trkpt lat="43.50668" lon="3.74605">
        <ele>106.4</ele>
        <time>2013-05-05T09:34:07Z</time>
      </trkpt>
      <trkpt lat="43.50659" lon="3.74607">
        <ele>107.9</ele>
        <time>2013-05-05T09:34:11Z</time>
      </trkpt>
      <trkpt lat="43.50657" lon="3.74608">
        <ele>108.2</ele>
        <time>2013-05-05T09:34:12Z</time>
      </trkpt>
      <trkpt lat="43.50646" lon="3.74606">
        <ele>106.9</ele>
        <time>2013-05-05T09:34:17Z</time>
      </trkpt>
      <trkpt lat="43.50639" lon="3.74601">
        <ele>106.8</ele>
        <time>2013-05-05T09:34:20Z</time>
      </trkpt>
      <trkpt lat="43.50633" lon="3.74593">
        <ele>107.5</ele>
        <time>2013-05-05T09:34:23Z</time>
      </trkpt>
      <trkpt lat="43.50628" lon="3.74586">
        <ele>107.4</ele>
        <time>2013-05-05T09:34:25Z</time>
      </trkpt>
      <trkpt lat="43.50622" lon="3.74577">
        <ele>106.9</ele>
        <time>2013-05-05T09:34:27Z</time>
      </trkpt>
      <trkpt lat="43.50618" lon="3.74573">
        <ele>106.8</ele>
        <time>2013-05-05T09:34:28Z</time>
      </trkpt>
      <trkpt lat="43.50615" lon="3.74568">
        <ele>106.6</ele>
        <time>2013-05-05T09:34:29Z</time>
      </trkpt>
      <trkpt lat="43.50612" lon="3.74563">
        <ele>106.4</ele>
        <time>2013-05-05T09:34:30Z</time>
      </trkpt>
      <trkpt lat="43.50608" lon="3.74553">
        <ele>106</ele>
        <time>2013-05-05T09:34:32Z</time>
      </trkpt>
      <trkpt lat="43.50607" lon="3.74547">
        <ele>105.8</ele>
        <time>2013-05-05T09:34:33Z</time>
      </trkpt>
      <trkpt lat="43.50607" lon="3.7454">
        <ele>105.7</ele>
        <time>2013-05-05T09:34:34Z</time>
      </trkpt>
      <trkpt lat="43.50608" lon="3.74533">
        <ele>105.5</ele>
        <time>2013-05-05T09:34:35Z</time>
      </trkpt>
      <trkpt lat="43.50608" lon="3.74527">
        <ele>105.3</ele>
        <time>2013-05-05T09:34:36Z</time>
      </trkpt>
      <trkpt lat="43.5061" lon="3.7452">
        <ele>105.2</ele>
        <time>2013-05-05T09:34:37Z</time>
      </trkpt>
      <trkpt lat="43.50612" lon="3.74514">
        <ele>104.9</ele>
        <time>2013-05-05T09:34:38Z</time>
      </trkpt>
      <trkpt lat="43.50614" lon="3.74506">
        <ele>104.6</ele>
        <time>2013-05-05T09:34:39Z</time>
      </trkpt>
      <trkpt lat="43.50616" lon="3.74498">
        <ele>104.4</ele>
        <time>2013-05-05T09:34:40Z</time>
      </trkpt>
      <trkpt lat="43.50618" lon="3.7449">
        <ele>103.7</ele>
        <time>2013-05-05T09:34:41Z</time>
      </trkpt>
      <trkpt lat="43.5062" lon="3.74481">
        <ele>103.2</ele>
        <time>2013-05-05T09:34:42Z</time>
      </trkpt>
      <trkpt lat="43.50623" lon="3.74473">
        <ele>102.8</ele>
        <time>2013-05-05T09:34:43Z</time>
      </trkpt>
      <trkpt lat="43.50625" lon="3.74464">
        <ele>102.5</ele>
        <time>2013-05-05T09:34:44Z</time>
      </trkpt>
      <trkpt lat="43.50627" lon="3.74457">
        <ele>102.5</ele>
        <time>2013-05-05T09:34:45Z</time>
      </trkpt>
      <trkpt lat="43.50629" lon="3.74449">
        <ele>102.6</ele>
        <time>2013-05-05T09:34:46Z</time>
      </trkpt>
      <trkpt lat="43.50632" lon="3.74442">
        <ele>102.7</ele>
        <time>2013-05-05T09:34:47Z</time>
      </trkpt>
      <trkpt lat="43.50634" lon="3.74434">
        <ele>102.6</ele>
        <time>2013-05-05T09:34:48Z</time>
      </trkpt>
      <trkpt lat="43.50636" lon="3.74426">
        <ele>102.6</ele>
        <time>2013-05-05T09:34:49Z</time>
      </trkpt>
      <trkpt lat="43.50639" lon="3.74418">
        <ele>102.6</ele>
        <time>2013-05-05T09:34:50Z</time>
      </trkpt>
      <trkpt lat="43.50641" lon="3.7441">
        <ele>102.5</ele>
        <time>2013-05-05T09:34:51Z</time>
      </trkpt>
      <trkpt lat="43.50643" lon="3.74401">
        <ele>102.5</ele>
        <time>2013-05-05T09:34:52Z</time>
      </trkpt>
      <trkpt lat="43.50645" lon="3.74392">
        <ele>102.4</ele>
        <time>2013-05-05T09:34:53Z</time>
      </trkpt>
      <trkpt lat="43.50647" lon="3.74384">
        <ele>102.3</ele>
        <time>2013-05-05T09:34:54Z</time>
      </trkpt>
      <trkpt lat="43.50649" lon="3.74375">
        <ele>102.3</ele>
        <time>2013-05-05T09:34:55Z</time>
      </trkpt>
      <trkpt lat="43.50652" lon="3.74366">
        <ele>102.2</ele>
        <time>2013-05-05T09:34:56Z</time>
      </trkpt>
      <trkpt lat="43.50654" lon="3.74357">
        <ele>102.6</ele>
        <time>2013-05-05T09:34:57Z</time>
      </trkpt>
      <trkpt lat="43.50657" lon="3.74348">
        <ele>102.8</ele>
        <time>2013-05-05T09:34:58Z</time>
      </trkpt>
      <trkpt lat="43.5066" lon="3.74339">
        <ele>103.1</ele>
        <time>2013-05-05T09:34:59Z</time>
      </trkpt>
      <trkpt lat="43.50663" lon="3.7433">
        <ele>103.2</ele>
        <time>2013-05-05T09:35:00Z</time>
      </trkpt>
      <trkpt lat="43.50666" lon="3.74321">
        <ele>102.7</ele>
        <time>2013-05-05T09:35:01Z</time>
      </trkpt>
      <trkpt lat="43.50668" lon="3.74311">
        <ele>102.4</ele>
        <time>2013-05-05T09:35:02Z</time>
      </trkpt>
      <trkpt lat="43.50671" lon="3.74302">
        <ele>102.1</ele>
        <time>2013-05-05T09:35:03Z</time>
      </trkpt>
      <trkpt lat="43.50675" lon="3.74292">
        <ele>101.8</ele>
        <time>2013-05-05T09:35:04Z</time>
      </trkpt>
      <trkpt lat="43.50679" lon="3.74284">
        <ele>101.6</ele>
        <time>2013-05-05T09:35:05Z</time>
      </trkpt>
      <trkpt lat="43.50683" lon="3.74275">
        <ele>101.4</ele>
        <time>2013-05-05T09:35:06Z</time>
      </trkpt>
      <trkpt lat="43.50688" lon="3.74267">
        <ele>101.1</ele>
        <time>2013-05-05T09:35:07Z</time>
      </trkpt>
      <trkpt lat="43.50693" lon="3.74259">
        <ele>100.8</ele>
        <time>2013-05-05T09:35:08Z</time>
      </trkpt>
      <trkpt lat="43.50699" lon="3.74252">
        <ele>100.6</ele>
        <time>2013-05-05T09:35:09Z</time>
      </trkpt>
      <trkpt lat="43.50705" lon="3.74245">
        <ele>100.1</ele>
        <time>2013-05-05T09:35:10Z</time>
      </trkpt>
      <trkpt lat="43.50711" lon="3.74238">
        <ele>99.6</ele>
        <time>2013-05-05T09:35:11Z</time>
      </trkpt>
      <trkpt lat="43.50717" lon="3.7423">
        <ele>99.3</ele>
        <time>2013-05-05T09:35:12Z</time>
      </trkpt>
      <trkpt lat="43.50724" lon="3.74223">
        <ele>98.8</ele>
        <time>2013-05-05T09:35:13Z</time>
      </trkpt>
      <trkpt lat="43.50731" lon="3.74217">
        <ele>98.5</ele>
        <time>2013-05-05T09:35:14Z</time>
      </trkpt>
      <trkpt lat="43.50737" lon="3.74213">
        <ele>98.2</ele>
        <time>2013-05-05T09:35:15Z</time>
      </trkpt>
      <trkpt lat="43.50744" lon="3.7421">
        <ele>98</ele>
        <time>2013-05-05T09:35:16Z</time>
      </trkpt>
      <trkpt lat="43.50752" lon="3.74209">
        <ele>97.5</ele>
        <time>2013-05-05T09:35:17Z</time>
      </trkpt>
      <trkpt lat="43.5076" lon="3.74208">
        <ele>97.2</ele>
        <time>2013-05-05T09:35:18Z</time>
      </trkpt>
      <trkpt lat="43.50767" lon="3.74207">
        <ele>96.9</ele>
        <time>2013-05-05T09:35:19Z</time>
      </trkpt>
      <trkpt lat="43.50775" lon="3.74206">
        <ele>96</ele>
        <time>2013-05-05T09:35:20Z</time>
      </trkpt>
      <trkpt lat="43.50782" lon="3.74203">
        <ele>95.3</ele>
        <time>2013-05-05T09:35:21Z</time>
      </trkpt>
      <trkpt lat="43.50788" lon="3.74199">
        <ele>94.8</ele>
        <time>2013-05-05T09:35:22Z</time>
      </trkpt>
      <trkpt lat="43.50792" lon="3.74192">
        <ele>94.3</ele>
        <time>2013-05-05T09:35:23Z</time>
      </trkpt>
      <trkpt lat="43.50796" lon="3.74185">
        <ele>93.9</ele>
        <time>2013-05-05T09:35:24Z</time>
      </trkpt>
      <trkpt lat="43.50798" lon="3.74178">
        <ele>93.6</ele>
        <time>2013-05-05T09:35:25Z</time>
      </trkpt>
      <trkpt lat="43.50799" lon="3.7417">
        <ele>92.9</ele>
        <time>2013-05-05T09:35:26Z</time>
      </trkpt>
      <trkpt lat="43.50799" lon="3.74162">
        <ele>92.3</ele>
        <time>2013-05-05T09:35:27Z</time>
      </trkpt>
      <trkpt lat="43.508" lon="3.74153">
        <ele>91.9</ele>
        <time>2013-05-05T09:35:28Z</time>
      </trkpt>
      <trkpt lat="43.508" lon="3.74144">
        <ele>91.4</ele>
        <time>2013-05-05T09:35:29Z</time>
      </trkpt>
      <trkpt lat="43.508" lon="3.74133">
        <ele>91</ele>
        <time>2013-05-05T09:35:30Z</time>
      </trkpt>
      <trkpt lat="43.50799" lon="3.74123">
        <ele>90.7</ele>
        <time>2013-05-05T09:35:31Z</time>
      </trkpt>
      <trkpt lat="43.50798" lon="3.74112">
        <ele>90.1</ele>
        <time>2013-05-05T09:35:32Z</time>
      </trkpt>
      <trkpt lat="43.50798" lon="3.74103">
        <ele>89.6</ele>
        <time>2013-05-05T09:35:33Z</time>
      </trkpt>
      <trkpt lat="43.50799" lon="3.74094">
        <ele>89.2</ele>
        <time>2013-05-05T09:35:34Z</time>
      </trkpt>
      <trkpt lat="43.50798" lon="3.74084">
        <ele>87.9</ele>
        <time>2013-05-05T09:35:36Z</time>
      </trkpt>
      <trkpt lat="43.508" lon="3.74076">
        <ele>86.7</ele>
        <time>2013-05-05T09:35:38Z</time>
      </trkpt>
      <trkpt lat="43.50801" lon="3.74065">
        <ele>86.1</ele>
        <time>2013-05-05T09:35:40Z</time>
      </trkpt>
      <trkpt lat="43.50801" lon="3.74058">
        <ele>85.9</ele>
        <time>2013-05-05T09:35:41Z</time>
      </trkpt>
      <trkpt lat="43.508" lon="3.74051">
        <ele>85.6</ele>
        <time>2013-05-05T09:35:42Z</time>
      </trkpt>
      <trkpt lat="43.50797" lon="3.74044">
        <ele>85.4</ele>
        <time>2013-05-05T09:35:43Z</time>
      </trkpt>
      <trkpt lat="43.50794" lon="3.74039">
        <ele>85.2</ele>
        <time>2013-05-05T09:35:44Z</time>
      </trkpt>
      <trkpt lat="43.50787" lon="3.74032">
        <ele>84</ele>
        <time>2013-05-05T09:35:46Z</time>
      </trkpt>
      <trkpt lat="43.50785" lon="3.74025">
        <ele>83.6</ele>
        <time>2013-05-05T09:35:48Z</time>
      </trkpt>
      <trkpt lat="43.50783" lon="3.74014">
        <ele>83.5</ele>
        <time>2013-05-05T09:35:50Z</time>
      </trkpt>
      <trkpt lat="43.50781" lon="3.74004">
        <ele>83.7</ele>
        <time>2013-05-05T09:35:52Z</time>
      </trkpt>
      <trkpt lat="43.50788" lon="3.73998">
        <ele>83.9</ele>
        <time>2013-05-05T09:35:56Z</time>
      </trkpt>
      <trkpt lat="43.50794" lon="3.74003">
        <ele>84</ele>
        <time>2013-05-05T09:35:59Z</time>
      </trkpt>
      <trkpt lat="43.50799" lon="3.7401">
        <ele>84.1</ele>
        <time>2013-05-05T09:36:01Z</time>
      </trkpt>
      <trkpt lat="43.50804" lon="3.74018">
        <ele>84.1</ele>
        <time>2013-05-05T09:36:03Z</time>
      </trkpt>
      <trkpt lat="43.50808" lon="3.74027">
        <ele>84.2</ele>
        <time>2013-05-05T09:36:05Z</time>
      </trkpt>
      <trkpt lat="43.50811" lon="3.74036">
        <ele>84.3</ele>
        <time>2013-05-05T09:36:07Z</time>
      </trkpt>
      <trkpt lat="43.50815" lon="3.74046">
        <ele>84.1</ele>
        <time>2013-05-05T09:36:09Z</time>
      </trkpt>
      <trkpt lat="43.50818" lon="3.74056">
        <ele>84.7</ele>
        <time>2013-05-05T09:36:11Z</time>
      </trkpt>
      <trkpt lat="43.50822" lon="3.74066">
        <ele>85.6</ele>
        <time>2013-05-05T09:36:13Z</time>
      </trkpt>
      <trkpt lat="43.50824" lon="3.74072">
        <ele>86.2</ele>
        <time>2013-05-05T09:36:14Z</time>
      </trkpt>
      <trkpt lat="43.5083" lon="3.74087">
        <ele>87.8</ele>
        <time>2013-05-05T09:36:17Z</time>
      </trkpt>
      <trkpt lat="43.50835" lon="3.74097">
        <ele>88.9</ele>
        <time>2013-05-05T09:36:19Z</time>
      </trkpt>
      <trkpt lat="43.5084" lon="3.74106">
        <ele>89.5</ele>
        <time>2013-05-05T09:36:21Z</time>
      </trkpt>
      <trkpt lat="43.50844" lon="3.74115">
        <ele>89.8</ele>
        <time>2013-05-05T09:36:23Z</time>
      </trkpt>
      <trkpt lat="43.50849" lon="3.74122">
        <ele>89.2</ele>
        <time>2013-05-05T09:36:25Z</time>
      </trkpt>
      <trkpt lat="43.50853" lon="3.74128">
        <ele>89</ele>
        <time>2013-05-05T09:36:27Z</time>
      </trkpt>
      <trkpt lat="43.50857" lon="3.74135">
        <ele>88.8</ele>
        <time>2013-05-05T09:36:29Z</time>
      </trkpt>
      <trkpt lat="43.50861" lon="3.74142">
        <ele>90.5</ele>
        <time>2013-05-05T09:36:31Z</time>
      </trkpt>
      <trkpt lat="43.50867" lon="3.74149">
        <ele>91.4</ele>
        <time>2013-05-05T09:36:33Z</time>
      </trkpt>
      <trkpt lat="43.50873" lon="3.74157">
        <ele>91.8</ele>
        <time>2013-05-05T09:36:35Z</time>
      </trkpt>
      <trkpt lat="43.50876" lon="3.74161">
        <ele>91.5</ele>
        <time>2013-05-05T09:36:36Z</time>
      </trkpt>
      <trkpt lat="43.5088" lon="3.74166">
        <ele>91.3</ele>
        <time>2013-05-05T09:36:37Z</time>
      </trkpt>
      <trkpt lat="43.50883" lon="3.7417">
        <ele>91.1</ele>
        <time>2013-05-05T09:36:38Z</time>
      </trkpt>
      <trkpt lat="43.50887" lon="3.74176">
        <ele>91</ele>
        <time>2013-05-05T09:36:39Z</time>
      </trkpt>
      <trkpt lat="43.50892" lon="3.74181">
        <ele>90.9</ele>
        <time>2013-05-05T09:36:40Z</time>
      </trkpt>
      <trkpt lat="43.50896" lon="3.74187">
        <ele>90.8</ele>
        <time>2013-05-05T09:36:41Z</time>
      </trkpt>
      <trkpt lat="43.50901" lon="3.74193">
        <ele>90.7</ele>
        <time>2013-05-05T09:36:42Z</time>
      </trkpt>
      <trkpt lat="43.50906" lon="3.742">
        <ele>90.7</ele>
        <time>2013-05-05T09:36:43Z</time>
      </trkpt>
      <trkpt lat="43.50911" lon="3.74206">
        <ele>90.7</ele>
        <time>2013-05-05T09:36:44Z</time>
      </trkpt>
      <trkpt lat="43.50917" lon="3.74214">
        <ele>90.7</ele>
        <time>2013-05-05T09:36:45Z</time>
      </trkpt>
      <trkpt lat="43.50922" lon="3.74221">
        <ele>90.4</ele>
        <time>2013-05-05T09:36:46Z</time>
      </trkpt>
      <trkpt lat="43.50928" lon="3.74228">
        <ele>90.2</ele>
        <time>2013-05-05T09:36:47Z</time>
      </trkpt>
      <trkpt lat="43.50933" lon="3.74236">
        <ele>90</ele>
        <time>2013-05-05T09:36:48Z</time>
      </trkpt>
      <trkpt lat="43.50939" lon="3.74244">
        <ele>89.3</ele>
        <time>2013-05-05T09:36:49Z</time>
      </trkpt>
      <trkpt lat="43.50946" lon="3.74252">
        <ele>88.8</ele>
        <time>2013-05-05T09:36:50Z</time>
      </trkpt>
      <trkpt lat="43.50952" lon="3.7426">
        <ele>88.5</ele>
        <time>2013-05-05T09:36:51Z</time>
      </trkpt>
      <trkpt lat="43.50958" lon="3.74268">
        <ele>88</ele>
        <time>2013-05-05T09:36:52Z</time>
      </trkpt>
      <trkpt lat="43.50965" lon="3.74277">
        <ele>87.7</ele>
        <time>2013-05-05T09:36:53Z</time>
      </trkpt>
      <trkpt lat="43.50971" lon="3.74286">
        <ele>87.5</ele>
        <time>2013-05-05T09:36:54Z</time>
      </trkpt>
      <trkpt lat="43.50977" lon="3.74294">
        <ele>87</ele>
        <time>2013-05-05T09:36:55Z</time>
      </trkpt>
      <trkpt lat="43.50983" lon="3.74302">
        <ele>86.6</ele>
        <time>2013-05-05T09:36:56Z</time>
      </trkpt>
      <trkpt lat="43.50989" lon="3.7431">
        <ele>86.4</ele>
        <time>2013-05-05T09:36:57Z</time>
      </trkpt>
      <trkpt lat="43.50995" lon="3.74317">
        <ele>86.2</ele>
        <time>2013-05-05T09:36:58Z</time>
      </trkpt>
      <trkpt lat="43.51001" lon="3.74324">
        <ele>86.1</ele>
        <time>2013-05-05T09:36:59Z</time>
      </trkpt>
      <trkpt lat="43.51006" lon="3.7433">
        <ele>86</ele>
        <time>2013-05-05T09:37:00Z</time>
      </trkpt>
      <trkpt lat="43.51011" lon="3.74336">
        <ele>86</ele>
        <time>2013-05-05T09:37:01Z</time>
      </trkpt>
      <trkpt lat="43.51016" lon="3.74341">
        <ele>86</ele>
        <time>2013-05-05T09:37:02Z</time>
      </trkpt>
      <trkpt lat="43.5102" lon="3.74346">
        <ele>86</ele>
        <time>2013-05-05T09:37:03Z</time>
      </trkpt>
      <trkpt lat="43.51024" lon="3.74351">
        <ele>85.9</ele>
        <time>2013-05-05T09:37:04Z</time>
      </trkpt>
      <trkpt lat="43.51028" lon="3.74355">
        <ele>86.3</ele>
        <time>2013-05-05T09:37:05Z</time>
      </trkpt>
      <trkpt lat="43.51032" lon="3.74359">
        <ele>86.6</ele>
        <time>2013-05-05T09:37:06Z</time>
      </trkpt>
      <trkpt lat="43.51036" lon="3.74363">
        <ele>86.9</ele>
        <time>2013-05-05T09:37:07Z</time>
      </trkpt>
      <trkpt lat="43.51039" lon="3.74367">
        <ele>87.2</ele>
        <time>2013-05-05T09:37:08Z</time>
      </trkpt>
      <trkpt lat="43.51043" lon="3.74371">
        <ele>87.5</ele>
        <time>2013-05-05T09:37:09Z</time>
      </trkpt>
      <trkpt lat="43.51046" lon="3.74376">
        <ele>87.7</ele>
        <time>2013-05-05T09:37:10Z</time>
      </trkpt>
      <trkpt lat="43.51049" lon="3.7438">
        <ele>87.9</ele>
        <time>2013-05-05T09:37:11Z</time>
      </trkpt>
      <trkpt lat="43.51052" lon="3.74385">
        <ele>88.1</ele>
        <time>2013-05-05T09:37:12Z</time>
      </trkpt>
      <trkpt lat="43.51058" lon="3.74394">
        <ele>88.3</ele>
        <time>2013-05-05T09:37:14Z</time>
      </trkpt>
      <trkpt lat="43.51062" lon="3.74402">
        <ele>88.8</ele>
        <time>2013-05-05T09:37:16Z</time>
      </trkpt>
      <trkpt lat="43.51064" lon="3.74406">
        <ele>89</ele>
        <time>2013-05-05T09:37:17Z</time>
      </trkpt>
      <trkpt lat="43.51071" lon="3.74416">
        <ele>89.7</ele>
        <time>2013-05-05T09:37:20Z</time>
      </trkpt>
      <trkpt lat="43.51078" lon="3.74423">
        <ele>90.7</ele>
        <time>2013-05-05T09:37:23Z</time>
      </trkpt>
      <trkpt lat="43.51085" lon="3.74429">
        <ele>91.1</ele>
        <time>2013-05-05T09:37:26Z</time>
      </trkpt>
      <trkpt lat="43.51093" lon="3.74429">
        <ele>92.1</ele>
        <time>2013-05-05T09:37:30Z</time>
      </trkpt>
      <trkpt lat="43.511" lon="3.74422">
        <ele>91.1</ele>
        <time>2013-05-05T09:37:35Z</time>
      </trkpt>
      <trkpt lat="43.51106" lon="3.74413">
        <ele>90.5</ele>
        <time>2013-05-05T09:37:39Z</time>
      </trkpt>
      <trkpt lat="43.51112" lon="3.74404">
        <ele>91.4</ele>
        <time>2013-05-05T09:37:43Z</time>
      </trkpt>
      <trkpt lat="43.51116" lon="3.74396">
        <ele>91.7</ele>
        <time>2013-05-05T09:37:46Z</time>
      </trkpt>
      <trkpt lat="43.51121" lon="3.74387">
        <ele>91.4</ele>
        <time>2013-05-05T09:37:49Z</time>
      </trkpt>
      <trkpt lat="43.51126" lon="3.74378">
        <ele>91.6</ele>
        <time>2013-05-05T09:37:53Z</time>
      </trkpt>
      <trkpt lat="43.51133" lon="3.74372">
        <ele>91.7</ele>
        <time>2013-05-05T09:37:57Z</time>
      </trkpt>
      <trkpt lat="43.5114" lon="3.74374">
        <ele>91.1</ele>
        <time>2013-05-05T09:38:00Z</time>
      </trkpt>
      <trkpt lat="43.51144" lon="3.74379">
        <ele>91</ele>
        <time>2013-05-05T09:38:02Z</time>
      </trkpt>
      <trkpt lat="43.5115" lon="3.74386">
        <ele>91</ele>
        <time>2013-05-05T09:38:04Z</time>
      </trkpt>
      <trkpt lat="43.51155" lon="3.74393">
        <ele>90.9</ele>
        <time>2013-05-05T09:38:06Z</time>
      </trkpt>
      <trkpt lat="43.51159" lon="3.74398">
        <ele>90.8</ele>
        <time>2013-05-05T09:38:07Z</time>
      </trkpt>
      <trkpt lat="43.51163" lon="3.74403">
        <ele>90.8</ele>
        <time>2013-05-05T09:38:08Z</time>
      </trkpt>
      <trkpt lat="43.51169" lon="3.74412">
        <ele>90.7</ele>
        <time>2013-05-05T09:38:10Z</time>
      </trkpt>
      <trkpt lat="43.51176" lon="3.74411">
        <ele>88.6</ele>
        <time>2013-05-05T09:38:15Z</time>
      </trkpt>
      <trkpt lat="43.51185" lon="3.7441">
        <ele>87</ele>
        <time>2013-05-05T09:38:19Z</time>
      </trkpt>
      <trkpt lat="43.51187" lon="3.74408">
        <ele>86.8</ele>
        <time>2013-05-05T09:38:20Z</time>
      </trkpt>
      <trkpt lat="43.51195" lon="3.744">
        <ele>87.3</ele>
        <time>2013-05-05T09:38:23Z</time>
      </trkpt>
      <trkpt lat="43.51201" lon="3.74399">
        <ele>87</ele>
        <time>2013-05-05T09:38:25Z</time>
      </trkpt>
      <trkpt lat="43.51209" lon="3.744">
        <ele>86.3</ele>
        <time>2013-05-05T09:38:27Z</time>
      </trkpt>
      <trkpt lat="43.51218" lon="3.74399">
        <ele>85.4</ele>
        <time>2013-05-05T09:38:29Z</time>
      </trkpt>
      <trkpt lat="43.51223" lon="3.74397">
        <ele>85.2</ele>
        <time>2013-05-05T09:38:30Z</time>
      </trkpt>
      <trkpt lat="43.51228" lon="3.74396">
        <ele>85.2</ele>
        <time>2013-05-05T09:38:31Z</time>
      </trkpt>
      <trkpt lat="43.51236" lon="3.74391">
        <ele>85.3</ele>
        <time>2013-05-05T09:38:33Z</time>
      </trkpt>
      <trkpt lat="43.51239" lon="3.74386">
        <ele>85.2</ele>
        <time>2013-05-05T09:38:34Z</time>
      </trkpt>
      <trkpt lat="43.51245" lon="3.74377">
        <ele>85</ele>
        <time>2013-05-05T09:38:36Z</time>
      </trkpt>
      <trkpt lat="43.51248" lon="3.74372">
        <ele>84.9</ele>
        <time>2013-05-05T09:38:37Z</time>
      </trkpt>
      <trkpt lat="43.51251" lon="3.74367">
        <ele>84.4</ele>
        <time>2013-05-05T09:38:38Z</time>
      </trkpt>
      <trkpt lat="43.51254" lon="3.74361">
        <ele>84</ele>
        <time>2013-05-05T09:38:39Z</time>
      </trkpt>
      <trkpt lat="43.51257" lon="3.74355">
        <ele>83.8</ele>
        <time>2013-05-05T09:38:40Z</time>
      </trkpt>
      <trkpt lat="43.51259" lon="3.7435">
        <ele>83.6</ele>
        <time>2013-05-05T09:38:41Z</time>
      </trkpt>
      <trkpt lat="43.51262" lon="3.74344">
        <ele>83.5</ele>
        <time>2013-05-05T09:38:42Z</time>
      </trkpt>
      <trkpt lat="43.51265" lon="3.74339">
        <ele>83.4</ele>
        <time>2013-05-05T09:38:43Z</time>
      </trkpt>
      <trkpt lat="43.51268" lon="3.74334">
        <ele>82.8</ele>
        <time>2013-05-05T09:38:44Z</time>
      </trkpt>
      <trkpt lat="43.51271" lon="3.74329">
        <ele>82.4</ele>
        <time>2013-05-05T09:38:45Z</time>
      </trkpt>
      <trkpt lat="43.51275" lon="3.74324">
        <ele>82.1</ele>
        <time>2013-05-05T09:38:46Z</time>
      </trkpt>
      <trkpt lat="43.51278" lon="3.74319">
        <ele>82.2</ele>
        <time>2013-05-05T09:38:47Z</time>
      </trkpt>
      <trkpt lat="43.51281" lon="3.74314">
        <ele>82.3</ele>
        <time>2013-05-05T09:38:48Z</time>
      </trkpt>
      <trkpt lat="43.51284" lon="3.74308">
        <ele>82.4</ele>
        <time>2013-05-05T09:38:49Z</time>
      </trkpt>
      <trkpt lat="43.51287" lon="3.74303">
        <ele>81.7</ele>
        <time>2013-05-05T09:38:50Z</time>
      </trkpt>
      <trkpt lat="43.51291" lon="3.74297">
        <ele>81.2</ele>
        <time>2013-05-05T09:38:51Z</time>
      </trkpt>
      <trkpt lat="43.51294" lon="3.74291">
        <ele>80.9</ele>
        <time>2013-05-05T09:38:52Z</time>
      </trkpt>
      <trkpt lat="43.51298" lon="3.74285">
        <ele>80.6</ele>
        <time>2013-05-05T09:38:53Z</time>
      </trkpt>
      <trkpt lat="43.51301" lon="3.74279">
        <ele>80.6</ele>
        <time>2013-05-05T09:38:54Z</time>
      </trkpt>
      <trkpt lat="43.51305" lon="3.74272">
        <ele>80.6</ele>
        <time>2013-05-05T09:38:55Z</time>
      </trkpt>
      <trkpt lat="43.51309" lon="3.74266">
        <ele>80.6</ele>
        <time>2013-05-05T09:38:56Z</time>
      </trkpt>
      <trkpt lat="43.51312" lon="3.7426">
        <ele>80.5</ele>
        <time>2013-05-05T09:38:57Z</time>
      </trkpt>
      <trkpt lat="43.51316" lon="3.74253">
        <ele>80.4</ele>
        <time>2013-05-05T09:38:58Z</time>
      </trkpt>
      <trkpt lat="43.5132" lon="3.74247">
        <ele>80.3</ele>
        <time>2013-05-05T09:38:59Z</time>
      </trkpt>
      <trkpt lat="43.51323" lon="3.74242">
        <ele>79.9</ele>
        <time>2013-05-05T09:39:00Z</time>
      </trkpt>
      <trkpt lat="43.51326" lon="3.74236">
        <ele>79.6</ele>
        <time>2013-05-05T09:39:01Z</time>
      </trkpt>
      <trkpt lat="43.5133" lon="3.74231">
        <ele>79.4</ele>
        <time>2013-05-05T09:39:02Z</time>
      </trkpt>
      <trkpt lat="43.51334" lon="3.74226">
        <ele>79</ele>
        <time>2013-05-05T09:39:03Z</time>
      </trkpt>
      <trkpt lat="43.51337" lon="3.7422">
        <ele>78.7</ele>
        <time>2013-05-05T09:39:04Z</time>
      </trkpt>
      <trkpt lat="43.51341" lon="3.74214">
        <ele>78.5</ele>
        <time>2013-05-05T09:39:05Z</time>
      </trkpt>
      <trkpt lat="43.51345" lon="3.74208">
        <ele>78.4</ele>
        <time>2013-05-05T09:39:06Z</time>
      </trkpt>
      <trkpt lat="43.51349" lon="3.74201">
        <ele>78.3</ele>
        <time>2013-05-05T09:39:07Z</time>
      </trkpt>
      <trkpt lat="43.51353" lon="3.74195">
        <ele>78.3</ele>
        <time>2013-05-05T09:39:08Z</time>
      </trkpt>
      <trkpt lat="43.51357" lon="3.74188">
        <ele>78.2</ele>
        <time>2013-05-05T09:39:09Z</time>
      </trkpt>
      <trkpt lat="43.51361" lon="3.74181">
        <ele>78.1</ele>
        <time>2013-05-05T09:39:10Z</time>
      </trkpt>
      <trkpt lat="43.51365" lon="3.74174">
        <ele>78</ele>
        <time>2013-05-05T09:39:11Z</time>
      </trkpt>
      <trkpt lat="43.51369" lon="3.74167">
        <ele>77.9</ele>
        <time>2013-05-05T09:39:12Z</time>
      </trkpt>
      <trkpt lat="43.51374" lon="3.74159">
        <ele>77.7</ele>
        <time>2013-05-05T09:39:13Z</time>
      </trkpt>
      <trkpt lat="43.51378" lon="3.74151">
        <ele>77.5</ele>
        <time>2013-05-05T09:39:14Z</time>
      </trkpt>
      <trkpt lat="43.51382" lon="3.74143">
        <ele>77.4</ele>
        <time>2013-05-05T09:39:15Z</time>
      </trkpt>
      <trkpt lat="43.51386" lon="3.74136">
        <ele>76.9</ele>
        <time>2013-05-05T09:39:16Z</time>
      </trkpt>
      <trkpt lat="43.5139" lon="3.74128">
        <ele>76.5</ele>
        <time>2013-05-05T09:39:17Z</time>
      </trkpt>
      <trkpt lat="43.51394" lon="3.74121">
        <ele>76.2</ele>
        <time>2013-05-05T09:39:18Z</time>
      </trkpt>
      <trkpt lat="43.51398" lon="3.74113">
        <ele>76.3</ele>
        <time>2013-05-05T09:39:19Z</time>
      </trkpt>
      <trkpt lat="43.51402" lon="3.74106">
        <ele>76.4</ele>
        <time>2013-05-05T09:39:20Z</time>
      </trkpt>
      <trkpt lat="43.51406" lon="3.74099">
        <ele>76.5</ele>
        <time>2013-05-05T09:39:21Z</time>
      </trkpt>
      <trkpt lat="43.5141" lon="3.74092">
        <ele>76.2</ele>
        <time>2013-05-05T09:39:22Z</time>
      </trkpt>
      <trkpt lat="43.51412" lon="3.74085">
        <ele>76</ele>
        <time>2013-05-05T09:39:23Z</time>
      </trkpt>
      <trkpt lat="43.51413" lon="3.74073">
        <ele>74.9</ele>
        <time>2013-05-05T09:39:25Z</time>
      </trkpt>
      <trkpt lat="43.51409" lon="3.74065">
        <ele>73.6</ele>
        <time>2013-05-05T09:39:27Z</time>
      </trkpt>
      <trkpt lat="43.51403" lon="3.74059">
        <ele>73.2</ele>
        <time>2013-05-05T09:39:29Z</time>
      </trkpt>
      <trkpt lat="43.51399" lon="3.74055">
        <ele>73.2</ele>
        <time>2013-05-05T09:39:30Z</time>
      </trkpt>
      <trkpt lat="43.51395" lon="3.7405">
        <ele>73.2</ele>
        <time>2013-05-05T09:39:31Z</time>
      </trkpt>
      <trkpt lat="43.51392" lon="3.74043">
        <ele>73</ele>
        <time>2013-05-05T09:39:32Z</time>
      </trkpt>
      <trkpt lat="43.51391" lon="3.74035">
        <ele>72.9</ele>
        <time>2013-05-05T09:39:33Z</time>
      </trkpt>
      <trkpt lat="43.51392" lon="3.74027">
        <ele>72.8</ele>
        <time>2013-05-05T09:39:34Z</time>
      </trkpt>
      <trkpt lat="43.51394" lon="3.7402">
        <ele>72.8</ele>
        <time>2013-05-05T09:39:35Z</time>
      </trkpt>
      <trkpt lat="43.51398" lon="3.74014">
        <ele>72.7</ele>
        <time>2013-05-05T09:39:36Z</time>
      </trkpt>
      <trkpt lat="43.51402" lon="3.74009">
        <ele>72.7</ele>
        <time>2013-05-05T09:39:37Z</time>
      </trkpt>
      <trkpt lat="43.51406" lon="3.74003">
        <ele>72.9</ele>
        <time>2013-05-05T09:39:38Z</time>
      </trkpt>
      <trkpt lat="43.5141" lon="3.73998">
        <ele>73.1</ele>
        <time>2013-05-05T09:39:39Z</time>
      </trkpt>
      <trkpt lat="43.51414" lon="3.73992">
        <ele>73.2</ele>
        <time>2013-05-05T09:39:40Z</time>
      </trkpt>
      <trkpt lat="43.51418" lon="3.73986">
        <ele>73.1</ele>
        <time>2013-05-05T09:39:41Z</time>
      </trkpt>
      <trkpt lat="43.51422" lon="3.7398">
        <ele>73.1</ele>
        <time>2013-05-05T09:39:42Z</time>
      </trkpt>
      <trkpt lat="43.51426" lon="3.73974">
        <ele>73</ele>
        <time>2013-05-05T09:39:43Z</time>
      </trkpt>
      <trkpt lat="43.5143" lon="3.73967">
        <ele>73</ele>
        <time>2013-05-05T09:39:44Z</time>
      </trkpt>
      <trkpt lat="43.51434" lon="3.73961">
        <ele>73</ele>
        <time>2013-05-05T09:39:45Z</time>
      </trkpt>
      <trkpt lat="43.51437" lon="3.73954">
        <ele>73</ele>
        <time>2013-05-05T09:39:46Z</time>
      </trkpt>
      <trkpt lat="43.5144" lon="3.73946">
        <ele>73</ele>
        <time>2013-05-05T09:39:47Z</time>
      </trkpt>
      <trkpt lat="43.51443" lon="3.73939">
        <ele>72.7</ele>
        <time>2013-05-05T09:39:48Z</time>
      </trkpt>
      <trkpt lat="43.51445" lon="3.73932">
        <ele>72.4</ele>
        <time>2013-05-05T09:39:49Z</time>
      </trkpt>
      <trkpt lat="43.51447" lon="3.73925">
        <ele>72.2</ele>
        <time>2013-05-05T09:39:50Z</time>
      </trkpt>
      <trkpt lat="43.51449" lon="3.73917">
        <ele>72.3</ele>
        <time>2013-05-05T09:39:51Z</time>
      </trkpt>
      <trkpt lat="43.5145" lon="3.7391">
        <ele>72.4</ele>
        <time>2013-05-05T09:39:52Z</time>
      </trkpt>
      <trkpt lat="43.51452" lon="3.73903">
        <ele>72.5</ele>
        <time>2013-05-05T09:39:53Z</time>
      </trkpt>
      <trkpt lat="43.51454" lon="3.73895">
        <ele>72.7</ele>
        <time>2013-05-05T09:39:54Z</time>
      </trkpt>
      <trkpt lat="43.51457" lon="3.73888">
        <ele>72.9</ele>
        <time>2013-05-05T09:39:55Z</time>
      </trkpt>
      <trkpt lat="43.51459" lon="3.7388">
        <ele>73.1</ele>
        <time>2013-05-05T09:39:56Z</time>
      </trkpt>
      <trkpt lat="43.51462" lon="3.73873">
        <ele>72.7</ele>
        <time>2013-05-05T09:39:57Z</time>
      </trkpt>
      <trkpt lat="43.51465" lon="3.73865">
        <ele>72.4</ele>
        <time>2013-05-05T09:39:58Z</time>
      </trkpt>
      <trkpt lat="43.51469" lon="3.73858">
        <ele>72.2</ele>
        <time>2013-05-05T09:39:59Z</time>
      </trkpt>
      <trkpt lat="43.51474" lon="3.7385">
        <ele>72</ele>
        <time>2013-05-05T09:40:00Z</time>
      </trkpt>
      <trkpt lat="43.51478" lon="3.73841">
        <ele>71.8</ele>
        <time>2013-05-05T09:40:01Z</time>
      </trkpt>
      <trkpt lat="43.51483" lon="3.73833">
        <ele>71.7</ele>
        <time>2013-05-05T09:40:02Z</time>
      </trkpt>
      <trkpt lat="43.51488" lon="3.73824">
        <ele>71.6</ele>
        <time>2013-05-05T09:40:03Z</time>
      </trkpt>
      <trkpt lat="43.51493" lon="3.73815">
        <ele>71.2</ele>
        <time>2013-05-05T09:40:04Z</time>
      </trkpt>
      <trkpt lat="43.51498" lon="3.73806">
        <ele>70.9</ele>
        <time>2013-05-05T09:40:05Z</time>
      </trkpt>
      <trkpt lat="43.51503" lon="3.73797">
        <ele>70.7</ele>
        <time>2013-05-05T09:40:06Z</time>
      </trkpt>
      <trkpt lat="43.51508" lon="3.73789">
        <ele>69.9</ele>
        <time>2013-05-05T09:40:07Z</time>
      </trkpt>
      <trkpt lat="43.51513" lon="3.7378">
        <ele>69.4</ele>
        <time>2013-05-05T09:40:08Z</time>
      </trkpt>
      <trkpt lat="43.51518" lon="3.73772">
        <ele>69</ele>
        <time>2013-05-05T09:40:09Z</time>
      </trkpt>
      <trkpt lat="43.51522" lon="3.73764">
        <ele>68.7</ele>
        <time>2013-05-05T09:40:10Z</time>
      </trkpt>
      <trkpt lat="43.51527" lon="3.73756">
        <ele>68.5</ele>
        <time>2013-05-05T09:40:11Z</time>
      </trkpt>
      <trkpt lat="43.51532" lon="3.73748">
        <ele>68.3</ele>
        <time>2013-05-05T09:40:12Z</time>
      </trkpt>
      <trkpt lat="43.51536" lon="3.7374">
        <ele>68.5</ele>
        <time>2013-05-05T09:40:13Z</time>
      </trkpt>
      <trkpt lat="43.5154" lon="3.73732">
        <ele>68.6</ele>
        <time>2013-05-05T09:40:14Z</time>
      </trkpt>
      <trkpt lat="43.51545" lon="3.73724">
        <ele>68.7</ele>
        <time>2013-05-05T09:40:15Z</time>
      </trkpt>
      <trkpt lat="43.51549" lon="3.73717">
        <ele>68.6</ele>
        <time>2013-05-05T09:40:16Z</time>
      </trkpt>
      <trkpt lat="43.51554" lon="3.73709">
        <ele>68.5</ele>
        <time>2013-05-05T09:40:17Z</time>
      </trkpt>
      <trkpt lat="43.51558" lon="3.73701">
        <ele>68.4</ele>
        <time>2013-05-05T09:40:18Z</time>
      </trkpt>
      <trkpt lat="43.51562" lon="3.73694">
        <ele>68.3</ele>
        <time>2013-05-05T09:40:19Z</time>
      </trkpt>
      <trkpt lat="43.51566" lon="3.73686">
        <ele>68.2</ele>
        <time>2013-05-05T09:40:20Z</time>
      </trkpt>
      <trkpt lat="43.51569" lon="3.73678">
        <ele>68.1</ele>
        <time>2013-05-05T09:40:21Z</time>
      </trkpt>
      <trkpt lat="43.51573" lon="3.73671">
        <ele>68</ele>
        <time>2013-05-05T09:40:22Z</time>
      </trkpt>
      <trkpt lat="43.51577" lon="3.73664">
        <ele>67.8</ele>
        <time>2013-05-05T09:40:23Z</time>
      </trkpt>
      <trkpt lat="43.51581" lon="3.73657">
        <ele>67.7</ele>
        <time>2013-05-05T09:40:24Z</time>
      </trkpt>
      <trkpt lat="43.51585" lon="3.73651">
        <ele>67.6</ele>
        <time>2013-05-05T09:40:25Z</time>
      </trkpt>
      <trkpt lat="43.51588" lon="3.73645">
        <ele>67.3</ele>
        <time>2013-05-05T09:40:26Z</time>
      </trkpt>
      <trkpt lat="43.51591" lon="3.7364">
        <ele>67.1</ele>
        <time>2013-05-05T09:40:27Z</time>
      </trkpt>
      <trkpt lat="43.51594" lon="3.73634">
        <ele>66.9</ele>
        <time>2013-05-05T09:40:28Z</time>
      </trkpt>
      <trkpt lat="43.51597" lon="3.73629">
        <ele>66.9</ele>
        <time>2013-05-05T09:40:29Z</time>
      </trkpt>
      <trkpt lat="43.51601" lon="3.73619">
        <ele>66.9</ele>
        <time>2013-05-05T09:40:31Z</time>
      </trkpt>
      <trkpt lat="43.51606" lon="3.7361">
        <ele>66.7</ele>
        <time>2013-05-05T09:40:33Z</time>
      </trkpt>
      <trkpt lat="43.5161" lon="3.73602">
        <ele>66.4</ele>
        <time>2013-05-05T09:40:35Z</time>
      </trkpt>
      <trkpt lat="43.51615" lon="3.73593">
        <ele>66.4</ele>
        <time>2013-05-05T09:40:37Z</time>
      </trkpt>
      <trkpt lat="43.51621" lon="3.73584">
        <ele>66</ele>
        <time>2013-05-05T09:40:39Z</time>
      </trkpt>
      <trkpt lat="43.51626" lon="3.73574">
        <ele>65.6</ele>
        <time>2013-05-05T09:40:41Z</time>
      </trkpt>
      <trkpt lat="43.51631" lon="3.73564">
        <ele>65.9</ele>
        <time>2013-05-05T09:40:43Z</time>
      </trkpt>
      <trkpt lat="43.51634" lon="3.7356">
        <ele>66</ele>
        <time>2013-05-05T09:40:44Z</time>
      </trkpt>
      <trkpt lat="43.51636" lon="3.73548">
        <ele>66.3</ele>
        <time>2013-05-05T09:40:46Z</time>
      </trkpt>
      <trkpt lat="43.51633" lon="3.73542">
        <ele>66.3</ele>
        <time>2013-05-05T09:40:47Z</time>
      </trkpt>
      <trkpt lat="43.5163" lon="3.73537">
        <ele>66</ele>
        <time>2013-05-05T09:40:48Z</time>
      </trkpt>
      <trkpt lat="43.51629" lon="3.7353">
        <ele>65.8</ele>
        <time>2013-05-05T09:40:49Z</time>
      </trkpt>
      <trkpt lat="43.5163" lon="3.73523">
        <ele>65.7</ele>
        <time>2013-05-05T09:40:50Z</time>
      </trkpt>
      <trkpt lat="43.51632" lon="3.73516">
        <ele>65.5</ele>
        <time>2013-05-05T09:40:51Z</time>
      </trkpt>
      <trkpt lat="43.51636" lon="3.73511">
        <ele>65.1</ele>
        <time>2013-05-05T09:40:52Z</time>
      </trkpt>
      <trkpt lat="43.51639" lon="3.73505">
        <ele>64.9</ele>
        <time>2013-05-05T09:40:53Z</time>
      </trkpt>
      <trkpt lat="43.51642" lon="3.73498">
        <ele>64.6</ele>
        <time>2013-05-05T09:40:54Z</time>
      </trkpt>
      <trkpt lat="43.51645" lon="3.73492">
        <ele>64.5</ele>
        <time>2013-05-05T09:40:55Z</time>
      </trkpt>
      <trkpt lat="43.51648" lon="3.73486">
        <ele>64.4</ele>
        <time>2013-05-05T09:40:56Z</time>
      </trkpt>
      <trkpt lat="43.51652" lon="3.73481">
        <ele>64.3</ele>
        <time>2013-05-05T09:40:57Z</time>
      </trkpt>
      <trkpt lat="43.51655" lon="3.73475">
        <ele>64.2</ele>
        <time>2013-05-05T09:40:58Z</time>
      </trkpt>
      <trkpt lat="43.51659" lon="3.73469">
        <ele>64.1</ele>
        <time>2013-05-05T09:40:59Z</time>
      </trkpt>
      <trkpt lat="43.51662" lon="3.73463">
        <ele>64</ele>
        <time>2013-05-05T09:41:00Z</time>
      </trkpt>
      <trkpt lat="43.51665" lon="3.73457">
        <ele>63.4</ele>
        <time>2013-05-05T09:41:01Z</time>
      </trkpt>
      <trkpt lat="43.51668" lon="3.73451">
        <ele>63</ele>
        <time>2013-05-05T09:41:02Z</time>
      </trkpt>
      <trkpt lat="43.51671" lon="3.73445">
        <ele>62.6</ele>
        <time>2013-05-05T09:41:03Z</time>
      </trkpt>
      <trkpt lat="43.51674" lon="3.73439">
        <ele>62.7</ele>
        <time>2013-05-05T09:41:04Z</time>
      </trkpt>
      <trkpt lat="43.51678" lon="3.73434">
        <ele>62.7</ele>
        <time>2013-05-05T09:41:05Z</time>
      </trkpt>
      <trkpt lat="43.51681" lon="3.73428">
        <ele>62.7</ele>
        <time>2013-05-05T09:41:06Z</time>
      </trkpt>
      <trkpt lat="43.51684" lon="3.73422">
        <ele>62.7</ele>
        <time>2013-05-05T09:41:07Z</time>
      </trkpt>
      <trkpt lat="43.51687" lon="3.73416">
        <ele>62.4</ele>
        <time>2013-05-05T09:41:08Z</time>
      </trkpt>
      <trkpt lat="43.5169" lon="3.7341">
        <ele>62.2</ele>
        <time>2013-05-05T09:41:09Z</time>
      </trkpt>
      <trkpt lat="43.51693" lon="3.73405">
        <ele>62.1</ele>
        <time>2013-05-05T09:41:10Z</time>
      </trkpt>
      <trkpt lat="43.51696" lon="3.73399">
        <ele>61.9</ele>
        <time>2013-05-05T09:41:11Z</time>
      </trkpt>
      <trkpt lat="43.517" lon="3.73394">
        <ele>61.8</ele>
        <time>2013-05-05T09:41:12Z</time>
      </trkpt>
      <trkpt lat="43.51703" lon="3.73388">
        <ele>61.7</ele>
        <time>2013-05-05T09:41:13Z</time>
      </trkpt>
      <trkpt lat="43.51706" lon="3.73383">
        <ele>61.5</ele>
        <time>2013-05-05T09:41:14Z</time>
      </trkpt>
      <trkpt lat="43.51709" lon="3.73377">
        <ele>61.4</ele>
        <time>2013-05-05T09:41:15Z</time>
      </trkpt>
      <trkpt lat="43.51712" lon="3.73372">
        <ele>61.3</ele>
        <time>2013-05-05T09:41:16Z</time>
      </trkpt>
      <trkpt lat="43.51715" lon="3.73366">
        <ele>61.5</ele>
        <time>2013-05-05T09:41:17Z</time>
      </trkpt>
      <trkpt lat="43.51718" lon="3.73361">
        <ele>61.6</ele>
        <time>2013-05-05T09:41:18Z</time>
      </trkpt>
      <trkpt lat="43.51721" lon="3.73356">
        <ele>61.7</ele>
        <time>2013-05-05T09:41:19Z</time>
      </trkpt>
      <trkpt lat="43.51724" lon="3.7335">
        <ele>61.5</ele>
        <time>2013-05-05T09:41:20Z</time>
      </trkpt>
      <trkpt lat="43.51727" lon="3.73344">
        <ele>61.3</ele>
        <time>2013-05-05T09:41:21Z</time>
      </trkpt>
      <trkpt lat="43.5173" lon="3.73338">
        <ele>61.2</ele>
        <time>2013-05-05T09:41:22Z</time>
      </trkpt>
      <trkpt lat="43.51733" lon="3.73333">
        <ele>61.1</ele>
        <time>2013-05-05T09:41:23Z</time>
      </trkpt>
      <trkpt lat="43.51737" lon="3.73326">
        <ele>60.9</ele>
        <time>2013-05-05T09:41:24Z</time>
      </trkpt>
      <trkpt lat="43.5174" lon="3.7332">
        <ele>60.8</ele>
        <time>2013-05-05T09:41:25Z</time>
      </trkpt>
      <trkpt lat="43.51744" lon="3.73314">
        <ele>60.7</ele>
        <time>2013-05-05T09:41:26Z</time>
      </trkpt>
      <trkpt lat="43.51747" lon="3.73308">
        <ele>60.5</ele>
        <time>2013-05-05T09:41:27Z</time>
      </trkpt>
      <trkpt lat="43.51751" lon="3.73302">
        <ele>60.3</ele>
        <time>2013-05-05T09:41:28Z</time>
      </trkpt>
      <trkpt lat="43.51754" lon="3.73296">
        <ele>60.2</ele>
        <time>2013-05-05T09:41:29Z</time>
      </trkpt>
      <trkpt lat="43.51758" lon="3.73289">
        <ele>60.1</ele>
        <time>2013-05-05T09:41:30Z</time>
      </trkpt>
      <trkpt lat="43.51761" lon="3.73283">
        <ele>60.1</ele>
        <time>2013-05-05T09:41:31Z</time>
      </trkpt>
      <trkpt lat="43.51764" lon="3.73277">
        <ele>60</ele>
        <time>2013-05-05T09:41:32Z</time>
      </trkpt>
      <trkpt lat="43.51768" lon="3.73271">
        <ele>60</ele>
        <time>2013-05-05T09:41:33Z</time>
      </trkpt>
      <trkpt lat="43.51771" lon="3.73265">
        <ele>60</ele>
        <time>2013-05-05T09:41:34Z</time>
      </trkpt>
      <trkpt lat="43.51775" lon="3.73259">
        <ele>60</ele>
        <time>2013-05-05T09:41:35Z</time>
      </trkpt>
      <trkpt lat="43.51778" lon="3.73252">
        <ele>60.1</ele>
        <time>2013-05-05T09:41:36Z</time>
      </trkpt>
      <trkpt lat="43.51781" lon="3.73246">
        <ele>60.1</ele>
        <time>2013-05-05T09:41:37Z</time>
      </trkpt>
      <trkpt lat="43.51785" lon="3.7324">
        <ele>60.1</ele>
        <time>2013-05-05T09:41:38Z</time>
      </trkpt>
      <trkpt lat="43.51788" lon="3.73234">
        <ele>60.1</ele>
        <time>2013-05-05T09:41:39Z</time>
      </trkpt>
      <trkpt lat="43.51791" lon="3.73228">
        <ele>60</ele>
        <time>2013-05-05T09:41:40Z</time>
      </trkpt>
      <trkpt lat="43.51795" lon="3.73222">
        <ele>59.9</ele>
        <time>2013-05-05T09:41:41Z</time>
      </trkpt>
      <trkpt lat="43.51798" lon="3.73216">
        <ele>59.8</ele>
        <time>2013-05-05T09:41:42Z</time>
      </trkpt>
      <trkpt lat="43.51802" lon="3.7321">
        <ele>59.9</ele>
        <time>2013-05-05T09:41:43Z</time>
      </trkpt>
      <trkpt lat="43.51805" lon="3.73204">
        <ele>59.9</ele>
        <time>2013-05-05T09:41:44Z</time>
      </trkpt>
      <trkpt lat="43.51809" lon="3.73198">
        <ele>59.9</ele>
        <time>2013-05-05T09:41:45Z</time>
      </trkpt>
      <trkpt lat="43.51812" lon="3.73191">
        <ele>59.8</ele>
        <time>2013-05-05T09:41:46Z</time>
      </trkpt>
      <trkpt lat="43.51816" lon="3.73185">
        <ele>59.7</ele>
        <time>2013-05-05T09:41:47Z</time>
      </trkpt>
      <trkpt lat="43.51819" lon="3.73179">
        <ele>59.6</ele>
        <time>2013-05-05T09:41:48Z</time>
      </trkpt>
      <trkpt lat="43.51823" lon="3.73173">
        <ele>59.4</ele>
        <time>2013-05-05T09:41:49Z</time>
      </trkpt>
      <trkpt lat="43.51826" lon="3.73167">
        <ele>59.2</ele>
        <time>2013-05-05T09:41:50Z</time>
      </trkpt>
      <trkpt lat="43.5183" lon="3.7316">
        <ele>59.1</ele>
        <time>2013-05-05T09:41:51Z</time>
      </trkpt>
      <trkpt lat="43.51833" lon="3.73154">
        <ele>59.1</ele>
        <time>2013-05-05T09:41:52Z</time>
      </trkpt>
      <trkpt lat="43.51837" lon="3.73148">
        <ele>59</ele>
        <time>2013-05-05T09:41:53Z</time>
      </trkpt>
      <trkpt lat="43.5184" lon="3.73142">
        <ele>59</ele>
        <time>2013-05-05T09:41:54Z</time>
      </trkpt>
      <trkpt lat="43.51844" lon="3.73136">
        <ele>58.7</ele>
        <time>2013-05-05T09:41:55Z</time>
      </trkpt>
      <trkpt lat="43.51848" lon="3.73129">
        <ele>58.4</ele>
        <time>2013-05-05T09:41:56Z</time>
      </trkpt>
      <trkpt lat="43.51852" lon="3.73122">
        <ele>58.2</ele>
        <time>2013-05-05T09:41:57Z</time>
      </trkpt>
      <trkpt lat="43.51855" lon="3.73115">
        <ele>58.1</ele>
        <time>2013-05-05T09:41:58Z</time>
      </trkpt>
      <trkpt lat="43.51859" lon="3.73108">
        <ele>58</ele>
        <time>2013-05-05T09:41:59Z</time>
      </trkpt>
      <trkpt lat="43.51863" lon="3.73101">
        <ele>58</ele>
        <time>2013-05-05T09:42:00Z</time>
      </trkpt>
      <trkpt lat="43.51867" lon="3.73094">
        <ele>57.9</ele>
        <time>2013-05-05T09:42:01Z</time>
      </trkpt>
      <trkpt lat="43.51872" lon="3.73086">
        <ele>57.2</ele>
        <time>2013-05-05T09:42:02Z</time>
      </trkpt>
      <trkpt lat="43.51876" lon="3.73079">
        <ele>56.6</ele>
        <time>2013-05-05T09:42:03Z</time>
      </trkpt>
      <trkpt lat="43.5188" lon="3.73073">
        <ele>56.2</ele>
        <time>2013-05-05T09:42:04Z</time>
      </trkpt>
      <trkpt lat="43.51885" lon="3.73064">
        <ele>55.3</ele>
        <time>2013-05-05T09:42:06Z</time>
      </trkpt>
      <trkpt lat="43.51889" lon="3.73053">
        <ele>53.6</ele>
        <time>2013-05-05T09:42:30Z</time>
      </trkpt>
      <trkpt lat="43.5189" lon="3.7305">
        <ele>53.7</ele>
        <time>2013-05-05T09:42:31Z</time>
      </trkpt>
      <trkpt lat="43.51886" lon="3.73033">
        <ele>54.1</ele>
        <time>2013-05-05T09:42:35Z</time>
      </trkpt>
      <trkpt lat="43.51881" lon="3.73027">
        <ele>54.2</ele>
        <time>2013-05-05T09:42:37Z</time>
      </trkpt>
      <trkpt lat="43.51876" lon="3.73021">
        <ele>54.3</ele>
        <time>2013-05-05T09:42:39Z</time>
      </trkpt>
      <trkpt lat="43.51871" lon="3.73016">
        <ele>53.5</ele>
        <time>2013-05-05T09:42:41Z</time>
      </trkpt>
      <trkpt lat="43.51865" lon="3.7301">
        <ele>53.4</ele>
        <time>2013-05-05T09:42:43Z</time>
      </trkpt>
      <trkpt lat="43.51858" lon="3.73003">
        <ele>53.4</ele>
        <time>2013-05-05T09:42:45Z</time>
      </trkpt>
      <trkpt lat="43.51851" lon="3.72997">
        <ele>53.3</ele>
        <time>2013-05-05T09:42:47Z</time>
      </trkpt>
      <trkpt lat="43.51844" lon="3.72992">
        <ele>53.1</ele>
        <time>2013-05-05T09:42:49Z</time>
      </trkpt>
      <trkpt lat="43.51841" lon="3.72983">
        <ele>53.1</ele>
        <time>2013-05-05T09:42:51Z</time>
      </trkpt>
      <trkpt lat="43.51844" lon="3.72972">
        <ele>52.9</ele>
        <time>2013-05-05T09:42:53Z</time>
      </trkpt>
      <trkpt lat="43.51848" lon="3.72961">
        <ele>52.6</ele>
        <time>2013-05-05T09:42:55Z</time>
      </trkpt>
      <trkpt lat="43.51851" lon="3.72956">
        <ele>52.6</ele>
        <time>2013-05-05T09:42:56Z</time>
      </trkpt>
      <trkpt lat="43.51854" lon="3.72951">
        <ele>52.7</ele>
        <time>2013-05-05T09:42:57Z</time>
      </trkpt>
      <trkpt lat="43.51857" lon="3.72946">
        <ele>52.7</ele>
        <time>2013-05-05T09:42:58Z</time>
      </trkpt>
      <trkpt lat="43.5186" lon="3.72941">
        <ele>52.4</ele>
        <time>2013-05-05T09:42:59Z</time>
      </trkpt>
      <trkpt lat="43.51863" lon="3.72935">
        <ele>52.2</ele>
        <time>2013-05-05T09:43:00Z</time>
      </trkpt>
      <trkpt lat="43.51865" lon="3.72929">
        <ele>52</ele>
        <time>2013-05-05T09:43:01Z</time>
      </trkpt>
      <trkpt lat="43.51868" lon="3.72924">
        <ele>52</ele>
        <time>2013-05-05T09:43:02Z</time>
      </trkpt>
      <trkpt lat="43.51871" lon="3.72918">
        <ele>51.9</ele>
        <time>2013-05-05T09:43:03Z</time>
      </trkpt>
      <trkpt lat="43.51874" lon="3.72912">
        <ele>51.9</ele>
        <time>2013-05-05T09:43:04Z</time>
      </trkpt>
      <trkpt lat="43.51877" lon="3.72907">
        <ele>51.9</ele>
        <time>2013-05-05T09:43:05Z</time>
      </trkpt>
      <trkpt lat="43.5188" lon="3.72901">
        <ele>51.6</ele>
        <time>2013-05-05T09:43:06Z</time>
      </trkpt>
      <trkpt lat="43.51883" lon="3.72895">
        <ele>51.5</ele>
        <time>2013-05-05T09:43:07Z</time>
      </trkpt>
      <trkpt lat="43.51886" lon="3.72889">
        <ele>51.3</ele>
        <time>2013-05-05T09:43:08Z</time>
      </trkpt>
      <trkpt lat="43.5189" lon="3.72884">
        <ele>50.9</ele>
        <time>2013-05-05T09:43:09Z</time>
      </trkpt>
      <trkpt lat="43.51893" lon="3.72878">
        <ele>50.7</ele>
        <time>2013-05-05T09:43:10Z</time>
      </trkpt>
      <trkpt lat="43.51896" lon="3.72872">
        <ele>50.4</ele>
        <time>2013-05-05T09:43:11Z</time>
      </trkpt>
      <trkpt lat="43.51899" lon="3.72866">
        <ele>50.2</ele>
        <time>2013-05-05T09:43:12Z</time>
      </trkpt>
      <trkpt lat="43.51903" lon="3.7286">
        <ele>50</ele>
        <time>2013-05-05T09:43:13Z</time>
      </trkpt>
      <trkpt lat="43.51906" lon="3.72855">
        <ele>49.9</ele>
        <time>2013-05-05T09:43:14Z</time>
      </trkpt>
      <trkpt lat="43.51909" lon="3.72849">
        <ele>50.1</ele>
        <time>2013-05-05T09:43:15Z</time>
      </trkpt>
      <trkpt lat="43.51912" lon="3.72843">
        <ele>50.2</ele>
        <time>2013-05-05T09:43:16Z</time>
      </trkpt>
      <trkpt lat="43.51916" lon="3.72837">
        <ele>50.3</ele>
        <time>2013-05-05T09:43:17Z</time>
      </trkpt>
      <trkpt lat="43.51919" lon="3.72831">
        <ele>50.1</ele>
        <time>2013-05-05T09:43:18Z</time>
      </trkpt>
      <trkpt lat="43.51923" lon="3.72825">
        <ele>49.9</ele>
        <time>2013-05-05T09:43:19Z</time>
      </trkpt>
      <trkpt lat="43.51926" lon="3.72819">
        <ele>49.8</ele>
        <time>2013-05-05T09:43:20Z</time>
      </trkpt>
      <trkpt lat="43.51929" lon="3.72813">
        <ele>49.8</ele>
        <time>2013-05-05T09:43:21Z</time>
      </trkpt>
      <trkpt lat="43.51932" lon="3.72807">
        <ele>49.8</ele>
        <time>2013-05-05T09:43:22Z</time>
      </trkpt>
      <trkpt lat="43.51936" lon="3.72801">
        <ele>49.9</ele>
        <time>2013-05-05T09:43:23Z</time>
      </trkpt>
      <trkpt lat="43.51939" lon="3.72795">
        <ele>50</ele>
        <time>2013-05-05T09:43:24Z</time>
      </trkpt>
      <trkpt lat="43.51943" lon="3.72789">
        <ele>50.2</ele>
        <time>2013-05-05T09:43:25Z</time>
      </trkpt>
      <trkpt lat="43.51946" lon="3.72783">
        <ele>50.3</ele>
        <time>2013-05-05T09:43:26Z</time>
      </trkpt>
      <trkpt lat="43.51949" lon="3.72776">
        <ele>50.4</ele>
        <time>2013-05-05T09:43:27Z</time>
      </trkpt>
      <trkpt lat="43.51952" lon="3.7277">
        <ele>50.2</ele>
        <time>2013-05-05T09:43:28Z</time>
      </trkpt>
      <trkpt lat="43.51956" lon="3.72764">
        <ele>50.1</ele>
        <time>2013-05-05T09:43:29Z</time>
      </trkpt>
      <trkpt lat="43.51959" lon="3.72758">
        <ele>50</ele>
        <time>2013-05-05T09:43:30Z</time>
      </trkpt>
      <trkpt lat="43.51962" lon="3.72752">
        <ele>49.2</ele>
        <time>2013-05-05T09:43:31Z</time>
      </trkpt>
      <trkpt lat="43.51965" lon="3.72746">
        <ele>48.6</ele>
        <time>2013-05-05T09:43:32Z</time>
      </trkpt>
      <trkpt lat="43.51969" lon="3.7274">
        <ele>48.2</ele>
        <time>2013-05-05T09:43:33Z</time>
      </trkpt>
      <trkpt lat="43.51972" lon="3.72734">
        <ele>48.4</ele>
        <time>2013-05-05T09:43:34Z</time>
      </trkpt>
      <trkpt lat="43.51976" lon="3.72729">
        <ele>48.6</ele>
        <time>2013-05-05T09:43:35Z</time>
      </trkpt>
      <trkpt lat="43.51979" lon="3.72722">
        <ele>48.7</ele>
        <time>2013-05-05T09:43:36Z</time>
      </trkpt>
      <trkpt lat="43.51982" lon="3.72715">
        <ele>48.8</ele>
        <time>2013-05-05T09:43:37Z</time>
      </trkpt>
      <trkpt lat="43.51985" lon="3.72709">
        <ele>48.8</ele>
        <time>2013-05-05T09:43:38Z</time>
      </trkpt>
      <trkpt lat="43.51988" lon="3.72704">
        <ele>48.7</ele>
        <time>2013-05-05T09:43:39Z</time>
      </trkpt>
      <trkpt lat="43.51992" lon="3.72698">
        <ele>48.7</ele>
        <time>2013-05-05T09:43:40Z</time>
      </trkpt>
      <trkpt lat="43.51996" lon="3.72693">
        <ele>48.7</ele>
        <time>2013-05-05T09:43:41Z</time>
      </trkpt>
      <trkpt lat="43.51999" lon="3.72688">
        <ele>48.6</ele>
        <time>2013-05-05T09:43:42Z</time>
      </trkpt>
      <trkpt lat="43.52003" lon="3.72683">
        <ele>48.6</ele>
        <time>2013-05-05T09:43:43Z</time>
      </trkpt>
      <trkpt lat="43.52007" lon="3.72678">
        <ele>48.2</ele>
        <time>2013-05-05T09:43:44Z</time>
      </trkpt>
      <trkpt lat="43.52011" lon="3.72673">
        <ele>47.9</ele>
        <time>2013-05-05T09:43:45Z</time>
      </trkpt>
      <trkpt lat="43.52016" lon="3.72669">
        <ele>47.6</ele>
        <time>2013-05-05T09:43:46Z</time>
      </trkpt>
      <trkpt lat="43.5202" lon="3.72664">
        <ele>48</ele>
        <time>2013-05-05T09:43:47Z</time>
      </trkpt>
      <trkpt lat="43.52023" lon="3.72659">
        <ele>48.2</ele>
        <time>2013-05-05T09:43:48Z</time>
      </trkpt>
      <trkpt lat="43.52027" lon="3.72655">
        <ele>48.4</ele>
        <time>2013-05-05T09:43:49Z</time>
      </trkpt>
      <trkpt lat="43.52031" lon="3.7265">
        <ele>48.5</ele>
        <time>2013-05-05T09:43:50Z</time>
      </trkpt>
      <trkpt lat="43.52035" lon="3.72646">
        <ele>48.5</ele>
        <time>2013-05-05T09:43:51Z</time>
      </trkpt>
      <trkpt lat="43.52038" lon="3.72641">
        <ele>48.6</ele>
        <time>2013-05-05T09:43:52Z</time>
      </trkpt>
      <trkpt lat="43.52042" lon="3.72637">
        <ele>48.6</ele>
        <time>2013-05-05T09:43:53Z</time>
      </trkpt>
      <trkpt lat="43.52046" lon="3.72632">
        <ele>48.4</ele>
        <time>2013-05-05T09:43:54Z</time>
      </trkpt>
      <trkpt lat="43.5205" lon="3.72628">
        <ele>48.3</ele>
        <time>2013-05-05T09:43:55Z</time>
      </trkpt>
      <trkpt lat="43.52053" lon="3.72623">
        <ele>48.2</ele>
        <time>2013-05-05T09:43:56Z</time>
      </trkpt>
      <trkpt lat="43.52057" lon="3.72619">
        <ele>48.6</ele>
        <time>2013-05-05T09:43:57Z</time>
      </trkpt>
      <trkpt lat="43.52061" lon="3.72614">
        <ele>48.9</ele>
        <time>2013-05-05T09:43:58Z</time>
      </trkpt>
      <trkpt lat="43.52065" lon="3.72609">
        <ele>49.1</ele>
        <time>2013-05-05T09:43:59Z</time>
      </trkpt>
      <trkpt lat="43.52069" lon="3.72605">
        <ele>48.7</ele>
        <time>2013-05-05T09:44:00Z</time>
      </trkpt>
      <trkpt lat="43.52073" lon="3.72601">
        <ele>48.4</ele>
        <time>2013-05-05T09:44:01Z</time>
      </trkpt>
      <trkpt lat="43.52077" lon="3.72596">
        <ele>48.1</ele>
        <time>2013-05-05T09:44:02Z</time>
      </trkpt>
      <trkpt lat="43.5208" lon="3.72592">
        <ele>48.4</ele>
        <time>2013-05-05T09:44:03Z</time>
      </trkpt>
      <trkpt lat="43.52084" lon="3.72588">
        <ele>48.7</ele>
        <time>2013-05-05T09:44:04Z</time>
      </trkpt>
      <trkpt lat="43.52088" lon="3.72584">
        <ele>48.8</ele>
        <time>2013-05-05T09:44:05Z</time>
      </trkpt>
      <trkpt lat="43.52092" lon="3.7258">
        <ele>49</ele>
        <time>2013-05-05T09:44:06Z</time>
      </trkpt>
      <trkpt lat="43.52095" lon="3.72576">
        <ele>49.2</ele>
        <time>2013-05-05T09:44:07Z</time>
      </trkpt>
      <trkpt lat="43.52102" lon="3.72567">
        <ele>49.3</ele>
        <time>2013-05-05T09:44:09Z</time>
      </trkpt>
      <trkpt lat="43.52108" lon="3.72561">
        <ele>49.4</ele>
        <time>2013-05-05T09:44:11Z</time>
      </trkpt>
      <trkpt lat="43.52114" lon="3.72554">
        <ele>49.7</ele>
        <time>2013-05-05T09:44:14Z</time>
      </trkpt>
      <trkpt lat="43.5212" lon="3.72547">
        <ele>49.5</ele>
        <time>2013-05-05T09:44:17Z</time>
      </trkpt>
      <trkpt lat="43.52127" lon="3.72541">
        <ele>49.6</ele>
        <time>2013-05-05T09:44:21Z</time>
      </trkpt>
      <trkpt lat="43.52133" lon="3.72533">
        <ele>49.7</ele>
        <time>2013-05-05T09:44:26Z</time>
      </trkpt>
      <trkpt lat="43.52139" lon="3.72526">
        <ele>50</ele>
        <time>2013-05-05T09:44:31Z</time>
      </trkpt>
      <trkpt lat="43.52146" lon="3.7252">
        <ele>50.6</ele>
        <time>2013-05-05T09:44:35Z</time>
      </trkpt>
      <trkpt lat="43.52147" lon="3.72518">
        <ele>50.7</ele>
        <time>2013-05-05T09:44:36Z</time>
      </trkpt>
      <trkpt lat="43.52158" lon="3.72507">
        <ele>51.6</ele>
        <time>2013-05-05T09:44:42Z</time>
      </trkpt>
      <trkpt lat="43.52164" lon="3.72501">
        <ele>51.7</ele>
        <time>2013-05-05T09:44:45Z</time>
      </trkpt>
      <trkpt lat="43.52171" lon="3.72495">
        <ele>52</ele>
        <time>2013-05-05T09:44:48Z</time>
      </trkpt>
      <trkpt lat="43.52177" lon="3.7249">
        <ele>52.7</ele>
        <time>2013-05-05T09:44:51Z</time>
      </trkpt>
      <trkpt lat="43.52184" lon="3.72484">
        <ele>52.5</ele>
        <time>2013-05-05T09:44:55Z</time>
      </trkpt>
      <trkpt lat="43.52177" lon="3.72489">
        <ele>52.2</ele>
        <time>2013-05-05T09:45:10Z</time>
      </trkpt>
      <trkpt lat="43.5217" lon="3.72495">
        <ele>52.6</ele>
        <time>2013-05-05T09:45:14Z</time>
      </trkpt>
      <trkpt lat="43.52163" lon="3.72502">
        <ele>52.9</ele>
        <time>2013-05-05T09:45:17Z</time>
      </trkpt>
      <trkpt lat="43.52158" lon="3.72507">
        <ele>53.2</ele>
        <time>2013-05-05T09:45:19Z</time>
      </trkpt>
      <trkpt lat="43.52151" lon="3.72515">
        <ele>52.3</ele>
        <time>2013-05-05T09:45:22Z</time>
      </trkpt>
      <trkpt lat="43.52145" lon="3.72521">
        <ele>51.8</ele>
        <time>2013-05-05T09:45:24Z</time>
      </trkpt>
      <trkpt lat="43.52139" lon="3.72529">
        <ele>52.1</ele>
        <time>2013-05-05T09:45:26Z</time>
      </trkpt>
      <trkpt lat="43.52132" lon="3.72536">
        <ele>51.7</ele>
        <time>2013-05-05T09:45:29Z</time>
      </trkpt>
      <trkpt lat="43.52125" lon="3.72539">
        <ele>50.6</ele>
        <time>2013-05-05T09:45:31Z</time>
      </trkpt>
      <trkpt lat="43.52118" lon="3.72539">
        <ele>49.8</ele>
        <time>2013-05-05T09:45:33Z</time>
      </trkpt>
      <trkpt lat="43.52109" lon="3.72538">
        <ele>49.3</ele>
        <time>2013-05-05T09:45:35Z</time>
      </trkpt>
      <trkpt lat="43.52105" lon="3.72537">
        <ele>49.7</ele>
        <time>2013-05-05T09:45:36Z</time>
      </trkpt>
      <trkpt lat="43.521" lon="3.72536">
        <ele>50</ele>
        <time>2013-05-05T09:45:37Z</time>
      </trkpt>
      <trkpt lat="43.52096" lon="3.72533">
        <ele>50.3</ele>
        <time>2013-05-05T09:45:38Z</time>
      </trkpt>
      <trkpt lat="43.52089" lon="3.72526">
        <ele>49.7</ele>
        <time>2013-05-05T09:45:40Z</time>
      </trkpt>
      <trkpt lat="43.52085" lon="3.72521">
        <ele>49.6</ele>
        <time>2013-05-05T09:45:41Z</time>
      </trkpt>
      <trkpt lat="43.52083" lon="3.72516">
        <ele>49.5</ele>
        <time>2013-05-05T09:45:42Z</time>
      </trkpt>
      <trkpt lat="43.5208" lon="3.72511">
        <ele>49.4</ele>
        <time>2013-05-05T09:45:43Z</time>
      </trkpt>
      <trkpt lat="43.52077" lon="3.72506">
        <ele>49.4</ele>
        <time>2013-05-05T09:45:44Z</time>
      </trkpt>
      <trkpt lat="43.52072" lon="3.72497">
        <ele>49.6</ele>
        <time>2013-05-05T09:45:46Z</time>
      </trkpt>
      <trkpt lat="43.52068" lon="3.72488">
        <ele>49.6</ele>
        <time>2013-05-05T09:45:48Z</time>
      </trkpt>
      <trkpt lat="43.52065" lon="3.7248">
        <ele>49.4</ele>
        <time>2013-05-05T09:45:50Z</time>
      </trkpt>
      <trkpt lat="43.52061" lon="3.72469">
        <ele>49.4</ele>
        <time>2013-05-05T09:45:53Z</time>
      </trkpt>
      <trkpt lat="43.52055" lon="3.7246">
        <ele>49.4</ele>
        <time>2013-05-05T09:46:17Z</time>
      </trkpt>
      <trkpt lat="43.52049" lon="3.72451">
        <ele>49.3</ele>
        <time>2013-05-05T09:46:20Z</time>
      </trkpt>
      <trkpt lat="43.52045" lon="3.72441">
        <ele>49.4</ele>
        <time>2013-05-05T09:46:22Z</time>
      </trkpt>
      <trkpt lat="43.5204" lon="3.72431">
        <ele>49.7</ele>
        <time>2013-05-05T09:46:24Z</time>
      </trkpt>
      <trkpt lat="43.52037" lon="3.72426">
        <ele>49.9</ele>
        <time>2013-05-05T09:46:25Z</time>
      </trkpt>
      <trkpt lat="43.52034" lon="3.72421">
        <ele>50.1</ele>
        <time>2013-05-05T09:46:26Z</time>
      </trkpt>
      <trkpt lat="43.52031" lon="3.72416">
        <ele>49.9</ele>
        <time>2013-05-05T09:46:27Z</time>
      </trkpt>
      <trkpt lat="43.52028" lon="3.72411">
        <ele>49.8</ele>
        <time>2013-05-05T09:46:28Z</time>
      </trkpt>
      <trkpt lat="43.52024" lon="3.72406">
        <ele>49.7</ele>
        <time>2013-05-05T09:46:29Z</time>
      </trkpt>
      <trkpt lat="43.5202" lon="3.72401">
        <ele>50.2</ele>
        <time>2013-05-05T09:46:30Z</time>
      </trkpt>
      <trkpt lat="43.52016" lon="3.72396">
        <ele>50.6</ele>
        <time>2013-05-05T09:46:31Z</time>
      </trkpt>
      <trkpt lat="43.52012" lon="3.7239">
        <ele>50.9</ele>
        <time>2013-05-05T09:46:32Z</time>
      </trkpt>
      <trkpt lat="43.52008" lon="3.72385">
        <ele>51</ele>
        <time>2013-05-05T09:46:33Z</time>
      </trkpt>
      <trkpt lat="43.52004" lon="3.7238">
        <ele>51.1</ele>
        <time>2013-05-05T09:46:34Z</time>
      </trkpt>
      <trkpt lat="43.51999" lon="3.72375">
        <ele>51.1</ele>
        <time>2013-05-05T09:46:35Z</time>
      </trkpt>
      <trkpt lat="43.51995" lon="3.7237">
        <ele>50.7</ele>
        <time>2013-05-05T09:46:36Z</time>
      </trkpt>
      <trkpt lat="43.5199" lon="3.72365">
        <ele>50.4</ele>
        <time>2013-05-05T09:46:37Z</time>
      </trkpt>
      <trkpt lat="43.51986" lon="3.72359">
        <ele>50.2</ele>
        <time>2013-05-05T09:46:38Z</time>
      </trkpt>
      <trkpt lat="43.51982" lon="3.72352">
        <ele>50</ele>
        <time>2013-05-05T09:46:39Z</time>
      </trkpt>
      <trkpt lat="43.51981" lon="3.72344">
        <ele>49.6</ele>
        <time>2013-05-05T09:46:40Z</time>
      </trkpt>
      <trkpt lat="43.5198" lon="3.72332">
        <ele>49</ele>
        <time>2013-05-05T09:46:42Z</time>
      </trkpt>
      <trkpt lat="43.51987" lon="3.72327">
        <ele>48.5</ele>
        <time>2013-05-05T09:46:46Z</time>
      </trkpt>
      <trkpt lat="43.51995" lon="3.72326">
        <ele>48</ele>
        <time>2013-05-05T09:46:50Z</time>
      </trkpt>
      <trkpt lat="43.52003" lon="3.72324">
        <ele>48.1</ele>
        <time>2013-05-05T09:46:55Z</time>
      </trkpt>
      <trkpt lat="43.52011" lon="3.72323">
        <ele>48.6</ele>
        <time>2013-05-05T09:46:58Z</time>
      </trkpt>
      <trkpt lat="43.52017" lon="3.72321">
        <ele>48.7</ele>
        <time>2013-05-05T09:47:00Z</time>
      </trkpt>
      <trkpt lat="43.52024" lon="3.7232">
        <ele>48.5</ele>
        <time>2013-05-05T09:47:02Z</time>
      </trkpt>
      <trkpt lat="43.52031" lon="3.72319">
        <ele>48.2</ele>
        <time>2013-05-05T09:47:04Z</time>
      </trkpt>
      <trkpt lat="43.52038" lon="3.72319">
        <ele>48.2</ele>
        <time>2013-05-05T09:47:06Z</time>
      </trkpt>
      <trkpt lat="43.52045" lon="3.72318">
        <ele>48.6</ele>
        <time>2013-05-05T09:47:08Z</time>
      </trkpt>
      <trkpt lat="43.52053" lon="3.72316">
        <ele>49</ele>
        <time>2013-05-05T09:47:10Z</time>
      </trkpt>
      <trkpt lat="43.52062" lon="3.72314">
        <ele>49.2</ele>
        <time>2013-05-05T09:47:12Z</time>
      </trkpt>
      <trkpt lat="43.5207" lon="3.72317">
        <ele>49.3</ele>
        <time>2013-05-05T09:47:14Z</time>
      </trkpt>
      <trkpt lat="43.52078" lon="3.72321">
        <ele>49.9</ele>
        <time>2013-05-05T09:47:16Z</time>
      </trkpt>
      <trkpt lat="43.52085" lon="3.72325">
        <ele>50</ele>
        <time>2013-05-05T09:47:18Z</time>
      </trkpt>
      <trkpt lat="43.52094" lon="3.72329">
        <ele>49.8</ele>
        <time>2013-05-05T09:47:20Z</time>
      </trkpt>
      <trkpt lat="43.52102" lon="3.72333">
        <ele>49.9</ele>
        <time>2013-05-05T09:47:22Z</time>
      </trkpt>
      <trkpt lat="43.5211" lon="3.72333">
        <ele>50.5</ele>
        <time>2013-05-05T09:47:27Z</time>
      </trkpt>
      <trkpt lat="43.52113" lon="3.72323">
        <ele>50.5</ele>
        <time>2013-05-05T09:47:30Z</time>
      </trkpt>
      <trkpt lat="43.52116" lon="3.72313">
        <ele>50.3</ele>
        <time>2013-05-05T09:47:33Z</time>
      </trkpt>
      <trkpt lat="43.52124" lon="3.72308">
        <ele>48.6</ele>
        <time>2013-05-05T09:47:48Z</time>
      </trkpt>
      <trkpt lat="43.52125" lon="3.72308">
        <ele>48.6</ele>
        <time>2013-05-05T09:47:49Z</time>
      </trkpt>
      <trkpt lat="43.5214" lon="3.723">
        <ele>48.4</ele>
        <time>2013-05-05T09:48:23Z</time>
      </trkpt>
      <trkpt lat="43.52144" lon="3.72292">
        <ele>49.1</ele>
        <time>2013-05-05T09:48:31Z</time>
      </trkpt>
      <trkpt lat="43.52149" lon="3.72283">
        <ele>49.5</ele>
        <time>2013-05-05T09:48:35Z</time>
      </trkpt>
      <trkpt lat="43.52145" lon="3.72273">
        <ele>49.5</ele>
        <time>2013-05-05T09:48:40Z</time>
      </trkpt>
      <trkpt lat="43.52153" lon="3.72277">
        <ele>49.8</ele>
        <time>2013-05-05T09:48:52Z</time>
      </trkpt>
      <trkpt lat="43.52155" lon="3.72278">
        <ele>49.8</ele>
        <time>2013-05-05T09:48:53Z</time>
      </trkpt>
      <trkpt lat="43.52169" lon="3.72284">
        <ele>49.9</ele>
        <time>2013-05-05T09:49:07Z</time>
      </trkpt>
      <trkpt lat="43.52177" lon="3.72286">
        <ele>50.6</ele>
        <time>2013-05-05T09:49:15Z</time>
      </trkpt>
      <trkpt lat="43.52185" lon="3.72292">
        <ele>50.2</ele>
        <time>2013-05-05T09:49:23Z</time>
      </trkpt>
      <trkpt lat="43.52179" lon="3.72287">
        <ele>50</ele>
        <time>2013-05-05T09:49:30Z</time>
      </trkpt>
      <trkpt lat="43.52173" lon="3.72284">
        <ele>49.8</ele>
        <time>2013-05-05T09:49:33Z</time>
      </trkpt>
      <trkpt lat="43.52166" lon="3.72281">
        <ele>49.8</ele>
        <time>2013-05-05T09:49:36Z</time>
      </trkpt>
      <trkpt lat="43.52159" lon="3.72277">
        <ele>49.8</ele>
        <time>2013-05-05T09:49:39Z</time>
      </trkpt>
      <trkpt lat="43.52165" lon="3.72282">
        <ele>50.1</ele>
        <time>2013-05-05T09:49:53Z</time>
      </trkpt>
      <trkpt lat="43.52168" lon="3.72283">
        <ele>50.2</ele>
        <time>2013-05-05T09:49:54Z</time>
      </trkpt>
      <trkpt lat="43.52181" lon="3.72289">
        <ele>49.8</ele>
        <time>2013-05-05T09:49:59Z</time>
      </trkpt>
      <trkpt lat="43.52187" lon="3.72292">
        <ele>49.8</ele>
        <time>2013-05-05T09:50:01Z</time>
      </trkpt>
      <trkpt lat="43.52193" lon="3.72294">
        <ele>50</ele>
        <time>2013-05-05T09:50:03Z</time>
      </trkpt>
      <trkpt lat="43.522" lon="3.72297">
        <ele>49.9</ele>
        <time>2013-05-05T09:50:05Z</time>
      </trkpt>
      <trkpt lat="43.52206" lon="3.72299">
        <ele>50.7</ele>
        <time>2013-05-05T09:50:07Z</time>
      </trkpt>
      <trkpt lat="43.52212" lon="3.72301">
        <ele>51.8</ele>
        <time>2013-05-05T09:50:09Z</time>
      </trkpt>
      <trkpt lat="43.52219" lon="3.72303">
        <ele>52.1</ele>
        <time>2013-05-05T09:50:11Z</time>
      </trkpt>
      <trkpt lat="43.52226" lon="3.72304">
        <ele>52.3</ele>
        <time>2013-05-05T09:50:13Z</time>
      </trkpt>
      <trkpt lat="43.52232" lon="3.72305">
        <ele>52.4</ele>
        <time>2013-05-05T09:50:15Z</time>
      </trkpt>
      <trkpt lat="43.5224" lon="3.72306">
        <ele>52.6</ele>
        <time>2013-05-05T09:50:17Z</time>
      </trkpt>
      <trkpt lat="43.52247" lon="3.72307">
        <ele>52.8</ele>
        <time>2013-05-05T09:50:19Z</time>
      </trkpt>
      <trkpt lat="43.52254" lon="3.72307">
        <ele>52.8</ele>
        <time>2013-05-05T09:50:21Z</time>
      </trkpt>
      <trkpt lat="43.52261" lon="3.72308">
        <ele>53</ele>
        <time>2013-05-05T09:50:23Z</time>
      </trkpt>
      <trkpt lat="43.52269" lon="3.72309">
        <ele>53.1</ele>
        <time>2013-05-05T09:50:25Z</time>
      </trkpt>
      <trkpt lat="43.52276" lon="3.7231">
        <ele>53.1</ele>
        <time>2013-05-05T09:50:27Z</time>
      </trkpt>
      <trkpt lat="43.52284" lon="3.7231">
        <ele>53</ele>
        <time>2013-05-05T09:50:29Z</time>
      </trkpt>
      <trkpt lat="43.52291" lon="3.72311">
        <ele>52.8</ele>
        <time>2013-05-05T09:50:31Z</time>
      </trkpt>
      <trkpt lat="43.52299" lon="3.72312">
        <ele>53.3</ele>
        <time>2013-05-05T09:50:33Z</time>
      </trkpt>
      <trkpt lat="43.52306" lon="3.72313">
        <ele>53.9</ele>
        <time>2013-05-05T09:50:35Z</time>
      </trkpt>
      <trkpt lat="43.52313" lon="3.72313">
        <ele>53.6</ele>
        <time>2013-05-05T09:50:37Z</time>
      </trkpt>
      <trkpt lat="43.52321" lon="3.72314">
        <ele>53.5</ele>
        <time>2013-05-05T09:50:39Z</time>
      </trkpt>
      <trkpt lat="43.52328" lon="3.72315">
        <ele>53.5</ele>
        <time>2013-05-05T09:50:41Z</time>
      </trkpt>
      <trkpt lat="43.52336" lon="3.72315">
        <ele>53.8</ele>
        <time>2013-05-05T09:50:43Z</time>
      </trkpt>
      <trkpt lat="43.52344" lon="3.72314">
        <ele>54</ele>
        <time>2013-05-05T09:50:45Z</time>
      </trkpt>
      <trkpt lat="43.52351" lon="3.72314">
        <ele>54.2</ele>
        <time>2013-05-05T09:50:47Z</time>
      </trkpt>
      <trkpt lat="43.52358" lon="3.72312">
        <ele>54.5</ele>
        <time>2013-05-05T09:50:49Z</time>
      </trkpt>
      <trkpt lat="43.52365" lon="3.72311">
        <ele>54.6</ele>
        <time>2013-05-05T09:50:51Z</time>
      </trkpt>
      <trkpt lat="43.52374" lon="3.72309">
        <ele>54.2</ele>
        <time>2013-05-05T09:50:53Z</time>
      </trkpt>
      <trkpt lat="43.52378" lon="3.72308">
        <ele>54</ele>
        <time>2013-05-05T09:50:54Z</time>
      </trkpt>
      <trkpt lat="43.52383" lon="3.72306">
        <ele>54.2</ele>
        <time>2013-05-05T09:50:55Z</time>
      </trkpt>
      <trkpt lat="43.52388" lon="3.72306">
        <ele>54.4</ele>
        <time>2013-05-05T09:50:56Z</time>
      </trkpt>
      <trkpt lat="43.52396" lon="3.72308">
        <ele>54.4</ele>
        <time>2013-05-05T09:50:58Z</time>
      </trkpt>
      <trkpt lat="43.52402" lon="3.72317">
        <ele>54.3</ele>
        <time>2013-05-05T09:51:00Z</time>
      </trkpt>
      <trkpt lat="43.52408" lon="3.72327">
        <ele>54.2</ele>
        <time>2013-05-05T09:51:02Z</time>
      </trkpt>
      <trkpt lat="43.52411" lon="3.7233">
        <ele>54.1</ele>
        <time>2013-05-05T09:51:03Z</time>
      </trkpt>
      <trkpt lat="43.52416" lon="3.72332">
        <ele>54.3</ele>
        <time>2013-05-05T09:51:04Z</time>
      </trkpt>
      <trkpt lat="43.5242" lon="3.72332">
        <ele>54.4</ele>
        <time>2013-05-05T09:51:05Z</time>
      </trkpt>
      <trkpt lat="43.52429" lon="3.72332">
        <ele>54.5</ele>
        <time>2013-05-05T09:51:07Z</time>
      </trkpt>
      <trkpt lat="43.52438" lon="3.72333">
        <ele>54.8</ele>
        <time>2013-05-05T09:51:09Z</time>
      </trkpt>
      <trkpt lat="43.52446" lon="3.72334">
        <ele>54.4</ele>
        <time>2013-05-05T09:51:11Z</time>
      </trkpt>
      <trkpt lat="43.52454" lon="3.72335">
        <ele>53.7</ele>
        <time>2013-05-05T09:51:13Z</time>
      </trkpt>
      <trkpt lat="43.52462" lon="3.72336">
        <ele>54.7</ele>
        <time>2013-05-05T09:51:15Z</time>
      </trkpt>
      <trkpt lat="43.5247" lon="3.72336">
        <ele>55.6</ele>
        <time>2013-05-05T09:51:17Z</time>
      </trkpt>
      <trkpt lat="43.52479" lon="3.72334">
        <ele>56.2</ele>
        <time>2013-05-05T09:51:19Z</time>
      </trkpt>
      <trkpt lat="43.52483" lon="3.72333">
        <ele>56.3</ele>
        <time>2013-05-05T09:51:20Z</time>
      </trkpt>
      <trkpt lat="43.52487" lon="3.72331">
        <ele>56.4</ele>
        <time>2013-05-05T09:51:21Z</time>
      </trkpt>
      <trkpt lat="43.52492" lon="3.72329">
        <ele>56.4</ele>
        <time>2013-05-05T09:51:22Z</time>
      </trkpt>
      <trkpt lat="43.525" lon="3.72326">
        <ele>56.2</ele>
        <time>2013-05-05T09:51:24Z</time>
      </trkpt>
      <trkpt lat="43.52509" lon="3.72325">
        <ele>55.9</ele>
        <time>2013-05-05T09:51:26Z</time>
      </trkpt>
      <trkpt lat="43.52514" lon="3.72324">
        <ele>56.3</ele>
        <time>2013-05-05T09:51:27Z</time>
      </trkpt>
      <trkpt lat="43.52518" lon="3.72324">
        <ele>56.6</ele>
        <time>2013-05-05T09:51:28Z</time>
      </trkpt>
      <trkpt lat="43.52523" lon="3.72324">
        <ele>56.9</ele>
        <time>2013-05-05T09:51:29Z</time>
      </trkpt>
      <trkpt lat="43.52527" lon="3.72324">
        <ele>56.6</ele>
        <time>2013-05-05T09:51:30Z</time>
      </trkpt>
      <trkpt lat="43.52532" lon="3.72324">
        <ele>56.5</ele>
        <time>2013-05-05T09:51:31Z</time>
      </trkpt>
      <trkpt lat="43.52537" lon="3.72324">
        <ele>56.4</ele>
        <time>2013-05-05T09:51:32Z</time>
      </trkpt>
      <trkpt lat="43.52541" lon="3.72324">
        <ele>56.3</ele>
        <time>2013-05-05T09:51:33Z</time>
      </trkpt>
      <trkpt lat="43.52546" lon="3.72324">
        <ele>56.3</ele>
        <time>2013-05-05T09:51:34Z</time>
      </trkpt>
      <trkpt lat="43.5255" lon="3.72324">
        <ele>56.3</ele>
        <time>2013-05-05T09:51:35Z</time>
      </trkpt>
      <trkpt lat="43.52555" lon="3.72323">
        <ele>56.1</ele>
        <time>2013-05-05T09:51:36Z</time>
      </trkpt>
      <trkpt lat="43.52559" lon="3.72323">
        <ele>55.9</ele>
        <time>2013-05-05T09:51:37Z</time>
      </trkpt>
      <trkpt lat="43.52564" lon="3.72323">
        <ele>55.8</ele>
        <time>2013-05-05T09:51:38Z</time>
      </trkpt>
      <trkpt lat="43.52568" lon="3.72323">
        <ele>55.7</ele>
        <time>2013-05-05T09:51:39Z</time>
      </trkpt>
      <trkpt lat="43.52573" lon="3.72322">
        <ele>56</ele>
        <time>2013-05-05T09:51:40Z</time>
      </trkpt>
      <trkpt lat="43.52578" lon="3.72322">
        <ele>56.3</ele>
        <time>2013-05-05T09:51:41Z</time>
      </trkpt>
      <trkpt lat="43.52582" lon="3.72322">
        <ele>56.4</ele>
        <time>2013-05-05T09:51:42Z</time>
      </trkpt>
      <trkpt lat="43.52587" lon="3.72322">
        <ele>56.3</ele>
        <time>2013-05-05T09:51:43Z</time>
      </trkpt>
      <trkpt lat="43.52592" lon="3.72322">
        <ele>56.2</ele>
        <time>2013-05-05T09:51:44Z</time>
      </trkpt>
      <trkpt lat="43.52596" lon="3.72322">
        <ele>56.1</ele>
        <time>2013-05-05T09:51:45Z</time>
      </trkpt>
      <trkpt lat="43.52601" lon="3.72322">
        <ele>56.4</ele>
        <time>2013-05-05T09:51:46Z</time>
      </trkpt>
      <trkpt lat="43.52606" lon="3.72322">
        <ele>56.7</ele>
        <time>2013-05-05T09:51:47Z</time>
      </trkpt>
      <trkpt lat="43.5261" lon="3.72323">
        <ele>56.9</ele>
        <time>2013-05-05T09:51:48Z</time>
      </trkpt>
      <trkpt lat="43.52615" lon="3.72323">
        <ele>56.7</ele>
        <time>2013-05-05T09:51:49Z</time>
      </trkpt>
      <trkpt lat="43.52619" lon="3.72324">
        <ele>56.5</ele>
        <time>2013-05-05T09:51:50Z</time>
      </trkpt>
      <trkpt lat="43.52624" lon="3.72324">
        <ele>56.4</ele>
        <time>2013-05-05T09:51:51Z</time>
      </trkpt>
      <trkpt lat="43.52629" lon="3.72324">
        <ele>56.2</ele>
        <time>2013-05-05T09:51:52Z</time>
      </trkpt>
      <trkpt lat="43.52634" lon="3.72324">
        <ele>56.1</ele>
        <time>2013-05-05T09:51:53Z</time>
      </trkpt>
      <trkpt lat="43.52639" lon="3.72325">
        <ele>56</ele>
        <time>2013-05-05T09:51:54Z</time>
      </trkpt>
      <trkpt lat="43.52643" lon="3.72325">
        <ele>56</ele>
        <time>2013-05-05T09:51:55Z</time>
      </trkpt>
      <trkpt lat="43.52648" lon="3.72325">
        <ele>56.3</ele>
        <time>2013-05-05T09:51:56Z</time>
      </trkpt>
      <trkpt lat="43.52653" lon="3.72325">
        <ele>56.5</ele>
        <time>2013-05-05T09:51:57Z</time>
      </trkpt>
      <trkpt lat="43.52658" lon="3.72326">
        <ele>56.7</ele>
        <time>2013-05-05T09:51:58Z</time>
      </trkpt>
      <trkpt lat="43.52663" lon="3.72326">
        <ele>56.6</ele>
        <time>2013-05-05T09:51:59Z</time>
      </trkpt>
      <trkpt lat="43.52668" lon="3.72326">
        <ele>56.6</ele>
        <time>2013-05-05T09:52:00Z</time>
      </trkpt>
      <trkpt lat="43.52672" lon="3.72326">
        <ele>56.5</ele>
        <time>2013-05-05T09:52:01Z</time>
      </trkpt>
      <trkpt lat="43.52677" lon="3.72325">
        <ele>57</ele>
        <time>2013-05-05T09:52:02Z</time>
      </trkpt>
      <trkpt lat="43.52682" lon="3.72324">
        <ele>57.3</ele>
        <time>2013-05-05T09:52:03Z</time>
      </trkpt>
      <trkpt lat="43.52687" lon="3.72323">
        <ele>57.6</ele>
        <time>2013-05-05T09:52:04Z</time>
      </trkpt>
      <trkpt lat="43.52692" lon="3.72322">
        <ele>57.4</ele>
        <time>2013-05-05T09:52:05Z</time>
      </trkpt>
      <trkpt lat="43.52697" lon="3.72321">
        <ele>57.2</ele>
        <time>2013-05-05T09:52:06Z</time>
      </trkpt>
      <trkpt lat="43.52702" lon="3.72321">
        <ele>57</ele>
        <time>2013-05-05T09:52:07Z</time>
      </trkpt>
      <trkpt lat="43.52707" lon="3.7232">
        <ele>57</ele>
        <time>2013-05-05T09:52:08Z</time>
      </trkpt>
      <trkpt lat="43.52712" lon="3.7232">
        <ele>57</ele>
        <time>2013-05-05T09:52:09Z</time>
      </trkpt>
      <trkpt lat="43.52716" lon="3.72321">
        <ele>57</ele>
        <time>2013-05-05T09:52:10Z</time>
      </trkpt>
      <trkpt lat="43.52721" lon="3.72322">
        <ele>57</ele>
        <time>2013-05-05T09:52:11Z</time>
      </trkpt>
      <trkpt lat="43.52726" lon="3.72323">
        <ele>57</ele>
        <time>2013-05-05T09:52:12Z</time>
      </trkpt>
      <trkpt lat="43.5273" lon="3.72325">
        <ele>57</ele>
        <time>2013-05-05T09:52:13Z</time>
      </trkpt>
      <trkpt lat="43.52735" lon="3.72327">
        <ele>57</ele>
        <time>2013-05-05T09:52:14Z</time>
      </trkpt>
      <trkpt lat="43.5274" lon="3.72329">
        <ele>57.1</ele>
        <time>2013-05-05T09:52:15Z</time>
      </trkpt>
      <trkpt lat="43.52745" lon="3.7233">
        <ele>57.2</ele>
        <time>2013-05-05T09:52:16Z</time>
      </trkpt>
      <trkpt lat="43.5275" lon="3.72332">
        <ele>57.2</ele>
        <time>2013-05-05T09:52:17Z</time>
      </trkpt>
      <trkpt lat="43.52755" lon="3.72333">
        <ele>57.1</ele>
        <time>2013-05-05T09:52:18Z</time>
      </trkpt>
      <trkpt lat="43.5276" lon="3.72334">
        <ele>57</ele>
        <time>2013-05-05T09:52:19Z</time>
      </trkpt>
      <trkpt lat="43.52765" lon="3.72334">
        <ele>56.9</ele>
        <time>2013-05-05T09:52:20Z</time>
      </trkpt>
      <trkpt lat="43.5277" lon="3.72334">
        <ele>57.2</ele>
        <time>2013-05-05T09:52:21Z</time>
      </trkpt>
      <trkpt lat="43.52775" lon="3.72333">
        <ele>57.4</ele>
        <time>2013-05-05T09:52:22Z</time>
      </trkpt>
      <trkpt lat="43.5278" lon="3.72332">
        <ele>57.5</ele>
        <time>2013-05-05T09:52:23Z</time>
      </trkpt>
      <trkpt lat="43.52785" lon="3.72331">
        <ele>57.2</ele>
        <time>2013-05-05T09:52:24Z</time>
      </trkpt>
      <trkpt lat="43.5279" lon="3.72329">
        <ele>57</ele>
        <time>2013-05-05T09:52:25Z</time>
      </trkpt>
      <trkpt lat="43.52795" lon="3.72328">
        <ele>56.8</ele>
        <time>2013-05-05T09:52:26Z</time>
      </trkpt>
      <trkpt lat="43.528" lon="3.72326">
        <ele>57</ele>
        <time>2013-05-05T09:52:27Z</time>
      </trkpt>
      <trkpt lat="43.52805" lon="3.72324">
        <ele>57.1</ele>
        <time>2013-05-05T09:52:28Z</time>
      </trkpt>
      <trkpt lat="43.5281" lon="3.72322">
        <ele>57.2</ele>
        <time>2013-05-05T09:52:29Z</time>
      </trkpt>
      <trkpt lat="43.52815" lon="3.7232">
        <ele>57.3</ele>
        <time>2013-05-05T09:52:30Z</time>
      </trkpt>
      <trkpt lat="43.5282" lon="3.72318">
        <ele>57.3</ele>
        <time>2013-05-05T09:52:31Z</time>
      </trkpt>
      <trkpt lat="43.52825" lon="3.72317">
        <ele>57.4</ele>
        <time>2013-05-05T09:52:32Z</time>
      </trkpt>
      <trkpt lat="43.5283" lon="3.72316">
        <ele>57.4</ele>
        <time>2013-05-05T09:52:33Z</time>
      </trkpt>
      <trkpt lat="43.52835" lon="3.72314">
        <ele>57.6</ele>
        <time>2013-05-05T09:52:34Z</time>
      </trkpt>
      <trkpt lat="43.52839" lon="3.72312">
        <ele>57.8</ele>
        <time>2013-05-05T09:52:35Z</time>
      </trkpt>
      <trkpt lat="43.52844" lon="3.7231">
        <ele>57.9</ele>
        <time>2013-05-05T09:52:36Z</time>
      </trkpt>
      <trkpt lat="43.52849" lon="3.72308">
        <ele>57.6</ele>
        <time>2013-05-05T09:52:37Z</time>
      </trkpt>
      <trkpt lat="43.52853" lon="3.72306">
        <ele>57.5</ele>
        <time>2013-05-05T09:52:38Z</time>
      </trkpt>
      <trkpt lat="43.52858" lon="3.72304">
        <ele>57.3</ele>
        <time>2013-05-05T09:52:39Z</time>
      </trkpt>
      <trkpt lat="43.52862" lon="3.72303">
        <ele>57.4</ele>
        <time>2013-05-05T09:52:40Z</time>
      </trkpt>
      <trkpt lat="43.52867" lon="3.72301">
        <ele>57.5</ele>
        <time>2013-05-05T09:52:41Z</time>
      </trkpt>
      <trkpt lat="43.52871" lon="3.72299">
        <ele>57.5</ele>
        <time>2013-05-05T09:52:42Z</time>
      </trkpt>
      <trkpt lat="43.52875" lon="3.72297">
        <ele>57.7</ele>
        <time>2013-05-05T09:52:43Z</time>
      </trkpt>
      <trkpt lat="43.5288" lon="3.72295">
        <ele>57.8</ele>
        <time>2013-05-05T09:52:44Z</time>
      </trkpt>
      <trkpt lat="43.52884" lon="3.72293">
        <ele>57.9</ele>
        <time>2013-05-05T09:52:45Z</time>
      </trkpt>
      <trkpt lat="43.52888" lon="3.72292">
        <ele>58</ele>
        <time>2013-05-05T09:52:46Z</time>
      </trkpt>
      <trkpt lat="43.52893" lon="3.7229">
        <ele>58.1</ele>
        <time>2013-05-05T09:52:47Z</time>
      </trkpt>
      <trkpt lat="43.52897" lon="3.72288">
        <ele>58.2</ele>
        <time>2013-05-05T09:52:48Z</time>
      </trkpt>
      <trkpt lat="43.52902" lon="3.72287">
        <ele>58.2</ele>
        <time>2013-05-05T09:52:49Z</time>
      </trkpt>
      <trkpt lat="43.5291" lon="3.72283">
        <ele>58.6</ele>
        <time>2013-05-05T09:52:51Z</time>
      </trkpt>
      <trkpt lat="43.52914" lon="3.72281">
        <ele>58.7</ele>
        <time>2013-05-05T09:52:52Z</time>
      </trkpt>
      <trkpt lat="43.52919" lon="3.72279">
        <ele>58.6</ele>
        <time>2013-05-05T09:52:53Z</time>
      </trkpt>
      <trkpt lat="43.52923" lon="3.72277">
        <ele>58.5</ele>
        <time>2013-05-05T09:52:54Z</time>
      </trkpt>
      <trkpt lat="43.52932" lon="3.72273">
        <ele>58.5</ele>
        <time>2013-05-05T09:52:56Z</time>
      </trkpt>
      <trkpt lat="43.5294" lon="3.72269">
        <ele>58.5</ele>
        <time>2013-05-05T09:52:58Z</time>
      </trkpt>
      <trkpt lat="43.52943" lon="3.72268">
        <ele>58.7</ele>
        <time>2013-05-05T09:52:59Z</time>
      </trkpt>
      <trkpt lat="43.52952" lon="3.72272">
        <ele>59</ele>
        <time>2013-05-05T09:53:02Z</time>
      </trkpt>
      <trkpt lat="43.52957" lon="3.72281">
        <ele>59.3</ele>
        <time>2013-05-05T09:53:04Z</time>
      </trkpt>
      <trkpt lat="43.52963" lon="3.7229">
        <ele>59.4</ele>
        <time>2013-05-05T09:53:06Z</time>
      </trkpt>
      <trkpt lat="43.52968" lon="3.72299">
        <ele>59.5</ele>
        <time>2013-05-05T09:53:08Z</time>
      </trkpt>
      <trkpt lat="43.52971" lon="3.72304">
        <ele>59.5</ele>
        <time>2013-05-05T09:53:09Z</time>
      </trkpt>
      <trkpt lat="43.52974" lon="3.72309">
        <ele>59.5</ele>
        <time>2013-05-05T09:53:10Z</time>
      </trkpt>
      <trkpt lat="43.52978" lon="3.72314">
        <ele>59.5</ele>
        <time>2013-05-05T09:53:11Z</time>
      </trkpt>
      <trkpt lat="43.52981" lon="3.72319">
        <ele>59.2</ele>
        <time>2013-05-05T09:53:12Z</time>
      </trkpt>
      <trkpt lat="43.52985" lon="3.72324">
        <ele>59</ele>
        <time>2013-05-05T09:53:13Z</time>
      </trkpt>
      <trkpt lat="43.52988" lon="3.72329">
        <ele>58.9</ele>
        <time>2013-05-05T09:53:14Z</time>
      </trkpt>
      <trkpt lat="43.52992" lon="3.72335">
        <ele>58.9</ele>
        <time>2013-05-05T09:53:15Z</time>
      </trkpt>
      <trkpt lat="43.52996" lon="3.7234">
        <ele>59</ele>
        <time>2013-05-05T09:53:16Z</time>
      </trkpt>
      <trkpt lat="43.53" lon="3.72345">
        <ele>59</ele>
        <time>2013-05-05T09:53:17Z</time>
      </trkpt>
      <trkpt lat="43.53004" lon="3.72351">
        <ele>59</ele>
        <time>2013-05-05T09:53:18Z</time>
      </trkpt>
      <trkpt lat="43.53007" lon="3.72356">
        <ele>59.1</ele>
        <time>2013-05-05T09:53:19Z</time>
      </trkpt>
      <trkpt lat="43.53011" lon="3.72362">
        <ele>59.1</ele>
        <time>2013-05-05T09:53:20Z</time>
      </trkpt>
      <trkpt lat="43.53015" lon="3.72368">
        <ele>59.1</ele>
        <time>2013-05-05T09:53:21Z</time>
      </trkpt>
      <trkpt lat="43.53019" lon="3.72374">
        <ele>58.8</ele>
        <time>2013-05-05T09:53:22Z</time>
      </trkpt>
      <trkpt lat="43.53022" lon="3.72379">
        <ele>58.6</ele>
        <time>2013-05-05T09:53:23Z</time>
      </trkpt>
      <trkpt lat="43.53026" lon="3.72385">
        <ele>58.5</ele>
        <time>2013-05-05T09:53:24Z</time>
      </trkpt>
      <trkpt lat="43.5303" lon="3.72391">
        <ele>58.4</ele>
        <time>2013-05-05T09:53:25Z</time>
      </trkpt>
      <trkpt lat="43.53033" lon="3.72396">
        <ele>58.4</ele>
        <time>2013-05-05T09:53:26Z</time>
      </trkpt>
      <trkpt lat="43.53037" lon="3.72402">
        <ele>58.4</ele>
        <time>2013-05-05T09:53:27Z</time>
      </trkpt>
      <trkpt lat="43.53041" lon="3.72407">
        <ele>58.4</ele>
        <time>2013-05-05T09:53:28Z</time>
      </trkpt>
      <trkpt lat="43.53045" lon="3.72412">
        <ele>58.3</ele>
        <time>2013-05-05T09:53:29Z</time>
      </trkpt>
      <trkpt lat="43.53049" lon="3.72418">
        <ele>58.3</ele>
        <time>2013-05-05T09:53:30Z</time>
      </trkpt>
      <trkpt lat="43.53052" lon="3.72423">
        <ele>58.5</ele>
        <time>2013-05-05T09:53:31Z</time>
      </trkpt>
      <trkpt lat="43.53056" lon="3.72428">
        <ele>58.6</ele>
        <time>2013-05-05T09:53:32Z</time>
      </trkpt>
      <trkpt lat="43.53059" lon="3.72433">
        <ele>58.7</ele>
        <time>2013-05-05T09:53:33Z</time>
      </trkpt>
      <trkpt lat="43.53065" lon="3.72441">
        <ele>58.2</ele>
        <time>2013-05-05T09:53:35Z</time>
      </trkpt>
      <trkpt lat="43.53071" lon="3.72448">
        <ele>57.2</ele>
        <time>2013-05-05T09:53:43Z</time>
      </trkpt>
      <trkpt lat="43.53079" lon="3.72448">
        <ele>57.4</ele>
        <time>2013-05-05T09:53:48Z</time>
      </trkpt>
      <trkpt lat="43.53086" lon="3.72442">
        <ele>57.7</ele>
        <time>2013-05-05T09:53:52Z</time>
      </trkpt>
      <trkpt lat="43.5309" lon="3.72437">
        <ele>57.7</ele>
        <time>2013-05-05T09:53:54Z</time>
      </trkpt>
      <trkpt lat="43.53096" lon="3.72431">
        <ele>57.5</ele>
        <time>2013-05-05T09:53:56Z</time>
      </trkpt>
      <trkpt lat="43.53102" lon="3.72424">
        <ele>57.6</ele>
        <time>2013-05-05T09:53:58Z</time>
      </trkpt>
      <trkpt lat="43.53108" lon="3.72416">
        <ele>57.5</ele>
        <time>2013-05-05T09:54:00Z</time>
      </trkpt>
      <trkpt lat="43.53111" lon="3.72412">
        <ele>57.4</ele>
        <time>2013-05-05T09:54:01Z</time>
      </trkpt>
      <trkpt lat="43.53118" lon="3.72403">
        <ele>57.6</ele>
        <time>2013-05-05T09:54:03Z</time>
      </trkpt>
      <trkpt lat="43.53122" lon="3.72399">
        <ele>57.8</ele>
        <time>2013-05-05T09:54:04Z</time>
      </trkpt>
      <trkpt lat="43.53125" lon="3.72394">
        <ele>57.9</ele>
        <time>2013-05-05T09:54:05Z</time>
      </trkpt>
      <trkpt lat="43.53129" lon="3.7239">
        <ele>58</ele>
        <time>2013-05-05T09:54:06Z</time>
      </trkpt>
      <trkpt lat="43.53133" lon="3.72385">
        <ele>58.1</ele>
        <time>2013-05-05T09:54:07Z</time>
      </trkpt>
      <trkpt lat="43.53137" lon="3.7238">
        <ele>58.1</ele>
        <time>2013-05-05T09:54:08Z</time>
      </trkpt>
      <trkpt lat="43.53141" lon="3.72375">
        <ele>58.4</ele>
        <time>2013-05-05T09:54:09Z</time>
      </trkpt>
      <trkpt lat="43.53144" lon="3.7237">
        <ele>58.6</ele>
        <time>2013-05-05T09:54:10Z</time>
      </trkpt>
      <trkpt lat="43.53148" lon="3.72364">
        <ele>58.8</ele>
        <time>2013-05-05T09:54:11Z</time>
      </trkpt>
      <trkpt lat="43.53152" lon="3.72359">
        <ele>58.9</ele>
        <time>2013-05-05T09:54:12Z</time>
      </trkpt>
      <trkpt lat="43.53156" lon="3.72354">
        <ele>58.8</ele>
        <time>2013-05-05T09:54:13Z</time>
      </trkpt>
      <trkpt lat="43.5316" lon="3.72348">
        <ele>58.8</ele>
        <time>2013-05-05T09:54:14Z</time>
      </trkpt>
      <trkpt lat="43.53165" lon="3.72343">
        <ele>58.7</ele>
        <time>2013-05-05T09:54:15Z</time>
      </trkpt>
      <trkpt lat="43.53169" lon="3.72337">
        <ele>58.8</ele>
        <time>2013-05-05T09:54:16Z</time>
      </trkpt>
      <trkpt lat="43.53173" lon="3.72331">
        <ele>58.8</ele>
        <time>2013-05-05T09:54:17Z</time>
      </trkpt>
      <trkpt lat="43.53177" lon="3.72326">
        <ele>58.8</ele>
        <time>2013-05-05T09:54:18Z</time>
      </trkpt>
      <trkpt lat="43.53181" lon="3.72321">
        <ele>59</ele>
        <time>2013-05-05T09:54:19Z</time>
      </trkpt>
      <trkpt lat="43.53185" lon="3.72315">
        <ele>59</ele>
        <time>2013-05-05T09:54:20Z</time>
      </trkpt>
      <trkpt lat="43.53189" lon="3.7231">
        <ele>59.1</ele>
        <time>2013-05-05T09:54:21Z</time>
      </trkpt>
      <trkpt lat="43.53193" lon="3.72304">
        <ele>59.4</ele>
        <time>2013-05-05T09:54:22Z</time>
      </trkpt>
      <trkpt lat="43.53197" lon="3.72299">
        <ele>59.7</ele>
        <time>2013-05-05T09:54:23Z</time>
      </trkpt>
      <trkpt lat="43.53201" lon="3.72293">
        <ele>59.9</ele>
        <time>2013-05-05T09:54:24Z</time>
      </trkpt>
      <trkpt lat="43.53206" lon="3.72288">
        <ele>60.1</ele>
        <time>2013-05-05T09:54:25Z</time>
      </trkpt>
      <trkpt lat="43.5321" lon="3.72283">
        <ele>60.1</ele>
        <time>2013-05-05T09:54:26Z</time>
      </trkpt>
      <trkpt lat="43.53214" lon="3.72277">
        <ele>60.1</ele>
        <time>2013-05-05T09:54:27Z</time>
      </trkpt>
      <trkpt lat="43.53218" lon="3.72272">
        <ele>60.1</ele>
        <time>2013-05-05T09:54:28Z</time>
      </trkpt>
      <trkpt lat="43.53222" lon="3.72267">
        <ele>60.2</ele>
        <time>2013-05-05T09:54:29Z</time>
      </trkpt>
      <trkpt lat="43.53226" lon="3.72261">
        <ele>60.3</ele>
        <time>2013-05-05T09:54:30Z</time>
      </trkpt>
      <trkpt lat="43.5323" lon="3.72256">
        <ele>60.4</ele>
        <time>2013-05-05T09:54:31Z</time>
      </trkpt>
      <trkpt lat="43.53234" lon="3.72251">
        <ele>60.9</ele>
        <time>2013-05-05T09:54:32Z</time>
      </trkpt>
      <trkpt lat="43.53238" lon="3.72247">
        <ele>61.4</ele>
        <time>2013-05-05T09:54:33Z</time>
      </trkpt>
      <trkpt lat="43.53242" lon="3.72242">
        <ele>61.7</ele>
        <time>2013-05-05T09:54:34Z</time>
      </trkpt>
      <trkpt lat="43.53246" lon="3.72238">
        <ele>61.8</ele>
        <time>2013-05-05T09:54:35Z</time>
      </trkpt>
      <trkpt lat="43.53251" lon="3.72234">
        <ele>62</ele>
        <time>2013-05-05T09:54:36Z</time>
      </trkpt>
      <trkpt lat="43.53255" lon="3.7223">
        <ele>62.1</ele>
        <time>2013-05-05T09:54:37Z</time>
      </trkpt>
      <trkpt lat="43.53259" lon="3.72227">
        <ele>62.1</ele>
        <time>2013-05-05T09:54:38Z</time>
      </trkpt>
      <trkpt lat="43.53264" lon="3.72224">
        <ele>62.2</ele>
        <time>2013-05-05T09:54:39Z</time>
      </trkpt>
      <trkpt lat="43.53268" lon="3.72221">
        <ele>62.2</ele>
        <time>2013-05-05T09:54:40Z</time>
      </trkpt>
      <trkpt lat="43.53273" lon="3.72218">
        <ele>62.8</ele>
        <time>2013-05-05T09:54:41Z</time>
      </trkpt>
      <trkpt lat="43.53277" lon="3.72215">
        <ele>63.2</ele>
        <time>2013-05-05T09:54:42Z</time>
      </trkpt>
      <trkpt lat="43.53282" lon="3.72213">
        <ele>63.5</ele>
        <time>2013-05-05T09:54:43Z</time>
      </trkpt>
      <trkpt lat="43.53287" lon="3.7221">
        <ele>63.7</ele>
        <time>2013-05-05T09:54:44Z</time>
      </trkpt>
      <trkpt lat="43.53292" lon="3.72209">
        <ele>64</ele>
        <time>2013-05-05T09:54:45Z</time>
      </trkpt>
      <trkpt lat="43.53297" lon="3.72207">
        <ele>64.2</ele>
        <time>2013-05-05T09:54:46Z</time>
      </trkpt>
      <trkpt lat="43.53302" lon="3.72206">
        <ele>64.4</ele>
        <time>2013-05-05T09:54:47Z</time>
      </trkpt>
      <trkpt lat="43.53307" lon="3.72205">
        <ele>64.6</ele>
        <time>2013-05-05T09:54:48Z</time>
      </trkpt>
      <trkpt lat="43.53312" lon="3.72204">
        <ele>64.8</ele>
        <time>2013-05-05T09:54:49Z</time>
      </trkpt>
      <trkpt lat="43.53317" lon="3.72203">
        <ele>65</ele>
        <time>2013-05-05T09:54:50Z</time>
      </trkpt>
      <trkpt lat="43.53322" lon="3.72202">
        <ele>64.9</ele>
        <time>2013-05-05T09:54:51Z</time>
      </trkpt>
      <trkpt lat="43.53327" lon="3.72201">
        <ele>64.9</ele>
        <time>2013-05-05T09:54:52Z</time>
      </trkpt>
      <trkpt lat="43.53335" lon="3.72201">
        <ele>65.1</ele>
        <time>2013-05-05T09:54:54Z</time>
      </trkpt>
      <trkpt lat="43.53338" lon="3.72209">
        <ele>65.5</ele>
        <time>2013-05-05T09:54:56Z</time>
      </trkpt>
      <trkpt lat="43.53338" lon="3.7222">
        <ele>66.1</ele>
        <time>2013-05-05T09:54:58Z</time>
      </trkpt>
      <trkpt lat="43.53339" lon="3.7223">
        <ele>66.5</ele>
        <time>2013-05-05T09:55:00Z</time>
      </trkpt>
      <trkpt lat="43.53341" lon="3.72239">
        <ele>66</ele>
        <time>2013-05-05T09:55:02Z</time>
      </trkpt>
      <trkpt lat="43.53342" lon="3.72244">
        <ele>65.8</ele>
        <time>2013-05-05T09:55:03Z</time>
      </trkpt>
      <trkpt lat="43.5335" lon="3.72256">
        <ele>65.4</ele>
        <time>2013-05-05T09:55:06Z</time>
      </trkpt>
      <trkpt lat="43.53357" lon="3.72263">
        <ele>65.2</ele>
        <time>2013-05-05T09:55:08Z</time>
      </trkpt>
      <trkpt lat="43.53365" lon="3.72268">
        <ele>65</ele>
        <time>2013-05-05T09:55:10Z</time>
      </trkpt>
      <trkpt lat="43.53372" lon="3.72272">
        <ele>65</ele>
        <time>2013-05-05T09:55:12Z</time>
      </trkpt>
      <trkpt lat="43.5338" lon="3.72276">
        <ele>65</ele>
        <time>2013-05-05T09:55:14Z</time>
      </trkpt>
      <trkpt lat="43.53388" lon="3.7228">
        <ele>64.9</ele>
        <time>2013-05-05T09:55:16Z</time>
      </trkpt>
      <trkpt lat="43.53392" lon="3.72283">
        <ele>65.3</ele>
        <time>2013-05-05T09:55:17Z</time>
      </trkpt>
      <trkpt lat="43.53396" lon="3.72285">
        <ele>65.6</ele>
        <time>2013-05-05T09:55:18Z</time>
      </trkpt>
      <trkpt lat="43.53401" lon="3.72288">
        <ele>65.9</ele>
        <time>2013-05-05T09:55:19Z</time>
      </trkpt>
      <trkpt lat="43.53405" lon="3.72291">
        <ele>66</ele>
        <time>2013-05-05T09:55:20Z</time>
      </trkpt>
      <trkpt lat="43.53409" lon="3.72295">
        <ele>66</ele>
        <time>2013-05-05T09:55:21Z</time>
      </trkpt>
      <trkpt lat="43.53414" lon="3.72298">
        <ele>66.1</ele>
        <time>2013-05-05T09:55:22Z</time>
      </trkpt>
      <trkpt lat="43.53419" lon="3.72301">
        <ele>66.2</ele>
        <time>2013-05-05T09:55:23Z</time>
      </trkpt>
      <trkpt lat="43.53423" lon="3.72304">
        <ele>66.4</ele>
        <time>2013-05-05T09:55:24Z</time>
      </trkpt>
      <trkpt lat="43.53428" lon="3.72308">
        <ele>66.5</ele>
        <time>2013-05-05T09:55:25Z</time>
      </trkpt>
      <trkpt lat="43.53432" lon="3.72311">
        <ele>66.8</ele>
        <time>2013-05-05T09:55:26Z</time>
      </trkpt>
      <trkpt lat="43.53436" lon="3.72314">
        <ele>67.1</ele>
        <time>2013-05-05T09:55:27Z</time>
      </trkpt>
      <trkpt lat="43.53441" lon="3.72317">
        <ele>67.3</ele>
        <time>2013-05-05T09:55:28Z</time>
      </trkpt>
      <trkpt lat="43.53445" lon="3.72321">
        <ele>67.5</ele>
        <time>2013-05-05T09:55:29Z</time>
      </trkpt>
      <trkpt lat="43.53449" lon="3.72324">
        <ele>67.7</ele>
        <time>2013-05-05T09:55:30Z</time>
      </trkpt>
      <trkpt lat="43.53453" lon="3.72327">
        <ele>67.8</ele>
        <time>2013-05-05T09:55:31Z</time>
      </trkpt>
      <trkpt lat="43.53457" lon="3.7233">
        <ele>67.9</ele>
        <time>2013-05-05T09:55:32Z</time>
      </trkpt>
      <trkpt lat="43.53465" lon="3.72335">
        <ele>68.5</ele>
        <time>2013-05-05T09:55:34Z</time>
      </trkpt>
      <trkpt lat="43.53473" lon="3.7234">
        <ele>68.6</ele>
        <time>2013-05-05T09:55:36Z</time>
      </trkpt>
      <trkpt lat="43.53481" lon="3.72344">
        <ele>68.5</ele>
        <time>2013-05-05T09:55:38Z</time>
      </trkpt>
      <trkpt lat="43.53489" lon="3.7235">
        <ele>69.6</ele>
        <time>2013-05-05T09:55:40Z</time>
      </trkpt>
      <trkpt lat="43.53493" lon="3.72353">
        <ele>69.9</ele>
        <time>2013-05-05T09:55:41Z</time>
      </trkpt>
      <trkpt lat="43.53497" lon="3.72356">
        <ele>69.9</ele>
        <time>2013-05-05T09:55:42Z</time>
      </trkpt>
      <trkpt lat="43.53501" lon="3.72359">
        <ele>69.9</ele>
        <time>2013-05-05T09:55:43Z</time>
      </trkpt>
      <trkpt lat="43.53506" lon="3.72362">
        <ele>69.8</ele>
        <time>2013-05-05T09:55:44Z</time>
      </trkpt>
      <trkpt lat="43.53511" lon="3.72365">
        <ele>69.4</ele>
        <time>2013-05-05T09:55:45Z</time>
      </trkpt>
      <trkpt lat="43.53516" lon="3.72369">
        <ele>69</ele>
        <time>2013-05-05T09:55:46Z</time>
      </trkpt>
      <trkpt lat="43.53521" lon="3.72372">
        <ele>68.8</ele>
        <time>2013-05-05T09:55:47Z</time>
      </trkpt>
      <trkpt lat="43.53526" lon="3.72375">
        <ele>68.6</ele>
        <time>2013-05-05T09:55:48Z</time>
      </trkpt>
      <trkpt lat="43.53531" lon="3.72379">
        <ele>68.6</ele>
        <time>2013-05-05T09:55:49Z</time>
      </trkpt>
      <trkpt lat="43.53536" lon="3.72382">
        <ele>68.5</ele>
        <time>2013-05-05T09:55:50Z</time>
      </trkpt>
      <trkpt lat="43.53541" lon="3.72385">
        <ele>68.5</ele>
        <time>2013-05-05T09:55:51Z</time>
      </trkpt>
      <trkpt lat="43.53546" lon="3.72389">
        <ele>68.8</ele>
        <time>2013-05-05T09:55:52Z</time>
      </trkpt>
      <trkpt lat="43.53551" lon="3.72392">
        <ele>69</ele>
        <time>2013-05-05T09:55:53Z</time>
      </trkpt>
      <trkpt lat="43.53557" lon="3.72395">
        <ele>69.1</ele>
        <time>2013-05-05T09:55:54Z</time>
      </trkpt>
      <trkpt lat="43.53562" lon="3.72398">
        <ele>69</ele>
        <time>2013-05-05T09:55:55Z</time>
      </trkpt>
      <trkpt lat="43.53567" lon="3.72401">
        <ele>68.9</ele>
        <time>2013-05-05T09:55:56Z</time>
      </trkpt>
      <trkpt lat="43.53572" lon="3.72404">
        <ele>68.9</ele>
        <time>2013-05-05T09:55:57Z</time>
      </trkpt>
      <trkpt lat="43.53577" lon="3.72407">
        <ele>68.8</ele>
        <time>2013-05-05T09:55:58Z</time>
      </trkpt>
      <trkpt lat="43.53582" lon="3.7241">
        <ele>68.7</ele>
        <time>2013-05-05T09:55:59Z</time>
      </trkpt>
      <trkpt lat="43.53587" lon="3.72415">
        <ele>68.7</ele>
        <time>2013-05-05T09:56:00Z</time>
      </trkpt>
      <trkpt lat="43.53591" lon="3.72419">
        <ele>68.7</ele>
        <time>2013-05-05T09:56:01Z</time>
      </trkpt>
      <trkpt lat="43.53595" lon="3.72424">
        <ele>68.7</ele>
        <time>2013-05-05T09:56:02Z</time>
      </trkpt>
      <trkpt lat="43.53599" lon="3.72429">
        <ele>68.7</ele>
        <time>2013-05-05T09:56:03Z</time>
      </trkpt>
      <trkpt lat="43.53603" lon="3.72434">
        <ele>68.6</ele>
        <time>2013-05-05T09:56:04Z</time>
      </trkpt>
      <trkpt lat="43.53607" lon="3.7244">
        <ele>68.6</ele>
        <time>2013-05-05T09:56:05Z</time>
      </trkpt>
      <trkpt lat="43.5361" lon="3.72445">
        <ele>68.5</ele>
        <time>2013-05-05T09:56:06Z</time>
      </trkpt>
      <trkpt lat="43.53614" lon="3.7245">
        <ele>68.5</ele>
        <time>2013-05-05T09:56:07Z</time>
      </trkpt>
      <trkpt lat="43.53619" lon="3.72454">
        <ele>68.4</ele>
        <time>2013-05-05T09:56:08Z</time>
      </trkpt>
      <trkpt lat="43.53623" lon="3.72458">
        <ele>68.4</ele>
        <time>2013-05-05T09:56:09Z</time>
      </trkpt>
      <trkpt lat="43.53628" lon="3.72462">
        <ele>68.3</ele>
        <time>2013-05-05T09:56:10Z</time>
      </trkpt>
      <trkpt lat="43.53633" lon="3.72466">
        <ele>68.1</ele>
        <time>2013-05-05T09:56:11Z</time>
      </trkpt>
      <trkpt lat="43.53638" lon="3.72469">
        <ele>68</ele>
        <time>2013-05-05T09:56:12Z</time>
      </trkpt>
      <trkpt lat="43.53644" lon="3.72471">
        <ele>67.9</ele>
        <time>2013-05-05T09:56:13Z</time>
      </trkpt>
      <trkpt lat="43.53649" lon="3.72471">
        <ele>67.8</ele>
        <time>2013-05-05T09:56:14Z</time>
      </trkpt>
      <trkpt lat="43.53654" lon="3.72472">
        <ele>67.7</ele>
        <time>2013-05-05T09:56:15Z</time>
      </trkpt>
      <trkpt lat="43.53659" lon="3.72472">
        <ele>67.6</ele>
        <time>2013-05-05T09:56:16Z</time>
      </trkpt>
      <trkpt lat="43.53663" lon="3.72472">
        <ele>67.5</ele>
        <time>2013-05-05T09:56:17Z</time>
      </trkpt>
      <trkpt lat="43.53668" lon="3.72471">
        <ele>67.5</ele>
        <time>2013-05-05T09:56:18Z</time>
      </trkpt>
      <trkpt lat="43.53673" lon="3.72471">
        <ele>67.5</ele>
        <time>2013-05-05T09:56:19Z</time>
      </trkpt>
      <trkpt lat="43.53679" lon="3.72471">
        <ele>67.9</ele>
        <time>2013-05-05T09:56:20Z</time>
      </trkpt>
      <trkpt lat="43.53684" lon="3.7247">
        <ele>68.2</ele>
        <time>2013-05-05T09:56:21Z</time>
      </trkpt>
      <trkpt lat="43.53689" lon="3.7247">
        <ele>68.4</ele>
        <time>2013-05-05T09:56:22Z</time>
      </trkpt>
      <trkpt lat="43.53694" lon="3.7247">
        <ele>68.6</ele>
        <time>2013-05-05T09:56:23Z</time>
      </trkpt>
      <trkpt lat="43.53699" lon="3.7247">
        <ele>68.5</ele>
        <time>2013-05-05T09:56:24Z</time>
      </trkpt>
      <trkpt lat="43.53704" lon="3.7247">
        <ele>68.4</ele>
        <time>2013-05-05T09:56:25Z</time>
      </trkpt>
      <trkpt lat="43.53712" lon="3.72472">
        <ele>68.3</ele>
        <time>2013-05-05T09:56:27Z</time>
      </trkpt>
      <trkpt lat="43.53721" lon="3.72473">
        <ele>68.1</ele>
        <time>2013-05-05T09:56:29Z</time>
      </trkpt>
      <trkpt lat="43.53728" lon="3.72474">
        <ele>68.9</ele>
        <time>2013-05-05T09:56:31Z</time>
      </trkpt>
      <trkpt lat="43.53736" lon="3.72474">
        <ele>69.2</ele>
        <time>2013-05-05T09:56:33Z</time>
      </trkpt>
      <trkpt lat="43.53744" lon="3.72474">
        <ele>69.3</ele>
        <time>2013-05-05T09:56:35Z</time>
      </trkpt>
      <trkpt lat="43.53753" lon="3.72476">
        <ele>69.3</ele>
        <time>2013-05-05T09:56:37Z</time>
      </trkpt>
      <trkpt lat="43.53761" lon="3.72478">
        <ele>69.4</ele>
        <time>2013-05-05T09:56:39Z</time>
      </trkpt>
      <trkpt lat="43.5377" lon="3.72481">
        <ele>69.6</ele>
        <time>2013-05-05T09:56:41Z</time>
      </trkpt>
      <trkpt lat="43.53778" lon="3.72484">
        <ele>69.9</ele>
        <time>2013-05-05T09:56:43Z</time>
      </trkpt>
      <trkpt lat="43.53782" lon="3.72486">
        <ele>70.1</ele>
        <time>2013-05-05T09:56:44Z</time>
      </trkpt>
      <trkpt lat="43.53787" lon="3.72487">
        <ele>70.3</ele>
        <time>2013-05-05T09:56:45Z</time>
      </trkpt>
      <trkpt lat="43.53792" lon="3.72489">
        <ele>70.2</ele>
        <time>2013-05-05T09:56:46Z</time>
      </trkpt>
      <trkpt lat="43.53796" lon="3.7249">
        <ele>70.2</ele>
        <time>2013-05-05T09:56:47Z</time>
      </trkpt>
      <trkpt lat="43.53801" lon="3.72491">
        <ele>70.1</ele>
        <time>2013-05-05T09:56:48Z</time>
      </trkpt>
      <trkpt lat="43.53806" lon="3.72492">
        <ele>69.9</ele>
        <time>2013-05-05T09:56:49Z</time>
      </trkpt>
      <trkpt lat="43.53811" lon="3.72493">
        <ele>69.6</ele>
        <time>2013-05-05T09:56:50Z</time>
      </trkpt>
      <trkpt lat="43.53816" lon="3.72494">
        <ele>69.5</ele>
        <time>2013-05-05T09:56:51Z</time>
      </trkpt>
      <trkpt lat="43.5382" lon="3.72496">
        <ele>69.5</ele>
        <time>2013-05-05T09:56:52Z</time>
      </trkpt>
      <trkpt lat="43.53825" lon="3.72497">
        <ele>69.6</ele>
        <time>2013-05-05T09:56:53Z</time>
      </trkpt>
      <trkpt lat="43.5383" lon="3.72498">
        <ele>69.6</ele>
        <time>2013-05-05T09:56:54Z</time>
      </trkpt>
      <trkpt lat="43.53834" lon="3.725">
        <ele>69.6</ele>
        <time>2013-05-05T09:56:55Z</time>
      </trkpt>
      <trkpt lat="43.53839" lon="3.72501">
        <ele>69.7</ele>
        <time>2013-05-05T09:56:56Z</time>
      </trkpt>
      <trkpt lat="43.53843" lon="3.72502">
        <ele>69.8</ele>
        <time>2013-05-05T09:56:57Z</time>
      </trkpt>
      <trkpt lat="43.53848" lon="3.72503">
        <ele>69.8</ele>
        <time>2013-05-05T09:56:58Z</time>
      </trkpt>
      <trkpt lat="43.53852" lon="3.72505">
        <ele>70.3</ele>
        <time>2013-05-05T09:56:59Z</time>
      </trkpt>
      <trkpt lat="43.53857" lon="3.72505">
        <ele>70.7</ele>
        <time>2013-05-05T09:57:00Z</time>
      </trkpt>
      <trkpt lat="43.53865" lon="3.72508">
        <ele>71.2</ele>
        <time>2013-05-05T09:57:02Z</time>
      </trkpt>
      <trkpt lat="43.53873" lon="3.7251">
        <ele>71.4</ele>
        <time>2013-05-05T09:57:04Z</time>
      </trkpt>
      <trkpt lat="43.5388" lon="3.72512">
        <ele>71.5</ele>
        <time>2013-05-05T09:57:06Z</time>
      </trkpt>
      <trkpt lat="43.53884" lon="3.72513">
        <ele>71.5</ele>
        <time>2013-05-05T09:57:07Z</time>
      </trkpt>
      <trkpt lat="43.53897" lon="3.72513">
        <ele>72.2</ele>
        <time>2013-05-05T09:57:10Z</time>
      </trkpt>
      <trkpt lat="43.53902" lon="3.72514">
        <ele>72.2</ele>
        <time>2013-05-05T09:57:11Z</time>
      </trkpt>
      <trkpt lat="43.53907" lon="3.72515">
        <ele>72.2</ele>
        <time>2013-05-05T09:57:12Z</time>
      </trkpt>
      <trkpt lat="43.53912" lon="3.72517">
        <ele>72.2</ele>
        <time>2013-05-05T09:57:13Z</time>
      </trkpt>
      <trkpt lat="43.53917" lon="3.72518">
        <ele>72.2</ele>
        <time>2013-05-05T09:57:14Z</time>
      </trkpt>
      <trkpt lat="43.53926" lon="3.7252">
        <ele>72.2</ele>
        <time>2013-05-05T09:57:16Z</time>
      </trkpt>
      <trkpt lat="43.53934" lon="3.72522">
        <ele>70.8</ele>
        <time>2013-05-05T09:57:22Z</time>
      </trkpt>
      <trkpt lat="43.53942" lon="3.72521">
        <ele>69.5</ele>
        <time>2013-05-05T09:57:27Z</time>
      </trkpt>
      <trkpt lat="43.5395" lon="3.72519">
        <ele>69.7</ele>
        <time>2013-05-05T09:57:30Z</time>
      </trkpt>
      <trkpt lat="43.53956" lon="3.72518">
        <ele>70.2</ele>
        <time>2013-05-05T09:57:32Z</time>
      </trkpt>
      <trkpt lat="43.53964" lon="3.72516">
        <ele>70.5</ele>
        <time>2013-05-05T09:57:34Z</time>
      </trkpt>
      <trkpt lat="43.53971" lon="3.72513">
        <ele>70.8</ele>
        <time>2013-05-05T09:57:36Z</time>
      </trkpt>
      <trkpt lat="43.53979" lon="3.72511">
        <ele>70.9</ele>
        <time>2013-05-05T09:57:38Z</time>
      </trkpt>
      <trkpt lat="43.53988" lon="3.72508">
        <ele>71</ele>
        <time>2013-05-05T09:57:40Z</time>
      </trkpt>
      <trkpt lat="43.53992" lon="3.72506">
        <ele>71</ele>
        <time>2013-05-05T09:57:41Z</time>
      </trkpt>
      <trkpt lat="43.54001" lon="3.72503">
        <ele>70.9</ele>
        <time>2013-05-05T09:57:43Z</time>
      </trkpt>
      <trkpt lat="43.5401" lon="3.725">
        <ele>70.8</ele>
        <time>2013-05-05T09:57:45Z</time>
      </trkpt>
      <trkpt lat="43.54018" lon="3.72499">
        <ele>70.8</ele>
        <time>2013-05-05T09:57:47Z</time>
      </trkpt>
      <trkpt lat="43.54027" lon="3.72498">
        <ele>70.9</ele>
        <time>2013-05-05T09:57:49Z</time>
      </trkpt>
      <trkpt lat="43.54035" lon="3.72497">
        <ele>71.3</ele>
        <time>2013-05-05T09:57:51Z</time>
      </trkpt>
      <trkpt lat="43.54044" lon="3.72496">
        <ele>71.7</ele>
        <time>2013-05-05T09:57:53Z</time>
      </trkpt>
      <trkpt lat="43.54052" lon="3.72495">
        <ele>71.9</ele>
        <time>2013-05-05T09:57:55Z</time>
      </trkpt>
      <trkpt lat="43.54061" lon="3.72493">
        <ele>72.6</ele>
        <time>2013-05-05T09:57:57Z</time>
      </trkpt>
      <trkpt lat="43.54065" lon="3.72492">
        <ele>72.8</ele>
        <time>2013-05-05T09:57:58Z</time>
      </trkpt>
      <trkpt lat="43.5407" lon="3.72491">
        <ele>72.7</ele>
        <time>2013-05-05T09:57:59Z</time>
      </trkpt>
      <trkpt lat="43.54075" lon="3.7249">
        <ele>72.6</ele>
        <time>2013-05-05T09:58:00Z</time>
      </trkpt>
      <trkpt lat="43.54079" lon="3.72488">
        <ele>72.5</ele>
        <time>2013-05-05T09:58:01Z</time>
      </trkpt>
      <trkpt lat="43.54084" lon="3.72486">
        <ele>72.5</ele>
        <time>2013-05-05T09:58:02Z</time>
      </trkpt>
      <trkpt lat="43.54088" lon="3.72484">
        <ele>72.4</ele>
        <time>2013-05-05T09:58:03Z</time>
      </trkpt>
      <trkpt lat="43.54093" lon="3.72481">
        <ele>72.4</ele>
        <time>2013-05-05T09:58:04Z</time>
      </trkpt>
      <trkpt lat="43.54098" lon="3.72479">
        <ele>72.4</ele>
        <time>2013-05-05T09:58:05Z</time>
      </trkpt>
      <trkpt lat="43.54102" lon="3.72477">
        <ele>72.3</ele>
        <time>2013-05-05T09:58:06Z</time>
      </trkpt>
      <trkpt lat="43.54107" lon="3.72474">
        <ele>72.2</ele>
        <time>2013-05-05T09:58:07Z</time>
      </trkpt>
      <trkpt lat="43.54112" lon="3.72472">
        <ele>72.1</ele>
        <time>2013-05-05T09:58:08Z</time>
      </trkpt>
      <trkpt lat="43.54116" lon="3.72469">
        <ele>71.8</ele>
        <time>2013-05-05T09:58:09Z</time>
      </trkpt>
      <trkpt lat="43.54121" lon="3.72466">
        <ele>71.5</ele>
        <time>2013-05-05T09:58:10Z</time>
      </trkpt>
      <trkpt lat="43.54126" lon="3.72464">
        <ele>71.3</ele>
        <time>2013-05-05T09:58:11Z</time>
      </trkpt>
      <trkpt lat="43.54131" lon="3.72461">
        <ele>71.2</ele>
        <time>2013-05-05T09:58:12Z</time>
      </trkpt>
      <trkpt lat="43.54136" lon="3.72458">
        <ele>71.2</ele>
        <time>2013-05-05T09:58:13Z</time>
      </trkpt>
      <trkpt lat="43.54141" lon="3.72455">
        <ele>71.1</ele>
        <time>2013-05-05T09:58:14Z</time>
      </trkpt>
      <trkpt lat="43.54146" lon="3.72453">
        <ele>71.1</ele>
        <time>2013-05-05T09:58:15Z</time>
      </trkpt>
      <trkpt lat="43.5415" lon="3.7245">
        <ele>71.1</ele>
        <time>2013-05-05T09:58:16Z</time>
      </trkpt>
      <trkpt lat="43.54155" lon="3.72446">
        <ele>71.1</ele>
        <time>2013-05-05T09:58:17Z</time>
      </trkpt>
      <trkpt lat="43.5416" lon="3.72443">
        <ele>71.1</ele>
        <time>2013-05-05T09:58:18Z</time>
      </trkpt>
      <trkpt lat="43.54165" lon="3.7244">
        <ele>71.3</ele>
        <time>2013-05-05T09:58:19Z</time>
      </trkpt>
      <trkpt lat="43.5417" lon="3.72437">
        <ele>71.5</ele>
        <time>2013-05-05T09:58:20Z</time>
      </trkpt>
      <trkpt lat="43.54175" lon="3.72433">
        <ele>71.6</ele>
        <time>2013-05-05T09:58:21Z</time>
      </trkpt>
      <trkpt lat="43.5418" lon="3.7243">
        <ele>71.6</ele>
        <time>2013-05-05T09:58:22Z</time>
      </trkpt>
      <trkpt lat="43.54184" lon="3.72426">
        <ele>71.6</ele>
        <time>2013-05-05T09:58:23Z</time>
      </trkpt>
      <trkpt lat="43.54189" lon="3.72422">
        <ele>71.6</ele>
        <time>2013-05-05T09:58:24Z</time>
      </trkpt>
      <trkpt lat="43.54193" lon="3.72417">
        <ele>71.3</ele>
        <time>2013-05-05T09:58:25Z</time>
      </trkpt>
      <trkpt lat="43.54197" lon="3.72413">
        <ele>71.1</ele>
        <time>2013-05-05T09:58:26Z</time>
      </trkpt>
      <trkpt lat="43.54202" lon="3.72409">
        <ele>70.9</ele>
        <time>2013-05-05T09:58:27Z</time>
      </trkpt>
      <trkpt lat="43.54206" lon="3.72404">
        <ele>70.9</ele>
        <time>2013-05-05T09:58:28Z</time>
      </trkpt>
      <trkpt lat="43.5421" lon="3.724">
        <ele>70.8</ele>
        <time>2013-05-05T09:58:29Z</time>
      </trkpt>
      <trkpt lat="43.54214" lon="3.72396">
        <ele>70.8</ele>
        <time>2013-05-05T09:58:30Z</time>
      </trkpt>
      <trkpt lat="43.54218" lon="3.72391">
        <ele>70.8</ele>
        <time>2013-05-05T09:58:31Z</time>
      </trkpt>
      <trkpt lat="43.54222" lon="3.72387">
        <ele>70.8</ele>
        <time>2013-05-05T09:58:32Z</time>
      </trkpt>
      <trkpt lat="43.54226" lon="3.72382">
        <ele>70.9</ele>
        <time>2013-05-05T09:58:33Z</time>
      </trkpt>
      <trkpt lat="43.5423" lon="3.72377">
        <ele>70.6</ele>
        <time>2013-05-05T09:58:34Z</time>
      </trkpt>
      <trkpt lat="43.54234" lon="3.72372">
        <ele>70.5</ele>
        <time>2013-05-05T09:58:35Z</time>
      </trkpt>
      <trkpt lat="43.54238" lon="3.72367">
        <ele>70.3</ele>
        <time>2013-05-05T09:58:36Z</time>
      </trkpt>
      <trkpt lat="43.54242" lon="3.72362">
        <ele>70.2</ele>
        <time>2013-05-05T09:58:37Z</time>
      </trkpt>
      <trkpt lat="43.54246" lon="3.72356">
        <ele>69.9</ele>
        <time>2013-05-05T09:58:38Z</time>
      </trkpt>
      <trkpt lat="43.54251" lon="3.72351">
        <ele>69.7</ele>
        <time>2013-05-05T09:58:39Z</time>
      </trkpt>
      <trkpt lat="43.54257" lon="3.72345">
        <ele>69.5</ele>
        <time>2013-05-05T09:58:40Z</time>
      </trkpt>
      <trkpt lat="43.54263" lon="3.7234">
        <ele>69.2</ele>
        <time>2013-05-05T09:58:41Z</time>
      </trkpt>
      <trkpt lat="43.5427" lon="3.72336">
        <ele>69</ele>
        <time>2013-05-05T09:58:42Z</time>
      </trkpt>
      <trkpt lat="43.54277" lon="3.72331">
        <ele>68.9</ele>
        <time>2013-05-05T09:58:43Z</time>
      </trkpt>
      <trkpt lat="43.54284" lon="3.72326">
        <ele>68.7</ele>
        <time>2013-05-05T09:58:44Z</time>
      </trkpt>
      <trkpt lat="43.54291" lon="3.72322">
        <ele>68.6</ele>
        <time>2013-05-05T09:58:45Z</time>
      </trkpt>
      <trkpt lat="43.54297" lon="3.72318">
        <ele>68.5</ele>
        <time>2013-05-05T09:58:46Z</time>
      </trkpt>
      <trkpt lat="43.54304" lon="3.72314">
        <ele>67.8</ele>
        <time>2013-05-05T09:58:47Z</time>
      </trkpt>
      <trkpt lat="43.5431" lon="3.72309">
        <ele>67.2</ele>
        <time>2013-05-05T09:58:48Z</time>
      </trkpt>
      <trkpt lat="43.54317" lon="3.72303">
        <ele>66.8</ele>
        <time>2013-05-05T09:58:49Z</time>
      </trkpt>
      <trkpt lat="43.54323" lon="3.72297">
        <ele>66.3</ele>
        <time>2013-05-05T09:58:50Z</time>
      </trkpt>
      <trkpt lat="43.54328" lon="3.7229">
        <ele>65.9</ele>
        <time>2013-05-05T09:58:51Z</time>
      </trkpt>
      <trkpt lat="43.54334" lon="3.72282">
        <ele>65.6</ele>
        <time>2013-05-05T09:58:52Z</time>
      </trkpt>
      <trkpt lat="43.5434" lon="3.72275">
        <ele>65.4</ele>
        <time>2013-05-05T09:58:53Z</time>
      </trkpt>
      <trkpt lat="43.54346" lon="3.72269">
        <ele>64.7</ele>
        <time>2013-05-05T09:58:54Z</time>
      </trkpt>
      <trkpt lat="43.54353" lon="3.72264">
        <ele>64.2</ele>
        <time>2013-05-05T09:58:55Z</time>
      </trkpt>
      <trkpt lat="43.54361" lon="3.72264">
        <ele>63.8</ele>
        <time>2013-05-05T09:58:56Z</time>
      </trkpt>
      <trkpt lat="43.54368" lon="3.72266">
        <ele>63.4</ele>
        <time>2013-05-05T09:58:57Z</time>
      </trkpt>
      <trkpt lat="43.54375" lon="3.72268">
        <ele>63.2</ele>
        <time>2013-05-05T09:58:58Z</time>
      </trkpt>
      <trkpt lat="43.54381" lon="3.7227">
        <ele>63</ele>
        <time>2013-05-05T09:58:59Z</time>
      </trkpt>
      <trkpt lat="43.54388" lon="3.72272">
        <ele>62.9</ele>
        <time>2013-05-05T09:59:00Z</time>
      </trkpt>
      <trkpt lat="43.54394" lon="3.72274">
        <ele>62.7</ele>
        <time>2013-05-05T09:59:01Z</time>
      </trkpt>
      <trkpt lat="43.544" lon="3.72276">
        <ele>62.6</ele>
        <time>2013-05-05T09:59:02Z</time>
      </trkpt>
      <trkpt lat="43.54407" lon="3.72278">
        <ele>62.8</ele>
        <time>2013-05-05T09:59:03Z</time>
      </trkpt>
      <trkpt lat="43.54413" lon="3.72279">
        <ele>62.9</ele>
        <time>2013-05-05T09:59:04Z</time>
      </trkpt>
      <trkpt lat="43.54419" lon="3.72281">
        <ele>63</ele>
        <time>2013-05-05T09:59:05Z</time>
      </trkpt>
      <trkpt lat="43.54425" lon="3.72283">
        <ele>62.7</ele>
        <time>2013-05-05T09:59:06Z</time>
      </trkpt>
      <trkpt lat="43.54432" lon="3.72285">
        <ele>62.5</ele>
        <time>2013-05-05T09:59:07Z</time>
      </trkpt>
      <trkpt lat="43.54438" lon="3.72287">
        <ele>62.4</ele>
        <time>2013-05-05T09:59:08Z</time>
      </trkpt>
      <trkpt lat="43.54444" lon="3.72288">
        <ele>62.3</ele>
        <time>2013-05-05T09:59:09Z</time>
      </trkpt>
      <trkpt lat="43.5445" lon="3.7229">
        <ele>62.3</ele>
        <time>2013-05-05T09:59:10Z</time>
      </trkpt>
      <trkpt lat="43.54457" lon="3.72291">
        <ele>62.4</ele>
        <time>2013-05-05T09:59:11Z</time>
      </trkpt>
      <trkpt lat="43.54463" lon="3.72293">
        <ele>62.4</ele>
        <time>2013-05-05T09:59:12Z</time>
      </trkpt>
      <trkpt lat="43.54469" lon="3.72294">
        <ele>62.1</ele>
        <time>2013-05-05T09:59:13Z</time>
      </trkpt>
      <trkpt lat="43.54475" lon="3.72296">
        <ele>61.8</ele>
        <time>2013-05-05T09:59:14Z</time>
      </trkpt>
      <trkpt lat="43.54481" lon="3.72298">
        <ele>61.6</ele>
        <time>2013-05-05T09:59:15Z</time>
      </trkpt>
      <trkpt lat="43.54487" lon="3.723">
        <ele>62</ele>
        <time>2013-05-05T09:59:16Z</time>
      </trkpt>
      <trkpt lat="43.54493" lon="3.72302">
        <ele>62.3</ele>
        <time>2013-05-05T09:59:17Z</time>
      </trkpt>
      <trkpt lat="43.54499" lon="3.72304">
        <ele>62.5</ele>
        <time>2013-05-05T09:59:18Z</time>
      </trkpt>
      <trkpt lat="43.54504" lon="3.72306">
        <ele>62.8</ele>
        <time>2013-05-05T09:59:19Z</time>
      </trkpt>
      <trkpt lat="43.5451" lon="3.72308">
        <ele>63.1</ele>
        <time>2013-05-05T09:59:20Z</time>
      </trkpt>
      <trkpt lat="43.54516" lon="3.7231">
        <ele>63.2</ele>
        <time>2013-05-05T09:59:21Z</time>
      </trkpt>
      <trkpt lat="43.54522" lon="3.72312">
        <ele>63</ele>
        <time>2013-05-05T09:59:22Z</time>
      </trkpt>
      <trkpt lat="43.54528" lon="3.72314">
        <ele>62.8</ele>
        <time>2013-05-05T09:59:23Z</time>
      </trkpt>
      <trkpt lat="43.54534" lon="3.72316">
        <ele>62.7</ele>
        <time>2013-05-05T09:59:24Z</time>
      </trkpt>
      <trkpt lat="43.5454" lon="3.72319">
        <ele>62.6</ele>
        <time>2013-05-05T09:59:25Z</time>
      </trkpt>
      <trkpt lat="43.54546" lon="3.72321">
        <ele>62.3</ele>
        <time>2013-05-05T09:59:26Z</time>
      </trkpt>
      <trkpt lat="43.54553" lon="3.72322">
        <ele>62.1</ele>
        <time>2013-05-05T09:59:27Z</time>
      </trkpt>
      <trkpt lat="43.54559" lon="3.72324">
        <ele>62</ele>
        <time>2013-05-05T09:59:28Z</time>
      </trkpt>
      <trkpt lat="43.54565" lon="3.72326">
        <ele>62.1</ele>
        <time>2013-05-05T09:59:29Z</time>
      </trkpt>
      <trkpt lat="43.54571" lon="3.72327">
        <ele>62.1</ele>
        <time>2013-05-05T09:59:30Z</time>
      </trkpt>
      <trkpt lat="43.54578" lon="3.72329">
        <ele>62.2</ele>
        <time>2013-05-05T09:59:31Z</time>
      </trkpt>
      <trkpt lat="43.54584" lon="3.7233">
        <ele>62.3</ele>
        <time>2013-05-05T09:59:32Z</time>
      </trkpt>
      <trkpt lat="43.5459" lon="3.72332">
        <ele>62.3</ele>
        <time>2013-05-05T09:59:33Z</time>
      </trkpt>
      <trkpt lat="43.54597" lon="3.72335">
        <ele>62.4</ele>
        <time>2013-05-05T09:59:34Z</time>
      </trkpt>
      <trkpt lat="43.54603" lon="3.72337">
        <ele>62.2</ele>
        <time>2013-05-05T09:59:35Z</time>
      </trkpt>
      <trkpt lat="43.5461" lon="3.7234">
        <ele>62</ele>
        <time>2013-05-05T09:59:36Z</time>
      </trkpt>
      <trkpt lat="43.54617" lon="3.72342">
        <ele>61.8</ele>
        <time>2013-05-05T09:59:37Z</time>
      </trkpt>
      <trkpt lat="43.54625" lon="3.72345">
        <ele>61.2</ele>
        <time>2013-05-05T09:59:38Z</time>
      </trkpt>
      <trkpt lat="43.54632" lon="3.72347">
        <ele>60.8</ele>
        <time>2013-05-05T09:59:39Z</time>
      </trkpt>
      <trkpt lat="43.5464" lon="3.72348">
        <ele>60.4</ele>
        <time>2013-05-05T09:59:40Z</time>
      </trkpt>
      <trkpt lat="43.54648" lon="3.7235">
        <ele>60.1</ele>
        <time>2013-05-05T09:59:41Z</time>
      </trkpt>
      <trkpt lat="43.54656" lon="3.72351">
        <ele>59.7</ele>
        <time>2013-05-05T09:59:42Z</time>
      </trkpt>
      <trkpt lat="43.54664" lon="3.7235">
        <ele>59.4</ele>
        <time>2013-05-05T09:59:43Z</time>
      </trkpt>
      <trkpt lat="43.54672" lon="3.72349">
        <ele>59.2</ele>
        <time>2013-05-05T09:59:44Z</time>
      </trkpt>
      <trkpt lat="43.5468" lon="3.72348">
        <ele>58.7</ele>
        <time>2013-05-05T09:59:45Z</time>
      </trkpt>
      <trkpt lat="43.54688" lon="3.72347">
        <ele>58.4</ele>
        <time>2013-05-05T09:59:46Z</time>
      </trkpt>
      <trkpt lat="43.54696" lon="3.72346">
        <ele>58.1</ele>
        <time>2013-05-05T09:59:47Z</time>
      </trkpt>
      <trkpt lat="43.54704" lon="3.72346">
        <ele>57.4</ele>
        <time>2013-05-05T09:59:48Z</time>
      </trkpt>
      <trkpt lat="43.54711" lon="3.72345">
        <ele>56.9</ele>
        <time>2013-05-05T09:59:49Z</time>
      </trkpt>
      <trkpt lat="43.54719" lon="3.72344">
        <ele>56.5</ele>
        <time>2013-05-05T09:59:50Z</time>
      </trkpt>
      <trkpt lat="43.54726" lon="3.72343">
        <ele>56.3</ele>
        <time>2013-05-05T09:59:51Z</time>
      </trkpt>
      <trkpt lat="43.54733" lon="3.72342">
        <ele>56.3</ele>
        <time>2013-05-05T09:59:52Z</time>
      </trkpt>
      <trkpt lat="43.5474" lon="3.72342">
        <ele>56.2</ele>
        <time>2013-05-05T09:59:53Z</time>
      </trkpt>
      <trkpt lat="43.54748" lon="3.72341">
        <ele>55.9</ele>
        <time>2013-05-05T09:59:54Z</time>
      </trkpt>
      <trkpt lat="43.54755" lon="3.72341">
        <ele>55.6</ele>
        <time>2013-05-05T09:59:55Z</time>
      </trkpt>
      <trkpt lat="43.54762" lon="3.72341">
        <ele>55.4</ele>
        <time>2013-05-05T09:59:56Z</time>
      </trkpt>
      <trkpt lat="43.5477" lon="3.7234">
        <ele>55.1</ele>
        <time>2013-05-05T09:59:57Z</time>
      </trkpt>
      <trkpt lat="43.54777" lon="3.7234">
        <ele>54.9</ele>
        <time>2013-05-05T09:59:58Z</time>
      </trkpt>
      <trkpt lat="43.54785" lon="3.7234">
        <ele>54.7</ele>
        <time>2013-05-05T09:59:59Z</time>
      </trkpt>
      <trkpt lat="43.54792" lon="3.7234">
        <ele>54.6</ele>
        <time>2013-05-05T10:00:00Z</time>
      </trkpt>
      <trkpt lat="43.548" lon="3.7234">
        <ele>54.5</ele>
        <time>2013-05-05T10:00:01Z</time>
      </trkpt>
      <trkpt lat="43.54807" lon="3.7234">
        <ele>54.4</ele>
        <time>2013-05-05T10:00:02Z</time>
      </trkpt>
      <trkpt lat="43.54815" lon="3.7234">
        <ele>54.4</ele>
        <time>2013-05-05T10:00:03Z</time>
      </trkpt>
      <trkpt lat="43.54822" lon="3.7234">
        <ele>54.5</ele>
        <time>2013-05-05T10:00:04Z</time>
      </trkpt>
      <trkpt lat="43.5483" lon="3.72341">
        <ele>54.6</ele>
        <time>2013-05-05T10:00:05Z</time>
      </trkpt>
      <trkpt lat="43.54837" lon="3.72341">
        <ele>54.6</ele>
        <time>2013-05-05T10:00:06Z</time>
      </trkpt>
      <trkpt lat="43.54844" lon="3.72342">
        <ele>54.4</ele>
        <time>2013-05-05T10:00:07Z</time>
      </trkpt>
      <trkpt lat="43.54852" lon="3.72342">
        <ele>54.2</ele>
        <time>2013-05-05T10:00:08Z</time>
      </trkpt>
      <trkpt lat="43.54859" lon="3.72343">
        <ele>54.1</ele>
        <time>2013-05-05T10:00:09Z</time>
      </trkpt>
      <trkpt lat="43.54866" lon="3.72343">
        <ele>53.7</ele>
        <time>2013-05-05T10:00:10Z</time>
      </trkpt>
      <trkpt lat="43.54873" lon="3.72343">
        <ele>53.5</ele>
        <time>2013-05-05T10:00:11Z</time>
      </trkpt>
      <trkpt lat="43.5488" lon="3.72343">
        <ele>53.3</ele>
        <time>2013-05-05T10:00:12Z</time>
      </trkpt>
      <trkpt lat="43.54887" lon="3.72343">
        <ele>53.3</ele>
        <time>2013-05-05T10:00:13Z</time>
      </trkpt>
      <trkpt lat="43.54894" lon="3.72342">
        <ele>53.3</ele>
        <time>2013-05-05T10:00:14Z</time>
      </trkpt>
      <trkpt lat="43.54901" lon="3.72342">
        <ele>53.4</ele>
        <time>2013-05-05T10:00:15Z</time>
      </trkpt>
      <trkpt lat="43.54908" lon="3.72341">
        <ele>53.4</ele>
        <time>2013-05-05T10:00:16Z</time>
      </trkpt>
      <trkpt lat="43.54915" lon="3.72341">
        <ele>53.7</ele>
        <time>2013-05-05T10:00:17Z</time>
      </trkpt>
      <trkpt lat="43.54922" lon="3.72341">
        <ele>54</ele>
        <time>2013-05-05T10:00:18Z</time>
      </trkpt>
      <trkpt lat="43.54929" lon="3.72341">
        <ele>54.2</ele>
        <time>2013-05-05T10:00:19Z</time>
      </trkpt>
      <trkpt lat="43.54936" lon="3.72341">
        <ele>54</ele>
        <time>2013-05-05T10:00:20Z</time>
      </trkpt>
      <trkpt lat="43.54943" lon="3.72341">
        <ele>53.9</ele>
        <time>2013-05-05T10:00:21Z</time>
      </trkpt>
      <trkpt lat="43.5495" lon="3.72342">
        <ele>53.8</ele>
        <time>2013-05-05T10:00:22Z</time>
      </trkpt>
      <trkpt lat="43.54957" lon="3.72342">
        <ele>53.3</ele>
        <time>2013-05-05T10:00:23Z</time>
      </trkpt>
      <trkpt lat="43.54963" lon="3.72343">
        <ele>52.9</ele>
        <time>2013-05-05T10:00:24Z</time>
      </trkpt>
      <trkpt lat="43.5497" lon="3.72343">
        <ele>52.6</ele>
        <time>2013-05-05T10:00:25Z</time>
      </trkpt>
      <trkpt lat="43.54977" lon="3.72343">
        <ele>53</ele>
        <time>2013-05-05T10:00:26Z</time>
      </trkpt>
      <trkpt lat="43.54983" lon="3.72343">
        <ele>53.2</ele>
        <time>2013-05-05T10:00:27Z</time>
      </trkpt>
      <trkpt lat="43.54989" lon="3.72343">
        <ele>53.4</ele>
        <time>2013-05-05T10:00:28Z</time>
      </trkpt>
      <trkpt lat="43.54996" lon="3.72343">
        <ele>52.8</ele>
        <time>2013-05-05T10:00:29Z</time>
      </trkpt>
      <trkpt lat="43.55002" lon="3.72343">
        <ele>52.3</ele>
        <time>2013-05-05T10:00:30Z</time>
      </trkpt>
      <trkpt lat="43.55009" lon="3.72342">
        <ele>51.9</ele>
        <time>2013-05-05T10:00:31Z</time>
      </trkpt>
      <trkpt lat="43.55015" lon="3.72342">
        <ele>51.7</ele>
        <time>2013-05-05T10:00:32Z</time>
      </trkpt>
      <trkpt lat="43.55022" lon="3.72341">
        <ele>52.1</ele>
        <time>2013-05-05T10:00:33Z</time>
      </trkpt>
      <trkpt lat="43.55028" lon="3.7234">
        <ele>52.4</ele>
        <time>2013-05-05T10:00:34Z</time>
      </trkpt>
      <trkpt lat="43.55035" lon="3.72339">
        <ele>52.6</ele>
        <time>2013-05-05T10:00:35Z</time>
      </trkpt>
      <trkpt lat="43.55041" lon="3.72337">
        <ele>52.9</ele>
        <time>2013-05-05T10:00:36Z</time>
      </trkpt>
      <trkpt lat="43.55047" lon="3.72334">
        <ele>53</ele>
        <time>2013-05-05T10:00:37Z</time>
      </trkpt>
      <trkpt lat="43.55054" lon="3.72332">
        <ele>53.2</ele>
        <time>2013-05-05T10:00:38Z</time>
      </trkpt>
      <trkpt lat="43.55059" lon="3.72328">
        <ele>53.1</ele>
        <time>2013-05-05T10:00:39Z</time>
      </trkpt>
      <trkpt lat="43.55065" lon="3.72324">
        <ele>53.1</ele>
        <time>2013-05-05T10:00:40Z</time>
      </trkpt>
      <trkpt lat="43.55071" lon="3.7232">
        <ele>53.1</ele>
        <time>2013-05-05T10:00:41Z</time>
      </trkpt>
      <trkpt lat="43.55076" lon="3.72316">
        <ele>52.6</ele>
        <time>2013-05-05T10:00:42Z</time>
      </trkpt>
      <trkpt lat="43.55081" lon="3.72311">
        <ele>52.2</ele>
        <time>2013-05-05T10:00:43Z</time>
      </trkpt>
      <trkpt lat="43.55087" lon="3.72307">
        <ele>52</ele>
        <time>2013-05-05T10:00:44Z</time>
      </trkpt>
      <trkpt lat="43.55092" lon="3.72302">
        <ele>52.2</ele>
        <time>2013-05-05T10:00:45Z</time>
      </trkpt>
      <trkpt lat="43.55098" lon="3.72299">
        <ele>52.4</ele>
        <time>2013-05-05T10:00:46Z</time>
      </trkpt>
      <trkpt lat="43.55104" lon="3.72296">
        <ele>52.6</ele>
        <time>2013-05-05T10:00:47Z</time>
      </trkpt>
      <trkpt lat="43.5511" lon="3.72293">
        <ele>52.7</ele>
        <time>2013-05-05T10:00:48Z</time>
      </trkpt>
      <trkpt lat="43.55116" lon="3.72291">
        <ele>52.8</ele>
        <time>2013-05-05T10:00:49Z</time>
      </trkpt>
      <trkpt lat="43.55122" lon="3.72291">
        <ele>52.9</ele>
        <time>2013-05-05T10:00:50Z</time>
      </trkpt>
      <trkpt lat="43.55128" lon="3.72291">
        <ele>53</ele>
        <time>2013-05-05T10:00:51Z</time>
      </trkpt>
      <trkpt lat="43.55133" lon="3.7229">
        <ele>52.9</ele>
        <time>2013-05-05T10:00:52Z</time>
      </trkpt>
      <trkpt lat="43.55139" lon="3.72289">
        <ele>52.9</ele>
        <time>2013-05-05T10:00:53Z</time>
      </trkpt>
      <trkpt lat="43.55147" lon="3.72288">
        <ele>53</ele>
        <time>2013-05-05T10:00:55Z</time>
      </trkpt>
      <trkpt lat="43.55155" lon="3.72289">
        <ele>51.7</ele>
        <time>2013-05-05T10:01:07Z</time>
      </trkpt>
      <trkpt lat="43.55163" lon="3.72292">
        <ele>52.2</ele>
        <time>2013-05-05T10:01:11Z</time>
      </trkpt>
      <trkpt lat="43.5517" lon="3.72296">
        <ele>52.8</ele>
        <time>2013-05-05T10:01:14Z</time>
      </trkpt>
      <trkpt lat="43.55173" lon="3.72298">
        <ele>53</ele>
        <time>2013-05-05T10:01:15Z</time>
      </trkpt>
      <trkpt lat="43.55179" lon="3.7231">
        <ele>53.1</ele>
        <time>2013-05-05T10:01:19Z</time>
      </trkpt>
      <trkpt lat="43.5518" lon="3.7232">
        <ele>52.6</ele>
        <time>2013-05-05T10:01:21Z</time>
      </trkpt>
      <trkpt lat="43.55182" lon="3.7233">
        <ele>52.3</ele>
        <time>2013-05-05T10:01:23Z</time>
      </trkpt>
      <trkpt lat="43.55185" lon="3.72341">
        <ele>52.5</ele>
        <time>2013-05-05T10:01:25Z</time>
      </trkpt>
      <trkpt lat="43.55187" lon="3.72347">
        <ele>52.5</ele>
        <time>2013-05-05T10:01:26Z</time>
      </trkpt>
      <trkpt lat="43.55189" lon="3.72352">
        <ele>52.6</ele>
        <time>2013-05-05T10:01:27Z</time>
      </trkpt>
      <trkpt lat="43.55191" lon="3.72358">
        <ele>52.6</ele>
        <time>2013-05-05T10:01:28Z</time>
      </trkpt>
      <trkpt lat="43.55193" lon="3.72364">
        <ele>52.6</ele>
        <time>2013-05-05T10:01:29Z</time>
      </trkpt>
      <trkpt lat="43.55196" lon="3.7237">
        <ele>52.8</ele>
        <time>2013-05-05T10:01:30Z</time>
      </trkpt>
      <trkpt lat="43.55198" lon="3.72376">
        <ele>52.9</ele>
        <time>2013-05-05T10:01:31Z</time>
      </trkpt>
      <trkpt lat="43.55201" lon="3.72381">
        <ele>53</ele>
        <time>2013-05-05T10:01:32Z</time>
      </trkpt>
      <trkpt lat="43.55203" lon="3.72387">
        <ele>52.6</ele>
        <time>2013-05-05T10:01:33Z</time>
      </trkpt>
      <trkpt lat="43.55206" lon="3.72393">
        <ele>52.3</ele>
        <time>2013-05-05T10:01:34Z</time>
      </trkpt>
      <trkpt lat="43.55208" lon="3.72399">
        <ele>52.1</ele>
        <time>2013-05-05T10:01:35Z</time>
      </trkpt>
      <trkpt lat="43.55211" lon="3.72405">
        <ele>52.3</ele>
        <time>2013-05-05T10:01:36Z</time>
      </trkpt>
      <trkpt lat="43.55214" lon="3.72411">
        <ele>52.5</ele>
        <time>2013-05-05T10:01:37Z</time>
      </trkpt>
      <trkpt lat="43.55216" lon="3.72417">
        <ele>52.6</ele>
        <time>2013-05-05T10:01:38Z</time>
      </trkpt>
      <trkpt lat="43.55219" lon="3.72423">
        <ele>52.7</ele>
        <time>2013-05-05T10:01:39Z</time>
      </trkpt>
      <trkpt lat="43.55222" lon="3.72429">
        <ele>52.8</ele>
        <time>2013-05-05T10:01:40Z</time>
      </trkpt>
      <trkpt lat="43.55225" lon="3.72435">
        <ele>52.8</ele>
        <time>2013-05-05T10:01:41Z</time>
      </trkpt>
      <trkpt lat="43.55227" lon="3.72442">
        <ele>52.8</ele>
        <time>2013-05-05T10:01:42Z</time>
      </trkpt>
      <trkpt lat="43.5523" lon="3.72448">
        <ele>52.7</ele>
        <time>2013-05-05T10:01:43Z</time>
      </trkpt>
      <trkpt lat="43.55233" lon="3.72453">
        <ele>52.7</ele>
        <time>2013-05-05T10:01:44Z</time>
      </trkpt>
      <trkpt lat="43.55235" lon="3.72459">
        <ele>52.6</ele>
        <time>2013-05-05T10:01:45Z</time>
      </trkpt>
      <trkpt lat="43.55238" lon="3.72465">
        <ele>52.5</ele>
        <time>2013-05-05T10:01:46Z</time>
      </trkpt>
      <trkpt lat="43.55241" lon="3.72471">
        <ele>52.4</ele>
        <time>2013-05-05T10:01:47Z</time>
      </trkpt>
      <trkpt lat="43.55244" lon="3.72477">
        <ele>52.3</ele>
        <time>2013-05-05T10:01:48Z</time>
      </trkpt>
      <trkpt lat="43.55247" lon="3.72482">
        <ele>52.3</ele>
        <time>2013-05-05T10:01:49Z</time>
      </trkpt>
      <trkpt lat="43.5525" lon="3.72489">
        <ele>52.2</ele>
        <time>2013-05-05T10:01:50Z</time>
      </trkpt>
      <trkpt lat="43.55253" lon="3.72495">
        <ele>52.2</ele>
        <time>2013-05-05T10:01:51Z</time>
      </trkpt>
      <trkpt lat="43.55256" lon="3.725">
        <ele>52.2</ele>
        <time>2013-05-05T10:01:52Z</time>
      </trkpt>
      <trkpt lat="43.55259" lon="3.72506">
        <ele>52.2</ele>
        <time>2013-05-05T10:01:53Z</time>
      </trkpt>
      <trkpt lat="43.55262" lon="3.72512">
        <ele>52.1</ele>
        <time>2013-05-05T10:01:54Z</time>
      </trkpt>
      <trkpt lat="43.55266" lon="3.72518">
        <ele>52.1</ele>
        <time>2013-05-05T10:01:55Z</time>
      </trkpt>
      <trkpt lat="43.55269" lon="3.72524">
        <ele>52.2</ele>
        <time>2013-05-05T10:01:56Z</time>
      </trkpt>
      <trkpt lat="43.55272" lon="3.7253">
        <ele>52.3</ele>
        <time>2013-05-05T10:01:57Z</time>
      </trkpt>
      <trkpt lat="43.55276" lon="3.72535">
        <ele>52.4</ele>
        <time>2013-05-05T10:01:58Z</time>
      </trkpt>
      <trkpt lat="43.55279" lon="3.72541">
        <ele>52.5</ele>
        <time>2013-05-05T10:01:59Z</time>
      </trkpt>
      <trkpt lat="43.55282" lon="3.72547">
        <ele>52.6</ele>
        <time>2013-05-05T10:02:00Z</time>
      </trkpt>
      <trkpt lat="43.55285" lon="3.72552">
        <ele>52.6</ele>
        <time>2013-05-05T10:02:01Z</time>
      </trkpt>
      <trkpt lat="43.55289" lon="3.72557">
        <ele>52.2</ele>
        <time>2013-05-05T10:02:02Z</time>
      </trkpt>
      <trkpt lat="43.55292" lon="3.72563">
        <ele>51.8</ele>
        <time>2013-05-05T10:02:03Z</time>
      </trkpt>
      <trkpt lat="43.55295" lon="3.72568">
        <ele>51.5</ele>
        <time>2013-05-05T10:02:04Z</time>
      </trkpt>
      <trkpt lat="43.55299" lon="3.72573">
        <ele>51.6</ele>
        <time>2013-05-05T10:02:05Z</time>
      </trkpt>
      <trkpt lat="43.55302" lon="3.72577">
        <ele>51.6</ele>
        <time>2013-05-05T10:02:06Z</time>
      </trkpt>
      <trkpt lat="43.5531" lon="3.72583">
        <ele>51.5</ele>
        <time>2013-05-05T10:02:08Z</time>
      </trkpt>
      <trkpt lat="43.55317" lon="3.72587">
        <ele>51.4</ele>
        <time>2013-05-05T10:02:10Z</time>
      </trkpt>
      <trkpt lat="43.55323" lon="3.72594">
        <ele>51.3</ele>
        <time>2013-05-05T10:02:12Z</time>
      </trkpt>
      <trkpt lat="43.55325" lon="3.72603">
        <ele>51.3</ele>
        <time>2013-05-05T10:02:14Z</time>
      </trkpt>
      <trkpt lat="43.55327" lon="3.72612">
        <ele>51.2</ele>
        <time>2013-05-05T10:02:16Z</time>
      </trkpt>
      <trkpt lat="43.55329" lon="3.72616">
        <ele>51.2</ele>
        <time>2013-05-05T10:02:17Z</time>
      </trkpt>
      <trkpt lat="43.55336" lon="3.72627">
        <ele>51.9</ele>
        <time>2013-05-05T10:02:20Z</time>
      </trkpt>
      <trkpt lat="43.55341" lon="3.72633">
        <ele>51.2</ele>
        <time>2013-05-05T10:02:22Z</time>
      </trkpt>
      <trkpt lat="43.55347" lon="3.7264">
        <ele>50.8</ele>
        <time>2013-05-05T10:02:24Z</time>
      </trkpt>
      <trkpt lat="43.55354" lon="3.72647">
        <ele>50.5</ele>
        <time>2013-05-05T10:02:26Z</time>
      </trkpt>
      <trkpt lat="43.5536" lon="3.72654">
        <ele>50.7</ele>
        <time>2013-05-05T10:02:28Z</time>
      </trkpt>
      <trkpt lat="43.55367" lon="3.72661">
        <ele>50.9</ele>
        <time>2013-05-05T10:02:30Z</time>
      </trkpt>
      <trkpt lat="43.55374" lon="3.72668">
        <ele>50.9</ele>
        <time>2013-05-05T10:02:32Z</time>
      </trkpt>
      <trkpt lat="43.55381" lon="3.72675">
        <ele>50.7</ele>
        <time>2013-05-05T10:02:34Z</time>
      </trkpt>
      <trkpt lat="43.55388" lon="3.72681">
        <ele>50.5</ele>
        <time>2013-05-05T10:02:36Z</time>
      </trkpt>
      <trkpt lat="43.55392" lon="3.72685">
        <ele>50.7</ele>
        <time>2013-05-05T10:02:37Z</time>
      </trkpt>
      <trkpt lat="43.55396" lon="3.72689">
        <ele>50.9</ele>
        <time>2013-05-05T10:02:38Z</time>
      </trkpt>
      <trkpt lat="43.554" lon="3.72692">
        <ele>51.1</ele>
        <time>2013-05-05T10:02:39Z</time>
      </trkpt>
      <trkpt lat="43.55407" lon="3.72699">
        <ele>51.2</ele>
        <time>2013-05-05T10:02:41Z</time>
      </trkpt>
      <trkpt lat="43.55414" lon="3.72706">
        <ele>50.9</ele>
        <time>2013-05-05T10:02:43Z</time>
      </trkpt>
      <trkpt lat="43.55418" lon="3.72709">
        <ele>50.7</ele>
        <time>2013-05-05T10:02:44Z</time>
      </trkpt>
      <trkpt lat="43.55422" lon="3.72712">
        <ele>50.6</ele>
        <time>2013-05-05T10:02:45Z</time>
      </trkpt>
      <trkpt lat="43.55426" lon="3.72715">
        <ele>50.5</ele>
        <time>2013-05-05T10:02:46Z</time>
      </trkpt>
      <trkpt lat="43.5543" lon="3.72718">
        <ele>50.6</ele>
        <time>2013-05-05T10:02:47Z</time>
      </trkpt>
      <trkpt lat="43.55434" lon="3.72721">
        <ele>50.8</ele>
        <time>2013-05-05T10:02:48Z</time>
      </trkpt>
      <trkpt lat="43.55438" lon="3.72724">
        <ele>50.9</ele>
        <time>2013-05-05T10:02:49Z</time>
      </trkpt>
      <trkpt lat="43.55442" lon="3.72727">
        <ele>51</ele>
        <time>2013-05-05T10:02:50Z</time>
      </trkpt>
      <trkpt lat="43.55446" lon="3.7273">
        <ele>51.1</ele>
        <time>2013-05-05T10:02:51Z</time>
      </trkpt>
      <trkpt lat="43.5545" lon="3.72733">
        <ele>51.2</ele>
        <time>2013-05-05T10:02:52Z</time>
      </trkpt>
      <trkpt lat="43.55455" lon="3.72736">
        <ele>51</ele>
        <time>2013-05-05T10:02:53Z</time>
      </trkpt>
      <trkpt lat="43.55459" lon="3.72739">
        <ele>50.9</ele>
        <time>2013-05-05T10:02:54Z</time>
      </trkpt>
      <trkpt lat="43.55464" lon="3.72742">
        <ele>50.8</ele>
        <time>2013-05-05T10:02:55Z</time>
      </trkpt>
      <trkpt lat="43.55469" lon="3.72745">
        <ele>50.7</ele>
        <time>2013-05-05T10:02:56Z</time>
      </trkpt>
      <trkpt lat="43.55473" lon="3.72749">
        <ele>50.5</ele>
        <time>2013-05-05T10:02:57Z</time>
      </trkpt>
      <trkpt lat="43.55478" lon="3.72752">
        <ele>50.4</ele>
        <time>2013-05-05T10:02:58Z</time>
      </trkpt>
      <trkpt lat="43.55482" lon="3.72755">
        <ele>50.8</ele>
        <time>2013-05-05T10:02:59Z</time>
      </trkpt>
      <trkpt lat="43.55487" lon="3.72758">
        <ele>51</ele>
        <time>2013-05-05T10:03:00Z</time>
      </trkpt>
      <trkpt lat="43.55491" lon="3.72761">
        <ele>51.2</ele>
        <time>2013-05-05T10:03:01Z</time>
      </trkpt>
      <trkpt lat="43.55496" lon="3.72763">
        <ele>51.4</ele>
        <time>2013-05-05T10:03:02Z</time>
      </trkpt>
      <trkpt lat="43.55501" lon="3.72766">
        <ele>50.9</ele>
        <time>2013-05-05T10:03:03Z</time>
      </trkpt>
      <trkpt lat="43.55505" lon="3.72769">
        <ele>50.6</ele>
        <time>2013-05-05T10:03:04Z</time>
      </trkpt>
      <trkpt lat="43.5551" lon="3.72772">
        <ele>50.3</ele>
        <time>2013-05-05T10:03:05Z</time>
      </trkpt>
      <trkpt lat="43.55515" lon="3.72775">
        <ele>50.4</ele>
        <time>2013-05-05T10:03:06Z</time>
      </trkpt>
      <trkpt lat="43.55519" lon="3.72777">
        <ele>50.5</ele>
        <time>2013-05-05T10:03:07Z</time>
      </trkpt>
      <trkpt lat="43.55524" lon="3.7278">
        <ele>50.6</ele>
        <time>2013-05-05T10:03:08Z</time>
      </trkpt>
      <trkpt lat="43.55529" lon="3.72782">
        <ele>50.6</ele>
        <time>2013-05-05T10:03:09Z</time>
      </trkpt>
      <trkpt lat="43.55534" lon="3.72785">
        <ele>50.6</ele>
        <time>2013-05-05T10:03:10Z</time>
      </trkpt>
      <trkpt lat="43.55538" lon="3.72788">
        <ele>50.7</ele>
        <time>2013-05-05T10:03:11Z</time>
      </trkpt>
      <trkpt lat="43.55543" lon="3.7279">
        <ele>50.7</ele>
        <time>2013-05-05T10:03:12Z</time>
      </trkpt>
      <trkpt lat="43.55548" lon="3.72793">
        <ele>50.7</ele>
        <time>2013-05-05T10:03:13Z</time>
      </trkpt>
      <trkpt lat="43.55553" lon="3.72795">
        <ele>50.7</ele>
        <time>2013-05-05T10:03:14Z</time>
      </trkpt>
      <trkpt lat="43.55558" lon="3.72798">
        <ele>50.9</ele>
        <time>2013-05-05T10:03:15Z</time>
      </trkpt>
      <trkpt lat="43.55563" lon="3.728">
        <ele>51</ele>
        <time>2013-05-05T10:03:16Z</time>
      </trkpt>
      <trkpt lat="43.55568" lon="3.72803">
        <ele>51</ele>
        <time>2013-05-05T10:03:17Z</time>
      </trkpt>
      <trkpt lat="43.55573" lon="3.72805">
        <ele>51.1</ele>
        <time>2013-05-05T10:03:18Z</time>
      </trkpt>
      <trkpt lat="43.55577" lon="3.72808">
        <ele>50.8</ele>
        <time>2013-05-05T10:03:19Z</time>
      </trkpt>
      <trkpt lat="43.55582" lon="3.7281">
        <ele>50.7</ele>
        <time>2013-05-05T10:03:20Z</time>
      </trkpt>
      <trkpt lat="43.55587" lon="3.72812">
        <ele>50.5</ele>
        <time>2013-05-05T10:03:21Z</time>
      </trkpt>
      <trkpt lat="43.55592" lon="3.72815">
        <ele>50.4</ele>
        <time>2013-05-05T10:03:22Z</time>
      </trkpt>
      <trkpt lat="43.55597" lon="3.72817">
        <ele>50.4</ele>
        <time>2013-05-05T10:03:23Z</time>
      </trkpt>
      <trkpt lat="43.55602" lon="3.7282">
        <ele>50.4</ele>
        <time>2013-05-05T10:03:24Z</time>
      </trkpt>
      <trkpt lat="43.55607" lon="3.72822">
        <ele>50.3</ele>
        <time>2013-05-05T10:03:25Z</time>
      </trkpt>
      <trkpt lat="43.55611" lon="3.72824">
        <ele>50.2</ele>
        <time>2013-05-05T10:03:26Z</time>
      </trkpt>
      <trkpt lat="43.55616" lon="3.72826">
        <ele>50.1</ele>
        <time>2013-05-05T10:03:27Z</time>
      </trkpt>
      <trkpt lat="43.55621" lon="3.72828">
        <ele>50</ele>
        <time>2013-05-05T10:03:28Z</time>
      </trkpt>
      <trkpt lat="43.55627" lon="3.7283">
        <ele>49.9</ele>
        <time>2013-05-05T10:03:29Z</time>
      </trkpt>
      <trkpt lat="43.55632" lon="3.72832">
        <ele>49.9</ele>
        <time>2013-05-05T10:03:30Z</time>
      </trkpt>
      <trkpt lat="43.55637" lon="3.72834">
        <ele>49.8</ele>
        <time>2013-05-05T10:03:31Z</time>
      </trkpt>
      <trkpt lat="43.55642" lon="3.72836">
        <ele>49.8</ele>
        <time>2013-05-05T10:03:32Z</time>
      </trkpt>
      <trkpt lat="43.55647" lon="3.72838">
        <ele>49.8</ele>
        <time>2013-05-05T10:03:33Z</time>
      </trkpt>
      <trkpt lat="43.55653" lon="3.72839">
        <ele>50</ele>
        <time>2013-05-05T10:03:34Z</time>
      </trkpt>
      <trkpt lat="43.55658" lon="3.72841">
        <ele>50.2</ele>
        <time>2013-05-05T10:03:35Z</time>
      </trkpt>
      <trkpt lat="43.55664" lon="3.72842">
        <ele>50.3</ele>
        <time>2013-05-05T10:03:36Z</time>
      </trkpt>
      <trkpt lat="43.55669" lon="3.72844">
        <ele>50.4</ele>
        <time>2013-05-05T10:03:37Z</time>
      </trkpt>
      <trkpt lat="43.55675" lon="3.72846">
        <ele>50.4</ele>
        <time>2013-05-05T10:03:38Z</time>
      </trkpt>
      <trkpt lat="43.5568" lon="3.72847">
        <ele>50.3</ele>
        <time>2013-05-05T10:03:39Z</time>
      </trkpt>
      <trkpt lat="43.55686" lon="3.72849">
        <ele>50.3</ele>
        <time>2013-05-05T10:03:40Z</time>
      </trkpt>
      <trkpt lat="43.55691" lon="3.7285">
        <ele>50</ele>
        <time>2013-05-05T10:03:41Z</time>
      </trkpt>
      <trkpt lat="43.55697" lon="3.72852">
        <ele>49.8</ele>
        <time>2013-05-05T10:03:42Z</time>
      </trkpt>
      <trkpt lat="43.55702" lon="3.72853">
        <ele>49.7</ele>
        <time>2013-05-05T10:03:43Z</time>
      </trkpt>
      <trkpt lat="43.55707" lon="3.72855">
        <ele>49.8</ele>
        <time>2013-05-05T10:03:44Z</time>
      </trkpt>
      <trkpt lat="43.55712" lon="3.72856">
        <ele>49.9</ele>
        <time>2013-05-05T10:03:45Z</time>
      </trkpt>
      <trkpt lat="43.55717" lon="3.72857">
        <ele>49.9</ele>
        <time>2013-05-05T10:03:46Z</time>
      </trkpt>
      <trkpt lat="43.55723" lon="3.72858">
        <ele>50.1</ele>
        <time>2013-05-05T10:03:47Z</time>
      </trkpt>
      <trkpt lat="43.55728" lon="3.72858">
        <ele>50.2</ele>
        <time>2013-05-05T10:03:48Z</time>
      </trkpt>
      <trkpt lat="43.55733" lon="3.72859">
        <ele>50.3</ele>
        <time>2013-05-05T10:03:49Z</time>
      </trkpt>
      <trkpt lat="43.55738" lon="3.72859">
        <ele>50.5</ele>
        <time>2013-05-05T10:03:50Z</time>
      </trkpt>
      <trkpt lat="43.55743" lon="3.72858">
        <ele>50.6</ele>
        <time>2013-05-05T10:03:51Z</time>
      </trkpt>
      <trkpt lat="43.5575" lon="3.72859">
        <ele>50.8</ele>
        <time>2013-05-05T10:03:53Z</time>
      </trkpt>
      <trkpt lat="43.55756" lon="3.7286">
        <ele>50.4</ele>
        <time>2013-05-05T10:03:55Z</time>
      </trkpt>
      <trkpt lat="43.55764" lon="3.72861">
        <ele>50.1</ele>
        <time>2013-05-05T10:03:57Z</time>
      </trkpt>
      <trkpt lat="43.55768" lon="3.72864">
        <ele>50</ele>
        <time>2013-05-05T10:03:58Z</time>
      </trkpt>
      <trkpt lat="43.55773" lon="3.72866">
        <ele>49.9</ele>
        <time>2013-05-05T10:03:59Z</time>
      </trkpt>
      <trkpt lat="43.55779" lon="3.72867">
        <ele>50</ele>
        <time>2013-05-05T10:04:00Z</time>
      </trkpt>
      <trkpt lat="43.55784" lon="3.72868">
        <ele>50.1</ele>
        <time>2013-05-05T10:04:01Z</time>
      </trkpt>
      <trkpt lat="43.55789" lon="3.72869">
        <ele>50.2</ele>
        <time>2013-05-05T10:04:02Z</time>
      </trkpt>
      <trkpt lat="43.55795" lon="3.72869">
        <ele>50.3</ele>
        <time>2013-05-05T10:04:03Z</time>
      </trkpt>
      <trkpt lat="43.558" lon="3.72869">
        <ele>50.3</ele>
        <time>2013-05-05T10:04:04Z</time>
      </trkpt>
      <trkpt lat="43.55805" lon="3.7287">
        <ele>50.4</ele>
        <time>2013-05-05T10:04:05Z</time>
      </trkpt>
      <trkpt lat="43.55811" lon="3.7287">
        <ele>50.3</ele>
        <time>2013-05-05T10:04:06Z</time>
      </trkpt>
      <trkpt lat="43.55816" lon="3.72869">
        <ele>50.3</ele>
        <time>2013-05-05T10:04:07Z</time>
      </trkpt>
      <trkpt lat="43.55822" lon="3.72869">
        <ele>50.3</ele>
        <time>2013-05-05T10:04:08Z</time>
      </trkpt>
      <trkpt lat="43.55827" lon="3.72869">
        <ele>50.2</ele>
        <time>2013-05-05T10:04:09Z</time>
      </trkpt>
      <trkpt lat="43.55833" lon="3.72869">
        <ele>50.2</ele>
        <time>2013-05-05T10:04:10Z</time>
      </trkpt>
      <trkpt lat="43.55838" lon="3.72869">
        <ele>50.2</ele>
        <time>2013-05-05T10:04:11Z</time>
      </trkpt>
      <trkpt lat="43.55844" lon="3.72868">
        <ele>50.2</ele>
        <time>2013-05-05T10:04:12Z</time>
      </trkpt>
      <trkpt lat="43.5585" lon="3.72868">
        <ele>49.9</ele>
        <time>2013-05-05T10:04:13Z</time>
      </trkpt>
      <trkpt lat="43.55855" lon="3.72868">
        <ele>49.8</ele>
        <time>2013-05-05T10:04:14Z</time>
      </trkpt>
      <trkpt lat="43.55861" lon="3.72868">
        <ele>49.6</ele>
        <time>2013-05-05T10:04:15Z</time>
      </trkpt>
      <trkpt lat="43.55867" lon="3.72868">
        <ele>49.7</ele>
        <time>2013-05-05T10:04:16Z</time>
      </trkpt>
      <trkpt lat="43.55873" lon="3.72867">
        <ele>49.8</ele>
        <time>2013-05-05T10:04:17Z</time>
      </trkpt>
      <trkpt lat="43.55879" lon="3.72867">
        <ele>49.9</ele>
        <time>2013-05-05T10:04:18Z</time>
      </trkpt>
      <trkpt lat="43.55885" lon="3.72866">
        <ele>49.6</ele>
        <time>2013-05-05T10:04:19Z</time>
      </trkpt>
      <trkpt lat="43.55891" lon="3.72866">
        <ele>49.4</ele>
        <time>2013-05-05T10:04:20Z</time>
      </trkpt>
      <trkpt lat="43.55897" lon="3.72865">
        <ele>49.2</ele>
        <time>2013-05-05T10:04:21Z</time>
      </trkpt>
      <trkpt lat="43.55903" lon="3.72864">
        <ele>49.3</ele>
        <time>2013-05-05T10:04:22Z</time>
      </trkpt>
      <trkpt lat="43.5591" lon="3.72865">
        <ele>49.3</ele>
        <time>2013-05-05T10:04:23Z</time>
      </trkpt>
      <trkpt lat="43.55916" lon="3.72865">
        <ele>49.3</ele>
        <time>2013-05-05T10:04:24Z</time>
      </trkpt>
      <trkpt lat="43.55922" lon="3.72865">
        <ele>49.3</ele>
        <time>2013-05-05T10:04:25Z</time>
      </trkpt>
      <trkpt lat="43.55928" lon="3.72865">
        <ele>49.2</ele>
        <time>2013-05-05T10:04:26Z</time>
      </trkpt>
      <trkpt lat="43.55934" lon="3.72864">
        <ele>49.1</ele>
        <time>2013-05-05T10:04:27Z</time>
      </trkpt>
      <trkpt lat="43.5594" lon="3.72864">
        <ele>49</ele>
        <time>2013-05-05T10:04:28Z</time>
      </trkpt>
      <trkpt lat="43.55946" lon="3.72863">
        <ele>48.9</ele>
        <time>2013-05-05T10:04:29Z</time>
      </trkpt>
      <trkpt lat="43.55953" lon="3.72862">
        <ele>48.9</ele>
        <time>2013-05-05T10:04:30Z</time>
      </trkpt>
      <trkpt lat="43.55959" lon="3.72861">
        <ele>48.9</ele>
        <time>2013-05-05T10:04:31Z</time>
      </trkpt>
      <trkpt lat="43.55965" lon="3.7286">
        <ele>48.9</ele>
        <time>2013-05-05T10:04:32Z</time>
      </trkpt>
      <trkpt lat="43.55971" lon="3.72858">
        <ele>48.9</ele>
        <time>2013-05-05T10:04:33Z</time>
      </trkpt>
      <trkpt lat="43.55977" lon="3.72857">
        <ele>48.9</ele>
        <time>2013-05-05T10:04:34Z</time>
      </trkpt>
      <trkpt lat="43.55983" lon="3.72856">
        <ele>48.5</ele>
        <time>2013-05-05T10:04:35Z</time>
      </trkpt>
      <trkpt lat="43.5599" lon="3.72854">
        <ele>48.3</ele>
        <time>2013-05-05T10:04:36Z</time>
      </trkpt>
      <trkpt lat="43.55997" lon="3.72853">
        <ele>48.1</ele>
        <time>2013-05-05T10:04:37Z</time>
      </trkpt>
      <trkpt lat="43.56004" lon="3.72852">
        <ele>48</ele>
        <time>2013-05-05T10:04:38Z</time>
      </trkpt>
      <trkpt lat="43.5601" lon="3.7285">
        <ele>47.8</ele>
        <time>2013-05-05T10:04:39Z</time>
      </trkpt>
      <trkpt lat="43.56016" lon="3.72849">
        <ele>47.8</ele>
        <time>2013-05-05T10:04:40Z</time>
      </trkpt>
      <trkpt lat="43.56023" lon="3.72848">
        <ele>47.3</ele>
        <time>2013-05-05T10:04:42Z</time>
      </trkpt>
      <trkpt lat="43.5603" lon="3.7285">
        <ele>46.8</ele>
        <time>2013-05-05T10:04:44Z</time>
      </trkpt>
      <trkpt lat="43.56038" lon="3.7285">
        <ele>47.1</ele>
        <time>2013-05-05T10:04:46Z</time>
      </trkpt>
      <trkpt lat="43.56043" lon="3.72848">
        <ele>47.1</ele>
        <time>2013-05-05T10:04:47Z</time>
      </trkpt>
      <trkpt lat="43.56048" lon="3.72847">
        <ele>46.8</ele>
        <time>2013-05-05T10:04:48Z</time>
      </trkpt>
      <trkpt lat="43.56054" lon="3.72847">
        <ele>46.6</ele>
        <time>2013-05-05T10:04:49Z</time>
      </trkpt>
      <trkpt lat="43.5606" lon="3.72849">
        <ele>46.4</ele>
        <time>2013-05-05T10:04:50Z</time>
      </trkpt>
      <trkpt lat="43.56065" lon="3.72852">
        <ele>46.1</ele>
        <time>2013-05-05T10:04:51Z</time>
      </trkpt>
      <trkpt lat="43.56071" lon="3.72857">
        <ele>45.9</ele>
        <time>2013-05-05T10:04:52Z</time>
      </trkpt>
      <trkpt lat="43.56076" lon="3.72862">
        <ele>45.8</ele>
        <time>2013-05-05T10:04:53Z</time>
      </trkpt>
      <trkpt lat="43.56081" lon="3.72866">
        <ele>45.6</ele>
        <time>2013-05-05T10:04:54Z</time>
      </trkpt>
      <trkpt lat="43.56086" lon="3.72871">
        <ele>45.5</ele>
        <time>2013-05-05T10:04:55Z</time>
      </trkpt>
      <trkpt lat="43.5609" lon="3.72876">
        <ele>45.4</ele>
        <time>2013-05-05T10:04:56Z</time>
      </trkpt>
      <trkpt lat="43.56094" lon="3.7288">
        <ele>45.3</ele>
        <time>2013-05-05T10:04:57Z</time>
      </trkpt>
      <trkpt lat="43.56099" lon="3.72884">
        <ele>44.9</ele>
        <time>2013-05-05T10:04:58Z</time>
      </trkpt>
      <trkpt lat="43.56103" lon="3.72888">
        <ele>44.5</ele>
        <time>2013-05-05T10:04:59Z</time>
      </trkpt>
      <trkpt lat="43.56107" lon="3.72892">
        <ele>44.3</ele>
        <time>2013-05-05T10:05:00Z</time>
      </trkpt>
      <trkpt lat="43.56112" lon="3.72896">
        <ele>44.3</ele>
        <time>2013-05-05T10:05:01Z</time>
      </trkpt>
      <trkpt lat="43.56116" lon="3.72899">
        <ele>44.4</ele>
        <time>2013-05-05T10:05:02Z</time>
      </trkpt>
      <trkpt lat="43.56121" lon="3.72902">
        <ele>44.4</ele>
        <time>2013-05-05T10:05:03Z</time>
      </trkpt>
      <trkpt lat="43.56127" lon="3.72905">
        <ele>44.3</ele>
        <time>2013-05-05T10:05:04Z</time>
      </trkpt>
      <trkpt lat="43.56133" lon="3.72908">
        <ele>44.3</ele>
        <time>2013-05-05T10:05:05Z</time>
      </trkpt>
      <trkpt lat="43.56138" lon="3.7291">
        <ele>44.2</ele>
        <time>2013-05-05T10:05:06Z</time>
      </trkpt>
      <trkpt lat="43.56144" lon="3.72912">
        <ele>44.2</ele>
        <time>2013-05-05T10:05:07Z</time>
      </trkpt>
      <trkpt lat="43.56151" lon="3.72914">
        <ele>44.2</ele>
        <time>2013-05-05T10:05:08Z</time>
      </trkpt>
      <trkpt lat="43.56157" lon="3.72915">
        <ele>44.2</ele>
        <time>2013-05-05T10:05:09Z</time>
      </trkpt>
      <trkpt lat="43.56162" lon="3.72916">
        <ele>44.1</ele>
        <time>2013-05-05T10:05:10Z</time>
      </trkpt>
      <trkpt lat="43.56168" lon="3.72917">
        <ele>44.1</ele>
        <time>2013-05-05T10:05:11Z</time>
      </trkpt>
      <trkpt lat="43.56174" lon="3.72917">
        <ele>44.1</ele>
        <time>2013-05-05T10:05:12Z</time>
      </trkpt>
      <trkpt lat="43.5618" lon="3.72917">
        <ele>44.2</ele>
        <time>2013-05-05T10:05:13Z</time>
      </trkpt>
      <trkpt lat="43.56185" lon="3.72917">
        <ele>44.2</ele>
        <time>2013-05-05T10:05:14Z</time>
      </trkpt>
      <trkpt lat="43.5619" lon="3.72916">
        <ele>44.3</ele>
        <time>2013-05-05T10:05:15Z</time>
      </trkpt>
      <trkpt lat="43.56196" lon="3.72915">
        <ele>44.3</ele>
        <time>2013-05-05T10:05:16Z</time>
      </trkpt>
      <trkpt lat="43.56201" lon="3.72914">
        <ele>44.5</ele>
        <time>2013-05-05T10:05:17Z</time>
      </trkpt>
      <trkpt lat="43.56206" lon="3.72914">
        <ele>44.6</ele>
        <time>2013-05-05T10:05:18Z</time>
      </trkpt>
      <trkpt lat="43.56212" lon="3.72913">
        <ele>44.7</ele>
        <time>2013-05-05T10:05:19Z</time>
      </trkpt>
      <trkpt lat="43.56217" lon="3.72913">
        <ele>44.9</ele>
        <time>2013-05-05T10:05:20Z</time>
      </trkpt>
      <trkpt lat="43.56222" lon="3.72913">
        <ele>45</ele>
        <time>2013-05-05T10:05:21Z</time>
      </trkpt>
      <trkpt lat="43.56227" lon="3.72913">
        <ele>45</ele>
        <time>2013-05-05T10:05:22Z</time>
      </trkpt>
      <trkpt lat="43.56233" lon="3.72913">
        <ele>45.2</ele>
        <time>2013-05-05T10:05:23Z</time>
      </trkpt>
      <trkpt lat="43.56238" lon="3.72914">
        <ele>45.3</ele>
        <time>2013-05-05T10:05:24Z</time>
      </trkpt>
      <trkpt lat="43.56243" lon="3.72916">
        <ele>45.4</ele>
        <time>2013-05-05T10:05:25Z</time>
      </trkpt>
      <trkpt lat="43.56249" lon="3.72918">
        <ele>46.2</ele>
        <time>2013-05-05T10:05:26Z</time>
      </trkpt>
      <trkpt lat="43.56254" lon="3.7292">
        <ele>46.8</ele>
        <time>2013-05-05T10:05:27Z</time>
      </trkpt>
      <trkpt lat="43.5626" lon="3.72922">
        <ele>47.2</ele>
        <time>2013-05-05T10:05:28Z</time>
      </trkpt>
      <trkpt lat="43.56265" lon="3.72925">
        <ele>47.4</ele>
        <time>2013-05-05T10:05:29Z</time>
      </trkpt>
      <trkpt lat="43.56271" lon="3.72928">
        <ele>47.5</ele>
        <time>2013-05-05T10:05:30Z</time>
      </trkpt>
      <trkpt lat="43.56276" lon="3.72931">
        <ele>47.6</ele>
        <time>2013-05-05T10:05:31Z</time>
      </trkpt>
      <trkpt lat="43.56282" lon="3.72934">
        <ele>47.6</ele>
        <time>2013-05-05T10:05:32Z</time>
      </trkpt>
      <trkpt lat="43.56287" lon="3.72937">
        <ele>47.8</ele>
        <time>2013-05-05T10:05:33Z</time>
      </trkpt>
      <trkpt lat="43.56293" lon="3.7294">
        <ele>48</ele>
        <time>2013-05-05T10:05:34Z</time>
      </trkpt>
      <trkpt lat="43.56299" lon="3.72943">
        <ele>48.1</ele>
        <time>2013-05-05T10:05:35Z</time>
      </trkpt>
      <trkpt lat="43.56305" lon="3.72947">
        <ele>48.5</ele>
        <time>2013-05-05T10:05:36Z</time>
      </trkpt>
      <trkpt lat="43.56311" lon="3.72951">
        <ele>48.7</ele>
        <time>2013-05-05T10:05:37Z</time>
      </trkpt>
      <trkpt lat="43.56316" lon="3.72954">
        <ele>48.9</ele>
        <time>2013-05-05T10:05:38Z</time>
      </trkpt>
      <trkpt lat="43.56322" lon="3.72958">
        <ele>49.3</ele>
        <time>2013-05-05T10:05:39Z</time>
      </trkpt>
      <trkpt lat="43.56328" lon="3.72962">
        <ele>49.5</ele>
        <time>2013-05-05T10:05:40Z</time>
      </trkpt>
      <trkpt lat="43.56334" lon="3.72965">
        <ele>49.7</ele>
        <time>2013-05-05T10:05:41Z</time>
      </trkpt>
      <trkpt lat="43.56339" lon="3.72968">
        <ele>50.4</ele>
        <time>2013-05-05T10:05:42Z</time>
      </trkpt>
      <trkpt lat="43.56344" lon="3.72971">
        <ele>50.8</ele>
        <time>2013-05-05T10:05:43Z</time>
      </trkpt>
      <trkpt lat="43.56349" lon="3.72974">
        <ele>51.2</ele>
        <time>2013-05-05T10:05:44Z</time>
      </trkpt>
      <trkpt lat="43.56354" lon="3.72976">
        <ele>51.5</ele>
        <time>2013-05-05T10:05:45Z</time>
      </trkpt>
      <trkpt lat="43.56362" lon="3.72978">
        <ele>51.9</ele>
        <time>2013-05-05T10:05:47Z</time>
      </trkpt>
      <trkpt lat="43.56371" lon="3.72978">
        <ele>52.6</ele>
        <time>2013-05-05T10:05:49Z</time>
      </trkpt>
      <trkpt lat="43.56378" lon="3.72978">
        <ele>53.4</ele>
        <time>2013-05-05T10:05:51Z</time>
      </trkpt>
      <trkpt lat="43.56385" lon="3.7298">
        <ele>53.4</ele>
        <time>2013-05-05T10:05:53Z</time>
      </trkpt>
      <trkpt lat="43.56391" lon="3.72983">
        <ele>53.3</ele>
        <time>2013-05-05T10:05:55Z</time>
      </trkpt>
      <trkpt lat="43.56397" lon="3.72987">
        <ele>53.1</ele>
        <time>2013-05-05T10:05:57Z</time>
      </trkpt>
      <trkpt lat="43.56403" lon="3.7299">
        <ele>54.1</ele>
        <time>2013-05-05T10:05:59Z</time>
      </trkpt>
      <trkpt lat="43.56409" lon="3.72994">
        <ele>54.3</ele>
        <time>2013-05-05T10:06:01Z</time>
      </trkpt>
      <trkpt lat="43.56414" lon="3.72997">
        <ele>54.2</ele>
        <time>2013-05-05T10:06:03Z</time>
      </trkpt>
      <trkpt lat="43.5642" lon="3.73001">
        <ele>54.4</ele>
        <time>2013-05-05T10:06:05Z</time>
      </trkpt>
      <trkpt lat="43.56426" lon="3.73005">
        <ele>54.6</ele>
        <time>2013-05-05T10:06:07Z</time>
      </trkpt>
      <trkpt lat="43.56431" lon="3.7301">
        <ele>55.3</ele>
        <time>2013-05-05T10:06:09Z</time>
      </trkpt>
      <trkpt lat="43.56437" lon="3.73015">
        <ele>55.9</ele>
        <time>2013-05-05T10:06:11Z</time>
      </trkpt>
      <trkpt lat="43.56443" lon="3.7302">
        <ele>56.5</ele>
        <time>2013-05-05T10:06:13Z</time>
      </trkpt>
      <trkpt lat="43.56448" lon="3.73025">
        <ele>55.1</ele>
        <time>2013-05-05T10:06:15Z</time>
      </trkpt>
      <trkpt lat="43.56455" lon="3.7303">
        <ele>54.6</ele>
        <time>2013-05-05T10:06:17Z</time>
      </trkpt>
      <trkpt lat="43.56461" lon="3.73036">
        <ele>54.4</ele>
        <time>2013-05-05T10:06:19Z</time>
      </trkpt>
      <trkpt lat="43.56468" lon="3.73042">
        <ele>54.5</ele>
        <time>2013-05-05T10:06:21Z</time>
      </trkpt>
      <trkpt lat="43.56471" lon="3.73046">
        <ele>54.5</ele>
        <time>2013-05-05T10:06:22Z</time>
      </trkpt>
      <trkpt lat="43.56481" lon="3.73056">
        <ele>55</ele>
        <time>2013-05-05T10:06:25Z</time>
      </trkpt>
      <trkpt lat="43.56487" lon="3.73064">
        <ele>55.1</ele>
        <time>2013-05-05T10:06:27Z</time>
      </trkpt>
      <trkpt lat="43.56491" lon="3.73068">
        <ele>55.2</ele>
        <time>2013-05-05T10:06:28Z</time>
      </trkpt>
      <trkpt lat="43.56494" lon="3.73072">
        <ele>55.2</ele>
        <time>2013-05-05T10:06:29Z</time>
      </trkpt>
      <trkpt lat="43.56498" lon="3.73077">
        <ele>54.6</ele>
        <time>2013-05-05T10:06:30Z</time>
      </trkpt>
      <trkpt lat="43.56502" lon="3.73081">
        <ele>54.2</ele>
        <time>2013-05-05T10:06:31Z</time>
      </trkpt>
      <trkpt lat="43.56505" lon="3.73085">
        <ele>53.9</ele>
        <time>2013-05-05T10:06:32Z</time>
      </trkpt>
      <trkpt lat="43.56509" lon="3.7309">
        <ele>53.4</ele>
        <time>2013-05-05T10:06:33Z</time>
      </trkpt>
      <trkpt lat="43.56512" lon="3.73095">
        <ele>53</ele>
        <time>2013-05-05T10:06:34Z</time>
      </trkpt>
      <trkpt lat="43.56516" lon="3.73099">
        <ele>52.7</ele>
        <time>2013-05-05T10:06:35Z</time>
      </trkpt>
      <trkpt lat="43.5652" lon="3.73103">
        <ele>52.9</ele>
        <time>2013-05-05T10:06:36Z</time>
      </trkpt>
      <trkpt lat="43.56523" lon="3.73108">
        <ele>53</ele>
        <time>2013-05-05T10:06:37Z</time>
      </trkpt>
      <trkpt lat="43.56526" lon="3.73113">
        <ele>53.1</ele>
        <time>2013-05-05T10:06:38Z</time>
      </trkpt>
      <trkpt lat="43.5653" lon="3.73117">
        <ele>53.2</ele>
        <time>2013-05-05T10:06:39Z</time>
      </trkpt>
      <trkpt lat="43.56533" lon="3.73122">
        <ele>53.3</ele>
        <time>2013-05-05T10:06:40Z</time>
      </trkpt>
      <trkpt lat="43.56537" lon="3.73126">
        <ele>53.3</ele>
        <time>2013-05-05T10:06:41Z</time>
      </trkpt>
      <trkpt lat="43.5654" lon="3.73131">
        <ele>53.4</ele>
        <time>2013-05-05T10:06:42Z</time>
      </trkpt>
      <trkpt lat="43.56543" lon="3.73135">
        <ele>53.2</ele>
        <time>2013-05-05T10:06:43Z</time>
      </trkpt>
      <trkpt lat="43.56547" lon="3.7314">
        <ele>53.1</ele>
        <time>2013-05-05T10:06:44Z</time>
      </trkpt>
      <trkpt lat="43.5655" lon="3.73145">
        <ele>53</ele>
        <time>2013-05-05T10:06:45Z</time>
      </trkpt>
      <trkpt lat="43.56554" lon="3.73149">
        <ele>53</ele>
        <time>2013-05-05T10:06:46Z</time>
      </trkpt>
      <trkpt lat="43.56557" lon="3.73154">
        <ele>52.9</ele>
        <time>2013-05-05T10:06:47Z</time>
      </trkpt>
      <trkpt lat="43.5656" lon="3.73159">
        <ele>52.9</ele>
        <time>2013-05-05T10:06:48Z</time>
      </trkpt>
      <trkpt lat="43.56564" lon="3.73164">
        <ele>53.3</ele>
        <time>2013-05-05T10:06:49Z</time>
      </trkpt>
      <trkpt lat="43.56567" lon="3.73168">
        <ele>53.6</ele>
        <time>2013-05-05T10:06:50Z</time>
      </trkpt>
      <trkpt lat="43.56571" lon="3.73173">
        <ele>53.8</ele>
        <time>2013-05-05T10:06:51Z</time>
      </trkpt>
      <trkpt lat="43.56574" lon="3.73178">
        <ele>54</ele>
        <time>2013-05-05T10:06:52Z</time>
      </trkpt>
      <trkpt lat="43.56578" lon="3.73183">
        <ele>54.1</ele>
        <time>2013-05-05T10:06:53Z</time>
      </trkpt>
      <trkpt lat="43.56581" lon="3.73188">
        <ele>54.2</ele>
        <time>2013-05-05T10:06:54Z</time>
      </trkpt>
      <trkpt lat="43.56585" lon="3.73192">
        <ele>54.3</ele>
        <time>2013-05-05T10:06:55Z</time>
      </trkpt>
      <trkpt lat="43.56589" lon="3.73197">
        <ele>54.1</ele>
        <time>2013-05-05T10:06:56Z</time>
      </trkpt>
      <trkpt lat="43.56592" lon="3.73202">
        <ele>53.9</ele>
        <time>2013-05-05T10:06:57Z</time>
      </trkpt>
      <trkpt lat="43.56596" lon="3.73207">
        <ele>53.8</ele>
        <time>2013-05-05T10:06:58Z</time>
      </trkpt>
      <trkpt lat="43.566" lon="3.73211">
        <ele>53.5</ele>
        <time>2013-05-05T10:06:59Z</time>
      </trkpt>
      <trkpt lat="43.56603" lon="3.73216">
        <ele>53.4</ele>
        <time>2013-05-05T10:07:00Z</time>
      </trkpt>
      <trkpt lat="43.56607" lon="3.73221">
        <ele>53.2</ele>
        <time>2013-05-05T10:07:01Z</time>
      </trkpt>
      <trkpt lat="43.56611" lon="3.73225">
        <ele>53.3</ele>
        <time>2013-05-05T10:07:02Z</time>
      </trkpt>
      <trkpt lat="43.56614" lon="3.7323">
        <ele>53.4</ele>
        <time>2013-05-05T10:07:03Z</time>
      </trkpt>
      <trkpt lat="43.56618" lon="3.73235">
        <ele>53.4</ele>
        <time>2013-05-05T10:07:04Z</time>
      </trkpt>
      <trkpt lat="43.56622" lon="3.73239">
        <ele>53.2</ele>
        <time>2013-05-05T10:07:05Z</time>
      </trkpt>
      <trkpt lat="43.56625" lon="3.73244">
        <ele>53.1</ele>
        <time>2013-05-05T10:07:06Z</time>
      </trkpt>
      <trkpt lat="43.56629" lon="3.73248">
        <ele>53</ele>
        <time>2013-05-05T10:07:07Z</time>
      </trkpt>
      <trkpt lat="43.56632" lon="3.73252">
        <ele>53.5</ele>
        <time>2013-05-05T10:07:08Z</time>
      </trkpt>
      <trkpt lat="43.56636" lon="3.73256">
        <ele>53.8</ele>
        <time>2013-05-05T10:07:09Z</time>
      </trkpt>
      <trkpt lat="43.56639" lon="3.7326">
        <ele>54.1</ele>
        <time>2013-05-05T10:07:10Z</time>
      </trkpt>
      <trkpt lat="43.56643" lon="3.73264">
        <ele>54.3</ele>
        <time>2013-05-05T10:07:11Z</time>
      </trkpt>
      <trkpt lat="43.56646" lon="3.73268">
        <ele>54.5</ele>
        <time>2013-05-05T10:07:12Z</time>
      </trkpt>
      <trkpt lat="43.5665" lon="3.73272">
        <ele>54.7</ele>
        <time>2013-05-05T10:07:13Z</time>
      </trkpt>
      <trkpt lat="43.56654" lon="3.73276">
        <ele>54.8</ele>
        <time>2013-05-05T10:07:14Z</time>
      </trkpt>
      <trkpt lat="43.5666" lon="3.73284">
        <ele>54.5</ele>
        <time>2013-05-05T10:07:16Z</time>
      </trkpt>
      <trkpt lat="43.56664" lon="3.73288">
        <ele>54.4</ele>
        <time>2013-05-05T10:07:17Z</time>
      </trkpt>
      <trkpt lat="43.56671" lon="3.73296">
        <ele>55.5</ele>
        <time>2013-05-05T10:07:19Z</time>
      </trkpt>
      <trkpt lat="43.56678" lon="3.73304">
        <ele>56.3</ele>
        <time>2013-05-05T10:07:21Z</time>
      </trkpt>
      <trkpt lat="43.56684" lon="3.73312">
        <ele>57</ele>
        <time>2013-05-05T10:07:23Z</time>
      </trkpt>
      <trkpt lat="43.56688" lon="3.73316">
        <ele>56.8</ele>
        <time>2013-05-05T10:07:24Z</time>
      </trkpt>
      <trkpt lat="43.56691" lon="3.7332">
        <ele>56.6</ele>
        <time>2013-05-05T10:07:25Z</time>
      </trkpt>
      <trkpt lat="43.56694" lon="3.73324">
        <ele>56.5</ele>
        <time>2013-05-05T10:07:26Z</time>
      </trkpt>
      <trkpt lat="43.56698" lon="3.73329">
        <ele>56.4</ele>
        <time>2013-05-05T10:07:27Z</time>
      </trkpt>
      <trkpt lat="43.56701" lon="3.73333">
        <ele>56.8</ele>
        <time>2013-05-05T10:07:28Z</time>
      </trkpt>
      <trkpt lat="43.56704" lon="3.73337">
        <ele>57.2</ele>
        <time>2013-05-05T10:07:29Z</time>
      </trkpt>
      <trkpt lat="43.56711" lon="3.73345">
        <ele>57.6</ele>
        <time>2013-05-05T10:07:31Z</time>
      </trkpt>
      <trkpt lat="43.56717" lon="3.73354">
        <ele>57.9</ele>
        <time>2013-05-05T10:07:33Z</time>
      </trkpt>
      <trkpt lat="43.56724" lon="3.73362">
        <ele>57.6</ele>
        <time>2013-05-05T10:07:35Z</time>
      </trkpt>
      <trkpt lat="43.56727" lon="3.73366">
        <ele>57.4</ele>
        <time>2013-05-05T10:07:36Z</time>
      </trkpt>
      <trkpt lat="43.56731" lon="3.73371">
        <ele>57.5</ele>
        <time>2013-05-05T10:07:37Z</time>
      </trkpt>
      <trkpt lat="43.56734" lon="3.73375">
        <ele>57.6</ele>
        <time>2013-05-05T10:07:38Z</time>
      </trkpt>
      <trkpt lat="43.56738" lon="3.7338">
        <ele>57.7</ele>
        <time>2013-05-05T10:07:39Z</time>
      </trkpt>
      <trkpt lat="43.56741" lon="3.73385">
        <ele>57.8</ele>
        <time>2013-05-05T10:07:40Z</time>
      </trkpt>
      <trkpt lat="43.56745" lon="3.7339">
        <ele>57.9</ele>
        <time>2013-05-05T10:07:41Z</time>
      </trkpt>
      <trkpt lat="43.56749" lon="3.73395">
        <ele>58</ele>
        <time>2013-05-05T10:07:42Z</time>
      </trkpt>
      <trkpt lat="43.56752" lon="3.734">
        <ele>57.5</ele>
        <time>2013-05-05T10:07:43Z</time>
      </trkpt>
      <trkpt lat="43.56756" lon="3.73405">
        <ele>57.2</ele>
        <time>2013-05-05T10:07:44Z</time>
      </trkpt>
      <trkpt lat="43.5676" lon="3.73411">
        <ele>57</ele>
        <time>2013-05-05T10:07:45Z</time>
      </trkpt>
      <trkpt lat="43.56764" lon="3.73416">
        <ele>56.8</ele>
        <time>2013-05-05T10:07:46Z</time>
      </trkpt>
      <trkpt lat="43.56768" lon="3.73422">
        <ele>56.6</ele>
        <time>2013-05-05T10:07:47Z</time>
      </trkpt>
      <trkpt lat="43.56773" lon="3.73429">
        <ele>56.5</ele>
        <time>2013-05-05T10:07:48Z</time>
      </trkpt>
      <trkpt lat="43.56777" lon="3.73435">
        <ele>56.4</ele>
        <time>2013-05-05T10:07:49Z</time>
      </trkpt>
      <trkpt lat="43.56782" lon="3.73442">
        <ele>56.2</ele>
        <time>2013-05-05T10:07:50Z</time>
      </trkpt>
      <trkpt lat="43.56787" lon="3.73448">
        <ele>56.1</ele>
        <time>2013-05-05T10:07:51Z</time>
      </trkpt>
      <trkpt lat="43.56792" lon="3.73455">
        <ele>56</ele>
        <time>2013-05-05T10:07:52Z</time>
      </trkpt>
      <trkpt lat="43.56796" lon="3.73462">
        <ele>55.7</ele>
        <time>2013-05-05T10:07:53Z</time>
      </trkpt>
      <trkpt lat="43.56801" lon="3.73468">
        <ele>55.4</ele>
        <time>2013-05-05T10:07:54Z</time>
      </trkpt>
      <trkpt lat="43.56806" lon="3.73475">
        <ele>55.3</ele>
        <time>2013-05-05T10:07:55Z</time>
      </trkpt>
      <trkpt lat="43.5681" lon="3.73482">
        <ele>55.3</ele>
        <time>2013-05-05T10:07:56Z</time>
      </trkpt>
      <trkpt lat="43.56815" lon="3.73488">
        <ele>55.4</ele>
        <time>2013-05-05T10:07:57Z</time>
      </trkpt>
      <trkpt lat="43.56819" lon="3.73495">
        <ele>55.5</ele>
        <time>2013-05-05T10:07:58Z</time>
      </trkpt>
      <trkpt lat="43.56824" lon="3.73501">
        <ele>55.5</ele>
        <time>2013-05-05T10:07:59Z</time>
      </trkpt>
      <trkpt lat="43.56828" lon="3.73508">
        <ele>55.5</ele>
        <time>2013-05-05T10:08:00Z</time>
      </trkpt>
      <trkpt lat="43.56832" lon="3.73514">
        <ele>55.5</ele>
        <time>2013-05-05T10:08:01Z</time>
      </trkpt>
      <trkpt lat="43.56837" lon="3.73521">
        <ele>55.5</ele>
        <time>2013-05-05T10:08:02Z</time>
      </trkpt>
      <trkpt lat="43.56841" lon="3.73528">
        <ele>55.2</ele>
        <time>2013-05-05T10:08:03Z</time>
      </trkpt>
      <trkpt lat="43.56846" lon="3.73535">
        <ele>55</ele>
        <time>2013-05-05T10:08:04Z</time>
      </trkpt>
      <trkpt lat="43.5685" lon="3.73541">
        <ele>54.8</ele>
        <time>2013-05-05T10:08:05Z</time>
      </trkpt>
      <trkpt lat="43.56855" lon="3.73548">
        <ele>54.7</ele>
        <time>2013-05-05T10:08:06Z</time>
      </trkpt>
      <trkpt lat="43.56859" lon="3.73554">
        <ele>54.5</ele>
        <time>2013-05-05T10:08:07Z</time>
      </trkpt>
      <trkpt lat="43.56864" lon="3.73561">
        <ele>54.4</ele>
        <time>2013-05-05T10:08:08Z</time>
      </trkpt>
      <trkpt lat="43.56868" lon="3.73567">
        <ele>54.6</ele>
        <time>2013-05-05T10:08:09Z</time>
      </trkpt>
      <trkpt lat="43.56872" lon="3.73574">
        <ele>54.8</ele>
        <time>2013-05-05T10:08:10Z</time>
      </trkpt>
      <trkpt lat="43.56877" lon="3.7358">
        <ele>54.9</ele>
        <time>2013-05-05T10:08:11Z</time>
      </trkpt>
      <trkpt lat="43.56881" lon="3.73586">
        <ele>54.6</ele>
        <time>2013-05-05T10:08:12Z</time>
      </trkpt>
      <trkpt lat="43.56885" lon="3.73592">
        <ele>54.3</ele>
        <time>2013-05-05T10:08:13Z</time>
      </trkpt>
      <trkpt lat="43.56889" lon="3.73598">
        <ele>54.1</ele>
        <time>2013-05-05T10:08:14Z</time>
      </trkpt>
      <trkpt lat="43.56893" lon="3.73604">
        <ele>54.3</ele>
        <time>2013-05-05T10:08:15Z</time>
      </trkpt>
      <trkpt lat="43.56897" lon="3.7361">
        <ele>54.4</ele>
        <time>2013-05-05T10:08:16Z</time>
      </trkpt>
      <trkpt lat="43.56901" lon="3.73615">
        <ele>54.5</ele>
        <time>2013-05-05T10:08:17Z</time>
      </trkpt>
      <trkpt lat="43.56905" lon="3.73621">
        <ele>54.6</ele>
        <time>2013-05-05T10:08:18Z</time>
      </trkpt>
      <trkpt lat="43.56909" lon="3.73627">
        <ele>54.4</ele>
        <time>2013-05-05T10:08:19Z</time>
      </trkpt>
      <trkpt lat="43.56913" lon="3.73633">
        <ele>54.3</ele>
        <time>2013-05-05T10:08:20Z</time>
      </trkpt>
      <trkpt lat="43.56917" lon="3.73639">
        <ele>54.2</ele>
        <time>2013-05-05T10:08:21Z</time>
      </trkpt>
      <trkpt lat="43.56921" lon="3.73644">
        <ele>53.8</ele>
        <time>2013-05-05T10:08:22Z</time>
      </trkpt>
      <trkpt lat="43.56925" lon="3.7365">
        <ele>53.4</ele>
        <time>2013-05-05T10:08:23Z</time>
      </trkpt>
      <trkpt lat="43.56929" lon="3.73656">
        <ele>53.2</ele>
        <time>2013-05-05T10:08:24Z</time>
      </trkpt>
      <trkpt lat="43.56933" lon="3.73662">
        <ele>53.1</ele>
        <time>2013-05-05T10:08:25Z</time>
      </trkpt>
      <trkpt lat="43.56936" lon="3.73668">
        <ele>53</ele>
        <time>2013-05-05T10:08:26Z</time>
      </trkpt>
      <trkpt lat="43.5694" lon="3.73674">
        <ele>52.9</ele>
        <time>2013-05-05T10:08:27Z</time>
      </trkpt>
      <trkpt lat="43.56944" lon="3.7368">
        <ele>53.3</ele>
        <time>2013-05-05T10:08:28Z</time>
      </trkpt>
      <trkpt lat="43.56948" lon="3.73686">
        <ele>53.6</ele>
        <time>2013-05-05T10:08:29Z</time>
      </trkpt>
      <trkpt lat="43.56951" lon="3.73692">
        <ele>53.8</ele>
        <time>2013-05-05T10:08:30Z</time>
      </trkpt>
      <trkpt lat="43.56955" lon="3.73698">
        <ele>53.6</ele>
        <time>2013-05-05T10:08:31Z</time>
      </trkpt>
      <trkpt lat="43.56959" lon="3.73704">
        <ele>53.5</ele>
        <time>2013-05-05T10:08:32Z</time>
      </trkpt>
      <trkpt lat="43.56962" lon="3.7371">
        <ele>53.5</ele>
        <time>2013-05-05T10:08:33Z</time>
      </trkpt>
      <trkpt lat="43.56966" lon="3.73716">
        <ele>53.4</ele>
        <time>2013-05-05T10:08:34Z</time>
      </trkpt>
      <trkpt lat="43.5697" lon="3.73722">
        <ele>54.1</ele>
        <time>2013-05-05T10:08:35Z</time>
      </trkpt>
      <trkpt lat="43.56973" lon="3.73728">
        <ele>54.5</ele>
        <time>2013-05-05T10:08:36Z</time>
      </trkpt>
      <trkpt lat="43.56976" lon="3.73734">
        <ele>54.9</ele>
        <time>2013-05-05T10:08:37Z</time>
      </trkpt>
      <trkpt lat="43.5698" lon="3.73741">
        <ele>54.7</ele>
        <time>2013-05-05T10:08:38Z</time>
      </trkpt>
      <trkpt lat="43.56984" lon="3.73747">
        <ele>54.5</ele>
        <time>2013-05-05T10:08:39Z</time>
      </trkpt>
      <trkpt lat="43.56987" lon="3.73753">
        <ele>54.4</ele>
        <time>2013-05-05T10:08:40Z</time>
      </trkpt>
      <trkpt lat="43.56991" lon="3.73759">
        <ele>54</ele>
        <time>2013-05-05T10:08:41Z</time>
      </trkpt>
      <trkpt lat="43.56995" lon="3.73765">
        <ele>53.7</ele>
        <time>2013-05-05T10:08:42Z</time>
      </trkpt>
      <trkpt lat="43.56999" lon="3.7377">
        <ele>53.5</ele>
        <time>2013-05-05T10:08:43Z</time>
      </trkpt>
      <trkpt lat="43.57003" lon="3.73776">
        <ele>53.6</ele>
        <time>2013-05-05T10:08:44Z</time>
      </trkpt>
      <trkpt lat="43.57007" lon="3.73782">
        <ele>53.7</ele>
        <time>2013-05-05T10:08:45Z</time>
      </trkpt>
      <trkpt lat="43.57011" lon="3.73788">
        <ele>53.7</ele>
        <time>2013-05-05T10:08:46Z</time>
      </trkpt>
      <trkpt lat="43.57015" lon="3.73794">
        <ele>53.8</ele>
        <time>2013-05-05T10:08:47Z</time>
      </trkpt>
      <trkpt lat="43.57019" lon="3.738">
        <ele>53.9</ele>
        <time>2013-05-05T10:08:48Z</time>
      </trkpt>
      <trkpt lat="43.57023" lon="3.73806">
        <ele>53.9</ele>
        <time>2013-05-05T10:08:49Z</time>
      </trkpt>
      <trkpt lat="43.57027" lon="3.73812">
        <ele>54</ele>
        <time>2013-05-05T10:08:50Z</time>
      </trkpt>
      <trkpt lat="43.57031" lon="3.73817">
        <ele>54</ele>
        <time>2013-05-05T10:08:51Z</time>
      </trkpt>
      <trkpt lat="43.57035" lon="3.73823">
        <ele>54.1</ele>
        <time>2013-05-05T10:08:52Z</time>
      </trkpt>
      <trkpt lat="43.57039" lon="3.73829">
        <ele>54.1</ele>
        <time>2013-05-05T10:08:53Z</time>
      </trkpt>
      <trkpt lat="43.57043" lon="3.73835">
        <ele>54.2</ele>
        <time>2013-05-05T10:08:54Z</time>
      </trkpt>
      <trkpt lat="43.57048" lon="3.7384">
        <ele>54.3</ele>
        <time>2013-05-05T10:08:55Z</time>
      </trkpt>
      <trkpt lat="43.57052" lon="3.73846">
        <ele>54.4</ele>
        <time>2013-05-05T10:08:56Z</time>
      </trkpt>
      <trkpt lat="43.57057" lon="3.73851">
        <ele>54.7</ele>
        <time>2013-05-05T10:08:57Z</time>
      </trkpt>
      <trkpt lat="43.57061" lon="3.73857">
        <ele>55</ele>
        <time>2013-05-05T10:08:58Z</time>
      </trkpt>
      <trkpt lat="43.57065" lon="3.73862">
        <ele>55.2</ele>
        <time>2013-05-05T10:08:59Z</time>
      </trkpt>
      <trkpt lat="43.57069" lon="3.73868">
        <ele>55.1</ele>
        <time>2013-05-05T10:09:00Z</time>
      </trkpt>
      <trkpt lat="43.57074" lon="3.73874">
        <ele>55</ele>
        <time>2013-05-05T10:09:01Z</time>
      </trkpt>
      <trkpt lat="43.57078" lon="3.7388">
        <ele>54.9</ele>
        <time>2013-05-05T10:09:02Z</time>
      </trkpt>
      <trkpt lat="43.57083" lon="3.73886">
        <ele>54.9</ele>
        <time>2013-05-05T10:09:03Z</time>
      </trkpt>
      <trkpt lat="43.57087" lon="3.73892">
        <ele>54.9</ele>
        <time>2013-05-05T10:09:04Z</time>
      </trkpt>
      <trkpt lat="43.57091" lon="3.73898">
        <ele>54.9</ele>
        <time>2013-05-05T10:09:05Z</time>
      </trkpt>
      <trkpt lat="43.57096" lon="3.73903">
        <ele>54.9</ele>
        <time>2013-05-05T10:09:06Z</time>
      </trkpt>
      <trkpt lat="43.571" lon="3.73909">
        <ele>54.6</ele>
        <time>2013-05-05T10:09:07Z</time>
      </trkpt>
      <trkpt lat="43.57105" lon="3.73914">
        <ele>54.3</ele>
        <time>2013-05-05T10:09:08Z</time>
      </trkpt>
      <trkpt lat="43.5711" lon="3.7392">
        <ele>54.2</ele>
        <time>2013-05-05T10:09:09Z</time>
      </trkpt>
      <trkpt lat="43.57114" lon="3.73925">
        <ele>54.4</ele>
        <time>2013-05-05T10:09:10Z</time>
      </trkpt>
      <trkpt lat="43.57118" lon="3.73931">
        <ele>54.5</ele>
        <time>2013-05-05T10:09:11Z</time>
      </trkpt>
      <trkpt lat="43.57123" lon="3.73937">
        <ele>54.6</ele>
        <time>2013-05-05T10:09:12Z</time>
      </trkpt>
      <trkpt lat="43.57127" lon="3.73943">
        <ele>54.9</ele>
        <time>2013-05-05T10:09:13Z</time>
      </trkpt>
      <trkpt lat="43.57132" lon="3.73949">
        <ele>55</ele>
        <time>2013-05-05T10:09:14Z</time>
      </trkpt>
      <trkpt lat="43.57136" lon="3.73955">
        <ele>55.1</ele>
        <time>2013-05-05T10:09:15Z</time>
      </trkpt>
      <trkpt lat="43.57141" lon="3.7396">
        <ele>54.8</ele>
        <time>2013-05-05T10:09:16Z</time>
      </trkpt>
      <trkpt lat="43.57146" lon="3.73966">
        <ele>54.6</ele>
        <time>2013-05-05T10:09:17Z</time>
      </trkpt>
      <trkpt lat="43.5715" lon="3.73971">
        <ele>54.4</ele>
        <time>2013-05-05T10:09:18Z</time>
      </trkpt>
      <trkpt lat="43.57155" lon="3.73976">
        <ele>54.3</ele>
        <time>2013-05-05T10:09:19Z</time>
      </trkpt>
      <trkpt lat="43.5716" lon="3.73982">
        <ele>54.2</ele>
        <time>2013-05-05T10:09:20Z</time>
      </trkpt>
      <trkpt lat="43.57165" lon="3.73987">
        <ele>54.2</ele>
        <time>2013-05-05T10:09:21Z</time>
      </trkpt>
      <trkpt lat="43.57169" lon="3.73993">
        <ele>54.1</ele>
        <time>2013-05-05T10:09:22Z</time>
      </trkpt>
      <trkpt lat="43.57174" lon="3.73998">
        <ele>54</ele>
        <time>2013-05-05T10:09:23Z</time>
      </trkpt>
      <trkpt lat="43.57179" lon="3.74004">
        <ele>54</ele>
        <time>2013-05-05T10:09:24Z</time>
      </trkpt>
      <trkpt lat="43.57184" lon="3.74009">
        <ele>53.9</ele>
        <time>2013-05-05T10:09:25Z</time>
      </trkpt>
      <trkpt lat="43.57188" lon="3.74015">
        <ele>54.2</ele>
        <time>2013-05-05T10:09:26Z</time>
      </trkpt>
      <trkpt lat="43.57193" lon="3.7402">
        <ele>54.4</ele>
        <time>2013-05-05T10:09:27Z</time>
      </trkpt>
      <trkpt lat="43.57198" lon="3.74025">
        <ele>54.5</ele>
        <time>2013-05-05T10:09:28Z</time>
      </trkpt>
      <trkpt lat="43.57203" lon="3.7403">
        <ele>54.4</ele>
        <time>2013-05-05T10:09:29Z</time>
      </trkpt>
      <trkpt lat="43.57207" lon="3.74035">
        <ele>54.3</ele>
        <time>2013-05-05T10:09:30Z</time>
      </trkpt>
      <trkpt lat="43.57212" lon="3.7404">
        <ele>54.2</ele>
        <time>2013-05-05T10:09:31Z</time>
      </trkpt>
      <trkpt lat="43.57217" lon="3.74045">
        <ele>54.1</ele>
        <time>2013-05-05T10:09:32Z</time>
      </trkpt>
      <trkpt lat="43.57221" lon="3.7405">
        <ele>54</ele>
        <time>2013-05-05T10:09:33Z</time>
      </trkpt>
      <trkpt lat="43.57226" lon="3.74054">
        <ele>53.9</ele>
        <time>2013-05-05T10:09:34Z</time>
      </trkpt>
      <trkpt lat="43.5723" lon="3.74059">
        <ele>53.9</ele>
        <time>2013-05-05T10:09:35Z</time>
      </trkpt>
      <trkpt lat="43.57234" lon="3.74063">
        <ele>53.9</ele>
        <time>2013-05-05T10:09:36Z</time>
      </trkpt>
      <trkpt lat="43.57238" lon="3.74067">
        <ele>53.9</ele>
        <time>2013-05-05T10:09:37Z</time>
      </trkpt>
      <trkpt lat="43.57244" lon="3.74074">
        <ele>53.5</ele>
        <time>2013-05-05T10:09:39Z</time>
      </trkpt>
      <trkpt lat="43.5725" lon="3.7408">
        <ele>53.3</ele>
        <time>2013-05-05T10:09:41Z</time>
      </trkpt>
      <trkpt lat="43.57255" lon="3.74086">
        <ele>54.4</ele>
        <time>2013-05-05T10:09:43Z</time>
      </trkpt>
      <trkpt lat="43.5726" lon="3.74092">
        <ele>54.9</ele>
        <time>2013-05-05T10:09:45Z</time>
      </trkpt>
      <trkpt lat="43.57267" lon="3.741">
        <ele>54.7</ele>
        <time>2013-05-05T10:09:48Z</time>
      </trkpt>
      <trkpt lat="43.57271" lon="3.74106">
        <ele>54.2</ele>
        <time>2013-05-05T10:09:50Z</time>
      </trkpt>
      <trkpt lat="43.57276" lon="3.74113">
        <ele>54.4</ele>
        <time>2013-05-05T10:09:52Z</time>
      </trkpt>
      <trkpt lat="43.57281" lon="3.74121">
        <ele>54.4</ele>
        <time>2013-05-05T10:09:54Z</time>
      </trkpt>
      <trkpt lat="43.57286" lon="3.74128">
        <ele>54.3</ele>
        <time>2013-05-05T10:09:56Z</time>
      </trkpt>
      <trkpt lat="43.57291" lon="3.74136">
        <ele>53.9</ele>
        <time>2013-05-05T10:09:58Z</time>
      </trkpt>
      <trkpt lat="43.57297" lon="3.74145">
        <ele>53.5</ele>
        <time>2013-05-05T10:10:00Z</time>
      </trkpt>
      <trkpt lat="43.57302" lon="3.74153">
        <ele>53.8</ele>
        <time>2013-05-05T10:10:02Z</time>
      </trkpt>
      <trkpt lat="43.57307" lon="3.74162">
        <ele>54</ele>
        <time>2013-05-05T10:10:04Z</time>
      </trkpt>
      <trkpt lat="43.57312" lon="3.74171">
        <ele>54.1</ele>
        <time>2013-05-05T10:10:06Z</time>
      </trkpt>
      <trkpt lat="43.57317" lon="3.74179">
        <ele>53.9</ele>
        <time>2013-05-05T10:10:08Z</time>
      </trkpt>
      <trkpt lat="43.57322" lon="3.74187">
        <ele>53.7</ele>
        <time>2013-05-05T10:10:10Z</time>
      </trkpt>
      <trkpt lat="43.57327" lon="3.74194">
        <ele>53.6</ele>
        <time>2013-05-05T10:10:12Z</time>
      </trkpt>
      <trkpt lat="43.57331" lon="3.74203">
        <ele>53.4</ele>
        <time>2013-05-05T10:10:14Z</time>
      </trkpt>
      <trkpt lat="43.57335" lon="3.74211">
        <ele>53.3</ele>
        <time>2013-05-05T10:10:16Z</time>
      </trkpt>
      <trkpt lat="43.57339" lon="3.74221">
        <ele>53.6</ele>
        <time>2013-05-05T10:10:18Z</time>
      </trkpt>
      <trkpt lat="43.57341" lon="3.74232">
        <ele>53.4</ele>
        <time>2013-05-05T10:10:20Z</time>
      </trkpt>
      <trkpt lat="43.57343" lon="3.74244">
        <ele>53</ele>
        <time>2013-05-05T10:10:22Z</time>
      </trkpt>
      <trkpt lat="43.57344" lon="3.7425">
        <ele>52.9</ele>
        <time>2013-05-05T10:10:23Z</time>
      </trkpt>
      <trkpt lat="43.57345" lon="3.74256">
        <ele>52.8</ele>
        <time>2013-05-05T10:10:24Z</time>
      </trkpt>
      <trkpt lat="43.57345" lon="3.74262">
        <ele>52.8</ele>
        <time>2013-05-05T10:10:25Z</time>
      </trkpt>
      <trkpt lat="43.57346" lon="3.74269">
        <ele>52.8</ele>
        <time>2013-05-05T10:10:26Z</time>
      </trkpt>
      <trkpt lat="43.57347" lon="3.74275">
        <ele>52.8</ele>
        <time>2013-05-05T10:10:27Z</time>
      </trkpt>
      <trkpt lat="43.57348" lon="3.74282">
        <ele>52.9</ele>
        <time>2013-05-05T10:10:28Z</time>
      </trkpt>
      <trkpt lat="43.5735" lon="3.74288">
        <ele>52.8</ele>
        <time>2013-05-05T10:10:29Z</time>
      </trkpt>
      <trkpt lat="43.57351" lon="3.74294">
        <ele>52.8</ele>
        <time>2013-05-05T10:10:30Z</time>
      </trkpt>
      <trkpt lat="43.57352" lon="3.743">
        <ele>52.8</ele>
        <time>2013-05-05T10:10:31Z</time>
      </trkpt>
      <trkpt lat="43.57354" lon="3.74306">
        <ele>52.8</ele>
        <time>2013-05-05T10:10:32Z</time>
      </trkpt>
      <trkpt lat="43.57355" lon="3.74312">
        <ele>53.1</ele>
        <time>2013-05-05T10:10:33Z</time>
      </trkpt>
      <trkpt lat="43.57356" lon="3.74318">
        <ele>53.3</ele>
        <time>2013-05-05T10:10:34Z</time>
      </trkpt>
      <trkpt lat="43.57358" lon="3.74324">
        <ele>53.5</ele>
        <time>2013-05-05T10:10:35Z</time>
      </trkpt>
      <trkpt lat="43.57359" lon="3.74331">
        <ele>53.9</ele>
        <time>2013-05-05T10:10:36Z</time>
      </trkpt>
      <trkpt lat="43.57361" lon="3.74337">
        <ele>54.2</ele>
        <time>2013-05-05T10:10:37Z</time>
      </trkpt>
      <trkpt lat="43.57362" lon="3.74344">
        <ele>54.5</ele>
        <time>2013-05-05T10:10:38Z</time>
      </trkpt>
      <trkpt lat="43.57364" lon="3.74351">
        <ele>54.1</ele>
        <time>2013-05-05T10:10:39Z</time>
      </trkpt>
      <trkpt lat="43.57365" lon="3.74358">
        <ele>53.8</ele>
        <time>2013-05-05T10:10:40Z</time>
      </trkpt>
      <trkpt lat="43.57367" lon="3.74365">
        <ele>53.5</ele>
        <time>2013-05-05T10:10:41Z</time>
      </trkpt>
      <trkpt lat="43.57369" lon="3.74372">
        <ele>53.5</ele>
        <time>2013-05-05T10:10:42Z</time>
      </trkpt>
      <trkpt lat="43.57371" lon="3.74379">
        <ele>53.6</ele>
        <time>2013-05-05T10:10:43Z</time>
      </trkpt>
      <trkpt lat="43.57372" lon="3.74386">
        <ele>53.6</ele>
        <time>2013-05-05T10:10:44Z</time>
      </trkpt>
      <trkpt lat="43.57374" lon="3.74393">
        <ele>53.8</ele>
        <time>2013-05-05T10:10:45Z</time>
      </trkpt>
      <trkpt lat="43.57375" lon="3.744">
        <ele>53.9</ele>
        <time>2013-05-05T10:10:46Z</time>
      </trkpt>
      <trkpt lat="43.57377" lon="3.74407">
        <ele>54</ele>
        <time>2013-05-05T10:10:47Z</time>
      </trkpt>
      <trkpt lat="43.57379" lon="3.74414">
        <ele>54.1</ele>
        <time>2013-05-05T10:10:48Z</time>
      </trkpt>
      <trkpt lat="43.57381" lon="3.74421">
        <ele>53.9</ele>
        <time>2013-05-05T10:10:49Z</time>
      </trkpt>
      <trkpt lat="43.57383" lon="3.74427">
        <ele>53.7</ele>
        <time>2013-05-05T10:10:50Z</time>
      </trkpt>
      <trkpt lat="43.57385" lon="3.74434">
        <ele>53.6</ele>
        <time>2013-05-05T10:10:51Z</time>
      </trkpt>
      <trkpt lat="43.57387" lon="3.7444">
        <ele>53.2</ele>
        <time>2013-05-05T10:10:52Z</time>
      </trkpt>
      <trkpt lat="43.57389" lon="3.74447">
        <ele>52.9</ele>
        <time>2013-05-05T10:10:53Z</time>
      </trkpt>
      <trkpt lat="43.57392" lon="3.74453">
        <ele>52.7</ele>
        <time>2013-05-05T10:10:54Z</time>
      </trkpt>
      <trkpt lat="43.57394" lon="3.7446">
        <ele>52.7</ele>
        <time>2013-05-05T10:10:55Z</time>
      </trkpt>
      <trkpt lat="43.57396" lon="3.74466">
        <ele>52.7</ele>
        <time>2013-05-05T10:10:56Z</time>
      </trkpt>
      <trkpt lat="43.57399" lon="3.74472">
        <ele>52.7</ele>
        <time>2013-05-05T10:10:57Z</time>
      </trkpt>
      <trkpt lat="43.57401" lon="3.74479">
        <ele>52.9</ele>
        <time>2013-05-05T10:10:58Z</time>
      </trkpt>
      <trkpt lat="43.57404" lon="3.74485">
        <ele>53</ele>
        <time>2013-05-05T10:10:59Z</time>
      </trkpt>
      <trkpt lat="43.57406" lon="3.74491">
        <ele>53.1</ele>
        <time>2013-05-05T10:11:00Z</time>
      </trkpt>
      <trkpt lat="43.57409" lon="3.74497">
        <ele>53</ele>
        <time>2013-05-05T10:11:01Z</time>
      </trkpt>
      <trkpt lat="43.57411" lon="3.74503">
        <ele>52.9</ele>
        <time>2013-05-05T10:11:02Z</time>
      </trkpt>
      <trkpt lat="43.57414" lon="3.7451">
        <ele>52.8</ele>
        <time>2013-05-05T10:11:03Z</time>
      </trkpt>
      <trkpt lat="43.57417" lon="3.74516">
        <ele>52.8</ele>
        <time>2013-05-05T10:11:04Z</time>
      </trkpt>
      <trkpt lat="43.5742" lon="3.74522">
        <ele>53</ele>
        <time>2013-05-05T10:11:05Z</time>
      </trkpt>
      <trkpt lat="43.57423" lon="3.74528">
        <ele>53.2</ele>
        <time>2013-05-05T10:11:06Z</time>
      </trkpt>
      <trkpt lat="43.57426" lon="3.74534">
        <ele>53.3</ele>
        <time>2013-05-05T10:11:07Z</time>
      </trkpt>
      <trkpt lat="43.57429" lon="3.74539">
        <ele>53.5</ele>
        <time>2013-05-05T10:11:08Z</time>
      </trkpt>
      <trkpt lat="43.57432" lon="3.74545">
        <ele>53.5</ele>
        <time>2013-05-05T10:11:09Z</time>
      </trkpt>
      <trkpt lat="43.57436" lon="3.74551">
        <ele>53.6</ele>
        <time>2013-05-05T10:11:10Z</time>
      </trkpt>
      <trkpt lat="43.57439" lon="3.74557">
        <ele>53.1</ele>
        <time>2013-05-05T10:11:11Z</time>
      </trkpt>
      <trkpt lat="43.57442" lon="3.74563">
        <ele>52.7</ele>
        <time>2013-05-05T10:11:12Z</time>
      </trkpt>
      <trkpt lat="43.57446" lon="3.74569">
        <ele>52.4</ele>
        <time>2013-05-05T10:11:13Z</time>
      </trkpt>
      <trkpt lat="43.57449" lon="3.74575">
        <ele>52.9</ele>
        <time>2013-05-05T10:11:14Z</time>
      </trkpt>
      <trkpt lat="43.57453" lon="3.74581">
        <ele>53.3</ele>
        <time>2013-05-05T10:11:15Z</time>
      </trkpt>
      <trkpt lat="43.57456" lon="3.74587">
        <ele>53.6</ele>
        <time>2013-05-05T10:11:16Z</time>
      </trkpt>
      <trkpt lat="43.57459" lon="3.74593">
        <ele>53.5</ele>
        <time>2013-05-05T10:11:17Z</time>
      </trkpt>
      <trkpt lat="43.57463" lon="3.74599">
        <ele>53.5</ele>
        <time>2013-05-05T10:11:18Z</time>
      </trkpt>
      <trkpt lat="43.57467" lon="3.74604">
        <ele>53.5</ele>
        <time>2013-05-05T10:11:19Z</time>
      </trkpt>
      <trkpt lat="43.5747" lon="3.7461">
        <ele>53.4</ele>
        <time>2013-05-05T10:11:20Z</time>
      </trkpt>
      <trkpt lat="43.57474" lon="3.74616">
        <ele>53.3</ele>
        <time>2013-05-05T10:11:21Z</time>
      </trkpt>
      <trkpt lat="43.57477" lon="3.74623">
        <ele>53.3</ele>
        <time>2013-05-05T10:11:22Z</time>
      </trkpt>
      <trkpt lat="43.57481" lon="3.74629">
        <ele>53.2</ele>
        <time>2013-05-05T10:11:23Z</time>
      </trkpt>
      <trkpt lat="43.57485" lon="3.74635">
        <ele>53.2</ele>
        <time>2013-05-05T10:11:24Z</time>
      </trkpt>
      <trkpt lat="43.57488" lon="3.74641">
        <ele>53.2</ele>
        <time>2013-05-05T10:11:25Z</time>
      </trkpt>
      <trkpt lat="43.57491" lon="3.74647">
        <ele>53.2</ele>
        <time>2013-05-05T10:11:26Z</time>
      </trkpt>
      <trkpt lat="43.57495" lon="3.74653">
        <ele>53.2</ele>
        <time>2013-05-05T10:11:27Z</time>
      </trkpt>
      <trkpt lat="43.57498" lon="3.74659">
        <ele>53.3</ele>
        <time>2013-05-05T10:11:28Z</time>
      </trkpt>
      <trkpt lat="43.57501" lon="3.74666">
        <ele>53.3</ele>
        <time>2013-05-05T10:11:29Z</time>
      </trkpt>
      <trkpt lat="43.57504" lon="3.74672">
        <ele>53.1</ele>
        <time>2013-05-05T10:11:30Z</time>
      </trkpt>
      <trkpt lat="43.57506" lon="3.74679">
        <ele>53</ele>
        <time>2013-05-05T10:11:31Z</time>
      </trkpt>
      <trkpt lat="43.57508" lon="3.74686">
        <ele>53</ele>
        <time>2013-05-05T10:11:32Z</time>
      </trkpt>
      <trkpt lat="43.5751" lon="3.74693">
        <ele>53.2</ele>
        <time>2013-05-05T10:11:33Z</time>
      </trkpt>
      <trkpt lat="43.57513" lon="3.747">
        <ele>53.4</ele>
        <time>2013-05-05T10:11:34Z</time>
      </trkpt>
      <trkpt lat="43.57516" lon="3.74706">
        <ele>53.6</ele>
        <time>2013-05-05T10:11:35Z</time>
      </trkpt>
      <trkpt lat="43.5752" lon="3.74712">
        <ele>53.7</ele>
        <time>2013-05-05T10:11:36Z</time>
      </trkpt>
      <trkpt lat="43.57523" lon="3.74718">
        <ele>54</ele>
        <time>2013-05-05T10:11:37Z</time>
      </trkpt>
      <trkpt lat="43.57527" lon="3.74724">
        <ele>54.3</ele>
        <time>2013-05-05T10:11:38Z</time>
      </trkpt>
      <trkpt lat="43.5753" lon="3.74731">
        <ele>54.5</ele>
        <time>2013-05-05T10:11:39Z</time>
      </trkpt>
      <trkpt lat="43.57533" lon="3.74738">
        <ele>54.1</ele>
        <time>2013-05-05T10:11:40Z</time>
      </trkpt>
      <trkpt lat="43.57536" lon="3.74745">
        <ele>53.8</ele>
        <time>2013-05-05T10:11:41Z</time>
      </trkpt>
      <trkpt lat="43.57539" lon="3.74752">
        <ele>53.6</ele>
        <time>2013-05-05T10:11:42Z</time>
      </trkpt>
      <trkpt lat="43.57541" lon="3.74759">
        <ele>53.6</ele>
        <time>2013-05-05T10:11:43Z</time>
      </trkpt>
      <trkpt lat="43.57544" lon="3.74766">
        <ele>53.6</ele>
        <time>2013-05-05T10:11:44Z</time>
      </trkpt>
      <trkpt lat="43.57546" lon="3.74773">
        <ele>53.5</ele>
        <time>2013-05-05T10:11:45Z</time>
      </trkpt>
      <trkpt lat="43.57548" lon="3.7478">
        <ele>53.1</ele>
        <time>2013-05-05T10:11:46Z</time>
      </trkpt>
      <trkpt lat="43.5755" lon="3.74787">
        <ele>52.7</ele>
        <time>2013-05-05T10:11:47Z</time>
      </trkpt>
      <trkpt lat="43.57552" lon="3.74794">
        <ele>52.4</ele>
        <time>2013-05-05T10:11:48Z</time>
      </trkpt>
      <trkpt lat="43.57554" lon="3.74801">
        <ele>52</ele>
        <time>2013-05-05T10:11:49Z</time>
      </trkpt>
      <trkpt lat="43.57556" lon="3.74808">
        <ele>51.8</ele>
        <time>2013-05-05T10:11:50Z</time>
      </trkpt>
      <trkpt lat="43.57558" lon="3.74815">
        <ele>51.5</ele>
        <time>2013-05-05T10:11:51Z</time>
      </trkpt>
      <trkpt lat="43.57561" lon="3.74823">
        <ele>51.7</ele>
        <time>2013-05-05T10:11:52Z</time>
      </trkpt>
      <trkpt lat="43.57563" lon="3.7483">
        <ele>51.8</ele>
        <time>2013-05-05T10:11:53Z</time>
      </trkpt>
      <trkpt lat="43.57565" lon="3.74838">
        <ele>51.9</ele>
        <time>2013-05-05T10:11:54Z</time>
      </trkpt>
      <trkpt lat="43.57567" lon="3.74845">
        <ele>52</ele>
        <time>2013-05-05T10:11:55Z</time>
      </trkpt>
      <trkpt lat="43.5757" lon="3.74853">
        <ele>52.2</ele>
        <time>2013-05-05T10:11:56Z</time>
      </trkpt>
      <trkpt lat="43.57572" lon="3.74861">
        <ele>52.4</ele>
        <time>2013-05-05T10:11:57Z</time>
      </trkpt>
      <trkpt lat="43.57574" lon="3.74868">
        <ele>52.5</ele>
        <time>2013-05-05T10:11:58Z</time>
      </trkpt>
      <trkpt lat="43.57576" lon="3.74876">
        <ele>52.3</ele>
        <time>2013-05-05T10:11:59Z</time>
      </trkpt>
      <trkpt lat="43.57578" lon="3.74884">
        <ele>52</ele>
        <time>2013-05-05T10:12:00Z</time>
      </trkpt>
      <trkpt lat="43.57581" lon="3.74891">
        <ele>51.9</ele>
        <time>2013-05-05T10:12:01Z</time>
      </trkpt>
      <trkpt lat="43.57583" lon="3.74898">
        <ele>52</ele>
        <time>2013-05-05T10:12:02Z</time>
      </trkpt>
      <trkpt lat="43.57585" lon="3.74906">
        <ele>52.1</ele>
        <time>2013-05-05T10:12:03Z</time>
      </trkpt>
      <trkpt lat="43.57587" lon="3.74913">
        <ele>52.2</ele>
        <time>2013-05-05T10:12:04Z</time>
      </trkpt>
      <trkpt lat="43.57589" lon="3.7492">
        <ele>52.3</ele>
        <time>2013-05-05T10:12:05Z</time>
      </trkpt>
      <trkpt lat="43.57591" lon="3.74926">
        <ele>52.4</ele>
        <time>2013-05-05T10:12:06Z</time>
      </trkpt>
      <trkpt lat="43.57593" lon="3.74933">
        <ele>52.4</ele>
        <time>2013-05-05T10:12:07Z</time>
      </trkpt>
      <trkpt lat="43.57595" lon="3.7494">
        <ele>51.8</ele>
        <time>2013-05-05T10:12:08Z</time>
      </trkpt>
      <trkpt lat="43.57597" lon="3.74947">
        <ele>51.3</ele>
        <time>2013-05-05T10:12:09Z</time>
      </trkpt>
      <trkpt lat="43.57599" lon="3.74953">
        <ele>51</ele>
        <time>2013-05-05T10:12:10Z</time>
      </trkpt>
      <trkpt lat="43.57601" lon="3.7496">
        <ele>50.7</ele>
        <time>2013-05-05T10:12:11Z</time>
      </trkpt>
      <trkpt lat="43.57603" lon="3.74966">
        <ele>50.9</ele>
        <time>2013-05-05T10:12:12Z</time>
      </trkpt>
      <trkpt lat="43.57605" lon="3.74972">
        <ele>51.1</ele>
        <time>2013-05-05T10:12:13Z</time>
      </trkpt>
      <trkpt lat="43.57606" lon="3.74979">
        <ele>51.3</ele>
        <time>2013-05-05T10:12:14Z</time>
      </trkpt>
      <trkpt lat="43.57609" lon="3.74985">
        <ele>51.3</ele>
        <time>2013-05-05T10:12:15Z</time>
      </trkpt>
      <trkpt lat="43.5761" lon="3.74991">
        <ele>51.3</ele>
        <time>2013-05-05T10:12:16Z</time>
      </trkpt>
      <trkpt lat="43.57612" lon="3.74997">
        <ele>51.3</ele>
        <time>2013-05-05T10:12:17Z</time>
      </trkpt>
      <trkpt lat="43.57614" lon="3.75003">
        <ele>50.9</ele>
        <time>2013-05-05T10:12:18Z</time>
      </trkpt>
      <trkpt lat="43.57617" lon="3.7501">
        <ele>50.6</ele>
        <time>2013-05-05T10:12:19Z</time>
      </trkpt>
      <trkpt lat="43.57619" lon="3.75016">
        <ele>50.4</ele>
        <time>2013-05-05T10:12:20Z</time>
      </trkpt>
      <trkpt lat="43.57622" lon="3.75023">
        <ele>50.3</ele>
        <time>2013-05-05T10:12:21Z</time>
      </trkpt>
      <trkpt lat="43.57624" lon="3.7503">
        <ele>50.3</ele>
        <time>2013-05-05T10:12:22Z</time>
      </trkpt>
      <trkpt lat="43.57627" lon="3.75036">
        <ele>50.3</ele>
        <time>2013-05-05T10:12:23Z</time>
      </trkpt>
      <trkpt lat="43.57629" lon="3.75043">
        <ele>50</ele>
        <time>2013-05-05T10:12:24Z</time>
      </trkpt>
      <trkpt lat="43.57632" lon="3.7505">
        <ele>49.8</ele>
        <time>2013-05-05T10:12:25Z</time>
      </trkpt>
      <trkpt lat="43.57635" lon="3.75056">
        <ele>49.7</ele>
        <time>2013-05-05T10:12:26Z</time>
      </trkpt>
      <trkpt lat="43.57637" lon="3.75063">
        <ele>49.5</ele>
        <time>2013-05-05T10:12:27Z</time>
      </trkpt>
      <trkpt lat="43.5764" lon="3.7507">
        <ele>49.7</ele>
        <time>2013-05-05T10:12:28Z</time>
      </trkpt>
      <trkpt lat="43.57643" lon="3.75076">
        <ele>49.8</ele>
        <time>2013-05-05T10:12:29Z</time>
      </trkpt>
      <trkpt lat="43.57646" lon="3.75082">
        <ele>49.9</ele>
        <time>2013-05-05T10:12:30Z</time>
      </trkpt>
      <trkpt lat="43.57649" lon="3.75089">
        <ele>49.4</ele>
        <time>2013-05-05T10:12:31Z</time>
      </trkpt>
      <trkpt lat="43.57651" lon="3.75095">
        <ele>49</ele>
        <time>2013-05-05T10:12:32Z</time>
      </trkpt>
      <trkpt lat="43.57654" lon="3.75102">
        <ele>48.7</ele>
        <time>2013-05-05T10:12:33Z</time>
      </trkpt>
      <trkpt lat="43.57657" lon="3.75108">
        <ele>48.9</ele>
        <time>2013-05-05T10:12:34Z</time>
      </trkpt>
      <trkpt lat="43.5766" lon="3.75115">
        <ele>49</ele>
        <time>2013-05-05T10:12:35Z</time>
      </trkpt>
      <trkpt lat="43.57663" lon="3.75121">
        <ele>49.1</ele>
        <time>2013-05-05T10:12:36Z</time>
      </trkpt>
      <trkpt lat="43.57666" lon="3.75128">
        <ele>48.8</ele>
        <time>2013-05-05T10:12:37Z</time>
      </trkpt>
      <trkpt lat="43.57669" lon="3.75134">
        <ele>48.6</ele>
        <time>2013-05-05T10:12:38Z</time>
      </trkpt>
      <trkpt lat="43.57672" lon="3.7514">
        <ele>48.4</ele>
        <time>2013-05-05T10:12:39Z</time>
      </trkpt>
      <trkpt lat="43.57675" lon="3.75146">
        <ele>48.5</ele>
        <time>2013-05-05T10:12:40Z</time>
      </trkpt>
      <trkpt lat="43.57677" lon="3.75153">
        <ele>48.6</ele>
        <time>2013-05-05T10:12:41Z</time>
      </trkpt>
      <trkpt lat="43.5768" lon="3.75159">
        <ele>48.7</ele>
        <time>2013-05-05T10:12:42Z</time>
      </trkpt>
      <trkpt lat="43.57683" lon="3.75166">
        <ele>48.8</ele>
        <time>2013-05-05T10:12:43Z</time>
      </trkpt>
      <trkpt lat="43.57686" lon="3.75172">
        <ele>48.8</ele>
        <time>2013-05-05T10:12:44Z</time>
      </trkpt>
      <trkpt lat="43.57688" lon="3.75179">
        <ele>48.9</ele>
        <time>2013-05-05T10:12:45Z</time>
      </trkpt>
      <trkpt lat="43.5769" lon="3.75186">
        <ele>48.9</ele>
        <time>2013-05-05T10:12:46Z</time>
      </trkpt>
      <trkpt lat="43.57692" lon="3.75193">
        <ele>49</ele>
        <time>2013-05-05T10:12:47Z</time>
      </trkpt>
      <trkpt lat="43.57694" lon="3.752">
        <ele>49</ele>
        <time>2013-05-05T10:12:48Z</time>
      </trkpt>
      <trkpt lat="43.57696" lon="3.75207">
        <ele>49</ele>
        <time>2013-05-05T10:12:49Z</time>
      </trkpt>
      <trkpt lat="43.57699" lon="3.75214">
        <ele>48.6</ele>
        <time>2013-05-05T10:12:50Z</time>
      </trkpt>
      <trkpt lat="43.57702" lon="3.7522">
        <ele>48.3</ele>
        <time>2013-05-05T10:12:51Z</time>
      </trkpt>
      <trkpt lat="43.57705" lon="3.75226">
        <ele>48.1</ele>
        <time>2013-05-05T10:12:52Z</time>
      </trkpt>
      <trkpt lat="43.57707" lon="3.75233">
        <ele>48.2</ele>
        <time>2013-05-05T10:12:53Z</time>
      </trkpt>
      <trkpt lat="43.5771" lon="3.75239">
        <ele>48.3</ele>
        <time>2013-05-05T10:12:54Z</time>
      </trkpt>
      <trkpt lat="43.57713" lon="3.75245">
        <ele>48.4</ele>
        <time>2013-05-05T10:12:55Z</time>
      </trkpt>
      <trkpt lat="43.57716" lon="3.75251">
        <ele>48.6</ele>
        <time>2013-05-05T10:12:56Z</time>
      </trkpt>
      <trkpt lat="43.57719" lon="3.75257">
        <ele>48.7</ele>
        <time>2013-05-05T10:12:57Z</time>
      </trkpt>
      <trkpt lat="43.57721" lon="3.75263">
        <ele>48.8</ele>
        <time>2013-05-05T10:12:58Z</time>
      </trkpt>
      <trkpt lat="43.57726" lon="3.75273">
        <ele>48.8</ele>
        <time>2013-05-05T10:13:00Z</time>
      </trkpt>
      <trkpt lat="43.57733" lon="3.7528">
        <ele>48.9</ele>
        <time>2013-05-05T10:13:02Z</time>
      </trkpt>
      <trkpt lat="43.57741" lon="3.75281">
        <ele>47.9</ele>
        <time>2013-05-05T10:13:04Z</time>
      </trkpt>
      <trkpt lat="43.57748" lon="3.75278">
        <ele>47.5</ele>
        <time>2013-05-05T10:13:06Z</time>
      </trkpt>
      <trkpt lat="43.57753" lon="3.75273">
        <ele>47.4</ele>
        <time>2013-05-05T10:13:08Z</time>
      </trkpt>
      <trkpt lat="43.57758" lon="3.75266">
        <ele>48.2</ele>
        <time>2013-05-05T10:13:10Z</time>
      </trkpt>
      <trkpt lat="43.57763" lon="3.75258">
        <ele>48.4</ele>
        <time>2013-05-05T10:13:12Z</time>
      </trkpt>
      <trkpt lat="43.57768" lon="3.75249">
        <ele>48.5</ele>
        <time>2013-05-05T10:13:14Z</time>
      </trkpt>
      <trkpt lat="43.57772" lon="3.7524">
        <ele>48.6</ele>
        <time>2013-05-05T10:13:16Z</time>
      </trkpt>
      <trkpt lat="43.57775" lon="3.75229">
        <ele>48.6</ele>
        <time>2013-05-05T10:13:18Z</time>
      </trkpt>
      <trkpt lat="43.57779" lon="3.75218">
        <ele>48.6</ele>
        <time>2013-05-05T10:13:20Z</time>
      </trkpt>
      <trkpt lat="43.57783" lon="3.75208">
        <ele>49</ele>
        <time>2013-05-05T10:13:22Z</time>
      </trkpt>
      <trkpt lat="43.57788" lon="3.75199">
        <ele>49.6</ele>
        <time>2013-05-05T10:13:24Z</time>
      </trkpt>
      <trkpt lat="43.57792" lon="3.75189">
        <ele>49.8</ele>
        <time>2013-05-05T10:13:26Z</time>
      </trkpt>
      <trkpt lat="43.57796" lon="3.7518">
        <ele>50</ele>
        <time>2013-05-05T10:13:28Z</time>
      </trkpt>
      <trkpt lat="43.578" lon="3.7517">
        <ele>50.3</ele>
        <time>2013-05-05T10:13:30Z</time>
      </trkpt>
      <trkpt lat="43.57802" lon="3.75166">
        <ele>50.2</ele>
        <time>2013-05-05T10:13:31Z</time>
      </trkpt>
      <trkpt lat="43.57809" lon="3.75153">
        <ele>50.2</ele>
        <time>2013-05-05T10:13:34Z</time>
      </trkpt>
      <trkpt lat="43.57814" lon="3.75145">
        <ele>50.5</ele>
        <time>2013-05-05T10:13:36Z</time>
      </trkpt>
      <trkpt lat="43.57819" lon="3.75137">
        <ele>50.6</ele>
        <time>2013-05-05T10:13:38Z</time>
      </trkpt>
      <trkpt lat="43.57824" lon="3.7513">
        <ele>50.7</ele>
        <time>2013-05-05T10:13:40Z</time>
      </trkpt>
      <trkpt lat="43.57829" lon="3.75121">
        <ele>50.6</ele>
        <time>2013-05-05T10:13:42Z</time>
      </trkpt>
      <trkpt lat="43.57834" lon="3.75114">
        <ele>50.3</ele>
        <time>2013-05-05T10:13:44Z</time>
      </trkpt>
      <trkpt lat="43.57839" lon="3.75106">
        <ele>49.9</ele>
        <time>2013-05-05T10:13:46Z</time>
      </trkpt>
      <trkpt lat="43.57844" lon="3.75099">
        <ele>50.6</ele>
        <time>2013-05-05T10:13:48Z</time>
      </trkpt>
      <trkpt lat="43.5785" lon="3.75092">
        <ele>51</ele>
        <time>2013-05-05T10:13:50Z</time>
      </trkpt>
      <trkpt lat="43.57855" lon="3.75086">
        <ele>51.8</ele>
        <time>2013-05-05T10:13:52Z</time>
      </trkpt>
      <trkpt lat="43.5786" lon="3.75079">
        <ele>52.1</ele>
        <time>2013-05-05T10:13:54Z</time>
      </trkpt>
      <trkpt lat="43.57865" lon="3.75072">
        <ele>52.2</ele>
        <time>2013-05-05T10:13:56Z</time>
      </trkpt>
      <trkpt lat="43.57871" lon="3.75064">
        <ele>51.9</ele>
        <time>2013-05-05T10:14:00Z</time>
      </trkpt>
      <trkpt lat="43.57875" lon="3.75053">
        <ele>52.9</ele>
        <time>2013-05-05T10:16:18Z</time>
      </trkpt>
      <trkpt lat="43.57876" lon="3.75052">
        <ele>53.1</ele>
        <time>2013-05-05T10:16:19Z</time>
      </trkpt>
      <trkpt lat="43.57885" lon="3.75036">
        <ele>52</ele>
        <time>2013-05-05T10:16:48Z</time>
      </trkpt>
      <trkpt lat="43.57889" lon="3.7503">
        <ele>52.9</ele>
        <time>2013-05-05T10:16:50Z</time>
      </trkpt>
      <trkpt lat="43.57893" lon="3.75023">
        <ele>53.3</ele>
        <time>2013-05-05T10:16:52Z</time>
      </trkpt>
      <trkpt lat="43.57898" lon="3.75017">
        <ele>53.5</ele>
        <time>2013-05-05T10:16:54Z</time>
      </trkpt>
      <trkpt lat="43.57903" lon="3.75011">
        <ele>53.9</ele>
        <time>2013-05-05T10:16:56Z</time>
      </trkpt>
      <trkpt lat="43.57908" lon="3.75005">
        <ele>54.2</ele>
        <time>2013-05-05T10:16:58Z</time>
      </trkpt>
      <trkpt lat="43.57914" lon="3.74999">
        <ele>53.8</ele>
        <time>2013-05-05T10:17:00Z</time>
      </trkpt>
      <trkpt lat="43.57921" lon="3.74994">
        <ele>54</ele>
        <time>2013-05-05T10:17:02Z</time>
      </trkpt>
      <trkpt lat="43.57927" lon="3.7499">
        <ele>54.5</ele>
        <time>2013-05-05T10:17:04Z</time>
      </trkpt>
      <trkpt lat="43.57934" lon="3.74986">
        <ele>53.9</ele>
        <time>2013-05-05T10:17:06Z</time>
      </trkpt>
      <trkpt lat="43.5794" lon="3.74982">
        <ele>53.9</ele>
        <time>2013-05-05T10:17:08Z</time>
      </trkpt>
      <trkpt lat="43.57947" lon="3.74978">
        <ele>54.1</ele>
        <time>2013-05-05T10:17:10Z</time>
      </trkpt>
      <trkpt lat="43.57954" lon="3.74975">
        <ele>54.5</ele>
        <time>2013-05-05T10:17:12Z</time>
      </trkpt>
      <trkpt lat="43.57961" lon="3.74972">
        <ele>54.9</ele>
        <time>2013-05-05T10:17:14Z</time>
      </trkpt>
      <trkpt lat="43.57968" lon="3.74968">
        <ele>55.4</ele>
        <time>2013-05-05T10:17:16Z</time>
      </trkpt>
      <trkpt lat="43.57975" lon="3.74964">
        <ele>55.8</ele>
        <time>2013-05-05T10:17:18Z</time>
      </trkpt>
      <trkpt lat="43.57981" lon="3.7496">
        <ele>56</ele>
        <time>2013-05-05T10:17:20Z</time>
      </trkpt>
      <trkpt lat="43.57985" lon="3.74958">
        <ele>56.3</ele>
        <time>2013-05-05T10:17:21Z</time>
      </trkpt>
      <trkpt lat="43.57995" lon="3.74953">
        <ele>56.4</ele>
        <time>2013-05-05T10:17:24Z</time>
      </trkpt>
      <trkpt lat="43.58003" lon="3.7495">
        <ele>55.9</ele>
        <time>2013-05-05T10:17:26Z</time>
      </trkpt>
      <trkpt lat="43.5801" lon="3.74946">
        <ele>56</ele>
        <time>2013-05-05T10:17:28Z</time>
      </trkpt>
      <trkpt lat="43.58017" lon="3.74942">
        <ele>56.3</ele>
        <time>2013-05-05T10:17:30Z</time>
      </trkpt>
      <trkpt lat="43.58025" lon="3.74939">
        <ele>56.8</ele>
        <time>2013-05-05T10:17:32Z</time>
      </trkpt>
      <trkpt lat="43.58032" lon="3.74936">
        <ele>56.8</ele>
        <time>2013-05-05T10:17:34Z</time>
      </trkpt>
      <trkpt lat="43.58039" lon="3.74933">
        <ele>56.6</ele>
        <time>2013-05-05T10:17:36Z</time>
      </trkpt>
      <trkpt lat="43.58047" lon="3.74931">
        <ele>56.9</ele>
        <time>2013-05-05T10:17:38Z</time>
      </trkpt>
      <trkpt lat="43.58055" lon="3.74929">
        <ele>57.1</ele>
        <time>2013-05-05T10:17:40Z</time>
      </trkpt>
      <trkpt lat="43.58062" lon="3.7493">
        <ele>57.4</ele>
        <time>2013-05-05T10:17:42Z</time>
      </trkpt>
      <trkpt lat="43.5807" lon="3.74934">
        <ele>57.6</ele>
        <time>2013-05-05T10:17:44Z</time>
      </trkpt>
      <trkpt lat="43.58077" lon="3.74939">
        <ele>57.7</ele>
        <time>2013-05-05T10:17:46Z</time>
      </trkpt>
      <trkpt lat="43.58083" lon="3.74945">
        <ele>57.5</ele>
        <time>2013-05-05T10:17:48Z</time>
      </trkpt>
      <trkpt lat="43.58088" lon="3.74952">
        <ele>57.8</ele>
        <time>2013-05-05T10:17:50Z</time>
      </trkpt>
      <trkpt lat="43.58094" lon="3.74959">
        <ele>58.2</ele>
        <time>2013-05-05T10:17:52Z</time>
      </trkpt>
      <trkpt lat="43.58101" lon="3.74965">
        <ele>59.1</ele>
        <time>2013-05-05T10:17:54Z</time>
      </trkpt>
      <trkpt lat="43.58106" lon="3.74956">
        <ele>60.1</ele>
        <time>2013-05-05T10:18:00Z</time>
      </trkpt>
      <trkpt lat="43.58104" lon="3.74946">
        <ele>60.2</ele>
        <time>2013-05-05T10:18:03Z</time>
      </trkpt>
      <trkpt lat="43.58099" lon="3.74937">
        <ele>59.9</ele>
        <time>2013-05-05T10:18:06Z</time>
      </trkpt>
      <trkpt lat="43.58096" lon="3.7493">
        <ele>59.9</ele>
        <time>2013-05-05T10:18:08Z</time>
      </trkpt>
      <trkpt lat="43.58093" lon="3.74922">
        <ele>60.2</ele>
        <time>2013-05-05T10:18:10Z</time>
      </trkpt>
      <trkpt lat="43.58091" lon="3.74912">
        <ele>60.2</ele>
        <time>2013-05-05T10:18:12Z</time>
      </trkpt>
      <trkpt lat="43.58091" lon="3.74903">
        <ele>60.1</ele>
        <time>2013-05-05T10:18:14Z</time>
      </trkpt>
      <trkpt lat="43.58096" lon="3.74894">
        <ele>61</ele>
        <time>2013-05-05T10:18:17Z</time>
      </trkpt>
      <trkpt lat="43.58103" lon="3.74891">
        <ele>60.8</ele>
        <time>2013-05-05T10:18:20Z</time>
      </trkpt>
      <trkpt lat="43.58111" lon="3.7489">
        <ele>61.6</ele>
        <time>2013-05-05T10:18:24Z</time>
      </trkpt>
      <trkpt lat="43.58113" lon="3.74891">
        <ele>61.9</ele>
        <time>2013-05-05T10:18:25Z</time>
      </trkpt>
      <trkpt lat="43.58128" lon="3.74882">
        <ele>63.4</ele>
        <time>2013-05-05T10:18:34Z</time>
      </trkpt>
      <trkpt lat="43.58134" lon="3.74876">
        <ele>64.5</ele>
        <time>2013-05-05T10:18:39Z</time>
      </trkpt>
      <trkpt lat="43.58138" lon="3.74865">
        <ele>65.4</ele>
        <time>2013-05-05T10:18:44Z</time>
      </trkpt>
      <trkpt lat="43.58141" lon="3.74855">
        <ele>67.5</ele>
        <time>2013-05-05T10:18:49Z</time>
      </trkpt>
      <trkpt lat="43.58145" lon="3.74844">
        <ele>68.3</ele>
        <time>2013-05-05T10:18:54Z</time>
      </trkpt>
      <trkpt lat="43.58148" lon="3.74833">
        <ele>69.1</ele>
        <time>2013-05-05T10:18:59Z</time>
      </trkpt>
      <trkpt lat="43.58151" lon="3.74822">
        <ele>70.8</ele>
        <time>2013-05-05T10:19:04Z</time>
      </trkpt>
      <trkpt lat="43.58153" lon="3.74811">
        <ele>72.3</ele>
        <time>2013-05-05T10:19:09Z</time>
      </trkpt>
      <trkpt lat="43.58157" lon="3.748">
        <ele>73.6</ele>
        <time>2013-05-05T10:19:14Z</time>
      </trkpt>
      <trkpt lat="43.5816" lon="3.74789">
        <ele>74.1</ele>
        <time>2013-05-05T10:19:19Z</time>
      </trkpt>
      <trkpt lat="43.58162" lon="3.74778">
        <ele>75</ele>
        <time>2013-05-05T10:19:23Z</time>
      </trkpt>
      <trkpt lat="43.58164" lon="3.74767">
        <ele>75.8</ele>
        <time>2013-05-05T10:19:27Z</time>
      </trkpt>
      <trkpt lat="43.58164" lon="3.74764">
        <ele>75.9</ele>
        <time>2013-05-05T10:19:28Z</time>
      </trkpt>
      <trkpt lat="43.58156" lon="3.74751">
        <ele>77</ele>
        <time>2013-05-05T10:19:34Z</time>
      </trkpt>
      <trkpt lat="43.58149" lon="3.74746">
        <ele>76.5</ele>
        <time>2013-05-05T10:19:36Z</time>
      </trkpt>
      <trkpt lat="43.58142" lon="3.7474">
        <ele>76.2</ele>
        <time>2013-05-05T10:19:38Z</time>
      </trkpt>
      <trkpt lat="43.58138" lon="3.74736">
        <ele>75.9</ele>
        <time>2013-05-05T10:19:39Z</time>
      </trkpt>
      <trkpt lat="43.58133" lon="3.74732">
        <ele>75.7</ele>
        <time>2013-05-05T10:19:40Z</time>
      </trkpt>
      <trkpt lat="43.58129" lon="3.74727">
        <ele>75.5</ele>
        <time>2013-05-05T10:19:41Z</time>
      </trkpt>
      <trkpt lat="43.58124" lon="3.74722">
        <ele>75.5</ele>
        <time>2013-05-05T10:19:42Z</time>
      </trkpt>
      <trkpt lat="43.5812" lon="3.74717">
        <ele>75.4</ele>
        <time>2013-05-05T10:19:43Z</time>
      </trkpt>
      <trkpt lat="43.58116" lon="3.74712">
        <ele>75.4</ele>
        <time>2013-05-05T10:19:44Z</time>
      </trkpt>
      <trkpt lat="43.5811" lon="3.74704">
        <ele>75.5</ele>
        <time>2013-05-05T10:19:46Z</time>
      </trkpt>
      <trkpt lat="43.58103" lon="3.74698">
        <ele>74.1</ele>
        <time>2013-05-05T10:20:13Z</time>
      </trkpt>
      <trkpt lat="43.58099" lon="3.74702">
        <ele>73</ele>
        <time>2013-05-05T10:21:38Z</time>
      </trkpt>
    </trkseg>
  </trk>
</gpx>